<?xml version="1.0" encoding="UTF-8" standalone="no" ?>
<gpx xmlns="http://www.topografix.com/GPX/1/1" xmlns:xsi="http://www.w3.org/2001/XMLSchema-instance" xmlns:gpx_style="http://www.topografix.com/GPX/gpx_style/0/2" xsi:schemaLocation="http://www.topografix.com/GPX/1/1 http://www.topografix.com/GPX/1/1/gpx.xsd http://www.topografix.com/GPX/gpx_style/0/2 http://www.topografix.com/GPX/gpx_style/0/2/gpx_style.xsd" version="1.1" creator="Map Plus 2.8.11.1">
  <metadata>
    <link href="http://www.duweis.com">
      <text>Map Plus</text>
    </link>
    <time>2022-09-27T13:22:00Z</time>
  </metadata>

  <trk>
    <name>Etapa 1 MEDI AMBIENT</name>
    <cmt>Belongs to Etapa-1Cat22</cmt>
    <extensions>
      <gpx_style:line>
        <gpx_style:color>ee8131</gpx_style:color>
        <gpx_style:width>4000</gpx_style:width>
      </gpx_style:line>
    </extensions>
    <trkseg>
      <trkpt lat="42.440293" lon="1.93481">
        <ele>1218.3</ele>
        <time>2022-09-06T14:02:14Z</time>
      </trkpt>
      <trkpt lat="42.440556" lon="1.935222">
        <ele>1218</ele>
        <time>2022-09-06T14:02:22Z</time>
      </trkpt>
      <trkpt lat="42.440817" lon="1.935631">
        <ele>1218</ele>
        <time>2022-09-06T14:02:30Z</time>
      </trkpt>
      <trkpt lat="42.440849" lon="1.93564">
        <ele>1217.8</ele>
        <time>2022-09-06T14:02:30Z</time>
      </trkpt>
      <trkpt lat="42.440894" lon="1.935655">
        <ele>1217.8</ele>
        <time>2022-09-06T14:02:31Z</time>
      </trkpt>
      <trkpt lat="42.441036" lon="1.935607">
        <ele>1218</ele>
        <time>2022-09-06T14:02:34Z</time>
      </trkpt>
      <trkpt lat="42.441072" lon="1.935572">
        <ele>1218</ele>
        <time>2022-09-06T14:02:35Z</time>
      </trkpt>
      <trkpt lat="42.441349" lon="1.935315">
        <ele>1219</ele>
        <time>2022-09-06T14:02:42Z</time>
      </trkpt>
      <trkpt lat="42.441384" lon="1.935282">
        <ele>1219</ele>
        <time>2022-09-06T14:02:43Z</time>
      </trkpt>
      <trkpt lat="42.441611" lon="1.93507">
        <ele>1219.5</ele>
        <time>2022-09-06T14:02:48Z</time>
      </trkpt>
      <trkpt lat="42.441698" lon="1.93499">
        <ele>1219.8</ele>
        <time>2022-09-06T14:02:51Z</time>
      </trkpt>
      <trkpt lat="42.441839" lon="1.934788">
        <ele>1219.8</ele>
        <time>2022-09-06T14:02:55Z</time>
      </trkpt>
      <trkpt lat="42.442213" lon="1.934256">
        <ele>1220.5</ele>
        <time>2022-09-06T14:03:06Z</time>
      </trkpt>
      <trkpt lat="42.442261" lon="1.934156">
        <ele>1220.8</ele>
        <time>2022-09-06T14:03:07Z</time>
      </trkpt>
      <trkpt lat="42.441796" lon="1.933868">
        <ele>1220.8</ele>
        <time>2022-09-06T14:03:18Z</time>
      </trkpt>
      <trkpt lat="42.441648" lon="1.933776">
        <ele>1221</ele>
        <time>2022-09-06T14:03:21Z</time>
      </trkpt>
      <trkpt lat="42.441444" lon="1.933682">
        <ele>1221</ele>
        <time>2022-09-06T14:03:25Z</time>
      </trkpt>
      <trkpt lat="42.441367" lon="1.933647">
        <ele>1221.3</ele>
        <time>2022-09-06T14:03:27Z</time>
      </trkpt>
      <trkpt lat="42.441133" lon="1.933502">
        <ele>1221.8</ele>
        <time>2022-09-06T14:03:32Z</time>
      </trkpt>
      <trkpt lat="42.440914" lon="1.933302">
        <ele>1222.5</ele>
        <time>2022-09-06T14:03:38Z</time>
      </trkpt>
      <trkpt lat="42.440822" lon="1.933197">
        <ele>1222</ele>
        <time>2022-09-06T14:03:40Z</time>
      </trkpt>
      <trkpt lat="42.440661" lon="1.933013">
        <ele>1221.5</ele>
        <time>2022-09-06T14:03:44Z</time>
      </trkpt>
      <trkpt lat="42.440537" lon="1.932853">
        <ele>1221</ele>
        <time>2022-09-06T14:03:48Z</time>
      </trkpt>
      <trkpt lat="42.440346" lon="1.932608">
        <ele>1220.3</ele>
        <time>2022-09-06T14:03:53Z</time>
      </trkpt>
      <trkpt lat="42.440255" lon="1.932489">
        <ele>1220.3</ele>
        <time>2022-09-06T14:03:56Z</time>
      </trkpt>
      <trkpt lat="42.439964" lon="1.932103">
        <ele>1220.3</ele>
        <time>2022-09-06T14:04:04Z</time>
      </trkpt>
      <trkpt lat="42.439707" lon="1.931764">
        <ele>1220.3</ele>
        <time>2022-09-06T14:04:11Z</time>
      </trkpt>
      <trkpt lat="42.439493" lon="1.93148">
        <ele>1220.3</ele>
        <time>2022-09-06T14:04:17Z</time>
      </trkpt>
      <trkpt lat="42.439388" lon="1.931342">
        <ele>1220.5</ele>
        <time>2022-09-06T14:04:20Z</time>
      </trkpt>
      <trkpt lat="42.43924" lon="1.931089">
        <ele>1220.8</ele>
        <time>2022-09-06T14:04:25Z</time>
      </trkpt>
      <trkpt lat="42.439098" lon="1.930849">
        <ele>1221.3</ele>
        <time>2022-09-06T14:04:30Z</time>
      </trkpt>
      <trkpt lat="42.438994" lon="1.930671">
        <ele>1221.8</ele>
        <time>2022-09-06T14:04:33Z</time>
      </trkpt>
      <trkpt lat="42.438938" lon="1.930566">
        <ele>1221.8</ele>
        <time>2022-09-06T14:04:35Z</time>
      </trkpt>
      <trkpt lat="42.438691" lon="1.930099">
        <ele>1221.8</ele>
        <time>2022-09-06T14:04:44Z</time>
      </trkpt>
      <trkpt lat="42.438529" lon="1.929791">
        <ele>1221.8</ele>
        <time>2022-09-06T14:04:49Z</time>
      </trkpt>
      <trkpt lat="42.43851" lon="1.929752">
        <ele>1221.5</ele>
        <time>2022-09-06T14:04:50Z</time>
      </trkpt>
      <trkpt lat="42.43839" lon="1.929505">
        <ele>1221.5</ele>
        <time>2022-09-06T14:04:54Z</time>
      </trkpt>
      <trkpt lat="42.438352" lon="1.929426">
        <ele>1221.5</ele>
        <time>2022-09-06T14:04:56Z</time>
      </trkpt>
      <trkpt lat="42.438297" lon="1.929293">
        <ele>1221.5</ele>
        <time>2022-09-06T14:04:58Z</time>
      </trkpt>
      <trkpt lat="42.438286" lon="1.929266">
        <ele>1221.5</ele>
        <time>2022-09-06T14:04:58Z</time>
      </trkpt>
      <trkpt lat="42.438292" lon="1.929234">
        <ele>1221.8</ele>
        <time>2022-09-06T14:04:59Z</time>
      </trkpt>
      <trkpt lat="42.438303" lon="1.929226">
        <ele>1221.8</ele>
        <time>2022-09-06T14:04:59Z</time>
      </trkpt>
      <trkpt lat="42.438292" lon="1.929234">
        <ele>1221.8</ele>
        <time>2022-09-06T14:04:59Z</time>
      </trkpt>
      <trkpt lat="42.438291" lon="1.929187">
        <ele>1221.8</ele>
        <time>2022-09-06T14:05:00Z</time>
      </trkpt>
      <trkpt lat="42.438281" lon="1.929149">
        <ele>1221.8</ele>
        <time>2022-09-06T14:05:01Z</time>
      </trkpt>
      <trkpt lat="42.438279" lon="1.929142">
        <ele>1221.8</ele>
        <time>2022-09-06T14:05:01Z</time>
      </trkpt>
      <trkpt lat="42.43824" lon="1.929089">
        <ele>1221.5</ele>
        <time>2022-09-06T14:05:02Z</time>
      </trkpt>
      <trkpt lat="42.438245" lon="1.928961">
        <ele>1221.5</ele>
        <time>2022-09-06T14:05:04Z</time>
      </trkpt>
      <trkpt lat="42.438232" lon="1.928897">
        <ele>1221.3</ele>
        <time>2022-09-06T14:05:05Z</time>
      </trkpt>
      <trkpt lat="42.438164" lon="1.928536">
        <ele>1221</ele>
        <time>2022-09-06T14:05:10Z</time>
      </trkpt>
      <trkpt lat="42.438101" lon="1.928197">
        <ele>1220.8</ele>
        <time>2022-09-06T14:05:16Z</time>
      </trkpt>
      <trkpt lat="42.438056" lon="1.927959">
        <ele>1220.5</ele>
        <time>2022-09-06T14:05:19Z</time>
      </trkpt>
      <trkpt lat="42.437998" lon="1.927655">
        <ele>1220.3</ele>
        <time>2022-09-06T14:05:24Z</time>
      </trkpt>
      <trkpt lat="42.437991" lon="1.927614">
        <ele>1220.3</ele>
        <time>2022-09-06T14:05:25Z</time>
      </trkpt>
      <trkpt lat="42.437953" lon="1.927424">
        <ele>1219.5</ele>
        <time>2022-09-06T14:05:28Z</time>
      </trkpt>
      <trkpt lat="42.437909" lon="1.927204">
        <ele>1219</ele>
        <time>2022-09-06T14:05:31Z</time>
      </trkpt>
      <trkpt lat="42.437869" lon="1.927005">
        <ele>1218.5</ele>
        <time>2022-09-06T14:05:34Z</time>
      </trkpt>
      <trkpt lat="42.437839" lon="1.926854">
        <ele>1218</ele>
        <time>2022-09-06T14:05:36Z</time>
      </trkpt>
      <trkpt lat="42.437811" lon="1.926714">
        <ele>1217.5</ele>
        <time>2022-09-06T14:05:39Z</time>
      </trkpt>
      <trkpt lat="42.437771" lon="1.926514">
        <ele>1217</ele>
        <time>2022-09-06T14:05:42Z</time>
      </trkpt>
      <trkpt lat="42.437745" lon="1.926384">
        <ele>1216.8</ele>
        <time>2022-09-06T14:05:44Z</time>
      </trkpt>
      <trkpt lat="42.437723" lon="1.926274">
        <ele>1216.5</ele>
        <time>2022-09-06T14:05:45Z</time>
      </trkpt>
      <trkpt lat="42.437683" lon="1.926297">
        <ele>1216.3</ele>
        <time>2022-09-06T14:05:46Z</time>
      </trkpt>
      <trkpt lat="42.437604" lon="1.926344">
        <ele>1216</ele>
        <time>2022-09-06T14:05:48Z</time>
      </trkpt>
      <trkpt lat="42.43758" lon="1.926278">
        <ele>1215.8</ele>
        <time>2022-09-06T14:05:49Z</time>
      </trkpt>
      <trkpt lat="42.437543" lon="1.92617">
        <ele>1215.5</ele>
        <time>2022-09-06T14:05:51Z</time>
      </trkpt>
      <trkpt lat="42.437496" lon="1.9261">
        <ele>1215.3</ele>
        <time>2022-09-06T14:05:52Z</time>
      </trkpt>
      <trkpt lat="42.437454" lon="1.926039">
        <ele>1215.3</ele>
        <time>2022-09-06T14:05:54Z</time>
      </trkpt>
      <trkpt lat="42.437404" lon="1.925952">
        <ele>1214.8</ele>
        <time>2022-09-06T14:05:55Z</time>
      </trkpt>
      <trkpt lat="42.437326" lon="1.925814">
        <ele>1214.5</ele>
        <time>2022-09-06T14:05:58Z</time>
      </trkpt>
      <trkpt lat="42.437238" lon="1.925662">
        <ele>1214</ele>
        <time>2022-09-06T14:06:01Z</time>
      </trkpt>
      <trkpt lat="42.437213" lon="1.925617">
        <ele>1214</ele>
        <time>2022-09-06T14:06:01Z</time>
      </trkpt>
      <trkpt lat="42.437118" lon="1.925467">
        <ele>1213.8</ele>
        <time>2022-09-06T14:06:04Z</time>
      </trkpt>
      <trkpt lat="42.437182" lon="1.925469">
        <ele>1213.5</ele>
        <time>2022-09-06T14:06:06Z</time>
      </trkpt>
      <trkpt lat="42.437231" lon="1.925444">
        <ele>1213</ele>
        <time>2022-09-06T14:06:07Z</time>
      </trkpt>
      <trkpt lat="42.437396" lon="1.925363">
        <ele>1211.8</ele>
        <time>2022-09-06T14:06:10Z</time>
      </trkpt>
      <trkpt lat="42.43744" lon="1.925342">
        <ele>1211.5</ele>
        <time>2022-09-06T14:06:11Z</time>
      </trkpt>
      <trkpt lat="42.437685" lon="1.925221">
        <ele>1211.5</ele>
        <time>2022-09-06T14:06:17Z</time>
      </trkpt>
      <trkpt lat="42.437914" lon="1.92511">
        <ele>1211.8</ele>
        <time>2022-09-06T14:06:21Z</time>
      </trkpt>
      <trkpt lat="42.437929" lon="1.925102">
        <ele>1211.5</ele>
        <time>2022-09-06T14:06:22Z</time>
      </trkpt>
      <trkpt lat="42.438286" lon="1.924926">
        <ele>1211</ele>
        <time>2022-09-06T14:06:30Z</time>
      </trkpt>
      <trkpt lat="42.438547" lon="1.924797">
        <ele>1209</ele>
        <time>2022-09-06T14:06:35Z</time>
      </trkpt>
      <trkpt lat="42.438833" lon="1.924697">
        <ele>1207.3</ele>
        <time>2022-09-06T14:06:41Z</time>
      </trkpt>
      <trkpt lat="42.439" lon="1.924639">
        <ele>1206.5</ele>
        <time>2022-09-06T14:06:45Z</time>
      </trkpt>
      <trkpt lat="42.439274" lon="1.924621">
        <ele>1206.3</ele>
        <time>2022-09-06T14:06:50Z</time>
      </trkpt>
      <trkpt lat="42.439459" lon="1.924555">
        <ele>1204.5</ele>
        <time>2022-09-06T14:06:54Z</time>
      </trkpt>
      <trkpt lat="42.439561" lon="1.924536">
        <ele>1204</ele>
        <time>2022-09-06T14:06:56Z</time>
      </trkpt>
      <trkpt lat="42.439684" lon="1.924514">
        <ele>1203.5</ele>
        <time>2022-09-06T14:06:59Z</time>
      </trkpt>
      <trkpt lat="42.43984" lon="1.924418">
        <ele>1201.8</ele>
        <time>2022-09-06T14:07:02Z</time>
      </trkpt>
      <trkpt lat="42.440174" lon="1.924012">
        <ele>1196.3</ele>
        <time>2022-09-06T14:07:11Z</time>
      </trkpt>
      <trkpt lat="42.440359" lon="1.923912">
        <ele>1195.3</ele>
        <time>2022-09-06T14:07:15Z</time>
      </trkpt>
      <trkpt lat="42.440398" lon="1.923898">
        <ele>1195</ele>
        <time>2022-09-06T14:07:16Z</time>
      </trkpt>
      <trkpt lat="42.441145" lon="1.923632">
        <ele>1194</ele>
        <time>2022-09-06T14:07:32Z</time>
      </trkpt>
      <trkpt lat="42.441162" lon="1.923626">
        <ele>1194</ele>
        <time>2022-09-06T14:07:32Z</time>
      </trkpt>
      <trkpt lat="42.441402" lon="1.923607">
        <ele>1195</ele>
        <time>2022-09-06T14:07:37Z</time>
      </trkpt>
      <trkpt lat="42.441654" lon="1.923562">
        <ele>1195.5</ele>
        <time>2022-09-06T14:07:42Z</time>
      </trkpt>
      <trkpt lat="42.442026" lon="1.92345">
        <ele>1192.8</ele>
        <time>2022-09-06T14:07:50Z</time>
      </trkpt>
      <trkpt lat="42.442188" lon="1.923402">
        <ele>1191.8</ele>
        <time>2022-09-06T14:07:53Z</time>
      </trkpt>
      <trkpt lat="42.442494" lon="1.923386">
        <ele>1191.3</ele>
        <time>2022-09-06T14:07:59Z</time>
      </trkpt>
      <trkpt lat="42.442711" lon="1.923416">
        <ele>1190.8</ele>
        <time>2022-09-06T14:08:04Z</time>
      </trkpt>
      <trkpt lat="42.442841" lon="1.923435">
        <ele>1190.5</ele>
        <time>2022-09-06T14:08:06Z</time>
      </trkpt>
      <trkpt lat="42.442946" lon="1.923433">
        <ele>1190</ele>
        <time>2022-09-06T14:08:08Z</time>
      </trkpt>
      <trkpt lat="42.443039" lon="1.923355">
        <ele>1187.8</ele>
        <time>2022-09-06T14:08:11Z</time>
      </trkpt>
      <trkpt lat="42.443082" lon="1.923297">
        <ele>1186.8</ele>
        <time>2022-09-06T14:08:12Z</time>
      </trkpt>
      <trkpt lat="42.443118" lon="1.923186">
        <ele>1185.8</ele>
        <time>2022-09-06T14:08:14Z</time>
      </trkpt>
      <trkpt lat="42.443132" lon="1.922981">
        <ele>1184</ele>
        <time>2022-09-06T14:08:17Z</time>
      </trkpt>
      <trkpt lat="42.443125" lon="1.92293">
        <ele>1183.5</ele>
        <time>2022-09-06T14:08:18Z</time>
      </trkpt>
      <trkpt lat="42.443114" lon="1.922851">
        <ele>1183</ele>
        <time>2022-09-06T14:08:19Z</time>
      </trkpt>
      <trkpt lat="42.443079" lon="1.92273">
        <ele>1182</ele>
        <time>2022-09-06T14:08:21Z</time>
      </trkpt>
      <trkpt lat="42.443064" lon="1.922615">
        <ele>1181.3</ele>
        <time>2022-09-06T14:08:22Z</time>
      </trkpt>
      <trkpt lat="42.443083" lon="1.922491">
        <ele>1180.3</ele>
        <time>2022-09-06T14:08:24Z</time>
      </trkpt>
      <trkpt lat="42.443157" lon="1.922324">
        <ele>1179.3</ele>
        <time>2022-09-06T14:08:27Z</time>
      </trkpt>
      <trkpt lat="42.443213" lon="1.922198">
        <ele>1178.5</ele>
        <time>2022-09-06T14:08:29Z</time>
      </trkpt>
      <trkpt lat="42.443364" lon="1.921967">
        <ele>1177.5</ele>
        <time>2022-09-06T14:08:34Z</time>
      </trkpt>
      <trkpt lat="42.443544" lon="1.921778">
        <ele>1177.5</ele>
        <time>2022-09-06T14:08:39Z</time>
      </trkpt>
      <trkpt lat="42.444051" lon="1.921307">
        <ele>1181.5</ele>
        <time>2022-09-06T14:08:51Z</time>
      </trkpt>
      <trkpt lat="42.444097" lon="1.921266">
        <ele>1181.8</ele>
        <time>2022-09-06T14:08:52Z</time>
      </trkpt>
      <trkpt lat="42.444302" lon="1.921087">
        <ele>1183.5</ele>
        <time>2022-09-06T14:08:57Z</time>
      </trkpt>
      <trkpt lat="42.444448" lon="1.921002">
        <ele>1184</ele>
        <time>2022-09-06T14:09:00Z</time>
      </trkpt>
      <trkpt lat="42.444489" lon="1.920888">
        <ele>1184.5</ele>
        <time>2022-09-06T14:09:02Z</time>
      </trkpt>
      <trkpt lat="42.444673" lon="1.920635">
        <ele>1184.5</ele>
        <time>2022-09-06T14:09:08Z</time>
      </trkpt>
      <trkpt lat="42.444742" lon="1.920541">
        <ele>1184.5</ele>
        <time>2022-09-06T14:09:10Z</time>
      </trkpt>
      <trkpt lat="42.444982" lon="1.920249">
        <ele>1184.5</ele>
        <time>2022-09-06T14:09:16Z</time>
      </trkpt>
      <trkpt lat="42.445004" lon="1.920194">
        <ele>1184.3</ele>
        <time>2022-09-06T14:09:17Z</time>
      </trkpt>
      <trkpt lat="42.444985" lon="1.920125">
        <ele>1184.3</ele>
        <time>2022-09-06T14:09:18Z</time>
      </trkpt>
      <trkpt lat="42.444597" lon="1.919526">
        <ele>1182.3</ele>
        <time>2022-09-06T14:09:30Z</time>
      </trkpt>
      <trkpt lat="42.444545" lon="1.919451">
        <ele>1182</ele>
        <time>2022-09-06T14:09:32Z</time>
      </trkpt>
      <trkpt lat="42.444217" lon="1.918981">
        <ele>1181.5</ele>
        <time>2022-09-06T14:09:41Z</time>
      </trkpt>
      <trkpt lat="42.444161" lon="1.91888">
        <ele>1181.5</ele>
        <time>2022-09-06T14:09:43Z</time>
      </trkpt>
      <trkpt lat="42.444133" lon="1.918729">
        <ele>1181.8</ele>
        <time>2022-09-06T14:09:45Z</time>
      </trkpt>
      <trkpt lat="42.444155" lon="1.918662">
        <ele>1181.8</ele>
        <time>2022-09-06T14:09:47Z</time>
      </trkpt>
      <trkpt lat="42.444181" lon="1.918588">
        <ele>1182.3</ele>
        <time>2022-09-06T14:09:48Z</time>
      </trkpt>
      <trkpt lat="42.444312" lon="1.918469">
        <ele>1183.3</ele>
        <time>2022-09-06T14:09:51Z</time>
      </trkpt>
      <trkpt lat="42.444407" lon="1.918355">
        <ele>1184</ele>
        <time>2022-09-06T14:09:53Z</time>
      </trkpt>
      <trkpt lat="42.444403" lon="1.918296">
        <ele>1184</ele>
        <time>2022-09-06T14:09:54Z</time>
      </trkpt>
      <trkpt lat="42.444398" lon="1.918228">
        <ele>1184</ele>
        <time>2022-09-06T14:09:55Z</time>
      </trkpt>
      <trkpt lat="42.444328" lon="1.918022">
        <ele>1184</ele>
        <time>2022-09-06T14:09:59Z</time>
      </trkpt>
      <trkpt lat="42.444262" lon="1.917826">
        <ele>1184</ele>
        <time>2022-09-06T14:10:02Z</time>
      </trkpt>
      <trkpt lat="42.444141" lon="1.917585">
        <ele>1183.8</ele>
        <time>2022-09-06T14:10:06Z</time>
      </trkpt>
      <trkpt lat="42.444049" lon="1.917512">
        <ele>1183.8</ele>
        <time>2022-09-06T14:10:09Z</time>
      </trkpt>
      <trkpt lat="42.443933" lon="1.917513">
        <ele>1183.5</ele>
        <time>2022-09-06T14:10:11Z</time>
      </trkpt>
      <trkpt lat="42.443734" lon="1.917517">
        <ele>1183.3</ele>
        <time>2022-09-06T14:10:15Z</time>
      </trkpt>
      <trkpt lat="42.443603" lon="1.917478">
        <ele>1183.3</ele>
        <time>2022-09-06T14:10:18Z</time>
      </trkpt>
      <trkpt lat="42.443492" lon="1.917308">
        <ele>1183.5</ele>
        <time>2022-09-06T14:10:21Z</time>
      </trkpt>
      <trkpt lat="42.443285" lon="1.916915">
        <ele>1184.3</ele>
        <time>2022-09-06T14:10:28Z</time>
      </trkpt>
      <trkpt lat="42.443233" lon="1.916807">
        <ele>1184.3</ele>
        <time>2022-09-06T14:10:30Z</time>
      </trkpt>
      <trkpt lat="42.442953" lon="1.91622">
        <ele>1185.5</ele>
        <time>2022-09-06T14:10:41Z</time>
      </trkpt>
      <trkpt lat="42.442631" lon="1.916348">
        <ele>1184.8</ele>
        <time>2022-09-06T14:10:47Z</time>
      </trkpt>
      <trkpt lat="42.442453" lon="1.916419">
        <ele>1184.5</ele>
        <time>2022-09-06T14:10:51Z</time>
      </trkpt>
      <trkpt lat="42.441967" lon="1.916583">
        <ele>1182.3</ele>
        <time>2022-09-06T14:11:01Z</time>
      </trkpt>
      <trkpt lat="42.441192" lon="1.916846">
        <ele>1178.8</ele>
        <time>2022-09-06T14:11:17Z</time>
      </trkpt>
      <trkpt lat="42.440989" lon="1.916921">
        <ele>1178</ele>
        <time>2022-09-06T14:11:22Z</time>
      </trkpt>
      <trkpt lat="42.440516" lon="1.917097">
        <ele>1176.8</ele>
        <time>2022-09-06T14:11:32Z</time>
      </trkpt>
      <trkpt lat="42.44011" lon="1.91726">
        <ele>1176</ele>
        <time>2022-09-06T14:11:40Z</time>
      </trkpt>
      <trkpt lat="42.439939" lon="1.91733">
        <ele>1175.8</ele>
        <time>2022-09-06T14:11:44Z</time>
      </trkpt>
      <trkpt lat="42.43991" lon="1.917321">
        <ele>1175.8</ele>
        <time>2022-09-06T14:11:44Z</time>
      </trkpt>
      <trkpt lat="42.439791" lon="1.917385">
        <ele>1175.8</ele>
        <time>2022-09-06T14:11:47Z</time>
      </trkpt>
      <trkpt lat="42.439742" lon="1.91742">
        <ele>1175.8</ele>
        <time>2022-09-06T14:11:48Z</time>
      </trkpt>
      <trkpt lat="42.439657" lon="1.917524">
        <ele>1175.5</ele>
        <time>2022-09-06T14:11:50Z</time>
      </trkpt>
      <trkpt lat="42.439237" lon="1.918047">
        <ele>1174.8</ele>
        <time>2022-09-06T14:12:02Z</time>
      </trkpt>
      <trkpt lat="42.439086" lon="1.918235">
        <ele>1174.5</ele>
        <time>2022-09-06T14:12:06Z</time>
      </trkpt>
      <trkpt lat="42.438791" lon="1.918592">
        <ele>1173.8</ele>
        <time>2022-09-06T14:12:14Z</time>
      </trkpt>
      <trkpt lat="42.438467" lon="1.918985">
        <ele>1173</ele>
        <time>2022-09-06T14:12:23Z</time>
      </trkpt>
      <trkpt lat="42.438145" lon="1.919394">
        <ele>1171.8</ele>
        <time>2022-09-06T14:12:32Z</time>
      </trkpt>
      <trkpt lat="42.437416" lon="1.920321">
        <ele>1169.5</ele>
        <time>2022-09-06T14:12:52Z</time>
      </trkpt>
      <trkpt lat="42.437232" lon="1.92055">
        <ele>1168.5</ele>
        <time>2022-09-06T14:12:57Z</time>
      </trkpt>
      <trkpt lat="42.436954" lon="1.920898">
        <ele>1167.3</ele>
        <time>2022-09-06T14:13:05Z</time>
      </trkpt>
      <trkpt lat="42.436867" lon="1.920996">
        <ele>1167.3</ele>
        <time>2022-09-06T14:13:07Z</time>
      </trkpt>
      <trkpt lat="42.436495" lon="1.920764">
        <ele>1166</ele>
        <time>2022-09-06T14:13:15Z</time>
      </trkpt>
      <trkpt lat="42.436295" lon="1.920791">
        <ele>1166.3</ele>
        <time>2022-09-06T14:13:19Z</time>
      </trkpt>
      <trkpt lat="42.435999" lon="1.920664">
        <ele>1166.3</ele>
        <time>2022-09-06T14:13:26Z</time>
      </trkpt>
      <trkpt lat="42.43587" lon="1.92061">
        <ele>1166.3</ele>
        <time>2022-09-06T14:13:28Z</time>
      </trkpt>
      <trkpt lat="42.435656" lon="1.920466">
        <ele>1165.5</ele>
        <time>2022-09-06T14:13:33Z</time>
      </trkpt>
      <trkpt lat="42.435437" lon="1.92029">
        <ele>1164.8</ele>
        <time>2022-09-06T14:13:38Z</time>
      </trkpt>
      <trkpt lat="42.435319" lon="1.9201">
        <ele>1164.3</ele>
        <time>2022-09-06T14:13:42Z</time>
      </trkpt>
      <trkpt lat="42.435285" lon="1.919997">
        <ele>1164.3</ele>
        <time>2022-09-06T14:13:44Z</time>
      </trkpt>
      <trkpt lat="42.435228" lon="1.919927">
        <ele>1163.5</ele>
        <time>2022-09-06T14:13:45Z</time>
      </trkpt>
      <trkpt lat="42.435088" lon="1.919861">
        <ele>1162</ele>
        <time>2022-09-06T14:13:48Z</time>
      </trkpt>
      <trkpt lat="42.434683" lon="1.919672">
        <ele>1158</ele>
        <time>2022-09-06T14:13:57Z</time>
      </trkpt>
      <trkpt lat="42.43443" lon="1.91961">
        <ele>1155.5</ele>
        <time>2022-09-06T14:14:02Z</time>
      </trkpt>
      <trkpt lat="42.434252" lon="1.919501">
        <ele>1153.8</ele>
        <time>2022-09-06T14:14:06Z</time>
      </trkpt>
      <trkpt lat="42.434161" lon="1.91949">
        <ele>1153</ele>
        <time>2022-09-06T14:14:08Z</time>
      </trkpt>
      <trkpt lat="42.434067" lon="1.919517">
        <ele>1153.5</ele>
        <time>2022-09-06T14:14:10Z</time>
      </trkpt>
      <trkpt lat="42.434056" lon="1.919525">
        <ele>1153.5</ele>
        <time>2022-09-06T14:14:10Z</time>
      </trkpt>
      <trkpt lat="42.433912" lon="1.919645">
        <ele>1154.5</ele>
        <time>2022-09-06T14:14:14Z</time>
      </trkpt>
      <trkpt lat="42.433765" lon="1.919697">
        <ele>1155</ele>
        <time>2022-09-06T14:14:17Z</time>
      </trkpt>
      <trkpt lat="42.433462" lon="1.919805">
        <ele>1156.3</ele>
        <time>2022-09-06T14:14:23Z</time>
      </trkpt>
      <trkpt lat="42.433381" lon="1.919835">
        <ele>1156.8</ele>
        <time>2022-09-06T14:14:25Z</time>
      </trkpt>
      <trkpt lat="42.433138" lon="1.92002">
        <ele>1155.8</ele>
        <time>2022-09-06T14:14:30Z</time>
      </trkpt>
      <trkpt lat="42.432835" lon="1.920251">
        <ele>1154.5</ele>
        <time>2022-09-06T14:14:37Z</time>
      </trkpt>
      <trkpt lat="42.432636" lon="1.920403">
        <ele>1154</ele>
        <time>2022-09-06T14:14:42Z</time>
      </trkpt>
      <trkpt lat="42.432598" lon="1.920239">
        <ele>1154</ele>
        <time>2022-09-06T14:14:45Z</time>
      </trkpt>
      <trkpt lat="42.432583" lon="1.92017">
        <ele>1154</ele>
        <time>2022-09-06T14:14:46Z</time>
      </trkpt>
      <trkpt lat="42.432521" lon="1.919864">
        <ele>1154.5</ele>
        <time>2022-09-06T14:14:50Z</time>
      </trkpt>
      <trkpt lat="42.432507" lon="1.919816">
        <ele>1154.5</ele>
        <time>2022-09-06T14:14:51Z</time>
      </trkpt>
      <trkpt lat="42.43248" lon="1.919714">
        <ele>1154.8</ele>
        <time>2022-09-06T14:14:53Z</time>
      </trkpt>
      <trkpt lat="42.432428" lon="1.919616">
        <ele>1155</ele>
        <time>2022-09-06T14:14:55Z</time>
      </trkpt>
      <trkpt lat="42.432409" lon="1.919635">
        <ele>1154.8</ele>
        <time>2022-09-06T14:14:55Z</time>
      </trkpt>
      <trkpt lat="42.432387" lon="1.919644">
        <ele>1154.8</ele>
        <time>2022-09-06T14:14:56Z</time>
      </trkpt>
      <trkpt lat="42.432364" lon="1.919643">
        <ele>1154.5</ele>
        <time>2022-09-06T14:14:56Z</time>
      </trkpt>
      <trkpt lat="42.432343" lon="1.919632">
        <ele>1154.5</ele>
        <time>2022-09-06T14:14:57Z</time>
      </trkpt>
      <trkpt lat="42.432325" lon="1.919611">
        <ele>1154.5</ele>
        <time>2022-09-06T14:14:57Z</time>
      </trkpt>
      <trkpt lat="42.432313" lon="1.919584">
        <ele>1154.5</ele>
        <time>2022-09-06T14:14:57Z</time>
      </trkpt>
      <trkpt lat="42.432309" lon="1.919556">
        <ele>1154.8</ele>
        <time>2022-09-06T14:14:58Z</time>
      </trkpt>
      <trkpt lat="42.43232" lon="1.919501">
        <ele>1154.8</ele>
        <time>2022-09-06T14:14:59Z</time>
      </trkpt>
      <trkpt lat="42.432353" lon="1.919465">
        <ele>1155</ele>
        <time>2022-09-06T14:15:00Z</time>
      </trkpt>
      <trkpt lat="42.432374" lon="1.919459">
        <ele>1155.3</ele>
        <time>2022-09-06T14:15:00Z</time>
      </trkpt>
      <trkpt lat="42.432412" lon="1.919325">
        <ele>1155.8</ele>
        <time>2022-09-06T14:15:02Z</time>
      </trkpt>
      <trkpt lat="42.432434" lon="1.91925">
        <ele>1156.3</ele>
        <time>2022-09-06T14:15:03Z</time>
      </trkpt>
      <trkpt lat="42.432585" lon="1.919046">
        <ele>1156.5</ele>
        <time>2022-09-06T14:15:08Z</time>
      </trkpt>
      <trkpt lat="42.432599" lon="1.919027">
        <ele>1156.3</ele>
        <time>2022-09-06T14:15:08Z</time>
      </trkpt>
      <trkpt lat="42.432682" lon="1.918916">
        <ele>1156</ele>
        <time>2022-09-06T14:15:10Z</time>
      </trkpt>
      <trkpt lat="42.432774" lon="1.918806">
        <ele>1155.5</ele>
        <time>2022-09-06T14:15:13Z</time>
      </trkpt>
      <trkpt lat="42.432849" lon="1.918645">
        <ele>1154.8</ele>
        <time>2022-09-06T14:15:16Z</time>
      </trkpt>
      <trkpt lat="42.432878" lon="1.918584">
        <ele>1154.5</ele>
        <time>2022-09-06T14:15:17Z</time>
      </trkpt>
      <trkpt lat="42.432886" lon="1.918511">
        <ele>1154.3</ele>
        <time>2022-09-06T14:15:18Z</time>
      </trkpt>
      <trkpt lat="42.432898" lon="1.91841">
        <ele>1153.8</ele>
        <time>2022-09-06T14:15:20Z</time>
      </trkpt>
      <trkpt lat="42.432893" lon="1.918353">
        <ele>1153.5</ele>
        <time>2022-09-06T14:15:20Z</time>
      </trkpt>
      <trkpt lat="42.43288" lon="1.918225">
        <ele>1153</ele>
        <time>2022-09-06T14:15:22Z</time>
      </trkpt>
      <trkpt lat="42.432863" lon="1.918111">
        <ele>1152.5</ele>
        <time>2022-09-06T14:15:24Z</time>
      </trkpt>
      <trkpt lat="42.432833" lon="1.917892">
        <ele>1151.8</ele>
        <time>2022-09-06T14:15:27Z</time>
      </trkpt>
      <trkpt lat="42.432762" lon="1.917628">
        <ele>1150.8</ele>
        <time>2022-09-06T14:15:32Z</time>
      </trkpt>
      <trkpt lat="42.432716" lon="1.917467">
        <ele>1150.5</ele>
        <time>2022-09-06T14:15:34Z</time>
      </trkpt>
      <trkpt lat="42.432688" lon="1.917369">
        <ele>1150.5</ele>
        <time>2022-09-06T14:15:36Z</time>
      </trkpt>
      <trkpt lat="42.432632" lon="1.917131">
        <ele>1151</ele>
        <time>2022-09-06T14:15:39Z</time>
      </trkpt>
      <trkpt lat="42.432625" lon="1.917093">
        <ele>1151.3</ele>
        <time>2022-09-06T14:15:40Z</time>
      </trkpt>
      <trkpt lat="42.432589" lon="1.916965">
        <ele>1151.3</ele>
        <time>2022-09-06T14:15:42Z</time>
      </trkpt>
      <trkpt lat="42.432562" lon="1.916858">
        <ele>1151.5</ele>
        <time>2022-09-06T14:15:44Z</time>
      </trkpt>
      <trkpt lat="42.43244" lon="1.91638">
        <ele>1153</ele>
        <time>2022-09-06T14:15:51Z</time>
      </trkpt>
      <trkpt lat="42.432423" lon="1.916312">
        <ele>1153.3</ele>
        <time>2022-09-06T14:15:52Z</time>
      </trkpt>
      <trkpt lat="42.432366" lon="1.916342">
        <ele>1153</ele>
        <time>2022-09-06T14:15:54Z</time>
      </trkpt>
      <trkpt lat="42.432301" lon="1.916038">
        <ele>1153.8</ele>
        <time>2022-09-06T14:15:58Z</time>
      </trkpt>
      <trkpt lat="42.432271" lon="1.915893">
        <ele>1154.3</ele>
        <time>2022-09-06T14:16:01Z</time>
      </trkpt>
      <trkpt lat="42.432223" lon="1.915717">
        <ele>1154.3</ele>
        <time>2022-09-06T14:16:03Z</time>
      </trkpt>
      <trkpt lat="42.432149" lon="1.915448">
        <ele>1154.3</ele>
        <time>2022-09-06T14:16:08Z</time>
      </trkpt>
      <trkpt lat="42.432121" lon="1.915375">
        <ele>1154.3</ele>
        <time>2022-09-06T14:16:09Z</time>
      </trkpt>
      <trkpt lat="42.431933" lon="1.914881">
        <ele>1155</ele>
        <time>2022-09-06T14:16:17Z</time>
      </trkpt>
      <trkpt lat="42.43188" lon="1.914743">
        <ele>1155.3</ele>
        <time>2022-09-06T14:16:20Z</time>
      </trkpt>
      <trkpt lat="42.431864" lon="1.9147">
        <ele>1155.5</ele>
        <time>2022-09-06T14:16:20Z</time>
      </trkpt>
      <trkpt lat="42.431797" lon="1.91444">
        <ele>1156</ele>
        <time>2022-09-06T14:16:24Z</time>
      </trkpt>
      <trkpt lat="42.43179" lon="1.91441">
        <ele>1156.3</ele>
        <time>2022-09-06T14:16:25Z</time>
      </trkpt>
      <trkpt lat="42.431803" lon="1.914014">
        <ele>1157.3</ele>
        <time>2022-09-06T14:16:31Z</time>
      </trkpt>
      <trkpt lat="42.431783" lon="1.913615">
        <ele>1158.8</ele>
        <time>2022-09-06T14:16:37Z</time>
      </trkpt>
      <trkpt lat="42.431782" lon="1.91359">
        <ele>1159</ele>
        <time>2022-09-06T14:16:37Z</time>
      </trkpt>
      <trkpt lat="42.431648" lon="1.913164">
        <ele>1159</ele>
        <time>2022-09-06T14:16:44Z</time>
      </trkpt>
      <trkpt lat="42.431635" lon="1.913121">
        <ele>1159</ele>
        <time>2022-09-06T14:16:45Z</time>
      </trkpt>
      <trkpt lat="42.431521" lon="1.912898">
        <ele>1158.3</ele>
        <time>2022-09-06T14:16:49Z</time>
      </trkpt>
      <trkpt lat="42.43135" lon="1.912565">
        <ele>1157.5</ele>
        <time>2022-09-06T14:16:55Z</time>
      </trkpt>
      <trkpt lat="42.431299" lon="1.912464">
        <ele>1157.5</ele>
        <time>2022-09-06T14:16:57Z</time>
      </trkpt>
      <trkpt lat="42.43114" lon="1.912143">
        <ele>1158</ele>
        <time>2022-09-06T14:17:02Z</time>
      </trkpt>
      <trkpt lat="42.43092" lon="1.911697">
        <ele>1158.8</ele>
        <time>2022-09-06T14:17:10Z</time>
      </trkpt>
      <trkpt lat="42.430898" lon="1.911642">
        <ele>1158.8</ele>
        <time>2022-09-06T14:17:11Z</time>
      </trkpt>
      <trkpt lat="42.43071" lon="1.911152">
        <ele>1158.8</ele>
        <time>2022-09-06T14:17:20Z</time>
      </trkpt>
      <trkpt lat="42.430683" lon="1.911081">
        <ele>1159</ele>
        <time>2022-09-06T14:17:21Z</time>
      </trkpt>
      <trkpt lat="42.430465" lon="1.910512">
        <ele>1159</ele>
        <time>2022-09-06T14:17:30Z</time>
      </trkpt>
      <trkpt lat="42.430389" lon="1.910182">
        <ele>1159</ele>
        <time>2022-09-06T14:17:36Z</time>
      </trkpt>
      <trkpt lat="42.430353" lon="1.910026">
        <ele>1159.3</ele>
        <time>2022-09-06T14:17:38Z</time>
      </trkpt>
      <trkpt lat="42.430338" lon="1.909879">
        <ele>1159.3</ele>
        <time>2022-09-06T14:17:40Z</time>
      </trkpt>
      <trkpt lat="42.430514" lon="1.909851">
        <ele>1159.3</ele>
        <time>2022-09-06T14:17:44Z</time>
      </trkpt>
      <trkpt lat="42.43094" lon="1.909784">
        <ele>1159.8</ele>
        <time>2022-09-06T14:17:53Z</time>
      </trkpt>
      <trkpt lat="42.431109" lon="1.909758">
        <ele>1160</ele>
        <time>2022-09-06T14:17:56Z</time>
      </trkpt>
      <trkpt lat="42.431392" lon="1.909788">
        <ele>1159.5</ele>
        <time>2022-09-06T14:18:02Z</time>
      </trkpt>
      <trkpt lat="42.431514" lon="1.909798">
        <ele>1159</ele>
        <time>2022-09-06T14:18:04Z</time>
      </trkpt>
      <trkpt lat="42.431599" lon="1.909713">
        <ele>1159.3</ele>
        <time>2022-09-06T14:18:06Z</time>
      </trkpt>
      <trkpt lat="42.431595" lon="1.90962">
        <ele>1159.8</ele>
        <time>2022-09-06T14:18:08Z</time>
      </trkpt>
      <trkpt lat="42.431592" lon="1.909531">
        <ele>1160.3</ele>
        <time>2022-09-06T14:18:09Z</time>
      </trkpt>
      <trkpt lat="42.431503" lon="1.909179">
        <ele>1161.3</ele>
        <time>2022-09-06T14:18:15Z</time>
      </trkpt>
      <trkpt lat="42.431393" lon="1.908744">
        <ele>1162.5</ele>
        <time>2022-09-06T14:18:21Z</time>
      </trkpt>
      <trkpt lat="42.431381" lon="1.90868">
        <ele>1162.5</ele>
        <time>2022-09-06T14:18:22Z</time>
      </trkpt>
      <trkpt lat="42.431364" lon="1.908577">
        <ele>1162.5</ele>
        <time>2022-09-06T14:18:24Z</time>
      </trkpt>
      <trkpt lat="42.431401" lon="1.908479">
        <ele>1162.8</ele>
        <time>2022-09-06T14:18:26Z</time>
      </trkpt>
      <trkpt lat="42.431517" lon="1.908453">
        <ele>1163.3</ele>
        <time>2022-09-06T14:18:28Z</time>
      </trkpt>
      <trkpt lat="42.431574" lon="1.908412">
        <ele>1163.3</ele>
        <time>2022-09-06T14:18:29Z</time>
      </trkpt>
      <trkpt lat="42.431605" lon="1.908391">
        <ele>1163.5</ele>
        <time>2022-09-06T14:18:30Z</time>
      </trkpt>
      <trkpt lat="42.431646" lon="1.908327">
        <ele>1163.8</ele>
        <time>2022-09-06T14:18:31Z</time>
      </trkpt>
      <trkpt lat="42.431788" lon="1.908359">
        <ele>1163.8</ele>
        <time>2022-09-06T14:18:34Z</time>
      </trkpt>
      <trkpt lat="42.431853" lon="1.908359">
        <ele>1163.5</ele>
        <time>2022-09-06T14:18:36Z</time>
      </trkpt>
      <trkpt lat="42.431927" lon="1.908359">
        <ele>1163.5</ele>
        <time>2022-09-06T14:18:37Z</time>
      </trkpt>
      <trkpt lat="42.432021" lon="1.908282">
        <ele>1163.5</ele>
        <time>2022-09-06T14:18:39Z</time>
      </trkpt>
      <trkpt lat="42.432048" lon="1.908247">
        <ele>1163.5</ele>
        <time>2022-09-06T14:18:40Z</time>
      </trkpt>
      <trkpt lat="42.432085" lon="1.908201">
        <ele>1163.5</ele>
        <time>2022-09-06T14:18:41Z</time>
      </trkpt>
      <trkpt lat="42.432325" lon="1.908074">
        <ele>1163.5</ele>
        <time>2022-09-06T14:18:46Z</time>
      </trkpt>
      <trkpt lat="42.432412" lon="1.908037">
        <ele>1163.5</ele>
        <time>2022-09-06T14:18:48Z</time>
      </trkpt>
      <trkpt lat="42.432951" lon="1.907813">
        <ele>1164.5</ele>
        <time>2022-09-06T14:18:59Z</time>
      </trkpt>
      <trkpt lat="42.433218" lon="1.907702">
        <ele>1165.3</ele>
        <time>2022-09-06T14:19:05Z</time>
      </trkpt>
      <trkpt lat="42.433495" lon="1.907578">
        <ele>1165.8</ele>
        <time>2022-09-06T14:19:11Z</time>
      </trkpt>
      <trkpt lat="42.433606" lon="1.907529">
        <ele>1166.3</ele>
        <time>2022-09-06T14:19:13Z</time>
      </trkpt>
      <trkpt lat="42.433863" lon="1.907444">
        <ele>1166.5</ele>
        <time>2022-09-06T14:19:19Z</time>
      </trkpt>
      <trkpt lat="42.434047" lon="1.907294">
        <ele>1166.5</ele>
        <time>2022-09-06T14:19:23Z</time>
      </trkpt>
      <trkpt lat="42.434112" lon="1.907242">
        <ele>1166.5</ele>
        <time>2022-09-06T14:19:25Z</time>
      </trkpt>
      <trkpt lat="42.434505" lon="1.906905">
        <ele>1167.3</ele>
        <time>2022-09-06T14:19:34Z</time>
      </trkpt>
      <trkpt lat="42.43466" lon="1.906756">
        <ele>1167.8</ele>
        <time>2022-09-06T14:19:38Z</time>
      </trkpt>
      <trkpt lat="42.434871" lon="1.906555">
        <ele>1169</ele>
        <time>2022-09-06T14:19:43Z</time>
      </trkpt>
      <trkpt lat="42.435068" lon="1.906426">
        <ele>1170.5</ele>
        <time>2022-09-06T14:19:48Z</time>
      </trkpt>
      <trkpt lat="42.435156" lon="1.90637">
        <ele>1171.3</ele>
        <time>2022-09-06T14:19:50Z</time>
      </trkpt>
      <trkpt lat="42.435414" lon="1.906327">
        <ele>1172.8</ele>
        <time>2022-09-06T14:19:55Z</time>
      </trkpt>
      <trkpt lat="42.435588" lon="1.906227">
        <ele>1173.8</ele>
        <time>2022-09-06T14:19:59Z</time>
      </trkpt>
      <trkpt lat="42.435616" lon="1.90621">
        <ele>1174</ele>
        <time>2022-09-06T14:19:59Z</time>
      </trkpt>
      <trkpt lat="42.435614" lon="1.906201">
        <ele>1174</ele>
        <time>2022-09-06T14:19:59Z</time>
      </trkpt>
      <trkpt lat="42.435572" lon="1.905872">
        <ele>1174.3</ele>
        <time>2022-09-06T14:20:04Z</time>
      </trkpt>
      <trkpt lat="42.435552" lon="1.905782">
        <ele>1174.5</ele>
        <time>2022-09-06T14:20:06Z</time>
      </trkpt>
      <trkpt lat="42.435468" lon="1.905382">
        <ele>1176</ele>
        <time>2022-09-06T14:20:12Z</time>
      </trkpt>
      <trkpt lat="42.435349" lon="1.905163">
        <ele>1177</ele>
        <time>2022-09-06T14:20:16Z</time>
      </trkpt>
      <trkpt lat="42.435224" lon="1.904932">
        <ele>1178.5</ele>
        <time>2022-09-06T14:20:20Z</time>
      </trkpt>
      <trkpt lat="42.43515" lon="1.904699">
        <ele>1180.5</ele>
        <time>2022-09-06T14:20:24Z</time>
      </trkpt>
      <trkpt lat="42.435087" lon="1.904502">
        <ele>1182.5</ele>
        <time>2022-09-06T14:20:27Z</time>
      </trkpt>
      <trkpt lat="42.435037" lon="1.904191">
        <ele>1185.5</ele>
        <time>2022-09-06T14:20:32Z</time>
      </trkpt>
      <trkpt lat="42.434955" lon="1.903964">
        <ele>1189.3</ele>
        <time>2022-09-06T14:20:36Z</time>
      </trkpt>
      <trkpt lat="42.434948" lon="1.903945">
        <ele>1189.8</ele>
        <time>2022-09-06T14:20:36Z</time>
      </trkpt>
      <trkpt lat="42.434919" lon="1.903607">
        <ele>1195.5</ele>
        <time>2022-09-06T14:20:41Z</time>
      </trkpt>
      <trkpt lat="42.434821" lon="1.903186">
        <ele>1203.5</ele>
        <time>2022-09-06T14:20:48Z</time>
      </trkpt>
      <trkpt lat="42.434883" lon="1.903171">
        <ele>1203.3</ele>
        <time>2022-09-06T14:20:49Z</time>
      </trkpt>
      <trkpt lat="42.434901" lon="1.903167">
        <ele>1203.3</ele>
        <time>2022-09-06T14:20:49Z</time>
      </trkpt>
      <trkpt lat="42.435068" lon="1.903059">
        <ele>1204</ele>
        <time>2022-09-06T14:20:53Z</time>
      </trkpt>
      <trkpt lat="42.435386" lon="1.902564">
        <ele>1211.3</ele>
        <time>2022-09-06T14:21:03Z</time>
      </trkpt>
      <trkpt lat="42.435505" lon="1.90238">
        <ele>1214.3</ele>
        <time>2022-09-06T14:21:07Z</time>
      </trkpt>
      <trkpt lat="42.435584" lon="1.902353">
        <ele>1214.5</ele>
        <time>2022-09-06T14:21:08Z</time>
      </trkpt>
      <trkpt lat="42.435793" lon="1.902407">
        <ele>1212.8</ele>
        <time>2022-09-06T14:21:13Z</time>
      </trkpt>
      <trkpt lat="42.435892" lon="1.90241">
        <ele>1212.5</ele>
        <time>2022-09-06T14:21:15Z</time>
      </trkpt>
      <trkpt lat="42.436086" lon="1.902272">
        <ele>1214.5</ele>
        <time>2022-09-06T14:21:19Z</time>
      </trkpt>
      <trkpt lat="42.436161" lon="1.902255">
        <ele>1214.5</ele>
        <time>2022-09-06T14:21:21Z</time>
      </trkpt>
      <trkpt lat="42.436346" lon="1.902215">
        <ele>1215</ele>
        <time>2022-09-06T14:21:24Z</time>
      </trkpt>
      <trkpt lat="42.436543" lon="1.902054">
        <ele>1217.8</ele>
        <time>2022-09-06T14:21:29Z</time>
      </trkpt>
      <trkpt lat="42.436701" lon="1.902064">
        <ele>1217</ele>
        <time>2022-09-06T14:21:32Z</time>
      </trkpt>
      <trkpt lat="42.436865" lon="1.901997">
        <ele>1217.5</ele>
        <time>2022-09-06T14:21:36Z</time>
      </trkpt>
      <trkpt lat="42.436956" lon="1.901936">
        <ele>1218</ele>
        <time>2022-09-06T14:21:38Z</time>
      </trkpt>
      <trkpt lat="42.437421" lon="1.90163">
        <ele>1221.3</ele>
        <time>2022-09-06T14:21:48Z</time>
      </trkpt>
      <trkpt lat="42.437594" lon="1.901544">
        <ele>1221.5</ele>
        <time>2022-09-06T14:21:52Z</time>
      </trkpt>
      <trkpt lat="42.437749" lon="1.901468">
        <ele>1222</ele>
        <time>2022-09-06T14:21:55Z</time>
      </trkpt>
      <trkpt lat="42.438141" lon="1.901297">
        <ele>1221.5</ele>
        <time>2022-09-06T14:22:04Z</time>
      </trkpt>
      <trkpt lat="42.438365" lon="1.901156">
        <ele>1222.3</ele>
        <time>2022-09-06T14:22:09Z</time>
      </trkpt>
      <trkpt lat="42.438973" lon="1.901018">
        <ele>1222.3</ele>
        <time>2022-09-06T14:22:21Z</time>
      </trkpt>
      <trkpt lat="42.439125" lon="1.900972">
        <ele>1222.3</ele>
        <time>2022-09-06T14:22:24Z</time>
      </trkpt>
      <trkpt lat="42.439617" lon="1.900827">
        <ele>1222.3</ele>
        <time>2022-09-06T14:22:34Z</time>
      </trkpt>
      <trkpt lat="42.439931" lon="1.900684">
        <ele>1222.3</ele>
        <time>2022-09-06T14:22:41Z</time>
      </trkpt>
      <trkpt lat="42.440323" lon="1.900579">
        <ele>1222.3</ele>
        <time>2022-09-06T14:22:49Z</time>
      </trkpt>
      <trkpt lat="42.44034" lon="1.900575">
        <ele>1222.5</ele>
        <time>2022-09-06T14:22:50Z</time>
      </trkpt>
      <trkpt lat="42.440933" lon="1.900463">
        <ele>1222.3</ele>
        <time>2022-09-06T14:23:02Z</time>
      </trkpt>
      <trkpt lat="42.441023" lon="1.900464">
        <ele>1222</ele>
        <time>2022-09-06T14:23:04Z</time>
      </trkpt>
      <trkpt lat="42.441223" lon="1.900467">
        <ele>1222</ele>
        <time>2022-09-06T14:23:08Z</time>
      </trkpt>
      <trkpt lat="42.441621" lon="1.900455">
        <ele>1221.3</ele>
        <time>2022-09-06T14:23:16Z</time>
      </trkpt>
      <trkpt lat="42.442175" lon="1.90044">
        <ele>1220.3</ele>
        <time>2022-09-06T14:23:27Z</time>
      </trkpt>
      <trkpt lat="42.442233" lon="1.900439">
        <ele>1220.3</ele>
        <time>2022-09-06T14:23:28Z</time>
      </trkpt>
      <trkpt lat="42.442585" lon="1.900422">
        <ele>1219.8</ele>
        <time>2022-09-06T14:23:35Z</time>
      </trkpt>
      <trkpt lat="42.44267" lon="1.900415">
        <ele>1219.5</ele>
        <time>2022-09-06T14:23:37Z</time>
      </trkpt>
      <trkpt lat="42.442832" lon="1.900342">
        <ele>1220</ele>
        <time>2022-09-06T14:23:41Z</time>
      </trkpt>
      <trkpt lat="42.442769" lon="1.9003">
        <ele>1220.5</ele>
        <time>2022-09-06T14:23:42Z</time>
      </trkpt>
      <trkpt lat="42.44274" lon="1.90029">
        <ele>1228.6</ele>
        <time>2022-09-06T14:23:43Z</time>
      </trkpt>
      <trkpt lat="42.44271" lon="1.90027">
        <ele>1228.6</ele>
        <time>2022-09-06T14:23:44Z</time>
      </trkpt>
      <trkpt lat="42.44268" lon="1.90025">
        <ele>1228.6</ele>
        <time>2022-09-06T14:23:45Z</time>
      </trkpt>
      <trkpt lat="42.44264" lon="1.90022">
        <ele>1230</ele>
        <time>2022-09-06T14:23:46Z</time>
      </trkpt>
      <trkpt lat="42.4426" lon="1.9002">
        <ele>1230</ele>
        <time>2022-09-06T14:23:47Z</time>
      </trkpt>
      <trkpt lat="42.44256" lon="1.90018">
        <ele>1230</ele>
        <time>2022-09-06T14:23:48Z</time>
      </trkpt>
      <trkpt lat="42.44251" lon="1.90016">
        <ele>1230</ele>
        <time>2022-09-06T14:23:49Z</time>
      </trkpt>
      <trkpt lat="42.44247" lon="1.90015">
        <ele>1230</ele>
        <time>2022-09-06T14:23:50Z</time>
      </trkpt>
      <trkpt lat="42.44242" lon="1.90014">
        <ele>1231</ele>
        <time>2022-09-06T14:23:51Z</time>
      </trkpt>
      <trkpt lat="42.44237" lon="1.90012">
        <ele>1231</ele>
        <time>2022-09-06T14:23:52Z</time>
      </trkpt>
      <trkpt lat="42.44232" lon="1.9001">
        <ele>1231</ele>
        <time>2022-09-06T14:23:53Z</time>
      </trkpt>
      <trkpt lat="42.44228" lon="1.90009">
        <ele>1230.8</ele>
        <time>2022-09-06T14:23:54Z</time>
      </trkpt>
      <trkpt lat="42.44223" lon="1.90007">
        <ele>1230.8</ele>
        <time>2022-09-06T14:23:55Z</time>
      </trkpt>
      <trkpt lat="42.44218" lon="1.90006">
        <ele>1230.8</ele>
        <time>2022-09-06T14:23:56Z</time>
      </trkpt>
      <trkpt lat="42.44213" lon="1.90004">
        <ele>1230.8</ele>
        <time>2022-09-06T14:23:57Z</time>
      </trkpt>
      <trkpt lat="42.44208" lon="1.90003">
        <ele>1231.8</ele>
        <time>2022-09-06T14:23:58Z</time>
      </trkpt>
      <trkpt lat="42.44203" lon="1.90002">
        <ele>1231.4</ele>
        <time>2022-09-06T14:23:59Z</time>
      </trkpt>
      <trkpt lat="42.44198" lon="1.90001">
        <ele>1231.4</ele>
        <time>2022-09-06T14:24:00Z</time>
      </trkpt>
      <trkpt lat="42.44192" lon="1.89999">
        <ele>1231.4</ele>
        <time>2022-09-06T14:24:01Z</time>
      </trkpt>
      <trkpt lat="42.44187" lon="1.89997">
        <ele>1232.4</ele>
        <time>2022-09-06T14:24:02Z</time>
      </trkpt>
      <trkpt lat="42.44182" lon="1.89996">
        <ele>1230.8</ele>
        <time>2022-09-06T14:24:03Z</time>
      </trkpt>
      <trkpt lat="42.44177" lon="1.89993">
        <ele>1230.8</ele>
        <time>2022-09-06T14:24:04Z</time>
      </trkpt>
      <trkpt lat="42.44172" lon="1.89991">
        <ele>1230.8</ele>
        <time>2022-09-06T14:24:05Z</time>
      </trkpt>
      <trkpt lat="42.44167" lon="1.89988">
        <ele>1231.8</ele>
        <time>2022-09-06T14:24:06Z</time>
      </trkpt>
      <trkpt lat="42.44163" lon="1.89985">
        <ele>1232.8</ele>
        <time>2022-09-06T14:24:07Z</time>
      </trkpt>
      <trkpt lat="42.44158" lon="1.89981">
        <ele>1232.8</ele>
        <time>2022-09-06T14:24:08Z</time>
      </trkpt>
      <trkpt lat="42.44154" lon="1.89978">
        <ele>1232.8</ele>
        <time>2022-09-06T14:24:09Z</time>
      </trkpt>
      <trkpt lat="42.4415" lon="1.89973">
        <ele>1232.8</ele>
        <time>2022-09-06T14:24:10Z</time>
      </trkpt>
      <trkpt lat="42.44146" lon="1.89969">
        <ele>1232.8</ele>
        <time>2022-09-06T14:24:11Z</time>
      </trkpt>
      <trkpt lat="42.44142" lon="1.89965">
        <ele>1234.2</ele>
        <time>2022-09-06T14:24:12Z</time>
      </trkpt>
      <trkpt lat="42.44138" lon="1.89962">
        <ele>1234.2</ele>
        <time>2022-09-06T14:24:13Z</time>
      </trkpt>
      <trkpt lat="42.44133" lon="1.89958">
        <ele>1234.2</ele>
        <time>2022-09-06T14:24:14Z</time>
      </trkpt>
      <trkpt lat="42.44129" lon="1.89955">
        <ele>1234.2</ele>
        <time>2022-09-06T14:24:15Z</time>
      </trkpt>
      <trkpt lat="42.44125" lon="1.89953">
        <ele>1236.8</ele>
        <time>2022-09-06T14:24:16Z</time>
      </trkpt>
      <trkpt lat="42.4412" lon="1.89951">
        <ele>1236.8</ele>
        <time>2022-09-06T14:24:17Z</time>
      </trkpt>
      <trkpt lat="42.44116" lon="1.8995">
        <ele>1236.8</ele>
        <time>2022-09-06T14:24:18Z</time>
      </trkpt>
      <trkpt lat="42.44111" lon="1.89949">
        <ele>1236.8</ele>
        <time>2022-09-06T14:24:19Z</time>
      </trkpt>
      <trkpt lat="42.44107" lon="1.89949">
        <ele>1238.4</ele>
        <time>2022-09-06T14:24:20Z</time>
      </trkpt>
      <trkpt lat="42.44102" lon="1.89948">
        <ele>1238.4</ele>
        <time>2022-09-06T14:24:21Z</time>
      </trkpt>
      <trkpt lat="42.44098" lon="1.89948">
        <ele>1238.4</ele>
        <time>2022-09-06T14:24:22Z</time>
      </trkpt>
      <trkpt lat="42.44093" lon="1.89948">
        <ele>1238.4</ele>
        <time>2022-09-06T14:24:23Z</time>
      </trkpt>
      <trkpt lat="42.44088" lon="1.89947">
        <ele>1239.2</ele>
        <time>2022-09-06T14:24:24Z</time>
      </trkpt>
      <trkpt lat="42.44083" lon="1.89947">
        <ele>1239.2</ele>
        <time>2022-09-06T14:24:25Z</time>
      </trkpt>
      <trkpt lat="42.44079" lon="1.89948">
        <ele>1239.2</ele>
        <time>2022-09-06T14:24:26Z</time>
      </trkpt>
      <trkpt lat="42.44074" lon="1.89948">
        <ele>1239.2</ele>
        <time>2022-09-06T14:24:27Z</time>
      </trkpt>
      <trkpt lat="42.44069" lon="1.89949">
        <ele>1240.4</ele>
        <time>2022-09-06T14:24:28Z</time>
      </trkpt>
      <trkpt lat="42.44065" lon="1.89949">
        <ele>1240.4</ele>
        <time>2022-09-06T14:24:29Z</time>
      </trkpt>
      <trkpt lat="42.4406" lon="1.89948">
        <ele>1240.4</ele>
        <time>2022-09-06T14:24:30Z</time>
      </trkpt>
      <trkpt lat="42.44055" lon="1.89948">
        <ele>1240.4</ele>
        <time>2022-09-06T14:24:31Z</time>
      </trkpt>
      <trkpt lat="42.4405" lon="1.89947">
        <ele>1240.4</ele>
        <time>2022-09-06T14:24:32Z</time>
      </trkpt>
      <trkpt lat="42.44046" lon="1.89946">
        <ele>1240.8</ele>
        <time>2022-09-06T14:24:33Z</time>
      </trkpt>
      <trkpt lat="42.44041" lon="1.89946">
        <ele>1240.8</ele>
        <time>2022-09-06T14:24:34Z</time>
      </trkpt>
      <trkpt lat="42.44037" lon="1.89945">
        <ele>1240.8</ele>
        <time>2022-09-06T14:24:35Z</time>
      </trkpt>
      <trkpt lat="42.44032" lon="1.89944">
        <ele>1240.8</ele>
        <time>2022-09-06T14:24:36Z</time>
      </trkpt>
      <trkpt lat="42.44027" lon="1.89943">
        <ele>1243.4</ele>
        <time>2022-09-06T14:24:37Z</time>
      </trkpt>
      <trkpt lat="42.44022" lon="1.89942">
        <ele>1243.4</ele>
        <time>2022-09-06T14:24:38Z</time>
      </trkpt>
      <trkpt lat="42.44018" lon="1.89941">
        <ele>1243.4</ele>
        <time>2022-09-06T14:24:39Z</time>
      </trkpt>
      <trkpt lat="42.44013" lon="1.89941">
        <ele>1243.4</ele>
        <time>2022-09-06T14:24:40Z</time>
      </trkpt>
      <trkpt lat="42.44009" lon="1.89941">
        <ele>1245.2</ele>
        <time>2022-09-06T14:24:41Z</time>
      </trkpt>
      <trkpt lat="42.44004" lon="1.89941">
        <ele>1245.2</ele>
        <time>2022-09-06T14:24:42Z</time>
      </trkpt>
      <trkpt lat="42.44" lon="1.89941">
        <ele>1245.2</ele>
        <time>2022-09-06T14:24:43Z</time>
      </trkpt>
      <trkpt lat="42.43996" lon="1.89941">
        <ele>1245.2</ele>
        <time>2022-09-06T14:24:44Z</time>
      </trkpt>
      <trkpt lat="42.43992" lon="1.89941">
        <ele>1246.4</ele>
        <time>2022-09-06T14:24:45Z</time>
      </trkpt>
      <trkpt lat="42.43987" lon="1.89942">
        <ele>1246.4</ele>
        <time>2022-09-06T14:24:46Z</time>
      </trkpt>
      <trkpt lat="42.43983" lon="1.89942">
        <ele>1246.4</ele>
        <time>2022-09-06T14:24:47Z</time>
      </trkpt>
      <trkpt lat="42.43978" lon="1.89941">
        <ele>1246.4</ele>
        <time>2022-09-06T14:24:48Z</time>
      </trkpt>
      <trkpt lat="42.43974" lon="1.8994">
        <ele>1247.2</ele>
        <time>2022-09-06T14:24:49Z</time>
      </trkpt>
      <trkpt lat="42.43969" lon="1.89939">
        <ele>1247.2</ele>
        <time>2022-09-06T14:24:50Z</time>
      </trkpt>
      <trkpt lat="42.43965" lon="1.89939">
        <ele>1247.2</ele>
        <time>2022-09-06T14:24:51Z</time>
      </trkpt>
      <trkpt lat="42.43961" lon="1.8994">
        <ele>1247.2</ele>
        <time>2022-09-06T14:24:52Z</time>
      </trkpt>
      <trkpt lat="42.43956" lon="1.8994">
        <ele>1248.2</ele>
        <time>2022-09-06T14:24:53Z</time>
      </trkpt>
      <trkpt lat="42.43952" lon="1.89938">
        <ele>1252.2</ele>
        <time>2022-09-06T14:24:54Z</time>
      </trkpt>
      <trkpt lat="42.43948" lon="1.89937">
        <ele>1252.2</ele>
        <time>2022-09-06T14:24:55Z</time>
      </trkpt>
      <trkpt lat="42.43944" lon="1.89936">
        <ele>1252.2</ele>
        <time>2022-09-06T14:24:56Z</time>
      </trkpt>
      <trkpt lat="42.43939" lon="1.89935">
        <ele>1252.2</ele>
        <time>2022-09-06T14:24:57Z</time>
      </trkpt>
      <trkpt lat="42.43935" lon="1.89934">
        <ele>1252</ele>
        <time>2022-09-06T14:24:58Z</time>
      </trkpt>
      <trkpt lat="42.43931" lon="1.89934">
        <ele>1252</ele>
        <time>2022-09-06T14:24:59Z</time>
      </trkpt>
      <trkpt lat="42.43927" lon="1.89935">
        <ele>1252</ele>
        <time>2022-09-06T14:25:00Z</time>
      </trkpt>
      <trkpt lat="42.43922" lon="1.89936">
        <ele>1253</ele>
        <time>2022-09-06T14:25:01Z</time>
      </trkpt>
      <trkpt lat="42.43918" lon="1.89938">
        <ele>1253</ele>
        <time>2022-09-06T14:25:02Z</time>
      </trkpt>
      <trkpt lat="42.43914" lon="1.89939">
        <ele>1253</ele>
        <time>2022-09-06T14:25:03Z</time>
      </trkpt>
      <trkpt lat="42.43909" lon="1.89939">
        <ele>1253</ele>
        <time>2022-09-06T14:25:04Z</time>
      </trkpt>
      <trkpt lat="42.43905" lon="1.89939">
        <ele>1254</ele>
        <time>2022-09-06T14:25:05Z</time>
      </trkpt>
      <trkpt lat="42.43901" lon="1.89939">
        <ele>1258</ele>
        <time>2022-09-06T14:25:06Z</time>
      </trkpt>
      <trkpt lat="42.43896" lon="1.8994">
        <ele>1258</ele>
        <time>2022-09-06T14:25:07Z</time>
      </trkpt>
      <trkpt lat="42.43892" lon="1.89941">
        <ele>1258</ele>
        <time>2022-09-06T14:25:08Z</time>
      </trkpt>
      <trkpt lat="42.43888" lon="1.89942">
        <ele>1257.6</ele>
        <time>2022-09-06T14:25:09Z</time>
      </trkpt>
      <trkpt lat="42.43883" lon="1.89943">
        <ele>1258.4</ele>
        <time>2022-09-06T14:25:10Z</time>
      </trkpt>
      <trkpt lat="42.43879" lon="1.89945">
        <ele>1258.4</ele>
        <time>2022-09-06T14:25:11Z</time>
      </trkpt>
      <trkpt lat="42.43875" lon="1.89947">
        <ele>1258.4</ele>
        <time>2022-09-06T14:25:12Z</time>
      </trkpt>
      <trkpt lat="42.4387" lon="1.8995">
        <ele>1258.4</ele>
        <time>2022-09-06T14:25:13Z</time>
      </trkpt>
      <trkpt lat="42.43866" lon="1.89953">
        <ele>1258.4</ele>
        <time>2022-09-06T14:25:14Z</time>
      </trkpt>
      <trkpt lat="42.43861" lon="1.89955">
        <ele>1259.2</ele>
        <time>2022-09-06T14:25:15Z</time>
      </trkpt>
      <trkpt lat="42.43856" lon="1.89958">
        <ele>1259.2</ele>
        <time>2022-09-06T14:25:16Z</time>
      </trkpt>
      <trkpt lat="42.43851" lon="1.8996">
        <ele>1259.2</ele>
        <time>2022-09-06T14:25:17Z</time>
      </trkpt>
      <trkpt lat="42.43846" lon="1.89963">
        <ele>1258.2</ele>
        <time>2022-09-06T14:25:18Z</time>
      </trkpt>
      <trkpt lat="42.4384" lon="1.89965">
        <ele>1258.6</ele>
        <time>2022-09-06T14:25:19Z</time>
      </trkpt>
      <trkpt lat="42.43835" lon="1.89968">
        <ele>1258.6</ele>
        <time>2022-09-06T14:25:20Z</time>
      </trkpt>
      <trkpt lat="42.4383" lon="1.89971">
        <ele>1258.6</ele>
        <time>2022-09-06T14:25:21Z</time>
      </trkpt>
      <trkpt lat="42.43824" lon="1.89975">
        <ele>1258.6</ele>
        <time>2022-09-06T14:25:22Z</time>
      </trkpt>
      <trkpt lat="42.43819" lon="1.89977">
        <ele>1258.2</ele>
        <time>2022-09-06T14:25:23Z</time>
      </trkpt>
      <trkpt lat="42.43813" lon="1.8998">
        <ele>1258.2</ele>
        <time>2022-09-06T14:25:24Z</time>
      </trkpt>
      <trkpt lat="42.43807" lon="1.89982">
        <ele>1258.2</ele>
        <time>2022-09-06T14:25:25Z</time>
      </trkpt>
      <trkpt lat="42.438" lon="1.89983">
        <ele>1258.2</ele>
        <time>2022-09-06T14:25:26Z</time>
      </trkpt>
      <trkpt lat="42.43795" lon="1.89986">
        <ele>1259</ele>
        <time>2022-09-06T14:25:27Z</time>
      </trkpt>
      <trkpt lat="42.43789" lon="1.8999">
        <ele>1259</ele>
        <time>2022-09-06T14:25:28Z</time>
      </trkpt>
      <trkpt lat="42.43784" lon="1.89993">
        <ele>1259</ele>
        <time>2022-09-06T14:25:29Z</time>
      </trkpt>
      <trkpt lat="42.43778" lon="1.89996">
        <ele>1259</ele>
        <time>2022-09-06T14:25:30Z</time>
      </trkpt>
      <trkpt lat="42.43773" lon="1.89999">
        <ele>1259</ele>
        <time>2022-09-06T14:25:31Z</time>
      </trkpt>
      <trkpt lat="42.43767" lon="1.90003">
        <ele>1258.6</ele>
        <time>2022-09-06T14:25:32Z</time>
      </trkpt>
      <trkpt lat="42.43762" lon="1.90007">
        <ele>1258.6</ele>
        <time>2022-09-06T14:25:33Z</time>
      </trkpt>
      <trkpt lat="42.43756" lon="1.90011">
        <ele>1258.6</ele>
        <time>2022-09-06T14:25:34Z</time>
      </trkpt>
      <trkpt lat="42.4375" lon="1.90014">
        <ele>1258</ele>
        <time>2022-09-06T14:25:35Z</time>
      </trkpt>
      <trkpt lat="42.43744" lon="1.90017">
        <ele>1258.4</ele>
        <time>2022-09-06T14:25:36Z</time>
      </trkpt>
      <trkpt lat="42.43738" lon="1.90021">
        <ele>1258.4</ele>
        <time>2022-09-06T14:25:37Z</time>
      </trkpt>
      <trkpt lat="42.43733" lon="1.90023">
        <ele>1258.4</ele>
        <time>2022-09-06T14:25:38Z</time>
      </trkpt>
      <trkpt lat="42.43727" lon="1.90025">
        <ele>1258.4</ele>
        <time>2022-09-06T14:25:39Z</time>
      </trkpt>
      <trkpt lat="42.43721" lon="1.90028">
        <ele>1259.2</ele>
        <time>2022-09-06T14:25:40Z</time>
      </trkpt>
      <trkpt lat="42.43715" lon="1.90031">
        <ele>1259.2</ele>
        <time>2022-09-06T14:25:41Z</time>
      </trkpt>
      <trkpt lat="42.4371" lon="1.90034">
        <ele>1259.2</ele>
        <time>2022-09-06T14:25:42Z</time>
      </trkpt>
      <trkpt lat="42.43704" lon="1.90037">
        <ele>1259.2</ele>
        <time>2022-09-06T14:25:43Z</time>
      </trkpt>
      <trkpt lat="42.43699" lon="1.9004">
        <ele>1259.8</ele>
        <time>2022-09-06T14:25:44Z</time>
      </trkpt>
      <trkpt lat="42.43694" lon="1.90042">
        <ele>1259.8</ele>
        <time>2022-09-06T14:25:45Z</time>
      </trkpt>
      <trkpt lat="42.43689" lon="1.90043">
        <ele>1259.8</ele>
        <time>2022-09-06T14:25:46Z</time>
      </trkpt>
      <trkpt lat="42.43684" lon="1.90044">
        <ele>1259.8</ele>
        <time>2022-09-06T14:25:47Z</time>
      </trkpt>
      <trkpt lat="42.43679" lon="1.90043">
        <ele>1262</ele>
        <time>2022-09-06T14:25:48Z</time>
      </trkpt>
      <trkpt lat="42.43675" lon="1.90042">
        <ele>1262</ele>
        <time>2022-09-06T14:25:49Z</time>
      </trkpt>
      <trkpt lat="42.43671" lon="1.90042">
        <ele>1262</ele>
        <time>2022-09-06T14:25:50Z</time>
      </trkpt>
      <trkpt lat="42.43667" lon="1.90041">
        <ele>1262</ele>
        <time>2022-09-06T14:25:51Z</time>
      </trkpt>
      <trkpt lat="42.43663" lon="1.9004">
        <ele>1263</ele>
        <time>2022-09-06T14:25:52Z</time>
      </trkpt>
      <trkpt lat="42.43658" lon="1.9004">
        <ele>1263</ele>
        <time>2022-09-06T14:25:53Z</time>
      </trkpt>
      <trkpt lat="42.43654" lon="1.9004">
        <ele>1263</ele>
        <time>2022-09-06T14:25:54Z</time>
      </trkpt>
      <trkpt lat="42.4365" lon="1.9004">
        <ele>1263</ele>
        <time>2022-09-06T14:25:55Z</time>
      </trkpt>
      <trkpt lat="42.43645" lon="1.9004">
        <ele>1264</ele>
        <time>2022-09-06T14:25:56Z</time>
      </trkpt>
      <trkpt lat="42.43642" lon="1.90039">
        <ele>1265.2</ele>
        <time>2022-09-06T14:25:57Z</time>
      </trkpt>
      <trkpt lat="42.43638" lon="1.90037">
        <ele>1265.2</ele>
        <time>2022-09-06T14:25:58Z</time>
      </trkpt>
      <trkpt lat="42.43635" lon="1.90036">
        <ele>1265.2</ele>
        <time>2022-09-06T14:25:59Z</time>
      </trkpt>
      <trkpt lat="42.43633" lon="1.90034">
        <ele>1266.2</ele>
        <time>2022-09-06T14:26:00Z</time>
      </trkpt>
      <trkpt lat="42.4363" lon="1.90033">
        <ele>1266.8</ele>
        <time>2022-09-06T14:26:01Z</time>
      </trkpt>
      <trkpt lat="42.43627" lon="1.90032">
        <ele>1266.8</ele>
        <time>2022-09-06T14:26:02Z</time>
      </trkpt>
      <trkpt lat="42.43624" lon="1.90031">
        <ele>1266.8</ele>
        <time>2022-09-06T14:26:03Z</time>
      </trkpt>
      <trkpt lat="42.4362" lon="1.90029">
        <ele>1267.8</ele>
        <time>2022-09-06T14:26:04Z</time>
      </trkpt>
      <trkpt lat="42.43618" lon="1.90028">
        <ele>1269.4</ele>
        <time>2022-09-06T14:26:05Z</time>
      </trkpt>
      <trkpt lat="42.43616" lon="1.90027">
        <ele>1269.4</ele>
        <time>2022-09-06T14:26:06Z</time>
      </trkpt>
      <trkpt lat="42.43613" lon="1.90026">
        <ele>1269.4</ele>
        <time>2022-09-06T14:26:07Z</time>
      </trkpt>
      <trkpt lat="42.4361" lon="1.90024">
        <ele>1269.4</ele>
        <time>2022-09-06T14:26:08Z</time>
      </trkpt>
      <trkpt lat="42.43607" lon="1.90022">
        <ele>1269.4</ele>
        <time>2022-09-06T14:26:09Z</time>
      </trkpt>
      <trkpt lat="42.43604" lon="1.90021">
        <ele>1272</ele>
        <time>2022-09-06T14:26:10Z</time>
      </trkpt>
      <trkpt lat="42.436" lon="1.9002">
        <ele>1272</ele>
        <time>2022-09-06T14:26:11Z</time>
      </trkpt>
      <trkpt lat="42.43597" lon="1.90019">
        <ele>1272</ele>
        <time>2022-09-06T14:26:12Z</time>
      </trkpt>
      <trkpt lat="42.43594" lon="1.90018">
        <ele>1273</ele>
        <time>2022-09-06T14:26:13Z</time>
      </trkpt>
      <trkpt lat="42.43591" lon="1.90017">
        <ele>1274</ele>
        <time>2022-09-06T14:26:14Z</time>
      </trkpt>
      <trkpt lat="42.43588" lon="1.90016">
        <ele>1274</ele>
        <time>2022-09-06T14:26:15Z</time>
      </trkpt>
      <trkpt lat="42.43585" lon="1.90014">
        <ele>1274</ele>
        <time>2022-09-06T14:26:16Z</time>
      </trkpt>
      <trkpt lat="42.43583" lon="1.90013">
        <ele>1275</ele>
        <time>2022-09-06T14:26:17Z</time>
      </trkpt>
      <trkpt lat="42.43581" lon="1.90012">
        <ele>1276</ele>
        <time>2022-09-06T14:26:18Z</time>
      </trkpt>
      <trkpt lat="42.43578" lon="1.9001">
        <ele>1276</ele>
        <time>2022-09-06T14:26:19Z</time>
      </trkpt>
      <trkpt lat="42.43576" lon="1.9001">
        <ele>1276</ele>
        <time>2022-09-06T14:26:20Z</time>
      </trkpt>
      <trkpt lat="42.43573" lon="1.90009">
        <ele>1276</ele>
        <time>2022-09-06T14:26:21Z</time>
      </trkpt>
      <trkpt lat="42.43571" lon="1.90007">
        <ele>1278.2</ele>
        <time>2022-09-06T14:26:22Z</time>
      </trkpt>
      <trkpt lat="42.43568" lon="1.90004">
        <ele>1278.2</ele>
        <time>2022-09-06T14:26:23Z</time>
      </trkpt>
      <trkpt lat="42.43565" lon="1.90001">
        <ele>1278.2</ele>
        <time>2022-09-06T14:26:24Z</time>
      </trkpt>
      <trkpt lat="42.43562" lon="1.89999">
        <ele>1278.2</ele>
        <time>2022-09-06T14:26:25Z</time>
      </trkpt>
      <trkpt lat="42.4356" lon="1.89998">
        <ele>1278.2</ele>
        <time>2022-09-06T14:26:26Z</time>
      </trkpt>
      <trkpt lat="42.43556" lon="1.89996">
        <ele>1279.2</ele>
        <time>2022-09-06T14:26:27Z</time>
      </trkpt>
      <trkpt lat="42.43553" lon="1.89994">
        <ele>1279.2</ele>
        <time>2022-09-06T14:26:28Z</time>
      </trkpt>
      <trkpt lat="42.4355" lon="1.89992">
        <ele>1279.2</ele>
        <time>2022-09-06T14:26:29Z</time>
      </trkpt>
      <trkpt lat="42.43546" lon="1.89989">
        <ele>1279.2</ele>
        <time>2022-09-06T14:26:30Z</time>
      </trkpt>
      <trkpt lat="42.43543" lon="1.89987">
        <ele>1280.2</ele>
        <time>2022-09-06T14:26:31Z</time>
      </trkpt>
      <trkpt lat="42.43539" lon="1.89986">
        <ele>1280.2</ele>
        <time>2022-09-06T14:26:32Z</time>
      </trkpt>
      <trkpt lat="42.43534" lon="1.89984">
        <ele>1280.2</ele>
        <time>2022-09-06T14:26:33Z</time>
      </trkpt>
      <trkpt lat="42.4353" lon="1.89983">
        <ele>1280.2</ele>
        <time>2022-09-06T14:26:34Z</time>
      </trkpt>
      <trkpt lat="42.43526" lon="1.89981">
        <ele>1280.8</ele>
        <time>2022-09-06T14:26:35Z</time>
      </trkpt>
      <trkpt lat="42.43521" lon="1.8998">
        <ele>1280.8</ele>
        <time>2022-09-06T14:26:36Z</time>
      </trkpt>
      <trkpt lat="42.43517" lon="1.89978">
        <ele>1280.8</ele>
        <time>2022-09-06T14:26:37Z</time>
      </trkpt>
      <trkpt lat="42.43512" lon="1.89976">
        <ele>1280.8</ele>
        <time>2022-09-06T14:26:38Z</time>
      </trkpt>
      <trkpt lat="42.43507" lon="1.89974">
        <ele>1280.4</ele>
        <time>2022-09-06T14:26:39Z</time>
      </trkpt>
      <trkpt lat="42.43502" lon="1.89972">
        <ele>1280.4</ele>
        <time>2022-09-06T14:26:40Z</time>
      </trkpt>
      <trkpt lat="42.43497" lon="1.89969">
        <ele>1280.4</ele>
        <time>2022-09-06T14:26:41Z</time>
      </trkpt>
      <trkpt lat="42.43492" lon="1.89966">
        <ele>1280.4</ele>
        <time>2022-09-06T14:26:42Z</time>
      </trkpt>
      <trkpt lat="42.43486" lon="1.89963">
        <ele>1280</ele>
        <time>2022-09-06T14:26:43Z</time>
      </trkpt>
      <trkpt lat="42.43481" lon="1.8996">
        <ele>1280</ele>
        <time>2022-09-06T14:26:44Z</time>
      </trkpt>
      <trkpt lat="42.43476" lon="1.89956">
        <ele>1280</ele>
        <time>2022-09-06T14:26:45Z</time>
      </trkpt>
      <trkpt lat="42.43471" lon="1.89952">
        <ele>1280</ele>
        <time>2022-09-06T14:26:46Z</time>
      </trkpt>
      <trkpt lat="42.43466" lon="1.89949">
        <ele>1280.4</ele>
        <time>2022-09-06T14:26:47Z</time>
      </trkpt>
      <trkpt lat="42.43461" lon="1.89945">
        <ele>1280.4</ele>
        <time>2022-09-06T14:26:48Z</time>
      </trkpt>
      <trkpt lat="42.43456" lon="1.89941">
        <ele>1280.4</ele>
        <time>2022-09-06T14:26:49Z</time>
      </trkpt>
      <trkpt lat="42.43452" lon="1.89936">
        <ele>1280.4</ele>
        <time>2022-09-06T14:26:50Z</time>
      </trkpt>
      <trkpt lat="42.43447" lon="1.89931">
        <ele>1280.4</ele>
        <time>2022-09-06T14:26:51Z</time>
      </trkpt>
      <trkpt lat="42.43443" lon="1.89927">
        <ele>1280.8</ele>
        <time>2022-09-06T14:26:52Z</time>
      </trkpt>
      <trkpt lat="42.43439" lon="1.89921">
        <ele>1280.8</ele>
        <time>2022-09-06T14:26:53Z</time>
      </trkpt>
      <trkpt lat="42.43435" lon="1.89916">
        <ele>1280.8</ele>
        <time>2022-09-06T14:26:54Z</time>
      </trkpt>
      <trkpt lat="42.43431" lon="1.8991">
        <ele>1280.8</ele>
        <time>2022-09-06T14:26:55Z</time>
      </trkpt>
      <trkpt lat="42.43426" lon="1.89905">
        <ele>1282.4</ele>
        <time>2022-09-06T14:26:56Z</time>
      </trkpt>
      <trkpt lat="42.43423" lon="1.89899">
        <ele>1282.4</ele>
        <time>2022-09-06T14:26:57Z</time>
      </trkpt>
      <trkpt lat="42.43419" lon="1.89893">
        <ele>1282.4</ele>
        <time>2022-09-06T14:26:58Z</time>
      </trkpt>
      <trkpt lat="42.43414" lon="1.89887">
        <ele>1281.4</ele>
        <time>2022-09-06T14:26:59Z</time>
      </trkpt>
      <trkpt lat="42.4341" lon="1.89882">
        <ele>1281.2</ele>
        <time>2022-09-06T14:27:00Z</time>
      </trkpt>
      <trkpt lat="42.43406" lon="1.89876">
        <ele>1281.2</ele>
        <time>2022-09-06T14:27:01Z</time>
      </trkpt>
      <trkpt lat="42.43402" lon="1.8987">
        <ele>1281.2</ele>
        <time>2022-09-06T14:27:02Z</time>
      </trkpt>
      <trkpt lat="42.43398" lon="1.89865">
        <ele>1281.2</ele>
        <time>2022-09-06T14:27:03Z</time>
      </trkpt>
      <trkpt lat="42.43394" lon="1.89859">
        <ele>1282.2</ele>
        <time>2022-09-06T14:27:04Z</time>
      </trkpt>
      <trkpt lat="42.4339" lon="1.89853">
        <ele>1282.2</ele>
        <time>2022-09-06T14:27:05Z</time>
      </trkpt>
      <trkpt lat="42.43387" lon="1.89847">
        <ele>1282.2</ele>
        <time>2022-09-06T14:27:06Z</time>
      </trkpt>
      <trkpt lat="42.43384" lon="1.8984">
        <ele>1281.2</ele>
        <time>2022-09-06T14:27:07Z</time>
      </trkpt>
      <trkpt lat="42.43381" lon="1.89833">
        <ele>1282.6</ele>
        <time>2022-09-06T14:27:08Z</time>
      </trkpt>
      <trkpt lat="42.4338" lon="1.89825">
        <ele>1282.6</ele>
        <time>2022-09-06T14:27:09Z</time>
      </trkpt>
      <trkpt lat="42.43378" lon="1.89818">
        <ele>1282.6</ele>
        <time>2022-09-06T14:27:10Z</time>
      </trkpt>
      <trkpt lat="42.43377" lon="1.8981">
        <ele>1283.6</ele>
        <time>2022-09-06T14:27:11Z</time>
      </trkpt>
      <trkpt lat="42.43376" lon="1.89803">
        <ele>1283.2</ele>
        <time>2022-09-06T14:27:12Z</time>
      </trkpt>
      <trkpt lat="42.43375" lon="1.89795">
        <ele>1283.2</ele>
        <time>2022-09-06T14:27:13Z</time>
      </trkpt>
      <trkpt lat="42.43374" lon="1.89788">
        <ele>1283.2</ele>
        <time>2022-09-06T14:27:14Z</time>
      </trkpt>
      <trkpt lat="42.43374" lon="1.89781">
        <ele>1284.2</ele>
        <time>2022-09-06T14:27:15Z</time>
      </trkpt>
      <trkpt lat="42.43373" lon="1.89773">
        <ele>1284.2</ele>
        <time>2022-09-06T14:27:16Z</time>
      </trkpt>
      <trkpt lat="42.43373" lon="1.89766">
        <ele>1284.4</ele>
        <time>2022-09-06T14:27:17Z</time>
      </trkpt>
      <trkpt lat="42.43372" lon="1.89759">
        <ele>1284.4</ele>
        <time>2022-09-06T14:27:18Z</time>
      </trkpt>
      <trkpt lat="42.43372" lon="1.89751">
        <ele>1284.4</ele>
        <time>2022-09-06T14:27:19Z</time>
      </trkpt>
      <trkpt lat="42.43372" lon="1.89744">
        <ele>1284.6</ele>
        <time>2022-09-06T14:27:20Z</time>
      </trkpt>
      <trkpt lat="42.43371" lon="1.89736">
        <ele>1284</ele>
        <time>2022-09-06T14:27:21Z</time>
      </trkpt>
      <trkpt lat="42.43371" lon="1.89729">
        <ele>1284</ele>
        <time>2022-09-06T14:27:22Z</time>
      </trkpt>
      <trkpt lat="42.43371" lon="1.89722">
        <ele>1284</ele>
        <time>2022-09-06T14:27:23Z</time>
      </trkpt>
      <trkpt lat="42.43371" lon="1.89715">
        <ele>1284</ele>
        <time>2022-09-06T14:27:24Z</time>
      </trkpt>
      <trkpt lat="42.4337" lon="1.89709">
        <ele>1283.6</ele>
        <time>2022-09-06T14:27:25Z</time>
      </trkpt>
      <trkpt lat="42.43368" lon="1.89702">
        <ele>1283.6</ele>
        <time>2022-09-06T14:27:26Z</time>
      </trkpt>
      <trkpt lat="42.43366" lon="1.89695">
        <ele>1283.6</ele>
        <time>2022-09-06T14:27:27Z</time>
      </trkpt>
      <trkpt lat="42.43363" lon="1.89688">
        <ele>1283.6</ele>
        <time>2022-09-06T14:27:28Z</time>
      </trkpt>
      <trkpt lat="42.4336" lon="1.89681">
        <ele>1281.6</ele>
        <time>2022-09-06T14:27:29Z</time>
      </trkpt>
      <trkpt lat="42.43358" lon="1.89672">
        <ele>1281.6</ele>
        <time>2022-09-06T14:27:30Z</time>
      </trkpt>
      <trkpt lat="42.43357" lon="1.89662">
        <ele>1281.6</ele>
        <time>2022-09-06T14:27:31Z</time>
      </trkpt>
      <trkpt lat="42.4336" lon="1.89652">
        <ele>1280.8</ele>
        <time>2022-09-06T14:27:32Z</time>
      </trkpt>
      <trkpt lat="42.43364" lon="1.89643">
        <ele>1278.6</ele>
        <time>2022-09-06T14:27:33Z</time>
      </trkpt>
      <trkpt lat="42.43369" lon="1.89637">
        <ele>1278.6</ele>
        <time>2022-09-06T14:27:34Z</time>
      </trkpt>
      <trkpt lat="42.43375" lon="1.89633">
        <ele>1278.6</ele>
        <time>2022-09-06T14:27:35Z</time>
      </trkpt>
      <trkpt lat="42.43381" lon="1.8963">
        <ele>1279.6</ele>
        <time>2022-09-06T14:27:36Z</time>
      </trkpt>
      <trkpt lat="42.43387" lon="1.89627">
        <ele>1279.6</ele>
        <time>2022-09-06T14:27:37Z</time>
      </trkpt>
      <trkpt lat="42.43392" lon="1.89623">
        <ele>1279</ele>
        <time>2022-09-06T14:27:38Z</time>
      </trkpt>
      <trkpt lat="42.43398" lon="1.89619">
        <ele>1279</ele>
        <time>2022-09-06T14:27:39Z</time>
      </trkpt>
      <trkpt lat="42.43403" lon="1.89615">
        <ele>1279</ele>
        <time>2022-09-06T14:27:40Z</time>
      </trkpt>
      <trkpt lat="42.43409" lon="1.89612">
        <ele>1279.6</ele>
        <time>2022-09-06T14:27:41Z</time>
      </trkpt>
      <trkpt lat="42.43414" lon="1.89608">
        <ele>1280</ele>
        <time>2022-09-06T14:27:42Z</time>
      </trkpt>
      <trkpt lat="42.4342" lon="1.89605">
        <ele>1280</ele>
        <time>2022-09-06T14:27:43Z</time>
      </trkpt>
      <trkpt lat="42.43426" lon="1.89602">
        <ele>1280</ele>
        <time>2022-09-06T14:27:44Z</time>
      </trkpt>
      <trkpt lat="42.43432" lon="1.896">
        <ele>1280</ele>
        <time>2022-09-06T14:27:45Z</time>
      </trkpt>
      <trkpt lat="42.43437" lon="1.89597">
        <ele>1280.2</ele>
        <time>2022-09-06T14:27:46Z</time>
      </trkpt>
      <trkpt lat="42.43443" lon="1.89594">
        <ele>1280.2</ele>
        <time>2022-09-06T14:27:47Z</time>
      </trkpt>
      <trkpt lat="42.43449" lon="1.89591">
        <ele>1280.2</ele>
        <time>2022-09-06T14:27:48Z</time>
      </trkpt>
      <trkpt lat="42.43456" lon="1.89589">
        <ele>1279.2</ele>
        <time>2022-09-06T14:27:49Z</time>
      </trkpt>
      <trkpt lat="42.43462" lon="1.89586">
        <ele>1279.2</ele>
        <time>2022-09-06T14:27:50Z</time>
      </trkpt>
      <trkpt lat="42.43468" lon="1.89583">
        <ele>1279.2</ele>
        <time>2022-09-06T14:27:51Z</time>
      </trkpt>
      <trkpt lat="42.43475" lon="1.89581">
        <ele>1279.2</ele>
        <time>2022-09-06T14:27:52Z</time>
      </trkpt>
      <trkpt lat="42.43481" lon="1.89579">
        <ele>1279.2</ele>
        <time>2022-09-06T14:27:53Z</time>
      </trkpt>
      <trkpt lat="42.43487" lon="1.89577">
        <ele>1275</ele>
        <time>2022-09-06T14:27:54Z</time>
      </trkpt>
      <trkpt lat="42.43494" lon="1.89574">
        <ele>1275</ele>
        <time>2022-09-06T14:27:55Z</time>
      </trkpt>
      <trkpt lat="42.435" lon="1.89571">
        <ele>1275</ele>
        <time>2022-09-06T14:27:56Z</time>
      </trkpt>
      <trkpt lat="42.43507" lon="1.89568">
        <ele>1276</ele>
        <time>2022-09-06T14:27:57Z</time>
      </trkpt>
      <trkpt lat="42.43514" lon="1.89565">
        <ele>1276.2</ele>
        <time>2022-09-06T14:27:58Z</time>
      </trkpt>
      <trkpt lat="42.43521" lon="1.89562">
        <ele>1276.2</ele>
        <time>2022-09-06T14:27:59Z</time>
      </trkpt>
      <trkpt lat="42.43528" lon="1.8956">
        <ele>1276.2</ele>
        <time>2022-09-06T14:28:00Z</time>
      </trkpt>
      <trkpt lat="42.43535" lon="1.89557">
        <ele>1276.2</ele>
        <time>2022-09-06T14:28:01Z</time>
      </trkpt>
      <trkpt lat="42.43542" lon="1.89554">
        <ele>1276.2</ele>
        <time>2022-09-06T14:28:02Z</time>
      </trkpt>
      <trkpt lat="42.43549" lon="1.89551">
        <ele>1275.6</ele>
        <time>2022-09-06T14:28:03Z</time>
      </trkpt>
      <trkpt lat="42.43556" lon="1.89549">
        <ele>1275.6</ele>
        <time>2022-09-06T14:28:04Z</time>
      </trkpt>
      <trkpt lat="42.43563" lon="1.89546">
        <ele>1275.6</ele>
        <time>2022-09-06T14:28:05Z</time>
      </trkpt>
      <trkpt lat="42.4357" lon="1.89544">
        <ele>1274.6</ele>
        <time>2022-09-06T14:28:06Z</time>
      </trkpt>
      <trkpt lat="42.43578" lon="1.89542">
        <ele>1273.6</ele>
        <time>2022-09-06T14:28:07Z</time>
      </trkpt>
      <trkpt lat="42.43585" lon="1.8954">
        <ele>1273.6</ele>
        <time>2022-09-06T14:28:08Z</time>
      </trkpt>
      <trkpt lat="42.43593" lon="1.89537">
        <ele>1273.6</ele>
        <time>2022-09-06T14:28:09Z</time>
      </trkpt>
      <trkpt lat="42.436" lon="1.89535">
        <ele>1272.6</ele>
        <time>2022-09-06T14:28:10Z</time>
      </trkpt>
      <trkpt lat="42.43608" lon="1.89533">
        <ele>1272.2</ele>
        <time>2022-09-06T14:28:11Z</time>
      </trkpt>
      <trkpt lat="42.43615" lon="1.8953">
        <ele>1272.2</ele>
        <time>2022-09-06T14:28:12Z</time>
      </trkpt>
      <trkpt lat="42.43623" lon="1.89527">
        <ele>1272.2</ele>
        <time>2022-09-06T14:28:13Z</time>
      </trkpt>
      <trkpt lat="42.4363" lon="1.89524">
        <ele>1272.2</ele>
        <time>2022-09-06T14:28:14Z</time>
      </trkpt>
      <trkpt lat="42.43638" lon="1.89522">
        <ele>1269.8</ele>
        <time>2022-09-06T14:28:15Z</time>
      </trkpt>
      <trkpt lat="42.43646" lon="1.8952">
        <ele>1269.8</ele>
        <time>2022-09-06T14:28:16Z</time>
      </trkpt>
      <trkpt lat="42.43653" lon="1.89518">
        <ele>1269.8</ele>
        <time>2022-09-06T14:28:17Z</time>
      </trkpt>
      <trkpt lat="42.43661" lon="1.89517">
        <ele>1268.8</ele>
        <time>2022-09-06T14:28:18Z</time>
      </trkpt>
      <trkpt lat="42.43669" lon="1.89516">
        <ele>1268.8</ele>
        <time>2022-09-06T14:28:19Z</time>
      </trkpt>
      <trkpt lat="42.43676" lon="1.89514">
        <ele>1270</ele>
        <time>2022-09-06T14:28:20Z</time>
      </trkpt>
      <trkpt lat="42.43684" lon="1.89513">
        <ele>1270</ele>
        <time>2022-09-06T14:28:21Z</time>
      </trkpt>
      <trkpt lat="42.43691" lon="1.89511">
        <ele>1270</ele>
        <time>2022-09-06T14:28:22Z</time>
      </trkpt>
      <trkpt lat="42.43698" lon="1.89509">
        <ele>1269</ele>
        <time>2022-09-06T14:28:23Z</time>
      </trkpt>
      <trkpt lat="42.43705" lon="1.89507">
        <ele>1264.2</ele>
        <time>2022-09-06T14:28:24Z</time>
      </trkpt>
      <trkpt lat="42.43712" lon="1.89503">
        <ele>1264.2</ele>
        <time>2022-09-06T14:28:25Z</time>
      </trkpt>
      <trkpt lat="42.43719" lon="1.89499">
        <ele>1264.2</ele>
        <time>2022-09-06T14:28:26Z</time>
      </trkpt>
      <trkpt lat="42.43724" lon="1.89492">
        <ele>1264.8</ele>
        <time>2022-09-06T14:28:27Z</time>
      </trkpt>
      <trkpt lat="42.43728" lon="1.89484">
        <ele>1265.4</ele>
        <time>2022-09-06T14:28:28Z</time>
      </trkpt>
      <trkpt lat="42.43731" lon="1.89475">
        <ele>1265.4</ele>
        <time>2022-09-06T14:28:29Z</time>
      </trkpt>
      <trkpt lat="42.43731" lon="1.89464">
        <ele>1265.4</ele>
        <time>2022-09-06T14:28:30Z</time>
      </trkpt>
      <trkpt lat="42.4373" lon="1.89453">
        <ele>1264.4</ele>
        <time>2022-09-06T14:28:31Z</time>
      </trkpt>
      <trkpt lat="42.43728" lon="1.89441">
        <ele>1257</ele>
        <time>2022-09-06T14:28:32Z</time>
      </trkpt>
      <trkpt lat="42.43727" lon="1.89429">
        <ele>1257</ele>
        <time>2022-09-06T14:28:33Z</time>
      </trkpt>
      <trkpt lat="42.43727" lon="1.89419">
        <ele>1257</ele>
        <time>2022-09-06T14:28:34Z</time>
      </trkpt>
      <trkpt lat="42.43729" lon="1.89411">
        <ele>1257</ele>
        <time>2022-09-06T14:28:35Z</time>
      </trkpt>
      <trkpt lat="42.4373" lon="1.89403">
        <ele>1253.6</ele>
        <time>2022-09-06T14:28:36Z</time>
      </trkpt>
      <trkpt lat="42.43731" lon="1.89396">
        <ele>1253.6</ele>
        <time>2022-09-06T14:28:37Z</time>
      </trkpt>
      <trkpt lat="42.43732" lon="1.89388">
        <ele>1253.6</ele>
        <time>2022-09-06T14:28:38Z</time>
      </trkpt>
      <trkpt lat="42.43732" lon="1.89381">
        <ele>1253.6</ele>
        <time>2022-09-06T14:28:39Z</time>
      </trkpt>
      <trkpt lat="42.43732" lon="1.89373">
        <ele>1252.6</ele>
        <time>2022-09-06T14:28:40Z</time>
      </trkpt>
      <trkpt lat="42.43733" lon="1.89366">
        <ele>1252.6</ele>
        <time>2022-09-06T14:28:41Z</time>
      </trkpt>
      <trkpt lat="42.43732" lon="1.89359">
        <ele>1252.6</ele>
        <time>2022-09-06T14:28:42Z</time>
      </trkpt>
      <trkpt lat="42.43729" lon="1.89353">
        <ele>1252.6</ele>
        <time>2022-09-06T14:28:43Z</time>
      </trkpt>
      <trkpt lat="42.43724" lon="1.8935">
        <ele>1252.6</ele>
        <time>2022-09-06T14:28:44Z</time>
      </trkpt>
      <trkpt lat="42.43717" lon="1.89349">
        <ele>1253.8</ele>
        <time>2022-09-06T14:28:45Z</time>
      </trkpt>
      <trkpt lat="42.43711" lon="1.89349">
        <ele>1253.8</ele>
        <time>2022-09-06T14:28:46Z</time>
      </trkpt>
      <trkpt lat="42.43705" lon="1.89348">
        <ele>1253.8</ele>
        <time>2022-09-06T14:28:47Z</time>
      </trkpt>
      <trkpt lat="42.43699" lon="1.89345">
        <ele>1252.8</ele>
        <time>2022-09-06T14:28:48Z</time>
      </trkpt>
      <trkpt lat="42.43693" lon="1.89341">
        <ele>1250.4</ele>
        <time>2022-09-06T14:28:49Z</time>
      </trkpt>
      <trkpt lat="42.43688" lon="1.89334">
        <ele>1250.4</ele>
        <time>2022-09-06T14:28:50Z</time>
      </trkpt>
      <trkpt lat="42.43683" lon="1.89328">
        <ele>1250.4</ele>
        <time>2022-09-06T14:28:51Z</time>
      </trkpt>
      <trkpt lat="42.43678" lon="1.89322">
        <ele>1250.4</ele>
        <time>2022-09-06T14:28:52Z</time>
      </trkpt>
      <trkpt lat="42.43673" lon="1.89317">
        <ele>1251.8</ele>
        <time>2022-09-06T14:28:53Z</time>
      </trkpt>
      <trkpt lat="42.43667" lon="1.89313">
        <ele>1251.8</ele>
        <time>2022-09-06T14:28:54Z</time>
      </trkpt>
      <trkpt lat="42.43661" lon="1.89311">
        <ele>1251.8</ele>
        <time>2022-09-06T14:28:55Z</time>
      </trkpt>
      <trkpt lat="42.43654" lon="1.89309">
        <ele>1250.8</ele>
        <time>2022-09-06T14:28:56Z</time>
      </trkpt>
      <trkpt lat="42.43648" lon="1.89309">
        <ele>1248</ele>
        <time>2022-09-06T14:28:57Z</time>
      </trkpt>
      <trkpt lat="42.43642" lon="1.89307">
        <ele>1248</ele>
        <time>2022-09-06T14:28:58Z</time>
      </trkpt>
      <trkpt lat="42.43636" lon="1.89303">
        <ele>1248</ele>
        <time>2022-09-06T14:28:59Z</time>
      </trkpt>
      <trkpt lat="42.43633" lon="1.89295">
        <ele>1248</ele>
        <time>2022-09-06T14:29:00Z</time>
      </trkpt>
      <trkpt lat="42.43632" lon="1.89284">
        <ele>1247</ele>
        <time>2022-09-06T14:29:01Z</time>
      </trkpt>
      <trkpt lat="42.43631" lon="1.89274">
        <ele>1244.8</ele>
        <time>2022-09-06T14:29:02Z</time>
      </trkpt>
      <trkpt lat="42.43629" lon="1.89264">
        <ele>1244.8</ele>
        <time>2022-09-06T14:29:03Z</time>
      </trkpt>
      <trkpt lat="42.43628" lon="1.89253">
        <ele>1244.8</ele>
        <time>2022-09-06T14:29:04Z</time>
      </trkpt>
      <trkpt lat="42.43627" lon="1.89243">
        <ele>1243.8</ele>
        <time>2022-09-06T14:29:05Z</time>
      </trkpt>
      <trkpt lat="42.43625" lon="1.89232">
        <ele>1243</ele>
        <time>2022-09-06T14:29:06Z</time>
      </trkpt>
      <trkpt lat="42.43623" lon="1.89223">
        <ele>1243</ele>
        <time>2022-09-06T14:29:07Z</time>
      </trkpt>
      <trkpt lat="42.43619" lon="1.89218">
        <ele>1243</ele>
        <time>2022-09-06T14:29:08Z</time>
      </trkpt>
      <trkpt lat="42.43613" lon="1.89218">
        <ele>1242</ele>
        <time>2022-09-06T14:29:09Z</time>
      </trkpt>
      <trkpt lat="42.43607" lon="1.8922">
        <ele>1241</ele>
        <time>2022-09-06T14:29:10Z</time>
      </trkpt>
      <trkpt lat="42.436" lon="1.89223">
        <ele>1241</ele>
        <time>2022-09-06T14:29:11Z</time>
      </trkpt>
      <trkpt lat="42.43594" lon="1.89225">
        <ele>1241</ele>
        <time>2022-09-06T14:29:12Z</time>
      </trkpt>
      <trkpt lat="42.43588" lon="1.89229">
        <ele>1241</ele>
        <time>2022-09-06T14:29:13Z</time>
      </trkpt>
      <trkpt lat="42.43582" lon="1.89233">
        <ele>1242.2</ele>
        <time>2022-09-06T14:29:14Z</time>
      </trkpt>
      <trkpt lat="42.43577" lon="1.89238">
        <ele>1242.2</ele>
        <time>2022-09-06T14:29:15Z</time>
      </trkpt>
      <trkpt lat="42.43571" lon="1.89242">
        <ele>1242.2</ele>
        <time>2022-09-06T14:29:16Z</time>
      </trkpt>
      <trkpt lat="42.43565" lon="1.89246">
        <ele>1242.2</ele>
        <time>2022-09-06T14:29:17Z</time>
      </trkpt>
      <trkpt lat="42.43559" lon="1.89248">
        <ele>1242.2</ele>
        <time>2022-09-06T14:29:18Z</time>
      </trkpt>
      <trkpt lat="42.43552" lon="1.89249">
        <ele>1241.2</ele>
        <time>2022-09-06T14:29:19Z</time>
      </trkpt>
      <trkpt lat="42.43546" lon="1.8925">
        <ele>1241.2</ele>
        <time>2022-09-06T14:29:20Z</time>
      </trkpt>
      <trkpt lat="42.43539" lon="1.89252">
        <ele>1241.2</ele>
        <time>2022-09-06T14:29:21Z</time>
      </trkpt>
      <trkpt lat="42.43532" lon="1.89255">
        <ele>1240.2</ele>
        <time>2022-09-06T14:29:22Z</time>
      </trkpt>
      <trkpt lat="42.43526" lon="1.89258">
        <ele>1238.6</ele>
        <time>2022-09-06T14:29:23Z</time>
      </trkpt>
      <trkpt lat="42.43519" lon="1.89261">
        <ele>1238.6</ele>
        <time>2022-09-06T14:29:24Z</time>
      </trkpt>
      <trkpt lat="42.43513" lon="1.89265">
        <ele>1238.6</ele>
        <time>2022-09-06T14:29:25Z</time>
      </trkpt>
      <trkpt lat="42.43506" lon="1.89268">
        <ele>1238.6</ele>
        <time>2022-09-06T14:29:26Z</time>
      </trkpt>
      <trkpt lat="42.435" lon="1.89271">
        <ele>1238.8</ele>
        <time>2022-09-06T14:29:27Z</time>
      </trkpt>
      <trkpt lat="42.43493" lon="1.89274">
        <ele>1238.8</ele>
        <time>2022-09-06T14:29:28Z</time>
      </trkpt>
      <trkpt lat="42.43486" lon="1.89277">
        <ele>1238.8</ele>
        <time>2022-09-06T14:29:29Z</time>
      </trkpt>
      <trkpt lat="42.43479" lon="1.89279">
        <ele>1237.8</ele>
        <time>2022-09-06T14:29:30Z</time>
      </trkpt>
      <trkpt lat="42.43472" lon="1.89282">
        <ele>1235.4</ele>
        <time>2022-09-06T14:29:31Z</time>
      </trkpt>
      <trkpt lat="42.43465" lon="1.89284">
        <ele>1235.4</ele>
        <time>2022-09-06T14:29:32Z</time>
      </trkpt>
      <trkpt lat="42.43458" lon="1.89286">
        <ele>1235.4</ele>
        <time>2022-09-06T14:29:33Z</time>
      </trkpt>
      <trkpt lat="42.4345" lon="1.89288">
        <ele>1235.4</ele>
        <time>2022-09-06T14:29:34Z</time>
      </trkpt>
      <trkpt lat="42.43443" lon="1.8929">
        <ele>1236.2</ele>
        <time>2022-09-06T14:29:35Z</time>
      </trkpt>
      <trkpt lat="42.43435" lon="1.89292">
        <ele>1236.2</ele>
        <time>2022-09-06T14:29:36Z</time>
      </trkpt>
      <trkpt lat="42.43428" lon="1.89294">
        <ele>1236.2</ele>
        <time>2022-09-06T14:29:37Z</time>
      </trkpt>
      <trkpt lat="42.4342" lon="1.89296">
        <ele>1235.2</ele>
        <time>2022-09-06T14:29:38Z</time>
      </trkpt>
      <trkpt lat="42.43413" lon="1.89299">
        <ele>1233</ele>
        <time>2022-09-06T14:29:39Z</time>
      </trkpt>
      <trkpt lat="42.43405" lon="1.89302">
        <ele>1233</ele>
        <time>2022-09-06T14:29:40Z</time>
      </trkpt>
      <trkpt lat="42.43398" lon="1.89306">
        <ele>1233</ele>
        <time>2022-09-06T14:29:41Z</time>
      </trkpt>
      <trkpt lat="42.43391" lon="1.89309">
        <ele>1233</ele>
        <time>2022-09-06T14:29:42Z</time>
      </trkpt>
      <trkpt lat="42.43384" lon="1.89314">
        <ele>1230.2</ele>
        <time>2022-09-06T14:29:43Z</time>
      </trkpt>
      <trkpt lat="42.43378" lon="1.89318">
        <ele>1230.2</ele>
        <time>2022-09-06T14:29:44Z</time>
      </trkpt>
      <trkpt lat="42.43371" lon="1.89321">
        <ele>1230.2</ele>
        <time>2022-09-06T14:29:45Z</time>
      </trkpt>
      <trkpt lat="42.43366" lon="1.89322">
        <ele>1230.2</ele>
        <time>2022-09-06T14:29:46Z</time>
      </trkpt>
      <trkpt lat="42.43362" lon="1.89317">
        <ele>1230.2</ele>
        <time>2022-09-06T14:29:47Z</time>
      </trkpt>
      <trkpt lat="42.4336" lon="1.89308">
        <ele>1228.8</ele>
        <time>2022-09-06T14:29:48Z</time>
      </trkpt>
      <trkpt lat="42.4336" lon="1.89297">
        <ele>1228.8</ele>
        <time>2022-09-06T14:29:49Z</time>
      </trkpt>
      <trkpt lat="42.43358" lon="1.89285">
        <ele>1228.8</ele>
        <time>2022-09-06T14:29:50Z</time>
      </trkpt>
      <trkpt lat="42.43356" lon="1.89273">
        <ele>1227.8</ele>
        <time>2022-09-06T14:29:51Z</time>
      </trkpt>
      <trkpt lat="42.43353" lon="1.89261">
        <ele>1223.2</ele>
        <time>2022-09-06T14:29:52Z</time>
      </trkpt>
      <trkpt lat="42.43349" lon="1.89251">
        <ele>1223.2</ele>
        <time>2022-09-06T14:29:53Z</time>
      </trkpt>
      <trkpt lat="42.43343" lon="1.89243">
        <ele>1223.2</ele>
        <time>2022-09-06T14:29:54Z</time>
      </trkpt>
      <trkpt lat="42.43336" lon="1.89237">
        <ele>1223.2</ele>
        <time>2022-09-06T14:29:55Z</time>
      </trkpt>
      <trkpt lat="42.43328" lon="1.89233">
        <ele>1218</ele>
        <time>2022-09-06T14:29:56Z</time>
      </trkpt>
      <trkpt lat="42.43321" lon="1.89232">
        <ele>1218</ele>
        <time>2022-09-06T14:29:57Z</time>
      </trkpt>
      <trkpt lat="42.43314" lon="1.89233">
        <ele>1218</ele>
        <time>2022-09-06T14:29:58Z</time>
      </trkpt>
      <trkpt lat="42.43307" lon="1.89234">
        <ele>1217</ele>
        <time>2022-09-06T14:29:59Z</time>
      </trkpt>
      <trkpt lat="42.433" lon="1.89237">
        <ele>1217.8</ele>
        <time>2022-09-06T14:30:00Z</time>
      </trkpt>
      <trkpt lat="42.43293" lon="1.89239">
        <ele>1217.8</ele>
        <time>2022-09-06T14:30:01Z</time>
      </trkpt>
      <trkpt lat="42.43285" lon="1.8924">
        <ele>1217.8</ele>
        <time>2022-09-06T14:30:02Z</time>
      </trkpt>
      <trkpt lat="42.43278" lon="1.8924">
        <ele>1217.2</ele>
        <time>2022-09-06T14:30:03Z</time>
      </trkpt>
      <trkpt lat="42.43271" lon="1.8924">
        <ele>1212.4</ele>
        <time>2022-09-06T14:30:04Z</time>
      </trkpt>
      <trkpt lat="42.43263" lon="1.89241">
        <ele>1212.4</ele>
        <time>2022-09-06T14:30:05Z</time>
      </trkpt>
      <trkpt lat="42.43256" lon="1.89242">
        <ele>1212.4</ele>
        <time>2022-09-06T14:30:06Z</time>
      </trkpt>
      <trkpt lat="42.43248" lon="1.89243">
        <ele>1212.4</ele>
        <time>2022-09-06T14:30:07Z</time>
      </trkpt>
      <trkpt lat="42.43241" lon="1.89245">
        <ele>1212.4</ele>
        <time>2022-09-06T14:30:08Z</time>
      </trkpt>
      <trkpt lat="42.43233" lon="1.89247">
        <ele>1212.8</ele>
        <time>2022-09-06T14:30:09Z</time>
      </trkpt>
      <trkpt lat="42.43225" lon="1.89249">
        <ele>1212.8</ele>
        <time>2022-09-06T14:30:10Z</time>
      </trkpt>
      <trkpt lat="42.43217" lon="1.89251">
        <ele>1212.8</ele>
        <time>2022-09-06T14:30:11Z</time>
      </trkpt>
      <trkpt lat="42.4321" lon="1.89255">
        <ele>1212.8</ele>
        <time>2022-09-06T14:30:12Z</time>
      </trkpt>
      <trkpt lat="42.43203" lon="1.89259">
        <ele>1210.8</ele>
        <time>2022-09-06T14:30:13Z</time>
      </trkpt>
      <trkpt lat="42.43196" lon="1.89265">
        <ele>1210.8</ele>
        <time>2022-09-06T14:30:14Z</time>
      </trkpt>
      <trkpt lat="42.43189" lon="1.8927">
        <ele>1210.8</ele>
        <time>2022-09-06T14:30:15Z</time>
      </trkpt>
      <trkpt lat="42.43182" lon="1.89274">
        <ele>1210.8</ele>
        <time>2022-09-06T14:30:16Z</time>
      </trkpt>
      <trkpt lat="42.43174" lon="1.89276">
        <ele>1206</ele>
        <time>2022-09-06T14:30:17Z</time>
      </trkpt>
      <trkpt lat="42.43166" lon="1.89274">
        <ele>1206</ele>
        <time>2022-09-06T14:30:18Z</time>
      </trkpt>
      <trkpt lat="42.43158" lon="1.89271">
        <ele>1206</ele>
        <time>2022-09-06T14:30:19Z</time>
      </trkpt>
      <trkpt lat="42.43151" lon="1.89269">
        <ele>1207</ele>
        <time>2022-09-06T14:30:20Z</time>
      </trkpt>
      <trkpt lat="42.43143" lon="1.89266">
        <ele>1203.8</ele>
        <time>2022-09-06T14:30:21Z</time>
      </trkpt>
      <trkpt lat="42.43136" lon="1.89263">
        <ele>1203.8</ele>
        <time>2022-09-06T14:30:22Z</time>
      </trkpt>
      <trkpt lat="42.43128" lon="1.89259">
        <ele>1203.8</ele>
        <time>2022-09-06T14:30:23Z</time>
      </trkpt>
      <trkpt lat="42.43121" lon="1.89256">
        <ele>1203.8</ele>
        <time>2022-09-06T14:30:24Z</time>
      </trkpt>
      <trkpt lat="42.43114" lon="1.89253">
        <ele>1204.8</ele>
        <time>2022-09-06T14:30:25Z</time>
      </trkpt>
      <trkpt lat="42.4311" lon="1.89248">
        <ele>1205.6</ele>
        <time>2022-09-06T14:30:26Z</time>
      </trkpt>
      <trkpt lat="42.43109" lon="1.89242">
        <ele>1205.6</ele>
        <time>2022-09-06T14:30:27Z</time>
      </trkpt>
      <trkpt lat="42.43111" lon="1.89236">
        <ele>1205.6</ele>
        <time>2022-09-06T14:30:28Z</time>
      </trkpt>
      <trkpt lat="42.43115" lon="1.8923">
        <ele>1205.6</ele>
        <time>2022-09-06T14:30:29Z</time>
      </trkpt>
      <trkpt lat="42.43119" lon="1.89224">
        <ele>1204.6</ele>
        <time>2022-09-06T14:30:30Z</time>
      </trkpt>
      <trkpt lat="42.43124" lon="1.89218">
        <ele>1204.6</ele>
        <time>2022-09-06T14:30:31Z</time>
      </trkpt>
      <trkpt lat="42.43127" lon="1.89213">
        <ele>1204.6</ele>
        <time>2022-09-06T14:30:32Z</time>
      </trkpt>
      <trkpt lat="42.43131" lon="1.89207">
        <ele>1205.6</ele>
        <time>2022-09-06T14:30:33Z</time>
      </trkpt>
      <trkpt lat="42.43134" lon="1.89202">
        <ele>1208.8</ele>
        <time>2022-09-06T14:30:34Z</time>
      </trkpt>
      <trkpt lat="42.43137" lon="1.89197">
        <ele>1208.8</ele>
        <time>2022-09-06T14:30:35Z</time>
      </trkpt>
      <trkpt lat="42.43139" lon="1.89192">
        <ele>1208.8</ele>
        <time>2022-09-06T14:30:36Z</time>
      </trkpt>
      <trkpt lat="42.43142" lon="1.89188">
        <ele>1209.8</ele>
        <time>2022-09-06T14:30:37Z</time>
      </trkpt>
      <trkpt lat="42.43145" lon="1.89184">
        <ele>1212.2</ele>
        <time>2022-09-06T14:30:38Z</time>
      </trkpt>
      <trkpt lat="42.43148" lon="1.89179">
        <ele>1212.2</ele>
        <time>2022-09-06T14:30:39Z</time>
      </trkpt>
      <trkpt lat="42.4315" lon="1.89175">
        <ele>1212.2</ele>
        <time>2022-09-06T14:30:40Z</time>
      </trkpt>
      <trkpt lat="42.43153" lon="1.8917">
        <ele>1212.2</ele>
        <time>2022-09-06T14:30:41Z</time>
      </trkpt>
      <trkpt lat="42.43155" lon="1.89165">
        <ele>1213.2</ele>
        <time>2022-09-06T14:30:42Z</time>
      </trkpt>
      <trkpt lat="42.43157" lon="1.8916">
        <ele>1214.6</ele>
        <time>2022-09-06T14:30:43Z</time>
      </trkpt>
      <trkpt lat="42.43159" lon="1.89155">
        <ele>1214.6</ele>
        <time>2022-09-06T14:30:44Z</time>
      </trkpt>
      <trkpt lat="42.43161" lon="1.89149">
        <ele>1214.6</ele>
        <time>2022-09-06T14:30:45Z</time>
      </trkpt>
      <trkpt lat="42.43163" lon="1.89143">
        <ele>1215.6</ele>
        <time>2022-09-06T14:30:46Z</time>
      </trkpt>
      <trkpt lat="42.43165" lon="1.89136">
        <ele>1217</ele>
        <time>2022-09-06T14:30:47Z</time>
      </trkpt>
      <trkpt lat="42.43167" lon="1.8913">
        <ele>1217</ele>
        <time>2022-09-06T14:30:48Z</time>
      </trkpt>
      <trkpt lat="42.43169" lon="1.89124">
        <ele>1217</ele>
        <time>2022-09-06T14:30:49Z</time>
      </trkpt>
      <trkpt lat="42.43172" lon="1.89119">
        <ele>1218</ele>
        <time>2022-09-06T14:30:50Z</time>
      </trkpt>
      <trkpt lat="42.43174" lon="1.89114">
        <ele>1219</ele>
        <time>2022-09-06T14:30:51Z</time>
      </trkpt>
      <trkpt lat="42.43177" lon="1.89109">
        <ele>1219</ele>
        <time>2022-09-06T14:30:52Z</time>
      </trkpt>
      <trkpt lat="42.43179" lon="1.89104">
        <ele>1219</ele>
        <time>2022-09-06T14:30:53Z</time>
      </trkpt>
      <trkpt lat="42.43182" lon="1.89099">
        <ele>1219</ele>
        <time>2022-09-06T14:30:54Z</time>
      </trkpt>
      <trkpt lat="42.43184" lon="1.89095">
        <ele>1220</ele>
        <time>2022-09-06T14:30:55Z</time>
      </trkpt>
      <trkpt lat="42.43185" lon="1.89091">
        <ele>1221</ele>
        <time>2022-09-06T14:30:56Z</time>
      </trkpt>
      <trkpt lat="42.43185" lon="1.89088">
        <ele>1221</ele>
        <time>2022-09-06T14:30:57Z</time>
      </trkpt>
      <trkpt lat="42.43183" lon="1.89084">
        <ele>1221</ele>
        <time>2022-09-06T14:30:58Z</time>
      </trkpt>
      <trkpt lat="42.43178" lon="1.89081">
        <ele>1221</ele>
        <time>2022-09-06T14:30:59Z</time>
      </trkpt>
      <trkpt lat="42.43172" lon="1.89079">
        <ele>1221.6</ele>
        <time>2022-09-06T14:31:00Z</time>
      </trkpt>
      <trkpt lat="42.43166" lon="1.89076">
        <ele>1221.6</ele>
        <time>2022-09-06T14:31:01Z</time>
      </trkpt>
      <trkpt lat="42.4316" lon="1.89074">
        <ele>1221.6</ele>
        <time>2022-09-06T14:31:02Z</time>
      </trkpt>
      <trkpt lat="42.43154" lon="1.89071">
        <ele>1220.6</ele>
        <time>2022-09-06T14:31:03Z</time>
      </trkpt>
      <trkpt lat="42.43148" lon="1.89069">
        <ele>1220</ele>
        <time>2022-09-06T14:31:04Z</time>
      </trkpt>
      <trkpt lat="42.43141" lon="1.89065">
        <ele>1220</ele>
        <time>2022-09-06T14:31:05Z</time>
      </trkpt>
      <trkpt lat="42.43135" lon="1.89062">
        <ele>1220</ele>
        <time>2022-09-06T14:31:06Z</time>
      </trkpt>
      <trkpt lat="42.43128" lon="1.89058">
        <ele>1219</ele>
        <time>2022-09-06T14:31:07Z</time>
      </trkpt>
      <trkpt lat="42.43121" lon="1.89054">
        <ele>1218</ele>
        <time>2022-09-06T14:31:08Z</time>
      </trkpt>
      <trkpt lat="42.43115" lon="1.8905">
        <ele>1218</ele>
        <time>2022-09-06T14:31:09Z</time>
      </trkpt>
      <trkpt lat="42.43108" lon="1.89045">
        <ele>1218</ele>
        <time>2022-09-06T14:31:10Z</time>
      </trkpt>
      <trkpt lat="42.43102" lon="1.89041">
        <ele>1218</ele>
        <time>2022-09-06T14:31:11Z</time>
      </trkpt>
      <trkpt lat="42.43095" lon="1.89036">
        <ele>1218</ele>
        <time>2022-09-06T14:31:12Z</time>
      </trkpt>
      <trkpt lat="42.43089" lon="1.8903">
        <ele>1217.2</ele>
        <time>2022-09-06T14:31:13Z</time>
      </trkpt>
      <trkpt lat="42.43082" lon="1.89025">
        <ele>1217.2</ele>
        <time>2022-09-06T14:31:14Z</time>
      </trkpt>
      <trkpt lat="42.43076" lon="1.89019">
        <ele>1217.2</ele>
        <time>2022-09-06T14:31:15Z</time>
      </trkpt>
      <trkpt lat="42.43069" lon="1.89013">
        <ele>1216.2</ele>
        <time>2022-09-06T14:31:16Z</time>
      </trkpt>
      <trkpt lat="42.43063" lon="1.89007">
        <ele>1213.2</ele>
        <time>2022-09-06T14:31:17Z</time>
      </trkpt>
      <trkpt lat="42.43056" lon="1.89001">
        <ele>1213.2</ele>
        <time>2022-09-06T14:31:18Z</time>
      </trkpt>
      <trkpt lat="42.43049" lon="1.88994">
        <ele>1213.2</ele>
        <time>2022-09-06T14:31:19Z</time>
      </trkpt>
      <trkpt lat="42.43042" lon="1.88988">
        <ele>1213.2</ele>
        <time>2022-09-06T14:31:20Z</time>
      </trkpt>
      <trkpt lat="42.43035" lon="1.88982">
        <ele>1211.6</ele>
        <time>2022-09-06T14:31:21Z</time>
      </trkpt>
      <trkpt lat="42.43028" lon="1.88975">
        <ele>1211.6</ele>
        <time>2022-09-06T14:31:22Z</time>
      </trkpt>
      <trkpt lat="42.43021" lon="1.88968">
        <ele>1211.6</ele>
        <time>2022-09-06T14:31:23Z</time>
      </trkpt>
      <trkpt lat="42.43013" lon="1.88962">
        <ele>1210.6</ele>
        <time>2022-09-06T14:31:24Z</time>
      </trkpt>
      <trkpt lat="42.43006" lon="1.88956">
        <ele>1208.8</ele>
        <time>2022-09-06T14:31:25Z</time>
      </trkpt>
      <trkpt lat="42.42998" lon="1.8895">
        <ele>1208.8</ele>
        <time>2022-09-06T14:31:26Z</time>
      </trkpt>
      <trkpt lat="42.4299" lon="1.88944">
        <ele>1208.8</ele>
        <time>2022-09-06T14:31:27Z</time>
      </trkpt>
      <trkpt lat="42.42983" lon="1.88938">
        <ele>1208.6</ele>
        <time>2022-09-06T14:31:28Z</time>
      </trkpt>
      <trkpt lat="42.42975" lon="1.88933">
        <ele>1208.6</ele>
        <time>2022-09-06T14:31:29Z</time>
      </trkpt>
      <trkpt lat="42.42967" lon="1.88929">
        <ele>1208.6</ele>
        <time>2022-09-06T14:31:30Z</time>
      </trkpt>
      <trkpt lat="42.42958" lon="1.88925">
        <ele>1208.6</ele>
        <time>2022-09-06T14:31:31Z</time>
      </trkpt>
      <trkpt lat="42.42949" lon="1.88923">
        <ele>1208.6</ele>
        <time>2022-09-06T14:31:32Z</time>
      </trkpt>
      <trkpt lat="42.42941" lon="1.8892">
        <ele>1207.6</ele>
        <time>2022-09-06T14:31:33Z</time>
      </trkpt>
      <trkpt lat="42.42932" lon="1.88918">
        <ele>1206.2</ele>
        <time>2022-09-06T14:31:34Z</time>
      </trkpt>
      <trkpt lat="42.42923" lon="1.88914">
        <ele>1206.2</ele>
        <time>2022-09-06T14:31:35Z</time>
      </trkpt>
      <trkpt lat="42.42914" lon="1.88911">
        <ele>1206.2</ele>
        <time>2022-09-06T14:31:36Z</time>
      </trkpt>
      <trkpt lat="42.42905" lon="1.88909">
        <ele>1206.2</ele>
        <time>2022-09-06T14:31:37Z</time>
      </trkpt>
      <trkpt lat="42.42896" lon="1.88909">
        <ele>1205</ele>
        <time>2022-09-06T14:31:38Z</time>
      </trkpt>
      <trkpt lat="42.42887" lon="1.88911">
        <ele>1205</ele>
        <time>2022-09-06T14:31:39Z</time>
      </trkpt>
      <trkpt lat="42.42878" lon="1.88915">
        <ele>1205</ele>
        <time>2022-09-06T14:31:40Z</time>
      </trkpt>
      <trkpt lat="42.42869" lon="1.88919">
        <ele>1205</ele>
        <time>2022-09-06T14:31:41Z</time>
      </trkpt>
      <trkpt lat="42.42859" lon="1.88923">
        <ele>1203.2</ele>
        <time>2022-09-06T14:31:42Z</time>
      </trkpt>
      <trkpt lat="42.4285" lon="1.88925">
        <ele>1203.2</ele>
        <time>2022-09-06T14:31:43Z</time>
      </trkpt>
      <trkpt lat="42.4284" lon="1.88926">
        <ele>1203.2</ele>
        <time>2022-09-06T14:31:44Z</time>
      </trkpt>
      <trkpt lat="42.42831" lon="1.88927">
        <ele>1203.2</ele>
        <time>2022-09-06T14:31:45Z</time>
      </trkpt>
      <trkpt lat="42.42822" lon="1.88928">
        <ele>1203.6</ele>
        <time>2022-09-06T14:31:46Z</time>
      </trkpt>
      <trkpt lat="42.42813" lon="1.88927">
        <ele>1203.6</ele>
        <time>2022-09-06T14:31:47Z</time>
      </trkpt>
      <trkpt lat="42.42805" lon="1.88927">
        <ele>1203.6</ele>
        <time>2022-09-06T14:31:48Z</time>
      </trkpt>
      <trkpt lat="42.42797" lon="1.88926">
        <ele>1203.6</ele>
        <time>2022-09-06T14:31:49Z</time>
      </trkpt>
      <trkpt lat="42.42791" lon="1.88924">
        <ele>1203.6</ele>
        <time>2022-09-06T14:31:50Z</time>
      </trkpt>
      <trkpt lat="42.42787" lon="1.88919">
        <ele>1203.6</ele>
        <time>2022-09-06T14:31:51Z</time>
      </trkpt>
      <trkpt lat="42.42785" lon="1.88912">
        <ele>1203.6</ele>
        <time>2022-09-06T14:31:52Z</time>
      </trkpt>
      <trkpt lat="42.42787" lon="1.88904">
        <ele>1204.4</ele>
        <time>2022-09-06T14:31:53Z</time>
      </trkpt>
      <trkpt lat="42.4279" lon="1.88898">
        <ele>1204.4</ele>
        <time>2022-09-06T14:31:54Z</time>
      </trkpt>
      <trkpt lat="42.42793" lon="1.88891">
        <ele>1206.2</ele>
        <time>2022-09-06T14:31:55Z</time>
      </trkpt>
      <trkpt lat="42.42796" lon="1.88885">
        <ele>1206.2</ele>
        <time>2022-09-06T14:31:56Z</time>
      </trkpt>
      <trkpt lat="42.42799" lon="1.88878">
        <ele>1206.2</ele>
        <time>2022-09-06T14:31:57Z</time>
      </trkpt>
      <trkpt lat="42.42802" lon="1.88872">
        <ele>1206.2</ele>
        <time>2022-09-06T14:31:58Z</time>
      </trkpt>
      <trkpt lat="42.42805" lon="1.88865">
        <ele>1206.8</ele>
        <time>2022-09-06T14:31:59Z</time>
      </trkpt>
      <trkpt lat="42.42808" lon="1.88858">
        <ele>1206.8</ele>
        <time>2022-09-06T14:32:00Z</time>
      </trkpt>
      <trkpt lat="42.4281" lon="1.88852">
        <ele>1206.8</ele>
        <time>2022-09-06T14:32:01Z</time>
      </trkpt>
      <trkpt lat="42.42812" lon="1.88845">
        <ele>1206.8</ele>
        <time>2022-09-06T14:32:02Z</time>
      </trkpt>
      <trkpt lat="42.42815" lon="1.88839">
        <ele>1210.4</ele>
        <time>2022-09-06T14:32:03Z</time>
      </trkpt>
      <trkpt lat="42.42818" lon="1.88833">
        <ele>1210.4</ele>
        <time>2022-09-06T14:32:04Z</time>
      </trkpt>
      <trkpt lat="42.42821" lon="1.88827">
        <ele>1210.4</ele>
        <time>2022-09-06T14:32:05Z</time>
      </trkpt>
      <trkpt lat="42.42823" lon="1.88821">
        <ele>1211.4</ele>
        <time>2022-09-06T14:32:06Z</time>
      </trkpt>
      <trkpt lat="42.42824" lon="1.88815">
        <ele>1213</ele>
        <time>2022-09-06T14:32:07Z</time>
      </trkpt>
      <trkpt lat="42.42826" lon="1.88808">
        <ele>1213</ele>
        <time>2022-09-06T14:32:08Z</time>
      </trkpt>
      <trkpt lat="42.42827" lon="1.88801">
        <ele>1213</ele>
        <time>2022-09-06T14:32:09Z</time>
      </trkpt>
      <trkpt lat="42.42828" lon="1.88793">
        <ele>1212</ele>
        <time>2022-09-06T14:32:10Z</time>
      </trkpt>
      <trkpt lat="42.42828" lon="1.88785">
        <ele>1212.4</ele>
        <time>2022-09-06T14:32:11Z</time>
      </trkpt>
      <trkpt lat="42.42829" lon="1.88778">
        <ele>1212.4</ele>
        <time>2022-09-06T14:32:12Z</time>
      </trkpt>
      <trkpt lat="42.4283" lon="1.8877">
        <ele>1212.4</ele>
        <time>2022-09-06T14:32:13Z</time>
      </trkpt>
      <trkpt lat="42.42831" lon="1.88763">
        <ele>1212.4</ele>
        <time>2022-09-06T14:32:14Z</time>
      </trkpt>
      <trkpt lat="42.42833" lon="1.88756">
        <ele>1213.4</ele>
        <time>2022-09-06T14:32:15Z</time>
      </trkpt>
      <trkpt lat="42.42835" lon="1.88748">
        <ele>1214.6</ele>
        <time>2022-09-06T14:32:16Z</time>
      </trkpt>
      <trkpt lat="42.42837" lon="1.8874">
        <ele>1214.6</ele>
        <time>2022-09-06T14:32:17Z</time>
      </trkpt>
      <trkpt lat="42.42838" lon="1.88732">
        <ele>1214.6</ele>
        <time>2022-09-06T14:32:18Z</time>
      </trkpt>
      <trkpt lat="42.42838" lon="1.88724">
        <ele>1213.6</ele>
        <time>2022-09-06T14:32:19Z</time>
      </trkpt>
      <trkpt lat="42.42837" lon="1.88716">
        <ele>1212.6</ele>
        <time>2022-09-06T14:32:20Z</time>
      </trkpt>
      <trkpt lat="42.42835" lon="1.88708">
        <ele>1212.6</ele>
        <time>2022-09-06T14:32:21Z</time>
      </trkpt>
      <trkpt lat="42.42833" lon="1.887">
        <ele>1212.6</ele>
        <time>2022-09-06T14:32:22Z</time>
      </trkpt>
      <trkpt lat="42.42831" lon="1.88692">
        <ele>1212.6</ele>
        <time>2022-09-06T14:32:23Z</time>
      </trkpt>
      <trkpt lat="42.4283" lon="1.88684">
        <ele>1215.8</ele>
        <time>2022-09-06T14:32:24Z</time>
      </trkpt>
      <trkpt lat="42.42829" lon="1.88677">
        <ele>1215.8</ele>
        <time>2022-09-06T14:32:25Z</time>
      </trkpt>
      <trkpt lat="42.42829" lon="1.88669">
        <ele>1215.8</ele>
        <time>2022-09-06T14:32:26Z</time>
      </trkpt>
      <trkpt lat="42.4283" lon="1.88661">
        <ele>1215.8</ele>
        <time>2022-09-06T14:32:27Z</time>
      </trkpt>
      <trkpt lat="42.4283" lon="1.88653">
        <ele>1216</ele>
        <time>2022-09-06T14:32:28Z</time>
      </trkpt>
      <trkpt lat="42.42831" lon="1.88645">
        <ele>1216</ele>
        <time>2022-09-06T14:32:29Z</time>
      </trkpt>
      <trkpt lat="42.42831" lon="1.88638">
        <ele>1216</ele>
        <time>2022-09-06T14:32:30Z</time>
      </trkpt>
      <trkpt lat="42.42831" lon="1.8863">
        <ele>1216.6</ele>
        <time>2022-09-06T14:32:31Z</time>
      </trkpt>
      <trkpt lat="42.42831" lon="1.88623">
        <ele>1216.6</ele>
        <time>2022-09-06T14:32:32Z</time>
      </trkpt>
      <trkpt lat="42.42831" lon="1.88614">
        <ele>1216.6</ele>
        <time>2022-09-06T14:32:33Z</time>
      </trkpt>
      <trkpt lat="42.4283" lon="1.88606">
        <ele>1216.6</ele>
        <time>2022-09-06T14:32:34Z</time>
      </trkpt>
      <trkpt lat="42.4283" lon="1.88598">
        <ele>1216.6</ele>
        <time>2022-09-06T14:32:35Z</time>
      </trkpt>
      <trkpt lat="42.42831" lon="1.88589">
        <ele>1216.6</ele>
        <time>2022-09-06T14:32:36Z</time>
      </trkpt>
      <trkpt lat="42.42832" lon="1.88581">
        <ele>1216.4</ele>
        <time>2022-09-06T14:32:37Z</time>
      </trkpt>
      <trkpt lat="42.42833" lon="1.88572">
        <ele>1216.4</ele>
        <time>2022-09-06T14:32:38Z</time>
      </trkpt>
      <trkpt lat="42.42834" lon="1.88564">
        <ele>1216.4</ele>
        <time>2022-09-06T14:32:39Z</time>
      </trkpt>
      <trkpt lat="42.42836" lon="1.88556">
        <ele>1216.4</ele>
        <time>2022-09-06T14:32:40Z</time>
      </trkpt>
      <trkpt lat="42.42838" lon="1.88548">
        <ele>1216.6</ele>
        <time>2022-09-06T14:32:41Z</time>
      </trkpt>
      <trkpt lat="42.4284" lon="1.8854">
        <ele>1216.6</ele>
        <time>2022-09-06T14:32:42Z</time>
      </trkpt>
      <trkpt lat="42.42843" lon="1.88532">
        <ele>1216.6</ele>
        <time>2022-09-06T14:32:43Z</time>
      </trkpt>
      <trkpt lat="42.42846" lon="1.88525">
        <ele>1216.6</ele>
        <time>2022-09-06T14:32:44Z</time>
      </trkpt>
      <trkpt lat="42.42849" lon="1.88517">
        <ele>1216.4</ele>
        <time>2022-09-06T14:32:45Z</time>
      </trkpt>
      <trkpt lat="42.42852" lon="1.8851">
        <ele>1216.4</ele>
        <time>2022-09-06T14:32:46Z</time>
      </trkpt>
      <trkpt lat="42.42855" lon="1.88503">
        <ele>1216.4</ele>
        <time>2022-09-06T14:32:47Z</time>
      </trkpt>
      <trkpt lat="42.42858" lon="1.88496">
        <ele>1216.4</ele>
        <time>2022-09-06T14:32:48Z</time>
      </trkpt>
      <trkpt lat="42.42861" lon="1.88489">
        <ele>1216.4</ele>
        <time>2022-09-06T14:32:49Z</time>
      </trkpt>
      <trkpt lat="42.42864" lon="1.88482">
        <ele>1217.6</ele>
        <time>2022-09-06T14:32:50Z</time>
      </trkpt>
      <trkpt lat="42.42868" lon="1.88476">
        <ele>1217.6</ele>
        <time>2022-09-06T14:32:51Z</time>
      </trkpt>
      <trkpt lat="42.42871" lon="1.88469">
        <ele>1217.6</ele>
        <time>2022-09-06T14:32:52Z</time>
      </trkpt>
      <trkpt lat="42.42875" lon="1.88463">
        <ele>1218.6</ele>
        <time>2022-09-06T14:32:53Z</time>
      </trkpt>
      <trkpt lat="42.42878" lon="1.88458">
        <ele>1220</ele>
        <time>2022-09-06T14:32:54Z</time>
      </trkpt>
      <trkpt lat="42.42882" lon="1.88453">
        <ele>1220</ele>
        <time>2022-09-06T14:32:55Z</time>
      </trkpt>
      <trkpt lat="42.42885" lon="1.88449">
        <ele>1220</ele>
        <time>2022-09-06T14:32:56Z</time>
      </trkpt>
      <trkpt lat="42.42889" lon="1.88445">
        <ele>1221</ele>
        <time>2022-09-06T14:32:57Z</time>
      </trkpt>
      <trkpt lat="42.42892" lon="1.88441">
        <ele>1222.4</ele>
        <time>2022-09-06T14:32:58Z</time>
      </trkpt>
      <trkpt lat="42.42896" lon="1.88438">
        <ele>1222.4</ele>
        <time>2022-09-06T14:32:59Z</time>
      </trkpt>
      <trkpt lat="42.429" lon="1.88435">
        <ele>1222.4</ele>
        <time>2022-09-06T14:33:00Z</time>
      </trkpt>
      <trkpt lat="42.42904" lon="1.88431">
        <ele>1223.4</ele>
        <time>2022-09-06T14:33:01Z</time>
      </trkpt>
      <trkpt lat="42.42907" lon="1.88427">
        <ele>1223.4</ele>
        <time>2022-09-06T14:33:02Z</time>
      </trkpt>
      <trkpt lat="42.42911" lon="1.88424">
        <ele>1225.6</ele>
        <time>2022-09-06T14:33:03Z</time>
      </trkpt>
      <trkpt lat="42.42915" lon="1.8842">
        <ele>1225.6</ele>
        <time>2022-09-06T14:33:04Z</time>
      </trkpt>
      <trkpt lat="42.42919" lon="1.88416">
        <ele>1225.6</ele>
        <time>2022-09-06T14:33:05Z</time>
      </trkpt>
      <trkpt lat="42.42923" lon="1.88412">
        <ele>1226.6</ele>
        <time>2022-09-06T14:33:06Z</time>
      </trkpt>
      <trkpt lat="42.42926" lon="1.88408">
        <ele>1226.4</ele>
        <time>2022-09-06T14:33:07Z</time>
      </trkpt>
      <trkpt lat="42.4293" lon="1.88404">
        <ele>1226.4</ele>
        <time>2022-09-06T14:33:08Z</time>
      </trkpt>
      <trkpt lat="42.42934" lon="1.88399">
        <ele>1226.4</ele>
        <time>2022-09-06T14:33:09Z</time>
      </trkpt>
      <trkpt lat="42.42937" lon="1.88394">
        <ele>1227.4</ele>
        <time>2022-09-06T14:33:10Z</time>
      </trkpt>
      <trkpt lat="42.4294" lon="1.88389">
        <ele>1229.8</ele>
        <time>2022-09-06T14:33:11Z</time>
      </trkpt>
      <trkpt lat="42.42943" lon="1.88383">
        <ele>1229.8</ele>
        <time>2022-09-06T14:33:12Z</time>
      </trkpt>
      <trkpt lat="42.42947" lon="1.88377">
        <ele>1229.8</ele>
        <time>2022-09-06T14:33:13Z</time>
      </trkpt>
      <trkpt lat="42.42952" lon="1.88371">
        <ele>1229.8</ele>
        <time>2022-09-06T14:33:14Z</time>
      </trkpt>
      <trkpt lat="42.42956" lon="1.88366">
        <ele>1229.8</ele>
        <time>2022-09-06T14:33:15Z</time>
      </trkpt>
      <trkpt lat="42.4296" lon="1.8836">
        <ele>1228.4</ele>
        <time>2022-09-06T14:33:16Z</time>
      </trkpt>
      <trkpt lat="42.42964" lon="1.88356">
        <ele>1228.4</ele>
        <time>2022-09-06T14:33:17Z</time>
      </trkpt>
      <trkpt lat="42.42967" lon="1.88351">
        <ele>1228.4</ele>
        <time>2022-09-06T14:33:18Z</time>
      </trkpt>
      <trkpt lat="42.42971" lon="1.88347">
        <ele>1229.4</ele>
        <time>2022-09-06T14:33:19Z</time>
      </trkpt>
      <trkpt lat="42.42974" lon="1.88342">
        <ele>1233.4</ele>
        <time>2022-09-06T14:33:20Z</time>
      </trkpt>
      <trkpt lat="42.42977" lon="1.88338">
        <ele>1233.4</ele>
        <time>2022-09-06T14:33:21Z</time>
      </trkpt>
      <trkpt lat="42.42981" lon="1.88334">
        <ele>1233.4</ele>
        <time>2022-09-06T14:33:22Z</time>
      </trkpt>
      <trkpt lat="42.42984" lon="1.8833">
        <ele>1234.4</ele>
        <time>2022-09-06T14:33:23Z</time>
      </trkpt>
      <trkpt lat="42.42987" lon="1.88325">
        <ele>1237.6</ele>
        <time>2022-09-06T14:33:24Z</time>
      </trkpt>
      <trkpt lat="42.4299" lon="1.88319">
        <ele>1237.6</ele>
        <time>2022-09-06T14:33:25Z</time>
      </trkpt>
      <trkpt lat="42.42994" lon="1.88315">
        <ele>1237.6</ele>
        <time>2022-09-06T14:33:26Z</time>
      </trkpt>
      <trkpt lat="42.42997" lon="1.8831">
        <ele>1236.6</ele>
        <time>2022-09-06T14:33:27Z</time>
      </trkpt>
      <trkpt lat="42.43001" lon="1.88305">
        <ele>1237</ele>
        <time>2022-09-06T14:33:28Z</time>
      </trkpt>
      <trkpt lat="42.43004" lon="1.88301">
        <ele>1237</ele>
        <time>2022-09-06T14:33:29Z</time>
      </trkpt>
      <trkpt lat="42.43008" lon="1.88296">
        <ele>1237</ele>
        <time>2022-09-06T14:33:30Z</time>
      </trkpt>
      <trkpt lat="42.43011" lon="1.88292">
        <ele>1238</ele>
        <time>2022-09-06T14:33:31Z</time>
      </trkpt>
      <trkpt lat="42.43015" lon="1.88288">
        <ele>1238.8</ele>
        <time>2022-09-06T14:33:32Z</time>
      </trkpt>
      <trkpt lat="42.43019" lon="1.88283">
        <ele>1238.8</ele>
        <time>2022-09-06T14:33:33Z</time>
      </trkpt>
      <trkpt lat="42.43024" lon="1.88278">
        <ele>1238.8</ele>
        <time>2022-09-06T14:33:34Z</time>
      </trkpt>
      <trkpt lat="42.43028" lon="1.88273">
        <ele>1238.8</ele>
        <time>2022-09-06T14:33:35Z</time>
      </trkpt>
      <trkpt lat="42.43033" lon="1.88269">
        <ele>1240</ele>
        <time>2022-09-06T14:33:36Z</time>
      </trkpt>
      <trkpt lat="42.43037" lon="1.88264">
        <ele>1240</ele>
        <time>2022-09-06T14:33:37Z</time>
      </trkpt>
      <trkpt lat="42.43041" lon="1.88259">
        <ele>1240</ele>
        <time>2022-09-06T14:33:38Z</time>
      </trkpt>
      <trkpt lat="42.43045" lon="1.88253">
        <ele>1240</ele>
        <time>2022-09-06T14:33:39Z</time>
      </trkpt>
      <trkpt lat="42.43049" lon="1.88248">
        <ele>1241</ele>
        <time>2022-09-06T14:33:40Z</time>
      </trkpt>
      <trkpt lat="42.43053" lon="1.88242">
        <ele>1242.4</ele>
        <time>2022-09-06T14:33:41Z</time>
      </trkpt>
      <trkpt lat="42.43057" lon="1.88236">
        <ele>1242.4</ele>
        <time>2022-09-06T14:33:42Z</time>
      </trkpt>
      <trkpt lat="42.4306" lon="1.88231">
        <ele>1242.4</ele>
        <time>2022-09-06T14:33:43Z</time>
      </trkpt>
      <trkpt lat="42.43065" lon="1.88225">
        <ele>1242.4</ele>
        <time>2022-09-06T14:33:44Z</time>
      </trkpt>
      <trkpt lat="42.43069" lon="1.8822">
        <ele>1245</ele>
        <time>2022-09-06T14:33:45Z</time>
      </trkpt>
      <trkpt lat="42.43073" lon="1.88216">
        <ele>1245</ele>
        <time>2022-09-06T14:33:46Z</time>
      </trkpt>
      <trkpt lat="42.43078" lon="1.88211">
        <ele>1245</ele>
        <time>2022-09-06T14:33:47Z</time>
      </trkpt>
      <trkpt lat="42.43082" lon="1.88207">
        <ele>1245</ele>
        <time>2022-09-06T14:33:48Z</time>
      </trkpt>
      <trkpt lat="42.43086" lon="1.88203">
        <ele>1245</ele>
        <time>2022-09-06T14:33:49Z</time>
      </trkpt>
      <trkpt lat="42.43091" lon="1.88199">
        <ele>1245.8</ele>
        <time>2022-09-06T14:33:50Z</time>
      </trkpt>
      <trkpt lat="42.43095" lon="1.88194">
        <ele>1245.8</ele>
        <time>2022-09-06T14:33:51Z</time>
      </trkpt>
      <trkpt lat="42.431" lon="1.8819">
        <ele>1245.8</ele>
        <time>2022-09-06T14:33:52Z</time>
      </trkpt>
      <trkpt lat="42.43105" lon="1.88186">
        <ele>1245.8</ele>
        <time>2022-09-06T14:33:53Z</time>
      </trkpt>
      <trkpt lat="42.4311" lon="1.88182">
        <ele>1244.6</ele>
        <time>2022-09-06T14:33:54Z</time>
      </trkpt>
      <trkpt lat="42.43115" lon="1.88177">
        <ele>1244.6</ele>
        <time>2022-09-06T14:33:55Z</time>
      </trkpt>
      <trkpt lat="42.43121" lon="1.88173">
        <ele>1244.6</ele>
        <time>2022-09-06T14:33:56Z</time>
      </trkpt>
      <trkpt lat="42.43126" lon="1.88168">
        <ele>1245.4</ele>
        <time>2022-09-06T14:33:57Z</time>
      </trkpt>
      <trkpt lat="42.43132" lon="1.88164">
        <ele>1245</ele>
        <time>2022-09-06T14:33:58Z</time>
      </trkpt>
      <trkpt lat="42.43138" lon="1.8816">
        <ele>1245</ele>
        <time>2022-09-06T14:33:59Z</time>
      </trkpt>
      <trkpt lat="42.43143" lon="1.88154">
        <ele>1245</ele>
        <time>2022-09-06T14:34:00Z</time>
      </trkpt>
      <trkpt lat="42.43148" lon="1.88148">
        <ele>1245</ele>
        <time>2022-09-06T14:34:01Z</time>
      </trkpt>
      <trkpt lat="42.43153" lon="1.88143">
        <ele>1246.2</ele>
        <time>2022-09-06T14:34:02Z</time>
      </trkpt>
      <trkpt lat="42.43158" lon="1.88137">
        <ele>1246.2</ele>
        <time>2022-09-06T14:34:03Z</time>
      </trkpt>
      <trkpt lat="42.43163" lon="1.88132">
        <ele>1246.2</ele>
        <time>2022-09-06T14:34:04Z</time>
      </trkpt>
      <trkpt lat="42.43169" lon="1.88128">
        <ele>1246.2</ele>
        <time>2022-09-06T14:34:05Z</time>
      </trkpt>
      <trkpt lat="42.43174" lon="1.88125">
        <ele>1245.2</ele>
        <time>2022-09-06T14:34:06Z</time>
      </trkpt>
      <trkpt lat="42.4318" lon="1.88122">
        <ele>1245</ele>
        <time>2022-09-06T14:34:07Z</time>
      </trkpt>
      <trkpt lat="42.43186" lon="1.88119">
        <ele>1245</ele>
        <time>2022-09-06T14:34:08Z</time>
      </trkpt>
      <trkpt lat="42.43191" lon="1.88115">
        <ele>1245</ele>
        <time>2022-09-06T14:34:09Z</time>
      </trkpt>
      <trkpt lat="42.43197" lon="1.88111">
        <ele>1245.8</ele>
        <time>2022-09-06T14:34:10Z</time>
      </trkpt>
      <trkpt lat="42.43202" lon="1.88107">
        <ele>1246.8</ele>
        <time>2022-09-06T14:34:11Z</time>
      </trkpt>
      <trkpt lat="42.43207" lon="1.88103">
        <ele>1246.8</ele>
        <time>2022-09-06T14:34:12Z</time>
      </trkpt>
      <trkpt lat="42.43213" lon="1.88099">
        <ele>1246.8</ele>
        <time>2022-09-06T14:34:13Z</time>
      </trkpt>
      <trkpt lat="42.43218" lon="1.88095">
        <ele>1245.8</ele>
        <time>2022-09-06T14:34:14Z</time>
      </trkpt>
      <trkpt lat="42.43223" lon="1.88091">
        <ele>1246.4</ele>
        <time>2022-09-06T14:34:15Z</time>
      </trkpt>
      <trkpt lat="42.43229" lon="1.88087">
        <ele>1246.4</ele>
        <time>2022-09-06T14:34:16Z</time>
      </trkpt>
      <trkpt lat="42.43235" lon="1.88085">
        <ele>1246.4</ele>
        <time>2022-09-06T14:34:17Z</time>
      </trkpt>
      <trkpt lat="42.43241" lon="1.88084">
        <ele>1246.4</ele>
        <time>2022-09-06T14:34:18Z</time>
      </trkpt>
      <trkpt lat="42.43246" lon="1.88084">
        <ele>1249.4</ele>
        <time>2022-09-06T14:34:19Z</time>
      </trkpt>
      <trkpt lat="42.43251" lon="1.88084">
        <ele>1249.4</ele>
        <time>2022-09-06T14:34:20Z</time>
      </trkpt>
      <trkpt lat="42.43257" lon="1.88084">
        <ele>1249.4</ele>
        <time>2022-09-06T14:34:21Z</time>
      </trkpt>
      <trkpt lat="42.43262" lon="1.88084">
        <ele>1248.6</ele>
        <time>2022-09-06T14:34:22Z</time>
      </trkpt>
      <trkpt lat="42.43268" lon="1.88084">
        <ele>1248.8</ele>
        <time>2022-09-06T14:34:23Z</time>
      </trkpt>
      <trkpt lat="42.43274" lon="1.88084">
        <ele>1248.8</ele>
        <time>2022-09-06T14:34:24Z</time>
      </trkpt>
      <trkpt lat="42.4328" lon="1.88085">
        <ele>1248.8</ele>
        <time>2022-09-06T14:34:25Z</time>
      </trkpt>
      <trkpt lat="42.43286" lon="1.88086">
        <ele>1249.8</ele>
        <time>2022-09-06T14:34:26Z</time>
      </trkpt>
      <trkpt lat="42.43293" lon="1.88087">
        <ele>1250</ele>
        <time>2022-09-06T14:34:27Z</time>
      </trkpt>
      <trkpt lat="42.43299" lon="1.88086">
        <ele>1250</ele>
        <time>2022-09-06T14:34:28Z</time>
      </trkpt>
      <trkpt lat="42.43305" lon="1.88085">
        <ele>1250</ele>
        <time>2022-09-06T14:34:29Z</time>
      </trkpt>
      <trkpt lat="42.43312" lon="1.88083">
        <ele>1250</ele>
        <time>2022-09-06T14:34:30Z</time>
      </trkpt>
      <trkpt lat="42.43318" lon="1.88082">
        <ele>1250</ele>
        <time>2022-09-06T14:34:31Z</time>
      </trkpt>
      <trkpt lat="42.43324" lon="1.88081">
        <ele>1251.8</ele>
        <time>2022-09-06T14:34:32Z</time>
      </trkpt>
      <trkpt lat="42.4333" lon="1.88081">
        <ele>1251.8</ele>
        <time>2022-09-06T14:34:33Z</time>
      </trkpt>
      <trkpt lat="42.43337" lon="1.8808">
        <ele>1251.8</ele>
        <time>2022-09-06T14:34:34Z</time>
      </trkpt>
      <trkpt lat="42.43342" lon="1.88079">
        <ele>1251.8</ele>
        <time>2022-09-06T14:34:35Z</time>
      </trkpt>
      <trkpt lat="42.43348" lon="1.88077">
        <ele>1252.2</ele>
        <time>2022-09-06T14:34:36Z</time>
      </trkpt>
      <trkpt lat="42.43354" lon="1.88076">
        <ele>1252.2</ele>
        <time>2022-09-06T14:34:37Z</time>
      </trkpt>
      <trkpt lat="42.43359" lon="1.88075">
        <ele>1252.2</ele>
        <time>2022-09-06T14:34:38Z</time>
      </trkpt>
      <trkpt lat="42.43364" lon="1.88075">
        <ele>1253.2</ele>
        <time>2022-09-06T14:34:39Z</time>
      </trkpt>
      <trkpt lat="42.43368" lon="1.88074">
        <ele>1254.4</ele>
        <time>2022-09-06T14:34:40Z</time>
      </trkpt>
      <trkpt lat="42.43372" lon="1.88071">
        <ele>1254.4</ele>
        <time>2022-09-06T14:34:41Z</time>
      </trkpt>
      <trkpt lat="42.43376" lon="1.88067">
        <ele>1254.4</ele>
        <time>2022-09-06T14:34:42Z</time>
      </trkpt>
      <trkpt lat="42.43379" lon="1.88061">
        <ele>1254.4</ele>
        <time>2022-09-06T14:34:43Z</time>
      </trkpt>
      <trkpt lat="42.43382" lon="1.88055">
        <ele>1255.8</ele>
        <time>2022-09-06T14:34:44Z</time>
      </trkpt>
      <trkpt lat="42.43386" lon="1.88049">
        <ele>1255.8</ele>
        <time>2022-09-06T14:34:45Z</time>
      </trkpt>
      <trkpt lat="42.4339" lon="1.88044">
        <ele>1255.8</ele>
        <time>2022-09-06T14:34:46Z</time>
      </trkpt>
      <trkpt lat="42.43393" lon="1.88037">
        <ele>1255.8</ele>
        <time>2022-09-06T14:34:47Z</time>
      </trkpt>
      <trkpt lat="42.43395" lon="1.8803">
        <ele>1252</ele>
        <time>2022-09-06T14:34:48Z</time>
      </trkpt>
      <trkpt lat="42.43397" lon="1.88022">
        <ele>1252</ele>
        <time>2022-09-06T14:34:49Z</time>
      </trkpt>
      <trkpt lat="42.434" lon="1.88014">
        <ele>1252</ele>
        <time>2022-09-06T14:34:50Z</time>
      </trkpt>
      <trkpt lat="42.43403" lon="1.88006">
        <ele>1252</ele>
        <time>2022-09-06T14:34:51Z</time>
      </trkpt>
      <trkpt lat="42.43405" lon="1.87997">
        <ele>1251</ele>
        <time>2022-09-06T14:34:52Z</time>
      </trkpt>
      <trkpt lat="42.43408" lon="1.8799">
        <ele>1251</ele>
        <time>2022-09-06T14:34:53Z</time>
      </trkpt>
      <trkpt lat="42.43413" lon="1.87983">
        <ele>1251</ele>
        <time>2022-09-06T14:34:54Z</time>
      </trkpt>
      <trkpt lat="42.43418" lon="1.87977">
        <ele>1251</ele>
        <time>2022-09-06T14:34:55Z</time>
      </trkpt>
      <trkpt lat="42.43424" lon="1.87971">
        <ele>1251</ele>
        <time>2022-09-06T14:34:56Z</time>
      </trkpt>
      <trkpt lat="42.43429" lon="1.87965">
        <ele>1249.8</ele>
        <time>2022-09-06T14:34:57Z</time>
      </trkpt>
      <trkpt lat="42.43433" lon="1.87958">
        <ele>1249.8</ele>
        <time>2022-09-06T14:34:58Z</time>
      </trkpt>
      <trkpt lat="42.43437" lon="1.8795">
        <ele>1249.8</ele>
        <time>2022-09-06T14:34:59Z</time>
      </trkpt>
      <trkpt lat="42.43442" lon="1.87943">
        <ele>1248.8</ele>
        <time>2022-09-06T14:35:00Z</time>
      </trkpt>
      <trkpt lat="42.43447" lon="1.87936">
        <ele>1246.6</ele>
        <time>2022-09-06T14:35:01Z</time>
      </trkpt>
      <trkpt lat="42.43451" lon="1.87928">
        <ele>1246.6</ele>
        <time>2022-09-06T14:35:02Z</time>
      </trkpt>
      <trkpt lat="42.43454" lon="1.8792">
        <ele>1246.6</ele>
        <time>2022-09-06T14:35:03Z</time>
      </trkpt>
      <trkpt lat="42.43453" lon="1.87912">
        <ele>1245.6</ele>
        <time>2022-09-06T14:35:04Z</time>
      </trkpt>
      <trkpt lat="42.43449" lon="1.87904">
        <ele>1245.6</ele>
        <time>2022-09-06T14:35:05Z</time>
      </trkpt>
      <trkpt lat="42.43444" lon="1.87898">
        <ele>1245.6</ele>
        <time>2022-09-06T14:35:06Z</time>
      </trkpt>
      <trkpt lat="42.4344" lon="1.87892">
        <ele>1245.6</ele>
        <time>2022-09-06T14:35:07Z</time>
      </trkpt>
      <trkpt lat="42.43437" lon="1.87885">
        <ele>1245.6</ele>
        <time>2022-09-06T14:35:08Z</time>
      </trkpt>
      <trkpt lat="42.43436" lon="1.87879">
        <ele>1248.8</ele>
        <time>2022-09-06T14:35:09Z</time>
      </trkpt>
      <trkpt lat="42.43437" lon="1.87872">
        <ele>1248.8</ele>
        <time>2022-09-06T14:35:10Z</time>
      </trkpt>
      <trkpt lat="42.43438" lon="1.87866">
        <ele>1248.8</ele>
        <time>2022-09-06T14:35:11Z</time>
      </trkpt>
      <trkpt lat="42.4344" lon="1.87859">
        <ele>1247.8</ele>
        <time>2022-09-06T14:35:12Z</time>
      </trkpt>
      <trkpt lat="42.43441" lon="1.8785">
        <ele>1244.8</ele>
        <time>2022-09-06T14:35:13Z</time>
      </trkpt>
      <trkpt lat="42.43439" lon="1.87842">
        <ele>1244.8</ele>
        <time>2022-09-06T14:35:14Z</time>
      </trkpt>
      <trkpt lat="42.43434" lon="1.87837">
        <ele>1244.8</ele>
        <time>2022-09-06T14:35:15Z</time>
      </trkpt>
      <trkpt lat="42.43429" lon="1.87835">
        <ele>1244.8</ele>
        <time>2022-09-06T14:35:16Z</time>
      </trkpt>
      <trkpt lat="42.43423" lon="1.87833">
        <ele>1244.8</ele>
        <time>2022-09-06T14:35:17Z</time>
      </trkpt>
      <trkpt lat="42.43419" lon="1.87832">
        <ele>1245.6</ele>
        <time>2022-09-06T14:35:18Z</time>
      </trkpt>
      <trkpt lat="42.43415" lon="1.87833">
        <ele>1245.6</ele>
        <time>2022-09-06T14:35:19Z</time>
      </trkpt>
      <trkpt lat="42.4341" lon="1.87834">
        <ele>1245.6</ele>
        <time>2022-09-06T14:35:20Z</time>
      </trkpt>
      <trkpt lat="42.43405" lon="1.87834">
        <ele>1245.6</ele>
        <time>2022-09-06T14:35:21Z</time>
      </trkpt>
      <trkpt lat="42.434" lon="1.87834">
        <ele>1243.6</ele>
        <time>2022-09-06T14:35:22Z</time>
      </trkpt>
      <trkpt lat="42.43395" lon="1.87835">
        <ele>1243.6</ele>
        <time>2022-09-06T14:35:23Z</time>
      </trkpt>
      <trkpt lat="42.43389" lon="1.87836">
        <ele>1243.6</ele>
        <time>2022-09-06T14:35:24Z</time>
      </trkpt>
      <trkpt lat="42.43383" lon="1.87838">
        <ele>1244.6</ele>
        <time>2022-09-06T14:35:25Z</time>
      </trkpt>
      <trkpt lat="42.43377" lon="1.87839">
        <ele>1246</ele>
        <time>2022-09-06T14:35:26Z</time>
      </trkpt>
      <trkpt lat="42.43371" lon="1.87841">
        <ele>1246</ele>
        <time>2022-09-06T14:35:27Z</time>
      </trkpt>
      <trkpt lat="42.43365" lon="1.87842">
        <ele>1246</ele>
        <time>2022-09-06T14:35:28Z</time>
      </trkpt>
      <trkpt lat="42.43359" lon="1.87844">
        <ele>1246</ele>
        <time>2022-09-06T14:35:29Z</time>
      </trkpt>
      <trkpt lat="42.43353" lon="1.87846">
        <ele>1246.8</ele>
        <time>2022-09-06T14:35:30Z</time>
      </trkpt>
      <trkpt lat="42.43348" lon="1.87847">
        <ele>1246.8</ele>
        <time>2022-09-06T14:35:31Z</time>
      </trkpt>
      <trkpt lat="42.43341" lon="1.87846">
        <ele>1246.8</ele>
        <time>2022-09-06T14:35:32Z</time>
      </trkpt>
      <trkpt lat="42.43335" lon="1.87844">
        <ele>1246.8</ele>
        <time>2022-09-06T14:35:33Z</time>
      </trkpt>
      <trkpt lat="42.43329" lon="1.87842">
        <ele>1246.8</ele>
        <time>2022-09-06T14:35:34Z</time>
      </trkpt>
      <trkpt lat="42.43322" lon="1.8784">
        <ele>1248.6</ele>
        <time>2022-09-06T14:35:35Z</time>
      </trkpt>
      <trkpt lat="42.43316" lon="1.87838">
        <ele>1248.6</ele>
        <time>2022-09-06T14:35:36Z</time>
      </trkpt>
      <trkpt lat="42.43309" lon="1.87838">
        <ele>1248.6</ele>
        <time>2022-09-06T14:35:37Z</time>
      </trkpt>
      <trkpt lat="42.43303" lon="1.87839">
        <ele>1247.6</ele>
        <time>2022-09-06T14:35:38Z</time>
      </trkpt>
      <trkpt lat="42.43297" lon="1.87844">
        <ele>1246.8</ele>
        <time>2022-09-06T14:35:39Z</time>
      </trkpt>
      <trkpt lat="42.43292" lon="1.87849">
        <ele>1246.8</ele>
        <time>2022-09-06T14:35:40Z</time>
      </trkpt>
      <trkpt lat="42.43287" lon="1.87854">
        <ele>1246.8</ele>
        <time>2022-09-06T14:35:41Z</time>
      </trkpt>
      <trkpt lat="42.4328" lon="1.87856">
        <ele>1245.8</ele>
        <time>2022-09-06T14:35:42Z</time>
      </trkpt>
      <trkpt lat="42.43273" lon="1.87856">
        <ele>1241.8</ele>
        <time>2022-09-06T14:35:43Z</time>
      </trkpt>
      <trkpt lat="42.43265" lon="1.87855">
        <ele>1241.8</ele>
        <time>2022-09-06T14:35:44Z</time>
      </trkpt>
      <trkpt lat="42.43257" lon="1.87856">
        <ele>1241.8</ele>
        <time>2022-09-06T14:35:45Z</time>
      </trkpt>
      <trkpt lat="42.4325" lon="1.87859">
        <ele>1240.8</ele>
        <time>2022-09-06T14:35:46Z</time>
      </trkpt>
      <trkpt lat="42.43243" lon="1.87861">
        <ele>1239.8</ele>
        <time>2022-09-06T14:35:47Z</time>
      </trkpt>
      <trkpt lat="42.43237" lon="1.87862">
        <ele>1239.8</ele>
        <time>2022-09-06T14:35:48Z</time>
      </trkpt>
      <trkpt lat="42.43232" lon="1.87862">
        <ele>1239.8</ele>
        <time>2022-09-06T14:35:49Z</time>
      </trkpt>
      <trkpt lat="42.43228" lon="1.87862">
        <ele>1239.8</ele>
        <time>2022-09-06T14:35:50Z</time>
      </trkpt>
      <trkpt lat="42.43224" lon="1.87863">
        <ele>1240.8</ele>
        <time>2022-09-06T14:35:51Z</time>
      </trkpt>
      <trkpt lat="42.43221" lon="1.87864">
        <ele>1240.2</ele>
        <time>2022-09-06T14:35:52Z</time>
      </trkpt>
      <trkpt lat="42.43218" lon="1.87866">
        <ele>1240.2</ele>
        <time>2022-09-06T14:35:53Z</time>
      </trkpt>
      <trkpt lat="42.43212" lon="1.87868">
        <ele>1240.2</ele>
        <time>2022-09-06T14:35:54Z</time>
      </trkpt>
      <trkpt lat="42.43206" lon="1.8787">
        <ele>1240.2</ele>
        <time>2022-09-06T14:35:55Z</time>
      </trkpt>
      <trkpt lat="42.43199" lon="1.87872">
        <ele>1240.2</ele>
        <time>2022-09-06T14:35:56Z</time>
      </trkpt>
      <trkpt lat="42.43192" lon="1.87875">
        <ele>1240.2</ele>
        <time>2022-09-06T14:35:57Z</time>
      </trkpt>
      <trkpt lat="42.43186" lon="1.87878">
        <ele>1240.2</ele>
        <time>2022-09-06T14:35:58Z</time>
      </trkpt>
      <trkpt lat="42.43179" lon="1.87882">
        <ele>1239.2</ele>
        <time>2022-09-06T14:35:59Z</time>
      </trkpt>
      <trkpt lat="42.43174" lon="1.87887">
        <ele>1234.2</ele>
        <time>2022-09-06T14:36:00Z</time>
      </trkpt>
      <trkpt lat="42.43169" lon="1.87893">
        <ele>1234.2</ele>
        <time>2022-09-06T14:36:01Z</time>
      </trkpt>
      <trkpt lat="42.43164" lon="1.87899">
        <ele>1234.2</ele>
        <time>2022-09-06T14:36:02Z</time>
      </trkpt>
      <trkpt lat="42.43159" lon="1.87904">
        <ele>1234.2</ele>
        <time>2022-09-06T14:36:03Z</time>
      </trkpt>
      <trkpt lat="42.43154" lon="1.8791">
        <ele>1232.6</ele>
        <time>2022-09-06T14:36:04Z</time>
      </trkpt>
      <trkpt lat="42.43149" lon="1.87915">
        <ele>1232.6</ele>
        <time>2022-09-06T14:36:05Z</time>
      </trkpt>
      <trkpt lat="42.43143" lon="1.87921">
        <ele>1232.6</ele>
        <time>2022-09-06T14:36:06Z</time>
      </trkpt>
      <trkpt lat="42.43138" lon="1.87926">
        <ele>1232.6</ele>
        <time>2022-09-06T14:36:07Z</time>
      </trkpt>
      <trkpt lat="42.43133" lon="1.87932">
        <ele>1232.6</ele>
        <time>2022-09-06T14:36:08Z</time>
      </trkpt>
      <trkpt lat="42.43128" lon="1.87938">
        <ele>1231</ele>
        <time>2022-09-06T14:36:09Z</time>
      </trkpt>
      <trkpt lat="42.43123" lon="1.87946">
        <ele>1231</ele>
        <time>2022-09-06T14:36:10Z</time>
      </trkpt>
      <trkpt lat="42.43119" lon="1.87952">
        <ele>1231</ele>
        <time>2022-09-06T14:36:11Z</time>
      </trkpt>
      <trkpt lat="42.43113" lon="1.87958">
        <ele>1232</ele>
        <time>2022-09-06T14:36:12Z</time>
      </trkpt>
      <trkpt lat="42.43107" lon="1.87962">
        <ele>1231.8</ele>
        <time>2022-09-06T14:36:13Z</time>
      </trkpt>
      <trkpt lat="42.43101" lon="1.87966">
        <ele>1231.8</ele>
        <time>2022-09-06T14:36:14Z</time>
      </trkpt>
      <trkpt lat="42.43095" lon="1.87969">
        <ele>1231.8</ele>
        <time>2022-09-06T14:36:15Z</time>
      </trkpt>
      <trkpt lat="42.43088" lon="1.8797">
        <ele>1231.8</ele>
        <time>2022-09-06T14:36:16Z</time>
      </trkpt>
      <trkpt lat="42.43082" lon="1.87971">
        <ele>1230.8</ele>
        <time>2022-09-06T14:36:17Z</time>
      </trkpt>
      <trkpt lat="42.43076" lon="1.87971">
        <ele>1230.8</ele>
        <time>2022-09-06T14:36:18Z</time>
      </trkpt>
      <trkpt lat="42.43071" lon="1.8797">
        <ele>1230.8</ele>
        <time>2022-09-06T14:36:19Z</time>
      </trkpt>
      <trkpt lat="42.43067" lon="1.87969">
        <ele>1231.8</ele>
        <time>2022-09-06T14:36:20Z</time>
      </trkpt>
      <trkpt lat="42.43065" lon="1.87969">
        <ele>1232.4</ele>
        <time>2022-09-06T14:36:21Z</time>
      </trkpt>
      <trkpt lat="42.43062" lon="1.8797">
        <ele>1232.4</ele>
        <time>2022-09-06T14:36:22Z</time>
      </trkpt>
      <trkpt lat="42.43058" lon="1.87973">
        <ele>1232.4</ele>
        <time>2022-09-06T14:36:23Z</time>
      </trkpt>
      <trkpt lat="42.43053" lon="1.87978">
        <ele>1232.4</ele>
        <time>2022-09-06T14:36:24Z</time>
      </trkpt>
      <trkpt lat="42.43048" lon="1.87981">
        <ele>1232.4</ele>
        <time>2022-09-06T14:36:25Z</time>
      </trkpt>
      <trkpt lat="42.43044" lon="1.87983">
        <ele>1232.2</ele>
        <time>2022-09-06T14:36:26Z</time>
      </trkpt>
      <trkpt lat="42.43042" lon="1.87984">
        <ele>1232.2</ele>
        <time>2022-09-06T14:36:27Z</time>
      </trkpt>
      <trkpt lat="42.4304" lon="1.87984">
        <ele>1232.2</ele>
        <time>2022-09-06T14:36:28Z</time>
      </trkpt>
      <trkpt lat="42.4304" lon="1.87983">
        <ele>1232.2</ele>
        <time>2022-09-06T14:36:29Z</time>
      </trkpt>
      <trkpt lat="42.4304" lon="1.87983">
        <ele>1231.4</ele>
        <time>2022-09-06T14:36:30Z</time>
      </trkpt>
      <trkpt lat="42.4304" lon="1.87983">
        <ele>1231.4</ele>
        <time>2022-09-06T14:36:31Z</time>
      </trkpt>
      <trkpt lat="42.43039" lon="1.87981">
        <ele>1232.6</ele>
        <time>2022-09-06T14:36:32Z</time>
      </trkpt>
      <trkpt lat="42.43038" lon="1.87981">
        <ele>1232.6</ele>
        <time>2022-09-06T14:37:33Z</time>
      </trkpt>
      <trkpt lat="42.43037" lon="1.87982">
        <ele>1232.8</ele>
        <time>2022-09-06T14:37:34Z</time>
      </trkpt>
      <trkpt lat="42.43022" lon="1.87987">
        <ele>1231.8</ele>
        <time>2022-09-06T14:37:35Z</time>
      </trkpt>
      <trkpt lat="42.43016" lon="1.8799">
        <ele>1231.8</ele>
        <time>2022-09-06T14:37:39Z</time>
      </trkpt>
      <trkpt lat="42.43011" lon="1.87994">
        <ele>1231.8</ele>
        <time>2022-09-06T14:37:40Z</time>
      </trkpt>
      <trkpt lat="42.43006" lon="1.87999">
        <ele>1231</ele>
        <time>2022-09-06T14:37:41Z</time>
      </trkpt>
      <trkpt lat="42.43001" lon="1.88004">
        <ele>1229.2</ele>
        <time>2022-09-06T14:37:42Z</time>
      </trkpt>
      <trkpt lat="42.42996" lon="1.8801">
        <ele>1229.2</ele>
        <time>2022-09-06T14:37:43Z</time>
      </trkpt>
      <trkpt lat="42.42991" lon="1.88016">
        <ele>1229.2</ele>
        <time>2022-09-06T14:37:44Z</time>
      </trkpt>
      <trkpt lat="42.42986" lon="1.88022">
        <ele>1229.2</ele>
        <time>2022-09-06T14:37:45Z</time>
      </trkpt>
      <trkpt lat="42.42982" lon="1.88028">
        <ele>1230.2</ele>
        <time>2022-09-06T14:37:46Z</time>
      </trkpt>
      <trkpt lat="42.42978" lon="1.88034">
        <ele>1230.2</ele>
        <time>2022-09-06T14:37:47Z</time>
      </trkpt>
      <trkpt lat="42.42974" lon="1.8804">
        <ele>1230.2</ele>
        <time>2022-09-06T14:37:48Z</time>
      </trkpt>
      <trkpt lat="42.4297" lon="1.88045">
        <ele>1230.2</ele>
        <time>2022-09-06T14:37:49Z</time>
      </trkpt>
      <trkpt lat="42.42966" lon="1.88051">
        <ele>1231.2</ele>
        <time>2022-09-06T14:37:50Z</time>
      </trkpt>
      <trkpt lat="42.42961" lon="1.88058">
        <ele>1231.2</ele>
        <time>2022-09-06T14:37:51Z</time>
      </trkpt>
      <trkpt lat="42.42957" lon="1.88064">
        <ele>1231.2</ele>
        <time>2022-09-06T14:37:52Z</time>
      </trkpt>
      <trkpt lat="42.42952" lon="1.8807">
        <ele>1231.2</ele>
        <time>2022-09-06T14:37:53Z</time>
      </trkpt>
      <trkpt lat="42.42948" lon="1.88076">
        <ele>1231.2</ele>
        <time>2022-09-06T14:37:54Z</time>
      </trkpt>
      <trkpt lat="42.42943" lon="1.88081">
        <ele>1229.6</ele>
        <time>2022-09-06T14:37:55Z</time>
      </trkpt>
      <trkpt lat="42.42939" lon="1.88087">
        <ele>1229.6</ele>
        <time>2022-09-06T14:37:56Z</time>
      </trkpt>
      <trkpt lat="42.42934" lon="1.88092">
        <ele>1229.6</ele>
        <time>2022-09-06T14:37:57Z</time>
      </trkpt>
      <trkpt lat="42.42929" lon="1.88097">
        <ele>1230.6</ele>
        <time>2022-09-06T14:37:58Z</time>
      </trkpt>
      <trkpt lat="42.42924" lon="1.88101">
        <ele>1231.8</ele>
        <time>2022-09-06T14:37:59Z</time>
      </trkpt>
      <trkpt lat="42.42919" lon="1.88105">
        <ele>1231.8</ele>
        <time>2022-09-06T14:38:00Z</time>
      </trkpt>
      <trkpt lat="42.42914" lon="1.88109">
        <ele>1231.8</ele>
        <time>2022-09-06T14:38:01Z</time>
      </trkpt>
      <trkpt lat="42.4291" lon="1.88114">
        <ele>1231.8</ele>
        <time>2022-09-06T14:38:02Z</time>
      </trkpt>
      <trkpt lat="42.42906" lon="1.88119">
        <ele>1231.8</ele>
        <time>2022-09-06T14:38:03Z</time>
      </trkpt>
      <trkpt lat="42.42901" lon="1.88124">
        <ele>1231.8</ele>
        <time>2022-09-06T14:38:04Z</time>
      </trkpt>
      <trkpt lat="42.42897" lon="1.88129">
        <ele>1231.8</ele>
        <time>2022-09-06T14:38:05Z</time>
      </trkpt>
      <trkpt lat="42.42892" lon="1.88134">
        <ele>1231.8</ele>
        <time>2022-09-06T14:38:06Z</time>
      </trkpt>
      <trkpt lat="42.42889" lon="1.88138">
        <ele>1231.8</ele>
        <time>2022-09-06T14:38:07Z</time>
      </trkpt>
      <trkpt lat="42.42885" lon="1.88142">
        <ele>1231.2</ele>
        <time>2022-09-06T14:38:08Z</time>
      </trkpt>
      <trkpt lat="42.42883" lon="1.88145">
        <ele>1231.2</ele>
        <time>2022-09-06T14:38:09Z</time>
      </trkpt>
      <trkpt lat="42.42881" lon="1.88148">
        <ele>1231.2</ele>
        <time>2022-09-06T14:38:10Z</time>
      </trkpt>
      <trkpt lat="42.4288" lon="1.8815">
        <ele>1231.2</ele>
        <time>2022-09-06T14:38:11Z</time>
      </trkpt>
      <trkpt lat="42.42877" lon="1.88153">
        <ele>1233.8</ele>
        <time>2022-09-06T14:38:12Z</time>
      </trkpt>
      <trkpt lat="42.42873" lon="1.88157">
        <ele>1233.8</ele>
        <time>2022-09-06T14:38:13Z</time>
      </trkpt>
      <trkpt lat="42.4287" lon="1.8816">
        <ele>1233.8</ele>
        <time>2022-09-06T14:38:14Z</time>
      </trkpt>
      <trkpt lat="42.42866" lon="1.88162">
        <ele>1232.8</ele>
        <time>2022-09-06T14:38:15Z</time>
      </trkpt>
      <trkpt lat="42.42861" lon="1.88165">
        <ele>1232</ele>
        <time>2022-09-06T14:38:16Z</time>
      </trkpt>
      <trkpt lat="42.42857" lon="1.88168">
        <ele>1232</ele>
        <time>2022-09-06T14:38:17Z</time>
      </trkpt>
      <trkpt lat="42.42852" lon="1.88171">
        <ele>1232</ele>
        <time>2022-09-06T14:38:18Z</time>
      </trkpt>
      <trkpt lat="42.42848" lon="1.88175">
        <ele>1232</ele>
        <time>2022-09-06T14:38:19Z</time>
      </trkpt>
      <trkpt lat="42.42843" lon="1.88178">
        <ele>1231</ele>
        <time>2022-09-06T14:38:20Z</time>
      </trkpt>
      <trkpt lat="42.42838" lon="1.88182">
        <ele>1228.8</ele>
        <time>2022-09-06T14:38:21Z</time>
      </trkpt>
      <trkpt lat="42.42834" lon="1.88186">
        <ele>1228.8</ele>
        <time>2022-09-06T14:38:22Z</time>
      </trkpt>
      <trkpt lat="42.4283" lon="1.8819">
        <ele>1228.8</ele>
        <time>2022-09-06T14:38:23Z</time>
      </trkpt>
      <trkpt lat="42.42826" lon="1.88196">
        <ele>1228.8</ele>
        <time>2022-09-06T14:38:24Z</time>
      </trkpt>
      <trkpt lat="42.42823" lon="1.88204">
        <ele>1223.4</ele>
        <time>2022-09-06T14:38:25Z</time>
      </trkpt>
      <trkpt lat="42.42819" lon="1.88212">
        <ele>1223.4</ele>
        <time>2022-09-06T14:38:26Z</time>
      </trkpt>
      <trkpt lat="42.42815" lon="1.88222">
        <ele>1223.4</ele>
        <time>2022-09-06T14:38:27Z</time>
      </trkpt>
      <trkpt lat="42.42811" lon="1.88232">
        <ele>1222.4</ele>
        <time>2022-09-06T14:38:28Z</time>
      </trkpt>
      <trkpt lat="42.42806" lon="1.88242">
        <ele>1220.4</ele>
        <time>2022-09-06T14:38:29Z</time>
      </trkpt>
      <trkpt lat="42.42801" lon="1.88252">
        <ele>1220.4</ele>
        <time>2022-09-06T14:38:30Z</time>
      </trkpt>
      <trkpt lat="42.42795" lon="1.88262">
        <ele>1220.4</ele>
        <time>2022-09-06T14:38:31Z</time>
      </trkpt>
      <trkpt lat="42.42789" lon="1.88272">
        <ele>1219.4</ele>
        <time>2022-09-06T14:38:32Z</time>
      </trkpt>
      <trkpt lat="42.42783" lon="1.88281">
        <ele>1218.4</ele>
        <time>2022-09-06T14:38:33Z</time>
      </trkpt>
      <trkpt lat="42.42779" lon="1.8829">
        <ele>1218.4</ele>
        <time>2022-09-06T14:38:34Z</time>
      </trkpt>
      <trkpt lat="42.42776" lon="1.88299">
        <ele>1218.4</ele>
        <time>2022-09-06T14:38:35Z</time>
      </trkpt>
      <trkpt lat="42.42775" lon="1.88309">
        <ele>1218.4</ele>
        <time>2022-09-06T14:38:36Z</time>
      </trkpt>
      <trkpt lat="42.42775" lon="1.88317">
        <ele>1217.4</ele>
        <time>2022-09-06T14:38:37Z</time>
      </trkpt>
      <trkpt lat="42.42773" lon="1.88324">
        <ele>1214.8</ele>
        <time>2022-09-06T14:38:38Z</time>
      </trkpt>
      <trkpt lat="42.42769" lon="1.88332">
        <ele>1214.8</ele>
        <time>2022-09-06T14:38:39Z</time>
      </trkpt>
      <trkpt lat="42.42764" lon="1.88338">
        <ele>1214.8</ele>
        <time>2022-09-06T14:38:40Z</time>
      </trkpt>
      <trkpt lat="42.42757" lon="1.88344">
        <ele>1214.8</ele>
        <time>2022-09-06T14:38:41Z</time>
      </trkpt>
      <trkpt lat="42.42751" lon="1.8835">
        <ele>1211.6</ele>
        <time>2022-09-06T14:38:42Z</time>
      </trkpt>
      <trkpt lat="42.42745" lon="1.88356">
        <ele>1211.6</ele>
        <time>2022-09-06T14:38:43Z</time>
      </trkpt>
      <trkpt lat="42.42739" lon="1.88363">
        <ele>1211.6</ele>
        <time>2022-09-06T14:38:44Z</time>
      </trkpt>
      <trkpt lat="42.42734" lon="1.8837">
        <ele>1210.6</ele>
        <time>2022-09-06T14:38:45Z</time>
      </trkpt>
      <trkpt lat="42.4273" lon="1.88377">
        <ele>1212.4</ele>
        <time>2022-09-06T14:38:46Z</time>
      </trkpt>
      <trkpt lat="42.42726" lon="1.88384">
        <ele>1212.4</ele>
        <time>2022-09-06T14:38:47Z</time>
      </trkpt>
      <trkpt lat="42.42723" lon="1.8839">
        <ele>1212.4</ele>
        <time>2022-09-06T14:38:48Z</time>
      </trkpt>
      <trkpt lat="42.4272" lon="1.88396">
        <ele>1212.4</ele>
        <time>2022-09-06T14:38:49Z</time>
      </trkpt>
      <trkpt lat="42.42715" lon="1.88401">
        <ele>1211.4</ele>
        <time>2022-09-06T14:38:50Z</time>
      </trkpt>
      <trkpt lat="42.4271" lon="1.88406">
        <ele>1209</ele>
        <time>2022-09-06T14:38:51Z</time>
      </trkpt>
      <trkpt lat="42.42705" lon="1.8841">
        <ele>1209</ele>
        <time>2022-09-06T14:38:52Z</time>
      </trkpt>
      <trkpt lat="42.427" lon="1.88413">
        <ele>1209</ele>
        <time>2022-09-06T14:38:53Z</time>
      </trkpt>
      <trkpt lat="42.42694" lon="1.88414">
        <ele>1209</ele>
        <time>2022-09-06T14:38:54Z</time>
      </trkpt>
      <trkpt lat="42.42687" lon="1.88414">
        <ele>1209.4</ele>
        <time>2022-09-06T14:38:55Z</time>
      </trkpt>
      <trkpt lat="42.42681" lon="1.88414">
        <ele>1209.4</ele>
        <time>2022-09-06T14:38:56Z</time>
      </trkpt>
      <trkpt lat="42.42675" lon="1.88415">
        <ele>1209.4</ele>
        <time>2022-09-06T14:38:57Z</time>
      </trkpt>
      <trkpt lat="42.42668" lon="1.88415">
        <ele>1208.4</ele>
        <time>2022-09-06T14:38:58Z</time>
      </trkpt>
      <trkpt lat="42.42661" lon="1.88415">
        <ele>1208.2</ele>
        <time>2022-09-06T14:38:59Z</time>
      </trkpt>
      <trkpt lat="42.42654" lon="1.88414">
        <ele>1208.2</ele>
        <time>2022-09-06T14:39:00Z</time>
      </trkpt>
      <trkpt lat="42.42647" lon="1.88414">
        <ele>1208.2</ele>
        <time>2022-09-06T14:39:01Z</time>
      </trkpt>
      <trkpt lat="42.4264" lon="1.88412">
        <ele>1207.2</ele>
        <time>2022-09-06T14:39:02Z</time>
      </trkpt>
      <trkpt lat="42.42633" lon="1.88411">
        <ele>1207.2</ele>
        <time>2022-09-06T14:39:03Z</time>
      </trkpt>
      <trkpt lat="42.42627" lon="1.88409">
        <ele>1207.2</ele>
        <time>2022-09-06T14:39:04Z</time>
      </trkpt>
      <trkpt lat="42.4262" lon="1.88407">
        <ele>1207.2</ele>
        <time>2022-09-06T14:39:05Z</time>
      </trkpt>
      <trkpt lat="42.42614" lon="1.88405">
        <ele>1207.2</ele>
        <time>2022-09-06T14:39:06Z</time>
      </trkpt>
      <trkpt lat="42.42608" lon="1.88403">
        <ele>1206</ele>
        <time>2022-09-06T14:39:07Z</time>
      </trkpt>
      <trkpt lat="42.42601" lon="1.88401">
        <ele>1206</ele>
        <time>2022-09-06T14:39:08Z</time>
      </trkpt>
      <trkpt lat="42.42595" lon="1.884">
        <ele>1206</ele>
        <time>2022-09-06T14:39:09Z</time>
      </trkpt>
      <trkpt lat="42.42588" lon="1.884">
        <ele>1206</ele>
        <time>2022-09-06T14:39:10Z</time>
      </trkpt>
      <trkpt lat="42.42581" lon="1.884">
        <ele>1204.4</ele>
        <time>2022-09-06T14:39:11Z</time>
      </trkpt>
      <trkpt lat="42.42573" lon="1.88401">
        <ele>1204.4</ele>
        <time>2022-09-06T14:39:12Z</time>
      </trkpt>
      <trkpt lat="42.42565" lon="1.88404">
        <ele>1204.4</ele>
        <time>2022-09-06T14:39:13Z</time>
      </trkpt>
      <trkpt lat="42.42557" lon="1.88404">
        <ele>1204.4</ele>
        <time>2022-09-06T14:39:14Z</time>
      </trkpt>
      <trkpt lat="42.4255" lon="1.88402">
        <ele>1203.4</ele>
        <time>2022-09-06T14:39:15Z</time>
      </trkpt>
      <trkpt lat="42.42543" lon="1.88397">
        <ele>1197.2</ele>
        <time>2022-09-06T14:39:16Z</time>
      </trkpt>
      <trkpt lat="42.42536" lon="1.88393">
        <ele>1197.2</ele>
        <time>2022-09-06T14:39:17Z</time>
      </trkpt>
      <trkpt lat="42.42528" lon="1.88389">
        <ele>1197.2</ele>
        <time>2022-09-06T14:39:18Z</time>
      </trkpt>
      <trkpt lat="42.42521" lon="1.88386">
        <ele>1198.2</ele>
        <time>2022-09-06T14:39:19Z</time>
      </trkpt>
      <trkpt lat="42.42514" lon="1.88381">
        <ele>1202.2</ele>
        <time>2022-09-06T14:39:20Z</time>
      </trkpt>
      <trkpt lat="42.42508" lon="1.88373">
        <ele>1202.2</ele>
        <time>2022-09-06T14:39:21Z</time>
      </trkpt>
      <trkpt lat="42.42503" lon="1.88365">
        <ele>1202.2</ele>
        <time>2022-09-06T14:39:22Z</time>
      </trkpt>
      <trkpt lat="42.42499" lon="1.88357">
        <ele>1201.2</ele>
        <time>2022-09-06T14:39:23Z</time>
      </trkpt>
      <trkpt lat="42.42495" lon="1.88349">
        <ele>1199.4</ele>
        <time>2022-09-06T14:39:24Z</time>
      </trkpt>
      <trkpt lat="42.42493" lon="1.88342">
        <ele>1199.4</ele>
        <time>2022-09-06T14:39:25Z</time>
      </trkpt>
      <trkpt lat="42.42492" lon="1.88334">
        <ele>1199.4</ele>
        <time>2022-09-06T14:39:26Z</time>
      </trkpt>
      <trkpt lat="42.42492" lon="1.88328">
        <ele>1199.4</ele>
        <time>2022-09-06T14:39:27Z</time>
      </trkpt>
      <trkpt lat="42.42491" lon="1.88322">
        <ele>1200.4</ele>
        <time>2022-09-06T14:39:28Z</time>
      </trkpt>
      <trkpt lat="42.4249" lon="1.88316">
        <ele>1201.2</ele>
        <time>2022-09-06T14:39:29Z</time>
      </trkpt>
      <trkpt lat="42.42489" lon="1.88311">
        <ele>1201.2</ele>
        <time>2022-09-06T14:39:30Z</time>
      </trkpt>
      <trkpt lat="42.42487" lon="1.88304">
        <ele>1201.2</ele>
        <time>2022-09-06T14:39:31Z</time>
      </trkpt>
      <trkpt lat="42.42485" lon="1.88297">
        <ele>1201.2</ele>
        <time>2022-09-06T14:39:32Z</time>
      </trkpt>
      <trkpt lat="42.42483" lon="1.8829">
        <ele>1200</ele>
        <time>2022-09-06T14:39:33Z</time>
      </trkpt>
      <trkpt lat="42.42481" lon="1.88283">
        <ele>1200</ele>
        <time>2022-09-06T14:39:34Z</time>
      </trkpt>
      <trkpt lat="42.42479" lon="1.88275">
        <ele>1200</ele>
        <time>2022-09-06T14:39:35Z</time>
      </trkpt>
      <trkpt lat="42.42477" lon="1.88267">
        <ele>1200</ele>
        <time>2022-09-06T14:39:36Z</time>
      </trkpt>
      <trkpt lat="42.42476" lon="1.88259">
        <ele>1197.4</ele>
        <time>2022-09-06T14:39:37Z</time>
      </trkpt>
      <trkpt lat="42.42475" lon="1.8825">
        <ele>1197.4</ele>
        <time>2022-09-06T14:39:38Z</time>
      </trkpt>
      <trkpt lat="42.42475" lon="1.88241">
        <ele>1197.4</ele>
        <time>2022-09-06T14:39:39Z</time>
      </trkpt>
      <trkpt lat="42.42476" lon="1.88232">
        <ele>1198.4</ele>
        <time>2022-09-06T14:39:40Z</time>
      </trkpt>
      <trkpt lat="42.42477" lon="1.88223">
        <ele>1200.6</ele>
        <time>2022-09-06T14:39:41Z</time>
      </trkpt>
      <trkpt lat="42.42477" lon="1.88215">
        <ele>1200.6</ele>
        <time>2022-09-06T14:39:42Z</time>
      </trkpt>
      <trkpt lat="42.42476" lon="1.88206">
        <ele>1200.6</ele>
        <time>2022-09-06T14:39:43Z</time>
      </trkpt>
      <trkpt lat="42.42476" lon="1.88198">
        <ele>1200.6</ele>
        <time>2022-09-06T14:39:44Z</time>
      </trkpt>
      <trkpt lat="42.42475" lon="1.88189">
        <ele>1200.6</ele>
        <time>2022-09-06T14:39:45Z</time>
      </trkpt>
      <trkpt lat="42.42475" lon="1.88181">
        <ele>1200.6</ele>
        <time>2022-09-06T14:39:46Z</time>
      </trkpt>
      <trkpt lat="42.42475" lon="1.88172">
        <ele>1200.6</ele>
        <time>2022-09-06T14:39:47Z</time>
      </trkpt>
      <trkpt lat="42.42475" lon="1.88164">
        <ele>1200.6</ele>
        <time>2022-09-06T14:39:48Z</time>
      </trkpt>
      <trkpt lat="42.42476" lon="1.88155">
        <ele>1200.6</ele>
        <time>2022-09-06T14:39:49Z</time>
      </trkpt>
      <trkpt lat="42.42477" lon="1.88146">
        <ele>1199.2</ele>
        <time>2022-09-06T14:39:50Z</time>
      </trkpt>
      <trkpt lat="42.42478" lon="1.88138">
        <ele>1199.2</ele>
        <time>2022-09-06T14:39:51Z</time>
      </trkpt>
      <trkpt lat="42.42478" lon="1.8813">
        <ele>1199.2</ele>
        <time>2022-09-06T14:39:52Z</time>
      </trkpt>
      <trkpt lat="42.4248" lon="1.88121">
        <ele>1200.2</ele>
        <time>2022-09-06T14:39:53Z</time>
      </trkpt>
      <trkpt lat="42.42482" lon="1.88113">
        <ele>1199.4</ele>
        <time>2022-09-06T14:39:54Z</time>
      </trkpt>
      <trkpt lat="42.42485" lon="1.88105">
        <ele>1199.4</ele>
        <time>2022-09-06T14:39:55Z</time>
      </trkpt>
      <trkpt lat="42.42488" lon="1.88097">
        <ele>1199.4</ele>
        <time>2022-09-06T14:39:56Z</time>
      </trkpt>
      <trkpt lat="42.42492" lon="1.8809">
        <ele>1199.4</ele>
        <time>2022-09-06T14:39:57Z</time>
      </trkpt>
      <trkpt lat="42.42496" lon="1.88083">
        <ele>1200.6</ele>
        <time>2022-09-06T14:39:58Z</time>
      </trkpt>
      <trkpt lat="42.42501" lon="1.88076">
        <ele>1200.6</ele>
        <time>2022-09-06T14:39:59Z</time>
      </trkpt>
      <trkpt lat="42.42505" lon="1.8807">
        <ele>1200.6</ele>
        <time>2022-09-06T14:40:00Z</time>
      </trkpt>
      <trkpt lat="42.42509" lon="1.88064">
        <ele>1200.6</ele>
        <time>2022-09-06T14:40:01Z</time>
      </trkpt>
      <trkpt lat="42.42514" lon="1.88057">
        <ele>1200.2</ele>
        <time>2022-09-06T14:40:02Z</time>
      </trkpt>
      <trkpt lat="42.42518" lon="1.88051">
        <ele>1200.2</ele>
        <time>2022-09-06T14:40:03Z</time>
      </trkpt>
      <trkpt lat="42.42522" lon="1.88045">
        <ele>1200.2</ele>
        <time>2022-09-06T14:40:04Z</time>
      </trkpt>
      <trkpt lat="42.42527" lon="1.88039">
        <ele>1200.2</ele>
        <time>2022-09-06T14:40:05Z</time>
      </trkpt>
      <trkpt lat="42.42532" lon="1.88033">
        <ele>1199.8</ele>
        <time>2022-09-06T14:40:06Z</time>
      </trkpt>
      <trkpt lat="42.42537" lon="1.88027">
        <ele>1199.8</ele>
        <time>2022-09-06T14:40:07Z</time>
      </trkpt>
      <trkpt lat="42.42542" lon="1.88022">
        <ele>1199.8</ele>
        <time>2022-09-06T14:40:08Z</time>
      </trkpt>
      <trkpt lat="42.42547" lon="1.88017">
        <ele>1200.8</ele>
        <time>2022-09-06T14:40:09Z</time>
      </trkpt>
      <trkpt lat="42.42552" lon="1.88011">
        <ele>1201</ele>
        <time>2022-09-06T14:40:10Z</time>
      </trkpt>
      <trkpt lat="42.42556" lon="1.88005">
        <ele>1201</ele>
        <time>2022-09-06T14:40:11Z</time>
      </trkpt>
      <trkpt lat="42.42561" lon="1.87999">
        <ele>1201</ele>
        <time>2022-09-06T14:40:12Z</time>
      </trkpt>
      <trkpt lat="42.42566" lon="1.87993">
        <ele>1201</ele>
        <time>2022-09-06T14:40:13Z</time>
      </trkpt>
      <trkpt lat="42.4257" lon="1.87987">
        <ele>1201</ele>
        <time>2022-09-06T14:40:14Z</time>
      </trkpt>
      <trkpt lat="42.42575" lon="1.8798">
        <ele>1197.2</ele>
        <time>2022-09-06T14:40:15Z</time>
      </trkpt>
      <trkpt lat="42.4258" lon="1.87974">
        <ele>1197.2</ele>
        <time>2022-09-06T14:40:16Z</time>
      </trkpt>
      <trkpt lat="42.42585" lon="1.87969">
        <ele>1197.2</ele>
        <time>2022-09-06T14:40:17Z</time>
      </trkpt>
      <trkpt lat="42.4259" lon="1.87964">
        <ele>1198.2</ele>
        <time>2022-09-06T14:40:18Z</time>
      </trkpt>
      <trkpt lat="42.42595" lon="1.87959">
        <ele>1199.2</ele>
        <time>2022-09-06T14:40:19Z</time>
      </trkpt>
      <trkpt lat="42.426" lon="1.87954">
        <ele>1199.2</ele>
        <time>2022-09-06T14:40:20Z</time>
      </trkpt>
      <trkpt lat="42.42604" lon="1.87948">
        <ele>1199.2</ele>
        <time>2022-09-06T14:40:21Z</time>
      </trkpt>
      <trkpt lat="42.42607" lon="1.87941">
        <ele>1199.2</ele>
        <time>2022-09-06T14:40:22Z</time>
      </trkpt>
      <trkpt lat="42.42611" lon="1.87936">
        <ele>1200</ele>
        <time>2022-09-06T14:40:23Z</time>
      </trkpt>
      <trkpt lat="42.42617" lon="1.87932">
        <ele>1200</ele>
        <time>2022-09-06T14:40:24Z</time>
      </trkpt>
      <trkpt lat="42.42622" lon="1.87929">
        <ele>1200</ele>
        <time>2022-09-06T14:40:25Z</time>
      </trkpt>
      <trkpt lat="42.42628" lon="1.87926">
        <ele>1200</ele>
        <time>2022-09-06T14:40:26Z</time>
      </trkpt>
      <trkpt lat="42.42633" lon="1.87923">
        <ele>1200</ele>
        <time>2022-09-06T14:40:27Z</time>
      </trkpt>
      <trkpt lat="42.42639" lon="1.87922">
        <ele>1199.8</ele>
        <time>2022-09-06T14:40:28Z</time>
      </trkpt>
      <trkpt lat="42.42645" lon="1.8792">
        <ele>1199.8</ele>
        <time>2022-09-06T14:40:29Z</time>
      </trkpt>
      <trkpt lat="42.42651" lon="1.87918">
        <ele>1199.8</ele>
        <time>2022-09-06T14:40:30Z</time>
      </trkpt>
      <trkpt lat="42.42657" lon="1.87915">
        <ele>1200.8</ele>
        <time>2022-09-06T14:40:31Z</time>
      </trkpt>
      <trkpt lat="42.42662" lon="1.87911">
        <ele>1200.2</ele>
        <time>2022-09-06T14:40:32Z</time>
      </trkpt>
      <trkpt lat="42.42667" lon="1.87908">
        <ele>1200.2</ele>
        <time>2022-09-06T14:40:33Z</time>
      </trkpt>
      <trkpt lat="42.42673" lon="1.87904">
        <ele>1200.2</ele>
        <time>2022-09-06T14:40:34Z</time>
      </trkpt>
      <trkpt lat="42.42678" lon="1.87901">
        <ele>1200.2</ele>
        <time>2022-09-06T14:40:35Z</time>
      </trkpt>
      <trkpt lat="42.42684" lon="1.87898">
        <ele>1202.4</ele>
        <time>2022-09-06T14:40:36Z</time>
      </trkpt>
      <trkpt lat="42.42689" lon="1.87895">
        <ele>1202.4</ele>
        <time>2022-09-06T14:40:37Z</time>
      </trkpt>
      <trkpt lat="42.42695" lon="1.87893">
        <ele>1202.4</ele>
        <time>2022-09-06T14:40:38Z</time>
      </trkpt>
      <trkpt lat="42.42701" lon="1.87889">
        <ele>1201.4</ele>
        <time>2022-09-06T14:40:39Z</time>
      </trkpt>
      <trkpt lat="42.42707" lon="1.87886">
        <ele>1200.2</ele>
        <time>2022-09-06T14:40:40Z</time>
      </trkpt>
      <trkpt lat="42.42713" lon="1.87882">
        <ele>1200.2</ele>
        <time>2022-09-06T14:40:41Z</time>
      </trkpt>
      <trkpt lat="42.42718" lon="1.87877">
        <ele>1200.2</ele>
        <time>2022-09-06T14:40:42Z</time>
      </trkpt>
      <trkpt lat="42.42723" lon="1.87873">
        <ele>1200.2</ele>
        <time>2022-09-06T14:40:43Z</time>
      </trkpt>
      <trkpt lat="42.42728" lon="1.87869">
        <ele>1200.2</ele>
        <time>2022-09-06T14:40:44Z</time>
      </trkpt>
      <trkpt lat="42.42733" lon="1.87864">
        <ele>1200</ele>
        <time>2022-09-06T14:40:45Z</time>
      </trkpt>
      <trkpt lat="42.42738" lon="1.87858">
        <ele>1200</ele>
        <time>2022-09-06T14:40:46Z</time>
      </trkpt>
      <trkpt lat="42.42743" lon="1.87852">
        <ele>1200</ele>
        <time>2022-09-06T14:40:47Z</time>
      </trkpt>
      <trkpt lat="42.42748" lon="1.87846">
        <ele>1200</ele>
        <time>2022-09-06T14:40:48Z</time>
      </trkpt>
      <trkpt lat="42.42752" lon="1.87839">
        <ele>1200.8</ele>
        <time>2022-09-06T14:40:49Z</time>
      </trkpt>
      <trkpt lat="42.42757" lon="1.87832">
        <ele>1200.8</ele>
        <time>2022-09-06T14:40:50Z</time>
      </trkpt>
      <trkpt lat="42.42761" lon="1.87826">
        <ele>1200.8</ele>
        <time>2022-09-06T14:40:51Z</time>
      </trkpt>
      <trkpt lat="42.42766" lon="1.87821">
        <ele>1200.2</ele>
        <time>2022-09-06T14:40:52Z</time>
      </trkpt>
      <trkpt lat="42.42771" lon="1.87816">
        <ele>1200.6</ele>
        <time>2022-09-06T14:40:53Z</time>
      </trkpt>
      <trkpt lat="42.42776" lon="1.87811">
        <ele>1200.6</ele>
        <time>2022-09-06T14:40:54Z</time>
      </trkpt>
      <trkpt lat="42.42781" lon="1.87806">
        <ele>1200.6</ele>
        <time>2022-09-06T14:40:55Z</time>
      </trkpt>
      <trkpt lat="42.42786" lon="1.87801">
        <ele>1200.6</ele>
        <time>2022-09-06T14:40:56Z</time>
      </trkpt>
      <trkpt lat="42.4279" lon="1.87796">
        <ele>1201</ele>
        <time>2022-09-06T14:40:57Z</time>
      </trkpt>
      <trkpt lat="42.42794" lon="1.87789">
        <ele>1201</ele>
        <time>2022-09-06T14:40:58Z</time>
      </trkpt>
      <trkpt lat="42.42798" lon="1.87782">
        <ele>1201</ele>
        <time>2022-09-06T14:40:59Z</time>
      </trkpt>
      <trkpt lat="42.42801" lon="1.87775">
        <ele>1200</ele>
        <time>2022-09-06T14:41:00Z</time>
      </trkpt>
      <trkpt lat="42.42804" lon="1.87767">
        <ele>1200</ele>
        <time>2022-09-06T14:41:01Z</time>
      </trkpt>
      <trkpt lat="42.42807" lon="1.87759">
        <ele>1199.8</ele>
        <time>2022-09-06T14:41:02Z</time>
      </trkpt>
      <trkpt lat="42.4281" lon="1.87751">
        <ele>1199.8</ele>
        <time>2022-09-06T14:41:03Z</time>
      </trkpt>
      <trkpt lat="42.42813" lon="1.87744">
        <ele>1199.8</ele>
        <time>2022-09-06T14:41:04Z</time>
      </trkpt>
      <trkpt lat="42.42816" lon="1.87737">
        <ele>1199.8</ele>
        <time>2022-09-06T14:41:05Z</time>
      </trkpt>
      <trkpt lat="42.42819" lon="1.87729">
        <ele>1199.4</ele>
        <time>2022-09-06T14:41:06Z</time>
      </trkpt>
      <trkpt lat="42.42822" lon="1.87721">
        <ele>1199.4</ele>
        <time>2022-09-06T14:41:07Z</time>
      </trkpt>
      <trkpt lat="42.42826" lon="1.87714">
        <ele>1199.4</ele>
        <time>2022-09-06T14:41:08Z</time>
      </trkpt>
      <trkpt lat="42.42829" lon="1.87707">
        <ele>1199.4</ele>
        <time>2022-09-06T14:41:09Z</time>
      </trkpt>
      <trkpt lat="42.42833" lon="1.877">
        <ele>1200</ele>
        <time>2022-09-06T14:41:10Z</time>
      </trkpt>
      <trkpt lat="42.42836" lon="1.87693">
        <ele>1200</ele>
        <time>2022-09-06T14:41:11Z</time>
      </trkpt>
      <trkpt lat="42.4284" lon="1.87686">
        <ele>1200</ele>
        <time>2022-09-06T14:41:12Z</time>
      </trkpt>
      <trkpt lat="42.42843" lon="1.8768">
        <ele>1199.8</ele>
        <time>2022-09-06T14:41:13Z</time>
      </trkpt>
      <trkpt lat="42.42847" lon="1.87674">
        <ele>1198.2</ele>
        <time>2022-09-06T14:41:14Z</time>
      </trkpt>
      <trkpt lat="42.4285" lon="1.87668">
        <ele>1198.2</ele>
        <time>2022-09-06T14:41:15Z</time>
      </trkpt>
      <trkpt lat="42.42854" lon="1.87662">
        <ele>1198.2</ele>
        <time>2022-09-06T14:41:16Z</time>
      </trkpt>
      <trkpt lat="42.42857" lon="1.87656">
        <ele>1199.2</ele>
        <time>2022-09-06T14:41:17Z</time>
      </trkpt>
      <trkpt lat="42.42859" lon="1.87651">
        <ele>1202.6</ele>
        <time>2022-09-06T14:41:18Z</time>
      </trkpt>
      <trkpt lat="42.42861" lon="1.87646">
        <ele>1202.6</ele>
        <time>2022-09-06T14:41:19Z</time>
      </trkpt>
      <trkpt lat="42.42862" lon="1.87641">
        <ele>1202.6</ele>
        <time>2022-09-06T14:41:20Z</time>
      </trkpt>
      <trkpt lat="42.42864" lon="1.87638">
        <ele>1202.6</ele>
        <time>2022-09-06T14:41:21Z</time>
      </trkpt>
      <trkpt lat="42.42865" lon="1.87634">
        <ele>1201.6</ele>
        <time>2022-09-06T14:41:22Z</time>
      </trkpt>
      <trkpt lat="42.42866" lon="1.8763">
        <ele>1199.2</ele>
        <time>2022-09-06T14:41:23Z</time>
      </trkpt>
      <trkpt lat="42.42866" lon="1.87626">
        <ele>1199.2</ele>
        <time>2022-09-06T14:41:24Z</time>
      </trkpt>
      <trkpt lat="42.42867" lon="1.87622">
        <ele>1199.2</ele>
        <time>2022-09-06T14:41:25Z</time>
      </trkpt>
      <trkpt lat="42.42869" lon="1.87618">
        <ele>1198.2</ele>
        <time>2022-09-06T14:41:26Z</time>
      </trkpt>
      <trkpt lat="42.42869" lon="1.87615">
        <ele>1198.2</ele>
        <time>2022-09-06T14:41:27Z</time>
      </trkpt>
      <trkpt lat="42.42868" lon="1.87614">
        <ele>1198.2</ele>
        <time>2022-09-06T14:41:28Z</time>
      </trkpt>
      <trkpt lat="42.42866" lon="1.87614">
        <ele>1198.2</ele>
        <time>2022-09-06T14:41:29Z</time>
      </trkpt>
      <trkpt lat="42.42864" lon="1.87615">
        <ele>1198.2</ele>
        <time>2022-09-06T14:41:30Z</time>
      </trkpt>
      <trkpt lat="42.4286" lon="1.87618">
        <ele>1198.2</ele>
        <time>2022-09-06T14:41:31Z</time>
      </trkpt>
      <trkpt lat="42.42857" lon="1.8762">
        <ele>1198.2</ele>
        <time>2022-09-06T14:41:32Z</time>
      </trkpt>
      <trkpt lat="42.42853" lon="1.87622">
        <ele>1198.2</ele>
        <time>2022-09-06T14:41:33Z</time>
      </trkpt>
      <trkpt lat="42.42851" lon="1.87623">
        <ele>1198.2</ele>
        <time>2022-09-06T14:41:34Z</time>
      </trkpt>
      <trkpt lat="42.42849" lon="1.87624">
        <ele>1198.2</ele>
        <time>2022-09-06T14:41:35Z</time>
      </trkpt>
      <trkpt lat="42.42846" lon="1.87625">
        <ele>1198.2</ele>
        <time>2022-09-06T14:41:36Z</time>
      </trkpt>
      <trkpt lat="42.42842" lon="1.87626">
        <ele>1198.2</ele>
        <time>2022-09-06T14:41:37Z</time>
      </trkpt>
      <trkpt lat="42.42838" lon="1.87629">
        <ele>1198.2</ele>
        <time>2022-09-06T14:41:38Z</time>
      </trkpt>
      <trkpt lat="42.42833" lon="1.87632">
        <ele>1198.8</ele>
        <time>2022-09-06T14:41:39Z</time>
      </trkpt>
      <trkpt lat="42.42828" lon="1.87637">
        <ele>1199.8</ele>
        <time>2022-09-06T14:41:40Z</time>
      </trkpt>
      <trkpt lat="42.42823" lon="1.87641">
        <ele>1199.8</ele>
        <time>2022-09-06T14:41:41Z</time>
      </trkpt>
      <trkpt lat="42.42817" lon="1.87647">
        <ele>1199.8</ele>
        <time>2022-09-06T14:41:42Z</time>
      </trkpt>
      <trkpt lat="42.42813" lon="1.87651">
        <ele>1198.8</ele>
        <time>2022-09-06T14:41:43Z</time>
      </trkpt>
      <trkpt lat="42.42809" lon="1.87655">
        <ele>1199.6</ele>
        <time>2022-09-06T14:41:44Z</time>
      </trkpt>
      <trkpt lat="42.42805" lon="1.87659">
        <ele>1199.6</ele>
        <time>2022-09-06T14:41:45Z</time>
      </trkpt>
      <trkpt lat="42.42801" lon="1.87663">
        <ele>1199.6</ele>
        <time>2022-09-06T14:41:46Z</time>
      </trkpt>
      <trkpt lat="42.42796" lon="1.87667">
        <ele>1198.6</ele>
        <time>2022-09-06T14:41:47Z</time>
      </trkpt>
      <trkpt lat="42.42793" lon="1.87672">
        <ele>1198</ele>
        <time>2022-09-06T14:41:48Z</time>
      </trkpt>
      <trkpt lat="42.42789" lon="1.87677">
        <ele>1198</ele>
        <time>2022-09-06T14:41:49Z</time>
      </trkpt>
      <trkpt lat="42.42787" lon="1.87683">
        <ele>1198</ele>
        <time>2022-09-06T14:41:50Z</time>
      </trkpt>
      <trkpt lat="42.42784" lon="1.87689">
        <ele>1198</ele>
        <time>2022-09-06T14:41:51Z</time>
      </trkpt>
      <trkpt lat="42.42782" lon="1.87695">
        <ele>1197</ele>
        <time>2022-09-06T14:41:52Z</time>
      </trkpt>
      <trkpt lat="42.42779" lon="1.87702">
        <ele>1197</ele>
        <time>2022-09-06T14:41:53Z</time>
      </trkpt>
      <trkpt lat="42.42776" lon="1.87709">
        <ele>1197</ele>
        <time>2022-09-06T14:41:54Z</time>
      </trkpt>
      <trkpt lat="42.42773" lon="1.87716">
        <ele>1197.8</ele>
        <time>2022-09-06T14:41:55Z</time>
      </trkpt>
      <trkpt lat="42.4277" lon="1.87722">
        <ele>1197.8</ele>
        <time>2022-09-06T14:41:56Z</time>
      </trkpt>
      <trkpt lat="42.42766" lon="1.87728">
        <ele>1197.8</ele>
        <time>2022-09-06T14:41:57Z</time>
      </trkpt>
      <trkpt lat="42.42761" lon="1.87733">
        <ele>1197.8</ele>
        <time>2022-09-06T14:41:58Z</time>
      </trkpt>
      <trkpt lat="42.42756" lon="1.87738">
        <ele>1197.8</ele>
        <time>2022-09-06T14:41:59Z</time>
      </trkpt>
      <trkpt lat="42.4275" lon="1.87741">
        <ele>1197.8</ele>
        <time>2022-09-06T14:42:00Z</time>
      </trkpt>
      <trkpt lat="42.42746" lon="1.87744">
        <ele>1198</ele>
        <time>2022-09-06T14:42:01Z</time>
      </trkpt>
      <trkpt lat="42.42742" lon="1.87749">
        <ele>1198</ele>
        <time>2022-09-06T14:42:02Z</time>
      </trkpt>
      <trkpt lat="42.42739" lon="1.87754">
        <ele>1198</ele>
        <time>2022-09-06T14:42:03Z</time>
      </trkpt>
      <trkpt lat="42.42735" lon="1.87759">
        <ele>1198</ele>
        <time>2022-09-06T14:42:04Z</time>
      </trkpt>
      <trkpt lat="42.4273" lon="1.87765">
        <ele>1199.2</ele>
        <time>2022-09-06T14:42:05Z</time>
      </trkpt>
      <trkpt lat="42.42725" lon="1.8777">
        <ele>1199.2</ele>
        <time>2022-09-06T14:42:06Z</time>
      </trkpt>
      <trkpt lat="42.42719" lon="1.87774">
        <ele>1199.2</ele>
        <time>2022-09-06T14:42:07Z</time>
      </trkpt>
      <trkpt lat="42.42714" lon="1.87778">
        <ele>1198.2</ele>
        <time>2022-09-06T14:42:08Z</time>
      </trkpt>
      <trkpt lat="42.42708" lon="1.87781">
        <ele>1199.2</ele>
        <time>2022-09-06T14:42:09Z</time>
      </trkpt>
      <trkpt lat="42.42702" lon="1.87785">
        <ele>1199.2</ele>
        <time>2022-09-06T14:42:10Z</time>
      </trkpt>
      <trkpt lat="42.42696" lon="1.87788">
        <ele>1199.2</ele>
        <time>2022-09-06T14:42:11Z</time>
      </trkpt>
      <trkpt lat="42.42689" lon="1.8779">
        <ele>1198.2</ele>
        <time>2022-09-06T14:42:12Z</time>
      </trkpt>
      <trkpt lat="42.42683" lon="1.87791">
        <ele>1197.4</ele>
        <time>2022-09-06T14:42:13Z</time>
      </trkpt>
      <trkpt lat="42.42676" lon="1.87791">
        <ele>1197.4</ele>
        <time>2022-09-06T14:42:14Z</time>
      </trkpt>
      <trkpt lat="42.42669" lon="1.87792">
        <ele>1197.4</ele>
        <time>2022-09-06T14:42:15Z</time>
      </trkpt>
      <trkpt lat="42.42662" lon="1.87792">
        <ele>1197.4</ele>
        <time>2022-09-06T14:42:16Z</time>
      </trkpt>
      <trkpt lat="42.42656" lon="1.87793">
        <ele>1197.4</ele>
        <time>2022-09-06T14:42:17Z</time>
      </trkpt>
      <trkpt lat="42.42649" lon="1.87793">
        <ele>1197</ele>
        <time>2022-09-06T14:42:18Z</time>
      </trkpt>
      <trkpt lat="42.42642" lon="1.87794">
        <ele>1197</ele>
        <time>2022-09-06T14:42:19Z</time>
      </trkpt>
      <trkpt lat="42.42636" lon="1.87795">
        <ele>1197</ele>
        <time>2022-09-06T14:42:20Z</time>
      </trkpt>
      <trkpt lat="42.42629" lon="1.87796">
        <ele>1197</ele>
        <time>2022-09-06T14:42:21Z</time>
      </trkpt>
      <trkpt lat="42.42623" lon="1.87796">
        <ele>1198</ele>
        <time>2022-09-06T14:42:22Z</time>
      </trkpt>
      <trkpt lat="42.42616" lon="1.87797">
        <ele>1198</ele>
        <time>2022-09-06T14:42:23Z</time>
      </trkpt>
      <trkpt lat="42.4261" lon="1.87798">
        <ele>1198</ele>
        <time>2022-09-06T14:42:24Z</time>
      </trkpt>
      <trkpt lat="42.42604" lon="1.87799">
        <ele>1197</ele>
        <time>2022-09-06T14:42:25Z</time>
      </trkpt>
      <trkpt lat="42.42597" lon="1.878">
        <ele>1196.8</ele>
        <time>2022-09-06T14:42:26Z</time>
      </trkpt>
      <trkpt lat="42.4259" lon="1.87801">
        <ele>1196.8</ele>
        <time>2022-09-06T14:42:27Z</time>
      </trkpt>
      <trkpt lat="42.42583" lon="1.87802">
        <ele>1196.8</ele>
        <time>2022-09-06T14:42:28Z</time>
      </trkpt>
      <trkpt lat="42.42576" lon="1.87802">
        <ele>1196.8</ele>
        <time>2022-09-06T14:42:29Z</time>
      </trkpt>
      <trkpt lat="42.42569" lon="1.87801">
        <ele>1196.8</ele>
        <time>2022-09-06T14:42:30Z</time>
      </trkpt>
      <trkpt lat="42.42563" lon="1.878">
        <ele>1197</ele>
        <time>2022-09-06T14:42:31Z</time>
      </trkpt>
      <trkpt lat="42.42557" lon="1.87798">
        <ele>1197</ele>
        <time>2022-09-06T14:42:32Z</time>
      </trkpt>
      <trkpt lat="42.4255" lon="1.87796">
        <ele>1197</ele>
        <time>2022-09-06T14:42:33Z</time>
      </trkpt>
      <trkpt lat="42.42545" lon="1.87796">
        <ele>1196</ele>
        <time>2022-09-06T14:42:34Z</time>
      </trkpt>
      <trkpt lat="42.42539" lon="1.87798">
        <ele>1195.8</ele>
        <time>2022-09-06T14:42:35Z</time>
      </trkpt>
      <trkpt lat="42.42534" lon="1.87804">
        <ele>1195.8</ele>
        <time>2022-09-06T14:42:36Z</time>
      </trkpt>
      <trkpt lat="42.4253" lon="1.87809">
        <ele>1195.8</ele>
        <time>2022-09-06T14:42:37Z</time>
      </trkpt>
      <trkpt lat="42.42525" lon="1.87814">
        <ele>1195.8</ele>
        <time>2022-09-06T14:42:38Z</time>
      </trkpt>
      <trkpt lat="42.42519" lon="1.87816">
        <ele>1195.4</ele>
        <time>2022-09-06T14:42:39Z</time>
      </trkpt>
      <trkpt lat="42.42513" lon="1.87817">
        <ele>1195.4</ele>
        <time>2022-09-06T14:42:40Z</time>
      </trkpt>
      <trkpt lat="42.42506" lon="1.87818">
        <ele>1195.4</ele>
        <time>2022-09-06T14:42:41Z</time>
      </trkpt>
      <trkpt lat="42.425" lon="1.8782">
        <ele>1195.4</ele>
        <time>2022-09-06T14:42:42Z</time>
      </trkpt>
      <trkpt lat="42.42494" lon="1.87821">
        <ele>1195</ele>
        <time>2022-09-06T14:42:43Z</time>
      </trkpt>
      <trkpt lat="42.42488" lon="1.87822">
        <ele>1195</ele>
        <time>2022-09-06T14:42:44Z</time>
      </trkpt>
      <trkpt lat="42.42482" lon="1.87823">
        <ele>1195</ele>
        <time>2022-09-06T14:42:45Z</time>
      </trkpt>
      <trkpt lat="42.42477" lon="1.87824">
        <ele>1195</ele>
        <time>2022-09-06T14:42:46Z</time>
      </trkpt>
      <trkpt lat="42.42471" lon="1.87826">
        <ele>1195</ele>
        <time>2022-09-06T14:42:47Z</time>
      </trkpt>
      <trkpt lat="42.42466" lon="1.87828">
        <ele>1195</ele>
        <time>2022-09-06T14:42:48Z</time>
      </trkpt>
      <trkpt lat="42.4246" lon="1.8783">
        <ele>1195</ele>
        <time>2022-09-06T14:42:49Z</time>
      </trkpt>
      <trkpt lat="42.42455" lon="1.87832">
        <ele>1195</ele>
        <time>2022-09-06T14:42:50Z</time>
      </trkpt>
      <trkpt lat="42.42449" lon="1.87834">
        <ele>1195.8</ele>
        <time>2022-09-06T14:42:51Z</time>
      </trkpt>
      <trkpt lat="42.42444" lon="1.87836">
        <ele>1196.4</ele>
        <time>2022-09-06T14:42:52Z</time>
      </trkpt>
      <trkpt lat="42.42439" lon="1.8784">
        <ele>1196.4</ele>
        <time>2022-09-06T14:42:53Z</time>
      </trkpt>
      <trkpt lat="42.42435" lon="1.87843">
        <ele>1196.4</ele>
        <time>2022-09-06T14:42:54Z</time>
      </trkpt>
      <trkpt lat="42.42431" lon="1.87845">
        <ele>1196.4</ele>
        <time>2022-09-06T14:42:55Z</time>
      </trkpt>
      <trkpt lat="42.42427" lon="1.87845">
        <ele>1197.4</ele>
        <time>2022-09-06T14:42:56Z</time>
      </trkpt>
      <trkpt lat="42.42424" lon="1.87844">
        <ele>1197.4</ele>
        <time>2022-09-06T14:42:57Z</time>
      </trkpt>
      <trkpt lat="42.42421" lon="1.87844">
        <ele>1197.4</ele>
        <time>2022-09-06T14:42:58Z</time>
      </trkpt>
      <trkpt lat="42.42417" lon="1.87845">
        <ele>1197.4</ele>
        <time>2022-09-06T14:42:59Z</time>
      </trkpt>
      <trkpt lat="42.42413" lon="1.87846">
        <ele>1197.4</ele>
        <time>2022-09-06T14:43:00Z</time>
      </trkpt>
      <trkpt lat="42.42408" lon="1.87847">
        <ele>1197.4</ele>
        <time>2022-09-06T14:43:01Z</time>
      </trkpt>
      <trkpt lat="42.42402" lon="1.87848">
        <ele>1197.4</ele>
        <time>2022-09-06T14:43:02Z</time>
      </trkpt>
      <trkpt lat="42.42397" lon="1.87849">
        <ele>1197.4</ele>
        <time>2022-09-06T14:43:03Z</time>
      </trkpt>
      <trkpt lat="42.42392" lon="1.8785">
        <ele>1197.4</ele>
        <time>2022-09-06T14:43:04Z</time>
      </trkpt>
      <trkpt lat="42.42386" lon="1.87851">
        <ele>1197</ele>
        <time>2022-09-06T14:43:05Z</time>
      </trkpt>
      <trkpt lat="42.4238" lon="1.87852">
        <ele>1197</ele>
        <time>2022-09-06T14:43:06Z</time>
      </trkpt>
      <trkpt lat="42.42374" lon="1.87852">
        <ele>1197</ele>
        <time>2022-09-06T14:43:07Z</time>
      </trkpt>
      <trkpt lat="42.42367" lon="1.87853">
        <ele>1198</ele>
        <time>2022-09-06T14:43:08Z</time>
      </trkpt>
      <trkpt lat="42.42361" lon="1.87853">
        <ele>1198.2</ele>
        <time>2022-09-06T14:43:09Z</time>
      </trkpt>
      <trkpt lat="42.42355" lon="1.87854">
        <ele>1198.2</ele>
        <time>2022-09-06T14:43:10Z</time>
      </trkpt>
      <trkpt lat="42.42348" lon="1.87855">
        <ele>1198.2</ele>
        <time>2022-09-06T14:43:11Z</time>
      </trkpt>
      <trkpt lat="42.42342" lon="1.87856">
        <ele>1198.8</ele>
        <time>2022-09-06T14:43:12Z</time>
      </trkpt>
      <trkpt lat="42.42335" lon="1.87859">
        <ele>1198</ele>
        <time>2022-09-06T14:43:13Z</time>
      </trkpt>
      <trkpt lat="42.42329" lon="1.87862">
        <ele>1198</ele>
        <time>2022-09-06T14:43:14Z</time>
      </trkpt>
      <trkpt lat="42.42323" lon="1.87866">
        <ele>1198</ele>
        <time>2022-09-06T14:43:15Z</time>
      </trkpt>
      <trkpt lat="42.42316" lon="1.87868">
        <ele>1198</ele>
        <time>2022-09-06T14:43:16Z</time>
      </trkpt>
      <trkpt lat="42.42309" lon="1.8787">
        <ele>1199.4</ele>
        <time>2022-09-06T14:43:17Z</time>
      </trkpt>
      <trkpt lat="42.42302" lon="1.87871">
        <ele>1199.4</ele>
        <time>2022-09-06T14:43:18Z</time>
      </trkpt>
      <trkpt lat="42.42296" lon="1.87873">
        <ele>1199.4</ele>
        <time>2022-09-06T14:43:19Z</time>
      </trkpt>
      <trkpt lat="42.42288" lon="1.87874">
        <ele>1198.4</ele>
        <time>2022-09-06T14:43:20Z</time>
      </trkpt>
      <trkpt lat="42.42281" lon="1.87873">
        <ele>1198.4</ele>
        <time>2022-09-06T14:43:21Z</time>
      </trkpt>
      <trkpt lat="42.42274" lon="1.87871">
        <ele>1198.2</ele>
        <time>2022-09-06T14:43:22Z</time>
      </trkpt>
      <trkpt lat="42.42268" lon="1.8787">
        <ele>1198.2</ele>
        <time>2022-09-06T14:43:23Z</time>
      </trkpt>
      <trkpt lat="42.42262" lon="1.87869">
        <ele>1198.2</ele>
        <time>2022-09-06T14:43:24Z</time>
      </trkpt>
      <trkpt lat="42.42256" lon="1.87868">
        <ele>1197.2</ele>
        <time>2022-09-06T14:43:25Z</time>
      </trkpt>
      <trkpt lat="42.42251" lon="1.87866">
        <ele>1194.8</ele>
        <time>2022-09-06T14:43:26Z</time>
      </trkpt>
      <trkpt lat="42.42245" lon="1.87863">
        <ele>1194.8</ele>
        <time>2022-09-06T14:43:27Z</time>
      </trkpt>
      <trkpt lat="42.4224" lon="1.87859">
        <ele>1194.8</ele>
        <time>2022-09-06T14:43:28Z</time>
      </trkpt>
      <trkpt lat="42.42235" lon="1.87856">
        <ele>1195.8</ele>
        <time>2022-09-06T14:43:29Z</time>
      </trkpt>
      <trkpt lat="42.4223" lon="1.87853">
        <ele>1197.8</ele>
        <time>2022-09-06T14:43:30Z</time>
      </trkpt>
      <trkpt lat="42.42224" lon="1.8785">
        <ele>1197.8</ele>
        <time>2022-09-06T14:43:31Z</time>
      </trkpt>
      <trkpt lat="42.42219" lon="1.87847">
        <ele>1197.8</ele>
        <time>2022-09-06T14:43:32Z</time>
      </trkpt>
      <trkpt lat="42.42214" lon="1.87843">
        <ele>1197.8</ele>
        <time>2022-09-06T14:43:33Z</time>
      </trkpt>
      <trkpt lat="42.4221" lon="1.87837">
        <ele>1198.8</ele>
        <time>2022-09-06T14:43:34Z</time>
      </trkpt>
      <trkpt lat="42.42207" lon="1.87831">
        <ele>1198.8</ele>
        <time>2022-09-06T14:43:35Z</time>
      </trkpt>
      <trkpt lat="42.42205" lon="1.87824">
        <ele>1198.8</ele>
        <time>2022-09-06T14:43:36Z</time>
      </trkpt>
      <trkpt lat="42.42203" lon="1.87817">
        <ele>1199.8</ele>
        <time>2022-09-06T14:43:37Z</time>
      </trkpt>
      <trkpt lat="42.42202" lon="1.8781">
        <ele>1201.8</ele>
        <time>2022-09-06T14:43:38Z</time>
      </trkpt>
      <trkpt lat="42.42199" lon="1.87803">
        <ele>1201.8</ele>
        <time>2022-09-06T14:43:39Z</time>
      </trkpt>
      <trkpt lat="42.42196" lon="1.87797">
        <ele>1201.8</ele>
        <time>2022-09-06T14:43:40Z</time>
      </trkpt>
      <trkpt lat="42.42191" lon="1.87793">
        <ele>1200.8</ele>
        <time>2022-09-06T14:43:41Z</time>
      </trkpt>
      <trkpt lat="42.42185" lon="1.87788">
        <ele>1200.2</ele>
        <time>2022-09-06T14:43:42Z</time>
      </trkpt>
      <trkpt lat="42.4218" lon="1.87783">
        <ele>1200.2</ele>
        <time>2022-09-06T14:43:43Z</time>
      </trkpt>
      <trkpt lat="42.42177" lon="1.87775">
        <ele>1200.2</ele>
        <time>2022-09-06T14:43:44Z</time>
      </trkpt>
      <trkpt lat="42.42177" lon="1.87766">
        <ele>1200.2</ele>
        <time>2022-09-06T14:43:45Z</time>
      </trkpt>
      <trkpt lat="42.42176" lon="1.87758">
        <ele>1201</ele>
        <time>2022-09-06T14:43:46Z</time>
      </trkpt>
      <trkpt lat="42.42176" lon="1.87749">
        <ele>1201.8</ele>
        <time>2022-09-06T14:43:47Z</time>
      </trkpt>
      <trkpt lat="42.42175" lon="1.87741">
        <ele>1201.8</ele>
        <time>2022-09-06T14:43:48Z</time>
      </trkpt>
      <trkpt lat="42.42175" lon="1.87733">
        <ele>1201.8</ele>
        <time>2022-09-06T14:43:49Z</time>
      </trkpt>
      <trkpt lat="42.42174" lon="1.87725">
        <ele>1202.8</ele>
        <time>2022-09-06T14:43:50Z</time>
      </trkpt>
      <trkpt lat="42.42173" lon="1.87717">
        <ele>1203.4</ele>
        <time>2022-09-06T14:43:51Z</time>
      </trkpt>
      <trkpt lat="42.42173" lon="1.87708">
        <ele>1203.4</ele>
        <time>2022-09-06T14:43:52Z</time>
      </trkpt>
      <trkpt lat="42.42173" lon="1.87701">
        <ele>1203.4</ele>
        <time>2022-09-06T14:43:53Z</time>
      </trkpt>
      <trkpt lat="42.42174" lon="1.87693">
        <ele>1204.4</ele>
        <time>2022-09-06T14:43:54Z</time>
      </trkpt>
      <trkpt lat="42.42175" lon="1.87685">
        <ele>1205.2</ele>
        <time>2022-09-06T14:43:55Z</time>
      </trkpt>
      <trkpt lat="42.42176" lon="1.87678">
        <ele>1205.2</ele>
        <time>2022-09-06T14:43:56Z</time>
      </trkpt>
      <trkpt lat="42.42176" lon="1.8767">
        <ele>1205.2</ele>
        <time>2022-09-06T14:43:57Z</time>
      </trkpt>
      <trkpt lat="42.42177" lon="1.87663">
        <ele>1205.2</ele>
        <time>2022-09-06T14:43:58Z</time>
      </trkpt>
      <trkpt lat="42.42176" lon="1.87656">
        <ele>1206</ele>
        <time>2022-09-06T14:43:59Z</time>
      </trkpt>
      <trkpt lat="42.42172" lon="1.8765">
        <ele>1206</ele>
        <time>2022-09-06T14:44:00Z</time>
      </trkpt>
      <trkpt lat="42.42167" lon="1.87645">
        <ele>1206</ele>
        <time>2022-09-06T14:44:01Z</time>
      </trkpt>
      <trkpt lat="42.42162" lon="1.87641">
        <ele>1206</ele>
        <time>2022-09-06T14:44:02Z</time>
      </trkpt>
      <trkpt lat="42.42157" lon="1.87638">
        <ele>1205.8</ele>
        <time>2022-09-06T14:44:03Z</time>
      </trkpt>
      <trkpt lat="42.42152" lon="1.87635">
        <ele>1205.8</ele>
        <time>2022-09-06T14:44:04Z</time>
      </trkpt>
      <trkpt lat="42.42149" lon="1.87633">
        <ele>1205.8</ele>
        <time>2022-09-06T14:44:05Z</time>
      </trkpt>
      <trkpt lat="42.42147" lon="1.87631">
        <ele>1205.8</ele>
        <time>2022-09-06T14:44:06Z</time>
      </trkpt>
      <trkpt lat="42.42144" lon="1.87631">
        <ele>1205.8</ele>
        <time>2022-09-06T14:44:07Z</time>
      </trkpt>
      <trkpt lat="42.4214" lon="1.8763">
        <ele>1206</ele>
        <time>2022-09-06T14:44:08Z</time>
      </trkpt>
      <trkpt lat="42.42136" lon="1.8763">
        <ele>1206</ele>
        <time>2022-09-06T14:44:09Z</time>
      </trkpt>
      <trkpt lat="42.42132" lon="1.8763">
        <ele>1206</ele>
        <time>2022-09-06T14:44:10Z</time>
      </trkpt>
      <trkpt lat="42.42128" lon="1.87631">
        <ele>1206</ele>
        <time>2022-09-06T14:44:11Z</time>
      </trkpt>
      <trkpt lat="42.42125" lon="1.87632">
        <ele>1205.8</ele>
        <time>2022-09-06T14:44:12Z</time>
      </trkpt>
      <trkpt lat="42.42122" lon="1.87632">
        <ele>1205.8</ele>
        <time>2022-09-06T14:44:13Z</time>
      </trkpt>
      <trkpt lat="42.42119" lon="1.87632">
        <ele>1205.8</ele>
        <time>2022-09-06T14:44:14Z</time>
      </trkpt>
      <trkpt lat="42.42117" lon="1.87632">
        <ele>1205.8</ele>
        <time>2022-09-06T14:44:15Z</time>
      </trkpt>
      <trkpt lat="42.42115" lon="1.87632">
        <ele>1206</ele>
        <time>2022-09-06T14:44:16Z</time>
      </trkpt>
      <trkpt lat="42.42113" lon="1.87631">
        <ele>1205.6</ele>
        <time>2022-09-06T14:44:17Z</time>
      </trkpt>
      <trkpt lat="42.42111" lon="1.87631">
        <ele>1205.6</ele>
        <time>2022-09-06T14:44:18Z</time>
      </trkpt>
      <trkpt lat="42.42109" lon="1.87631">
        <ele>1205.6</ele>
        <time>2022-09-06T14:44:19Z</time>
      </trkpt>
      <trkpt lat="42.42108" lon="1.87632">
        <ele>1205.8</ele>
        <time>2022-09-06T14:44:20Z</time>
      </trkpt>
      <trkpt lat="42.42108" lon="1.87632">
        <ele>1205.8</ele>
        <time>2022-09-06T14:44:21Z</time>
      </trkpt>
      <trkpt lat="42.42107" lon="1.87631">
        <ele>1205.8</ele>
        <time>2022-09-06T14:44:22Z</time>
      </trkpt>
      <trkpt lat="42.42105" lon="1.8763">
        <ele>1205.8</ele>
        <time>2022-09-06T14:44:23Z</time>
      </trkpt>
      <trkpt lat="42.42102" lon="1.87629">
        <ele>1204.8</ele>
        <time>2022-09-06T14:44:24Z</time>
      </trkpt>
      <trkpt lat="42.42097" lon="1.87627">
        <ele>1204.8</ele>
        <time>2022-09-06T14:44:25Z</time>
      </trkpt>
      <trkpt lat="42.42092" lon="1.87624">
        <ele>1204.8</ele>
        <time>2022-09-06T14:44:26Z</time>
      </trkpt>
      <trkpt lat="42.42087" lon="1.8762">
        <ele>1204.8</ele>
        <time>2022-09-06T14:44:27Z</time>
      </trkpt>
      <trkpt lat="42.42083" lon="1.87614">
        <ele>1203.8</ele>
        <time>2022-09-06T14:44:28Z</time>
      </trkpt>
      <trkpt lat="42.42079" lon="1.87607">
        <ele>1201.6</ele>
        <time>2022-09-06T14:44:29Z</time>
      </trkpt>
      <trkpt lat="42.42075" lon="1.876">
        <ele>1201.6</ele>
        <time>2022-09-06T14:44:30Z</time>
      </trkpt>
      <trkpt lat="42.42072" lon="1.87592">
        <ele>1201.6</ele>
        <time>2022-09-06T14:44:31Z</time>
      </trkpt>
      <trkpt lat="42.42068" lon="1.87584">
        <ele>1201.6</ele>
        <time>2022-09-06T14:44:32Z</time>
      </trkpt>
      <trkpt lat="42.42065" lon="1.87576">
        <ele>1201.6</ele>
        <time>2022-09-06T14:44:33Z</time>
      </trkpt>
      <trkpt lat="42.42062" lon="1.87568">
        <ele>1199.4</ele>
        <time>2022-09-06T14:44:34Z</time>
      </trkpt>
      <trkpt lat="42.42059" lon="1.8756">
        <ele>1199.4</ele>
        <time>2022-09-06T14:44:35Z</time>
      </trkpt>
      <trkpt lat="42.42056" lon="1.87552">
        <ele>1199.4</ele>
        <time>2022-09-06T14:44:36Z</time>
      </trkpt>
      <trkpt lat="42.42054" lon="1.87544">
        <ele>1198.4</ele>
        <time>2022-09-06T14:44:37Z</time>
      </trkpt>
      <trkpt lat="42.42052" lon="1.87537">
        <ele>1198.2</ele>
        <time>2022-09-06T14:44:38Z</time>
      </trkpt>
      <trkpt lat="42.42051" lon="1.8753">
        <ele>1198.2</ele>
        <time>2022-09-06T14:44:39Z</time>
      </trkpt>
      <trkpt lat="42.42049" lon="1.87524">
        <ele>1198.2</ele>
        <time>2022-09-06T14:44:40Z</time>
      </trkpt>
      <trkpt lat="42.42048" lon="1.87519">
        <ele>1197.2</ele>
        <time>2022-09-06T14:44:41Z</time>
      </trkpt>
      <trkpt lat="42.42047" lon="1.87514">
        <ele>1195.8</ele>
        <time>2022-09-06T14:44:42Z</time>
      </trkpt>
      <trkpt lat="42.42047" lon="1.8751">
        <ele>1195.8</ele>
        <time>2022-09-06T14:44:43Z</time>
      </trkpt>
      <trkpt lat="42.42049" lon="1.87505">
        <ele>1195.8</ele>
        <time>2022-09-06T14:44:44Z</time>
      </trkpt>
      <trkpt lat="42.42053" lon="1.87503">
        <ele>1195.6</ele>
        <time>2022-09-06T14:44:45Z</time>
      </trkpt>
      <trkpt lat="42.42057" lon="1.87502">
        <ele>1197.4</ele>
        <time>2022-09-06T14:44:46Z</time>
      </trkpt>
      <trkpt lat="42.42061" lon="1.87502">
        <ele>1197.4</ele>
        <time>2022-09-06T14:44:47Z</time>
      </trkpt>
      <trkpt lat="42.42065" lon="1.87502">
        <ele>1197.4</ele>
        <time>2022-09-06T14:44:48Z</time>
      </trkpt>
      <trkpt lat="42.42068" lon="1.87501">
        <ele>1197.4</ele>
        <time>2022-09-06T14:44:49Z</time>
      </trkpt>
      <trkpt lat="42.4207" lon="1.87501">
        <ele>1198.4</ele>
        <time>2022-09-06T14:44:50Z</time>
      </trkpt>
      <trkpt lat="42.42074" lon="1.875">
        <ele>1199.2</ele>
        <time>2022-09-06T14:44:51Z</time>
      </trkpt>
      <trkpt lat="42.42077" lon="1.87498">
        <ele>1199.2</ele>
        <time>2022-09-06T14:44:52Z</time>
      </trkpt>
      <trkpt lat="42.4208" lon="1.87496">
        <ele>1199.2</ele>
        <time>2022-09-06T14:44:53Z</time>
      </trkpt>
      <trkpt lat="42.42083" lon="1.87494">
        <ele>1200.2</ele>
        <time>2022-09-06T14:44:54Z</time>
      </trkpt>
      <trkpt lat="42.42086" lon="1.87493">
        <ele>1202.2</ele>
        <time>2022-09-06T14:44:55Z</time>
      </trkpt>
      <trkpt lat="42.4209" lon="1.87492">
        <ele>1202.2</ele>
        <time>2022-09-06T14:44:56Z</time>
      </trkpt>
      <trkpt lat="42.42093" lon="1.87492">
        <ele>1202.2</ele>
        <time>2022-09-06T14:44:57Z</time>
      </trkpt>
      <trkpt lat="42.42097" lon="1.87493">
        <ele>1202.2</ele>
        <time>2022-09-06T14:44:58Z</time>
      </trkpt>
      <trkpt lat="42.42101" lon="1.87493">
        <ele>1203.8</ele>
        <time>2022-09-06T14:44:59Z</time>
      </trkpt>
      <trkpt lat="42.42105" lon="1.87493">
        <ele>1203.8</ele>
        <time>2022-09-06T14:45:00Z</time>
      </trkpt>
      <trkpt lat="42.42108" lon="1.87493">
        <ele>1203.8</ele>
        <time>2022-09-06T14:45:01Z</time>
      </trkpt>
      <trkpt lat="42.42111" lon="1.87492">
        <ele>1204.8</ele>
        <time>2022-09-06T14:45:02Z</time>
      </trkpt>
      <trkpt lat="42.42115" lon="1.8749">
        <ele>1205.4</ele>
        <time>2022-09-06T14:45:03Z</time>
      </trkpt>
      <trkpt lat="42.42118" lon="1.87489">
        <ele>1205.4</ele>
        <time>2022-09-06T14:45:04Z</time>
      </trkpt>
      <trkpt lat="42.42121" lon="1.87487">
        <ele>1205.4</ele>
        <time>2022-09-06T14:45:05Z</time>
      </trkpt>
      <trkpt lat="42.42124" lon="1.87486">
        <ele>1205.4</ele>
        <time>2022-09-06T14:45:06Z</time>
      </trkpt>
      <trkpt lat="42.42127" lon="1.87486">
        <ele>1206.4</ele>
        <time>2022-09-06T14:45:07Z</time>
      </trkpt>
      <trkpt lat="42.42131" lon="1.87486">
        <ele>1207.2</ele>
        <time>2022-09-06T14:45:08Z</time>
      </trkpt>
      <trkpt lat="42.42134" lon="1.87487">
        <ele>1207.2</ele>
        <time>2022-09-06T14:45:09Z</time>
      </trkpt>
      <trkpt lat="42.42137" lon="1.87487">
        <ele>1207.2</ele>
        <time>2022-09-06T14:45:10Z</time>
      </trkpt>
      <trkpt lat="42.4214" lon="1.87486">
        <ele>1208.2</ele>
        <time>2022-09-06T14:45:11Z</time>
      </trkpt>
      <trkpt lat="42.42143" lon="1.87485">
        <ele>1211.2</ele>
        <time>2022-09-06T14:45:12Z</time>
      </trkpt>
      <trkpt lat="42.42147" lon="1.87484">
        <ele>1211.2</ele>
        <time>2022-09-06T14:45:13Z</time>
      </trkpt>
      <trkpt lat="42.4215" lon="1.87483">
        <ele>1211.2</ele>
        <time>2022-09-06T14:45:14Z</time>
      </trkpt>
      <trkpt lat="42.42152" lon="1.87482">
        <ele>1212.2</ele>
        <time>2022-09-06T14:45:15Z</time>
      </trkpt>
      <trkpt lat="42.42155" lon="1.87481">
        <ele>1214</ele>
        <time>2022-09-06T14:45:16Z</time>
      </trkpt>
      <trkpt lat="42.42158" lon="1.87482">
        <ele>1214</ele>
        <time>2022-09-06T14:45:17Z</time>
      </trkpt>
      <trkpt lat="42.42161" lon="1.87482">
        <ele>1214</ele>
        <time>2022-09-06T14:45:18Z</time>
      </trkpt>
      <trkpt lat="42.42164" lon="1.87482">
        <ele>1214</ele>
        <time>2022-09-06T14:45:19Z</time>
      </trkpt>
      <trkpt lat="42.42167" lon="1.87483">
        <ele>1214</ele>
        <time>2022-09-06T14:45:20Z</time>
      </trkpt>
      <trkpt lat="42.4217" lon="1.87483">
        <ele>1217</ele>
        <time>2022-09-06T14:45:21Z</time>
      </trkpt>
      <trkpt lat="42.42173" lon="1.87483">
        <ele>1217</ele>
        <time>2022-09-06T14:45:22Z</time>
      </trkpt>
      <trkpt lat="42.42175" lon="1.87483">
        <ele>1217</ele>
        <time>2022-09-06T14:45:23Z</time>
      </trkpt>
      <trkpt lat="42.42178" lon="1.87483">
        <ele>1217.8</ele>
        <time>2022-09-06T14:45:24Z</time>
      </trkpt>
      <trkpt lat="42.42182" lon="1.87482">
        <ele>1219</ele>
        <time>2022-09-06T14:45:25Z</time>
      </trkpt>
      <trkpt lat="42.42185" lon="1.8748">
        <ele>1219</ele>
        <time>2022-09-06T14:45:26Z</time>
      </trkpt>
      <trkpt lat="42.42188" lon="1.87478">
        <ele>1219</ele>
        <time>2022-09-06T14:45:27Z</time>
      </trkpt>
      <trkpt lat="42.42191" lon="1.87476">
        <ele>1219</ele>
        <time>2022-09-06T14:45:28Z</time>
      </trkpt>
      <trkpt lat="42.42194" lon="1.87474">
        <ele>1220</ele>
        <time>2022-09-06T14:45:29Z</time>
      </trkpt>
      <trkpt lat="42.42198" lon="1.87471">
        <ele>1220</ele>
        <time>2022-09-06T14:45:30Z</time>
      </trkpt>
      <trkpt lat="42.42201" lon="1.87469">
        <ele>1220</ele>
        <time>2022-09-06T14:45:31Z</time>
      </trkpt>
      <trkpt lat="42.42204" lon="1.87467">
        <ele>1221</ele>
        <time>2022-09-06T14:45:32Z</time>
      </trkpt>
      <trkpt lat="42.42207" lon="1.87465">
        <ele>1221.6</ele>
        <time>2022-09-06T14:45:33Z</time>
      </trkpt>
      <trkpt lat="42.42211" lon="1.87463">
        <ele>1221.6</ele>
        <time>2022-09-06T14:45:34Z</time>
      </trkpt>
      <trkpt lat="42.42214" lon="1.87461">
        <ele>1221.6</ele>
        <time>2022-09-06T14:45:35Z</time>
      </trkpt>
      <trkpt lat="42.42218" lon="1.87459">
        <ele>1222.6</ele>
        <time>2022-09-06T14:45:36Z</time>
      </trkpt>
      <trkpt lat="42.42221" lon="1.87457">
        <ele>1223.6</ele>
        <time>2022-09-06T14:45:37Z</time>
      </trkpt>
      <trkpt lat="42.42225" lon="1.87455">
        <ele>1223.6</ele>
        <time>2022-09-06T14:45:38Z</time>
      </trkpt>
      <trkpt lat="42.42229" lon="1.87454">
        <ele>1223.6</ele>
        <time>2022-09-06T14:45:39Z</time>
      </trkpt>
      <trkpt lat="42.42233" lon="1.87453">
        <ele>1223.6</ele>
        <time>2022-09-06T14:45:40Z</time>
      </trkpt>
      <trkpt lat="42.42237" lon="1.87452">
        <ele>1224.2</ele>
        <time>2022-09-06T14:45:41Z</time>
      </trkpt>
      <trkpt lat="42.42241" lon="1.87451">
        <ele>1225.6</ele>
        <time>2022-09-06T14:45:42Z</time>
      </trkpt>
      <trkpt lat="42.42245" lon="1.87451">
        <ele>1225.6</ele>
        <time>2022-09-06T14:45:43Z</time>
      </trkpt>
      <trkpt lat="42.4225" lon="1.87451">
        <ele>1225.6</ele>
        <time>2022-09-06T14:45:44Z</time>
      </trkpt>
      <trkpt lat="42.42254" lon="1.8745">
        <ele>1225.6</ele>
        <time>2022-09-06T14:45:45Z</time>
      </trkpt>
      <trkpt lat="42.42258" lon="1.87449">
        <ele>1228.6</ele>
        <time>2022-09-06T14:45:46Z</time>
      </trkpt>
      <trkpt lat="42.42262" lon="1.87447">
        <ele>1228.6</ele>
        <time>2022-09-06T14:45:47Z</time>
      </trkpt>
      <trkpt lat="42.42266" lon="1.87445">
        <ele>1228.6</ele>
        <time>2022-09-06T14:45:48Z</time>
      </trkpt>
      <trkpt lat="42.4227" lon="1.87442">
        <ele>1228.6</ele>
        <time>2022-09-06T14:45:49Z</time>
      </trkpt>
      <trkpt lat="42.42274" lon="1.8744">
        <ele>1229.6</ele>
        <time>2022-09-06T14:45:50Z</time>
      </trkpt>
      <trkpt lat="42.42277" lon="1.87438">
        <ele>1229.6</ele>
        <time>2022-09-06T14:45:51Z</time>
      </trkpt>
      <trkpt lat="42.42281" lon="1.87436">
        <ele>1229.6</ele>
        <time>2022-09-06T14:45:52Z</time>
      </trkpt>
      <trkpt lat="42.42285" lon="1.87434">
        <ele>1230.6</ele>
        <time>2022-09-06T14:45:53Z</time>
      </trkpt>
      <trkpt lat="42.42289" lon="1.87432">
        <ele>1231.6</ele>
        <time>2022-09-06T14:45:54Z</time>
      </trkpt>
      <trkpt lat="42.42293" lon="1.8743">
        <ele>1231.6</ele>
        <time>2022-09-06T14:45:55Z</time>
      </trkpt>
      <trkpt lat="42.42296" lon="1.87427">
        <ele>1231.6</ele>
        <time>2022-09-06T14:45:56Z</time>
      </trkpt>
      <trkpt lat="42.42299" lon="1.87424">
        <ele>1232.6</ele>
        <time>2022-09-06T14:45:57Z</time>
      </trkpt>
      <trkpt lat="42.42303" lon="1.87423">
        <ele>1232.6</ele>
        <time>2022-09-06T14:45:58Z</time>
      </trkpt>
      <trkpt lat="42.42307" lon="1.87422">
        <ele>1232.8</ele>
        <time>2022-09-06T14:45:59Z</time>
      </trkpt>
      <trkpt lat="42.42311" lon="1.87422">
        <ele>1232.8</ele>
        <time>2022-09-06T14:46:00Z</time>
      </trkpt>
      <trkpt lat="42.42314" lon="1.87423">
        <ele>1232.8</ele>
        <time>2022-09-06T14:46:01Z</time>
      </trkpt>
      <trkpt lat="42.42318" lon="1.87422">
        <ele>1233.8</ele>
        <time>2022-09-06T14:46:02Z</time>
      </trkpt>
      <trkpt lat="42.42321" lon="1.87419">
        <ele>1236</ele>
        <time>2022-09-06T14:46:03Z</time>
      </trkpt>
      <trkpt lat="42.42324" lon="1.87416">
        <ele>1236</ele>
        <time>2022-09-06T14:46:04Z</time>
      </trkpt>
      <trkpt lat="42.42326" lon="1.87412">
        <ele>1236</ele>
        <time>2022-09-06T14:46:05Z</time>
      </trkpt>
      <trkpt lat="42.42329" lon="1.87407">
        <ele>1236.8</ele>
        <time>2022-09-06T14:46:06Z</time>
      </trkpt>
      <trkpt lat="42.42332" lon="1.87403">
        <ele>1237</ele>
        <time>2022-09-06T14:46:07Z</time>
      </trkpt>
      <trkpt lat="42.42335" lon="1.87399">
        <ele>1237</ele>
        <time>2022-09-06T14:46:08Z</time>
      </trkpt>
      <trkpt lat="42.42339" lon="1.87395">
        <ele>1237</ele>
        <time>2022-09-06T14:46:09Z</time>
      </trkpt>
      <trkpt lat="42.42343" lon="1.87392">
        <ele>1238</ele>
        <time>2022-09-06T14:46:10Z</time>
      </trkpt>
      <trkpt lat="42.42347" lon="1.8739">
        <ele>1239.8</ele>
        <time>2022-09-06T14:46:11Z</time>
      </trkpt>
      <trkpt lat="42.42351" lon="1.87389">
        <ele>1239.8</ele>
        <time>2022-09-06T14:46:12Z</time>
      </trkpt>
      <trkpt lat="42.42354" lon="1.87387">
        <ele>1239.8</ele>
        <time>2022-09-06T14:46:13Z</time>
      </trkpt>
      <trkpt lat="42.42358" lon="1.87385">
        <ele>1240.8</ele>
        <time>2022-09-06T14:46:14Z</time>
      </trkpt>
      <trkpt lat="42.42362" lon="1.87382">
        <ele>1242.4</ele>
        <time>2022-09-06T14:46:15Z</time>
      </trkpt>
      <trkpt lat="42.42365" lon="1.87379">
        <ele>1242.4</ele>
        <time>2022-09-06T14:46:16Z</time>
      </trkpt>
      <trkpt lat="42.42368" lon="1.87375">
        <ele>1242.4</ele>
        <time>2022-09-06T14:46:17Z</time>
      </trkpt>
      <trkpt lat="42.42372" lon="1.8737">
        <ele>1242.4</ele>
        <time>2022-09-06T14:46:18Z</time>
      </trkpt>
      <trkpt lat="42.42376" lon="1.87367">
        <ele>1242.4</ele>
        <time>2022-09-06T14:46:19Z</time>
      </trkpt>
      <trkpt lat="42.4238" lon="1.87363">
        <ele>1244.2</ele>
        <time>2022-09-06T14:46:20Z</time>
      </trkpt>
      <trkpt lat="42.42383" lon="1.8736">
        <ele>1244.2</ele>
        <time>2022-09-06T14:46:21Z</time>
      </trkpt>
      <trkpt lat="42.42387" lon="1.87356">
        <ele>1244.2</ele>
        <time>2022-09-06T14:46:22Z</time>
      </trkpt>
      <trkpt lat="42.4239" lon="1.87353">
        <ele>1244.2</ele>
        <time>2022-09-06T14:46:23Z</time>
      </trkpt>
      <trkpt lat="42.42394" lon="1.8735">
        <ele>1246.6</ele>
        <time>2022-09-06T14:46:24Z</time>
      </trkpt>
      <trkpt lat="42.42398" lon="1.87348">
        <ele>1246.6</ele>
        <time>2022-09-06T14:46:25Z</time>
      </trkpt>
      <trkpt lat="42.42402" lon="1.87346">
        <ele>1246.6</ele>
        <time>2022-09-06T14:46:26Z</time>
      </trkpt>
      <trkpt lat="42.42406" lon="1.87345">
        <ele>1246.6</ele>
        <time>2022-09-06T14:46:27Z</time>
      </trkpt>
      <trkpt lat="42.4241" lon="1.87344">
        <ele>1248</ele>
        <time>2022-09-06T14:46:28Z</time>
      </trkpt>
      <trkpt lat="42.42415" lon="1.87342">
        <ele>1248</ele>
        <time>2022-09-06T14:46:29Z</time>
      </trkpt>
      <trkpt lat="42.42419" lon="1.8734">
        <ele>1248</ele>
        <time>2022-09-06T14:46:30Z</time>
      </trkpt>
      <trkpt lat="42.42422" lon="1.87336">
        <ele>1249</ele>
        <time>2022-09-06T14:46:31Z</time>
      </trkpt>
      <trkpt lat="42.42425" lon="1.87332">
        <ele>1249</ele>
        <time>2022-09-06T14:46:32Z</time>
      </trkpt>
      <trkpt lat="42.42428" lon="1.87327">
        <ele>1249.6</ele>
        <time>2022-09-06T14:46:33Z</time>
      </trkpt>
      <trkpt lat="42.42431" lon="1.87324">
        <ele>1249.6</ele>
        <time>2022-09-06T14:46:34Z</time>
      </trkpt>
      <trkpt lat="42.42435" lon="1.87321">
        <ele>1249.6</ele>
        <time>2022-09-06T14:46:35Z</time>
      </trkpt>
      <trkpt lat="42.42438" lon="1.87318">
        <ele>1249.6</ele>
        <time>2022-09-06T14:46:36Z</time>
      </trkpt>
      <trkpt lat="42.42441" lon="1.87315">
        <ele>1252.8</ele>
        <time>2022-09-06T14:46:37Z</time>
      </trkpt>
      <trkpt lat="42.42443" lon="1.8731">
        <ele>1252.8</ele>
        <time>2022-09-06T14:46:38Z</time>
      </trkpt>
      <trkpt lat="42.42444" lon="1.87303">
        <ele>1252.8</ele>
        <time>2022-09-06T14:46:39Z</time>
      </trkpt>
      <trkpt lat="42.42445" lon="1.87297">
        <ele>1252.6</ele>
        <time>2022-09-06T14:46:40Z</time>
      </trkpt>
      <trkpt lat="42.42447" lon="1.87291">
        <ele>1253</ele>
        <time>2022-09-06T14:46:41Z</time>
      </trkpt>
      <trkpt lat="42.42448" lon="1.87285">
        <ele>1253</ele>
        <time>2022-09-06T14:46:42Z</time>
      </trkpt>
      <trkpt lat="42.4245" lon="1.87279">
        <ele>1253</ele>
        <time>2022-09-06T14:46:43Z</time>
      </trkpt>
      <trkpt lat="42.42452" lon="1.87272">
        <ele>1252.6</ele>
        <time>2022-09-06T14:46:44Z</time>
      </trkpt>
      <trkpt lat="42.42454" lon="1.87266">
        <ele>1253</ele>
        <time>2022-09-06T14:46:45Z</time>
      </trkpt>
      <trkpt lat="42.42457" lon="1.87259">
        <ele>1253</ele>
        <time>2022-09-06T14:46:46Z</time>
      </trkpt>
      <trkpt lat="42.42459" lon="1.87253">
        <ele>1253</ele>
        <time>2022-09-06T14:46:47Z</time>
      </trkpt>
      <trkpt lat="42.42461" lon="1.87247">
        <ele>1253</ele>
        <time>2022-09-06T14:46:48Z</time>
      </trkpt>
      <trkpt lat="42.42463" lon="1.87241">
        <ele>1254</ele>
        <time>2022-09-06T14:46:49Z</time>
      </trkpt>
      <trkpt lat="42.42465" lon="1.87235">
        <ele>1254.8</ele>
        <time>2022-09-06T14:46:50Z</time>
      </trkpt>
      <trkpt lat="42.42467" lon="1.87228">
        <ele>1254.8</ele>
        <time>2022-09-06T14:46:51Z</time>
      </trkpt>
      <trkpt lat="42.42468" lon="1.87221">
        <ele>1254.8</ele>
        <time>2022-09-06T14:46:52Z</time>
      </trkpt>
      <trkpt lat="42.42469" lon="1.87215">
        <ele>1254.8</ele>
        <time>2022-09-06T14:46:53Z</time>
      </trkpt>
      <trkpt lat="42.4247" lon="1.87209">
        <ele>1257.8</ele>
        <time>2022-09-06T14:46:54Z</time>
      </trkpt>
      <trkpt lat="42.42471" lon="1.87204">
        <ele>1257.8</ele>
        <time>2022-09-06T14:46:55Z</time>
      </trkpt>
      <trkpt lat="42.42473" lon="1.87199">
        <ele>1257.8</ele>
        <time>2022-09-06T14:46:56Z</time>
      </trkpt>
      <trkpt lat="42.42475" lon="1.87195">
        <ele>1257.8</ele>
        <time>2022-09-06T14:46:57Z</time>
      </trkpt>
      <trkpt lat="42.42477" lon="1.87192">
        <ele>1260.4</ele>
        <time>2022-09-06T14:46:58Z</time>
      </trkpt>
      <trkpt lat="42.42479" lon="1.87189">
        <ele>1260.4</ele>
        <time>2022-09-06T14:46:59Z</time>
      </trkpt>
      <trkpt lat="42.42482" lon="1.87187">
        <ele>1260.4</ele>
        <time>2022-09-06T14:47:00Z</time>
      </trkpt>
      <trkpt lat="42.42485" lon="1.87186">
        <ele>1260.4</ele>
        <time>2022-09-06T14:47:01Z</time>
      </trkpt>
      <trkpt lat="42.42487" lon="1.87183">
        <ele>1262.4</ele>
        <time>2022-09-06T14:47:02Z</time>
      </trkpt>
      <trkpt lat="42.42488" lon="1.87181">
        <ele>1262.4</ele>
        <time>2022-09-06T14:47:03Z</time>
      </trkpt>
      <trkpt lat="42.42489" lon="1.87178">
        <ele>1262.4</ele>
        <time>2022-09-06T14:47:04Z</time>
      </trkpt>
      <trkpt lat="42.4249" lon="1.87174">
        <ele>1262.4</ele>
        <time>2022-09-06T14:47:05Z</time>
      </trkpt>
      <trkpt lat="42.42491" lon="1.8717">
        <ele>1263.4</ele>
        <time>2022-09-06T14:47:06Z</time>
      </trkpt>
      <trkpt lat="42.42491" lon="1.87166">
        <ele>1264.6</ele>
        <time>2022-09-06T14:47:07Z</time>
      </trkpt>
      <trkpt lat="42.42492" lon="1.87162">
        <ele>1264.6</ele>
        <time>2022-09-06T14:47:08Z</time>
      </trkpt>
      <trkpt lat="42.42493" lon="1.87158">
        <ele>1264.6</ele>
        <time>2022-09-06T14:47:09Z</time>
      </trkpt>
      <trkpt lat="42.42494" lon="1.87155">
        <ele>1265.6</ele>
        <time>2022-09-06T14:47:10Z</time>
      </trkpt>
      <trkpt lat="42.42496" lon="1.87153">
        <ele>1268</ele>
        <time>2022-09-06T14:47:11Z</time>
      </trkpt>
      <trkpt lat="42.42498" lon="1.87151">
        <ele>1268</ele>
        <time>2022-09-06T14:47:12Z</time>
      </trkpt>
      <trkpt lat="42.425" lon="1.87149">
        <ele>1268</ele>
        <time>2022-09-06T14:47:13Z</time>
      </trkpt>
      <trkpt lat="42.42502" lon="1.87147">
        <ele>1269</ele>
        <time>2022-09-06T14:47:14Z</time>
      </trkpt>
      <trkpt lat="42.42504" lon="1.87145">
        <ele>1268.6</ele>
        <time>2022-09-06T14:47:15Z</time>
      </trkpt>
      <trkpt lat="42.42506" lon="1.87143">
        <ele>1268.6</ele>
        <time>2022-09-06T14:47:16Z</time>
      </trkpt>
      <trkpt lat="42.42509" lon="1.87141">
        <ele>1268.6</ele>
        <time>2022-09-06T14:47:17Z</time>
      </trkpt>
      <trkpt lat="42.42511" lon="1.8714">
        <ele>1269.6</ele>
        <time>2022-09-06T14:47:18Z</time>
      </trkpt>
      <trkpt lat="42.42514" lon="1.87139">
        <ele>1270.4</ele>
        <time>2022-09-06T14:47:19Z</time>
      </trkpt>
      <trkpt lat="42.42517" lon="1.87138">
        <ele>1270.4</ele>
        <time>2022-09-06T14:47:20Z</time>
      </trkpt>
      <trkpt lat="42.4252" lon="1.87135">
        <ele>1270.4</ele>
        <time>2022-09-06T14:47:21Z</time>
      </trkpt>
      <trkpt lat="42.42523" lon="1.87133">
        <ele>1271.4</ele>
        <time>2022-09-06T14:47:22Z</time>
      </trkpt>
      <trkpt lat="42.42525" lon="1.87129">
        <ele>1274.4</ele>
        <time>2022-09-06T14:47:23Z</time>
      </trkpt>
      <trkpt lat="42.42527" lon="1.87126">
        <ele>1274.4</ele>
        <time>2022-09-06T14:47:24Z</time>
      </trkpt>
      <trkpt lat="42.42528" lon="1.87121">
        <ele>1274.4</ele>
        <time>2022-09-06T14:47:25Z</time>
      </trkpt>
      <trkpt lat="42.4253" lon="1.87117">
        <ele>1274.4</ele>
        <time>2022-09-06T14:47:26Z</time>
      </trkpt>
      <trkpt lat="42.42532" lon="1.87113">
        <ele>1274.4</ele>
        <time>2022-09-06T14:47:27Z</time>
      </trkpt>
      <trkpt lat="42.42533" lon="1.87109">
        <ele>1276</ele>
        <time>2022-09-06T14:47:28Z</time>
      </trkpt>
      <trkpt lat="42.42535" lon="1.87105">
        <ele>1276</ele>
        <time>2022-09-06T14:47:29Z</time>
      </trkpt>
      <trkpt lat="42.42537" lon="1.871">
        <ele>1276</ele>
        <time>2022-09-06T14:47:30Z</time>
      </trkpt>
      <trkpt lat="42.42539" lon="1.87096">
        <ele>1277</ele>
        <time>2022-09-06T14:47:31Z</time>
      </trkpt>
      <trkpt lat="42.42541" lon="1.87091">
        <ele>1278.6</ele>
        <time>2022-09-06T14:47:32Z</time>
      </trkpt>
      <trkpt lat="42.42544" lon="1.87087">
        <ele>1278.6</ele>
        <time>2022-09-06T14:47:33Z</time>
      </trkpt>
      <trkpt lat="42.42546" lon="1.87082">
        <ele>1278.6</ele>
        <time>2022-09-06T14:47:34Z</time>
      </trkpt>
      <trkpt lat="42.42548" lon="1.87077">
        <ele>1278.6</ele>
        <time>2022-09-06T14:47:35Z</time>
      </trkpt>
      <trkpt lat="42.4255" lon="1.87072">
        <ele>1279.8</ele>
        <time>2022-09-06T14:47:36Z</time>
      </trkpt>
      <trkpt lat="42.42552" lon="1.87066">
        <ele>1279.8</ele>
        <time>2022-09-06T14:47:37Z</time>
      </trkpt>
      <trkpt lat="42.42554" lon="1.87059">
        <ele>1279.8</ele>
        <time>2022-09-06T14:47:38Z</time>
      </trkpt>
      <trkpt lat="42.42555" lon="1.87053">
        <ele>1279.8</ele>
        <time>2022-09-06T14:47:39Z</time>
      </trkpt>
      <trkpt lat="42.42557" lon="1.87046">
        <ele>1280.6</ele>
        <time>2022-09-06T14:47:40Z</time>
      </trkpt>
      <trkpt lat="42.42559" lon="1.87039">
        <ele>1280.6</ele>
        <time>2022-09-06T14:47:41Z</time>
      </trkpt>
      <trkpt lat="42.42561" lon="1.87033">
        <ele>1280.6</ele>
        <time>2022-09-06T14:47:42Z</time>
      </trkpt>
      <trkpt lat="42.42562" lon="1.87026">
        <ele>1280.6</ele>
        <time>2022-09-06T14:47:43Z</time>
      </trkpt>
      <trkpt lat="42.42563" lon="1.87019">
        <ele>1280.6</ele>
        <time>2022-09-06T14:47:44Z</time>
      </trkpt>
      <trkpt lat="42.42563" lon="1.87012">
        <ele>1280.2</ele>
        <time>2022-09-06T14:47:45Z</time>
      </trkpt>
      <trkpt lat="42.42563" lon="1.87005">
        <ele>1280.2</ele>
        <time>2022-09-06T14:47:46Z</time>
      </trkpt>
      <trkpt lat="42.42563" lon="1.86998">
        <ele>1280.2</ele>
        <time>2022-09-06T14:47:47Z</time>
      </trkpt>
      <trkpt lat="42.42562" lon="1.8699">
        <ele>1281</ele>
        <time>2022-09-06T14:47:48Z</time>
      </trkpt>
      <trkpt lat="42.42562" lon="1.86982">
        <ele>1280.4</ele>
        <time>2022-09-06T14:47:49Z</time>
      </trkpt>
      <trkpt lat="42.42563" lon="1.86975">
        <ele>1280.4</ele>
        <time>2022-09-06T14:47:50Z</time>
      </trkpt>
      <trkpt lat="42.42564" lon="1.86969">
        <ele>1280.4</ele>
        <time>2022-09-06T14:47:51Z</time>
      </trkpt>
      <trkpt lat="42.42565" lon="1.86962">
        <ele>1281.4</ele>
        <time>2022-09-06T14:47:52Z</time>
      </trkpt>
      <trkpt lat="42.42566" lon="1.86956">
        <ele>1283.2</ele>
        <time>2022-09-06T14:47:53Z</time>
      </trkpt>
      <trkpt lat="42.42567" lon="1.86949">
        <ele>1283.2</ele>
        <time>2022-09-06T14:47:54Z</time>
      </trkpt>
      <trkpt lat="42.42567" lon="1.86943">
        <ele>1283.2</ele>
        <time>2022-09-06T14:47:55Z</time>
      </trkpt>
      <trkpt lat="42.42569" lon="1.86937">
        <ele>1284.2</ele>
        <time>2022-09-06T14:47:56Z</time>
      </trkpt>
      <trkpt lat="42.42571" lon="1.86932">
        <ele>1286</ele>
        <time>2022-09-06T14:47:57Z</time>
      </trkpt>
      <trkpt lat="42.42572" lon="1.86927">
        <ele>1286</ele>
        <time>2022-09-06T14:47:58Z</time>
      </trkpt>
      <trkpt lat="42.42574" lon="1.86922">
        <ele>1286</ele>
        <time>2022-09-06T14:47:59Z</time>
      </trkpt>
      <trkpt lat="42.42576" lon="1.86918">
        <ele>1286</ele>
        <time>2022-09-06T14:48:00Z</time>
      </trkpt>
      <trkpt lat="42.42577" lon="1.86913">
        <ele>1286</ele>
        <time>2022-09-06T14:48:01Z</time>
      </trkpt>
      <trkpt lat="42.42578" lon="1.86908">
        <ele>1288.6</ele>
        <time>2022-09-06T14:48:02Z</time>
      </trkpt>
      <trkpt lat="42.4258" lon="1.86903">
        <ele>1288.6</ele>
        <time>2022-09-06T14:48:03Z</time>
      </trkpt>
      <trkpt lat="42.42581" lon="1.86898">
        <ele>1288.6</ele>
        <time>2022-09-06T14:48:04Z</time>
      </trkpt>
      <trkpt lat="42.42582" lon="1.86894">
        <ele>1289.6</ele>
        <time>2022-09-06T14:48:05Z</time>
      </trkpt>
      <trkpt lat="42.42583" lon="1.86889">
        <ele>1291</ele>
        <time>2022-09-06T14:48:06Z</time>
      </trkpt>
      <trkpt lat="42.42584" lon="1.86885">
        <ele>1291</ele>
        <time>2022-09-06T14:48:07Z</time>
      </trkpt>
      <trkpt lat="42.42585" lon="1.86881">
        <ele>1291</ele>
        <time>2022-09-06T14:48:08Z</time>
      </trkpt>
      <trkpt lat="42.42585" lon="1.86877">
        <ele>1292</ele>
        <time>2022-09-06T14:48:09Z</time>
      </trkpt>
      <trkpt lat="42.42585" lon="1.86871">
        <ele>1292.6</ele>
        <time>2022-09-06T14:48:10Z</time>
      </trkpt>
      <trkpt lat="42.42585" lon="1.86866">
        <ele>1292.6</ele>
        <time>2022-09-06T14:48:11Z</time>
      </trkpt>
      <trkpt lat="42.42585" lon="1.86859">
        <ele>1292.6</ele>
        <time>2022-09-06T14:48:12Z</time>
      </trkpt>
      <trkpt lat="42.42586" lon="1.86853">
        <ele>1292.6</ele>
        <time>2022-09-06T14:48:13Z</time>
      </trkpt>
      <trkpt lat="42.42586" lon="1.86846">
        <ele>1294.2</ele>
        <time>2022-09-06T14:48:14Z</time>
      </trkpt>
      <trkpt lat="42.42587" lon="1.86839">
        <ele>1294.2</ele>
        <time>2022-09-06T14:48:15Z</time>
      </trkpt>
      <trkpt lat="42.42588" lon="1.86833">
        <ele>1294.2</ele>
        <time>2022-09-06T14:48:16Z</time>
      </trkpt>
      <trkpt lat="42.42589" lon="1.86827">
        <ele>1294.2</ele>
        <time>2022-09-06T14:48:17Z</time>
      </trkpt>
      <trkpt lat="42.4259" lon="1.86821">
        <ele>1295.2</ele>
        <time>2022-09-06T14:48:18Z</time>
      </trkpt>
      <trkpt lat="42.42591" lon="1.86815">
        <ele>1296.2</ele>
        <time>2022-09-06T14:48:19Z</time>
      </trkpt>
      <trkpt lat="42.42593" lon="1.86809">
        <ele>1296.2</ele>
        <time>2022-09-06T14:48:20Z</time>
      </trkpt>
      <trkpt lat="42.42595" lon="1.86803">
        <ele>1296.2</ele>
        <time>2022-09-06T14:48:21Z</time>
      </trkpt>
      <trkpt lat="42.42596" lon="1.86797">
        <ele>1296.2</ele>
        <time>2022-09-06T14:48:22Z</time>
      </trkpt>
      <trkpt lat="42.42598" lon="1.86792">
        <ele>1295.8</ele>
        <time>2022-09-06T14:48:23Z</time>
      </trkpt>
      <trkpt lat="42.426" lon="1.86786">
        <ele>1295.8</ele>
        <time>2022-09-06T14:48:24Z</time>
      </trkpt>
      <trkpt lat="42.42601" lon="1.8678">
        <ele>1295.8</ele>
        <time>2022-09-06T14:48:25Z</time>
      </trkpt>
      <trkpt lat="42.42603" lon="1.86775">
        <ele>1296.8</ele>
        <time>2022-09-06T14:48:26Z</time>
      </trkpt>
      <trkpt lat="42.42605" lon="1.86769">
        <ele>1299</ele>
        <time>2022-09-06T14:48:27Z</time>
      </trkpt>
      <trkpt lat="42.42607" lon="1.86764">
        <ele>1299</ele>
        <time>2022-09-06T14:48:28Z</time>
      </trkpt>
      <trkpt lat="42.42609" lon="1.86759">
        <ele>1299</ele>
        <time>2022-09-06T14:48:29Z</time>
      </trkpt>
      <trkpt lat="42.42612" lon="1.86754">
        <ele>1299</ele>
        <time>2022-09-06T14:48:30Z</time>
      </trkpt>
      <trkpt lat="42.42614" lon="1.86749">
        <ele>1300.8</ele>
        <time>2022-09-06T14:48:31Z</time>
      </trkpt>
      <trkpt lat="42.42617" lon="1.86744">
        <ele>1300.8</ele>
        <time>2022-09-06T14:48:32Z</time>
      </trkpt>
      <trkpt lat="42.4262" lon="1.86739">
        <ele>1300.8</ele>
        <time>2022-09-06T14:48:33Z</time>
      </trkpt>
      <trkpt lat="42.42623" lon="1.86734">
        <ele>1300.8</ele>
        <time>2022-09-06T14:48:34Z</time>
      </trkpt>
      <trkpt lat="42.42626" lon="1.86729">
        <ele>1301.8</ele>
        <time>2022-09-06T14:48:35Z</time>
      </trkpt>
      <trkpt lat="42.42629" lon="1.86724">
        <ele>1302.2</ele>
        <time>2022-09-06T14:48:36Z</time>
      </trkpt>
      <trkpt lat="42.42631" lon="1.86719">
        <ele>1302.2</ele>
        <time>2022-09-06T14:48:37Z</time>
      </trkpt>
      <trkpt lat="42.42634" lon="1.86713">
        <ele>1302.2</ele>
        <time>2022-09-06T14:48:38Z</time>
      </trkpt>
      <trkpt lat="42.42636" lon="1.86707">
        <ele>1303.2</ele>
        <time>2022-09-06T14:48:39Z</time>
      </trkpt>
      <trkpt lat="42.42638" lon="1.86702">
        <ele>1303.4</ele>
        <time>2022-09-06T14:48:40Z</time>
      </trkpt>
      <trkpt lat="42.4264" lon="1.86697">
        <ele>1303.4</ele>
        <time>2022-09-06T14:48:41Z</time>
      </trkpt>
      <trkpt lat="42.42643" lon="1.86693">
        <ele>1303.4</ele>
        <time>2022-09-06T14:48:42Z</time>
      </trkpt>
      <trkpt lat="42.42646" lon="1.86689">
        <ele>1304.4</ele>
        <time>2022-09-06T14:48:43Z</time>
      </trkpt>
      <trkpt lat="42.4265" lon="1.86685">
        <ele>1306.4</ele>
        <time>2022-09-06T14:48:44Z</time>
      </trkpt>
      <trkpt lat="42.42654" lon="1.86682">
        <ele>1306.4</ele>
        <time>2022-09-06T14:48:45Z</time>
      </trkpt>
      <trkpt lat="42.42658" lon="1.86678">
        <ele>1306.4</ele>
        <time>2022-09-06T14:48:46Z</time>
      </trkpt>
      <trkpt lat="42.42662" lon="1.86674">
        <ele>1306.4</ele>
        <time>2022-09-06T14:48:47Z</time>
      </trkpt>
      <trkpt lat="42.42666" lon="1.8667">
        <ele>1308.8</ele>
        <time>2022-09-06T14:48:48Z</time>
      </trkpt>
      <trkpt lat="42.4267" lon="1.86666">
        <ele>1308.8</ele>
        <time>2022-09-06T14:48:49Z</time>
      </trkpt>
      <trkpt lat="42.42674" lon="1.86662">
        <ele>1308.8</ele>
        <time>2022-09-06T14:48:50Z</time>
      </trkpt>
      <trkpt lat="42.42678" lon="1.86658">
        <ele>1308.8</ele>
        <time>2022-09-06T14:48:51Z</time>
      </trkpt>
      <trkpt lat="42.42682" lon="1.86655">
        <ele>1308.6</ele>
        <time>2022-09-06T14:48:52Z</time>
      </trkpt>
      <trkpt lat="42.42685" lon="1.86651">
        <ele>1308.6</ele>
        <time>2022-09-06T14:48:53Z</time>
      </trkpt>
      <trkpt lat="42.42687" lon="1.86646">
        <ele>1308.6</ele>
        <time>2022-09-06T14:48:54Z</time>
      </trkpt>
      <trkpt lat="42.4269" lon="1.86641">
        <ele>1308.6</ele>
        <time>2022-09-06T14:48:55Z</time>
      </trkpt>
      <trkpt lat="42.42693" lon="1.86637">
        <ele>1309.6</ele>
        <time>2022-09-06T14:48:56Z</time>
      </trkpt>
      <trkpt lat="42.42696" lon="1.86632">
        <ele>1311.2</ele>
        <time>2022-09-06T14:48:57Z</time>
      </trkpt>
      <trkpt lat="42.427" lon="1.86627">
        <ele>1311.2</ele>
        <time>2022-09-06T14:48:58Z</time>
      </trkpt>
      <trkpt lat="42.42703" lon="1.86623">
        <ele>1311.2</ele>
        <time>2022-09-06T14:48:59Z</time>
      </trkpt>
      <trkpt lat="42.42707" lon="1.86618">
        <ele>1311.2</ele>
        <time>2022-09-06T14:49:00Z</time>
      </trkpt>
      <trkpt lat="42.42711" lon="1.86613">
        <ele>1311.6</ele>
        <time>2022-09-06T14:49:01Z</time>
      </trkpt>
      <trkpt lat="42.42714" lon="1.86607">
        <ele>1311.6</ele>
        <time>2022-09-06T14:49:02Z</time>
      </trkpt>
      <trkpt lat="42.42717" lon="1.86602">
        <ele>1311.6</ele>
        <time>2022-09-06T14:49:03Z</time>
      </trkpt>
      <trkpt lat="42.4272" lon="1.86597">
        <ele>1311.6</ele>
        <time>2022-09-06T14:49:04Z</time>
      </trkpt>
      <trkpt lat="42.42723" lon="1.86592">
        <ele>1313.8</ele>
        <time>2022-09-06T14:49:05Z</time>
      </trkpt>
      <trkpt lat="42.42726" lon="1.86587">
        <ele>1313.8</ele>
        <time>2022-09-06T14:49:06Z</time>
      </trkpt>
      <trkpt lat="42.42728" lon="1.86582">
        <ele>1313.8</ele>
        <time>2022-09-06T14:49:07Z</time>
      </trkpt>
      <trkpt lat="42.4273" lon="1.86578">
        <ele>1314.8</ele>
        <time>2022-09-06T14:49:08Z</time>
      </trkpt>
      <trkpt lat="42.42732" lon="1.86573">
        <ele>1314.8</ele>
        <time>2022-09-06T14:49:09Z</time>
      </trkpt>
      <trkpt lat="42.42734" lon="1.86569">
        <ele>1314.8</ele>
        <time>2022-09-06T14:49:10Z</time>
      </trkpt>
      <trkpt lat="42.42736" lon="1.86565">
        <ele>1314.8</ele>
        <time>2022-09-06T14:49:11Z</time>
      </trkpt>
      <trkpt lat="42.42739" lon="1.86561">
        <ele>1315.8</ele>
        <time>2022-09-06T14:49:12Z</time>
      </trkpt>
      <trkpt lat="42.42741" lon="1.86557">
        <ele>1319</ele>
        <time>2022-09-06T14:49:13Z</time>
      </trkpt>
      <trkpt lat="42.42744" lon="1.86553">
        <ele>1319</ele>
        <time>2022-09-06T14:49:14Z</time>
      </trkpt>
      <trkpt lat="42.42746" lon="1.86549">
        <ele>1319</ele>
        <time>2022-09-06T14:49:15Z</time>
      </trkpt>
      <trkpt lat="42.42748" lon="1.86544">
        <ele>1319</ele>
        <time>2022-09-06T14:49:16Z</time>
      </trkpt>
      <trkpt lat="42.4275" lon="1.86539">
        <ele>1320</ele>
        <time>2022-09-06T14:49:17Z</time>
      </trkpt>
      <trkpt lat="42.42752" lon="1.86534">
        <ele>1321.8</ele>
        <time>2022-09-06T14:49:18Z</time>
      </trkpt>
      <trkpt lat="42.42753" lon="1.86529">
        <ele>1321.8</ele>
        <time>2022-09-06T14:49:19Z</time>
      </trkpt>
      <trkpt lat="42.42755" lon="1.86524">
        <ele>1321.8</ele>
        <time>2022-09-06T14:49:20Z</time>
      </trkpt>
      <trkpt lat="42.42757" lon="1.8652">
        <ele>1321.8</ele>
        <time>2022-09-06T14:49:21Z</time>
      </trkpt>
      <trkpt lat="42.42758" lon="1.86515">
        <ele>1324.4</ele>
        <time>2022-09-06T14:49:22Z</time>
      </trkpt>
      <trkpt lat="42.4276" lon="1.8651">
        <ele>1324.4</ele>
        <time>2022-09-06T14:49:23Z</time>
      </trkpt>
      <trkpt lat="42.42761" lon="1.86505">
        <ele>1324.4</ele>
        <time>2022-09-06T14:49:24Z</time>
      </trkpt>
      <trkpt lat="42.42763" lon="1.86501">
        <ele>1325.4</ele>
        <time>2022-09-06T14:49:25Z</time>
      </trkpt>
      <trkpt lat="42.42765" lon="1.86496">
        <ele>1325.4</ele>
        <time>2022-09-06T14:49:26Z</time>
      </trkpt>
      <trkpt lat="42.42767" lon="1.86492">
        <ele>1325.4</ele>
        <time>2022-09-06T14:49:27Z</time>
      </trkpt>
      <trkpt lat="42.42768" lon="1.86487">
        <ele>1325.4</ele>
        <time>2022-09-06T14:49:28Z</time>
      </trkpt>
      <trkpt lat="42.4277" lon="1.86483">
        <ele>1326.4</ele>
        <time>2022-09-06T14:49:29Z</time>
      </trkpt>
      <trkpt lat="42.42772" lon="1.86479">
        <ele>1328.8</ele>
        <time>2022-09-06T14:49:30Z</time>
      </trkpt>
      <trkpt lat="42.42774" lon="1.86474">
        <ele>1328.8</ele>
        <time>2022-09-06T14:49:31Z</time>
      </trkpt>
      <trkpt lat="42.42776" lon="1.86469">
        <ele>1328.8</ele>
        <time>2022-09-06T14:49:32Z</time>
      </trkpt>
      <trkpt lat="42.42778" lon="1.86465">
        <ele>1328.8</ele>
        <time>2022-09-06T14:49:33Z</time>
      </trkpt>
      <trkpt lat="42.4278" lon="1.8646">
        <ele>1329.8</ele>
        <time>2022-09-06T14:49:34Z</time>
      </trkpt>
      <trkpt lat="42.42782" lon="1.86455">
        <ele>1332.2</ele>
        <time>2022-09-06T14:49:35Z</time>
      </trkpt>
      <trkpt lat="42.42784" lon="1.86451">
        <ele>1332.2</ele>
        <time>2022-09-06T14:49:36Z</time>
      </trkpt>
      <trkpt lat="42.42786" lon="1.86446">
        <ele>1332.2</ele>
        <time>2022-09-06T14:49:37Z</time>
      </trkpt>
      <trkpt lat="42.42788" lon="1.86442">
        <ele>1333.2</ele>
        <time>2022-09-06T14:49:38Z</time>
      </trkpt>
      <trkpt lat="42.42789" lon="1.86439">
        <ele>1334</ele>
        <time>2022-09-06T14:49:39Z</time>
      </trkpt>
      <trkpt lat="42.42791" lon="1.86436">
        <ele>1334</ele>
        <time>2022-09-06T14:49:40Z</time>
      </trkpt>
      <trkpt lat="42.42793" lon="1.86434">
        <ele>1334</ele>
        <time>2022-09-06T14:49:41Z</time>
      </trkpt>
      <trkpt lat="42.42795" lon="1.86431">
        <ele>1335</ele>
        <time>2022-09-06T14:49:42Z</time>
      </trkpt>
      <trkpt lat="42.42797" lon="1.86428">
        <ele>1336.6</ele>
        <time>2022-09-06T14:49:43Z</time>
      </trkpt>
      <trkpt lat="42.42799" lon="1.86424">
        <ele>1336.6</ele>
        <time>2022-09-06T14:49:44Z</time>
      </trkpt>
      <trkpt lat="42.428" lon="1.8642">
        <ele>1336.6</ele>
        <time>2022-09-06T14:49:45Z</time>
      </trkpt>
      <trkpt lat="42.42801" lon="1.86417">
        <ele>1337.6</ele>
        <time>2022-09-06T14:49:46Z</time>
      </trkpt>
      <trkpt lat="42.42803" lon="1.86414">
        <ele>1340.6</ele>
        <time>2022-09-06T14:49:47Z</time>
      </trkpt>
      <trkpt lat="42.42805" lon="1.86411">
        <ele>1340.6</ele>
        <time>2022-09-06T14:49:48Z</time>
      </trkpt>
      <trkpt lat="42.42807" lon="1.86408">
        <ele>1340.6</ele>
        <time>2022-09-06T14:49:49Z</time>
      </trkpt>
      <trkpt lat="42.42809" lon="1.86405">
        <ele>1340.6</ele>
        <time>2022-09-06T14:49:50Z</time>
      </trkpt>
      <trkpt lat="42.42811" lon="1.86402">
        <ele>1340.6</ele>
        <time>2022-09-06T14:49:51Z</time>
      </trkpt>
      <trkpt lat="42.42814" lon="1.86398">
        <ele>1340.8</ele>
        <time>2022-09-06T14:49:52Z</time>
      </trkpt>
      <trkpt lat="42.42816" lon="1.86394">
        <ele>1340.8</ele>
        <time>2022-09-06T14:49:53Z</time>
      </trkpt>
      <trkpt lat="42.42818" lon="1.86389">
        <ele>1340.8</ele>
        <time>2022-09-06T14:49:54Z</time>
      </trkpt>
      <trkpt lat="42.42819" lon="1.86383">
        <ele>1341.8</ele>
        <time>2022-09-06T14:49:55Z</time>
      </trkpt>
      <trkpt lat="42.42819" lon="1.86377">
        <ele>1342.6</ele>
        <time>2022-09-06T14:49:56Z</time>
      </trkpt>
      <trkpt lat="42.42819" lon="1.86371">
        <ele>1342.6</ele>
        <time>2022-09-06T14:49:57Z</time>
      </trkpt>
      <trkpt lat="42.4282" lon="1.86366">
        <ele>1342.6</ele>
        <time>2022-09-06T14:49:58Z</time>
      </trkpt>
      <trkpt lat="42.42822" lon="1.8636">
        <ele>1342.6</ele>
        <time>2022-09-06T14:49:59Z</time>
      </trkpt>
      <trkpt lat="42.42824" lon="1.86355">
        <ele>1343.4</ele>
        <time>2022-09-06T14:50:00Z</time>
      </trkpt>
      <trkpt lat="42.42826" lon="1.8635">
        <ele>1343.4</ele>
        <time>2022-09-06T14:50:01Z</time>
      </trkpt>
      <trkpt lat="42.42828" lon="1.86346">
        <ele>1343.4</ele>
        <time>2022-09-06T14:50:02Z</time>
      </trkpt>
      <trkpt lat="42.42831" lon="1.86341">
        <ele>1343.4</ele>
        <time>2022-09-06T14:50:03Z</time>
      </trkpt>
      <trkpt lat="42.42833" lon="1.86336">
        <ele>1344.4</ele>
        <time>2022-09-06T14:50:04Z</time>
      </trkpt>
      <trkpt lat="42.42835" lon="1.8633">
        <ele>1343.6</ele>
        <time>2022-09-06T14:50:05Z</time>
      </trkpt>
      <trkpt lat="42.42837" lon="1.86324">
        <ele>1343.6</ele>
        <time>2022-09-06T14:50:06Z</time>
      </trkpt>
      <trkpt lat="42.42839" lon="1.86319">
        <ele>1343.6</ele>
        <time>2022-09-06T14:50:07Z</time>
      </trkpt>
      <trkpt lat="42.42841" lon="1.86313">
        <ele>1343.6</ele>
        <time>2022-09-06T14:50:08Z</time>
      </trkpt>
      <trkpt lat="42.42843" lon="1.86307">
        <ele>1343.6</ele>
        <time>2022-09-06T14:50:09Z</time>
      </trkpt>
      <trkpt lat="42.42845" lon="1.86301">
        <ele>1343.6</ele>
        <time>2022-09-06T14:50:10Z</time>
      </trkpt>
      <trkpt lat="42.42847" lon="1.86294">
        <ele>1343.6</ele>
        <time>2022-09-06T14:50:11Z</time>
      </trkpt>
      <trkpt lat="42.42849" lon="1.86287">
        <ele>1344.6</ele>
        <time>2022-09-06T14:50:12Z</time>
      </trkpt>
      <trkpt lat="42.42851" lon="1.8628">
        <ele>1344.6</ele>
        <time>2022-09-06T14:50:13Z</time>
      </trkpt>
      <trkpt lat="42.42853" lon="1.86273">
        <ele>1345.2</ele>
        <time>2022-09-06T14:50:14Z</time>
      </trkpt>
      <trkpt lat="42.42854" lon="1.86267">
        <ele>1345.2</ele>
        <time>2022-09-06T14:50:15Z</time>
      </trkpt>
      <trkpt lat="42.42855" lon="1.86261">
        <ele>1345.2</ele>
        <time>2022-09-06T14:50:16Z</time>
      </trkpt>
      <trkpt lat="42.42854" lon="1.86255">
        <ele>1345.6</ele>
        <time>2022-09-06T14:50:17Z</time>
      </trkpt>
      <trkpt lat="42.42852" lon="1.8625">
        <ele>1345.4</ele>
        <time>2022-09-06T14:50:18Z</time>
      </trkpt>
      <trkpt lat="42.42849" lon="1.86244">
        <ele>1345.4</ele>
        <time>2022-09-06T14:50:19Z</time>
      </trkpt>
      <trkpt lat="42.42846" lon="1.86239">
        <ele>1345.4</ele>
        <time>2022-09-06T14:50:20Z</time>
      </trkpt>
      <trkpt lat="42.42843" lon="1.86233">
        <ele>1345.4</ele>
        <time>2022-09-06T14:50:21Z</time>
      </trkpt>
      <trkpt lat="42.42841" lon="1.86226">
        <ele>1343.4</ele>
        <time>2022-09-06T14:50:22Z</time>
      </trkpt>
      <trkpt lat="42.42838" lon="1.86219">
        <ele>1343.4</ele>
        <time>2022-09-06T14:50:23Z</time>
      </trkpt>
      <trkpt lat="42.42836" lon="1.86212">
        <ele>1343.4</ele>
        <time>2022-09-06T14:50:24Z</time>
      </trkpt>
      <trkpt lat="42.42833" lon="1.86204">
        <ele>1342.8</ele>
        <time>2022-09-06T14:50:25Z</time>
      </trkpt>
      <trkpt lat="42.4283" lon="1.86197">
        <ele>1342</ele>
        <time>2022-09-06T14:50:26Z</time>
      </trkpt>
      <trkpt lat="42.42827" lon="1.86189">
        <ele>1342</ele>
        <time>2022-09-06T14:50:27Z</time>
      </trkpt>
      <trkpt lat="42.42824" lon="1.86182">
        <ele>1342</ele>
        <time>2022-09-06T14:50:28Z</time>
      </trkpt>
      <trkpt lat="42.42821" lon="1.86175">
        <ele>1342</ele>
        <time>2022-09-06T14:50:29Z</time>
      </trkpt>
      <trkpt lat="42.42818" lon="1.86167">
        <ele>1342</ele>
        <time>2022-09-06T14:50:30Z</time>
      </trkpt>
      <trkpt lat="42.42815" lon="1.86161">
        <ele>1342.4</ele>
        <time>2022-09-06T14:50:31Z</time>
      </trkpt>
      <trkpt lat="42.42812" lon="1.86154">
        <ele>1342.4</ele>
        <time>2022-09-06T14:50:32Z</time>
      </trkpt>
      <trkpt lat="42.42808" lon="1.86148">
        <ele>1342.4</ele>
        <time>2022-09-06T14:50:33Z</time>
      </trkpt>
      <trkpt lat="42.42804" lon="1.86141">
        <ele>1341.4</ele>
        <time>2022-09-06T14:50:34Z</time>
      </trkpt>
      <trkpt lat="42.428" lon="1.86136">
        <ele>1340.6</ele>
        <time>2022-09-06T14:50:35Z</time>
      </trkpt>
      <trkpt lat="42.42797" lon="1.8613">
        <ele>1340.6</ele>
        <time>2022-09-06T14:50:36Z</time>
      </trkpt>
      <trkpt lat="42.42794" lon="1.86124">
        <ele>1340.6</ele>
        <time>2022-09-06T14:50:37Z</time>
      </trkpt>
      <trkpt lat="42.4279" lon="1.86119">
        <ele>1340.6</ele>
        <time>2022-09-06T14:50:38Z</time>
      </trkpt>
      <trkpt lat="42.42787" lon="1.86113">
        <ele>1338</ele>
        <time>2022-09-06T14:50:39Z</time>
      </trkpt>
      <trkpt lat="42.42784" lon="1.86108">
        <ele>1338</ele>
        <time>2022-09-06T14:50:40Z</time>
      </trkpt>
      <trkpt lat="42.4278" lon="1.86102">
        <ele>1338</ele>
        <time>2022-09-06T14:50:41Z</time>
      </trkpt>
      <trkpt lat="42.42777" lon="1.86095">
        <ele>1338</ele>
        <time>2022-09-06T14:50:42Z</time>
      </trkpt>
      <trkpt lat="42.42774" lon="1.86087">
        <ele>1337</ele>
        <time>2022-09-06T14:50:43Z</time>
      </trkpt>
      <trkpt lat="42.4277" lon="1.86078">
        <ele>1335.8</ele>
        <time>2022-09-06T14:50:44Z</time>
      </trkpt>
      <trkpt lat="42.42766" lon="1.8607">
        <ele>1335.8</ele>
        <time>2022-09-06T14:50:45Z</time>
      </trkpt>
      <trkpt lat="42.42762" lon="1.86061">
        <ele>1335.8</ele>
        <time>2022-09-06T14:50:46Z</time>
      </trkpt>
      <trkpt lat="42.42759" lon="1.86053">
        <ele>1335.8</ele>
        <time>2022-09-06T14:50:47Z</time>
      </trkpt>
      <trkpt lat="42.42756" lon="1.86045">
        <ele>1337.2</ele>
        <time>2022-09-06T14:50:48Z</time>
      </trkpt>
      <trkpt lat="42.42752" lon="1.86037">
        <ele>1337.2</ele>
        <time>2022-09-06T14:50:49Z</time>
      </trkpt>
      <trkpt lat="42.42749" lon="1.8603">
        <ele>1337.2</ele>
        <time>2022-09-06T14:50:50Z</time>
      </trkpt>
      <trkpt lat="42.42746" lon="1.86022">
        <ele>1337.2</ele>
        <time>2022-09-06T14:50:51Z</time>
      </trkpt>
      <trkpt lat="42.42743" lon="1.86015">
        <ele>1337.2</ele>
        <time>2022-09-06T14:50:52Z</time>
      </trkpt>
      <trkpt lat="42.42741" lon="1.86009">
        <ele>1337.2</ele>
        <time>2022-09-06T14:50:53Z</time>
      </trkpt>
      <trkpt lat="42.42738" lon="1.86003">
        <ele>1337.2</ele>
        <time>2022-09-06T14:50:54Z</time>
      </trkpt>
      <trkpt lat="42.42736" lon="1.85995">
        <ele>1337</ele>
        <time>2022-09-06T14:50:55Z</time>
      </trkpt>
      <trkpt lat="42.42733" lon="1.85987">
        <ele>1337</ele>
        <time>2022-09-06T14:50:56Z</time>
      </trkpt>
      <trkpt lat="42.42731" lon="1.85978">
        <ele>1336.6</ele>
        <time>2022-09-06T14:50:57Z</time>
      </trkpt>
      <trkpt lat="42.42729" lon="1.8597">
        <ele>1336.6</ele>
        <time>2022-09-06T14:50:58Z</time>
      </trkpt>
      <trkpt lat="42.42726" lon="1.85962">
        <ele>1336.6</ele>
        <time>2022-09-06T14:50:59Z</time>
      </trkpt>
      <trkpt lat="42.42724" lon="1.85953">
        <ele>1336.6</ele>
        <time>2022-09-06T14:51:00Z</time>
      </trkpt>
      <trkpt lat="42.42722" lon="1.85945">
        <ele>1334.2</ele>
        <time>2022-09-06T14:51:01Z</time>
      </trkpt>
      <trkpt lat="42.4272" lon="1.85937">
        <ele>1334.2</ele>
        <time>2022-09-06T14:51:02Z</time>
      </trkpt>
      <trkpt lat="42.42719" lon="1.85928">
        <ele>1334.2</ele>
        <time>2022-09-06T14:51:03Z</time>
      </trkpt>
      <trkpt lat="42.42717" lon="1.8592">
        <ele>1335.2</ele>
        <time>2022-09-06T14:51:04Z</time>
      </trkpt>
      <trkpt lat="42.42716" lon="1.85912">
        <ele>1337.8</ele>
        <time>2022-09-06T14:51:05Z</time>
      </trkpt>
      <trkpt lat="42.42714" lon="1.85904">
        <ele>1337.8</ele>
        <time>2022-09-06T14:51:06Z</time>
      </trkpt>
      <trkpt lat="42.42712" lon="1.85896">
        <ele>1337.8</ele>
        <time>2022-09-06T14:51:07Z</time>
      </trkpt>
      <trkpt lat="42.42711" lon="1.85888">
        <ele>1337.8</ele>
        <time>2022-09-06T14:51:08Z</time>
      </trkpt>
      <trkpt lat="42.4271" lon="1.85881">
        <ele>1335.4</ele>
        <time>2022-09-06T14:51:09Z</time>
      </trkpt>
      <trkpt lat="42.42709" lon="1.85874">
        <ele>1335.4</ele>
        <time>2022-09-06T14:51:10Z</time>
      </trkpt>
      <trkpt lat="42.42709" lon="1.85868">
        <ele>1335.4</ele>
        <time>2022-09-06T14:51:11Z</time>
      </trkpt>
      <trkpt lat="42.42708" lon="1.85862">
        <ele>1335.4</ele>
        <time>2022-09-06T14:51:12Z</time>
      </trkpt>
      <trkpt lat="42.42706" lon="1.85858">
        <ele>1336.4</ele>
        <time>2022-09-06T14:51:13Z</time>
      </trkpt>
      <trkpt lat="42.42703" lon="1.85858">
        <ele>1335.4</ele>
        <time>2022-09-06T14:51:14Z</time>
      </trkpt>
      <trkpt lat="42.42699" lon="1.85859">
        <ele>1335.4</ele>
        <time>2022-09-06T14:51:15Z</time>
      </trkpt>
      <trkpt lat="42.42693" lon="1.85861">
        <ele>1335.4</ele>
        <time>2022-09-06T14:51:16Z</time>
      </trkpt>
      <trkpt lat="42.42686" lon="1.85864">
        <ele>1334.4</ele>
        <time>2022-09-06T14:51:17Z</time>
      </trkpt>
      <trkpt lat="42.42678" lon="1.85867">
        <ele>1331.2</ele>
        <time>2022-09-06T14:51:18Z</time>
      </trkpt>
      <trkpt lat="42.42671" lon="1.85869">
        <ele>1331.2</ele>
        <time>2022-09-06T14:51:19Z</time>
      </trkpt>
      <trkpt lat="42.42663" lon="1.85871">
        <ele>1331.2</ele>
        <time>2022-09-06T14:51:20Z</time>
      </trkpt>
      <trkpt lat="42.42655" lon="1.85874">
        <ele>1330.2</ele>
        <time>2022-09-06T14:51:21Z</time>
      </trkpt>
      <trkpt lat="42.42649" lon="1.85878">
        <ele>1329.6</ele>
        <time>2022-09-06T14:51:22Z</time>
      </trkpt>
      <trkpt lat="42.42644" lon="1.85885">
        <ele>1329.6</ele>
        <time>2022-09-06T14:51:23Z</time>
      </trkpt>
      <trkpt lat="42.4264" lon="1.85892">
        <ele>1329.6</ele>
        <time>2022-09-06T14:51:24Z</time>
      </trkpt>
      <trkpt lat="42.42635" lon="1.85898">
        <ele>1328.6</ele>
        <time>2022-09-06T14:51:25Z</time>
      </trkpt>
      <trkpt lat="42.4263" lon="1.85906">
        <ele>1325.2</ele>
        <time>2022-09-06T14:51:26Z</time>
      </trkpt>
      <trkpt lat="42.42627" lon="1.85914">
        <ele>1325.2</ele>
        <time>2022-09-06T14:51:27Z</time>
      </trkpt>
      <trkpt lat="42.42625" lon="1.85924">
        <ele>1325.2</ele>
        <time>2022-09-06T14:51:28Z</time>
      </trkpt>
      <trkpt lat="42.42623" lon="1.85935">
        <ele>1325.2</ele>
        <time>2022-09-06T14:51:29Z</time>
      </trkpt>
      <trkpt lat="42.4262" lon="1.85948">
        <ele>1324.2</ele>
        <time>2022-09-06T14:51:30Z</time>
      </trkpt>
      <trkpt lat="42.42616" lon="1.85961">
        <ele>1319</ele>
        <time>2022-09-06T14:51:31Z</time>
      </trkpt>
      <trkpt lat="42.42613" lon="1.85972">
        <ele>1319</ele>
        <time>2022-09-06T14:51:32Z</time>
      </trkpt>
      <trkpt lat="42.42609" lon="1.85983">
        <ele>1319</ele>
        <time>2022-09-06T14:51:33Z</time>
      </trkpt>
      <trkpt lat="42.42604" lon="1.85993">
        <ele>1318</ele>
        <time>2022-09-06T14:51:34Z</time>
      </trkpt>
      <trkpt lat="42.426" lon="1.86">
        <ele>1318.2</ele>
        <time>2022-09-06T14:51:35Z</time>
      </trkpt>
      <trkpt lat="42.42595" lon="1.86006">
        <ele>1318.2</ele>
        <time>2022-09-06T14:51:36Z</time>
      </trkpt>
      <trkpt lat="42.42589" lon="1.86011">
        <ele>1318.2</ele>
        <time>2022-09-06T14:51:37Z</time>
      </trkpt>
      <trkpt lat="42.42584" lon="1.86016">
        <ele>1317.2</ele>
        <time>2022-09-06T14:51:38Z</time>
      </trkpt>
      <trkpt lat="42.4258" lon="1.86022">
        <ele>1310.6</ele>
        <time>2022-09-06T14:51:39Z</time>
      </trkpt>
      <trkpt lat="42.42577" lon="1.86027">
        <ele>1310.6</ele>
        <time>2022-09-06T14:51:40Z</time>
      </trkpt>
      <trkpt lat="42.42574" lon="1.86034">
        <ele>1310.6</ele>
        <time>2022-09-06T14:51:41Z</time>
      </trkpt>
      <trkpt lat="42.4257" lon="1.86042">
        <ele>1309.6</ele>
        <time>2022-09-06T14:51:42Z</time>
      </trkpt>
      <trkpt lat="42.42566" lon="1.86051">
        <ele>1297.8</ele>
        <time>2022-09-06T14:51:43Z</time>
      </trkpt>
      <trkpt lat="42.42563" lon="1.86062">
        <ele>1297.8</ele>
        <time>2022-09-06T14:51:44Z</time>
      </trkpt>
      <trkpt lat="42.4256" lon="1.86073">
        <ele>1297.8</ele>
        <time>2022-09-06T14:51:45Z</time>
      </trkpt>
      <trkpt lat="42.42558" lon="1.86083">
        <ele>1297.8</ele>
        <time>2022-09-06T14:51:46Z</time>
      </trkpt>
      <trkpt lat="42.42556" lon="1.86091">
        <ele>1297.8</ele>
        <time>2022-09-06T14:51:47Z</time>
      </trkpt>
      <trkpt lat="42.42552" lon="1.86095">
        <ele>1297.6</ele>
        <time>2022-09-06T14:51:48Z</time>
      </trkpt>
      <trkpt lat="42.42546" lon="1.86096">
        <ele>1297.6</ele>
        <time>2022-09-06T14:51:49Z</time>
      </trkpt>
      <trkpt lat="42.42539" lon="1.86094">
        <ele>1297.6</ele>
        <time>2022-09-06T14:51:50Z</time>
      </trkpt>
      <trkpt lat="42.42532" lon="1.86091">
        <ele>1296.6</ele>
        <time>2022-09-06T14:51:51Z</time>
      </trkpt>
      <trkpt lat="42.42525" lon="1.86089">
        <ele>1288.6</ele>
        <time>2022-09-06T14:51:52Z</time>
      </trkpt>
      <trkpt lat="42.42517" lon="1.86088">
        <ele>1288.6</ele>
        <time>2022-09-06T14:51:53Z</time>
      </trkpt>
      <trkpt lat="42.4251" lon="1.8609">
        <ele>1288.6</ele>
        <time>2022-09-06T14:51:54Z</time>
      </trkpt>
      <trkpt lat="42.42503" lon="1.86092">
        <ele>1287.6</ele>
        <time>2022-09-06T14:51:55Z</time>
      </trkpt>
      <trkpt lat="42.42497" lon="1.86096">
        <ele>1286.2</ele>
        <time>2022-09-06T14:51:56Z</time>
      </trkpt>
      <trkpt lat="42.4249" lon="1.86097">
        <ele>1286.2</ele>
        <time>2022-09-06T14:51:57Z</time>
      </trkpt>
      <trkpt lat="42.42483" lon="1.86097">
        <ele>1286.2</ele>
        <time>2022-09-06T14:51:58Z</time>
      </trkpt>
      <trkpt lat="42.42476" lon="1.86097">
        <ele>1286.2</ele>
        <time>2022-09-06T14:51:59Z</time>
      </trkpt>
      <trkpt lat="42.42469" lon="1.86098">
        <ele>1285.2</ele>
        <time>2022-09-06T14:52:00Z</time>
      </trkpt>
      <trkpt lat="42.42461" lon="1.86099">
        <ele>1271.6</ele>
        <time>2022-09-06T14:52:01Z</time>
      </trkpt>
      <trkpt lat="42.42453" lon="1.861">
        <ele>1271.6</ele>
        <time>2022-09-06T14:52:02Z</time>
      </trkpt>
      <trkpt lat="42.42445" lon="1.861">
        <ele>1271.6</ele>
        <time>2022-09-06T14:52:03Z</time>
      </trkpt>
      <trkpt lat="42.42437" lon="1.86101">
        <ele>1271.6</ele>
        <time>2022-09-06T14:52:04Z</time>
      </trkpt>
      <trkpt lat="42.42428" lon="1.86103">
        <ele>1267.8</ele>
        <time>2022-09-06T14:52:05Z</time>
      </trkpt>
      <trkpt lat="42.4242" lon="1.86107">
        <ele>1267.8</ele>
        <time>2022-09-06T14:52:06Z</time>
      </trkpt>
      <trkpt lat="42.42414" lon="1.86113">
        <ele>1267.8</ele>
        <time>2022-09-06T14:52:07Z</time>
      </trkpt>
      <trkpt lat="42.42408" lon="1.86118">
        <ele>1266.8</ele>
        <time>2022-09-06T14:52:08Z</time>
      </trkpt>
      <trkpt lat="42.42402" lon="1.86122">
        <ele>1261</ele>
        <time>2022-09-06T14:52:09Z</time>
      </trkpt>
      <trkpt lat="42.42399" lon="1.86127">
        <ele>1261</ele>
        <time>2022-09-06T14:52:10Z</time>
      </trkpt>
      <trkpt lat="42.42396" lon="1.86132">
        <ele>1261</ele>
        <time>2022-09-06T14:52:11Z</time>
      </trkpt>
      <trkpt lat="42.42392" lon="1.86139">
        <ele>1261</ele>
        <time>2022-09-06T14:52:12Z</time>
      </trkpt>
      <trkpt lat="42.42387" lon="1.86146">
        <ele>1260</ele>
        <time>2022-09-06T14:52:13Z</time>
      </trkpt>
      <trkpt lat="42.42381" lon="1.86153">
        <ele>1254.6</ele>
        <time>2022-09-06T14:52:14Z</time>
      </trkpt>
      <trkpt lat="42.42374" lon="1.86159">
        <ele>1254.6</ele>
        <time>2022-09-06T14:52:15Z</time>
      </trkpt>
      <trkpt lat="42.42368" lon="1.86165">
        <ele>1254.6</ele>
        <time>2022-09-06T14:52:16Z</time>
      </trkpt>
      <trkpt lat="42.42362" lon="1.86172">
        <ele>1253.6</ele>
        <time>2022-09-06T14:52:17Z</time>
      </trkpt>
      <trkpt lat="42.42355" lon="1.86179">
        <ele>1250</ele>
        <time>2022-09-06T14:52:18Z</time>
      </trkpt>
      <trkpt lat="42.42349" lon="1.86184">
        <ele>1250</ele>
        <time>2022-09-06T14:52:19Z</time>
      </trkpt>
      <trkpt lat="42.42342" lon="1.86187">
        <ele>1250</ele>
        <time>2022-09-06T14:52:20Z</time>
      </trkpt>
      <trkpt lat="42.42335" lon="1.86187">
        <ele>1249</ele>
        <time>2022-09-06T14:52:21Z</time>
      </trkpt>
      <trkpt lat="42.42329" lon="1.86187">
        <ele>1238.2</ele>
        <time>2022-09-06T14:52:22Z</time>
      </trkpt>
      <trkpt lat="42.42322" lon="1.86189">
        <ele>1238.2</ele>
        <time>2022-09-06T14:52:23Z</time>
      </trkpt>
      <trkpt lat="42.423169" lon="1.861929">
        <ele>1227.8</ele>
        <time>2022-09-06T14:52:23Z</time>
      </trkpt>
      <trkpt lat="42.423123" lon="1.861998">
        <ele>1226.5</ele>
        <time>2022-09-06T14:52:24Z</time>
      </trkpt>
      <trkpt lat="42.422975" lon="1.862084">
        <ele>1223</ele>
        <time>2022-09-06T14:52:26Z</time>
      </trkpt>
      <trkpt lat="42.422811" lon="1.862275">
        <ele>1218.3</ele>
        <time>2022-09-06T14:52:29Z</time>
      </trkpt>
      <trkpt lat="42.422538" lon="1.862488">
        <ele>1210.8</ele>
        <time>2022-09-06T14:52:32Z</time>
      </trkpt>
      <trkpt lat="42.422359" lon="1.862673">
        <ele>1205.3</ele>
        <time>2022-09-06T14:52:35Z</time>
      </trkpt>
      <trkpt lat="42.422162" lon="1.862779">
        <ele>1201</ele>
        <time>2022-09-06T14:52:38Z</time>
      </trkpt>
      <trkpt lat="42.422014" lon="1.862903">
        <ele>1197.8</ele>
        <time>2022-09-06T14:52:40Z</time>
      </trkpt>
      <trkpt lat="42.421939" lon="1.863008">
        <ele>1196</ele>
        <time>2022-09-06T14:52:41Z</time>
      </trkpt>
      <trkpt lat="42.421945" lon="1.863006">
        <ele>1196</ele>
        <time>2022-09-06T14:52:41Z</time>
      </trkpt>
      <trkpt lat="42.421939" lon="1.863008">
        <ele>1196</ele>
        <time>2022-09-06T14:52:41Z</time>
      </trkpt>
      <trkpt lat="42.421885" lon="1.862834">
        <ele>1196.3</ele>
        <time>2022-09-06T14:52:43Z</time>
      </trkpt>
      <trkpt lat="42.42184" lon="1.862689">
        <ele>1196.8</ele>
        <time>2022-09-06T14:52:44Z</time>
      </trkpt>
      <trkpt lat="42.421838" lon="1.862651">
        <ele>1196.8</ele>
        <time>2022-09-06T14:52:45Z</time>
      </trkpt>
      <trkpt lat="42.421834" lon="1.862515">
        <ele>1197.8</ele>
        <time>2022-09-06T14:52:46Z</time>
      </trkpt>
      <trkpt lat="42.421822" lon="1.862449">
        <ele>1197.8</ele>
        <time>2022-09-06T14:52:46Z</time>
      </trkpt>
      <trkpt lat="42.421813" lon="1.862398">
        <ele>1197.8</ele>
        <time>2022-09-06T14:52:47Z</time>
      </trkpt>
      <trkpt lat="42.421799" lon="1.862382">
        <ele>1197.5</ele>
        <time>2022-09-06T14:52:47Z</time>
      </trkpt>
      <trkpt lat="42.421767" lon="1.862342">
        <ele>1197</ele>
        <time>2022-09-06T14:52:48Z</time>
      </trkpt>
      <trkpt lat="42.421728" lon="1.862316">
        <ele>1196.3</ele>
        <time>2022-09-06T14:52:48Z</time>
      </trkpt>
      <trkpt lat="42.421695" lon="1.862294">
        <ele>1195.8</ele>
        <time>2022-09-06T14:52:49Z</time>
      </trkpt>
      <trkpt lat="42.421575" lon="1.862279">
        <ele>1193.3</ele>
        <time>2022-09-06T14:52:50Z</time>
      </trkpt>
      <trkpt lat="42.421536" lon="1.862274">
        <ele>1192.5</ele>
        <time>2022-09-06T14:52:51Z</time>
      </trkpt>
      <trkpt lat="42.421483" lon="1.862207">
        <ele>1191.5</ele>
        <time>2022-09-06T14:52:52Z</time>
      </trkpt>
      <trkpt lat="42.421477" lon="1.862182">
        <ele>1191.3</ele>
        <time>2022-09-06T14:52:52Z</time>
      </trkpt>
      <trkpt lat="42.421447" lon="1.862034">
        <ele>1190.8</ele>
        <time>2022-09-06T14:52:54Z</time>
      </trkpt>
      <trkpt lat="42.421413" lon="1.861836">
        <ele>1190</ele>
        <time>2022-09-06T14:52:56Z</time>
      </trkpt>
      <trkpt lat="42.421399" lon="1.861753">
        <ele>1189.8</ele>
        <time>2022-09-06T14:52:57Z</time>
      </trkpt>
      <trkpt lat="42.421396" lon="1.861425">
        <ele>1188.5</ele>
        <time>2022-09-06T14:53:00Z</time>
      </trkpt>
      <trkpt lat="42.421353" lon="1.861134">
        <ele>1186</ele>
        <time>2022-09-06T14:53:03Z</time>
      </trkpt>
      <trkpt lat="42.421325" lon="1.860745">
        <ele>1183.3</ele>
        <time>2022-09-06T14:53:07Z</time>
      </trkpt>
      <trkpt lat="42.421332" lon="1.860697">
        <ele>1183</ele>
        <time>2022-09-06T14:53:08Z</time>
      </trkpt>
      <trkpt lat="42.42135" lon="1.8606">
        <ele>1195.4</ele>
        <time>2022-09-06T14:53:09Z</time>
      </trkpt>
      <trkpt lat="42.42136" lon="1.8605">
        <ele>1195.4</ele>
        <time>2022-09-06T14:53:10Z</time>
      </trkpt>
      <trkpt lat="42.4214" lon="1.86041">
        <ele>1196.6</ele>
        <time>2022-09-06T14:53:11Z</time>
      </trkpt>
      <trkpt lat="42.42145" lon="1.86033">
        <ele>1196.6</ele>
        <time>2022-09-06T14:53:12Z</time>
      </trkpt>
      <trkpt lat="42.4215" lon="1.86026">
        <ele>1196.6</ele>
        <time>2022-09-06T14:53:13Z</time>
      </trkpt>
      <trkpt lat="42.42154" lon="1.86018">
        <ele>1195.6</ele>
        <time>2022-09-06T14:53:14Z</time>
      </trkpt>
      <trkpt lat="42.42158" lon="1.8601">
        <ele>1194.2</ele>
        <time>2022-09-06T14:53:15Z</time>
      </trkpt>
      <trkpt lat="42.42162" lon="1.86003">
        <ele>1194.2</ele>
        <time>2022-09-06T14:53:16Z</time>
      </trkpt>
      <trkpt lat="42.42166" lon="1.85995">
        <ele>1194.2</ele>
        <time>2022-09-06T14:53:17Z</time>
      </trkpt>
      <trkpt lat="42.4217" lon="1.85989">
        <ele>1193.2</ele>
        <time>2022-09-06T14:53:18Z</time>
      </trkpt>
      <trkpt lat="42.42175" lon="1.85984">
        <ele>1189.8</ele>
        <time>2022-09-06T14:53:19Z</time>
      </trkpt>
      <trkpt lat="42.42179" lon="1.8598">
        <ele>1189.8</ele>
        <time>2022-09-06T14:53:20Z</time>
      </trkpt>
      <trkpt lat="42.42182" lon="1.85975">
        <ele>1189.8</ele>
        <time>2022-09-06T14:53:21Z</time>
      </trkpt>
      <trkpt lat="42.42184" lon="1.85969">
        <ele>1189.8</ele>
        <time>2022-09-06T14:53:22Z</time>
      </trkpt>
      <trkpt lat="42.42182" lon="1.85964">
        <ele>1191.2</ele>
        <time>2022-09-06T14:53:23Z</time>
      </trkpt>
      <trkpt lat="42.42179" lon="1.8596">
        <ele>1191.2</ele>
        <time>2022-09-06T14:53:24Z</time>
      </trkpt>
      <trkpt lat="42.42175" lon="1.85957">
        <ele>1191.2</ele>
        <time>2022-09-06T14:53:25Z</time>
      </trkpt>
      <trkpt lat="42.42171" lon="1.85954">
        <ele>1191.2</ele>
        <time>2022-09-06T14:53:26Z</time>
      </trkpt>
      <trkpt lat="42.42165" lon="1.85951">
        <ele>1191.2</ele>
        <time>2022-09-06T14:53:27Z</time>
      </trkpt>
      <trkpt lat="42.42159" lon="1.85947">
        <ele>1190.2</ele>
        <time>2022-09-06T14:53:28Z</time>
      </trkpt>
      <trkpt lat="42.42153" lon="1.85944">
        <ele>1190.2</ele>
        <time>2022-09-06T14:53:29Z</time>
      </trkpt>
      <trkpt lat="42.42147" lon="1.85941">
        <ele>1190.2</ele>
        <time>2022-09-06T14:53:30Z</time>
      </trkpt>
      <trkpt lat="42.4214" lon="1.85938">
        <ele>1191.2</ele>
        <time>2022-09-06T14:53:31Z</time>
      </trkpt>
      <trkpt lat="42.42134" lon="1.85936">
        <ele>1188.8</ele>
        <time>2022-09-06T14:53:32Z</time>
      </trkpt>
      <trkpt lat="42.42127" lon="1.85933">
        <ele>1188.8</ele>
        <time>2022-09-06T14:53:33Z</time>
      </trkpt>
      <trkpt lat="42.4212" lon="1.85931">
        <ele>1188.8</ele>
        <time>2022-09-06T14:53:34Z</time>
      </trkpt>
      <trkpt lat="42.42114" lon="1.85929">
        <ele>1189.8</ele>
        <time>2022-09-06T14:53:35Z</time>
      </trkpt>
      <trkpt lat="42.42107" lon="1.85928">
        <ele>1191.8</ele>
        <time>2022-09-06T14:53:36Z</time>
      </trkpt>
      <trkpt lat="42.42101" lon="1.85928">
        <ele>1191.8</ele>
        <time>2022-09-06T14:53:37Z</time>
      </trkpt>
      <trkpt lat="42.42094" lon="1.85929">
        <ele>1191.8</ele>
        <time>2022-09-06T14:53:38Z</time>
      </trkpt>
      <trkpt lat="42.42087" lon="1.8593">
        <ele>1191.8</ele>
        <time>2022-09-06T14:53:39Z</time>
      </trkpt>
      <trkpt lat="42.4208" lon="1.85929">
        <ele>1192.6</ele>
        <time>2022-09-06T14:53:40Z</time>
      </trkpt>
      <trkpt lat="42.42075" lon="1.85927">
        <ele>1192.6</ele>
        <time>2022-09-06T14:53:41Z</time>
      </trkpt>
      <trkpt lat="42.4207" lon="1.85924">
        <ele>1192.6</ele>
        <time>2022-09-06T14:53:42Z</time>
      </trkpt>
      <trkpt lat="42.42065" lon="1.8592">
        <ele>1191.6</ele>
        <time>2022-09-06T14:53:43Z</time>
      </trkpt>
      <trkpt lat="42.42059" lon="1.85916">
        <ele>1193.2</ele>
        <time>2022-09-06T14:53:44Z</time>
      </trkpt>
      <trkpt lat="42.42053" lon="1.85912">
        <ele>1193.2</ele>
        <time>2022-09-06T14:53:45Z</time>
      </trkpt>
      <trkpt lat="42.42048" lon="1.85907">
        <ele>1193.2</ele>
        <time>2022-09-06T14:53:46Z</time>
      </trkpt>
      <trkpt lat="42.42043" lon="1.85901">
        <ele>1193.2</ele>
        <time>2022-09-06T14:53:47Z</time>
      </trkpt>
      <trkpt lat="42.42038" lon="1.85895">
        <ele>1192.2</ele>
        <time>2022-09-06T14:53:48Z</time>
      </trkpt>
      <trkpt lat="42.42033" lon="1.85888">
        <ele>1192</ele>
        <time>2022-09-06T14:53:49Z</time>
      </trkpt>
      <trkpt lat="42.42028" lon="1.85881">
        <ele>1192</ele>
        <time>2022-09-06T14:53:50Z</time>
      </trkpt>
      <trkpt lat="42.42024" lon="1.85874">
        <ele>1192</ele>
        <time>2022-09-06T14:53:51Z</time>
      </trkpt>
      <trkpt lat="42.4202" lon="1.85868">
        <ele>1191.8</ele>
        <time>2022-09-06T14:53:52Z</time>
      </trkpt>
      <trkpt lat="42.42016" lon="1.85862">
        <ele>1191.8</ele>
        <time>2022-09-06T14:53:53Z</time>
      </trkpt>
      <trkpt lat="42.42012" lon="1.85856">
        <ele>1191.8</ele>
        <time>2022-09-06T14:53:54Z</time>
      </trkpt>
      <trkpt lat="42.42006" lon="1.8585">
        <ele>1191.8</ele>
        <time>2022-09-06T14:53:55Z</time>
      </trkpt>
      <trkpt lat="42.42" lon="1.85844">
        <ele>1191.8</ele>
        <time>2022-09-06T14:53:56Z</time>
      </trkpt>
      <trkpt lat="42.41994" lon="1.8584">
        <ele>1187.8</ele>
        <time>2022-09-06T14:53:57Z</time>
      </trkpt>
      <trkpt lat="42.41988" lon="1.85836">
        <ele>1187.8</ele>
        <time>2022-09-06T14:53:58Z</time>
      </trkpt>
      <trkpt lat="42.41982" lon="1.85831">
        <ele>1187.8</ele>
        <time>2022-09-06T14:53:59Z</time>
      </trkpt>
      <trkpt lat="42.41977" lon="1.85826">
        <ele>1188.8</ele>
        <time>2022-09-06T14:54:00Z</time>
      </trkpt>
      <trkpt lat="42.41972" lon="1.8582">
        <ele>1188.4</ele>
        <time>2022-09-06T14:54:01Z</time>
      </trkpt>
      <trkpt lat="42.41967" lon="1.85815">
        <ele>1188.4</ele>
        <time>2022-09-06T14:54:02Z</time>
      </trkpt>
      <trkpt lat="42.41963" lon="1.85809">
        <ele>1188.4</ele>
        <time>2022-09-06T14:54:03Z</time>
      </trkpt>
      <trkpt lat="42.41958" lon="1.85804">
        <ele>1188.4</ele>
        <time>2022-09-06T14:54:04Z</time>
      </trkpt>
      <trkpt lat="42.41953" lon="1.85799">
        <ele>1189.2</ele>
        <time>2022-09-06T14:54:05Z</time>
      </trkpt>
      <trkpt lat="42.41948" lon="1.85794">
        <ele>1190.2</ele>
        <time>2022-09-06T14:54:06Z</time>
      </trkpt>
      <trkpt lat="42.41943" lon="1.85789">
        <ele>1190.2</ele>
        <time>2022-09-06T14:54:07Z</time>
      </trkpt>
      <trkpt lat="42.41938" lon="1.85785">
        <ele>1190.2</ele>
        <time>2022-09-06T14:54:08Z</time>
      </trkpt>
      <trkpt lat="42.41933" lon="1.8578">
        <ele>1190.2</ele>
        <time>2022-09-06T14:54:09Z</time>
      </trkpt>
      <trkpt lat="42.41928" lon="1.85775">
        <ele>1187.6</ele>
        <time>2022-09-06T14:54:10Z</time>
      </trkpt>
      <trkpt lat="42.41923" lon="1.8577">
        <ele>1187.6</ele>
        <time>2022-09-06T14:54:11Z</time>
      </trkpt>
      <trkpt lat="42.41918" lon="1.85765">
        <ele>1187.6</ele>
        <time>2022-09-06T14:54:12Z</time>
      </trkpt>
      <trkpt lat="42.41913" lon="1.85759">
        <ele>1188.6</ele>
        <time>2022-09-06T14:54:13Z</time>
      </trkpt>
      <trkpt lat="42.4191" lon="1.85754">
        <ele>1188.4</ele>
        <time>2022-09-06T14:54:14Z</time>
      </trkpt>
      <trkpt lat="42.41906" lon="1.85748">
        <ele>1188.4</ele>
        <time>2022-09-06T14:54:15Z</time>
      </trkpt>
      <trkpt lat="42.41901" lon="1.85742">
        <ele>1188.4</ele>
        <time>2022-09-06T14:54:16Z</time>
      </trkpt>
      <trkpt lat="42.41898" lon="1.85737">
        <ele>1189.4</ele>
        <time>2022-09-06T14:54:17Z</time>
      </trkpt>
      <trkpt lat="42.41895" lon="1.8573">
        <ele>1189.8</ele>
        <time>2022-09-06T14:54:18Z</time>
      </trkpt>
      <trkpt lat="42.41893" lon="1.85723">
        <ele>1189.8</ele>
        <time>2022-09-06T14:54:19Z</time>
      </trkpt>
      <trkpt lat="42.41892" lon="1.85715">
        <ele>1189.8</ele>
        <time>2022-09-06T14:54:20Z</time>
      </trkpt>
      <trkpt lat="42.41891" lon="1.85708">
        <ele>1190.8</ele>
        <time>2022-09-06T14:54:21Z</time>
      </trkpt>
      <trkpt lat="42.41891" lon="1.85701">
        <ele>1190.8</ele>
        <time>2022-09-06T14:54:22Z</time>
      </trkpt>
      <trkpt lat="42.4189" lon="1.85694">
        <ele>1194</ele>
        <time>2022-09-06T14:54:23Z</time>
      </trkpt>
      <trkpt lat="42.41889" lon="1.85687">
        <ele>1194</ele>
        <time>2022-09-06T14:54:24Z</time>
      </trkpt>
      <trkpt lat="42.41887" lon="1.85681">
        <ele>1194</ele>
        <time>2022-09-06T14:54:25Z</time>
      </trkpt>
      <trkpt lat="42.41886" lon="1.85674">
        <ele>1193</ele>
        <time>2022-09-06T14:54:26Z</time>
      </trkpt>
      <trkpt lat="42.41884" lon="1.85667">
        <ele>1194.8</ele>
        <time>2022-09-06T14:54:27Z</time>
      </trkpt>
      <trkpt lat="42.41882" lon="1.85659">
        <ele>1194.8</ele>
        <time>2022-09-06T14:54:28Z</time>
      </trkpt>
      <trkpt lat="42.4188" lon="1.85652">
        <ele>1194.8</ele>
        <time>2022-09-06T14:54:29Z</time>
      </trkpt>
      <trkpt lat="42.41877" lon="1.85645">
        <ele>1193.8</ele>
        <time>2022-09-06T14:54:30Z</time>
      </trkpt>
      <trkpt lat="42.41875" lon="1.85637">
        <ele>1191.8</ele>
        <time>2022-09-06T14:54:31Z</time>
      </trkpt>
      <trkpt lat="42.41872" lon="1.8563">
        <ele>1191.8</ele>
        <time>2022-09-06T14:54:32Z</time>
      </trkpt>
      <trkpt lat="42.4187" lon="1.85622">
        <ele>1191.8</ele>
        <time>2022-09-06T14:54:33Z</time>
      </trkpt>
      <trkpt lat="42.41868" lon="1.85614">
        <ele>1192.8</ele>
        <time>2022-09-06T14:54:34Z</time>
      </trkpt>
      <trkpt lat="42.41865" lon="1.85607">
        <ele>1194.4</ele>
        <time>2022-09-06T14:54:35Z</time>
      </trkpt>
      <trkpt lat="42.41862" lon="1.85599">
        <ele>1194.4</ele>
        <time>2022-09-06T14:54:36Z</time>
      </trkpt>
      <trkpt lat="42.4186" lon="1.85592">
        <ele>1194.4</ele>
        <time>2022-09-06T14:54:37Z</time>
      </trkpt>
      <trkpt lat="42.41857" lon="1.85585">
        <ele>1195</ele>
        <time>2022-09-06T14:54:38Z</time>
      </trkpt>
      <trkpt lat="42.41855" lon="1.85578">
        <ele>1195.8</ele>
        <time>2022-09-06T14:54:39Z</time>
      </trkpt>
      <trkpt lat="42.41852" lon="1.8557">
        <ele>1195.8</ele>
        <time>2022-09-06T14:54:40Z</time>
      </trkpt>
      <trkpt lat="42.41851" lon="1.85562">
        <ele>1195.8</ele>
        <time>2022-09-06T14:54:41Z</time>
      </trkpt>
      <trkpt lat="42.41851" lon="1.85556">
        <ele>1195.8</ele>
        <time>2022-09-06T14:54:42Z</time>
      </trkpt>
      <trkpt lat="42.41849" lon="1.8555">
        <ele>1195.8</ele>
        <time>2022-09-06T14:54:43Z</time>
      </trkpt>
      <trkpt lat="42.41845" lon="1.85546">
        <ele>1195.6</ele>
        <time>2022-09-06T14:54:44Z</time>
      </trkpt>
      <trkpt lat="42.41841" lon="1.85541">
        <ele>1195.6</ele>
        <time>2022-09-06T14:54:45Z</time>
      </trkpt>
      <trkpt lat="42.41837" lon="1.85536">
        <ele>1195.6</ele>
        <time>2022-09-06T14:54:46Z</time>
      </trkpt>
      <trkpt lat="42.41835" lon="1.8553">
        <ele>1195.6</ele>
        <time>2022-09-06T14:54:47Z</time>
      </trkpt>
      <trkpt lat="42.41834" lon="1.85523">
        <ele>1194.8</ele>
        <time>2022-09-06T14:54:48Z</time>
      </trkpt>
      <trkpt lat="42.41832" lon="1.85516">
        <ele>1194.8</ele>
        <time>2022-09-06T14:54:49Z</time>
      </trkpt>
      <trkpt lat="42.4183" lon="1.85508">
        <ele>1194.8</ele>
        <time>2022-09-06T14:54:50Z</time>
      </trkpt>
      <trkpt lat="42.41828" lon="1.85501">
        <ele>1195.8</ele>
        <time>2022-09-06T14:54:51Z</time>
      </trkpt>
      <trkpt lat="42.41826" lon="1.85494">
        <ele>1198.8</ele>
        <time>2022-09-06T14:54:52Z</time>
      </trkpt>
      <trkpt lat="42.41825" lon="1.85487">
        <ele>1198.8</ele>
        <time>2022-09-06T14:54:53Z</time>
      </trkpt>
      <trkpt lat="42.41823" lon="1.85479">
        <ele>1198.8</ele>
        <time>2022-09-06T14:54:54Z</time>
      </trkpt>
      <trkpt lat="42.41821" lon="1.85472">
        <ele>1197.8</ele>
        <time>2022-09-06T14:54:55Z</time>
      </trkpt>
      <trkpt lat="42.41818" lon="1.85464">
        <ele>1197</ele>
        <time>2022-09-06T14:54:56Z</time>
      </trkpt>
      <trkpt lat="42.41815" lon="1.85456">
        <ele>1197</ele>
        <time>2022-09-06T14:54:57Z</time>
      </trkpt>
      <trkpt lat="42.41812" lon="1.85448">
        <ele>1197</ele>
        <time>2022-09-06T14:54:58Z</time>
      </trkpt>
      <trkpt lat="42.41808" lon="1.8544">
        <ele>1197</ele>
        <time>2022-09-06T14:54:59Z</time>
      </trkpt>
      <trkpt lat="42.41804" lon="1.85433">
        <ele>1196</ele>
        <time>2022-09-06T14:55:00Z</time>
      </trkpt>
      <trkpt lat="42.418" lon="1.85427">
        <ele>1197</ele>
        <time>2022-09-06T14:55:01Z</time>
      </trkpt>
      <trkpt lat="42.41794" lon="1.85423">
        <ele>1197</ele>
        <time>2022-09-06T14:55:02Z</time>
      </trkpt>
      <trkpt lat="42.41788" lon="1.85419">
        <ele>1197</ele>
        <time>2022-09-06T14:55:03Z</time>
      </trkpt>
      <trkpt lat="42.41781" lon="1.85416">
        <ele>1196</ele>
        <time>2022-09-06T14:55:04Z</time>
      </trkpt>
      <trkpt lat="42.41774" lon="1.85413">
        <ele>1192.2</ele>
        <time>2022-09-06T14:55:05Z</time>
      </trkpt>
      <trkpt lat="42.41767" lon="1.8541">
        <ele>1192.2</ele>
        <time>2022-09-06T14:55:06Z</time>
      </trkpt>
      <trkpt lat="42.4176" lon="1.85407">
        <ele>1192.2</ele>
        <time>2022-09-06T14:55:07Z</time>
      </trkpt>
      <trkpt lat="42.41754" lon="1.85404">
        <ele>1193.2</ele>
        <time>2022-09-06T14:55:08Z</time>
      </trkpt>
      <trkpt lat="42.41748" lon="1.85399">
        <ele>1194</ele>
        <time>2022-09-06T14:55:09Z</time>
      </trkpt>
      <trkpt lat="42.41743" lon="1.85394">
        <ele>1194</ele>
        <time>2022-09-06T14:55:10Z</time>
      </trkpt>
      <trkpt lat="42.41738" lon="1.85389">
        <ele>1194</ele>
        <time>2022-09-06T14:55:11Z</time>
      </trkpt>
      <trkpt lat="42.41734" lon="1.85383">
        <ele>1193</ele>
        <time>2022-09-06T14:55:12Z</time>
      </trkpt>
      <trkpt lat="42.41731" lon="1.85376">
        <ele>1191.4</ele>
        <time>2022-09-06T14:55:13Z</time>
      </trkpt>
      <trkpt lat="42.41728" lon="1.8537">
        <ele>1191.4</ele>
        <time>2022-09-06T14:55:14Z</time>
      </trkpt>
      <trkpt lat="42.41725" lon="1.85363">
        <ele>1191.4</ele>
        <time>2022-09-06T14:55:15Z</time>
      </trkpt>
      <trkpt lat="42.41724" lon="1.85355">
        <ele>1192.4</ele>
        <time>2022-09-06T14:55:16Z</time>
      </trkpt>
      <trkpt lat="42.41722" lon="1.85348">
        <ele>1195.8</ele>
        <time>2022-09-06T14:55:17Z</time>
      </trkpt>
      <trkpt lat="42.41721" lon="1.85341">
        <ele>1195.8</ele>
        <time>2022-09-06T14:55:18Z</time>
      </trkpt>
      <trkpt lat="42.4172" lon="1.85333">
        <ele>1195.8</ele>
        <time>2022-09-06T14:55:19Z</time>
      </trkpt>
      <trkpt lat="42.41719" lon="1.85325">
        <ele>1195.8</ele>
        <time>2022-09-06T14:55:20Z</time>
      </trkpt>
      <trkpt lat="42.41718" lon="1.85317">
        <ele>1194.8</ele>
        <time>2022-09-06T14:55:21Z</time>
      </trkpt>
      <trkpt lat="42.41717" lon="1.85309">
        <ele>1196</ele>
        <time>2022-09-06T14:55:22Z</time>
      </trkpt>
      <trkpt lat="42.41718" lon="1.853">
        <ele>1196</ele>
        <time>2022-09-06T14:55:23Z</time>
      </trkpt>
      <trkpt lat="42.4172" lon="1.85292">
        <ele>1196</ele>
        <time>2022-09-06T14:55:24Z</time>
      </trkpt>
      <trkpt lat="42.41724" lon="1.85285">
        <ele>1195</ele>
        <time>2022-09-06T14:55:25Z</time>
      </trkpt>
      <trkpt lat="42.41729" lon="1.85279">
        <ele>1194.6</ele>
        <time>2022-09-06T14:55:26Z</time>
      </trkpt>
      <trkpt lat="42.41734" lon="1.85274">
        <ele>1194.6</ele>
        <time>2022-09-06T14:55:27Z</time>
      </trkpt>
      <trkpt lat="42.41739" lon="1.85269">
        <ele>1194.6</ele>
        <time>2022-09-06T14:55:28Z</time>
      </trkpt>
      <trkpt lat="42.41743" lon="1.85265">
        <ele>1194.6</ele>
        <time>2022-09-06T14:55:29Z</time>
      </trkpt>
      <trkpt lat="42.41748" lon="1.8526">
        <ele>1194.8</ele>
        <time>2022-09-06T14:55:30Z</time>
      </trkpt>
      <trkpt lat="42.41753" lon="1.85255">
        <ele>1194.8</ele>
        <time>2022-09-06T14:55:31Z</time>
      </trkpt>
      <trkpt lat="42.41757" lon="1.85249">
        <ele>1194.8</ele>
        <time>2022-09-06T14:55:32Z</time>
      </trkpt>
      <trkpt lat="42.41762" lon="1.85243">
        <ele>1194.8</ele>
        <time>2022-09-06T14:55:33Z</time>
      </trkpt>
      <trkpt lat="42.41766" lon="1.85237">
        <ele>1194</ele>
        <time>2022-09-06T14:55:34Z</time>
      </trkpt>
      <trkpt lat="42.41771" lon="1.85231">
        <ele>1194.8</ele>
        <time>2022-09-06T14:55:35Z</time>
      </trkpt>
      <trkpt lat="42.41775" lon="1.85226">
        <ele>1194.8</ele>
        <time>2022-09-06T14:55:36Z</time>
      </trkpt>
      <trkpt lat="42.41779" lon="1.8522">
        <ele>1194.8</ele>
        <time>2022-09-06T14:55:37Z</time>
      </trkpt>
      <trkpt lat="42.41784" lon="1.85214">
        <ele>1194.8</ele>
        <time>2022-09-06T14:55:38Z</time>
      </trkpt>
      <trkpt lat="42.41789" lon="1.85209">
        <ele>1194</ele>
        <time>2022-09-06T14:55:39Z</time>
      </trkpt>
      <trkpt lat="42.41794" lon="1.85205">
        <ele>1194</ele>
        <time>2022-09-06T14:55:40Z</time>
      </trkpt>
      <trkpt lat="42.41798" lon="1.85202">
        <ele>1194</ele>
        <time>2022-09-06T14:55:41Z</time>
      </trkpt>
      <trkpt lat="42.41801" lon="1.85197">
        <ele>1193</ele>
        <time>2022-09-06T14:55:42Z</time>
      </trkpt>
      <trkpt lat="42.41803" lon="1.85191">
        <ele>1194.2</ele>
        <time>2022-09-06T14:55:43Z</time>
      </trkpt>
      <trkpt lat="42.41802" lon="1.85186">
        <ele>1194.2</ele>
        <time>2022-09-06T14:55:44Z</time>
      </trkpt>
      <trkpt lat="42.41798" lon="1.85182">
        <ele>1194.2</ele>
        <time>2022-09-06T14:55:45Z</time>
      </trkpt>
      <trkpt lat="42.41794" lon="1.8518">
        <ele>1193.2</ele>
        <time>2022-09-06T14:55:46Z</time>
      </trkpt>
      <trkpt lat="42.41788" lon="1.85181">
        <ele>1191.8</ele>
        <time>2022-09-06T14:55:47Z</time>
      </trkpt>
      <trkpt lat="42.41782" lon="1.85183">
        <ele>1191.8</ele>
        <time>2022-09-06T14:55:48Z</time>
      </trkpt>
      <trkpt lat="42.41775" lon="1.85185">
        <ele>1191.8</ele>
        <time>2022-09-06T14:55:49Z</time>
      </trkpt>
      <trkpt lat="42.41766" lon="1.85186">
        <ele>1191.8</ele>
        <time>2022-09-06T14:55:50Z</time>
      </trkpt>
      <trkpt lat="42.41758" lon="1.85187">
        <ele>1190.8</ele>
        <time>2022-09-06T14:55:51Z</time>
      </trkpt>
      <trkpt lat="42.41749" lon="1.85187">
        <ele>1185.8</ele>
        <time>2022-09-06T14:55:52Z</time>
      </trkpt>
      <trkpt lat="42.4174" lon="1.85186">
        <ele>1185.8</ele>
        <time>2022-09-06T14:55:53Z</time>
      </trkpt>
      <trkpt lat="42.41731" lon="1.85185">
        <ele>1185.8</ele>
        <time>2022-09-06T14:55:54Z</time>
      </trkpt>
      <trkpt lat="42.41722" lon="1.85184">
        <ele>1185.8</ele>
        <time>2022-09-06T14:55:55Z</time>
      </trkpt>
      <trkpt lat="42.41714" lon="1.85183">
        <ele>1189.2</ele>
        <time>2022-09-06T14:55:56Z</time>
      </trkpt>
      <trkpt lat="42.41707" lon="1.85182">
        <ele>1189.2</ele>
        <time>2022-09-06T14:55:57Z</time>
      </trkpt>
      <trkpt lat="42.41699" lon="1.85181">
        <ele>1189.2</ele>
        <time>2022-09-06T14:55:58Z</time>
      </trkpt>
      <trkpt lat="42.41693" lon="1.85179">
        <ele>1189.2</ele>
        <time>2022-09-06T14:55:59Z</time>
      </trkpt>
      <trkpt lat="42.41688" lon="1.85175">
        <ele>1188.4</ele>
        <time>2022-09-06T14:56:00Z</time>
      </trkpt>
      <trkpt lat="42.41685" lon="1.85168">
        <ele>1188.4</ele>
        <time>2022-09-06T14:56:01Z</time>
      </trkpt>
      <trkpt lat="42.41683" lon="1.85159">
        <ele>1188.4</ele>
        <time>2022-09-06T14:56:02Z</time>
      </trkpt>
      <trkpt lat="42.41683" lon="1.8515">
        <ele>1187.4</ele>
        <time>2022-09-06T14:56:03Z</time>
      </trkpt>
      <trkpt lat="42.41681" lon="1.85142">
        <ele>1187.6</ele>
        <time>2022-09-06T14:56:04Z</time>
      </trkpt>
      <trkpt lat="42.4168" lon="1.85134">
        <ele>1187.6</ele>
        <time>2022-09-06T14:56:05Z</time>
      </trkpt>
      <trkpt lat="42.41679" lon="1.85127">
        <ele>1187.6</ele>
        <time>2022-09-06T14:56:06Z</time>
      </trkpt>
      <trkpt lat="42.41678" lon="1.8512">
        <ele>1187.6</ele>
        <time>2022-09-06T14:56:07Z</time>
      </trkpt>
      <trkpt lat="42.41677" lon="1.85113">
        <ele>1187.6</ele>
        <time>2022-09-06T14:56:08Z</time>
      </trkpt>
      <trkpt lat="42.41676" lon="1.85106">
        <ele>1190.2</ele>
        <time>2022-09-06T14:56:09Z</time>
      </trkpt>
      <trkpt lat="42.41675" lon="1.85099">
        <ele>1190.2</ele>
        <time>2022-09-06T14:56:10Z</time>
      </trkpt>
      <trkpt lat="42.41673" lon="1.85093">
        <ele>1190.2</ele>
        <time>2022-09-06T14:56:11Z</time>
      </trkpt>
      <trkpt lat="42.41671" lon="1.85088">
        <ele>1189.2</ele>
        <time>2022-09-06T14:56:12Z</time>
      </trkpt>
      <trkpt lat="42.41667" lon="1.85086">
        <ele>1188.2</ele>
        <time>2022-09-06T14:56:13Z</time>
      </trkpt>
      <trkpt lat="42.41662" lon="1.85086">
        <ele>1188.2</ele>
        <time>2022-09-06T14:56:14Z</time>
      </trkpt>
      <trkpt lat="42.41657" lon="1.85088">
        <ele>1188.2</ele>
        <time>2022-09-06T14:56:15Z</time>
      </trkpt>
      <trkpt lat="42.41653" lon="1.85091">
        <ele>1188.2</ele>
        <time>2022-09-06T14:56:16Z</time>
      </trkpt>
      <trkpt lat="42.41649" lon="1.85095">
        <ele>1188.2</ele>
        <time>2022-09-06T14:56:17Z</time>
      </trkpt>
      <trkpt lat="42.41645" lon="1.851">
        <ele>1188.2</ele>
        <time>2022-09-06T14:56:18Z</time>
      </trkpt>
      <trkpt lat="42.41641" lon="1.85105">
        <ele>1188.2</ele>
        <time>2022-09-06T14:56:19Z</time>
      </trkpt>
      <trkpt lat="42.41636" lon="1.85109">
        <ele>1188.2</ele>
        <time>2022-09-06T14:56:20Z</time>
      </trkpt>
      <trkpt lat="42.41631" lon="1.85114">
        <ele>1189</ele>
        <time>2022-09-06T14:56:21Z</time>
      </trkpt>
      <trkpt lat="42.41627" lon="1.85119">
        <ele>1189</ele>
        <time>2022-09-06T14:56:22Z</time>
      </trkpt>
      <trkpt lat="42.41622" lon="1.85124">
        <ele>1189</ele>
        <time>2022-09-06T14:56:23Z</time>
      </trkpt>
      <trkpt lat="42.41618" lon="1.85128">
        <ele>1190</ele>
        <time>2022-09-06T14:56:24Z</time>
      </trkpt>
      <trkpt lat="42.41614" lon="1.85133">
        <ele>1190</ele>
        <time>2022-09-06T14:56:25Z</time>
      </trkpt>
      <trkpt lat="42.41609" lon="1.85137">
        <ele>1189.6</ele>
        <time>2022-09-06T14:56:26Z</time>
      </trkpt>
      <trkpt lat="42.41605" lon="1.85141">
        <ele>1189.6</ele>
        <time>2022-09-06T14:56:27Z</time>
      </trkpt>
      <trkpt lat="42.416" lon="1.85144">
        <ele>1189.6</ele>
        <time>2022-09-06T14:56:28Z</time>
      </trkpt>
      <trkpt lat="42.41595" lon="1.85146">
        <ele>1190.6</ele>
        <time>2022-09-06T14:56:29Z</time>
      </trkpt>
      <trkpt lat="42.4159" lon="1.85148">
        <ele>1193</ele>
        <time>2022-09-06T14:56:30Z</time>
      </trkpt>
      <trkpt lat="42.41585" lon="1.8515">
        <ele>1193</ele>
        <time>2022-09-06T14:56:31Z</time>
      </trkpt>
      <trkpt lat="42.41579" lon="1.85151">
        <ele>1193</ele>
        <time>2022-09-06T14:56:32Z</time>
      </trkpt>
      <trkpt lat="42.41574" lon="1.8515">
        <ele>1193</ele>
        <time>2022-09-06T14:56:33Z</time>
      </trkpt>
      <trkpt lat="42.4157" lon="1.85149">
        <ele>1194.6</ele>
        <time>2022-09-06T14:56:34Z</time>
      </trkpt>
      <trkpt lat="42.41565" lon="1.85148">
        <ele>1194.6</ele>
        <time>2022-09-06T14:56:35Z</time>
      </trkpt>
      <trkpt lat="42.4156" lon="1.85149">
        <ele>1194.6</ele>
        <time>2022-09-06T14:56:36Z</time>
      </trkpt>
      <trkpt lat="42.41555" lon="1.8515">
        <ele>1193.6</ele>
        <time>2022-09-06T14:56:37Z</time>
      </trkpt>
      <trkpt lat="42.41551" lon="1.85152">
        <ele>1194.2</ele>
        <time>2022-09-06T14:56:38Z</time>
      </trkpt>
      <trkpt lat="42.41545" lon="1.85153">
        <ele>1194.2</ele>
        <time>2022-09-06T14:56:39Z</time>
      </trkpt>
      <trkpt lat="42.4154" lon="1.85153">
        <ele>1194.2</ele>
        <time>2022-09-06T14:56:40Z</time>
      </trkpt>
      <trkpt lat="42.41534" lon="1.85154">
        <ele>1193.2</ele>
        <time>2022-09-06T14:56:41Z</time>
      </trkpt>
      <trkpt lat="42.41528" lon="1.85155">
        <ele>1191</ele>
        <time>2022-09-06T14:56:42Z</time>
      </trkpt>
      <trkpt lat="42.41523" lon="1.85159">
        <ele>1191</ele>
        <time>2022-09-06T14:56:43Z</time>
      </trkpt>
      <trkpt lat="42.41518" lon="1.85164">
        <ele>1191</ele>
        <time>2022-09-06T14:56:44Z</time>
      </trkpt>
      <trkpt lat="42.41514" lon="1.85171">
        <ele>1190</ele>
        <time>2022-09-06T14:56:45Z</time>
      </trkpt>
      <trkpt lat="42.41511" lon="1.85177">
        <ele>1190</ele>
        <time>2022-09-06T14:56:46Z</time>
      </trkpt>
      <trkpt lat="42.41509" lon="1.85181">
        <ele>1189.4</ele>
        <time>2022-09-06T14:56:47Z</time>
      </trkpt>
      <trkpt lat="42.41506" lon="1.85183">
        <ele>1189.4</ele>
        <time>2022-09-06T14:56:48Z</time>
      </trkpt>
      <trkpt lat="42.41502" lon="1.85182">
        <ele>1189.4</ele>
        <time>2022-09-06T14:56:49Z</time>
      </trkpt>
      <trkpt lat="42.41499" lon="1.85178">
        <ele>1188.4</ele>
        <time>2022-09-06T14:56:50Z</time>
      </trkpt>
      <trkpt lat="42.41495" lon="1.85174">
        <ele>1186.2</ele>
        <time>2022-09-06T14:56:51Z</time>
      </trkpt>
      <trkpt lat="42.41493" lon="1.85168">
        <ele>1186.2</ele>
        <time>2022-09-06T14:56:52Z</time>
      </trkpt>
      <trkpt lat="42.41491" lon="1.85162">
        <ele>1186.2</ele>
        <time>2022-09-06T14:56:53Z</time>
      </trkpt>
      <trkpt lat="42.41488" lon="1.85155">
        <ele>1187.2</ele>
        <time>2022-09-06T14:56:54Z</time>
      </trkpt>
      <trkpt lat="42.41484" lon="1.8515">
        <ele>1188</ele>
        <time>2022-09-06T14:56:55Z</time>
      </trkpt>
      <trkpt lat="42.4148" lon="1.85146">
        <ele>1188</ele>
        <time>2022-09-06T14:56:56Z</time>
      </trkpt>
      <trkpt lat="42.41475" lon="1.85143">
        <ele>1188</ele>
        <time>2022-09-06T14:56:57Z</time>
      </trkpt>
      <trkpt lat="42.41469" lon="1.85141">
        <ele>1188.4</ele>
        <time>2022-09-06T14:56:58Z</time>
      </trkpt>
      <trkpt lat="42.41464" lon="1.85138">
        <ele>1189.4</ele>
        <time>2022-09-06T14:56:59Z</time>
      </trkpt>
      <trkpt lat="42.41458" lon="1.85136">
        <ele>1189.4</ele>
        <time>2022-09-06T14:57:00Z</time>
      </trkpt>
      <trkpt lat="42.41453" lon="1.85132">
        <ele>1189.4</ele>
        <time>2022-09-06T14:57:01Z</time>
      </trkpt>
      <trkpt lat="42.41448" lon="1.85129">
        <ele>1189.4</ele>
        <time>2022-09-06T14:57:02Z</time>
      </trkpt>
      <trkpt lat="42.41443" lon="1.85125">
        <ele>1189.4</ele>
        <time>2022-09-06T14:57:03Z</time>
      </trkpt>
      <trkpt lat="42.41439" lon="1.8512">
        <ele>1188.4</ele>
        <time>2022-09-06T14:57:04Z</time>
      </trkpt>
      <trkpt lat="42.41435" lon="1.85115">
        <ele>1188.4</ele>
        <time>2022-09-06T14:57:05Z</time>
      </trkpt>
      <trkpt lat="42.4143" lon="1.85109">
        <ele>1188.4</ele>
        <time>2022-09-06T14:57:06Z</time>
      </trkpt>
      <trkpt lat="42.41427" lon="1.85104">
        <ele>1187.8</ele>
        <time>2022-09-06T14:57:07Z</time>
      </trkpt>
      <trkpt lat="42.41423" lon="1.85098">
        <ele>1187.8</ele>
        <time>2022-09-06T14:57:08Z</time>
      </trkpt>
      <trkpt lat="42.41419" lon="1.85092">
        <ele>1187.8</ele>
        <time>2022-09-06T14:57:09Z</time>
      </trkpt>
      <trkpt lat="42.41416" lon="1.85086">
        <ele>1187.8</ele>
        <time>2022-09-06T14:57:10Z</time>
      </trkpt>
      <trkpt lat="42.41412" lon="1.8508">
        <ele>1188.4</ele>
        <time>2022-09-06T14:57:11Z</time>
      </trkpt>
      <trkpt lat="42.41409" lon="1.85074">
        <ele>1188.8</ele>
        <time>2022-09-06T14:57:12Z</time>
      </trkpt>
      <trkpt lat="42.41405" lon="1.85068">
        <ele>1188.8</ele>
        <time>2022-09-06T14:57:13Z</time>
      </trkpt>
      <trkpt lat="42.41402" lon="1.85063">
        <ele>1188.8</ele>
        <time>2022-09-06T14:57:14Z</time>
      </trkpt>
      <trkpt lat="42.41398" lon="1.85057">
        <ele>1188.8</ele>
        <time>2022-09-06T14:57:15Z</time>
      </trkpt>
      <trkpt lat="42.41395" lon="1.85051">
        <ele>1188.6</ele>
        <time>2022-09-06T14:57:16Z</time>
      </trkpt>
      <trkpt lat="42.41391" lon="1.85045">
        <ele>1188.6</ele>
        <time>2022-09-06T14:57:17Z</time>
      </trkpt>
      <trkpt lat="42.41388" lon="1.85039">
        <ele>1188.6</ele>
        <time>2022-09-06T14:57:18Z</time>
      </trkpt>
      <trkpt lat="42.41385" lon="1.85033">
        <ele>1189.6</ele>
        <time>2022-09-06T14:57:19Z</time>
      </trkpt>
      <trkpt lat="42.41383" lon="1.85026">
        <ele>1189.6</ele>
        <time>2022-09-06T14:57:20Z</time>
      </trkpt>
      <trkpt lat="42.4138" lon="1.8502">
        <ele>1190.6</ele>
        <time>2022-09-06T14:57:21Z</time>
      </trkpt>
      <trkpt lat="42.41377" lon="1.85015">
        <ele>1190.6</ele>
        <time>2022-09-06T14:57:22Z</time>
      </trkpt>
      <trkpt lat="42.41374" lon="1.85009">
        <ele>1190.6</ele>
        <time>2022-09-06T14:57:23Z</time>
      </trkpt>
      <trkpt lat="42.41373" lon="1.85003">
        <ele>1191</ele>
        <time>2022-09-06T14:57:24Z</time>
      </trkpt>
      <trkpt lat="42.41371" lon="1.84997">
        <ele>1191.2</ele>
        <time>2022-09-06T14:57:25Z</time>
      </trkpt>
      <trkpt lat="42.41369" lon="1.8499">
        <ele>1191.2</ele>
        <time>2022-09-06T14:57:26Z</time>
      </trkpt>
      <trkpt lat="42.41368" lon="1.84984">
        <ele>1191.2</ele>
        <time>2022-09-06T14:57:27Z</time>
      </trkpt>
      <trkpt lat="42.41366" lon="1.84977">
        <ele>1191.8</ele>
        <time>2022-09-06T14:57:28Z</time>
      </trkpt>
      <trkpt lat="42.41364" lon="1.84971">
        <ele>1192.2</ele>
        <time>2022-09-06T14:57:29Z</time>
      </trkpt>
      <trkpt lat="42.41363" lon="1.84965">
        <ele>1192.2</ele>
        <time>2022-09-06T14:57:30Z</time>
      </trkpt>
      <trkpt lat="42.41361" lon="1.84959">
        <ele>1192.2</ele>
        <time>2022-09-06T14:57:31Z</time>
      </trkpt>
      <trkpt lat="42.4136" lon="1.84952">
        <ele>1192.6</ele>
        <time>2022-09-06T14:57:32Z</time>
      </trkpt>
      <trkpt lat="42.41358" lon="1.84946">
        <ele>1194</ele>
        <time>2022-09-06T14:57:33Z</time>
      </trkpt>
      <trkpt lat="42.41358" lon="1.8494">
        <ele>1194</ele>
        <time>2022-09-06T14:57:34Z</time>
      </trkpt>
      <trkpt lat="42.41357" lon="1.84933">
        <ele>1194</ele>
        <time>2022-09-06T14:57:35Z</time>
      </trkpt>
      <trkpt lat="42.41357" lon="1.84927">
        <ele>1194</ele>
        <time>2022-09-06T14:57:36Z</time>
      </trkpt>
      <trkpt lat="42.41357" lon="1.8492">
        <ele>1194</ele>
        <time>2022-09-06T14:57:37Z</time>
      </trkpt>
      <trkpt lat="42.41356" lon="1.84913">
        <ele>1192.6</ele>
        <time>2022-09-06T14:57:38Z</time>
      </trkpt>
      <trkpt lat="42.41354" lon="1.84906">
        <ele>1192.6</ele>
        <time>2022-09-06T14:57:39Z</time>
      </trkpt>
      <trkpt lat="42.41352" lon="1.84898">
        <ele>1192.6</ele>
        <time>2022-09-06T14:57:40Z</time>
      </trkpt>
      <trkpt lat="42.41351" lon="1.84891">
        <ele>1192.6</ele>
        <time>2022-09-06T14:57:41Z</time>
      </trkpt>
      <trkpt lat="42.41349" lon="1.84883">
        <ele>1193.2</ele>
        <time>2022-09-06T14:57:42Z</time>
      </trkpt>
      <trkpt lat="42.41348" lon="1.84875">
        <ele>1193.2</ele>
        <time>2022-09-06T14:57:43Z</time>
      </trkpt>
      <trkpt lat="42.41347" lon="1.84867">
        <ele>1193.2</ele>
        <time>2022-09-06T14:57:44Z</time>
      </trkpt>
      <trkpt lat="42.41345" lon="1.8486">
        <ele>1193.2</ele>
        <time>2022-09-06T14:57:45Z</time>
      </trkpt>
      <trkpt lat="42.41344" lon="1.84852">
        <ele>1192.8</ele>
        <time>2022-09-06T14:57:46Z</time>
      </trkpt>
      <trkpt lat="42.41343" lon="1.84844">
        <ele>1192.8</ele>
        <time>2022-09-06T14:57:47Z</time>
      </trkpt>
      <trkpt lat="42.41343" lon="1.84837">
        <ele>1192.8</ele>
        <time>2022-09-06T14:57:48Z</time>
      </trkpt>
      <trkpt lat="42.41342" lon="1.8483">
        <ele>1193.8</ele>
        <time>2022-09-06T14:57:49Z</time>
      </trkpt>
      <trkpt lat="42.41341" lon="1.84823">
        <ele>1192</ele>
        <time>2022-09-06T14:57:50Z</time>
      </trkpt>
      <trkpt lat="42.4134" lon="1.84815">
        <ele>1192</ele>
        <time>2022-09-06T14:57:51Z</time>
      </trkpt>
      <trkpt lat="42.41339" lon="1.84808">
        <ele>1192</ele>
        <time>2022-09-06T14:57:52Z</time>
      </trkpt>
      <trkpt lat="42.41338" lon="1.84801">
        <ele>1192</ele>
        <time>2022-09-06T14:57:53Z</time>
      </trkpt>
      <trkpt lat="42.41337" lon="1.84794">
        <ele>1193</ele>
        <time>2022-09-06T14:57:54Z</time>
      </trkpt>
      <trkpt lat="42.41336" lon="1.84786">
        <ele>1193.8</ele>
        <time>2022-09-06T14:57:55Z</time>
      </trkpt>
      <trkpt lat="42.41335" lon="1.84779">
        <ele>1193.8</ele>
        <time>2022-09-06T14:57:56Z</time>
      </trkpt>
      <trkpt lat="42.41335" lon="1.84772">
        <ele>1193.8</ele>
        <time>2022-09-06T14:57:57Z</time>
      </trkpt>
      <trkpt lat="42.41336" lon="1.84765">
        <ele>1193.8</ele>
        <time>2022-09-06T14:57:58Z</time>
      </trkpt>
      <trkpt lat="42.41337" lon="1.84758">
        <ele>1194.4</ele>
        <time>2022-09-06T14:57:59Z</time>
      </trkpt>
      <trkpt lat="42.41338" lon="1.84751">
        <ele>1194.4</ele>
        <time>2022-09-06T14:58:00Z</time>
      </trkpt>
      <trkpt lat="42.41338" lon="1.84745">
        <ele>1194.4</ele>
        <time>2022-09-06T14:58:01Z</time>
      </trkpt>
      <trkpt lat="42.41337" lon="1.84738">
        <ele>1194.4</ele>
        <time>2022-09-06T14:58:02Z</time>
      </trkpt>
      <trkpt lat="42.41335" lon="1.84732">
        <ele>1194.4</ele>
        <time>2022-09-06T14:58:03Z</time>
      </trkpt>
      <trkpt lat="42.41333" lon="1.84727">
        <ele>1194.4</ele>
        <time>2022-09-06T14:58:04Z</time>
      </trkpt>
      <trkpt lat="42.41329" lon="1.84722">
        <ele>1194.4</ele>
        <time>2022-09-06T14:58:05Z</time>
      </trkpt>
      <trkpt lat="42.41325" lon="1.84718">
        <ele>1193.4</ele>
        <time>2022-09-06T14:58:06Z</time>
      </trkpt>
      <trkpt lat="42.41319" lon="1.84716">
        <ele>1190.2</ele>
        <time>2022-09-06T14:58:07Z</time>
      </trkpt>
      <trkpt lat="42.41313" lon="1.84715">
        <ele>1190.2</ele>
        <time>2022-09-06T14:58:08Z</time>
      </trkpt>
      <trkpt lat="42.41308" lon="1.84715">
        <ele>1190.2</ele>
        <time>2022-09-06T14:58:09Z</time>
      </trkpt>
      <trkpt lat="42.41304" lon="1.84715">
        <ele>1190.2</ele>
        <time>2022-09-06T14:58:10Z</time>
      </trkpt>
      <trkpt lat="42.413" lon="1.84715">
        <ele>1189.2</ele>
        <time>2022-09-06T14:58:11Z</time>
      </trkpt>
      <trkpt lat="42.41296" lon="1.84716">
        <ele>1187</ele>
        <time>2022-09-06T14:58:12Z</time>
      </trkpt>
      <trkpt lat="42.41292" lon="1.84716">
        <ele>1187</ele>
        <time>2022-09-06T14:58:13Z</time>
      </trkpt>
      <trkpt lat="42.41289" lon="1.84715">
        <ele>1187</ele>
        <time>2022-09-06T14:58:14Z</time>
      </trkpt>
      <trkpt lat="42.41287" lon="1.84712">
        <ele>1186</ele>
        <time>2022-09-06T14:58:15Z</time>
      </trkpt>
      <trkpt lat="42.41286" lon="1.84708">
        <ele>1183.6</ele>
        <time>2022-09-06T14:58:16Z</time>
      </trkpt>
      <trkpt lat="42.41285" lon="1.84703">
        <ele>1183.6</ele>
        <time>2022-09-06T14:58:17Z</time>
      </trkpt>
      <trkpt lat="42.41286" lon="1.84698">
        <ele>1183.6</ele>
        <time>2022-09-06T14:58:18Z</time>
      </trkpt>
      <trkpt lat="42.41287" lon="1.84693">
        <ele>1184</ele>
        <time>2022-09-06T14:58:19Z</time>
      </trkpt>
      <trkpt lat="42.41288" lon="1.84687">
        <ele>1184.4</ele>
        <time>2022-09-06T14:58:20Z</time>
      </trkpt>
      <trkpt lat="42.4129" lon="1.84681">
        <ele>1184.4</ele>
        <time>2022-09-06T14:58:21Z</time>
      </trkpt>
      <trkpt lat="42.41292" lon="1.84675">
        <ele>1184.4</ele>
        <time>2022-09-06T14:58:22Z</time>
      </trkpt>
      <trkpt lat="42.41294" lon="1.84669">
        <ele>1184.4</ele>
        <time>2022-09-06T14:58:23Z</time>
      </trkpt>
      <trkpt lat="42.41297" lon="1.84664">
        <ele>1183.6</ele>
        <time>2022-09-06T14:58:24Z</time>
      </trkpt>
      <trkpt lat="42.413" lon="1.84659">
        <ele>1183.6</ele>
        <time>2022-09-06T14:58:25Z</time>
      </trkpt>
      <trkpt lat="42.41302" lon="1.84654">
        <ele>1183.6</ele>
        <time>2022-09-06T14:58:26Z</time>
      </trkpt>
      <trkpt lat="42.41305" lon="1.84649">
        <ele>1183.6</ele>
        <time>2022-09-06T14:58:27Z</time>
      </trkpt>
      <trkpt lat="42.41308" lon="1.84644">
        <ele>1183.6</ele>
        <time>2022-09-06T14:58:28Z</time>
      </trkpt>
      <trkpt lat="42.41311" lon="1.84641">
        <ele>1183.8</ele>
        <time>2022-09-06T14:58:29Z</time>
      </trkpt>
      <trkpt lat="42.41314" lon="1.8464">
        <ele>1183.8</ele>
        <time>2022-09-06T14:58:30Z</time>
      </trkpt>
      <trkpt lat="42.41317" lon="1.84639">
        <ele>1183.8</ele>
        <time>2022-09-06T14:58:31Z</time>
      </trkpt>
      <trkpt lat="42.41318" lon="1.84638">
        <ele>1184.8</ele>
        <time>2022-09-06T14:58:32Z</time>
      </trkpt>
      <trkpt lat="42.41319" lon="1.84637">
        <ele>1186.2</ele>
        <time>2022-09-06T14:58:33Z</time>
      </trkpt>
      <trkpt lat="42.41321" lon="1.84634">
        <ele>1186.2</ele>
        <time>2022-09-06T14:58:34Z</time>
      </trkpt>
      <trkpt lat="42.41323" lon="1.84631">
        <ele>1186.2</ele>
        <time>2022-09-06T14:58:35Z</time>
      </trkpt>
      <trkpt lat="42.41325" lon="1.84627">
        <ele>1186.2</ele>
        <time>2022-09-06T14:58:36Z</time>
      </trkpt>
      <trkpt lat="42.41327" lon="1.84622">
        <ele>1184.6</ele>
        <time>2022-09-06T14:58:37Z</time>
      </trkpt>
      <trkpt lat="42.41329" lon="1.84618">
        <ele>1184.6</ele>
        <time>2022-09-06T14:58:38Z</time>
      </trkpt>
      <trkpt lat="42.41332" lon="1.84613">
        <ele>1184.6</ele>
        <time>2022-09-06T14:58:39Z</time>
      </trkpt>
      <trkpt lat="42.41335" lon="1.84607">
        <ele>1184.6</ele>
        <time>2022-09-06T14:58:40Z</time>
      </trkpt>
      <trkpt lat="42.41338" lon="1.84601">
        <ele>1185.6</ele>
        <time>2022-09-06T14:58:41Z</time>
      </trkpt>
      <trkpt lat="42.41341" lon="1.84596">
        <ele>1185.2</ele>
        <time>2022-09-06T14:58:42Z</time>
      </trkpt>
      <trkpt lat="42.41344" lon="1.84591">
        <ele>1185.2</ele>
        <time>2022-09-06T14:58:43Z</time>
      </trkpt>
      <trkpt lat="42.41347" lon="1.84586">
        <ele>1185.2</ele>
        <time>2022-09-06T14:58:44Z</time>
      </trkpt>
      <trkpt lat="42.4135" lon="1.8458">
        <ele>1186.2</ele>
        <time>2022-09-06T14:58:45Z</time>
      </trkpt>
      <trkpt lat="42.41354" lon="1.84575">
        <ele>1187.6</ele>
        <time>2022-09-06T14:58:46Z</time>
      </trkpt>
      <trkpt lat="42.41357" lon="1.84569">
        <ele>1187.6</ele>
        <time>2022-09-06T14:58:47Z</time>
      </trkpt>
      <trkpt lat="42.4136" lon="1.84564">
        <ele>1187.6</ele>
        <time>2022-09-06T14:58:48Z</time>
      </trkpt>
      <trkpt lat="42.41363" lon="1.84558">
        <ele>1186.6</ele>
        <time>2022-09-06T14:58:49Z</time>
      </trkpt>
      <trkpt lat="42.41366" lon="1.84553">
        <ele>1185.8</ele>
        <time>2022-09-06T14:58:50Z</time>
      </trkpt>
      <trkpt lat="42.41369" lon="1.84547">
        <ele>1185.8</ele>
        <time>2022-09-06T14:58:51Z</time>
      </trkpt>
      <trkpt lat="42.41371" lon="1.84541">
        <ele>1185.8</ele>
        <time>2022-09-06T14:58:52Z</time>
      </trkpt>
      <trkpt lat="42.41374" lon="1.84535">
        <ele>1185.8</ele>
        <time>2022-09-06T14:58:53Z</time>
      </trkpt>
      <trkpt lat="42.41376" lon="1.84529">
        <ele>1183.4</ele>
        <time>2022-09-06T14:58:54Z</time>
      </trkpt>
      <trkpt lat="42.41378" lon="1.84522">
        <ele>1183.4</ele>
        <time>2022-09-06T14:58:55Z</time>
      </trkpt>
      <trkpt lat="42.41381" lon="1.84516">
        <ele>1183.4</ele>
        <time>2022-09-06T14:58:56Z</time>
      </trkpt>
      <trkpt lat="42.41384" lon="1.8451">
        <ele>1182.8</ele>
        <time>2022-09-06T14:58:57Z</time>
      </trkpt>
      <trkpt lat="42.41388" lon="1.84507">
        <ele>1182.4</ele>
        <time>2022-09-06T14:58:58Z</time>
      </trkpt>
      <trkpt lat="42.41392" lon="1.84504">
        <ele>1182.4</ele>
        <time>2022-09-06T14:58:59Z</time>
      </trkpt>
      <trkpt lat="42.41397" lon="1.845">
        <ele>1182.4</ele>
        <time>2022-09-06T14:59:00Z</time>
      </trkpt>
      <trkpt lat="42.41401" lon="1.84497">
        <ele>1182.4</ele>
        <time>2022-09-06T14:59:01Z</time>
      </trkpt>
      <trkpt lat="42.41405" lon="1.84492">
        <ele>1181.6</ele>
        <time>2022-09-06T14:59:02Z</time>
      </trkpt>
      <trkpt lat="42.41409" lon="1.84488">
        <ele>1181.4</ele>
        <time>2022-09-06T14:59:03Z</time>
      </trkpt>
      <trkpt lat="42.41413" lon="1.84483">
        <ele>1181.4</ele>
        <time>2022-09-06T14:59:04Z</time>
      </trkpt>
      <trkpt lat="42.41418" lon="1.84479">
        <ele>1181.4</ele>
        <time>2022-09-06T14:59:05Z</time>
      </trkpt>
      <trkpt lat="42.41423" lon="1.84476">
        <ele>1182.4</ele>
        <time>2022-09-06T14:59:06Z</time>
      </trkpt>
      <trkpt lat="42.41428" lon="1.84472">
        <ele>1180</ele>
        <time>2022-09-06T14:59:07Z</time>
      </trkpt>
      <trkpt lat="42.41432" lon="1.84468">
        <ele>1180</ele>
        <time>2022-09-06T14:59:08Z</time>
      </trkpt>
      <trkpt lat="42.41437" lon="1.84464">
        <ele>1180</ele>
        <time>2022-09-06T14:59:09Z</time>
      </trkpt>
      <trkpt lat="42.41441" lon="1.84461">
        <ele>1180.4</ele>
        <time>2022-09-06T14:59:10Z</time>
      </trkpt>
      <trkpt lat="42.41446" lon="1.84457">
        <ele>1180.8</ele>
        <time>2022-09-06T14:59:11Z</time>
      </trkpt>
      <trkpt lat="42.41451" lon="1.84453">
        <ele>1180.8</ele>
        <time>2022-09-06T14:59:12Z</time>
      </trkpt>
      <trkpt lat="42.41455" lon="1.84448">
        <ele>1180.8</ele>
        <time>2022-09-06T14:59:13Z</time>
      </trkpt>
      <trkpt lat="42.4146" lon="1.84444">
        <ele>1180.8</ele>
        <time>2022-09-06T14:59:14Z</time>
      </trkpt>
      <trkpt lat="42.41465" lon="1.8444">
        <ele>1182.8</ele>
        <time>2022-09-06T14:59:15Z</time>
      </trkpt>
      <trkpt lat="42.41469" lon="1.84435">
        <ele>1182.8</ele>
        <time>2022-09-06T14:59:16Z</time>
      </trkpt>
      <trkpt lat="42.41474" lon="1.8443">
        <ele>1182.8</ele>
        <time>2022-09-06T14:59:17Z</time>
      </trkpt>
      <trkpt lat="42.41478" lon="1.84425">
        <ele>1182.8</ele>
        <time>2022-09-06T14:59:18Z</time>
      </trkpt>
      <trkpt lat="42.41482" lon="1.84419">
        <ele>1181.8</ele>
        <time>2022-09-06T14:59:19Z</time>
      </trkpt>
      <trkpt lat="42.41486" lon="1.84414">
        <ele>1181.2</ele>
        <time>2022-09-06T14:59:20Z</time>
      </trkpt>
      <trkpt lat="42.4149" lon="1.84408">
        <ele>1181.2</ele>
        <time>2022-09-06T14:59:21Z</time>
      </trkpt>
      <trkpt lat="42.41494" lon="1.84403">
        <ele>1181.2</ele>
        <time>2022-09-06T14:59:22Z</time>
      </trkpt>
      <trkpt lat="42.41498" lon="1.84397">
        <ele>1181.2</ele>
        <time>2022-09-06T14:59:23Z</time>
      </trkpt>
      <trkpt lat="42.41502" lon="1.84392">
        <ele>1183</ele>
        <time>2022-09-06T14:59:24Z</time>
      </trkpt>
      <trkpt lat="42.41506" lon="1.84388">
        <ele>1183</ele>
        <time>2022-09-06T14:59:25Z</time>
      </trkpt>
      <trkpt lat="42.41511" lon="1.84384">
        <ele>1183</ele>
        <time>2022-09-06T14:59:26Z</time>
      </trkpt>
      <trkpt lat="42.41516" lon="1.8438">
        <ele>1183</ele>
        <time>2022-09-06T14:59:27Z</time>
      </trkpt>
      <trkpt lat="42.41521" lon="1.84378">
        <ele>1180</ele>
        <time>2022-09-06T14:59:28Z</time>
      </trkpt>
      <trkpt lat="42.41526" lon="1.84376">
        <ele>1180</ele>
        <time>2022-09-06T14:59:29Z</time>
      </trkpt>
      <trkpt lat="42.41531" lon="1.84374">
        <ele>1180</ele>
        <time>2022-09-06T14:59:30Z</time>
      </trkpt>
      <trkpt lat="42.41535" lon="1.84372">
        <ele>1180</ele>
        <time>2022-09-06T14:59:31Z</time>
      </trkpt>
      <trkpt lat="42.4154" lon="1.8437">
        <ele>1181</ele>
        <time>2022-09-06T14:59:32Z</time>
      </trkpt>
      <trkpt lat="42.41545" lon="1.84368">
        <ele>1181.4</ele>
        <time>2022-09-06T14:59:33Z</time>
      </trkpt>
      <trkpt lat="42.41549" lon="1.84366">
        <ele>1181.4</ele>
        <time>2022-09-06T14:59:34Z</time>
      </trkpt>
      <trkpt lat="42.41554" lon="1.84364">
        <ele>1181.4</ele>
        <time>2022-09-06T14:59:35Z</time>
      </trkpt>
      <trkpt lat="42.41559" lon="1.84361">
        <ele>1181.4</ele>
        <time>2022-09-06T14:59:36Z</time>
      </trkpt>
      <trkpt lat="42.41564" lon="1.84358">
        <ele>1183.2</ele>
        <time>2022-09-06T14:59:37Z</time>
      </trkpt>
      <trkpt lat="42.41569" lon="1.84355">
        <ele>1183.2</ele>
        <time>2022-09-06T14:59:38Z</time>
      </trkpt>
      <trkpt lat="42.41573" lon="1.84352">
        <ele>1183.2</ele>
        <time>2022-09-06T14:59:39Z</time>
      </trkpt>
      <trkpt lat="42.41578" lon="1.84349">
        <ele>1183.2</ele>
        <time>2022-09-06T14:59:40Z</time>
      </trkpt>
      <trkpt lat="42.41583" lon="1.84345">
        <ele>1179.6</ele>
        <time>2022-09-06T14:59:41Z</time>
      </trkpt>
      <trkpt lat="42.41587" lon="1.84342">
        <ele>1179.6</ele>
        <time>2022-09-06T14:59:42Z</time>
      </trkpt>
      <trkpt lat="42.41593" lon="1.84339">
        <ele>1179.6</ele>
        <time>2022-09-06T14:59:43Z</time>
      </trkpt>
      <trkpt lat="42.41598" lon="1.84337">
        <ele>1179.8</ele>
        <time>2022-09-06T14:59:44Z</time>
      </trkpt>
      <trkpt lat="42.41604" lon="1.84336">
        <ele>1184.2</ele>
        <time>2022-09-06T14:59:45Z</time>
      </trkpt>
      <trkpt lat="42.41609" lon="1.84335">
        <ele>1184.2</ele>
        <time>2022-09-06T14:59:46Z</time>
      </trkpt>
      <trkpt lat="42.41615" lon="1.84333">
        <ele>1184.2</ele>
        <time>2022-09-06T14:59:47Z</time>
      </trkpt>
      <trkpt lat="42.4162" lon="1.8433">
        <ele>1184.2</ele>
        <time>2022-09-06T14:59:48Z</time>
      </trkpt>
      <trkpt lat="42.41625" lon="1.84327">
        <ele>1183.2</ele>
        <time>2022-09-06T14:59:49Z</time>
      </trkpt>
      <trkpt lat="42.4163" lon="1.84325">
        <ele>1181.2</ele>
        <time>2022-09-06T14:59:50Z</time>
      </trkpt>
      <trkpt lat="42.41635" lon="1.84323">
        <ele>1181.2</ele>
        <time>2022-09-06T14:59:51Z</time>
      </trkpt>
      <trkpt lat="42.4164" lon="1.8432">
        <ele>1181.2</ele>
        <time>2022-09-06T14:59:52Z</time>
      </trkpt>
      <trkpt lat="42.41644" lon="1.84317">
        <ele>1181.2</ele>
        <time>2022-09-06T14:59:53Z</time>
      </trkpt>
      <trkpt lat="42.41648" lon="1.84314">
        <ele>1179.8</ele>
        <time>2022-09-06T14:59:54Z</time>
      </trkpt>
      <trkpt lat="42.41652" lon="1.84311">
        <ele>1179.8</ele>
        <time>2022-09-06T14:59:55Z</time>
      </trkpt>
      <trkpt lat="42.41656" lon="1.84309">
        <ele>1179.8</ele>
        <time>2022-09-06T14:59:56Z</time>
      </trkpt>
      <trkpt lat="42.4166" lon="1.84307">
        <ele>1180.8</ele>
        <time>2022-09-06T14:59:57Z</time>
      </trkpt>
      <trkpt lat="42.41663" lon="1.84304">
        <ele>1180.8</ele>
        <time>2022-09-06T14:59:58Z</time>
      </trkpt>
      <trkpt lat="42.41667" lon="1.84302">
        <ele>1180.8</ele>
        <time>2022-09-06T14:59:59Z</time>
      </trkpt>
      <trkpt lat="42.4167" lon="1.84298">
        <ele>1180.8</ele>
        <time>2022-09-06T15:00:00Z</time>
      </trkpt>
      <trkpt lat="42.41673" lon="1.84294">
        <ele>1179.8</ele>
        <time>2022-09-06T15:00:01Z</time>
      </trkpt>
      <trkpt lat="42.41677" lon="1.84291">
        <ele>1179.2</ele>
        <time>2022-09-06T15:00:02Z</time>
      </trkpt>
      <trkpt lat="42.41682" lon="1.84288">
        <ele>1179.2</ele>
        <time>2022-09-06T15:00:03Z</time>
      </trkpt>
      <trkpt lat="42.41686" lon="1.84287">
        <ele>1179.2</ele>
        <time>2022-09-06T15:00:04Z</time>
      </trkpt>
      <trkpt lat="42.4169" lon="1.84287">
        <ele>1179.2</ele>
        <time>2022-09-06T15:00:05Z</time>
      </trkpt>
      <trkpt lat="42.41693" lon="1.84287">
        <ele>1179.2</ele>
        <time>2022-09-06T15:00:06Z</time>
      </trkpt>
      <trkpt lat="42.41697" lon="1.84287">
        <ele>1182.8</ele>
        <time>2022-09-06T15:00:07Z</time>
      </trkpt>
      <trkpt lat="42.417" lon="1.84287">
        <ele>1182.8</ele>
        <time>2022-09-06T15:00:08Z</time>
      </trkpt>
      <trkpt lat="42.41703" lon="1.84286">
        <ele>1182.8</ele>
        <time>2022-09-06T15:00:09Z</time>
      </trkpt>
      <trkpt lat="42.41706" lon="1.84286">
        <ele>1182.8</ele>
        <time>2022-09-06T15:00:10Z</time>
      </trkpt>
      <trkpt lat="42.4171" lon="1.84286">
        <ele>1182.2</ele>
        <time>2022-09-06T15:00:11Z</time>
      </trkpt>
      <trkpt lat="42.41713" lon="1.84285">
        <ele>1182.2</ele>
        <time>2022-09-06T15:00:12Z</time>
      </trkpt>
      <trkpt lat="42.41716" lon="1.84284">
        <ele>1182.2</ele>
        <time>2022-09-06T15:00:13Z</time>
      </trkpt>
      <trkpt lat="42.41719" lon="1.84284">
        <ele>1183.2</ele>
        <time>2022-09-06T15:00:14Z</time>
      </trkpt>
      <trkpt lat="42.41722" lon="1.84282">
        <ele>1185</ele>
        <time>2022-09-06T15:00:15Z</time>
      </trkpt>
      <trkpt lat="42.41724" lon="1.84281">
        <ele>1185</ele>
        <time>2022-09-06T15:00:16Z</time>
      </trkpt>
      <trkpt lat="42.41727" lon="1.84281">
        <ele>1185</ele>
        <time>2022-09-06T15:00:17Z</time>
      </trkpt>
      <trkpt lat="42.41729" lon="1.8428">
        <ele>1186</ele>
        <time>2022-09-06T15:00:18Z</time>
      </trkpt>
      <trkpt lat="42.41731" lon="1.84279">
        <ele>1185.8</ele>
        <time>2022-09-06T15:00:19Z</time>
      </trkpt>
      <trkpt lat="42.41732" lon="1.84278">
        <ele>1185.8</ele>
        <time>2022-09-06T15:00:20Z</time>
      </trkpt>
      <trkpt lat="42.41734" lon="1.84277">
        <ele>1185.8</ele>
        <time>2022-09-06T15:00:21Z</time>
      </trkpt>
      <trkpt lat="42.41736" lon="1.84276">
        <ele>1185.8</ele>
        <time>2022-09-06T15:00:22Z</time>
      </trkpt>
      <trkpt lat="42.41739" lon="1.84275">
        <ele>1185.8</ele>
        <time>2022-09-06T15:00:23Z</time>
      </trkpt>
      <trkpt lat="42.41742" lon="1.84274">
        <ele>1186.2</ele>
        <time>2022-09-06T15:00:24Z</time>
      </trkpt>
      <trkpt lat="42.41745" lon="1.84273">
        <ele>1186.2</ele>
        <time>2022-09-06T15:00:25Z</time>
      </trkpt>
      <trkpt lat="42.41748" lon="1.84272">
        <ele>1186.2</ele>
        <time>2022-09-06T15:00:26Z</time>
      </trkpt>
      <trkpt lat="42.41752" lon="1.84271">
        <ele>1186.4</ele>
        <time>2022-09-06T15:00:27Z</time>
      </trkpt>
      <trkpt lat="42.41755" lon="1.84269">
        <ele>1188.2</ele>
        <time>2022-09-06T15:00:28Z</time>
      </trkpt>
      <trkpt lat="42.41758" lon="1.84268">
        <ele>1188.2</ele>
        <time>2022-09-06T15:00:29Z</time>
      </trkpt>
      <trkpt lat="42.41761" lon="1.84266">
        <ele>1188.2</ele>
        <time>2022-09-06T15:00:30Z</time>
      </trkpt>
      <trkpt lat="42.41765" lon="1.84265">
        <ele>1187.8</ele>
        <time>2022-09-06T15:00:31Z</time>
      </trkpt>
      <trkpt lat="42.41769" lon="1.84263">
        <ele>1187.6</ele>
        <time>2022-09-06T15:00:32Z</time>
      </trkpt>
      <trkpt lat="42.41773" lon="1.84261">
        <ele>1187.6</ele>
        <time>2022-09-06T15:00:33Z</time>
      </trkpt>
      <trkpt lat="42.41777" lon="1.84259">
        <ele>1187.6</ele>
        <time>2022-09-06T15:00:34Z</time>
      </trkpt>
      <trkpt lat="42.41781" lon="1.84256">
        <ele>1188.4</ele>
        <time>2022-09-06T15:00:35Z</time>
      </trkpt>
      <trkpt lat="42.41785" lon="1.84254">
        <ele>1188.8</ele>
        <time>2022-09-06T15:00:36Z</time>
      </trkpt>
      <trkpt lat="42.4179" lon="1.84251">
        <ele>1188.8</ele>
        <time>2022-09-06T15:00:37Z</time>
      </trkpt>
      <trkpt lat="42.41795" lon="1.8425">
        <ele>1188.8</ele>
        <time>2022-09-06T15:00:38Z</time>
      </trkpt>
      <trkpt lat="42.418" lon="1.84248">
        <ele>1188.8</ele>
        <time>2022-09-06T15:00:39Z</time>
      </trkpt>
      <trkpt lat="42.41804" lon="1.84246">
        <ele>1188.8</ele>
        <time>2022-09-06T15:00:40Z</time>
      </trkpt>
      <trkpt lat="42.41808" lon="1.84245">
        <ele>1188.8</ele>
        <time>2022-09-06T15:00:41Z</time>
      </trkpt>
      <trkpt lat="42.41812" lon="1.84243">
        <ele>1188.8</ele>
        <time>2022-09-06T15:00:42Z</time>
      </trkpt>
      <trkpt lat="42.41817" lon="1.84243">
        <ele>1188.8</ele>
        <time>2022-09-06T15:00:43Z</time>
      </trkpt>
      <trkpt lat="42.41822" lon="1.84242">
        <ele>1189.8</ele>
        <time>2022-09-06T15:00:44Z</time>
      </trkpt>
      <trkpt lat="42.41827" lon="1.84242">
        <ele>1191.2</ele>
        <time>2022-09-06T15:00:45Z</time>
      </trkpt>
      <trkpt lat="42.41831" lon="1.84242">
        <ele>1191.2</ele>
        <time>2022-09-06T15:00:46Z</time>
      </trkpt>
      <trkpt lat="42.41835" lon="1.84243">
        <ele>1191.2</ele>
        <time>2022-09-06T15:00:47Z</time>
      </trkpt>
      <trkpt lat="42.41839" lon="1.84244">
        <ele>1191.2</ele>
        <time>2022-09-06T15:00:48Z</time>
      </trkpt>
      <trkpt lat="42.41842" lon="1.84245">
        <ele>1193</ele>
        <time>2022-09-06T15:00:49Z</time>
      </trkpt>
      <trkpt lat="42.41846" lon="1.84245">
        <ele>1193</ele>
        <time>2022-09-06T15:00:50Z</time>
      </trkpt>
      <trkpt lat="42.41849" lon="1.84246">
        <ele>1193</ele>
        <time>2022-09-06T15:00:51Z</time>
      </trkpt>
      <trkpt lat="42.41853" lon="1.84247">
        <ele>1193</ele>
        <time>2022-09-06T15:00:52Z</time>
      </trkpt>
      <trkpt lat="42.41856" lon="1.84248">
        <ele>1193</ele>
        <time>2022-09-06T15:00:53Z</time>
      </trkpt>
      <trkpt lat="42.41859" lon="1.84249">
        <ele>1195</ele>
        <time>2022-09-06T15:00:54Z</time>
      </trkpt>
      <trkpt lat="42.41861" lon="1.8425">
        <ele>1195</ele>
        <time>2022-09-06T15:00:55Z</time>
      </trkpt>
      <trkpt lat="42.41864" lon="1.84251">
        <ele>1195</ele>
        <time>2022-09-06T15:00:56Z</time>
      </trkpt>
      <trkpt lat="42.41867" lon="1.84252">
        <ele>1195</ele>
        <time>2022-09-06T15:00:57Z</time>
      </trkpt>
      <trkpt lat="42.41871" lon="1.84252">
        <ele>1195.4</ele>
        <time>2022-09-06T15:00:58Z</time>
      </trkpt>
      <trkpt lat="42.41874" lon="1.84253">
        <ele>1195.4</ele>
        <time>2022-09-06T15:00:59Z</time>
      </trkpt>
      <trkpt lat="42.41878" lon="1.84254">
        <ele>1195.4</ele>
        <time>2022-09-06T15:01:00Z</time>
      </trkpt>
      <trkpt lat="42.41882" lon="1.84255">
        <ele>1195.8</ele>
        <time>2022-09-06T15:01:01Z</time>
      </trkpt>
      <trkpt lat="42.41885" lon="1.84256">
        <ele>1197.8</ele>
        <time>2022-09-06T15:01:02Z</time>
      </trkpt>
      <trkpt lat="42.41889" lon="1.84257">
        <ele>1197.8</ele>
        <time>2022-09-06T15:01:03Z</time>
      </trkpt>
      <trkpt lat="42.41893" lon="1.84259">
        <ele>1197.8</ele>
        <time>2022-09-06T15:01:04Z</time>
      </trkpt>
      <trkpt lat="42.41896" lon="1.8426">
        <ele>1196.8</ele>
        <time>2022-09-06T15:01:05Z</time>
      </trkpt>
      <trkpt lat="42.41899" lon="1.8426">
        <ele>1197.8</ele>
        <time>2022-09-06T15:01:06Z</time>
      </trkpt>
      <trkpt lat="42.41903" lon="1.84261">
        <ele>1197.8</ele>
        <time>2022-09-06T15:01:07Z</time>
      </trkpt>
      <trkpt lat="42.41907" lon="1.84262">
        <ele>1197.8</ele>
        <time>2022-09-06T15:01:08Z</time>
      </trkpt>
      <trkpt lat="42.41911" lon="1.84263">
        <ele>1197.8</ele>
        <time>2022-09-06T15:01:09Z</time>
      </trkpt>
      <trkpt lat="42.41914" lon="1.84264">
        <ele>1198.4</ele>
        <time>2022-09-06T15:01:10Z</time>
      </trkpt>
      <trkpt lat="42.41918" lon="1.84265">
        <ele>1198.4</ele>
        <time>2022-09-06T15:01:11Z</time>
      </trkpt>
      <trkpt lat="42.41922" lon="1.84265">
        <ele>1198.4</ele>
        <time>2022-09-06T15:01:12Z</time>
      </trkpt>
      <trkpt lat="42.41926" lon="1.84264">
        <ele>1198.4</ele>
        <time>2022-09-06T15:01:13Z</time>
      </trkpt>
      <trkpt lat="42.41931" lon="1.84263">
        <ele>1198.6</ele>
        <time>2022-09-06T15:01:14Z</time>
      </trkpt>
      <trkpt lat="42.41936" lon="1.84261">
        <ele>1198.6</ele>
        <time>2022-09-06T15:01:15Z</time>
      </trkpt>
      <trkpt lat="42.41941" lon="1.84258">
        <ele>1198.6</ele>
        <time>2022-09-06T15:01:16Z</time>
      </trkpt>
      <trkpt lat="42.41945" lon="1.84256">
        <ele>1198.6</ele>
        <time>2022-09-06T15:01:17Z</time>
      </trkpt>
      <trkpt lat="42.4195" lon="1.84254">
        <ele>1199.6</ele>
        <time>2022-09-06T15:01:18Z</time>
      </trkpt>
      <trkpt lat="42.41954" lon="1.84253">
        <ele>1200.8</ele>
        <time>2022-09-06T15:01:19Z</time>
      </trkpt>
      <trkpt lat="42.41958" lon="1.84251">
        <ele>1200.8</ele>
        <time>2022-09-06T15:01:20Z</time>
      </trkpt>
      <trkpt lat="42.41962" lon="1.84249">
        <ele>1200.8</ele>
        <time>2022-09-06T15:01:21Z</time>
      </trkpt>
      <trkpt lat="42.41965" lon="1.84248">
        <ele>1200.8</ele>
        <time>2022-09-06T15:01:22Z</time>
      </trkpt>
      <trkpt lat="42.41969" lon="1.84248">
        <ele>1202.4</ele>
        <time>2022-09-06T15:01:23Z</time>
      </trkpt>
      <trkpt lat="42.41971" lon="1.84249">
        <ele>1202.4</ele>
        <time>2022-09-06T15:01:24Z</time>
      </trkpt>
      <trkpt lat="42.41974" lon="1.84252">
        <ele>1202.4</ele>
        <time>2022-09-06T15:01:25Z</time>
      </trkpt>
      <trkpt lat="42.41976" lon="1.84254">
        <ele>1203.4</ele>
        <time>2022-09-06T15:01:26Z</time>
      </trkpt>
      <trkpt lat="42.41979" lon="1.84255">
        <ele>1203.4</ele>
        <time>2022-09-06T15:01:27Z</time>
      </trkpt>
      <trkpt lat="42.41982" lon="1.84255">
        <ele>1203.4</ele>
        <time>2022-09-06T15:01:28Z</time>
      </trkpt>
      <trkpt lat="42.41984" lon="1.84254">
        <ele>1203.4</ele>
        <time>2022-09-06T15:01:29Z</time>
      </trkpt>
      <trkpt lat="42.41988" lon="1.84254">
        <ele>1204.4</ele>
        <time>2022-09-06T15:01:30Z</time>
      </trkpt>
      <trkpt lat="42.4199" lon="1.84253">
        <ele>1206.2</ele>
        <time>2022-09-06T15:01:31Z</time>
      </trkpt>
      <trkpt lat="42.41993" lon="1.84254">
        <ele>1206.2</ele>
        <time>2022-09-06T15:01:32Z</time>
      </trkpt>
      <trkpt lat="42.41995" lon="1.84254">
        <ele>1206.2</ele>
        <time>2022-09-06T15:01:33Z</time>
      </trkpt>
      <trkpt lat="42.41998" lon="1.84255">
        <ele>1207.2</ele>
        <time>2022-09-06T15:01:34Z</time>
      </trkpt>
      <trkpt lat="42.42001" lon="1.84255">
        <ele>1208.4</ele>
        <time>2022-09-06T15:01:35Z</time>
      </trkpt>
      <trkpt lat="42.42004" lon="1.84255">
        <ele>1208.4</ele>
        <time>2022-09-06T15:01:36Z</time>
      </trkpt>
      <trkpt lat="42.42007" lon="1.84255">
        <ele>1208.4</ele>
        <time>2022-09-06T15:01:37Z</time>
      </trkpt>
      <trkpt lat="42.4201" lon="1.84255">
        <ele>1208.4</ele>
        <time>2022-09-06T15:01:38Z</time>
      </trkpt>
      <trkpt lat="42.42013" lon="1.84255">
        <ele>1209.2</ele>
        <time>2022-09-06T15:01:39Z</time>
      </trkpt>
      <trkpt lat="42.42017" lon="1.84255">
        <ele>1210.4</ele>
        <time>2022-09-06T15:01:40Z</time>
      </trkpt>
      <trkpt lat="42.4202" lon="1.84255">
        <ele>1210.4</ele>
        <time>2022-09-06T15:01:41Z</time>
      </trkpt>
      <trkpt lat="42.42022" lon="1.84255">
        <ele>1210.4</ele>
        <time>2022-09-06T15:01:42Z</time>
      </trkpt>
      <trkpt lat="42.42025" lon="1.84255">
        <ele>1210.4</ele>
        <time>2022-09-06T15:01:43Z</time>
      </trkpt>
      <trkpt lat="42.42028" lon="1.84255">
        <ele>1211.8</ele>
        <time>2022-09-06T15:01:44Z</time>
      </trkpt>
      <trkpt lat="42.42031" lon="1.84255">
        <ele>1211.8</ele>
        <time>2022-09-06T15:01:45Z</time>
      </trkpt>
      <trkpt lat="42.42034" lon="1.84256">
        <ele>1211.8</ele>
        <time>2022-09-06T15:01:46Z</time>
      </trkpt>
      <trkpt lat="42.42037" lon="1.84257">
        <ele>1212.8</ele>
        <time>2022-09-06T15:01:47Z</time>
      </trkpt>
      <trkpt lat="42.4204" lon="1.84257">
        <ele>1212.2</ele>
        <time>2022-09-06T15:01:48Z</time>
      </trkpt>
      <trkpt lat="42.42044" lon="1.84257">
        <ele>1212.2</ele>
        <time>2022-09-06T15:01:49Z</time>
      </trkpt>
      <trkpt lat="42.42048" lon="1.84257">
        <ele>1212.2</ele>
        <time>2022-09-06T15:01:50Z</time>
      </trkpt>
      <trkpt lat="42.42051" lon="1.84256">
        <ele>1213</ele>
        <time>2022-09-06T15:01:51Z</time>
      </trkpt>
      <trkpt lat="42.42055" lon="1.84255">
        <ele>1213.4</ele>
        <time>2022-09-06T15:01:52Z</time>
      </trkpt>
      <trkpt lat="42.42058" lon="1.84254">
        <ele>1213.4</ele>
        <time>2022-09-06T15:01:53Z</time>
      </trkpt>
      <trkpt lat="42.42062" lon="1.84252">
        <ele>1213.4</ele>
        <time>2022-09-06T15:01:54Z</time>
      </trkpt>
      <trkpt lat="42.42066" lon="1.84251">
        <ele>1213.4</ele>
        <time>2022-09-06T15:01:55Z</time>
      </trkpt>
      <trkpt lat="42.4207" lon="1.8425">
        <ele>1212.6</ele>
        <time>2022-09-06T15:01:56Z</time>
      </trkpt>
      <trkpt lat="42.42075" lon="1.84248">
        <ele>1212.8</ele>
        <time>2022-09-06T15:01:57Z</time>
      </trkpt>
      <trkpt lat="42.4208" lon="1.84246">
        <ele>1212.8</ele>
        <time>2022-09-06T15:01:58Z</time>
      </trkpt>
      <trkpt lat="42.42084" lon="1.84244">
        <ele>1212.8</ele>
        <time>2022-09-06T15:01:59Z</time>
      </trkpt>
      <trkpt lat="42.42089" lon="1.84242">
        <ele>1212.8</ele>
        <time>2022-09-06T15:02:00Z</time>
      </trkpt>
      <trkpt lat="42.42094" lon="1.84239">
        <ele>1213.6</ele>
        <time>2022-09-06T15:02:01Z</time>
      </trkpt>
      <trkpt lat="42.42098" lon="1.84236">
        <ele>1213.6</ele>
        <time>2022-09-06T15:02:02Z</time>
      </trkpt>
      <trkpt lat="42.42103" lon="1.84233">
        <ele>1213.6</ele>
        <time>2022-09-06T15:02:03Z</time>
      </trkpt>
      <trkpt lat="42.42107" lon="1.8423">
        <ele>1213.6</ele>
        <time>2022-09-06T15:02:04Z</time>
      </trkpt>
      <trkpt lat="42.42111" lon="1.84226">
        <ele>1213.6</ele>
        <time>2022-09-06T15:02:05Z</time>
      </trkpt>
      <trkpt lat="42.42115" lon="1.84222">
        <ele>1213.6</ele>
        <time>2022-09-06T15:02:06Z</time>
      </trkpt>
      <trkpt lat="42.42119" lon="1.84218">
        <ele>1213.6</ele>
        <time>2022-09-06T15:02:07Z</time>
      </trkpt>
      <trkpt lat="42.42123" lon="1.84214">
        <ele>1213.6</ele>
        <time>2022-09-06T15:02:08Z</time>
      </trkpt>
      <trkpt lat="42.42127" lon="1.8421">
        <ele>1213.6</ele>
        <time>2022-09-06T15:02:09Z</time>
      </trkpt>
      <trkpt lat="42.4213" lon="1.84207">
        <ele>1214.2</ele>
        <time>2022-09-06T15:02:10Z</time>
      </trkpt>
      <trkpt lat="42.42135" lon="1.84204">
        <ele>1214.2</ele>
        <time>2022-09-06T15:02:11Z</time>
      </trkpt>
      <trkpt lat="42.42139" lon="1.84201">
        <ele>1214.2</ele>
        <time>2022-09-06T15:02:12Z</time>
      </trkpt>
      <trkpt lat="42.42144" lon="1.84197">
        <ele>1214.2</ele>
        <time>2022-09-06T15:02:13Z</time>
      </trkpt>
      <trkpt lat="42.42148" lon="1.84193">
        <ele>1213.8</ele>
        <time>2022-09-06T15:02:14Z</time>
      </trkpt>
      <trkpt lat="42.42152" lon="1.8419">
        <ele>1213.8</ele>
        <time>2022-09-06T15:02:15Z</time>
      </trkpt>
      <trkpt lat="42.42156" lon="1.84186">
        <ele>1213.8</ele>
        <time>2022-09-06T15:02:16Z</time>
      </trkpt>
      <trkpt lat="42.4216" lon="1.84184">
        <ele>1214.6</ele>
        <time>2022-09-06T15:02:17Z</time>
      </trkpt>
      <trkpt lat="42.42165" lon="1.84182">
        <ele>1214.6</ele>
        <time>2022-09-06T15:02:18Z</time>
      </trkpt>
      <trkpt lat="42.42169" lon="1.8418">
        <ele>1214.6</ele>
        <time>2022-09-06T15:02:19Z</time>
      </trkpt>
      <trkpt lat="42.42174" lon="1.84179">
        <ele>1214.6</ele>
        <time>2022-09-06T15:02:20Z</time>
      </trkpt>
      <trkpt lat="42.42179" lon="1.84177">
        <ele>1215.6</ele>
        <time>2022-09-06T15:02:21Z</time>
      </trkpt>
      <trkpt lat="42.42184" lon="1.84174">
        <ele>1216</ele>
        <time>2022-09-06T15:02:22Z</time>
      </trkpt>
      <trkpt lat="42.42189" lon="1.84172">
        <ele>1216</ele>
        <time>2022-09-06T15:02:23Z</time>
      </trkpt>
      <trkpt lat="42.42194" lon="1.8417">
        <ele>1216</ele>
        <time>2022-09-06T15:02:24Z</time>
      </trkpt>
      <trkpt lat="42.42198" lon="1.84168">
        <ele>1216</ele>
        <time>2022-09-06T15:02:25Z</time>
      </trkpt>
      <trkpt lat="42.42202" lon="1.84166">
        <ele>1216.6</ele>
        <time>2022-09-06T15:02:26Z</time>
      </trkpt>
      <trkpt lat="42.42206" lon="1.84164">
        <ele>1217.8</ele>
        <time>2022-09-06T15:02:27Z</time>
      </trkpt>
      <trkpt lat="42.4221" lon="1.84161">
        <ele>1217.8</ele>
        <time>2022-09-06T15:02:28Z</time>
      </trkpt>
      <trkpt lat="42.42214" lon="1.84158">
        <ele>1217.8</ele>
        <time>2022-09-06T15:02:29Z</time>
      </trkpt>
      <trkpt lat="42.42218" lon="1.84155">
        <ele>1216.8</ele>
        <time>2022-09-06T15:02:30Z</time>
      </trkpt>
      <trkpt lat="42.42222" lon="1.84152">
        <ele>1219.4</ele>
        <time>2022-09-06T15:02:31Z</time>
      </trkpt>
      <trkpt lat="42.42226" lon="1.84149">
        <ele>1219.4</ele>
        <time>2022-09-06T15:02:32Z</time>
      </trkpt>
      <trkpt lat="42.42229" lon="1.84145">
        <ele>1219.4</ele>
        <time>2022-09-06T15:02:33Z</time>
      </trkpt>
      <trkpt lat="42.42233" lon="1.84142">
        <ele>1219.2</ele>
        <time>2022-09-06T15:02:34Z</time>
      </trkpt>
      <trkpt lat="42.42236" lon="1.84139">
        <ele>1220.8</ele>
        <time>2022-09-06T15:02:35Z</time>
      </trkpt>
      <trkpt lat="42.42239" lon="1.84137">
        <ele>1220.8</ele>
        <time>2022-09-06T15:02:36Z</time>
      </trkpt>
      <trkpt lat="42.42241" lon="1.84135">
        <ele>1220.8</ele>
        <time>2022-09-06T15:02:37Z</time>
      </trkpt>
      <trkpt lat="42.42243" lon="1.84135">
        <ele>1220.8</ele>
        <time>2022-09-06T15:02:38Z</time>
      </trkpt>
      <trkpt lat="42.42245" lon="1.84134">
        <ele>1222.2</ele>
        <time>2022-09-06T15:02:39Z</time>
      </trkpt>
      <trkpt lat="42.42247" lon="1.84133">
        <ele>1222.2</ele>
        <time>2022-09-06T15:02:40Z</time>
      </trkpt>
      <trkpt lat="42.4225" lon="1.84131">
        <ele>1222.2</ele>
        <time>2022-09-06T15:02:41Z</time>
      </trkpt>
      <trkpt lat="42.42252" lon="1.84129">
        <ele>1222.2</ele>
        <time>2022-09-06T15:02:42Z</time>
      </trkpt>
      <trkpt lat="42.42255" lon="1.84127">
        <ele>1222.6</ele>
        <time>2022-09-06T15:02:43Z</time>
      </trkpt>
      <trkpt lat="42.42258" lon="1.84124">
        <ele>1222.6</ele>
        <time>2022-09-06T15:02:44Z</time>
      </trkpt>
      <trkpt lat="42.42261" lon="1.84122">
        <ele>1222.6</ele>
        <time>2022-09-06T15:02:45Z</time>
      </trkpt>
      <trkpt lat="42.42264" lon="1.84119">
        <ele>1223.6</ele>
        <time>2022-09-06T15:02:46Z</time>
      </trkpt>
      <trkpt lat="42.42266" lon="1.84116">
        <ele>1223.6</ele>
        <time>2022-09-06T15:02:47Z</time>
      </trkpt>
      <trkpt lat="42.4227" lon="1.84114">
        <ele>1224</ele>
        <time>2022-09-06T15:02:48Z</time>
      </trkpt>
      <trkpt lat="42.42273" lon="1.84111">
        <ele>1224</ele>
        <time>2022-09-06T15:02:49Z</time>
      </trkpt>
      <trkpt lat="42.42276" lon="1.84108">
        <ele>1224</ele>
        <time>2022-09-06T15:02:50Z</time>
      </trkpt>
      <trkpt lat="42.42279" lon="1.84106">
        <ele>1225</ele>
        <time>2022-09-06T15:02:51Z</time>
      </trkpt>
      <trkpt lat="42.42282" lon="1.84104">
        <ele>1227</ele>
        <time>2022-09-06T15:02:52Z</time>
      </trkpt>
      <trkpt lat="42.42285" lon="1.84101">
        <ele>1227</ele>
        <time>2022-09-06T15:02:53Z</time>
      </trkpt>
      <trkpt lat="42.42289" lon="1.84097">
        <ele>1227</ele>
        <time>2022-09-06T15:02:54Z</time>
      </trkpt>
      <trkpt lat="42.42293" lon="1.84094">
        <ele>1227</ele>
        <time>2022-09-06T15:02:55Z</time>
      </trkpt>
      <trkpt lat="42.42297" lon="1.84092">
        <ele>1227.8</ele>
        <time>2022-09-06T15:02:56Z</time>
      </trkpt>
      <trkpt lat="42.423" lon="1.8409">
        <ele>1227.8</ele>
        <time>2022-09-06T15:02:57Z</time>
      </trkpt>
      <trkpt lat="42.42304" lon="1.84088">
        <ele>1227.8</ele>
        <time>2022-09-06T15:02:58Z</time>
      </trkpt>
      <trkpt lat="42.42307" lon="1.84086">
        <ele>1227.8</ele>
        <time>2022-09-06T15:02:59Z</time>
      </trkpt>
      <trkpt lat="42.4231" lon="1.84083">
        <ele>1230.2</ele>
        <time>2022-09-06T15:03:00Z</time>
      </trkpt>
      <trkpt lat="42.42312" lon="1.84081">
        <ele>1230.2</ele>
        <time>2022-09-06T15:03:01Z</time>
      </trkpt>
      <trkpt lat="42.42315" lon="1.84078">
        <ele>1230.2</ele>
        <time>2022-09-06T15:03:02Z</time>
      </trkpt>
      <trkpt lat="42.42317" lon="1.84077">
        <ele>1231.2</ele>
        <time>2022-09-06T15:03:03Z</time>
      </trkpt>
      <trkpt lat="42.4232" lon="1.84076">
        <ele>1231.8</ele>
        <time>2022-09-06T15:03:04Z</time>
      </trkpt>
      <trkpt lat="42.42323" lon="1.84075">
        <ele>1231.8</ele>
        <time>2022-09-06T15:03:05Z</time>
      </trkpt>
      <trkpt lat="42.42325" lon="1.84073">
        <ele>1231.8</ele>
        <time>2022-09-06T15:03:06Z</time>
      </trkpt>
      <trkpt lat="42.42328" lon="1.84072">
        <ele>1231.8</ele>
        <time>2022-09-06T15:03:07Z</time>
      </trkpt>
      <trkpt lat="42.4233" lon="1.8407">
        <ele>1231.8</ele>
        <time>2022-09-06T15:03:08Z</time>
      </trkpt>
      <trkpt lat="42.42333" lon="1.84068">
        <ele>1232.6</ele>
        <time>2022-09-06T15:03:09Z</time>
      </trkpt>
      <trkpt lat="42.42336" lon="1.84066">
        <ele>1232.6</ele>
        <time>2022-09-06T15:03:10Z</time>
      </trkpt>
      <trkpt lat="42.42338" lon="1.84063">
        <ele>1232.6</ele>
        <time>2022-09-06T15:03:11Z</time>
      </trkpt>
      <trkpt lat="42.42341" lon="1.84061">
        <ele>1232.6</ele>
        <time>2022-09-06T15:03:12Z</time>
      </trkpt>
      <trkpt lat="42.42344" lon="1.84059">
        <ele>1231</ele>
        <time>2022-09-06T15:03:13Z</time>
      </trkpt>
      <trkpt lat="42.42347" lon="1.84057">
        <ele>1231</ele>
        <time>2022-09-06T15:03:14Z</time>
      </trkpt>
      <trkpt lat="42.42351" lon="1.84055">
        <ele>1231</ele>
        <time>2022-09-06T15:03:15Z</time>
      </trkpt>
      <trkpt lat="42.42354" lon="1.84054">
        <ele>1231</ele>
        <time>2022-09-06T15:03:16Z</time>
      </trkpt>
      <trkpt lat="42.42358" lon="1.84053">
        <ele>1233</ele>
        <time>2022-09-06T15:03:17Z</time>
      </trkpt>
      <trkpt lat="42.42361" lon="1.84052">
        <ele>1233</ele>
        <time>2022-09-06T15:03:18Z</time>
      </trkpt>
      <trkpt lat="42.42364" lon="1.84052">
        <ele>1233</ele>
        <time>2022-09-06T15:03:19Z</time>
      </trkpt>
      <trkpt lat="42.42367" lon="1.84053">
        <ele>1234</ele>
        <time>2022-09-06T15:03:20Z</time>
      </trkpt>
      <trkpt lat="42.42369" lon="1.84053">
        <ele>1235</ele>
        <time>2022-09-06T15:03:21Z</time>
      </trkpt>
      <trkpt lat="42.42372" lon="1.84053">
        <ele>1235</ele>
        <time>2022-09-06T15:03:22Z</time>
      </trkpt>
      <trkpt lat="42.42375" lon="1.84054">
        <ele>1235</ele>
        <time>2022-09-06T15:03:23Z</time>
      </trkpt>
      <trkpt lat="42.42377" lon="1.84054">
        <ele>1235</ele>
        <time>2022-09-06T15:03:24Z</time>
      </trkpt>
      <trkpt lat="42.4238" lon="1.84054">
        <ele>1236</ele>
        <time>2022-09-06T15:03:25Z</time>
      </trkpt>
      <trkpt lat="42.42382" lon="1.84054">
        <ele>1237</ele>
        <time>2022-09-06T15:03:26Z</time>
      </trkpt>
      <trkpt lat="42.42385" lon="1.84054">
        <ele>1237</ele>
        <time>2022-09-06T15:03:27Z</time>
      </trkpt>
      <trkpt lat="42.42388" lon="1.84054">
        <ele>1237</ele>
        <time>2022-09-06T15:03:28Z</time>
      </trkpt>
      <trkpt lat="42.4239" lon="1.84055">
        <ele>1238</ele>
        <time>2022-09-06T15:03:29Z</time>
      </trkpt>
      <trkpt lat="42.42393" lon="1.84055">
        <ele>1239.8</ele>
        <time>2022-09-06T15:03:30Z</time>
      </trkpt>
      <trkpt lat="42.42396" lon="1.84055">
        <ele>1239.8</ele>
        <time>2022-09-06T15:03:31Z</time>
      </trkpt>
      <trkpt lat="42.42399" lon="1.84055">
        <ele>1239.8</ele>
        <time>2022-09-06T15:03:32Z</time>
      </trkpt>
      <trkpt lat="42.42403" lon="1.84055">
        <ele>1239.8</ele>
        <time>2022-09-06T15:03:33Z</time>
      </trkpt>
      <trkpt lat="42.42406" lon="1.84055">
        <ele>1242.8</ele>
        <time>2022-09-06T15:03:34Z</time>
      </trkpt>
      <trkpt lat="42.4241" lon="1.84054">
        <ele>1242.8</ele>
        <time>2022-09-06T15:03:35Z</time>
      </trkpt>
      <trkpt lat="42.42413" lon="1.84054">
        <ele>1242.8</ele>
        <time>2022-09-06T15:03:36Z</time>
      </trkpt>
      <trkpt lat="42.42417" lon="1.84053">
        <ele>1242.2</ele>
        <time>2022-09-06T15:03:37Z</time>
      </trkpt>
      <trkpt lat="42.4242" lon="1.84053">
        <ele>1242.2</ele>
        <time>2022-09-06T15:03:38Z</time>
      </trkpt>
      <trkpt lat="42.42423" lon="1.84052">
        <ele>1242.8</ele>
        <time>2022-09-06T15:03:39Z</time>
      </trkpt>
      <trkpt lat="42.42427" lon="1.84051">
        <ele>1242.8</ele>
        <time>2022-09-06T15:03:40Z</time>
      </trkpt>
      <trkpt lat="42.4243" lon="1.8405">
        <ele>1242.8</ele>
        <time>2022-09-06T15:03:41Z</time>
      </trkpt>
      <trkpt lat="42.42433" lon="1.84049">
        <ele>1242.8</ele>
        <time>2022-09-06T15:03:42Z</time>
      </trkpt>
      <trkpt lat="42.42437" lon="1.84048">
        <ele>1243.6</ele>
        <time>2022-09-06T15:03:43Z</time>
      </trkpt>
      <trkpt lat="42.42441" lon="1.84047">
        <ele>1243.6</ele>
        <time>2022-09-06T15:03:44Z</time>
      </trkpt>
      <trkpt lat="42.42444" lon="1.84047">
        <ele>1243.6</ele>
        <time>2022-09-06T15:03:45Z</time>
      </trkpt>
      <trkpt lat="42.42447" lon="1.84048">
        <ele>1243.6</ele>
        <time>2022-09-06T15:03:46Z</time>
      </trkpt>
      <trkpt lat="42.42449" lon="1.84049">
        <ele>1244.6</ele>
        <time>2022-09-06T15:03:47Z</time>
      </trkpt>
      <trkpt lat="42.42451" lon="1.84049">
        <ele>1244.6</ele>
        <time>2022-09-06T15:03:48Z</time>
      </trkpt>
      <trkpt lat="42.42454" lon="1.84049">
        <ele>1244.6</ele>
        <time>2022-09-06T15:03:49Z</time>
      </trkpt>
      <trkpt lat="42.42456" lon="1.84049">
        <ele>1245.6</ele>
        <time>2022-09-06T15:03:50Z</time>
      </trkpt>
      <trkpt lat="42.42458" lon="1.84048">
        <ele>1248.2</ele>
        <time>2022-09-06T15:03:51Z</time>
      </trkpt>
      <trkpt lat="42.42459" lon="1.84049">
        <ele>1248.2</ele>
        <time>2022-09-06T15:03:52Z</time>
      </trkpt>
      <trkpt lat="42.42461" lon="1.84049">
        <ele>1248.2</ele>
        <time>2022-09-06T15:03:53Z</time>
      </trkpt>
      <trkpt lat="42.42462" lon="1.84049">
        <ele>1248.2</ele>
        <time>2022-09-06T15:03:54Z</time>
      </trkpt>
      <trkpt lat="42.42464" lon="1.84049">
        <ele>1248.8</ele>
        <time>2022-09-06T15:03:55Z</time>
      </trkpt>
      <trkpt lat="42.42466" lon="1.84049">
        <ele>1248.8</ele>
        <time>2022-09-06T15:03:56Z</time>
      </trkpt>
      <trkpt lat="42.42468" lon="1.84049">
        <ele>1248.8</ele>
        <time>2022-09-06T15:03:57Z</time>
      </trkpt>
      <trkpt lat="42.4247" lon="1.84049">
        <ele>1248.8</ele>
        <time>2022-09-06T15:03:58Z</time>
      </trkpt>
      <trkpt lat="42.42472" lon="1.84049">
        <ele>1249.8</ele>
        <time>2022-09-06T15:03:59Z</time>
      </trkpt>
      <trkpt lat="42.42475" lon="1.84048">
        <ele>1251</ele>
        <time>2022-09-06T15:04:00Z</time>
      </trkpt>
      <trkpt lat="42.42478" lon="1.84048">
        <ele>1251</ele>
        <time>2022-09-06T15:04:01Z</time>
      </trkpt>
      <trkpt lat="42.42481" lon="1.84047">
        <ele>1251</ele>
        <time>2022-09-06T15:04:02Z</time>
      </trkpt>
      <trkpt lat="42.42484" lon="1.84046">
        <ele>1251</ele>
        <time>2022-09-06T15:04:03Z</time>
      </trkpt>
      <trkpt lat="42.42487" lon="1.84046">
        <ele>1251</ele>
        <time>2022-09-06T15:04:04Z</time>
      </trkpt>
      <trkpt lat="42.4249" lon="1.84046">
        <ele>1251</ele>
        <time>2022-09-06T15:04:05Z</time>
      </trkpt>
      <trkpt lat="42.42494" lon="1.84046">
        <ele>1251</ele>
        <time>2022-09-06T15:04:06Z</time>
      </trkpt>
      <trkpt lat="42.42498" lon="1.84046">
        <ele>1251</ele>
        <time>2022-09-06T15:04:07Z</time>
      </trkpt>
      <trkpt lat="42.42503" lon="1.84045">
        <ele>1250.4</ele>
        <time>2022-09-06T15:04:08Z</time>
      </trkpt>
      <trkpt lat="42.42507" lon="1.84044">
        <ele>1250.4</ele>
        <time>2022-09-06T15:04:09Z</time>
      </trkpt>
      <trkpt lat="42.42512" lon="1.84042">
        <ele>1250.4</ele>
        <time>2022-09-06T15:04:10Z</time>
      </trkpt>
      <trkpt lat="42.42516" lon="1.84041">
        <ele>1251.4</ele>
        <time>2022-09-06T15:04:11Z</time>
      </trkpt>
      <trkpt lat="42.4252" lon="1.8404">
        <ele>1250.8</ele>
        <time>2022-09-06T15:04:12Z</time>
      </trkpt>
      <trkpt lat="42.42524" lon="1.84041">
        <ele>1250.8</ele>
        <time>2022-09-06T15:04:13Z</time>
      </trkpt>
      <trkpt lat="42.42529" lon="1.84043">
        <ele>1250.8</ele>
        <time>2022-09-06T15:04:14Z</time>
      </trkpt>
      <trkpt lat="42.42533" lon="1.84046">
        <ele>1250.8</ele>
        <time>2022-09-06T15:04:15Z</time>
      </trkpt>
      <trkpt lat="42.42537" lon="1.84048">
        <ele>1250.8</ele>
        <time>2022-09-06T15:04:16Z</time>
      </trkpt>
      <trkpt lat="42.42541" lon="1.8405">
        <ele>1250.4</ele>
        <time>2022-09-06T15:04:17Z</time>
      </trkpt>
      <trkpt lat="42.42545" lon="1.84052">
        <ele>1250.4</ele>
        <time>2022-09-06T15:04:18Z</time>
      </trkpt>
      <trkpt lat="42.42549" lon="1.84053">
        <ele>1250.4</ele>
        <time>2022-09-06T15:04:19Z</time>
      </trkpt>
      <trkpt lat="42.42552" lon="1.84054">
        <ele>1251.4</ele>
        <time>2022-09-06T15:04:20Z</time>
      </trkpt>
      <trkpt lat="42.42555" lon="1.84054">
        <ele>1253.4</ele>
        <time>2022-09-06T15:04:21Z</time>
      </trkpt>
      <trkpt lat="42.42559" lon="1.84055">
        <ele>1253.4</ele>
        <time>2022-09-06T15:04:22Z</time>
      </trkpt>
      <trkpt lat="42.42562" lon="1.84055">
        <ele>1253.4</ele>
        <time>2022-09-06T15:04:23Z</time>
      </trkpt>
      <trkpt lat="42.42567" lon="1.84056">
        <ele>1253.4</ele>
        <time>2022-09-06T15:04:24Z</time>
      </trkpt>
      <trkpt lat="42.42571" lon="1.84057">
        <ele>1253.6</ele>
        <time>2022-09-06T15:04:25Z</time>
      </trkpt>
      <trkpt lat="42.42576" lon="1.84058">
        <ele>1253.6</ele>
        <time>2022-09-06T15:04:26Z</time>
      </trkpt>
      <trkpt lat="42.42581" lon="1.84059">
        <ele>1253.6</ele>
        <time>2022-09-06T15:04:27Z</time>
      </trkpt>
      <trkpt lat="42.42586" lon="1.84059">
        <ele>1254.2</ele>
        <time>2022-09-06T15:04:28Z</time>
      </trkpt>
      <trkpt lat="42.4259" lon="1.84059">
        <ele>1256</ele>
        <time>2022-09-06T15:04:29Z</time>
      </trkpt>
      <trkpt lat="42.42595" lon="1.84059">
        <ele>1256</ele>
        <time>2022-09-06T15:04:30Z</time>
      </trkpt>
      <trkpt lat="42.426" lon="1.84059">
        <ele>1256</ele>
        <time>2022-09-06T15:04:31Z</time>
      </trkpt>
      <trkpt lat="42.42604" lon="1.84059">
        <ele>1256</ele>
        <time>2022-09-06T15:04:32Z</time>
      </trkpt>
      <trkpt lat="42.42608" lon="1.84059">
        <ele>1257.4</ele>
        <time>2022-09-06T15:04:33Z</time>
      </trkpt>
      <trkpt lat="42.42612" lon="1.84059">
        <ele>1257.4</ele>
        <time>2022-09-06T15:04:34Z</time>
      </trkpt>
      <trkpt lat="42.42615" lon="1.84059">
        <ele>1257.4</ele>
        <time>2022-09-06T15:04:35Z</time>
      </trkpt>
      <trkpt lat="42.42618" lon="1.84059">
        <ele>1257.4</ele>
        <time>2022-09-06T15:04:36Z</time>
      </trkpt>
      <trkpt lat="42.42621" lon="1.84058">
        <ele>1258.4</ele>
        <time>2022-09-06T15:04:37Z</time>
      </trkpt>
      <trkpt lat="42.42625" lon="1.84057">
        <ele>1258.6</ele>
        <time>2022-09-06T15:04:38Z</time>
      </trkpt>
      <trkpt lat="42.4263" lon="1.84056">
        <ele>1258.6</ele>
        <time>2022-09-06T15:04:39Z</time>
      </trkpt>
      <trkpt lat="42.42634" lon="1.84055">
        <ele>1258.6</ele>
        <time>2022-09-06T15:04:40Z</time>
      </trkpt>
      <trkpt lat="42.42639" lon="1.84054">
        <ele>1258.6</ele>
        <time>2022-09-06T15:04:41Z</time>
      </trkpt>
      <trkpt lat="42.42644" lon="1.84053">
        <ele>1260.6</ele>
        <time>2022-09-06T15:04:42Z</time>
      </trkpt>
      <trkpt lat="42.42648" lon="1.84052">
        <ele>1260.6</ele>
        <time>2022-09-06T15:04:43Z</time>
      </trkpt>
      <trkpt lat="42.42652" lon="1.84051">
        <ele>1260.6</ele>
        <time>2022-09-06T15:04:44Z</time>
      </trkpt>
      <trkpt lat="42.42656" lon="1.8405">
        <ele>1261.6</ele>
        <time>2022-09-06T15:04:45Z</time>
      </trkpt>
      <trkpt lat="42.4266" lon="1.84049">
        <ele>1263.8</ele>
        <time>2022-09-06T15:04:46Z</time>
      </trkpt>
      <trkpt lat="42.42664" lon="1.84048">
        <ele>1263.8</ele>
        <time>2022-09-06T15:04:47Z</time>
      </trkpt>
      <trkpt lat="42.42669" lon="1.84047">
        <ele>1263.8</ele>
        <time>2022-09-06T15:04:48Z</time>
      </trkpt>
      <trkpt lat="42.42673" lon="1.84045">
        <ele>1263.6</ele>
        <time>2022-09-06T15:04:49Z</time>
      </trkpt>
      <trkpt lat="42.42677" lon="1.84045">
        <ele>1263.8</ele>
        <time>2022-09-06T15:04:50Z</time>
      </trkpt>
      <trkpt lat="42.42681" lon="1.84044">
        <ele>1263.8</ele>
        <time>2022-09-06T15:04:51Z</time>
      </trkpt>
      <trkpt lat="42.42684" lon="1.84043">
        <ele>1263.8</ele>
        <time>2022-09-06T15:04:52Z</time>
      </trkpt>
      <trkpt lat="42.42687" lon="1.84042">
        <ele>1263.8</ele>
        <time>2022-09-06T15:04:53Z</time>
      </trkpt>
      <trkpt lat="42.4269" lon="1.84041">
        <ele>1264.8</ele>
        <time>2022-09-06T15:04:54Z</time>
      </trkpt>
      <trkpt lat="42.42692" lon="1.8404">
        <ele>1266.8</ele>
        <time>2022-09-06T15:04:55Z</time>
      </trkpt>
      <trkpt lat="42.42695" lon="1.84039">
        <ele>1266.8</ele>
        <time>2022-09-06T15:04:56Z</time>
      </trkpt>
      <trkpt lat="42.42698" lon="1.84038">
        <ele>1266.8</ele>
        <time>2022-09-06T15:04:57Z</time>
      </trkpt>
      <trkpt lat="42.42701" lon="1.84038">
        <ele>1267.8</ele>
        <time>2022-09-06T15:04:58Z</time>
      </trkpt>
      <trkpt lat="42.42704" lon="1.84038">
        <ele>1269.2</ele>
        <time>2022-09-06T15:04:59Z</time>
      </trkpt>
      <trkpt lat="42.42707" lon="1.84039">
        <ele>1269.2</ele>
        <time>2022-09-06T15:05:00Z</time>
      </trkpt>
      <trkpt lat="42.4271" lon="1.8404">
        <ele>1269.2</ele>
        <time>2022-09-06T15:05:01Z</time>
      </trkpt>
      <trkpt lat="42.42713" lon="1.84041">
        <ele>1270.2</ele>
        <time>2022-09-06T15:05:02Z</time>
      </trkpt>
      <trkpt lat="42.42716" lon="1.84041">
        <ele>1271.2</ele>
        <time>2022-09-06T15:05:03Z</time>
      </trkpt>
      <trkpt lat="42.42719" lon="1.84041">
        <ele>1271.2</ele>
        <time>2022-09-06T15:05:04Z</time>
      </trkpt>
      <trkpt lat="42.42721" lon="1.84041">
        <ele>1271.2</ele>
        <time>2022-09-06T15:05:05Z</time>
      </trkpt>
      <trkpt lat="42.42724" lon="1.84041">
        <ele>1271.2</ele>
        <time>2022-09-06T15:05:06Z</time>
      </trkpt>
      <trkpt lat="42.42728" lon="1.8404">
        <ele>1269.8</ele>
        <time>2022-09-06T15:05:07Z</time>
      </trkpt>
      <trkpt lat="42.42732" lon="1.84039">
        <ele>1269.8</ele>
        <time>2022-09-06T15:05:08Z</time>
      </trkpt>
      <trkpt lat="42.42736" lon="1.84037">
        <ele>1269.8</ele>
        <time>2022-09-06T15:05:09Z</time>
      </trkpt>
      <trkpt lat="42.42741" lon="1.84035">
        <ele>1269.8</ele>
        <time>2022-09-06T15:05:10Z</time>
      </trkpt>
      <trkpt lat="42.42745" lon="1.84033">
        <ele>1270.2</ele>
        <time>2022-09-06T15:05:11Z</time>
      </trkpt>
      <trkpt lat="42.42749" lon="1.84031">
        <ele>1272</ele>
        <time>2022-09-06T15:05:12Z</time>
      </trkpt>
      <trkpt lat="42.42753" lon="1.8403">
        <ele>1272</ele>
        <time>2022-09-06T15:05:13Z</time>
      </trkpt>
      <trkpt lat="42.42756" lon="1.84029">
        <ele>1272</ele>
        <time>2022-09-06T15:05:14Z</time>
      </trkpt>
      <trkpt lat="42.42759" lon="1.84028">
        <ele>1272</ele>
        <time>2022-09-06T15:05:15Z</time>
      </trkpt>
      <trkpt lat="42.42763" lon="1.84028">
        <ele>1273.6</ele>
        <time>2022-09-06T15:05:16Z</time>
      </trkpt>
      <trkpt lat="42.42766" lon="1.84026">
        <ele>1273.6</ele>
        <time>2022-09-06T15:05:17Z</time>
      </trkpt>
      <trkpt lat="42.4277" lon="1.84023">
        <ele>1273.6</ele>
        <time>2022-09-06T15:05:18Z</time>
      </trkpt>
      <trkpt lat="42.42773" lon="1.84021">
        <ele>1273.6</ele>
        <time>2022-09-06T15:05:19Z</time>
      </trkpt>
      <trkpt lat="42.42776" lon="1.84018">
        <ele>1274.8</ele>
        <time>2022-09-06T15:05:20Z</time>
      </trkpt>
      <trkpt lat="42.42778" lon="1.84016">
        <ele>1274.8</ele>
        <time>2022-09-06T15:05:21Z</time>
      </trkpt>
      <trkpt lat="42.42782" lon="1.84014">
        <ele>1274.8</ele>
        <time>2022-09-06T15:05:22Z</time>
      </trkpt>
      <trkpt lat="42.42785" lon="1.84012">
        <ele>1274.8</ele>
        <time>2022-09-06T15:05:23Z</time>
      </trkpt>
      <trkpt lat="42.42788" lon="1.8401">
        <ele>1274.8</ele>
        <time>2022-09-06T15:05:24Z</time>
      </trkpt>
      <trkpt lat="42.42791" lon="1.84008">
        <ele>1277</ele>
        <time>2022-09-06T15:05:25Z</time>
      </trkpt>
      <trkpt lat="42.42794" lon="1.84006">
        <ele>1277</ele>
        <time>2022-09-06T15:05:26Z</time>
      </trkpt>
      <trkpt lat="42.42797" lon="1.84004">
        <ele>1277</ele>
        <time>2022-09-06T15:05:27Z</time>
      </trkpt>
      <trkpt lat="42.428" lon="1.84003">
        <ele>1277</ele>
        <time>2022-09-06T15:05:28Z</time>
      </trkpt>
      <trkpt lat="42.42804" lon="1.84001">
        <ele>1277.8</ele>
        <time>2022-09-06T15:05:29Z</time>
      </trkpt>
      <trkpt lat="42.42807" lon="1.83999">
        <ele>1277.8</ele>
        <time>2022-09-06T15:05:30Z</time>
      </trkpt>
      <trkpt lat="42.4281" lon="1.83996">
        <ele>1277.8</ele>
        <time>2022-09-06T15:05:31Z</time>
      </trkpt>
      <trkpt lat="42.42813" lon="1.83994">
        <ele>1278.6</ele>
        <time>2022-09-06T15:05:32Z</time>
      </trkpt>
      <trkpt lat="42.42816" lon="1.83992">
        <ele>1281.4</ele>
        <time>2022-09-06T15:05:33Z</time>
      </trkpt>
      <trkpt lat="42.42819" lon="1.8399">
        <ele>1281.4</ele>
        <time>2022-09-06T15:05:34Z</time>
      </trkpt>
      <trkpt lat="42.42822" lon="1.83988">
        <ele>1281.4</ele>
        <time>2022-09-06T15:05:35Z</time>
      </trkpt>
      <trkpt lat="42.42824" lon="1.83987">
        <ele>1281.4</ele>
        <time>2022-09-06T15:05:36Z</time>
      </trkpt>
      <trkpt lat="42.42827" lon="1.83985">
        <ele>1281.4</ele>
        <time>2022-09-06T15:05:37Z</time>
      </trkpt>
      <trkpt lat="42.4283" lon="1.83984">
        <ele>1282.2</ele>
        <time>2022-09-06T15:05:38Z</time>
      </trkpt>
      <trkpt lat="42.42833" lon="1.83982">
        <ele>1282.2</ele>
        <time>2022-09-06T15:05:39Z</time>
      </trkpt>
      <trkpt lat="42.42836" lon="1.83981">
        <ele>1282.2</ele>
        <time>2022-09-06T15:05:40Z</time>
      </trkpt>
      <trkpt lat="42.42839" lon="1.83979">
        <ele>1283.2</ele>
        <time>2022-09-06T15:05:41Z</time>
      </trkpt>
      <trkpt lat="42.42842" lon="1.83978">
        <ele>1285.2</ele>
        <time>2022-09-06T15:05:42Z</time>
      </trkpt>
      <trkpt lat="42.42845" lon="1.83977">
        <ele>1285.2</ele>
        <time>2022-09-06T15:05:43Z</time>
      </trkpt>
      <trkpt lat="42.42848" lon="1.83975">
        <ele>1285.2</ele>
        <time>2022-09-06T15:05:44Z</time>
      </trkpt>
      <trkpt lat="42.42852" lon="1.83974">
        <ele>1285.4</ele>
        <time>2022-09-06T15:05:45Z</time>
      </trkpt>
      <trkpt lat="42.42855" lon="1.83972">
        <ele>1284.4</ele>
        <time>2022-09-06T15:05:46Z</time>
      </trkpt>
      <trkpt lat="42.42859" lon="1.83969">
        <ele>1284.4</ele>
        <time>2022-09-06T15:05:47Z</time>
      </trkpt>
      <trkpt lat="42.42863" lon="1.83967">
        <ele>1284.4</ele>
        <time>2022-09-06T15:05:48Z</time>
      </trkpt>
      <trkpt lat="42.42866" lon="1.83964">
        <ele>1284.4</ele>
        <time>2022-09-06T15:05:49Z</time>
      </trkpt>
      <trkpt lat="42.4287" lon="1.83963">
        <ele>1284.8</ele>
        <time>2022-09-06T15:05:50Z</time>
      </trkpt>
      <trkpt lat="42.42875" lon="1.83961">
        <ele>1284.8</ele>
        <time>2022-09-06T15:05:51Z</time>
      </trkpt>
      <trkpt lat="42.42879" lon="1.8396">
        <ele>1284.8</ele>
        <time>2022-09-06T15:05:52Z</time>
      </trkpt>
      <trkpt lat="42.42883" lon="1.83958">
        <ele>1284.8</ele>
        <time>2022-09-06T15:05:53Z</time>
      </trkpt>
      <trkpt lat="42.42886" lon="1.83957">
        <ele>1284.8</ele>
        <time>2022-09-06T15:05:54Z</time>
      </trkpt>
      <trkpt lat="42.4289" lon="1.83956">
        <ele>1285.4</ele>
        <time>2022-09-06T15:05:55Z</time>
      </trkpt>
      <trkpt lat="42.42894" lon="1.83953">
        <ele>1285.4</ele>
        <time>2022-09-06T15:05:56Z</time>
      </trkpt>
      <trkpt lat="42.42897" lon="1.83949">
        <ele>1285.4</ele>
        <time>2022-09-06T15:05:57Z</time>
      </trkpt>
      <trkpt lat="42.429" lon="1.83945">
        <ele>1285.4</ele>
        <time>2022-09-06T15:05:58Z</time>
      </trkpt>
      <trkpt lat="42.42903" lon="1.83942">
        <ele>1285.4</ele>
        <time>2022-09-06T15:05:59Z</time>
      </trkpt>
      <trkpt lat="42.42907" lon="1.83939">
        <ele>1285.4</ele>
        <time>2022-09-06T15:06:00Z</time>
      </trkpt>
      <trkpt lat="42.42911" lon="1.83937">
        <ele>1285.4</ele>
        <time>2022-09-06T15:06:01Z</time>
      </trkpt>
      <trkpt lat="42.42915" lon="1.83935">
        <ele>1284.6</ele>
        <time>2022-09-06T15:06:02Z</time>
      </trkpt>
      <trkpt lat="42.4292" lon="1.83933">
        <ele>1284.6</ele>
        <time>2022-09-06T15:06:03Z</time>
      </trkpt>
      <trkpt lat="42.42925" lon="1.83931">
        <ele>1284.6</ele>
        <time>2022-09-06T15:06:04Z</time>
      </trkpt>
      <trkpt lat="42.4293" lon="1.83929">
        <ele>1284.6</ele>
        <time>2022-09-06T15:06:05Z</time>
      </trkpt>
      <trkpt lat="42.42935" lon="1.83928">
        <ele>1284.6</ele>
        <time>2022-09-06T15:06:06Z</time>
      </trkpt>
      <trkpt lat="42.42939" lon="1.83928">
        <ele>1284.8</ele>
        <time>2022-09-06T15:06:07Z</time>
      </trkpt>
      <trkpt lat="42.42944" lon="1.83926">
        <ele>1284.8</ele>
        <time>2022-09-06T15:06:08Z</time>
      </trkpt>
      <trkpt lat="42.42948" lon="1.83925">
        <ele>1284.8</ele>
        <time>2022-09-06T15:06:09Z</time>
      </trkpt>
      <trkpt lat="42.42952" lon="1.83924">
        <ele>1284.8</ele>
        <time>2022-09-06T15:06:10Z</time>
      </trkpt>
      <trkpt lat="42.42955" lon="1.83923">
        <ele>1284.8</ele>
        <time>2022-09-06T15:06:11Z</time>
      </trkpt>
      <trkpt lat="42.42959" lon="1.83922">
        <ele>1286.2</ele>
        <time>2022-09-06T15:06:12Z</time>
      </trkpt>
      <trkpt lat="42.42961" lon="1.83921">
        <ele>1286.2</ele>
        <time>2022-09-06T15:06:13Z</time>
      </trkpt>
      <trkpt lat="42.42964" lon="1.83921">
        <ele>1286.2</ele>
        <time>2022-09-06T15:06:14Z</time>
      </trkpt>
      <trkpt lat="42.42967" lon="1.83921">
        <ele>1287.2</ele>
        <time>2022-09-06T15:06:15Z</time>
      </trkpt>
      <trkpt lat="42.42969" lon="1.8392">
        <ele>1289.4</ele>
        <time>2022-09-06T15:06:16Z</time>
      </trkpt>
      <trkpt lat="42.42972" lon="1.83919">
        <ele>1289.4</ele>
        <time>2022-09-06T15:06:17Z</time>
      </trkpt>
      <trkpt lat="42.42975" lon="1.83918">
        <ele>1289.4</ele>
        <time>2022-09-06T15:06:18Z</time>
      </trkpt>
      <trkpt lat="42.42978" lon="1.83917">
        <ele>1289.4</ele>
        <time>2022-09-06T15:06:19Z</time>
      </trkpt>
      <trkpt lat="42.4298" lon="1.83916">
        <ele>1292.2</ele>
        <time>2022-09-06T15:06:20Z</time>
      </trkpt>
      <trkpt lat="42.42983" lon="1.83916">
        <ele>1292.2</ele>
        <time>2022-09-06T15:06:21Z</time>
      </trkpt>
      <trkpt lat="42.42985" lon="1.83914">
        <ele>1292.2</ele>
        <time>2022-09-06T15:06:22Z</time>
      </trkpt>
      <trkpt lat="42.42988" lon="1.83913">
        <ele>1292.2</ele>
        <time>2022-09-06T15:06:23Z</time>
      </trkpt>
      <trkpt lat="42.42991" lon="1.83912">
        <ele>1292.8</ele>
        <time>2022-09-06T15:06:24Z</time>
      </trkpt>
      <trkpt lat="42.42995" lon="1.83909">
        <ele>1292.8</ele>
        <time>2022-09-06T15:06:25Z</time>
      </trkpt>
      <trkpt lat="42.42998" lon="1.83908">
        <ele>1292.8</ele>
        <time>2022-09-06T15:06:26Z</time>
      </trkpt>
      <trkpt lat="42.43001" lon="1.83906">
        <ele>1292.8</ele>
        <time>2022-09-06T15:06:27Z</time>
      </trkpt>
      <trkpt lat="42.43004" lon="1.83905">
        <ele>1296.2</ele>
        <time>2022-09-06T15:06:28Z</time>
      </trkpt>
      <trkpt lat="42.43007" lon="1.83904">
        <ele>1296.2</ele>
        <time>2022-09-06T15:06:29Z</time>
      </trkpt>
      <trkpt lat="42.43009" lon="1.83903">
        <ele>1296.2</ele>
        <time>2022-09-06T15:06:30Z</time>
      </trkpt>
      <trkpt lat="42.43012" lon="1.83901">
        <ele>1296.2</ele>
        <time>2022-09-06T15:06:31Z</time>
      </trkpt>
      <trkpt lat="42.43015" lon="1.83899">
        <ele>1296.2</ele>
        <time>2022-09-06T15:06:32Z</time>
      </trkpt>
      <trkpt lat="42.43018" lon="1.83898">
        <ele>1298.4</ele>
        <time>2022-09-06T15:06:33Z</time>
      </trkpt>
      <trkpt lat="42.43021" lon="1.83897">
        <ele>1298.4</ele>
        <time>2022-09-06T15:06:34Z</time>
      </trkpt>
      <trkpt lat="42.43023" lon="1.83896">
        <ele>1298.4</ele>
        <time>2022-09-06T15:06:35Z</time>
      </trkpt>
      <trkpt lat="42.43027" lon="1.83895">
        <ele>1298.4</ele>
        <time>2022-09-06T15:06:36Z</time>
      </trkpt>
      <trkpt lat="42.4303" lon="1.83894">
        <ele>1300</ele>
        <time>2022-09-06T15:06:37Z</time>
      </trkpt>
      <trkpt lat="42.43034" lon="1.83892">
        <ele>1300</ele>
        <time>2022-09-06T15:06:38Z</time>
      </trkpt>
      <trkpt lat="42.43037" lon="1.83891">
        <ele>1300</ele>
        <time>2022-09-06T15:06:39Z</time>
      </trkpt>
      <trkpt lat="42.4304" lon="1.8389">
        <ele>1300.4</ele>
        <time>2022-09-06T15:06:40Z</time>
      </trkpt>
      <trkpt lat="42.43043" lon="1.83889">
        <ele>1302</ele>
        <time>2022-09-06T15:06:41Z</time>
      </trkpt>
      <trkpt lat="42.43045" lon="1.83889">
        <ele>1302</ele>
        <time>2022-09-06T15:06:42Z</time>
      </trkpt>
      <trkpt lat="42.43047" lon="1.83889">
        <ele>1302</ele>
        <time>2022-09-06T15:06:43Z</time>
      </trkpt>
      <trkpt lat="42.43049" lon="1.83889">
        <ele>1302</ele>
        <time>2022-09-06T15:06:44Z</time>
      </trkpt>
      <trkpt lat="42.43051" lon="1.83889">
        <ele>1302.8</ele>
        <time>2022-09-06T15:06:45Z</time>
      </trkpt>
      <trkpt lat="42.43054" lon="1.83889">
        <ele>1302.8</ele>
        <time>2022-09-06T15:06:46Z</time>
      </trkpt>
      <trkpt lat="42.43056" lon="1.83889">
        <ele>1302.8</ele>
        <time>2022-09-06T15:06:47Z</time>
      </trkpt>
      <trkpt lat="42.43058" lon="1.8389">
        <ele>1303.4</ele>
        <time>2022-09-06T15:06:48Z</time>
      </trkpt>
      <trkpt lat="42.43061" lon="1.83892">
        <ele>1304.6</ele>
        <time>2022-09-06T15:06:49Z</time>
      </trkpt>
      <trkpt lat="42.43064" lon="1.83893">
        <ele>1304.6</ele>
        <time>2022-09-06T15:06:50Z</time>
      </trkpt>
      <trkpt lat="42.43066" lon="1.83895">
        <ele>1304.6</ele>
        <time>2022-09-06T15:06:51Z</time>
      </trkpt>
      <trkpt lat="42.43069" lon="1.83897">
        <ele>1304.6</ele>
        <time>2022-09-06T15:06:52Z</time>
      </trkpt>
      <trkpt lat="42.43072" lon="1.839">
        <ele>1304.6</ele>
        <time>2022-09-06T15:06:53Z</time>
      </trkpt>
      <trkpt lat="42.43075" lon="1.83902">
        <ele>1303.6</ele>
        <time>2022-09-06T15:06:54Z</time>
      </trkpt>
      <trkpt lat="42.43078" lon="1.83905">
        <ele>1303.6</ele>
        <time>2022-09-06T15:06:55Z</time>
      </trkpt>
      <trkpt lat="42.43081" lon="1.83907">
        <ele>1303.6</ele>
        <time>2022-09-06T15:06:56Z</time>
      </trkpt>
      <trkpt lat="42.43085" lon="1.8391">
        <ele>1303.6</ele>
        <time>2022-09-06T15:06:57Z</time>
      </trkpt>
      <trkpt lat="42.43088" lon="1.83913">
        <ele>1304.4</ele>
        <time>2022-09-06T15:06:58Z</time>
      </trkpt>
      <trkpt lat="42.43091" lon="1.83916">
        <ele>1304.4</ele>
        <time>2022-09-06T15:06:59Z</time>
      </trkpt>
      <trkpt lat="42.43095" lon="1.83918">
        <ele>1304.4</ele>
        <time>2022-09-06T15:07:00Z</time>
      </trkpt>
      <trkpt lat="42.43098" lon="1.83921">
        <ele>1305.2</ele>
        <time>2022-09-06T15:07:01Z</time>
      </trkpt>
      <trkpt lat="42.43102" lon="1.83924">
        <ele>1306.2</ele>
        <time>2022-09-06T15:07:02Z</time>
      </trkpt>
      <trkpt lat="42.43105" lon="1.83928">
        <ele>1306.2</ele>
        <time>2022-09-06T15:07:03Z</time>
      </trkpt>
      <trkpt lat="42.43108" lon="1.8393">
        <ele>1306.2</ele>
        <time>2022-09-06T15:07:04Z</time>
      </trkpt>
      <trkpt lat="42.43111" lon="1.83932">
        <ele>1307.2</ele>
        <time>2022-09-06T15:07:05Z</time>
      </trkpt>
      <trkpt lat="42.43113" lon="1.83935">
        <ele>1308.4</ele>
        <time>2022-09-06T15:07:06Z</time>
      </trkpt>
      <trkpt lat="42.43116" lon="1.83938">
        <ele>1308.4</ele>
        <time>2022-09-06T15:07:07Z</time>
      </trkpt>
      <trkpt lat="42.43119" lon="1.83941">
        <ele>1308.4</ele>
        <time>2022-09-06T15:07:08Z</time>
      </trkpt>
      <trkpt lat="42.43122" lon="1.83944">
        <ele>1308.4</ele>
        <time>2022-09-06T15:07:09Z</time>
      </trkpt>
      <trkpt lat="42.43125" lon="1.83947">
        <ele>1309.6</ele>
        <time>2022-09-06T15:07:10Z</time>
      </trkpt>
      <trkpt lat="42.43128" lon="1.83949">
        <ele>1309.6</ele>
        <time>2022-09-06T15:07:11Z</time>
      </trkpt>
      <trkpt lat="42.43131" lon="1.83952">
        <ele>1309.6</ele>
        <time>2022-09-06T15:07:12Z</time>
      </trkpt>
      <trkpt lat="42.43134" lon="1.83953">
        <ele>1309.6</ele>
        <time>2022-09-06T15:07:13Z</time>
      </trkpt>
      <trkpt lat="42.43137" lon="1.83956">
        <ele>1310.6</ele>
        <time>2022-09-06T15:07:14Z</time>
      </trkpt>
      <trkpt lat="42.43139" lon="1.83958">
        <ele>1311</ele>
        <time>2022-09-06T15:07:15Z</time>
      </trkpt>
      <trkpt lat="42.43142" lon="1.83961">
        <ele>1311</ele>
        <time>2022-09-06T15:07:16Z</time>
      </trkpt>
      <trkpt lat="42.43145" lon="1.83964">
        <ele>1311</ele>
        <time>2022-09-06T15:07:17Z</time>
      </trkpt>
      <trkpt lat="42.43148" lon="1.83966">
        <ele>1312</ele>
        <time>2022-09-06T15:07:18Z</time>
      </trkpt>
      <trkpt lat="42.4315" lon="1.83968">
        <ele>1314.4</ele>
        <time>2022-09-06T15:07:19Z</time>
      </trkpt>
      <trkpt lat="42.43151" lon="1.83969">
        <ele>1314.4</ele>
        <time>2022-09-06T15:07:20Z</time>
      </trkpt>
      <trkpt lat="42.43153" lon="1.83971">
        <ele>1314.4</ele>
        <time>2022-09-06T15:07:21Z</time>
      </trkpt>
      <trkpt lat="42.43156" lon="1.83971">
        <ele>1315</ele>
        <time>2022-09-06T15:07:22Z</time>
      </trkpt>
      <trkpt lat="42.43159" lon="1.83972">
        <ele>1315.4</ele>
        <time>2022-09-06T15:07:23Z</time>
      </trkpt>
      <trkpt lat="42.43162" lon="1.83972">
        <ele>1315.4</ele>
        <time>2022-09-06T15:07:24Z</time>
      </trkpt>
      <trkpt lat="42.43165" lon="1.83973">
        <ele>1315.4</ele>
        <time>2022-09-06T15:07:25Z</time>
      </trkpt>
      <trkpt lat="42.43168" lon="1.83974">
        <ele>1316.4</ele>
        <time>2022-09-06T15:07:26Z</time>
      </trkpt>
      <trkpt lat="42.43171" lon="1.83975">
        <ele>1317.4</ele>
        <time>2022-09-06T15:07:27Z</time>
      </trkpt>
      <trkpt lat="42.43174" lon="1.83975">
        <ele>1317.4</ele>
        <time>2022-09-06T15:07:28Z</time>
      </trkpt>
      <trkpt lat="42.43177" lon="1.83976">
        <ele>1317.4</ele>
        <time>2022-09-06T15:07:29Z</time>
      </trkpt>
      <trkpt lat="42.4318" lon="1.83977">
        <ele>1317.4</ele>
        <time>2022-09-06T15:07:30Z</time>
      </trkpt>
      <trkpt lat="42.43182" lon="1.83978">
        <ele>1317.8</ele>
        <time>2022-09-06T15:07:31Z</time>
      </trkpt>
      <trkpt lat="42.43186" lon="1.83978">
        <ele>1317.8</ele>
        <time>2022-09-06T15:07:32Z</time>
      </trkpt>
      <trkpt lat="42.4319" lon="1.83978">
        <ele>1317.8</ele>
        <time>2022-09-06T15:07:33Z</time>
      </trkpt>
      <trkpt lat="42.43194" lon="1.83978">
        <ele>1317.8</ele>
        <time>2022-09-06T15:07:34Z</time>
      </trkpt>
      <trkpt lat="42.43198" lon="1.83977">
        <ele>1317.8</ele>
        <time>2022-09-06T15:07:35Z</time>
      </trkpt>
      <trkpt lat="42.43202" lon="1.83976">
        <ele>1317.6</ele>
        <time>2022-09-06T15:07:36Z</time>
      </trkpt>
      <trkpt lat="42.43206" lon="1.83976">
        <ele>1317.6</ele>
        <time>2022-09-06T15:07:37Z</time>
      </trkpt>
      <trkpt lat="42.4321" lon="1.83976">
        <ele>1317.6</ele>
        <time>2022-09-06T15:07:38Z</time>
      </trkpt>
      <trkpt lat="42.43214" lon="1.83976">
        <ele>1318.6</ele>
        <time>2022-09-06T15:07:39Z</time>
      </trkpt>
      <trkpt lat="42.43217" lon="1.83975">
        <ele>1320.2</ele>
        <time>2022-09-06T15:07:40Z</time>
      </trkpt>
      <trkpt lat="42.4322" lon="1.83974">
        <ele>1320.2</ele>
        <time>2022-09-06T15:07:41Z</time>
      </trkpt>
      <trkpt lat="42.43223" lon="1.83974">
        <ele>1320.2</ele>
        <time>2022-09-06T15:07:42Z</time>
      </trkpt>
      <trkpt lat="42.43226" lon="1.83973">
        <ele>1320.2</ele>
        <time>2022-09-06T15:07:43Z</time>
      </trkpt>
      <trkpt lat="42.43229" lon="1.83973">
        <ele>1320.6</ele>
        <time>2022-09-06T15:07:44Z</time>
      </trkpt>
      <trkpt lat="42.43233" lon="1.83972">
        <ele>1320.6</ele>
        <time>2022-09-06T15:07:45Z</time>
      </trkpt>
      <trkpt lat="42.43237" lon="1.83971">
        <ele>1320.6</ele>
        <time>2022-09-06T15:07:46Z</time>
      </trkpt>
      <trkpt lat="42.43241" lon="1.83969">
        <ele>1321.6</ele>
        <time>2022-09-06T15:07:47Z</time>
      </trkpt>
      <trkpt lat="42.43244" lon="1.83967">
        <ele>1321.6</ele>
        <time>2022-09-06T15:07:48Z</time>
      </trkpt>
      <trkpt lat="42.43247" lon="1.83966">
        <ele>1323.2</ele>
        <time>2022-09-06T15:07:49Z</time>
      </trkpt>
      <trkpt lat="42.4325" lon="1.83966">
        <ele>1323.2</ele>
        <time>2022-09-06T15:07:50Z</time>
      </trkpt>
      <trkpt lat="42.43253" lon="1.83967">
        <ele>1323.2</ele>
        <time>2022-09-06T15:07:51Z</time>
      </trkpt>
      <trkpt lat="42.43256" lon="1.83967">
        <ele>1323.2</ele>
        <time>2022-09-06T15:07:52Z</time>
      </trkpt>
      <trkpt lat="42.43258" lon="1.83967">
        <ele>1325.2</ele>
        <time>2022-09-06T15:07:53Z</time>
      </trkpt>
      <trkpt lat="42.4326" lon="1.83967">
        <ele>1325.2</ele>
        <time>2022-09-06T15:07:54Z</time>
      </trkpt>
      <trkpt lat="42.43261" lon="1.83967">
        <ele>1325.2</ele>
        <time>2022-09-06T15:07:55Z</time>
      </trkpt>
      <trkpt lat="42.43262" lon="1.83966">
        <ele>1325.2</ele>
        <time>2022-09-06T15:07:56Z</time>
      </trkpt>
      <trkpt lat="42.43264" lon="1.83964">
        <ele>1325.2</ele>
        <time>2022-09-06T15:07:57Z</time>
      </trkpt>
      <trkpt lat="42.43268" lon="1.83962">
        <ele>1325.2</ele>
        <time>2022-09-06T15:07:58Z</time>
      </trkpt>
      <trkpt lat="42.43271" lon="1.8396">
        <ele>1325.2</ele>
        <time>2022-09-06T15:07:59Z</time>
      </trkpt>
      <trkpt lat="42.43275" lon="1.83959">
        <ele>1325.2</ele>
        <time>2022-09-06T15:08:00Z</time>
      </trkpt>
      <trkpt lat="42.43279" lon="1.83957">
        <ele>1324.4</ele>
        <time>2022-09-06T15:08:01Z</time>
      </trkpt>
      <trkpt lat="42.43282" lon="1.83955">
        <ele>1324.4</ele>
        <time>2022-09-06T15:08:02Z</time>
      </trkpt>
      <trkpt lat="42.43286" lon="1.83953">
        <ele>1324.4</ele>
        <time>2022-09-06T15:08:03Z</time>
      </trkpt>
      <trkpt lat="42.43289" lon="1.83951">
        <ele>1324.4</ele>
        <time>2022-09-06T15:08:04Z</time>
      </trkpt>
      <trkpt lat="42.43293" lon="1.8395">
        <ele>1325.4</ele>
        <time>2022-09-06T15:08:05Z</time>
      </trkpt>
      <trkpt lat="42.43296" lon="1.83949">
        <ele>1325.4</ele>
        <time>2022-09-06T15:08:06Z</time>
      </trkpt>
      <trkpt lat="42.43299" lon="1.83948">
        <ele>1325.4</ele>
        <time>2022-09-06T15:08:07Z</time>
      </trkpt>
      <trkpt lat="42.43303" lon="1.83947">
        <ele>1325.4</ele>
        <time>2022-09-06T15:08:08Z</time>
      </trkpt>
      <trkpt lat="42.43306" lon="1.83947">
        <ele>1326.4</ele>
        <time>2022-09-06T15:08:09Z</time>
      </trkpt>
      <trkpt lat="42.43309" lon="1.83948">
        <ele>1326.8</ele>
        <time>2022-09-06T15:08:10Z</time>
      </trkpt>
      <trkpt lat="42.43312" lon="1.8395">
        <ele>1326.8</ele>
        <time>2022-09-06T15:08:11Z</time>
      </trkpt>
      <trkpt lat="42.43314" lon="1.83952">
        <ele>1326.8</ele>
        <time>2022-09-06T15:08:12Z</time>
      </trkpt>
      <trkpt lat="42.43317" lon="1.83954">
        <ele>1327.8</ele>
        <time>2022-09-06T15:08:13Z</time>
      </trkpt>
      <trkpt lat="42.43319" lon="1.83955">
        <ele>1330.6</ele>
        <time>2022-09-06T15:08:14Z</time>
      </trkpt>
      <trkpt lat="42.43321" lon="1.83956">
        <ele>1330.6</ele>
        <time>2022-09-06T15:08:15Z</time>
      </trkpt>
      <trkpt lat="42.43323" lon="1.83958">
        <ele>1330.6</ele>
        <time>2022-09-06T15:08:16Z</time>
      </trkpt>
      <trkpt lat="42.43325" lon="1.83959">
        <ele>1331.6</ele>
        <time>2022-09-06T15:08:17Z</time>
      </trkpt>
      <trkpt lat="42.43327" lon="1.8396">
        <ele>1332.4</ele>
        <time>2022-09-06T15:08:18Z</time>
      </trkpt>
      <trkpt lat="42.43329" lon="1.83962">
        <ele>1332.4</ele>
        <time>2022-09-06T15:08:19Z</time>
      </trkpt>
      <trkpt lat="42.43331" lon="1.83963">
        <ele>1332.4</ele>
        <time>2022-09-06T15:08:20Z</time>
      </trkpt>
      <trkpt lat="42.43334" lon="1.83964">
        <ele>1333.4</ele>
        <time>2022-09-06T15:08:21Z</time>
      </trkpt>
      <trkpt lat="42.43336" lon="1.83965">
        <ele>1333.4</ele>
        <time>2022-09-06T15:08:22Z</time>
      </trkpt>
      <trkpt lat="42.43339" lon="1.83965">
        <ele>1335.6</ele>
        <time>2022-09-06T15:08:23Z</time>
      </trkpt>
      <trkpt lat="42.43342" lon="1.83966">
        <ele>1335.6</ele>
        <time>2022-09-06T15:08:24Z</time>
      </trkpt>
      <trkpt lat="42.43344" lon="1.83966">
        <ele>1335.6</ele>
        <time>2022-09-06T15:08:25Z</time>
      </trkpt>
      <trkpt lat="42.43346" lon="1.83966">
        <ele>1336.6</ele>
        <time>2022-09-06T15:08:26Z</time>
      </trkpt>
      <trkpt lat="42.43349" lon="1.83966">
        <ele>1336.8</ele>
        <time>2022-09-06T15:08:27Z</time>
      </trkpt>
      <trkpt lat="42.43351" lon="1.83966">
        <ele>1336.8</ele>
        <time>2022-09-06T15:08:28Z</time>
      </trkpt>
      <trkpt lat="42.43354" lon="1.83966">
        <ele>1336.8</ele>
        <time>2022-09-06T15:08:29Z</time>
      </trkpt>
      <trkpt lat="42.43356" lon="1.83967">
        <ele>1337.6</ele>
        <time>2022-09-06T15:08:30Z</time>
      </trkpt>
      <trkpt lat="42.43359" lon="1.83967">
        <ele>1337.8</ele>
        <time>2022-09-06T15:08:31Z</time>
      </trkpt>
      <trkpt lat="42.43361" lon="1.83967">
        <ele>1337.8</ele>
        <time>2022-09-06T15:08:32Z</time>
      </trkpt>
      <trkpt lat="42.43364" lon="1.83968">
        <ele>1337.8</ele>
        <time>2022-09-06T15:08:33Z</time>
      </trkpt>
      <trkpt lat="42.43366" lon="1.83968">
        <ele>1338.6</ele>
        <time>2022-09-06T15:08:34Z</time>
      </trkpt>
      <trkpt lat="42.43369" lon="1.83969">
        <ele>1340.4</ele>
        <time>2022-09-06T15:08:35Z</time>
      </trkpt>
      <trkpt lat="42.43372" lon="1.8397">
        <ele>1340.4</ele>
        <time>2022-09-06T15:08:36Z</time>
      </trkpt>
      <trkpt lat="42.43374" lon="1.83971">
        <ele>1340.4</ele>
        <time>2022-09-06T15:08:37Z</time>
      </trkpt>
      <trkpt lat="42.43376" lon="1.83971">
        <ele>1340.4</ele>
        <time>2022-09-06T15:08:38Z</time>
      </trkpt>
      <trkpt lat="42.43379" lon="1.83971">
        <ele>1340.4</ele>
        <time>2022-09-06T15:08:39Z</time>
      </trkpt>
      <trkpt lat="42.43381" lon="1.83969">
        <ele>1340.2</ele>
        <time>2022-09-06T15:08:40Z</time>
      </trkpt>
      <trkpt lat="42.43384" lon="1.83967">
        <ele>1340.2</ele>
        <time>2022-09-06T15:08:41Z</time>
      </trkpt>
      <trkpt lat="42.43388" lon="1.83964">
        <ele>1340.2</ele>
        <time>2022-09-06T15:08:42Z</time>
      </trkpt>
      <trkpt lat="42.43392" lon="1.83962">
        <ele>1339.2</ele>
        <time>2022-09-06T15:08:43Z</time>
      </trkpt>
      <trkpt lat="42.43396" lon="1.83958">
        <ele>1338.8</ele>
        <time>2022-09-06T15:08:44Z</time>
      </trkpt>
      <trkpt lat="42.434" lon="1.83954">
        <ele>1338.8</ele>
        <time>2022-09-06T15:08:45Z</time>
      </trkpt>
      <trkpt lat="42.43401" lon="1.83949">
        <ele>1338.8</ele>
        <time>2022-09-06T15:08:46Z</time>
      </trkpt>
      <trkpt lat="42.43401" lon="1.83945">
        <ele>1338.2</ele>
        <time>2022-09-06T15:08:47Z</time>
      </trkpt>
      <trkpt lat="42.43399" lon="1.83941">
        <ele>1338.2</ele>
        <time>2022-09-06T15:08:48Z</time>
      </trkpt>
      <trkpt lat="42.43397" lon="1.83939">
        <ele>1338.2</ele>
        <time>2022-09-06T15:08:49Z</time>
      </trkpt>
      <trkpt lat="42.43395" lon="1.83938">
        <ele>1338.2</ele>
        <time>2022-09-06T15:08:50Z</time>
      </trkpt>
      <trkpt lat="42.43393" lon="1.83937">
        <ele>1338.4</ele>
        <time>2022-09-06T15:08:51Z</time>
      </trkpt>
      <trkpt lat="42.43392" lon="1.83937">
        <ele>1338.4</ele>
        <time>2022-09-06T15:08:52Z</time>
      </trkpt>
      <trkpt lat="42.43392" lon="1.83937">
        <ele>1338.4</ele>
        <time>2022-09-06T15:08:53Z</time>
      </trkpt>
      <trkpt lat="42.43392" lon="1.83937">
        <ele>1338.4</ele>
        <time>2022-09-06T15:08:54Z</time>
      </trkpt>
      <trkpt lat="42.43388" lon="1.83932">
        <ele>1340.2</ele>
        <time>2022-09-06T15:08:55Z</time>
      </trkpt>
      <trkpt lat="42.43385" lon="1.83928">
        <ele>1340.2</ele>
        <time>2022-09-06T15:09:38Z</time>
      </trkpt>
      <trkpt lat="42.43382" lon="1.83924">
        <ele>1339.2</ele>
        <time>2022-09-06T15:09:39Z</time>
      </trkpt>
      <trkpt lat="42.4338" lon="1.8392">
        <ele>1340.2</ele>
        <time>2022-09-06T15:09:40Z</time>
      </trkpt>
      <trkpt lat="42.43379" lon="1.83917">
        <ele>1340.2</ele>
        <time>2022-09-06T15:09:41Z</time>
      </trkpt>
      <trkpt lat="42.43378" lon="1.83914">
        <ele>1340.2</ele>
        <time>2022-09-06T15:09:42Z</time>
      </trkpt>
      <trkpt lat="42.43376" lon="1.83911">
        <ele>1341.2</ele>
        <time>2022-09-06T15:09:43Z</time>
      </trkpt>
      <trkpt lat="42.43374" lon="1.83909">
        <ele>1344.2</ele>
        <time>2022-09-06T15:09:44Z</time>
      </trkpt>
      <trkpt lat="42.43371" lon="1.83906">
        <ele>1344.2</ele>
        <time>2022-09-06T15:09:45Z</time>
      </trkpt>
      <trkpt lat="42.43368" lon="1.83902">
        <ele>1344.2</ele>
        <time>2022-09-06T15:09:46Z</time>
      </trkpt>
      <trkpt lat="42.43366" lon="1.83899">
        <ele>1343.6</ele>
        <time>2022-09-06T15:09:47Z</time>
      </trkpt>
      <trkpt lat="42.43364" lon="1.83896">
        <ele>1344.2</ele>
        <time>2022-09-06T15:09:48Z</time>
      </trkpt>
      <trkpt lat="42.43362" lon="1.83892">
        <ele>1344.2</ele>
        <time>2022-09-06T15:09:49Z</time>
      </trkpt>
      <trkpt lat="42.43359" lon="1.83889">
        <ele>1344.2</ele>
        <time>2022-09-06T15:09:50Z</time>
      </trkpt>
      <trkpt lat="42.43357" lon="1.83886">
        <ele>1344.2</ele>
        <time>2022-09-06T15:09:51Z</time>
      </trkpt>
      <trkpt lat="42.43354" lon="1.83883">
        <ele>1344.2</ele>
        <time>2022-09-06T15:09:52Z</time>
      </trkpt>
      <trkpt lat="42.43353" lon="1.83879">
        <ele>1346.4</ele>
        <time>2022-09-06T15:09:53Z</time>
      </trkpt>
      <trkpt lat="42.43351" lon="1.83876">
        <ele>1346.4</ele>
        <time>2022-09-06T15:09:54Z</time>
      </trkpt>
      <trkpt lat="42.43348" lon="1.83873">
        <ele>1346.4</ele>
        <time>2022-09-06T15:09:55Z</time>
      </trkpt>
      <trkpt lat="42.43346" lon="1.8387">
        <ele>1346.4</ele>
        <time>2022-09-06T15:09:56Z</time>
      </trkpt>
      <trkpt lat="42.43344" lon="1.83867">
        <ele>1346</ele>
        <time>2022-09-06T15:09:57Z</time>
      </trkpt>
      <trkpt lat="42.43343" lon="1.83864">
        <ele>1346</ele>
        <time>2022-09-06T15:09:58Z</time>
      </trkpt>
      <trkpt lat="42.43342" lon="1.83861">
        <ele>1346</ele>
        <time>2022-09-06T15:09:59Z</time>
      </trkpt>
      <trkpt lat="42.43341" lon="1.83857">
        <ele>1346</ele>
        <time>2022-09-06T15:10:00Z</time>
      </trkpt>
      <trkpt lat="42.43339" lon="1.83852">
        <ele>1346.2</ele>
        <time>2022-09-06T15:10:01Z</time>
      </trkpt>
      <trkpt lat="42.43338" lon="1.83847">
        <ele>1346.2</ele>
        <time>2022-09-06T15:10:02Z</time>
      </trkpt>
      <trkpt lat="42.43337" lon="1.83841">
        <ele>1346.2</ele>
        <time>2022-09-06T15:10:03Z</time>
      </trkpt>
      <trkpt lat="42.43335" lon="1.83836">
        <ele>1346.2</ele>
        <time>2022-09-06T15:10:04Z</time>
      </trkpt>
      <trkpt lat="42.43334" lon="1.83831">
        <ele>1346.6</ele>
        <time>2022-09-06T15:10:05Z</time>
      </trkpt>
      <trkpt lat="42.43334" lon="1.83826">
        <ele>1346.6</ele>
        <time>2022-09-06T15:10:06Z</time>
      </trkpt>
      <trkpt lat="42.43333" lon="1.83822">
        <ele>1346.6</ele>
        <time>2022-09-06T15:10:07Z</time>
      </trkpt>
      <trkpt lat="42.43333" lon="1.83819">
        <ele>1346.6</ele>
        <time>2022-09-06T15:10:08Z</time>
      </trkpt>
      <trkpt lat="42.43332" lon="1.83817">
        <ele>1346.6</ele>
        <time>2022-09-06T15:10:09Z</time>
      </trkpt>
      <trkpt lat="42.43332" lon="1.83815">
        <ele>1347.6</ele>
        <time>2022-09-06T15:10:10Z</time>
      </trkpt>
      <trkpt lat="42.43332" lon="1.83815">
        <ele>1347.6</ele>
        <time>2022-09-06T15:10:11Z</time>
      </trkpt>
      <trkpt lat="42.43332" lon="1.83815">
        <ele>1347.6</ele>
        <time>2022-09-06T15:10:12Z</time>
      </trkpt>
      <trkpt lat="42.43328" lon="1.83814">
        <ele>1348.4</ele>
        <time>2022-09-06T15:10:13Z</time>
      </trkpt>
      <trkpt lat="42.43326" lon="1.83815">
        <ele>1348.4</ele>
        <time>2022-09-06T15:11:20Z</time>
      </trkpt>
      <trkpt lat="42.43324" lon="1.83815">
        <ele>1348.4</ele>
        <time>2022-09-06T15:11:21Z</time>
      </trkpt>
      <trkpt lat="42.43322" lon="1.83816">
        <ele>1349.2</ele>
        <time>2022-09-06T15:11:22Z</time>
      </trkpt>
      <trkpt lat="42.43321" lon="1.83817">
        <ele>1348.4</ele>
        <time>2022-09-06T15:11:23Z</time>
      </trkpt>
      <trkpt lat="42.43319" lon="1.83819">
        <ele>1348.4</ele>
        <time>2022-09-06T15:11:24Z</time>
      </trkpt>
      <trkpt lat="42.43316" lon="1.8382">
        <ele>1348.4</ele>
        <time>2022-09-06T15:11:25Z</time>
      </trkpt>
      <trkpt lat="42.43314" lon="1.83822">
        <ele>1348.4</ele>
        <time>2022-09-06T15:11:26Z</time>
      </trkpt>
      <trkpt lat="42.43312" lon="1.83823">
        <ele>1349.4</ele>
        <time>2022-09-06T15:11:27Z</time>
      </trkpt>
      <trkpt lat="42.4331" lon="1.83826">
        <ele>1350.4</ele>
        <time>2022-09-06T15:11:28Z</time>
      </trkpt>
      <trkpt lat="42.43309" lon="1.83828">
        <ele>1350.4</ele>
        <time>2022-09-06T15:11:29Z</time>
      </trkpt>
      <trkpt lat="42.43307" lon="1.83831">
        <ele>1350.4</ele>
        <time>2022-09-06T15:11:30Z</time>
      </trkpt>
      <trkpt lat="42.43305" lon="1.83832">
        <ele>1351.4</ele>
        <time>2022-09-06T15:11:31Z</time>
      </trkpt>
      <trkpt lat="42.43303" lon="1.83833">
        <ele>1353</ele>
        <time>2022-09-06T15:11:32Z</time>
      </trkpt>
      <trkpt lat="42.433" lon="1.83832">
        <ele>1353</ele>
        <time>2022-09-06T15:11:33Z</time>
      </trkpt>
      <trkpt lat="42.43298" lon="1.83831">
        <ele>1353</ele>
        <time>2022-09-06T15:11:34Z</time>
      </trkpt>
      <trkpt lat="42.43295" lon="1.8383">
        <ele>1353</ele>
        <time>2022-09-06T15:11:35Z</time>
      </trkpt>
      <trkpt lat="42.43293" lon="1.83829">
        <ele>1353.6</ele>
        <time>2022-09-06T15:11:36Z</time>
      </trkpt>
      <trkpt lat="42.4329" lon="1.83827">
        <ele>1354.4</ele>
        <time>2022-09-06T15:11:37Z</time>
      </trkpt>
      <trkpt lat="42.43288" lon="1.83826">
        <ele>1354.4</ele>
        <time>2022-09-06T15:11:38Z</time>
      </trkpt>
      <trkpt lat="42.43286" lon="1.83825">
        <ele>1354.4</ele>
        <time>2022-09-06T15:11:39Z</time>
      </trkpt>
      <trkpt lat="42.43283" lon="1.83823">
        <ele>1354.4</ele>
        <time>2022-09-06T15:11:40Z</time>
      </trkpt>
      <trkpt lat="42.4328" lon="1.83823">
        <ele>1356.6</ele>
        <time>2022-09-06T15:11:41Z</time>
      </trkpt>
      <trkpt lat="42.43278" lon="1.83822">
        <ele>1356.6</ele>
        <time>2022-09-06T15:11:42Z</time>
      </trkpt>
      <trkpt lat="42.43275" lon="1.83822">
        <ele>1356.6</ele>
        <time>2022-09-06T15:11:43Z</time>
      </trkpt>
      <trkpt lat="42.43273" lon="1.83822">
        <ele>1356.6</ele>
        <time>2022-09-06T15:11:44Z</time>
      </trkpt>
      <trkpt lat="42.4327" lon="1.83821">
        <ele>1355.8</ele>
        <time>2022-09-06T15:11:45Z</time>
      </trkpt>
      <trkpt lat="42.43267" lon="1.83821">
        <ele>1358.2</ele>
        <time>2022-09-06T15:11:46Z</time>
      </trkpt>
      <trkpt lat="42.43264" lon="1.83822">
        <ele>1358.2</ele>
        <time>2022-09-06T15:11:47Z</time>
      </trkpt>
      <trkpt lat="42.43261" lon="1.83823">
        <ele>1358.2</ele>
        <time>2022-09-06T15:11:48Z</time>
      </trkpt>
      <trkpt lat="42.43259" lon="1.83824">
        <ele>1358.2</ele>
        <time>2022-09-06T15:11:49Z</time>
      </trkpt>
      <trkpt lat="42.43256" lon="1.83824">
        <ele>1358.2</ele>
        <time>2022-09-06T15:11:50Z</time>
      </trkpt>
      <trkpt lat="42.43253" lon="1.83824">
        <ele>1358.2</ele>
        <time>2022-09-06T15:11:51Z</time>
      </trkpt>
      <trkpt lat="42.4325" lon="1.83824">
        <ele>1358.2</ele>
        <time>2022-09-06T15:11:52Z</time>
      </trkpt>
      <trkpt lat="42.43247" lon="1.83825">
        <ele>1359.2</ele>
        <time>2022-09-06T15:11:53Z</time>
      </trkpt>
      <trkpt lat="42.43244" lon="1.83827">
        <ele>1359.2</ele>
        <time>2022-09-06T15:11:54Z</time>
      </trkpt>
      <trkpt lat="42.43241" lon="1.83828">
        <ele>1360.8</ele>
        <time>2022-09-06T15:11:55Z</time>
      </trkpt>
      <trkpt lat="42.43238" lon="1.83829">
        <ele>1360.8</ele>
        <time>2022-09-06T15:11:56Z</time>
      </trkpt>
      <trkpt lat="42.43236" lon="1.83829">
        <ele>1360.8</ele>
        <time>2022-09-06T15:11:57Z</time>
      </trkpt>
      <trkpt lat="42.43233" lon="1.8383">
        <ele>1361.8</ele>
        <time>2022-09-06T15:11:58Z</time>
      </trkpt>
      <trkpt lat="42.43231" lon="1.83831">
        <ele>1363.6</ele>
        <time>2022-09-06T15:11:59Z</time>
      </trkpt>
      <trkpt lat="42.43229" lon="1.83831">
        <ele>1363.6</ele>
        <time>2022-09-06T15:12:00Z</time>
      </trkpt>
      <trkpt lat="42.43226" lon="1.83832">
        <ele>1363.6</ele>
        <time>2022-09-06T15:12:01Z</time>
      </trkpt>
      <trkpt lat="42.43224" lon="1.83832">
        <ele>1363.6</ele>
        <time>2022-09-06T15:12:02Z</time>
      </trkpt>
      <trkpt lat="42.43222" lon="1.83832">
        <ele>1363.6</ele>
        <time>2022-09-06T15:12:03Z</time>
      </trkpt>
      <trkpt lat="42.43221" lon="1.83832">
        <ele>1363</ele>
        <time>2022-09-06T15:12:04Z</time>
      </trkpt>
      <trkpt lat="42.43219" lon="1.83831">
        <ele>1363</ele>
        <time>2022-09-06T15:12:05Z</time>
      </trkpt>
      <trkpt lat="42.43218" lon="1.83831">
        <ele>1363</ele>
        <time>2022-09-06T15:12:06Z</time>
      </trkpt>
      <trkpt lat="42.43217" lon="1.8383">
        <ele>1363.4</ele>
        <time>2022-09-06T15:12:07Z</time>
      </trkpt>
      <trkpt lat="42.43216" lon="1.8383">
        <ele>1363.8</ele>
        <time>2022-09-06T15:12:08Z</time>
      </trkpt>
      <trkpt lat="42.43214" lon="1.83829">
        <ele>1363.8</ele>
        <time>2022-09-06T15:12:09Z</time>
      </trkpt>
      <trkpt lat="42.43213" lon="1.83829">
        <ele>1363.8</ele>
        <time>2022-09-06T15:12:10Z</time>
      </trkpt>
      <trkpt lat="42.43211" lon="1.83828">
        <ele>1364.6</ele>
        <time>2022-09-06T15:12:11Z</time>
      </trkpt>
      <trkpt lat="42.4321" lon="1.83827">
        <ele>1364.4</ele>
        <time>2022-09-06T15:12:12Z</time>
      </trkpt>
      <trkpt lat="42.43208" lon="1.83826">
        <ele>1364.4</ele>
        <time>2022-09-06T15:12:13Z</time>
      </trkpt>
      <trkpt lat="42.43206" lon="1.83824">
        <ele>1364.4</ele>
        <time>2022-09-06T15:12:14Z</time>
      </trkpt>
      <trkpt lat="42.43204" lon="1.83822">
        <ele>1364.4</ele>
        <time>2022-09-06T15:12:15Z</time>
      </trkpt>
      <trkpt lat="42.43202" lon="1.8382">
        <ele>1364.4</ele>
        <time>2022-09-06T15:12:16Z</time>
      </trkpt>
      <trkpt lat="42.432" lon="1.83818">
        <ele>1365.2</ele>
        <time>2022-09-06T15:12:17Z</time>
      </trkpt>
      <trkpt lat="42.43199" lon="1.83816">
        <ele>1365.2</ele>
        <time>2022-09-06T15:12:18Z</time>
      </trkpt>
      <trkpt lat="42.43197" lon="1.83815">
        <ele>1365.2</ele>
        <time>2022-09-06T15:12:19Z</time>
      </trkpt>
      <trkpt lat="42.43195" lon="1.83813">
        <ele>1365.2</ele>
        <time>2022-09-06T15:12:20Z</time>
      </trkpt>
      <trkpt lat="42.43192" lon="1.83812">
        <ele>1365.2</ele>
        <time>2022-09-06T15:12:21Z</time>
      </trkpt>
      <trkpt lat="42.4319" lon="1.8381">
        <ele>1365.2</ele>
        <time>2022-09-06T15:12:22Z</time>
      </trkpt>
      <trkpt lat="42.43189" lon="1.83809">
        <ele>1365.2</ele>
        <time>2022-09-06T15:12:23Z</time>
      </trkpt>
      <trkpt lat="42.43187" lon="1.83807">
        <ele>1365.2</ele>
        <time>2022-09-06T15:12:24Z</time>
      </trkpt>
      <trkpt lat="42.43186" lon="1.83806">
        <ele>1366.2</ele>
        <time>2022-09-06T15:12:25Z</time>
      </trkpt>
      <trkpt lat="42.43185" lon="1.83806">
        <ele>1366.4</ele>
        <time>2022-09-06T15:12:26Z</time>
      </trkpt>
      <trkpt lat="42.43185" lon="1.83805">
        <ele>1366.4</ele>
        <time>2022-09-06T15:12:27Z</time>
      </trkpt>
      <trkpt lat="42.43184" lon="1.83805">
        <ele>1366.4</ele>
        <time>2022-09-06T15:12:28Z</time>
      </trkpt>
      <trkpt lat="42.43184" lon="1.83805">
        <ele>1366.4</ele>
        <time>2022-09-06T15:12:29Z</time>
      </trkpt>
      <trkpt lat="42.43184" lon="1.83805">
        <ele>1366.4</ele>
        <time>2022-09-06T15:12:30Z</time>
      </trkpt>
      <trkpt lat="42.4318" lon="1.83802">
        <ele>1368.4</ele>
        <time>2022-09-06T15:12:31Z</time>
      </trkpt>
      <trkpt lat="42.43178" lon="1.838">
        <ele>1368.4</ele>
        <time>2022-09-06T15:12:45Z</time>
      </trkpt>
      <trkpt lat="42.43176" lon="1.83798">
        <ele>1368.4</ele>
        <time>2022-09-06T15:12:46Z</time>
      </trkpt>
      <trkpt lat="42.43175" lon="1.83797">
        <ele>1367.4</ele>
        <time>2022-09-06T15:12:47Z</time>
      </trkpt>
      <trkpt lat="42.43173" lon="1.83794">
        <ele>1366.8</ele>
        <time>2022-09-06T15:12:48Z</time>
      </trkpt>
      <trkpt lat="42.43171" lon="1.83792">
        <ele>1366.8</ele>
        <time>2022-09-06T15:12:49Z</time>
      </trkpt>
      <trkpt lat="42.43169" lon="1.8379">
        <ele>1366.8</ele>
        <time>2022-09-06T15:12:50Z</time>
      </trkpt>
      <trkpt lat="42.43167" lon="1.83787">
        <ele>1367.8</ele>
        <time>2022-09-06T15:12:51Z</time>
      </trkpt>
      <trkpt lat="42.43165" lon="1.83784">
        <ele>1369.2</ele>
        <time>2022-09-06T15:12:52Z</time>
      </trkpt>
      <trkpt lat="42.43163" lon="1.83781">
        <ele>1369.2</ele>
        <time>2022-09-06T15:12:53Z</time>
      </trkpt>
      <trkpt lat="42.43161" lon="1.83779">
        <ele>1369.2</ele>
        <time>2022-09-06T15:12:54Z</time>
      </trkpt>
      <trkpt lat="42.43159" lon="1.83776">
        <ele>1369.2</ele>
        <time>2022-09-06T15:12:55Z</time>
      </trkpt>
      <trkpt lat="42.43158" lon="1.83773">
        <ele>1369.4</ele>
        <time>2022-09-06T15:12:56Z</time>
      </trkpt>
      <trkpt lat="42.43156" lon="1.8377">
        <ele>1369.4</ele>
        <time>2022-09-06T15:12:57Z</time>
      </trkpt>
      <trkpt lat="42.43154" lon="1.83766">
        <ele>1369.4</ele>
        <time>2022-09-06T15:12:58Z</time>
      </trkpt>
      <trkpt lat="42.43152" lon="1.83763">
        <ele>1369.4</ele>
        <time>2022-09-06T15:12:59Z</time>
      </trkpt>
      <trkpt lat="42.4315" lon="1.8376">
        <ele>1369.4</ele>
        <time>2022-09-06T15:13:00Z</time>
      </trkpt>
      <trkpt lat="42.43147" lon="1.83757">
        <ele>1369.8</ele>
        <time>2022-09-06T15:13:01Z</time>
      </trkpt>
      <trkpt lat="42.43145" lon="1.83754">
        <ele>1369.8</ele>
        <time>2022-09-06T15:13:02Z</time>
      </trkpt>
      <trkpt lat="42.43144" lon="1.83752">
        <ele>1369.8</ele>
        <time>2022-09-06T15:13:03Z</time>
      </trkpt>
      <trkpt lat="42.43144" lon="1.83752">
        <ele>1370</ele>
        <time>2022-09-06T15:13:04Z</time>
      </trkpt>
      <trkpt lat="42.43144" lon="1.83752">
        <ele>1370.4</ele>
        <time>2022-09-06T15:13:05Z</time>
      </trkpt>
      <trkpt lat="42.43144" lon="1.83752">
        <ele>1370.4</ele>
        <time>2022-09-06T15:13:06Z</time>
      </trkpt>
      <trkpt lat="42.43142" lon="1.8375">
        <ele>1371.4</ele>
        <time>2022-09-06T15:13:07Z</time>
      </trkpt>
      <trkpt lat="42.4314" lon="1.83749">
        <ele>1371.4</ele>
        <time>2022-09-06T15:13:11Z</time>
      </trkpt>
      <trkpt lat="42.43138" lon="1.83747">
        <ele>1371.4</ele>
        <time>2022-09-06T15:13:12Z</time>
      </trkpt>
      <trkpt lat="42.43135" lon="1.83745">
        <ele>1371.4</ele>
        <time>2022-09-06T15:13:13Z</time>
      </trkpt>
      <trkpt lat="42.43133" lon="1.83742">
        <ele>1371</ele>
        <time>2022-09-06T15:13:14Z</time>
      </trkpt>
      <trkpt lat="42.4313" lon="1.83739">
        <ele>1371</ele>
        <time>2022-09-06T15:13:15Z</time>
      </trkpt>
      <trkpt lat="42.43127" lon="1.83737">
        <ele>1371</ele>
        <time>2022-09-06T15:13:16Z</time>
      </trkpt>
      <trkpt lat="42.43124" lon="1.83734">
        <ele>1371</ele>
        <time>2022-09-06T15:13:17Z</time>
      </trkpt>
      <trkpt lat="42.43121" lon="1.83731">
        <ele>1372.4</ele>
        <time>2022-09-06T15:13:18Z</time>
      </trkpt>
      <trkpt lat="42.43118" lon="1.83728">
        <ele>1372.4</ele>
        <time>2022-09-06T15:13:19Z</time>
      </trkpt>
      <trkpt lat="42.43115" lon="1.83726">
        <ele>1372.4</ele>
        <time>2022-09-06T15:13:20Z</time>
      </trkpt>
      <trkpt lat="42.43112" lon="1.83723">
        <ele>1372.8</ele>
        <time>2022-09-06T15:13:21Z</time>
      </trkpt>
      <trkpt lat="42.43109" lon="1.83721">
        <ele>1372.6</ele>
        <time>2022-09-06T15:13:22Z</time>
      </trkpt>
      <trkpt lat="42.43107" lon="1.83718">
        <ele>1372.6</ele>
        <time>2022-09-06T15:13:23Z</time>
      </trkpt>
      <trkpt lat="42.43104" lon="1.83715">
        <ele>1372.6</ele>
        <time>2022-09-06T15:13:24Z</time>
      </trkpt>
      <trkpt lat="42.43102" lon="1.83714">
        <ele>1373.6</ele>
        <time>2022-09-06T15:13:25Z</time>
      </trkpt>
      <trkpt lat="42.43101" lon="1.83713">
        <ele>1373.8</ele>
        <time>2022-09-06T15:13:26Z</time>
      </trkpt>
      <trkpt lat="42.43101" lon="1.83713">
        <ele>1373.8</ele>
        <time>2022-09-06T15:13:27Z</time>
      </trkpt>
      <trkpt lat="42.43099" lon="1.83707">
        <ele>1375.2</ele>
        <time>2022-09-06T15:13:28Z</time>
      </trkpt>
      <trkpt lat="42.43096" lon="1.83704">
        <ele>1375.2</ele>
        <time>2022-09-06T15:13:49Z</time>
      </trkpt>
      <trkpt lat="42.43094" lon="1.83702">
        <ele>1375.2</ele>
        <time>2022-09-06T15:13:50Z</time>
      </trkpt>
      <trkpt lat="42.43092" lon="1.83699">
        <ele>1375.2</ele>
        <time>2022-09-06T15:13:51Z</time>
      </trkpt>
      <trkpt lat="42.43089" lon="1.83697">
        <ele>1375.2</ele>
        <time>2022-09-06T15:13:52Z</time>
      </trkpt>
      <trkpt lat="42.43086" lon="1.83695">
        <ele>1373.6</ele>
        <time>2022-09-06T15:13:53Z</time>
      </trkpt>
      <trkpt lat="42.43084" lon="1.83693">
        <ele>1373.6</ele>
        <time>2022-09-06T15:13:54Z</time>
      </trkpt>
      <trkpt lat="42.43082" lon="1.83691">
        <ele>1373.6</ele>
        <time>2022-09-06T15:13:55Z</time>
      </trkpt>
      <trkpt lat="42.43079" lon="1.8369">
        <ele>1374.6</ele>
        <time>2022-09-06T15:13:56Z</time>
      </trkpt>
      <trkpt lat="42.43076" lon="1.83689">
        <ele>1377</ele>
        <time>2022-09-06T15:13:57Z</time>
      </trkpt>
      <trkpt lat="42.43074" lon="1.83687">
        <ele>1377</ele>
        <time>2022-09-06T15:13:58Z</time>
      </trkpt>
      <trkpt lat="42.43071" lon="1.83685">
        <ele>1377</ele>
        <time>2022-09-06T15:13:59Z</time>
      </trkpt>
      <trkpt lat="42.43069" lon="1.83683">
        <ele>1377</ele>
        <time>2022-09-06T15:14:00Z</time>
      </trkpt>
      <trkpt lat="42.43066" lon="1.83681">
        <ele>1378</ele>
        <time>2022-09-06T15:14:01Z</time>
      </trkpt>
      <trkpt lat="42.43064" lon="1.83679">
        <ele>1378</ele>
        <time>2022-09-06T15:14:02Z</time>
      </trkpt>
      <trkpt lat="42.43061" lon="1.83677">
        <ele>1378</ele>
        <time>2022-09-06T15:14:03Z</time>
      </trkpt>
      <trkpt lat="42.43059" lon="1.83675">
        <ele>1377</ele>
        <time>2022-09-06T15:14:04Z</time>
      </trkpt>
      <trkpt lat="42.43057" lon="1.83673">
        <ele>1377.8</ele>
        <time>2022-09-06T15:14:05Z</time>
      </trkpt>
      <trkpt lat="42.43054" lon="1.83671">
        <ele>1377.8</ele>
        <time>2022-09-06T15:14:06Z</time>
      </trkpt>
      <trkpt lat="42.43051" lon="1.83669">
        <ele>1377.8</ele>
        <time>2022-09-06T15:14:07Z</time>
      </trkpt>
      <trkpt lat="42.43048" lon="1.83667">
        <ele>1377.8</ele>
        <time>2022-09-06T15:14:08Z</time>
      </trkpt>
      <trkpt lat="42.43046" lon="1.83665">
        <ele>1377.8</ele>
        <time>2022-09-06T15:14:09Z</time>
      </trkpt>
      <trkpt lat="42.43043" lon="1.83662">
        <ele>1377.6</ele>
        <time>2022-09-06T15:14:10Z</time>
      </trkpt>
      <trkpt lat="42.4304" lon="1.8366">
        <ele>1377.6</ele>
        <time>2022-09-06T15:14:11Z</time>
      </trkpt>
      <trkpt lat="42.43037" lon="1.83657">
        <ele>1377.6</ele>
        <time>2022-09-06T15:14:12Z</time>
      </trkpt>
      <trkpt lat="42.43035" lon="1.83654">
        <ele>1378.6</ele>
        <time>2022-09-06T15:14:13Z</time>
      </trkpt>
      <trkpt lat="42.43032" lon="1.83651">
        <ele>1379.2</ele>
        <time>2022-09-06T15:14:14Z</time>
      </trkpt>
      <trkpt lat="42.43029" lon="1.83648">
        <ele>1379.2</ele>
        <time>2022-09-06T15:14:15Z</time>
      </trkpt>
      <trkpt lat="42.43027" lon="1.83646">
        <ele>1379.2</ele>
        <time>2022-09-06T15:14:16Z</time>
      </trkpt>
      <trkpt lat="42.43024" lon="1.83644">
        <ele>1379.2</ele>
        <time>2022-09-06T15:14:17Z</time>
      </trkpt>
      <trkpt lat="42.43023" lon="1.83643">
        <ele>1379.6</ele>
        <time>2022-09-06T15:14:18Z</time>
      </trkpt>
      <trkpt lat="42.43023" lon="1.83643">
        <ele>1379.6</ele>
        <time>2022-09-06T15:14:19Z</time>
      </trkpt>
      <trkpt lat="42.43023" lon="1.83643">
        <ele>1379.6</ele>
        <time>2022-09-06T15:14:20Z</time>
      </trkpt>
      <trkpt lat="42.43022" lon="1.83641">
        <ele>1379</ele>
        <time>2022-09-06T15:14:21Z</time>
      </trkpt>
      <trkpt lat="42.43019" lon="1.83638">
        <ele>1379</ele>
        <time>2022-09-06T15:14:33Z</time>
      </trkpt>
      <trkpt lat="42.43016" lon="1.83635">
        <ele>1379.8</ele>
        <time>2022-09-06T15:14:34Z</time>
      </trkpt>
      <trkpt lat="42.43013" lon="1.83632">
        <ele>1379.4</ele>
        <time>2022-09-06T15:14:35Z</time>
      </trkpt>
      <trkpt lat="42.43009" lon="1.83629">
        <ele>1379.4</ele>
        <time>2022-09-06T15:14:36Z</time>
      </trkpt>
      <trkpt lat="42.43006" lon="1.83626">
        <ele>1379.4</ele>
        <time>2022-09-06T15:14:37Z</time>
      </trkpt>
      <trkpt lat="42.43002" lon="1.83623">
        <ele>1379.4</ele>
        <time>2022-09-06T15:14:38Z</time>
      </trkpt>
      <trkpt lat="42.42998" lon="1.83621">
        <ele>1379.4</ele>
        <time>2022-09-06T15:14:39Z</time>
      </trkpt>
      <trkpt lat="42.42994" lon="1.83618">
        <ele>1382</ele>
        <time>2022-09-06T15:14:40Z</time>
      </trkpt>
      <trkpt lat="42.4299" lon="1.83616">
        <ele>1382</ele>
        <time>2022-09-06T15:14:41Z</time>
      </trkpt>
      <trkpt lat="42.42987" lon="1.83614">
        <ele>1382</ele>
        <time>2022-09-06T15:14:42Z</time>
      </trkpt>
      <trkpt lat="42.42983" lon="1.83613">
        <ele>1382</ele>
        <time>2022-09-06T15:14:43Z</time>
      </trkpt>
      <trkpt lat="42.4298" lon="1.83611">
        <ele>1383</ele>
        <time>2022-09-06T15:14:44Z</time>
      </trkpt>
      <trkpt lat="42.42977" lon="1.83609">
        <ele>1383</ele>
        <time>2022-09-06T15:14:45Z</time>
      </trkpt>
      <trkpt lat="42.42974" lon="1.83606">
        <ele>1383</ele>
        <time>2022-09-06T15:14:46Z</time>
      </trkpt>
      <trkpt lat="42.42972" lon="1.83604">
        <ele>1383</ele>
        <time>2022-09-06T15:14:47Z</time>
      </trkpt>
      <trkpt lat="42.4297" lon="1.83601">
        <ele>1383</ele>
        <time>2022-09-06T15:14:48Z</time>
      </trkpt>
      <trkpt lat="42.42967" lon="1.83599">
        <ele>1384.8</ele>
        <time>2022-09-06T15:14:49Z</time>
      </trkpt>
      <trkpt lat="42.42965" lon="1.83597">
        <ele>1384.8</ele>
        <time>2022-09-06T15:14:50Z</time>
      </trkpt>
      <trkpt lat="42.42963" lon="1.83595">
        <ele>1384.8</ele>
        <time>2022-09-06T15:14:51Z</time>
      </trkpt>
      <trkpt lat="42.4296" lon="1.83593">
        <ele>1384.8</ele>
        <time>2022-09-06T15:14:52Z</time>
      </trkpt>
      <trkpt lat="42.42958" lon="1.83591">
        <ele>1386</ele>
        <time>2022-09-06T15:14:53Z</time>
      </trkpt>
      <trkpt lat="42.42956" lon="1.83589">
        <ele>1386</ele>
        <time>2022-09-06T15:14:54Z</time>
      </trkpt>
      <trkpt lat="42.42955" lon="1.83587">
        <ele>1386</ele>
        <time>2022-09-06T15:14:55Z</time>
      </trkpt>
      <trkpt lat="42.42953" lon="1.83586">
        <ele>1386.6</ele>
        <time>2022-09-06T15:14:56Z</time>
      </trkpt>
      <trkpt lat="42.42951" lon="1.83585">
        <ele>1386.6</ele>
        <time>2022-09-06T15:14:57Z</time>
      </trkpt>
      <trkpt lat="42.42948" lon="1.83585">
        <ele>1386.8</ele>
        <time>2022-09-06T15:14:58Z</time>
      </trkpt>
      <trkpt lat="42.42945" lon="1.83584">
        <ele>1386.8</ele>
        <time>2022-09-06T15:14:59Z</time>
      </trkpt>
      <trkpt lat="42.42942" lon="1.83584">
        <ele>1386.8</ele>
        <time>2022-09-06T15:15:00Z</time>
      </trkpt>
      <trkpt lat="42.42938" lon="1.83584">
        <ele>1386.8</ele>
        <time>2022-09-06T15:15:01Z</time>
      </trkpt>
      <trkpt lat="42.42935" lon="1.83583">
        <ele>1389</ele>
        <time>2022-09-06T15:15:02Z</time>
      </trkpt>
      <trkpt lat="42.42931" lon="1.83582">
        <ele>1389</ele>
        <time>2022-09-06T15:15:03Z</time>
      </trkpt>
      <trkpt lat="42.42928" lon="1.83581">
        <ele>1389</ele>
        <time>2022-09-06T15:15:04Z</time>
      </trkpt>
      <trkpt lat="42.42925" lon="1.8358">
        <ele>1389</ele>
        <time>2022-09-06T15:15:05Z</time>
      </trkpt>
      <trkpt lat="42.42921" lon="1.83579">
        <ele>1387</ele>
        <time>2022-09-06T15:15:06Z</time>
      </trkpt>
      <trkpt lat="42.42918" lon="1.83578">
        <ele>1387</ele>
        <time>2022-09-06T15:15:07Z</time>
      </trkpt>
      <trkpt lat="42.42914" lon="1.83577">
        <ele>1387</ele>
        <time>2022-09-06T15:15:08Z</time>
      </trkpt>
      <trkpt lat="42.42911" lon="1.83575">
        <ele>1387</ele>
        <time>2022-09-06T15:15:09Z</time>
      </trkpt>
      <trkpt lat="42.42907" lon="1.83574">
        <ele>1387.8</ele>
        <time>2022-09-06T15:15:10Z</time>
      </trkpt>
      <trkpt lat="42.42903" lon="1.83572">
        <ele>1387.8</ele>
        <time>2022-09-06T15:15:11Z</time>
      </trkpt>
      <trkpt lat="42.42899" lon="1.83571">
        <ele>1387.8</ele>
        <time>2022-09-06T15:15:12Z</time>
      </trkpt>
      <trkpt lat="42.42895" lon="1.83569">
        <ele>1387.8</ele>
        <time>2022-09-06T15:15:13Z</time>
      </trkpt>
      <trkpt lat="42.42891" lon="1.83567">
        <ele>1388.8</ele>
        <time>2022-09-06T15:15:14Z</time>
      </trkpt>
      <trkpt lat="42.42888" lon="1.83564">
        <ele>1388.6</ele>
        <time>2022-09-06T15:15:15Z</time>
      </trkpt>
      <trkpt lat="42.42885" lon="1.83561">
        <ele>1388.6</ele>
        <time>2022-09-06T15:15:16Z</time>
      </trkpt>
      <trkpt lat="42.42881" lon="1.83559">
        <ele>1388.6</ele>
        <time>2022-09-06T15:15:17Z</time>
      </trkpt>
      <trkpt lat="42.42877" lon="1.83558">
        <ele>1388.6</ele>
        <time>2022-09-06T15:15:18Z</time>
      </trkpt>
      <trkpt lat="42.42873" lon="1.83556">
        <ele>1388.6</ele>
        <time>2022-09-06T15:15:19Z</time>
      </trkpt>
      <trkpt lat="42.42869" lon="1.83555">
        <ele>1388</ele>
        <time>2022-09-06T15:15:20Z</time>
      </trkpt>
      <trkpt lat="42.42865" lon="1.83554">
        <ele>1388</ele>
        <time>2022-09-06T15:15:21Z</time>
      </trkpt>
      <trkpt lat="42.4286" lon="1.83553">
        <ele>1388</ele>
        <time>2022-09-06T15:15:22Z</time>
      </trkpt>
      <trkpt lat="42.42856" lon="1.83551">
        <ele>1389</ele>
        <time>2022-09-06T15:15:23Z</time>
      </trkpt>
      <trkpt lat="42.42852" lon="1.8355">
        <ele>1390</ele>
        <time>2022-09-06T15:15:24Z</time>
      </trkpt>
      <trkpt lat="42.42848" lon="1.83549">
        <ele>1390</ele>
        <time>2022-09-06T15:15:25Z</time>
      </trkpt>
      <trkpt lat="42.42844" lon="1.83548">
        <ele>1390</ele>
        <time>2022-09-06T15:15:26Z</time>
      </trkpt>
      <trkpt lat="42.4284" lon="1.83546">
        <ele>1390</ele>
        <time>2022-09-06T15:15:27Z</time>
      </trkpt>
      <trkpt lat="42.42836" lon="1.83544">
        <ele>1390</ele>
        <time>2022-09-06T15:15:28Z</time>
      </trkpt>
      <trkpt lat="42.42832" lon="1.83543">
        <ele>1390</ele>
        <time>2022-09-06T15:15:29Z</time>
      </trkpt>
      <trkpt lat="42.42828" lon="1.83541">
        <ele>1390</ele>
        <time>2022-09-06T15:15:30Z</time>
      </trkpt>
      <trkpt lat="42.42823" lon="1.8354">
        <ele>1390.8</ele>
        <time>2022-09-06T15:15:31Z</time>
      </trkpt>
      <trkpt lat="42.42819" lon="1.83538">
        <ele>1391.8</ele>
        <time>2022-09-06T15:15:32Z</time>
      </trkpt>
      <trkpt lat="42.42815" lon="1.83536">
        <ele>1391.8</ele>
        <time>2022-09-06T15:15:33Z</time>
      </trkpt>
      <trkpt lat="42.42811" lon="1.83535">
        <ele>1391.8</ele>
        <time>2022-09-06T15:15:34Z</time>
      </trkpt>
      <trkpt lat="42.42807" lon="1.83534">
        <ele>1391.8</ele>
        <time>2022-09-06T15:15:35Z</time>
      </trkpt>
      <trkpt lat="42.42803" lon="1.83533">
        <ele>1391.8</ele>
        <time>2022-09-06T15:15:36Z</time>
      </trkpt>
      <trkpt lat="42.42799" lon="1.83532">
        <ele>1391.6</ele>
        <time>2022-09-06T15:15:37Z</time>
      </trkpt>
      <trkpt lat="42.42795" lon="1.83531">
        <ele>1391.6</ele>
        <time>2022-09-06T15:15:38Z</time>
      </trkpt>
      <trkpt lat="42.42791" lon="1.83531">
        <ele>1391.6</ele>
        <time>2022-09-06T15:15:39Z</time>
      </trkpt>
      <trkpt lat="42.42787" lon="1.83531">
        <ele>1392.6</ele>
        <time>2022-09-06T15:15:40Z</time>
      </trkpt>
      <trkpt lat="42.42783" lon="1.8353">
        <ele>1394.2</ele>
        <time>2022-09-06T15:15:41Z</time>
      </trkpt>
      <trkpt lat="42.42779" lon="1.8353">
        <ele>1394.2</ele>
        <time>2022-09-06T15:15:42Z</time>
      </trkpt>
      <trkpt lat="42.42775" lon="1.83529">
        <ele>1394.2</ele>
        <time>2022-09-06T15:15:43Z</time>
      </trkpt>
      <trkpt lat="42.42772" lon="1.83528">
        <ele>1393.2</ele>
        <time>2022-09-06T15:15:44Z</time>
      </trkpt>
      <trkpt lat="42.42768" lon="1.83526">
        <ele>1393.4</ele>
        <time>2022-09-06T15:15:45Z</time>
      </trkpt>
      <trkpt lat="42.42765" lon="1.83524">
        <ele>1393.4</ele>
        <time>2022-09-06T15:15:46Z</time>
      </trkpt>
      <trkpt lat="42.42761" lon="1.83524">
        <ele>1393.4</ele>
        <time>2022-09-06T15:15:47Z</time>
      </trkpt>
      <trkpt lat="42.42757" lon="1.83523">
        <ele>1393.4</ele>
        <time>2022-09-06T15:15:48Z</time>
      </trkpt>
      <trkpt lat="42.42753" lon="1.83521">
        <ele>1393.4</ele>
        <time>2022-09-06T15:15:49Z</time>
      </trkpt>
      <trkpt lat="42.42749" lon="1.83519">
        <ele>1393</ele>
        <time>2022-09-06T15:15:50Z</time>
      </trkpt>
      <trkpt lat="42.42746" lon="1.83517">
        <ele>1393</ele>
        <time>2022-09-06T15:15:51Z</time>
      </trkpt>
      <trkpt lat="42.42743" lon="1.83516">
        <ele>1393</ele>
        <time>2022-09-06T15:15:52Z</time>
      </trkpt>
      <trkpt lat="42.4274" lon="1.83515">
        <ele>1393</ele>
        <time>2022-09-06T15:15:53Z</time>
      </trkpt>
      <trkpt lat="42.42738" lon="1.83514">
        <ele>1393.6</ele>
        <time>2022-09-06T15:15:54Z</time>
      </trkpt>
      <trkpt lat="42.42737" lon="1.83513">
        <ele>1393.6</ele>
        <time>2022-09-06T15:15:55Z</time>
      </trkpt>
      <trkpt lat="42.42736" lon="1.83512">
        <ele>1393.6</ele>
        <time>2022-09-06T15:15:56Z</time>
      </trkpt>
      <trkpt lat="42.42735" lon="1.8351">
        <ele>1393.6</ele>
        <time>2022-09-06T15:15:57Z</time>
      </trkpt>
      <trkpt lat="42.42735" lon="1.8351">
        <ele>1393.6</ele>
        <time>2022-09-06T15:15:58Z</time>
      </trkpt>
      <trkpt lat="42.42735" lon="1.8351">
        <ele>1393.6</ele>
        <time>2022-09-06T15:15:59Z</time>
      </trkpt>
      <trkpt lat="42.42732" lon="1.83506">
        <ele>1392.2</ele>
        <time>2022-09-06T15:16:00Z</time>
      </trkpt>
      <trkpt lat="42.42731" lon="1.83505">
        <ele>1392.2</ele>
        <time>2022-09-06T15:16:04Z</time>
      </trkpt>
      <trkpt lat="42.42729" lon="1.83504">
        <ele>1392.2</ele>
        <time>2022-09-06T15:16:05Z</time>
      </trkpt>
      <trkpt lat="42.42727" lon="1.83503">
        <ele>1392.2</ele>
        <time>2022-09-06T15:16:06Z</time>
      </trkpt>
      <trkpt lat="42.42725" lon="1.83501">
        <ele>1391.6</ele>
        <time>2022-09-06T15:16:07Z</time>
      </trkpt>
      <trkpt lat="42.42722" lon="1.83499">
        <ele>1391.6</ele>
        <time>2022-09-06T15:16:08Z</time>
      </trkpt>
      <trkpt lat="42.42718" lon="1.83498">
        <ele>1391.6</ele>
        <time>2022-09-06T15:16:09Z</time>
      </trkpt>
      <trkpt lat="42.42712" lon="1.83498">
        <ele>1391.6</ele>
        <time>2022-09-06T15:16:10Z</time>
      </trkpt>
      <trkpt lat="42.42706" lon="1.83498">
        <ele>1391.6</ele>
        <time>2022-09-06T15:16:11Z</time>
      </trkpt>
      <trkpt lat="42.427" lon="1.83494">
        <ele>1386.6</ele>
        <time>2022-09-06T15:16:12Z</time>
      </trkpt>
      <trkpt lat="42.42695" lon="1.83486">
        <ele>1386.6</ele>
        <time>2022-09-06T15:16:13Z</time>
      </trkpt>
      <trkpt lat="42.42691" lon="1.83478">
        <ele>1386.6</ele>
        <time>2022-09-06T15:16:14Z</time>
      </trkpt>
      <trkpt lat="42.42687" lon="1.83469">
        <ele>1386.6</ele>
        <time>2022-09-06T15:16:15Z</time>
      </trkpt>
      <trkpt lat="42.42683" lon="1.83462">
        <ele>1384</ele>
        <time>2022-09-06T15:16:16Z</time>
      </trkpt>
      <trkpt lat="42.42679" lon="1.83454">
        <ele>1384</ele>
        <time>2022-09-06T15:16:17Z</time>
      </trkpt>
      <trkpt lat="42.42677" lon="1.83446">
        <ele>1384</ele>
        <time>2022-09-06T15:16:18Z</time>
      </trkpt>
      <trkpt lat="42.42676" lon="1.83438">
        <ele>1385</ele>
        <time>2022-09-06T15:16:19Z</time>
      </trkpt>
      <trkpt lat="42.42674" lon="1.83431">
        <ele>1385.4</ele>
        <time>2022-09-06T15:16:20Z</time>
      </trkpt>
      <trkpt lat="42.42673" lon="1.83426">
        <ele>1385.4</ele>
        <time>2022-09-06T15:16:21Z</time>
      </trkpt>
      <trkpt lat="42.42671" lon="1.83421">
        <ele>1385.4</ele>
        <time>2022-09-06T15:16:22Z</time>
      </trkpt>
      <trkpt lat="42.4267" lon="1.83415">
        <ele>1385.4</ele>
        <time>2022-09-06T15:16:23Z</time>
      </trkpt>
      <trkpt lat="42.42669" lon="1.83409">
        <ele>1385.4</ele>
        <time>2022-09-06T15:16:24Z</time>
      </trkpt>
      <trkpt lat="42.42667" lon="1.83403">
        <ele>1384.8</ele>
        <time>2022-09-06T15:16:25Z</time>
      </trkpt>
      <trkpt lat="42.42665" lon="1.83396">
        <ele>1384.8</ele>
        <time>2022-09-06T15:16:26Z</time>
      </trkpt>
      <trkpt lat="42.42663" lon="1.83389">
        <ele>1384.8</ele>
        <time>2022-09-06T15:16:27Z</time>
      </trkpt>
      <trkpt lat="42.42661" lon="1.83382">
        <ele>1384.8</ele>
        <time>2022-09-06T15:16:28Z</time>
      </trkpt>
      <trkpt lat="42.4266" lon="1.83374">
        <ele>1384.4</ele>
        <time>2022-09-06T15:16:29Z</time>
      </trkpt>
      <trkpt lat="42.42658" lon="1.83367">
        <ele>1384.4</ele>
        <time>2022-09-06T15:16:30Z</time>
      </trkpt>
      <trkpt lat="42.42656" lon="1.8336">
        <ele>1384.4</ele>
        <time>2022-09-06T15:16:31Z</time>
      </trkpt>
      <trkpt lat="42.42654" lon="1.83353">
        <ele>1384.4</ele>
        <time>2022-09-06T15:16:32Z</time>
      </trkpt>
      <trkpt lat="42.42651" lon="1.83346">
        <ele>1384.2</ele>
        <time>2022-09-06T15:16:33Z</time>
      </trkpt>
      <trkpt lat="42.42649" lon="1.8334">
        <ele>1384.2</ele>
        <time>2022-09-06T15:16:34Z</time>
      </trkpt>
      <trkpt lat="42.42646" lon="1.83333">
        <ele>1384.2</ele>
        <time>2022-09-06T15:16:35Z</time>
      </trkpt>
      <trkpt lat="42.42644" lon="1.83326">
        <ele>1384.2</ele>
        <time>2022-09-06T15:16:36Z</time>
      </trkpt>
      <trkpt lat="42.42642" lon="1.8332">
        <ele>1384.2</ele>
        <time>2022-09-06T15:16:37Z</time>
      </trkpt>
      <trkpt lat="42.4264" lon="1.83314">
        <ele>1384.8</ele>
        <time>2022-09-06T15:16:38Z</time>
      </trkpt>
      <trkpt lat="42.42637" lon="1.83308">
        <ele>1384.8</ele>
        <time>2022-09-06T15:16:39Z</time>
      </trkpt>
      <trkpt lat="42.42635" lon="1.83302">
        <ele>1384.8</ele>
        <time>2022-09-06T15:16:40Z</time>
      </trkpt>
      <trkpt lat="42.42634" lon="1.83297">
        <ele>1384.8</ele>
        <time>2022-09-06T15:16:41Z</time>
      </trkpt>
      <trkpt lat="42.42633" lon="1.83293">
        <ele>1385</ele>
        <time>2022-09-06T15:16:42Z</time>
      </trkpt>
      <trkpt lat="42.42632" lon="1.83293">
        <ele>1385</ele>
        <time>2022-09-06T15:16:43Z</time>
      </trkpt>
      <trkpt lat="42.42631" lon="1.83296">
        <ele>1385</ele>
        <time>2022-09-06T15:16:44Z</time>
      </trkpt>
      <trkpt lat="42.42632" lon="1.833">
        <ele>1385.8</ele>
        <time>2022-09-06T15:16:45Z</time>
      </trkpt>
      <trkpt lat="42.42634" lon="1.83305">
        <ele>1384.8</ele>
        <time>2022-09-06T15:16:46Z</time>
      </trkpt>
      <trkpt lat="42.42636" lon="1.83309">
        <ele>1384.8</ele>
        <time>2022-09-06T15:16:47Z</time>
      </trkpt>
      <trkpt lat="42.42639" lon="1.83315">
        <ele>1384.8</ele>
        <time>2022-09-06T15:16:48Z</time>
      </trkpt>
      <trkpt lat="42.42641" lon="1.83319">
        <ele>1384.8</ele>
        <time>2022-09-06T15:16:49Z</time>
      </trkpt>
      <trkpt lat="42.42643" lon="1.83324">
        <ele>1385.4</ele>
        <time>2022-09-06T15:16:50Z</time>
      </trkpt>
      <trkpt lat="42.42644" lon="1.83328">
        <ele>1385.4</ele>
        <time>2022-09-06T15:16:51Z</time>
      </trkpt>
      <trkpt lat="42.42645" lon="1.8333">
        <ele>1385.4</ele>
        <time>2022-09-06T15:16:52Z</time>
      </trkpt>
      <trkpt lat="42.42646" lon="1.8333">
        <ele>1385.4</ele>
        <time>2022-09-06T15:16:53Z</time>
      </trkpt>
      <trkpt lat="42.42646" lon="1.8333">
        <ele>1385.4</ele>
        <time>2022-09-06T15:16:54Z</time>
      </trkpt>
      <trkpt lat="42.42643" lon="1.83326">
        <ele>1385.6</ele>
        <time>2022-09-06T15:16:55Z</time>
      </trkpt>
      <trkpt lat="42.42643" lon="1.83324">
        <ele>1385.6</ele>
        <time>2022-09-06T15:17:42Z</time>
      </trkpt>
      <trkpt lat="42.42642" lon="1.83323">
        <ele>1385.6</ele>
        <time>2022-09-06T15:17:43Z</time>
      </trkpt>
      <trkpt lat="42.42641" lon="1.83321">
        <ele>1385.6</ele>
        <time>2022-09-06T15:17:44Z</time>
      </trkpt>
      <trkpt lat="42.4264" lon="1.83318">
        <ele>1385</ele>
        <time>2022-09-06T15:17:45Z</time>
      </trkpt>
      <trkpt lat="42.42639" lon="1.83314">
        <ele>1384.6</ele>
        <time>2022-09-06T15:17:46Z</time>
      </trkpt>
      <trkpt lat="42.42638" lon="1.8331">
        <ele>1384.6</ele>
        <time>2022-09-06T15:17:47Z</time>
      </trkpt>
      <trkpt lat="42.42636" lon="1.83305">
        <ele>1384.6</ele>
        <time>2022-09-06T15:17:48Z</time>
      </trkpt>
      <trkpt lat="42.42634" lon="1.83301">
        <ele>1384.6</ele>
        <time>2022-09-06T15:17:49Z</time>
      </trkpt>
      <trkpt lat="42.42632" lon="1.83296">
        <ele>1385.6</ele>
        <time>2022-09-06T15:17:50Z</time>
      </trkpt>
      <trkpt lat="42.42631" lon="1.83292">
        <ele>1386.4</ele>
        <time>2022-09-06T15:17:51Z</time>
      </trkpt>
      <trkpt lat="42.42629" lon="1.83288">
        <ele>1386.4</ele>
        <time>2022-09-06T15:17:52Z</time>
      </trkpt>
      <trkpt lat="42.42627" lon="1.83285">
        <ele>1386.4</ele>
        <time>2022-09-06T15:17:53Z</time>
      </trkpt>
      <trkpt lat="42.42626" lon="1.83282">
        <ele>1386.4</ele>
        <time>2022-09-06T15:17:54Z</time>
      </trkpt>
      <trkpt lat="42.42626" lon="1.83281">
        <ele>1387.2</ele>
        <time>2022-09-06T15:17:55Z</time>
      </trkpt>
      <trkpt lat="42.42626" lon="1.8328">
        <ele>1387.2</ele>
        <time>2022-09-06T15:17:56Z</time>
      </trkpt>
      <trkpt lat="42.42626" lon="1.8328">
        <ele>1387.2</ele>
        <time>2022-09-06T15:17:57Z</time>
      </trkpt>
      <trkpt lat="42.42626" lon="1.8328">
        <ele>1387.2</ele>
        <time>2022-09-06T15:17:58Z</time>
      </trkpt>
      <trkpt lat="42.42629" lon="1.83279">
        <ele>1387.6</ele>
        <time>2022-09-06T15:17:59Z</time>
      </trkpt>
      <trkpt lat="42.42632" lon="1.83278">
        <ele>1387.8</ele>
        <time>2022-09-06T15:19:04Z</time>
      </trkpt>
      <trkpt lat="42.42636" lon="1.83278">
        <ele>1387.8</ele>
        <time>2022-09-06T15:19:05Z</time>
      </trkpt>
      <trkpt lat="42.4264" lon="1.83278">
        <ele>1387.8</ele>
        <time>2022-09-06T15:19:06Z</time>
      </trkpt>
      <trkpt lat="42.42644" lon="1.83278">
        <ele>1387.8</ele>
        <time>2022-09-06T15:19:07Z</time>
      </trkpt>
      <trkpt lat="42.42647" lon="1.83279">
        <ele>1388.8</ele>
        <time>2022-09-06T15:19:08Z</time>
      </trkpt>
      <trkpt lat="42.42651" lon="1.8328">
        <ele>1391.2</ele>
        <time>2022-09-06T15:19:09Z</time>
      </trkpt>
      <trkpt lat="42.42656" lon="1.83281">
        <ele>1391.2</ele>
        <time>2022-09-06T15:19:10Z</time>
      </trkpt>
      <trkpt lat="42.4266" lon="1.83283">
        <ele>1391.2</ele>
        <time>2022-09-06T15:19:11Z</time>
      </trkpt>
      <trkpt lat="42.42664" lon="1.83285">
        <ele>1391.2</ele>
        <time>2022-09-06T15:19:12Z</time>
      </trkpt>
      <trkpt lat="42.42667" lon="1.83288">
        <ele>1392.8</ele>
        <time>2022-09-06T15:19:13Z</time>
      </trkpt>
      <trkpt lat="42.4267" lon="1.83291">
        <ele>1392.8</ele>
        <time>2022-09-06T15:19:14Z</time>
      </trkpt>
      <trkpt lat="42.42674" lon="1.83294">
        <ele>1392.8</ele>
        <time>2022-09-06T15:19:15Z</time>
      </trkpt>
      <trkpt lat="42.42678" lon="1.83296">
        <ele>1392.8</ele>
        <time>2022-09-06T15:19:16Z</time>
      </trkpt>
      <trkpt lat="42.42681" lon="1.83299">
        <ele>1393.8</ele>
        <time>2022-09-06T15:19:17Z</time>
      </trkpt>
      <trkpt lat="42.42683" lon="1.83301">
        <ele>1395.2</ele>
        <time>2022-09-06T15:19:18Z</time>
      </trkpt>
      <trkpt lat="42.42686" lon="1.83304">
        <ele>1395.2</ele>
        <time>2022-09-06T15:19:19Z</time>
      </trkpt>
      <trkpt lat="42.42689" lon="1.83306">
        <ele>1395.2</ele>
        <time>2022-09-06T15:19:20Z</time>
      </trkpt>
      <trkpt lat="42.42693" lon="1.83308">
        <ele>1395.2</ele>
        <time>2022-09-06T15:19:21Z</time>
      </trkpt>
      <trkpt lat="42.42696" lon="1.8331">
        <ele>1396.8</ele>
        <time>2022-09-06T15:19:22Z</time>
      </trkpt>
      <trkpt lat="42.42699" lon="1.83312">
        <ele>1396.8</ele>
        <time>2022-09-06T15:19:23Z</time>
      </trkpt>
      <trkpt lat="42.42703" lon="1.83314">
        <ele>1396.8</ele>
        <time>2022-09-06T15:19:24Z</time>
      </trkpt>
      <trkpt lat="42.42706" lon="1.83317">
        <ele>1396.8</ele>
        <time>2022-09-06T15:19:25Z</time>
      </trkpt>
      <trkpt lat="42.42709" lon="1.83319">
        <ele>1397.8</ele>
        <time>2022-09-06T15:19:26Z</time>
      </trkpt>
      <trkpt lat="42.42712" lon="1.83321">
        <ele>1400.6</ele>
        <time>2022-09-06T15:19:27Z</time>
      </trkpt>
      <trkpt lat="42.42715" lon="1.83323">
        <ele>1400.6</ele>
        <time>2022-09-06T15:19:28Z</time>
      </trkpt>
      <trkpt lat="42.42718" lon="1.83325">
        <ele>1400.6</ele>
        <time>2022-09-06T15:19:29Z</time>
      </trkpt>
      <trkpt lat="42.42722" lon="1.83327">
        <ele>1399.6</ele>
        <time>2022-09-06T15:19:30Z</time>
      </trkpt>
      <trkpt lat="42.42725" lon="1.83329">
        <ele>1400.6</ele>
        <time>2022-09-06T15:19:31Z</time>
      </trkpt>
      <trkpt lat="42.42728" lon="1.83331">
        <ele>1400.6</ele>
        <time>2022-09-06T15:19:32Z</time>
      </trkpt>
      <trkpt lat="42.42731" lon="1.83334">
        <ele>1400.6</ele>
        <time>2022-09-06T15:19:33Z</time>
      </trkpt>
      <trkpt lat="42.42734" lon="1.83337">
        <ele>1400.6</ele>
        <time>2022-09-06T15:19:34Z</time>
      </trkpt>
      <trkpt lat="42.42736" lon="1.8334">
        <ele>1402.8</ele>
        <time>2022-09-06T15:19:35Z</time>
      </trkpt>
      <trkpt lat="42.42739" lon="1.83343">
        <ele>1402.8</ele>
        <time>2022-09-06T15:19:36Z</time>
      </trkpt>
      <trkpt lat="42.42741" lon="1.83346">
        <ele>1402.8</ele>
        <time>2022-09-06T15:19:37Z</time>
      </trkpt>
      <trkpt lat="42.42744" lon="1.83349">
        <ele>1402.8</ele>
        <time>2022-09-06T15:19:38Z</time>
      </trkpt>
      <trkpt lat="42.42747" lon="1.83352">
        <ele>1402.8</ele>
        <time>2022-09-06T15:19:39Z</time>
      </trkpt>
      <trkpt lat="42.42749" lon="1.83356">
        <ele>1404.8</ele>
        <time>2022-09-06T15:19:40Z</time>
      </trkpt>
      <trkpt lat="42.42751" lon="1.83359">
        <ele>1404.8</ele>
        <time>2022-09-06T15:19:41Z</time>
      </trkpt>
      <trkpt lat="42.42753" lon="1.83363">
        <ele>1404.8</ele>
        <time>2022-09-06T15:19:42Z</time>
      </trkpt>
      <trkpt lat="42.42755" lon="1.83367">
        <ele>1405.4</ele>
        <time>2022-09-06T15:19:43Z</time>
      </trkpt>
      <trkpt lat="42.42757" lon="1.83371">
        <ele>1406.8</ele>
        <time>2022-09-06T15:19:44Z</time>
      </trkpt>
      <trkpt lat="42.42759" lon="1.83375">
        <ele>1406.8</ele>
        <time>2022-09-06T15:19:45Z</time>
      </trkpt>
      <trkpt lat="42.42761" lon="1.8338">
        <ele>1406.8</ele>
        <time>2022-09-06T15:19:46Z</time>
      </trkpt>
      <trkpt lat="42.42762" lon="1.83385">
        <ele>1406.8</ele>
        <time>2022-09-06T15:19:47Z</time>
      </trkpt>
      <trkpt lat="42.42763" lon="1.8339">
        <ele>1408</ele>
        <time>2022-09-06T15:19:48Z</time>
      </trkpt>
      <trkpt lat="42.42763" lon="1.83395">
        <ele>1408</ele>
        <time>2022-09-06T15:19:49Z</time>
      </trkpt>
      <trkpt lat="42.42763" lon="1.83399">
        <ele>1408</ele>
        <time>2022-09-06T15:19:50Z</time>
      </trkpt>
      <trkpt lat="42.42765" lon="1.83403">
        <ele>1409</ele>
        <time>2022-09-06T15:19:51Z</time>
      </trkpt>
      <trkpt lat="42.42767" lon="1.83407">
        <ele>1411</ele>
        <time>2022-09-06T15:19:52Z</time>
      </trkpt>
      <trkpt lat="42.42769" lon="1.83411">
        <ele>1411</ele>
        <time>2022-09-06T15:19:53Z</time>
      </trkpt>
      <trkpt lat="42.42772" lon="1.83414">
        <ele>1411</ele>
        <time>2022-09-06T15:19:54Z</time>
      </trkpt>
      <trkpt lat="42.42775" lon="1.83417">
        <ele>1411</ele>
        <time>2022-09-06T15:19:55Z</time>
      </trkpt>
      <trkpt lat="42.42778" lon="1.83419">
        <ele>1411</ele>
        <time>2022-09-06T15:19:56Z</time>
      </trkpt>
      <trkpt lat="42.42782" lon="1.83422">
        <ele>1411.2</ele>
        <time>2022-09-06T15:19:57Z</time>
      </trkpt>
      <trkpt lat="42.42786" lon="1.83423">
        <ele>1411.2</ele>
        <time>2022-09-06T15:19:58Z</time>
      </trkpt>
      <trkpt lat="42.4279" lon="1.83424">
        <ele>1411.2</ele>
        <time>2022-09-06T15:19:59Z</time>
      </trkpt>
      <trkpt lat="42.42794" lon="1.83425">
        <ele>1412.2</ele>
        <time>2022-09-06T15:20:00Z</time>
      </trkpt>
      <trkpt lat="42.42798" lon="1.83426">
        <ele>1414.4</ele>
        <time>2022-09-06T15:20:01Z</time>
      </trkpt>
      <trkpt lat="42.42802" lon="1.83426">
        <ele>1414.4</ele>
        <time>2022-09-06T15:20:02Z</time>
      </trkpt>
      <trkpt lat="42.42806" lon="1.83427">
        <ele>1414.4</ele>
        <time>2022-09-06T15:20:03Z</time>
      </trkpt>
      <trkpt lat="42.4281" lon="1.83427">
        <ele>1414.4</ele>
        <time>2022-09-06T15:20:04Z</time>
      </trkpt>
      <trkpt lat="42.42813" lon="1.83427">
        <ele>1417</ele>
        <time>2022-09-06T15:20:05Z</time>
      </trkpt>
      <trkpt lat="42.42817" lon="1.83426">
        <ele>1417</ele>
        <time>2022-09-06T15:20:06Z</time>
      </trkpt>
      <trkpt lat="42.42821" lon="1.83425">
        <ele>1417</ele>
        <time>2022-09-06T15:20:07Z</time>
      </trkpt>
      <trkpt lat="42.42825" lon="1.83424">
        <ele>1417</ele>
        <time>2022-09-06T15:20:08Z</time>
      </trkpt>
      <trkpt lat="42.42828" lon="1.83422">
        <ele>1417.2</ele>
        <time>2022-09-06T15:20:09Z</time>
      </trkpt>
      <trkpt lat="42.42832" lon="1.83421">
        <ele>1417.4</ele>
        <time>2022-09-06T15:20:10Z</time>
      </trkpt>
      <trkpt lat="42.42836" lon="1.83419">
        <ele>1417.4</ele>
        <time>2022-09-06T15:20:11Z</time>
      </trkpt>
      <trkpt lat="42.4284" lon="1.83417">
        <ele>1417.4</ele>
        <time>2022-09-06T15:20:12Z</time>
      </trkpt>
      <trkpt lat="42.42844" lon="1.83415">
        <ele>1418.4</ele>
        <time>2022-09-06T15:20:13Z</time>
      </trkpt>
      <trkpt lat="42.42848" lon="1.83414">
        <ele>1419</ele>
        <time>2022-09-06T15:20:14Z</time>
      </trkpt>
      <trkpt lat="42.42852" lon="1.83414">
        <ele>1419</ele>
        <time>2022-09-06T15:20:15Z</time>
      </trkpt>
      <trkpt lat="42.42856" lon="1.83414">
        <ele>1419</ele>
        <time>2022-09-06T15:20:16Z</time>
      </trkpt>
      <trkpt lat="42.4286" lon="1.83414">
        <ele>1419</ele>
        <time>2022-09-06T15:20:17Z</time>
      </trkpt>
      <trkpt lat="42.42864" lon="1.83415">
        <ele>1421.2</ele>
        <time>2022-09-06T15:20:18Z</time>
      </trkpt>
      <trkpt lat="42.42868" lon="1.83415">
        <ele>1421.2</ele>
        <time>2022-09-06T15:20:19Z</time>
      </trkpt>
      <trkpt lat="42.42871" lon="1.83413">
        <ele>1421.2</ele>
        <time>2022-09-06T15:20:20Z</time>
      </trkpt>
      <trkpt lat="42.42874" lon="1.8341">
        <ele>1421.2</ele>
        <time>2022-09-06T15:20:21Z</time>
      </trkpt>
      <trkpt lat="42.42876" lon="1.83405">
        <ele>1422.2</ele>
        <time>2022-09-06T15:20:22Z</time>
      </trkpt>
      <trkpt lat="42.42876" lon="1.83401">
        <ele>1422.6</ele>
        <time>2022-09-06T15:20:23Z</time>
      </trkpt>
      <trkpt lat="42.42875" lon="1.83396">
        <ele>1422.6</ele>
        <time>2022-09-06T15:20:24Z</time>
      </trkpt>
      <trkpt lat="42.42872" lon="1.83391">
        <ele>1422.6</ele>
        <time>2022-09-06T15:20:25Z</time>
      </trkpt>
      <trkpt lat="42.42869" lon="1.83388">
        <ele>1423.6</ele>
        <time>2022-09-06T15:20:26Z</time>
      </trkpt>
      <trkpt lat="42.42867" lon="1.83384">
        <ele>1424</ele>
        <time>2022-09-06T15:20:27Z</time>
      </trkpt>
      <trkpt lat="42.42864" lon="1.8338">
        <ele>1424</ele>
        <time>2022-09-06T15:20:28Z</time>
      </trkpt>
      <trkpt lat="42.42862" lon="1.83376">
        <ele>1424</ele>
        <time>2022-09-06T15:20:29Z</time>
      </trkpt>
      <trkpt lat="42.42859" lon="1.83372">
        <ele>1425</ele>
        <time>2022-09-06T15:20:30Z</time>
      </trkpt>
      <trkpt lat="42.42857" lon="1.83369">
        <ele>1426.8</ele>
        <time>2022-09-06T15:20:31Z</time>
      </trkpt>
      <trkpt lat="42.42854" lon="1.83365">
        <ele>1426.8</ele>
        <time>2022-09-06T15:20:32Z</time>
      </trkpt>
      <trkpt lat="42.42852" lon="1.83361">
        <ele>1426.8</ele>
        <time>2022-09-06T15:20:33Z</time>
      </trkpt>
      <trkpt lat="42.42849" lon="1.83358">
        <ele>1427.8</ele>
        <time>2022-09-06T15:20:34Z</time>
      </trkpt>
      <trkpt lat="42.42847" lon="1.83354">
        <ele>1430.2</ele>
        <time>2022-09-06T15:20:35Z</time>
      </trkpt>
      <trkpt lat="42.42845" lon="1.8335">
        <ele>1430.2</ele>
        <time>2022-09-06T15:20:36Z</time>
      </trkpt>
      <trkpt lat="42.42845" lon="1.83345">
        <ele>1430.2</ele>
        <time>2022-09-06T15:20:37Z</time>
      </trkpt>
      <trkpt lat="42.42845" lon="1.83341">
        <ele>1430.2</ele>
        <time>2022-09-06T15:20:38Z</time>
      </trkpt>
      <trkpt lat="42.42846" lon="1.83337">
        <ele>1430.2</ele>
        <time>2022-09-06T15:20:39Z</time>
      </trkpt>
      <trkpt lat="42.42847" lon="1.83333">
        <ele>1431.2</ele>
        <time>2022-09-06T15:20:40Z</time>
      </trkpt>
      <trkpt lat="42.4285" lon="1.8333">
        <ele>1431.2</ele>
        <time>2022-09-06T15:20:41Z</time>
      </trkpt>
      <trkpt lat="42.42854" lon="1.83328">
        <ele>1431.2</ele>
        <time>2022-09-06T15:20:42Z</time>
      </trkpt>
      <trkpt lat="42.42857" lon="1.83327">
        <ele>1432.2</ele>
        <time>2022-09-06T15:20:43Z</time>
      </trkpt>
      <trkpt lat="42.42862" lon="1.83328">
        <ele>1432.6</ele>
        <time>2022-09-06T15:20:44Z</time>
      </trkpt>
      <trkpt lat="42.42866" lon="1.8333">
        <ele>1432.6</ele>
        <time>2022-09-06T15:20:45Z</time>
      </trkpt>
      <trkpt lat="42.4287" lon="1.83332">
        <ele>1432.6</ele>
        <time>2022-09-06T15:20:46Z</time>
      </trkpt>
      <trkpt lat="42.42874" lon="1.83333">
        <ele>1433.6</ele>
        <time>2022-09-06T15:20:47Z</time>
      </trkpt>
      <trkpt lat="42.42878" lon="1.83334">
        <ele>1434.4</ele>
        <time>2022-09-06T15:20:48Z</time>
      </trkpt>
      <trkpt lat="42.42882" lon="1.83335">
        <ele>1434.4</ele>
        <time>2022-09-06T15:20:49Z</time>
      </trkpt>
      <trkpt lat="42.42886" lon="1.83335">
        <ele>1434.4</ele>
        <time>2022-09-06T15:20:50Z</time>
      </trkpt>
      <trkpt lat="42.4289" lon="1.83335">
        <ele>1434.4</ele>
        <time>2022-09-06T15:20:51Z</time>
      </trkpt>
      <trkpt lat="42.42894" lon="1.83335">
        <ele>1435.4</ele>
        <time>2022-09-06T15:20:52Z</time>
      </trkpt>
      <trkpt lat="42.42898" lon="1.83335">
        <ele>1437.8</ele>
        <time>2022-09-06T15:20:53Z</time>
      </trkpt>
      <trkpt lat="42.42902" lon="1.83336">
        <ele>1437.8</ele>
        <time>2022-09-06T15:20:54Z</time>
      </trkpt>
      <trkpt lat="42.42906" lon="1.83336">
        <ele>1437.8</ele>
        <time>2022-09-06T15:20:55Z</time>
      </trkpt>
      <trkpt lat="42.4291" lon="1.83337">
        <ele>1437.8</ele>
        <time>2022-09-06T15:20:56Z</time>
      </trkpt>
      <trkpt lat="42.42914" lon="1.83339">
        <ele>1439</ele>
        <time>2022-09-06T15:20:57Z</time>
      </trkpt>
      <trkpt lat="42.42918" lon="1.8334">
        <ele>1439</ele>
        <time>2022-09-06T15:20:58Z</time>
      </trkpt>
      <trkpt lat="42.42922" lon="1.83342">
        <ele>1439</ele>
        <time>2022-09-06T15:20:59Z</time>
      </trkpt>
      <trkpt lat="42.42926" lon="1.83344">
        <ele>1439</ele>
        <time>2022-09-06T15:21:00Z</time>
      </trkpt>
      <trkpt lat="42.42929" lon="1.83346">
        <ele>1440</ele>
        <time>2022-09-06T15:21:01Z</time>
      </trkpt>
      <trkpt lat="42.42933" lon="1.83347">
        <ele>1441.4</ele>
        <time>2022-09-06T15:21:02Z</time>
      </trkpt>
      <trkpt lat="42.42936" lon="1.83348">
        <ele>1441.4</ele>
        <time>2022-09-06T15:21:03Z</time>
      </trkpt>
      <trkpt lat="42.42939" lon="1.83348">
        <ele>1441.4</ele>
        <time>2022-09-06T15:21:04Z</time>
      </trkpt>
      <trkpt lat="42.42942" lon="1.83347">
        <ele>1442.4</ele>
        <time>2022-09-06T15:21:05Z</time>
      </trkpt>
      <trkpt lat="42.42945" lon="1.83346">
        <ele>1444.6</ele>
        <time>2022-09-06T15:21:06Z</time>
      </trkpt>
      <trkpt lat="42.42948" lon="1.83344">
        <ele>1444.6</ele>
        <time>2022-09-06T15:21:07Z</time>
      </trkpt>
      <trkpt lat="42.42951" lon="1.83342">
        <ele>1444.6</ele>
        <time>2022-09-06T15:21:08Z</time>
      </trkpt>
      <trkpt lat="42.42953" lon="1.83341">
        <ele>1445</ele>
        <time>2022-09-06T15:21:09Z</time>
      </trkpt>
      <trkpt lat="42.42956" lon="1.83339">
        <ele>1447.2</ele>
        <time>2022-09-06T15:21:10Z</time>
      </trkpt>
      <trkpt lat="42.4296" lon="1.83337">
        <ele>1447.2</ele>
        <time>2022-09-06T15:21:11Z</time>
      </trkpt>
      <trkpt lat="42.42963" lon="1.83336">
        <ele>1447.2</ele>
        <time>2022-09-06T15:21:12Z</time>
      </trkpt>
      <trkpt lat="42.42966" lon="1.83335">
        <ele>1447.2</ele>
        <time>2022-09-06T15:21:13Z</time>
      </trkpt>
      <trkpt lat="42.42969" lon="1.83334">
        <ele>1447.2</ele>
        <time>2022-09-06T15:21:14Z</time>
      </trkpt>
      <trkpt lat="42.42973" lon="1.83334">
        <ele>1448.4</ele>
        <time>2022-09-06T15:21:15Z</time>
      </trkpt>
      <trkpt lat="42.42976" lon="1.83334">
        <ele>1448.4</ele>
        <time>2022-09-06T15:21:16Z</time>
      </trkpt>
      <trkpt lat="42.42979" lon="1.83335">
        <ele>1448.4</ele>
        <time>2022-09-06T15:21:17Z</time>
      </trkpt>
      <trkpt lat="42.42983" lon="1.83335">
        <ele>1449.4</ele>
        <time>2022-09-06T15:21:18Z</time>
      </trkpt>
      <trkpt lat="42.42986" lon="1.83334">
        <ele>1451.2</ele>
        <time>2022-09-06T15:21:19Z</time>
      </trkpt>
      <trkpt lat="42.42989" lon="1.83334">
        <ele>1451.2</ele>
        <time>2022-09-06T15:21:20Z</time>
      </trkpt>
      <trkpt lat="42.42993" lon="1.83334">
        <ele>1451.2</ele>
        <time>2022-09-06T15:21:21Z</time>
      </trkpt>
      <trkpt lat="42.42996" lon="1.83334">
        <ele>1451.2</ele>
        <time>2022-09-06T15:21:22Z</time>
      </trkpt>
      <trkpt lat="42.42999" lon="1.83334">
        <ele>1453.6</ele>
        <time>2022-09-06T15:21:23Z</time>
      </trkpt>
      <trkpt lat="42.43003" lon="1.83334">
        <ele>1453.6</ele>
        <time>2022-09-06T15:21:24Z</time>
      </trkpt>
      <trkpt lat="42.43006" lon="1.83333">
        <ele>1453.6</ele>
        <time>2022-09-06T15:21:25Z</time>
      </trkpt>
      <trkpt lat="42.43009" lon="1.83333">
        <ele>1454.6</ele>
        <time>2022-09-06T15:21:26Z</time>
      </trkpt>
      <trkpt lat="42.43013" lon="1.83332">
        <ele>1454.6</ele>
        <time>2022-09-06T15:21:27Z</time>
      </trkpt>
      <trkpt lat="42.43016" lon="1.83331">
        <ele>1454.6</ele>
        <time>2022-09-06T15:21:28Z</time>
      </trkpt>
      <trkpt lat="42.43019" lon="1.8333">
        <ele>1454.6</ele>
        <time>2022-09-06T15:21:29Z</time>
      </trkpt>
      <trkpt lat="42.43022" lon="1.83329">
        <ele>1454.6</ele>
        <time>2022-09-06T15:21:30Z</time>
      </trkpt>
      <trkpt lat="42.43025" lon="1.83328">
        <ele>1455.6</ele>
        <time>2022-09-06T15:21:31Z</time>
      </trkpt>
      <trkpt lat="42.43028" lon="1.83328">
        <ele>1458.2</ele>
        <time>2022-09-06T15:21:32Z</time>
      </trkpt>
      <trkpt lat="42.43031" lon="1.83327">
        <ele>1458.2</ele>
        <time>2022-09-06T15:21:33Z</time>
      </trkpt>
      <trkpt lat="42.43035" lon="1.83327">
        <ele>1458.2</ele>
        <time>2022-09-06T15:21:34Z</time>
      </trkpt>
      <trkpt lat="42.43038" lon="1.83327">
        <ele>1458.2</ele>
        <time>2022-09-06T15:21:35Z</time>
      </trkpt>
      <trkpt lat="42.43041" lon="1.83326">
        <ele>1461</ele>
        <time>2022-09-06T15:21:36Z</time>
      </trkpt>
      <trkpt lat="42.43044" lon="1.83326">
        <ele>1461</ele>
        <time>2022-09-06T15:21:37Z</time>
      </trkpt>
      <trkpt lat="42.43048" lon="1.83326">
        <ele>1461</ele>
        <time>2022-09-06T15:21:38Z</time>
      </trkpt>
      <trkpt lat="42.43051" lon="1.83325">
        <ele>1461</ele>
        <time>2022-09-06T15:21:39Z</time>
      </trkpt>
      <trkpt lat="42.43055" lon="1.83325">
        <ele>1461</ele>
        <time>2022-09-06T15:21:40Z</time>
      </trkpt>
      <trkpt lat="42.43058" lon="1.83326">
        <ele>1461.8</ele>
        <time>2022-09-06T15:21:41Z</time>
      </trkpt>
      <trkpt lat="42.43061" lon="1.83326">
        <ele>1461.8</ele>
        <time>2022-09-06T15:21:42Z</time>
      </trkpt>
      <trkpt lat="42.43064" lon="1.83325">
        <ele>1461.8</ele>
        <time>2022-09-06T15:21:43Z</time>
      </trkpt>
      <trkpt lat="42.43068" lon="1.83324">
        <ele>1462.8</ele>
        <time>2022-09-06T15:21:44Z</time>
      </trkpt>
      <trkpt lat="42.43071" lon="1.83323">
        <ele>1464.8</ele>
        <time>2022-09-06T15:21:45Z</time>
      </trkpt>
      <trkpt lat="42.43074" lon="1.83322">
        <ele>1464.8</ele>
        <time>2022-09-06T15:21:46Z</time>
      </trkpt>
      <trkpt lat="42.43077" lon="1.83321">
        <ele>1464.8</ele>
        <time>2022-09-06T15:21:47Z</time>
      </trkpt>
      <trkpt lat="42.4308" lon="1.83319">
        <ele>1465.8</ele>
        <time>2022-09-06T15:21:48Z</time>
      </trkpt>
      <trkpt lat="42.43083" lon="1.83318">
        <ele>1467.8</ele>
        <time>2022-09-06T15:21:49Z</time>
      </trkpt>
      <trkpt lat="42.43086" lon="1.83316">
        <ele>1467.8</ele>
        <time>2022-09-06T15:21:50Z</time>
      </trkpt>
      <trkpt lat="42.43088" lon="1.83313">
        <ele>1467.8</ele>
        <time>2022-09-06T15:21:51Z</time>
      </trkpt>
      <trkpt lat="42.4309" lon="1.83311">
        <ele>1467.8</ele>
        <time>2022-09-06T15:21:52Z</time>
      </trkpt>
      <trkpt lat="42.43092" lon="1.83308">
        <ele>1467.8</ele>
        <time>2022-09-06T15:21:53Z</time>
      </trkpt>
      <trkpt lat="42.43093" lon="1.83305">
        <ele>1469.4</ele>
        <time>2022-09-06T15:21:54Z</time>
      </trkpt>
      <trkpt lat="42.43095" lon="1.83302">
        <ele>1469.4</ele>
        <time>2022-09-06T15:21:55Z</time>
      </trkpt>
      <trkpt lat="42.43096" lon="1.83299">
        <ele>1469.4</ele>
        <time>2022-09-06T15:21:56Z</time>
      </trkpt>
      <trkpt lat="42.43097" lon="1.83296">
        <ele>1470.4</ele>
        <time>2022-09-06T15:21:57Z</time>
      </trkpt>
      <trkpt lat="42.43098" lon="1.83292">
        <ele>1472.8</ele>
        <time>2022-09-06T15:21:58Z</time>
      </trkpt>
      <trkpt lat="42.431" lon="1.83289">
        <ele>1472.8</ele>
        <time>2022-09-06T15:21:59Z</time>
      </trkpt>
      <trkpt lat="42.43103" lon="1.83287">
        <ele>1472.8</ele>
        <time>2022-09-06T15:22:00Z</time>
      </trkpt>
      <trkpt lat="42.43106" lon="1.83285">
        <ele>1473.8</ele>
        <time>2022-09-06T15:22:01Z</time>
      </trkpt>
      <trkpt lat="42.43109" lon="1.83283">
        <ele>1474.6</ele>
        <time>2022-09-06T15:22:02Z</time>
      </trkpt>
      <trkpt lat="42.43113" lon="1.83281">
        <ele>1474.6</ele>
        <time>2022-09-06T15:22:03Z</time>
      </trkpt>
      <trkpt lat="42.43116" lon="1.83278">
        <ele>1474.6</ele>
        <time>2022-09-06T15:22:04Z</time>
      </trkpt>
      <trkpt lat="42.43119" lon="1.83277">
        <ele>1475.6</ele>
        <time>2022-09-06T15:22:05Z</time>
      </trkpt>
      <trkpt lat="42.43122" lon="1.83276">
        <ele>1475.6</ele>
        <time>2022-09-06T15:22:06Z</time>
      </trkpt>
      <trkpt lat="42.43125" lon="1.83275">
        <ele>1476.2</ele>
        <time>2022-09-06T15:22:07Z</time>
      </trkpt>
      <trkpt lat="42.43128" lon="1.83273">
        <ele>1476.2</ele>
        <time>2022-09-06T15:22:08Z</time>
      </trkpt>
      <trkpt lat="42.43131" lon="1.83272">
        <ele>1476.2</ele>
        <time>2022-09-06T15:22:09Z</time>
      </trkpt>
      <trkpt lat="42.43134" lon="1.8327">
        <ele>1477.2</ele>
        <time>2022-09-06T15:22:10Z</time>
      </trkpt>
      <trkpt lat="42.43138" lon="1.83269">
        <ele>1478.8</ele>
        <time>2022-09-06T15:22:11Z</time>
      </trkpt>
      <trkpt lat="42.4314" lon="1.83267">
        <ele>1478.8</ele>
        <time>2022-09-06T15:22:12Z</time>
      </trkpt>
      <trkpt lat="42.43143" lon="1.83266">
        <ele>1478.8</ele>
        <time>2022-09-06T15:22:13Z</time>
      </trkpt>
      <trkpt lat="42.43147" lon="1.83264">
        <ele>1478.8</ele>
        <time>2022-09-06T15:22:14Z</time>
      </trkpt>
      <trkpt lat="42.4315" lon="1.83262">
        <ele>1480.4</ele>
        <time>2022-09-06T15:22:15Z</time>
      </trkpt>
      <trkpt lat="42.43153" lon="1.8326">
        <ele>1480.4</ele>
        <time>2022-09-06T15:22:16Z</time>
      </trkpt>
      <trkpt lat="42.43156" lon="1.83257">
        <ele>1480.4</ele>
        <time>2022-09-06T15:22:17Z</time>
      </trkpt>
      <trkpt lat="42.43159" lon="1.83254">
        <ele>1481.4</ele>
        <time>2022-09-06T15:22:18Z</time>
      </trkpt>
      <trkpt lat="42.43161" lon="1.83251">
        <ele>1483.2</ele>
        <time>2022-09-06T15:22:19Z</time>
      </trkpt>
      <trkpt lat="42.43164" lon="1.83249">
        <ele>1483.2</ele>
        <time>2022-09-06T15:22:20Z</time>
      </trkpt>
      <trkpt lat="42.43167" lon="1.83246">
        <ele>1483.2</ele>
        <time>2022-09-06T15:22:21Z</time>
      </trkpt>
      <trkpt lat="42.4317" lon="1.83243">
        <ele>1484.2</ele>
        <time>2022-09-06T15:22:22Z</time>
      </trkpt>
      <trkpt lat="42.43172" lon="1.83241">
        <ele>1485.2</ele>
        <time>2022-09-06T15:22:23Z</time>
      </trkpt>
      <trkpt lat="42.43175" lon="1.83238">
        <ele>1485.2</ele>
        <time>2022-09-06T15:22:24Z</time>
      </trkpt>
      <trkpt lat="42.43178" lon="1.83235">
        <ele>1485.2</ele>
        <time>2022-09-06T15:22:25Z</time>
      </trkpt>
      <trkpt lat="42.43181" lon="1.83233">
        <ele>1486.2</ele>
        <time>2022-09-06T15:22:26Z</time>
      </trkpt>
      <trkpt lat="42.43184" lon="1.8323">
        <ele>1487.6</ele>
        <time>2022-09-06T15:22:27Z</time>
      </trkpt>
      <trkpt lat="42.43187" lon="1.83228">
        <ele>1487.6</ele>
        <time>2022-09-06T15:22:28Z</time>
      </trkpt>
      <trkpt lat="42.4319" lon="1.83225">
        <ele>1487.6</ele>
        <time>2022-09-06T15:22:29Z</time>
      </trkpt>
      <trkpt lat="42.43193" lon="1.83223">
        <ele>1487.6</ele>
        <time>2022-09-06T15:22:30Z</time>
      </trkpt>
      <trkpt lat="42.43196" lon="1.8322">
        <ele>1487.6</ele>
        <time>2022-09-06T15:22:31Z</time>
      </trkpt>
      <trkpt lat="42.43198" lon="1.83218">
        <ele>1488.8</ele>
        <time>2022-09-06T15:22:32Z</time>
      </trkpt>
      <trkpt lat="42.43201" lon="1.83216">
        <ele>1488.8</ele>
        <time>2022-09-06T15:22:33Z</time>
      </trkpt>
      <trkpt lat="42.43204" lon="1.83214">
        <ele>1488.8</ele>
        <time>2022-09-06T15:22:34Z</time>
      </trkpt>
      <trkpt lat="42.43207" lon="1.83211">
        <ele>1489.8</ele>
        <time>2022-09-06T15:22:35Z</time>
      </trkpt>
      <trkpt lat="42.4321" lon="1.83209">
        <ele>1490.4</ele>
        <time>2022-09-06T15:22:36Z</time>
      </trkpt>
      <trkpt lat="42.43213" lon="1.83207">
        <ele>1490.4</ele>
        <time>2022-09-06T15:22:37Z</time>
      </trkpt>
      <trkpt lat="42.43217" lon="1.83206">
        <ele>1490.4</ele>
        <time>2022-09-06T15:22:38Z</time>
      </trkpt>
      <trkpt lat="42.4322" lon="1.83204">
        <ele>1491.4</ele>
        <time>2022-09-06T15:22:39Z</time>
      </trkpt>
      <trkpt lat="42.43224" lon="1.83203">
        <ele>1492.6</ele>
        <time>2022-09-06T15:22:40Z</time>
      </trkpt>
      <trkpt lat="42.43227" lon="1.83201">
        <ele>1492.6</ele>
        <time>2022-09-06T15:22:41Z</time>
      </trkpt>
      <trkpt lat="42.4323" lon="1.832">
        <ele>1492.6</ele>
        <time>2022-09-06T15:22:42Z</time>
      </trkpt>
      <trkpt lat="42.43234" lon="1.83198">
        <ele>1493.6</ele>
        <time>2022-09-06T15:22:43Z</time>
      </trkpt>
      <trkpt lat="42.43237" lon="1.83197">
        <ele>1493.6</ele>
        <time>2022-09-06T15:22:44Z</time>
      </trkpt>
      <trkpt lat="42.4324" lon="1.83195">
        <ele>1494.8</ele>
        <time>2022-09-06T15:22:45Z</time>
      </trkpt>
      <trkpt lat="42.43242" lon="1.83193">
        <ele>1494.8</ele>
        <time>2022-09-06T15:22:46Z</time>
      </trkpt>
      <trkpt lat="42.43245" lon="1.83192">
        <ele>1494.8</ele>
        <time>2022-09-06T15:22:47Z</time>
      </trkpt>
      <trkpt lat="42.43249" lon="1.83191">
        <ele>1495.8</ele>
        <time>2022-09-06T15:22:48Z</time>
      </trkpt>
      <trkpt lat="42.43252" lon="1.83189">
        <ele>1496.6</ele>
        <time>2022-09-06T15:22:49Z</time>
      </trkpt>
      <trkpt lat="42.43255" lon="1.83187">
        <ele>1496.6</ele>
        <time>2022-09-06T15:22:50Z</time>
      </trkpt>
      <trkpt lat="42.43259" lon="1.83186">
        <ele>1496.6</ele>
        <time>2022-09-06T15:22:51Z</time>
      </trkpt>
      <trkpt lat="42.43262" lon="1.83184">
        <ele>1497.6</ele>
        <time>2022-09-06T15:22:52Z</time>
      </trkpt>
      <trkpt lat="42.43265" lon="1.83183">
        <ele>1500</ele>
        <time>2022-09-06T15:22:53Z</time>
      </trkpt>
      <trkpt lat="42.43268" lon="1.83181">
        <ele>1500</ele>
        <time>2022-09-06T15:22:54Z</time>
      </trkpt>
      <trkpt lat="42.43271" lon="1.83179">
        <ele>1500</ele>
        <time>2022-09-06T15:22:55Z</time>
      </trkpt>
      <trkpt lat="42.43275" lon="1.83177">
        <ele>1500</ele>
        <time>2022-09-06T15:22:56Z</time>
      </trkpt>
      <trkpt lat="42.43278" lon="1.83176">
        <ele>1501</ele>
        <time>2022-09-06T15:22:57Z</time>
      </trkpt>
      <trkpt lat="42.43281" lon="1.83174">
        <ele>1502</ele>
        <time>2022-09-06T15:22:58Z</time>
      </trkpt>
      <trkpt lat="42.43284" lon="1.83172">
        <ele>1502</ele>
        <time>2022-09-06T15:22:59Z</time>
      </trkpt>
      <trkpt lat="42.43288" lon="1.83171">
        <ele>1502</ele>
        <time>2022-09-06T15:23:00Z</time>
      </trkpt>
      <trkpt lat="42.43291" lon="1.83169">
        <ele>1503</ele>
        <time>2022-09-06T15:23:01Z</time>
      </trkpt>
      <trkpt lat="42.43294" lon="1.83167">
        <ele>1504.6</ele>
        <time>2022-09-06T15:23:02Z</time>
      </trkpt>
      <trkpt lat="42.43297" lon="1.83166">
        <ele>1504.6</ele>
        <time>2022-09-06T15:23:03Z</time>
      </trkpt>
      <trkpt lat="42.43301" lon="1.83164">
        <ele>1504.6</ele>
        <time>2022-09-06T15:23:04Z</time>
      </trkpt>
      <trkpt lat="42.43304" lon="1.83162">
        <ele>1504.6</ele>
        <time>2022-09-06T15:23:05Z</time>
      </trkpt>
      <trkpt lat="42.43307" lon="1.8316">
        <ele>1505.6</ele>
        <time>2022-09-06T15:23:06Z</time>
      </trkpt>
      <trkpt lat="42.4331" lon="1.83159">
        <ele>1508.4</ele>
        <time>2022-09-06T15:23:07Z</time>
      </trkpt>
      <trkpt lat="42.43313" lon="1.83157">
        <ele>1508.4</ele>
        <time>2022-09-06T15:23:08Z</time>
      </trkpt>
      <trkpt lat="42.43316" lon="1.83155">
        <ele>1508.4</ele>
        <time>2022-09-06T15:23:09Z</time>
      </trkpt>
      <trkpt lat="42.43319" lon="1.83153">
        <ele>1508.4</ele>
        <time>2022-09-06T15:23:10Z</time>
      </trkpt>
      <trkpt lat="42.43322" lon="1.83151">
        <ele>1509.8</ele>
        <time>2022-09-06T15:23:11Z</time>
      </trkpt>
      <trkpt lat="42.43325" lon="1.83149">
        <ele>1509.8</ele>
        <time>2022-09-06T15:23:12Z</time>
      </trkpt>
      <trkpt lat="42.43328" lon="1.83147">
        <ele>1509.8</ele>
        <time>2022-09-06T15:23:13Z</time>
      </trkpt>
      <trkpt lat="42.43331" lon="1.83144">
        <ele>1509.8</ele>
        <time>2022-09-06T15:23:14Z</time>
      </trkpt>
      <trkpt lat="42.43334" lon="1.83142">
        <ele>1511.6</ele>
        <time>2022-09-06T15:23:15Z</time>
      </trkpt>
      <trkpt lat="42.43337" lon="1.83141">
        <ele>1511.6</ele>
        <time>2022-09-06T15:23:16Z</time>
      </trkpt>
      <trkpt lat="42.4334" lon="1.83139">
        <ele>1511.6</ele>
        <time>2022-09-06T15:23:17Z</time>
      </trkpt>
      <trkpt lat="42.43343" lon="1.83138">
        <ele>1511.6</ele>
        <time>2022-09-06T15:23:18Z</time>
      </trkpt>
      <trkpt lat="42.43346" lon="1.83136">
        <ele>1512.6</ele>
        <time>2022-09-06T15:23:19Z</time>
      </trkpt>
      <trkpt lat="42.4335" lon="1.83135">
        <ele>1513.4</ele>
        <time>2022-09-06T15:23:20Z</time>
      </trkpt>
      <trkpt lat="42.43353" lon="1.83133">
        <ele>1513.4</ele>
        <time>2022-09-06T15:23:21Z</time>
      </trkpt>
      <trkpt lat="42.43356" lon="1.83132">
        <ele>1513.4</ele>
        <time>2022-09-06T15:23:22Z</time>
      </trkpt>
      <trkpt lat="42.43359" lon="1.83131">
        <ele>1514.4</ele>
        <time>2022-09-06T15:23:23Z</time>
      </trkpt>
      <trkpt lat="42.43362" lon="1.83129">
        <ele>1516.2</ele>
        <time>2022-09-06T15:23:24Z</time>
      </trkpt>
      <trkpt lat="42.43365" lon="1.83128">
        <ele>1516.2</ele>
        <time>2022-09-06T15:23:25Z</time>
      </trkpt>
      <trkpt lat="42.43368" lon="1.83127">
        <ele>1516.2</ele>
        <time>2022-09-06T15:23:26Z</time>
      </trkpt>
      <trkpt lat="42.43371" lon="1.83126">
        <ele>1517.2</ele>
        <time>2022-09-06T15:23:27Z</time>
      </trkpt>
      <trkpt lat="42.43375" lon="1.83124">
        <ele>1518</ele>
        <time>2022-09-06T15:23:28Z</time>
      </trkpt>
      <trkpt lat="42.43378" lon="1.83123">
        <ele>1518</ele>
        <time>2022-09-06T15:23:29Z</time>
      </trkpt>
      <trkpt lat="42.43381" lon="1.83121">
        <ele>1518</ele>
        <time>2022-09-06T15:23:30Z</time>
      </trkpt>
      <trkpt lat="42.43384" lon="1.8312">
        <ele>1519</ele>
        <time>2022-09-06T15:23:31Z</time>
      </trkpt>
      <trkpt lat="42.43387" lon="1.83118">
        <ele>1521.8</ele>
        <time>2022-09-06T15:23:32Z</time>
      </trkpt>
      <trkpt lat="42.4339" lon="1.83117">
        <ele>1521.8</ele>
        <time>2022-09-06T15:23:33Z</time>
      </trkpt>
      <trkpt lat="42.43393" lon="1.83116">
        <ele>1521.8</ele>
        <time>2022-09-06T15:23:34Z</time>
      </trkpt>
      <trkpt lat="42.43396" lon="1.83115">
        <ele>1521.8</ele>
        <time>2022-09-06T15:23:35Z</time>
      </trkpt>
      <trkpt lat="42.43399" lon="1.83113">
        <ele>1521.8</ele>
        <time>2022-09-06T15:23:36Z</time>
      </trkpt>
      <trkpt lat="42.43402" lon="1.83112">
        <ele>1523.6</ele>
        <time>2022-09-06T15:23:37Z</time>
      </trkpt>
      <trkpt lat="42.43406" lon="1.8311">
        <ele>1523.6</ele>
        <time>2022-09-06T15:23:38Z</time>
      </trkpt>
      <trkpt lat="42.43409" lon="1.83108">
        <ele>1523.6</ele>
        <time>2022-09-06T15:23:39Z</time>
      </trkpt>
      <trkpt lat="42.43412" lon="1.83106">
        <ele>1523.6</ele>
        <time>2022-09-06T15:23:40Z</time>
      </trkpt>
      <trkpt lat="42.43415" lon="1.83104">
        <ele>1526</ele>
        <time>2022-09-06T15:23:41Z</time>
      </trkpt>
      <trkpt lat="42.43418" lon="1.83103">
        <ele>1526</ele>
        <time>2022-09-06T15:23:42Z</time>
      </trkpt>
      <trkpt lat="42.43421" lon="1.83101">
        <ele>1526</ele>
        <time>2022-09-06T15:23:43Z</time>
      </trkpt>
      <trkpt lat="42.43424" lon="1.831">
        <ele>1527</ele>
        <time>2022-09-06T15:23:44Z</time>
      </trkpt>
      <trkpt lat="42.43427" lon="1.83099">
        <ele>1528.4</ele>
        <time>2022-09-06T15:23:45Z</time>
      </trkpt>
      <trkpt lat="42.4343" lon="1.83097">
        <ele>1528.4</ele>
        <time>2022-09-06T15:23:46Z</time>
      </trkpt>
      <trkpt lat="42.43433" lon="1.83095">
        <ele>1528.4</ele>
        <time>2022-09-06T15:23:47Z</time>
      </trkpt>
      <trkpt lat="42.43436" lon="1.83093">
        <ele>1528.4</ele>
        <time>2022-09-06T15:23:48Z</time>
      </trkpt>
      <trkpt lat="42.43439" lon="1.83091">
        <ele>1529.2</ele>
        <time>2022-09-06T15:23:49Z</time>
      </trkpt>
      <trkpt lat="42.43442" lon="1.83089">
        <ele>1529.2</ele>
        <time>2022-09-06T15:23:50Z</time>
      </trkpt>
      <trkpt lat="42.43445" lon="1.83088">
        <ele>1529.2</ele>
        <time>2022-09-06T15:23:51Z</time>
      </trkpt>
      <trkpt lat="42.43449" lon="1.83086">
        <ele>1529.2</ele>
        <time>2022-09-06T15:23:52Z</time>
      </trkpt>
      <trkpt lat="42.43452" lon="1.83085">
        <ele>1530.2</ele>
        <time>2022-09-06T15:23:53Z</time>
      </trkpt>
      <trkpt lat="42.43455" lon="1.83083">
        <ele>1532.6</ele>
        <time>2022-09-06T15:23:54Z</time>
      </trkpt>
      <trkpt lat="42.43458" lon="1.83082">
        <ele>1532.6</ele>
        <time>2022-09-06T15:23:55Z</time>
      </trkpt>
      <trkpt lat="42.43461" lon="1.83081">
        <ele>1532.6</ele>
        <time>2022-09-06T15:23:56Z</time>
      </trkpt>
      <trkpt lat="42.43464" lon="1.8308">
        <ele>1532.6</ele>
        <time>2022-09-06T15:23:57Z</time>
      </trkpt>
      <trkpt lat="42.43467" lon="1.8308">
        <ele>1532.8</ele>
        <time>2022-09-06T15:23:58Z</time>
      </trkpt>
      <trkpt lat="42.4347" lon="1.8308">
        <ele>1534.2</ele>
        <time>2022-09-06T15:23:59Z</time>
      </trkpt>
      <trkpt lat="42.43473" lon="1.8308">
        <ele>1534.2</ele>
        <time>2022-09-06T15:24:00Z</time>
      </trkpt>
      <trkpt lat="42.43477" lon="1.8308">
        <ele>1534.2</ele>
        <time>2022-09-06T15:24:01Z</time>
      </trkpt>
      <trkpt lat="42.4348" lon="1.8308">
        <ele>1535.2</ele>
        <time>2022-09-06T15:24:02Z</time>
      </trkpt>
      <trkpt lat="42.43484" lon="1.8308">
        <ele>1536.4</ele>
        <time>2022-09-06T15:24:03Z</time>
      </trkpt>
      <trkpt lat="42.43487" lon="1.8308">
        <ele>1536.4</ele>
        <time>2022-09-06T15:24:04Z</time>
      </trkpt>
      <trkpt lat="42.43491" lon="1.8308">
        <ele>1536.4</ele>
        <time>2022-09-06T15:24:05Z</time>
      </trkpt>
      <trkpt lat="42.43494" lon="1.8308">
        <ele>1537.4</ele>
        <time>2022-09-06T15:24:06Z</time>
      </trkpt>
      <trkpt lat="42.43497" lon="1.83081">
        <ele>1539</ele>
        <time>2022-09-06T15:24:07Z</time>
      </trkpt>
      <trkpt lat="42.435" lon="1.83082">
        <ele>1539</ele>
        <time>2022-09-06T15:24:08Z</time>
      </trkpt>
      <trkpt lat="42.43502" lon="1.83084">
        <ele>1539</ele>
        <time>2022-09-06T15:24:09Z</time>
      </trkpt>
      <trkpt lat="42.43505" lon="1.83085">
        <ele>1539</ele>
        <time>2022-09-06T15:24:10Z</time>
      </trkpt>
      <trkpt lat="42.43508" lon="1.83085">
        <ele>1539</ele>
        <time>2022-09-06T15:24:11Z</time>
      </trkpt>
      <trkpt lat="42.43511" lon="1.83086">
        <ele>1540.8</ele>
        <time>2022-09-06T15:24:12Z</time>
      </trkpt>
      <trkpt lat="42.43514" lon="1.83088">
        <ele>1540.8</ele>
        <time>2022-09-06T15:24:13Z</time>
      </trkpt>
      <trkpt lat="42.43516" lon="1.83089">
        <ele>1540.8</ele>
        <time>2022-09-06T15:24:14Z</time>
      </trkpt>
      <trkpt lat="42.43519" lon="1.8309">
        <ele>1541.6</ele>
        <time>2022-09-06T15:24:15Z</time>
      </trkpt>
      <trkpt lat="42.43522" lon="1.8309">
        <ele>1543.8</ele>
        <time>2022-09-06T15:24:16Z</time>
      </trkpt>
      <trkpt lat="42.43524" lon="1.83091">
        <ele>1543.8</ele>
        <time>2022-09-06T15:24:17Z</time>
      </trkpt>
      <trkpt lat="42.43527" lon="1.83091">
        <ele>1543.8</ele>
        <time>2022-09-06T15:24:18Z</time>
      </trkpt>
      <trkpt lat="42.4353" lon="1.83092">
        <ele>1543.8</ele>
        <time>2022-09-06T15:24:19Z</time>
      </trkpt>
      <trkpt lat="42.43533" lon="1.83092">
        <ele>1544.8</ele>
        <time>2022-09-06T15:24:20Z</time>
      </trkpt>
      <trkpt lat="42.43536" lon="1.83092">
        <ele>1544.8</ele>
        <time>2022-09-06T15:24:21Z</time>
      </trkpt>
      <trkpt lat="42.43539" lon="1.83091">
        <ele>1544.8</ele>
        <time>2022-09-06T15:24:22Z</time>
      </trkpt>
      <trkpt lat="42.43541" lon="1.8309">
        <ele>1544.8</ele>
        <time>2022-09-06T15:24:23Z</time>
      </trkpt>
      <trkpt lat="42.43544" lon="1.83089">
        <ele>1545.2</ele>
        <time>2022-09-06T15:24:24Z</time>
      </trkpt>
      <trkpt lat="42.43547" lon="1.83088">
        <ele>1546</ele>
        <time>2022-09-06T15:24:25Z</time>
      </trkpt>
      <trkpt lat="42.43551" lon="1.83087">
        <ele>1546</ele>
        <time>2022-09-06T15:24:26Z</time>
      </trkpt>
      <trkpt lat="42.43554" lon="1.83087">
        <ele>1546</ele>
        <time>2022-09-06T15:24:27Z</time>
      </trkpt>
      <trkpt lat="42.43557" lon="1.83087">
        <ele>1547</ele>
        <time>2022-09-06T15:24:28Z</time>
      </trkpt>
      <trkpt lat="42.4356" lon="1.83087">
        <ele>1548</ele>
        <time>2022-09-06T15:24:29Z</time>
      </trkpt>
      <trkpt lat="42.43563" lon="1.83088">
        <ele>1548</ele>
        <time>2022-09-06T15:24:30Z</time>
      </trkpt>
      <trkpt lat="42.43566" lon="1.83089">
        <ele>1548</ele>
        <time>2022-09-06T15:24:31Z</time>
      </trkpt>
      <trkpt lat="42.43569" lon="1.83091">
        <ele>1549</ele>
        <time>2022-09-06T15:24:32Z</time>
      </trkpt>
      <trkpt lat="42.43572" lon="1.83093">
        <ele>1550.2</ele>
        <time>2022-09-06T15:24:33Z</time>
      </trkpt>
      <trkpt lat="42.43575" lon="1.83096">
        <ele>1550.2</ele>
        <time>2022-09-06T15:24:34Z</time>
      </trkpt>
      <trkpt lat="42.43578" lon="1.83099">
        <ele>1550.2</ele>
        <time>2022-09-06T15:24:35Z</time>
      </trkpt>
      <trkpt lat="42.43581" lon="1.83101">
        <ele>1550.8</ele>
        <time>2022-09-06T15:24:36Z</time>
      </trkpt>
      <trkpt lat="42.43583" lon="1.83104">
        <ele>1551.2</ele>
        <time>2022-09-06T15:24:37Z</time>
      </trkpt>
      <trkpt lat="42.43586" lon="1.83107">
        <ele>1551.2</ele>
        <time>2022-09-06T15:24:38Z</time>
      </trkpt>
      <trkpt lat="42.43589" lon="1.83109">
        <ele>1551.2</ele>
        <time>2022-09-06T15:24:39Z</time>
      </trkpt>
      <trkpt lat="42.43592" lon="1.83111">
        <ele>1551.2</ele>
        <time>2022-09-06T15:24:40Z</time>
      </trkpt>
      <trkpt lat="42.43594" lon="1.83113">
        <ele>1551.2</ele>
        <time>2022-09-06T15:24:41Z</time>
      </trkpt>
      <trkpt lat="42.43597" lon="1.83116">
        <ele>1554.8</ele>
        <time>2022-09-06T15:24:42Z</time>
      </trkpt>
      <trkpt lat="42.43599" lon="1.83119">
        <ele>1554.8</ele>
        <time>2022-09-06T15:24:43Z</time>
      </trkpt>
      <trkpt lat="42.43602" lon="1.83122">
        <ele>1554.8</ele>
        <time>2022-09-06T15:24:44Z</time>
      </trkpt>
      <trkpt lat="42.43605" lon="1.83124">
        <ele>1554.2</ele>
        <time>2022-09-06T15:24:45Z</time>
      </trkpt>
      <trkpt lat="42.43608" lon="1.83125">
        <ele>1555.4</ele>
        <time>2022-09-06T15:24:46Z</time>
      </trkpt>
      <trkpt lat="42.43611" lon="1.83126">
        <ele>1555.4</ele>
        <time>2022-09-06T15:24:47Z</time>
      </trkpt>
      <trkpt lat="42.43614" lon="1.83128">
        <ele>1555.4</ele>
        <time>2022-09-06T15:24:48Z</time>
      </trkpt>
      <trkpt lat="42.43617" lon="1.83129">
        <ele>1556.4</ele>
        <time>2022-09-06T15:24:49Z</time>
      </trkpt>
      <trkpt lat="42.43619" lon="1.8313">
        <ele>1557.4</ele>
        <time>2022-09-06T15:24:50Z</time>
      </trkpt>
      <trkpt lat="42.43622" lon="1.83132">
        <ele>1557.4</ele>
        <time>2022-09-06T15:24:51Z</time>
      </trkpt>
      <trkpt lat="42.43625" lon="1.83132">
        <ele>1557.4</ele>
        <time>2022-09-06T15:24:52Z</time>
      </trkpt>
      <trkpt lat="42.43627" lon="1.83133">
        <ele>1558.4</ele>
        <time>2022-09-06T15:24:53Z</time>
      </trkpt>
      <trkpt lat="42.4363" lon="1.83133">
        <ele>1560</ele>
        <time>2022-09-06T15:24:54Z</time>
      </trkpt>
      <trkpt lat="42.43632" lon="1.83132">
        <ele>1560</ele>
        <time>2022-09-06T15:24:55Z</time>
      </trkpt>
      <trkpt lat="42.43634" lon="1.83132">
        <ele>1560</ele>
        <time>2022-09-06T15:24:56Z</time>
      </trkpt>
      <trkpt lat="42.43635" lon="1.8313">
        <ele>1560</ele>
        <time>2022-09-06T15:24:57Z</time>
      </trkpt>
      <trkpt lat="42.43635" lon="1.83128">
        <ele>1561</ele>
        <time>2022-09-06T15:24:58Z</time>
      </trkpt>
      <trkpt lat="42.43635" lon="1.83128">
        <ele>1544</ele>
        <time>2022-09-06T15:24:59Z</time>
      </trkpt>
      <trkpt lat="42.43635" lon="1.83128">
        <ele>1544</ele>
        <time>2022-09-06T15:25:00Z</time>
      </trkpt>
      <trkpt lat="42.43639" lon="1.83124">
        <ele>1563</ele>
        <time>2022-09-06T15:25:01Z</time>
      </trkpt>
      <trkpt lat="42.4364" lon="1.83121">
        <ele>1563.8</ele>
        <time>2022-09-06T15:28:19Z</time>
      </trkpt>
      <trkpt lat="42.43642" lon="1.83118">
        <ele>1563.8</ele>
        <time>2022-09-06T15:28:20Z</time>
      </trkpt>
      <trkpt lat="42.43642" lon="1.83113">
        <ele>1563.8</ele>
        <time>2022-09-06T15:28:21Z</time>
      </trkpt>
      <trkpt lat="42.43642" lon="1.83108">
        <ele>1563.8</ele>
        <time>2022-09-06T15:28:22Z</time>
      </trkpt>
      <trkpt lat="42.43641" lon="1.83104">
        <ele>1564.8</ele>
        <time>2022-09-06T15:28:23Z</time>
      </trkpt>
      <trkpt lat="42.43642" lon="1.831">
        <ele>1566</ele>
        <time>2022-09-06T15:28:24Z</time>
      </trkpt>
      <trkpt lat="42.43642" lon="1.83096">
        <ele>1566</ele>
        <time>2022-09-06T15:28:25Z</time>
      </trkpt>
      <trkpt lat="42.43642" lon="1.83091">
        <ele>1566</ele>
        <time>2022-09-06T15:28:26Z</time>
      </trkpt>
      <trkpt lat="42.43643" lon="1.83086">
        <ele>1566</ele>
        <time>2022-09-06T15:28:27Z</time>
      </trkpt>
      <trkpt lat="42.43643" lon="1.83081">
        <ele>1567</ele>
        <time>2022-09-06T15:28:28Z</time>
      </trkpt>
      <trkpt lat="42.43643" lon="1.83076">
        <ele>1567</ele>
        <time>2022-09-06T15:28:29Z</time>
      </trkpt>
      <trkpt lat="42.43643" lon="1.83072">
        <ele>1567</ele>
        <time>2022-09-06T15:28:30Z</time>
      </trkpt>
      <trkpt lat="42.43644" lon="1.83067">
        <ele>1567</ele>
        <time>2022-09-06T15:28:31Z</time>
      </trkpt>
      <trkpt lat="42.43644" lon="1.83062">
        <ele>1568.2</ele>
        <time>2022-09-06T15:28:32Z</time>
      </trkpt>
      <trkpt lat="42.43644" lon="1.83058">
        <ele>1568.2</ele>
        <time>2022-09-06T15:28:33Z</time>
      </trkpt>
      <trkpt lat="42.43643" lon="1.83054">
        <ele>1568.2</ele>
        <time>2022-09-06T15:28:34Z</time>
      </trkpt>
      <trkpt lat="42.43643" lon="1.83049">
        <ele>1569.2</ele>
        <time>2022-09-06T15:28:35Z</time>
      </trkpt>
      <trkpt lat="42.43643" lon="1.83045">
        <ele>1570</ele>
        <time>2022-09-06T15:28:36Z</time>
      </trkpt>
      <trkpt lat="42.43643" lon="1.83041">
        <ele>1570</ele>
        <time>2022-09-06T15:28:37Z</time>
      </trkpt>
      <trkpt lat="42.43644" lon="1.83036">
        <ele>1570</ele>
        <time>2022-09-06T15:28:38Z</time>
      </trkpt>
      <trkpt lat="42.43644" lon="1.83032">
        <ele>1570</ele>
        <time>2022-09-06T15:28:39Z</time>
      </trkpt>
      <trkpt lat="42.43645" lon="1.83027">
        <ele>1571</ele>
        <time>2022-09-06T15:28:40Z</time>
      </trkpt>
      <trkpt lat="42.43646" lon="1.83023">
        <ele>1573.2</ele>
        <time>2022-09-06T15:28:41Z</time>
      </trkpt>
      <trkpt lat="42.43647" lon="1.83019">
        <ele>1573.2</ele>
        <time>2022-09-06T15:28:42Z</time>
      </trkpt>
      <trkpt lat="42.43647" lon="1.83015">
        <ele>1573.2</ele>
        <time>2022-09-06T15:28:43Z</time>
      </trkpt>
      <trkpt lat="42.43647" lon="1.8301">
        <ele>1574</ele>
        <time>2022-09-06T15:28:44Z</time>
      </trkpt>
      <trkpt lat="42.43646" lon="1.83006">
        <ele>1574.6</ele>
        <time>2022-09-06T15:28:45Z</time>
      </trkpt>
      <trkpt lat="42.43646" lon="1.83002">
        <ele>1574.6</ele>
        <time>2022-09-06T15:28:46Z</time>
      </trkpt>
      <trkpt lat="42.43646" lon="1.82997">
        <ele>1574.6</ele>
        <time>2022-09-06T15:28:47Z</time>
      </trkpt>
      <trkpt lat="42.43645" lon="1.82993">
        <ele>1574.6</ele>
        <time>2022-09-06T15:28:48Z</time>
      </trkpt>
      <trkpt lat="42.43645" lon="1.82989">
        <ele>1575.8</ele>
        <time>2022-09-06T15:28:49Z</time>
      </trkpt>
      <trkpt lat="42.43644" lon="1.82985">
        <ele>1575.8</ele>
        <time>2022-09-06T15:28:50Z</time>
      </trkpt>
      <trkpt lat="42.43644" lon="1.82981">
        <ele>1575.8</ele>
        <time>2022-09-06T15:28:51Z</time>
      </trkpt>
      <trkpt lat="42.43645" lon="1.82977">
        <ele>1575.8</ele>
        <time>2022-09-06T15:28:52Z</time>
      </trkpt>
      <trkpt lat="42.43645" lon="1.82973">
        <ele>1576.8</ele>
        <time>2022-09-06T15:28:53Z</time>
      </trkpt>
      <trkpt lat="42.43646" lon="1.82969">
        <ele>1579</ele>
        <time>2022-09-06T15:28:54Z</time>
      </trkpt>
      <trkpt lat="42.43647" lon="1.82964">
        <ele>1579</ele>
        <time>2022-09-06T15:28:55Z</time>
      </trkpt>
      <trkpt lat="42.43648" lon="1.8296">
        <ele>1579</ele>
        <time>2022-09-06T15:28:56Z</time>
      </trkpt>
      <trkpt lat="42.43649" lon="1.82957">
        <ele>1580</ele>
        <time>2022-09-06T15:28:57Z</time>
      </trkpt>
      <trkpt lat="42.43651" lon="1.82953">
        <ele>1581.2</ele>
        <time>2022-09-06T15:28:58Z</time>
      </trkpt>
      <trkpt lat="42.43653" lon="1.82951">
        <ele>1581.2</ele>
        <time>2022-09-06T15:28:59Z</time>
      </trkpt>
      <trkpt lat="42.43656" lon="1.82948">
        <ele>1581.2</ele>
        <time>2022-09-06T15:29:00Z</time>
      </trkpt>
      <trkpt lat="42.43659" lon="1.82946">
        <ele>1581.2</ele>
        <time>2022-09-06T15:29:01Z</time>
      </trkpt>
      <trkpt lat="42.43662" lon="1.82943">
        <ele>1581.8</ele>
        <time>2022-09-06T15:29:02Z</time>
      </trkpt>
      <trkpt lat="42.43665" lon="1.8294">
        <ele>1581.8</ele>
        <time>2022-09-06T15:29:03Z</time>
      </trkpt>
      <trkpt lat="42.43668" lon="1.82938">
        <ele>1581.8</ele>
        <time>2022-09-06T15:29:04Z</time>
      </trkpt>
      <trkpt lat="42.43672" lon="1.82936">
        <ele>1581.8</ele>
        <time>2022-09-06T15:29:05Z</time>
      </trkpt>
      <trkpt lat="42.43675" lon="1.82933">
        <ele>1582.4</ele>
        <time>2022-09-06T15:29:06Z</time>
      </trkpt>
      <trkpt lat="42.43679" lon="1.82931">
        <ele>1583</ele>
        <time>2022-09-06T15:29:07Z</time>
      </trkpt>
      <trkpt lat="42.43682" lon="1.82928">
        <ele>1583</ele>
        <time>2022-09-06T15:29:08Z</time>
      </trkpt>
      <trkpt lat="42.43685" lon="1.82926">
        <ele>1583</ele>
        <time>2022-09-06T15:29:09Z</time>
      </trkpt>
      <trkpt lat="42.43687" lon="1.82925">
        <ele>1583</ele>
        <time>2022-09-06T15:29:10Z</time>
      </trkpt>
      <trkpt lat="42.43689" lon="1.82923">
        <ele>1584.6</ele>
        <time>2022-09-06T15:29:11Z</time>
      </trkpt>
      <trkpt lat="42.43691" lon="1.82921">
        <ele>1584.6</ele>
        <time>2022-09-06T15:29:12Z</time>
      </trkpt>
      <trkpt lat="42.43692" lon="1.8292">
        <ele>1584.6</ele>
        <time>2022-09-06T15:29:13Z</time>
      </trkpt>
      <trkpt lat="42.43694" lon="1.82919">
        <ele>1585.6</ele>
        <time>2022-09-06T15:29:14Z</time>
      </trkpt>
      <trkpt lat="42.43696" lon="1.82919">
        <ele>1585.8</ele>
        <time>2022-09-06T15:29:15Z</time>
      </trkpt>
      <trkpt lat="42.43698" lon="1.82918">
        <ele>1585.8</ele>
        <time>2022-09-06T15:29:16Z</time>
      </trkpt>
      <trkpt lat="42.437" lon="1.82917">
        <ele>1585.8</ele>
        <time>2022-09-06T15:29:17Z</time>
      </trkpt>
      <trkpt lat="42.43702" lon="1.82916">
        <ele>1585.8</ele>
        <time>2022-09-06T15:29:18Z</time>
      </trkpt>
      <trkpt lat="42.43704" lon="1.82914">
        <ele>1586.8</ele>
        <time>2022-09-06T15:29:19Z</time>
      </trkpt>
      <trkpt lat="42.43706" lon="1.82913">
        <ele>1587.8</ele>
        <time>2022-09-06T15:29:20Z</time>
      </trkpt>
      <trkpt lat="42.43708" lon="1.82912">
        <ele>1587.8</ele>
        <time>2022-09-06T15:29:21Z</time>
      </trkpt>
      <trkpt lat="42.4371" lon="1.82911">
        <ele>1587.8</ele>
        <time>2022-09-06T15:29:22Z</time>
      </trkpt>
      <trkpt lat="42.43712" lon="1.82909">
        <ele>1588.8</ele>
        <time>2022-09-06T15:29:23Z</time>
      </trkpt>
      <trkpt lat="42.43715" lon="1.82908">
        <ele>1589.2</ele>
        <time>2022-09-06T15:29:24Z</time>
      </trkpt>
      <trkpt lat="42.43718" lon="1.82908">
        <ele>1589.2</ele>
        <time>2022-09-06T15:29:25Z</time>
      </trkpt>
      <trkpt lat="42.43721" lon="1.82909">
        <ele>1589.2</ele>
        <time>2022-09-06T15:29:26Z</time>
      </trkpt>
      <trkpt lat="42.43723" lon="1.82912">
        <ele>1590.2</ele>
        <time>2022-09-06T15:29:27Z</time>
      </trkpt>
      <trkpt lat="42.43724" lon="1.82915">
        <ele>1589.8</ele>
        <time>2022-09-06T15:29:28Z</time>
      </trkpt>
      <trkpt lat="42.43725" lon="1.82919">
        <ele>1589.8</ele>
        <time>2022-09-06T15:29:29Z</time>
      </trkpt>
      <trkpt lat="42.43724" lon="1.82923">
        <ele>1589.8</ele>
        <time>2022-09-06T15:29:30Z</time>
      </trkpt>
      <trkpt lat="42.43724" lon="1.82927">
        <ele>1590.8</ele>
        <time>2022-09-06T15:29:31Z</time>
      </trkpt>
      <trkpt lat="42.43723" lon="1.82931">
        <ele>1591.6</ele>
        <time>2022-09-06T15:29:32Z</time>
      </trkpt>
      <trkpt lat="42.43721" lon="1.82934">
        <ele>1591.6</ele>
        <time>2022-09-06T15:29:33Z</time>
      </trkpt>
      <trkpt lat="42.4372" lon="1.82938">
        <ele>1591.6</ele>
        <time>2022-09-06T15:29:34Z</time>
      </trkpt>
      <trkpt lat="42.4372" lon="1.82942">
        <ele>1592.6</ele>
        <time>2022-09-06T15:29:35Z</time>
      </trkpt>
      <trkpt lat="42.43721" lon="1.82947">
        <ele>1592.6</ele>
        <time>2022-09-06T15:29:36Z</time>
      </trkpt>
      <trkpt lat="42.43722" lon="1.82951">
        <ele>1594.4</ele>
        <time>2022-09-06T15:29:37Z</time>
      </trkpt>
      <trkpt lat="42.43724" lon="1.82955">
        <ele>1594.4</ele>
        <time>2022-09-06T15:29:38Z</time>
      </trkpt>
      <trkpt lat="42.43726" lon="1.82959">
        <ele>1594.4</ele>
        <time>2022-09-06T15:29:39Z</time>
      </trkpt>
      <trkpt lat="42.43728" lon="1.82962">
        <ele>1594.4</ele>
        <time>2022-09-06T15:29:40Z</time>
      </trkpt>
      <trkpt lat="42.43731" lon="1.82965">
        <ele>1594</ele>
        <time>2022-09-06T15:29:41Z</time>
      </trkpt>
      <trkpt lat="42.43733" lon="1.82969">
        <ele>1594</ele>
        <time>2022-09-06T15:29:42Z</time>
      </trkpt>
      <trkpt lat="42.43736" lon="1.82972">
        <ele>1594</ele>
        <time>2022-09-06T15:29:43Z</time>
      </trkpt>
      <trkpt lat="42.43738" lon="1.82976">
        <ele>1595</ele>
        <time>2022-09-06T15:29:44Z</time>
      </trkpt>
      <trkpt lat="42.43741" lon="1.82979">
        <ele>1596.6</ele>
        <time>2022-09-06T15:29:45Z</time>
      </trkpt>
      <trkpt lat="42.43743" lon="1.82983">
        <ele>1596.6</ele>
        <time>2022-09-06T15:29:46Z</time>
      </trkpt>
      <trkpt lat="42.43745" lon="1.82988">
        <ele>1596.6</ele>
        <time>2022-09-06T15:29:47Z</time>
      </trkpt>
      <trkpt lat="42.43747" lon="1.82992">
        <ele>1596.6</ele>
        <time>2022-09-06T15:29:48Z</time>
      </trkpt>
      <trkpt lat="42.43748" lon="1.82996">
        <ele>1598</ele>
        <time>2022-09-06T15:29:49Z</time>
      </trkpt>
      <trkpt lat="42.43749" lon="1.83001">
        <ele>1598</ele>
        <time>2022-09-06T15:29:50Z</time>
      </trkpt>
      <trkpt lat="42.4375" lon="1.83005">
        <ele>1598</ele>
        <time>2022-09-06T15:29:51Z</time>
      </trkpt>
      <trkpt lat="42.43751" lon="1.8301">
        <ele>1598</ele>
        <time>2022-09-06T15:29:52Z</time>
      </trkpt>
      <trkpt lat="42.43752" lon="1.83015">
        <ele>1598</ele>
        <time>2022-09-06T15:29:53Z</time>
      </trkpt>
      <trkpt lat="42.43753" lon="1.83021">
        <ele>1598.6</ele>
        <time>2022-09-06T15:29:54Z</time>
      </trkpt>
      <trkpt lat="42.43754" lon="1.83025">
        <ele>1598.6</ele>
        <time>2022-09-06T15:29:55Z</time>
      </trkpt>
      <trkpt lat="42.43755" lon="1.8303">
        <ele>1598.6</ele>
        <time>2022-09-06T15:29:56Z</time>
      </trkpt>
      <trkpt lat="42.43757" lon="1.83035">
        <ele>1598.6</ele>
        <time>2022-09-06T15:29:57Z</time>
      </trkpt>
      <trkpt lat="42.43759" lon="1.83039">
        <ele>1599.8</ele>
        <time>2022-09-06T15:29:58Z</time>
      </trkpt>
      <trkpt lat="42.43761" lon="1.83043">
        <ele>1599.8</ele>
        <time>2022-09-06T15:29:59Z</time>
      </trkpt>
      <trkpt lat="42.43763" lon="1.83047">
        <ele>1599.8</ele>
        <time>2022-09-06T15:30:00Z</time>
      </trkpt>
      <trkpt lat="42.43765" lon="1.8305">
        <ele>1600.8</ele>
        <time>2022-09-06T15:30:01Z</time>
      </trkpt>
      <trkpt lat="42.43768" lon="1.83052">
        <ele>1600.8</ele>
        <time>2022-09-06T15:30:02Z</time>
      </trkpt>
      <trkpt lat="42.43771" lon="1.83054">
        <ele>1601.6</ele>
        <time>2022-09-06T15:30:03Z</time>
      </trkpt>
      <trkpt lat="42.43773" lon="1.83057">
        <ele>1601.6</ele>
        <time>2022-09-06T15:30:04Z</time>
      </trkpt>
      <trkpt lat="42.43776" lon="1.83059">
        <ele>1601.6</ele>
        <time>2022-09-06T15:30:05Z</time>
      </trkpt>
      <trkpt lat="42.43778" lon="1.83062">
        <ele>1602.6</ele>
        <time>2022-09-06T15:30:06Z</time>
      </trkpt>
      <trkpt lat="42.4378" lon="1.83065">
        <ele>1604.4</ele>
        <time>2022-09-06T15:30:07Z</time>
      </trkpt>
      <trkpt lat="42.43781" lon="1.83067">
        <ele>1604.4</ele>
        <time>2022-09-06T15:30:08Z</time>
      </trkpt>
      <trkpt lat="42.43783" lon="1.8307">
        <ele>1604.4</ele>
        <time>2022-09-06T15:30:09Z</time>
      </trkpt>
      <trkpt lat="42.43785" lon="1.83073">
        <ele>1605.4</ele>
        <time>2022-09-06T15:30:10Z</time>
      </trkpt>
      <trkpt lat="42.43786" lon="1.83077">
        <ele>1607.6</ele>
        <time>2022-09-06T15:30:11Z</time>
      </trkpt>
      <trkpt lat="42.43787" lon="1.83081">
        <ele>1607.6</ele>
        <time>2022-09-06T15:30:12Z</time>
      </trkpt>
      <trkpt lat="42.43789" lon="1.83085">
        <ele>1607.6</ele>
        <time>2022-09-06T15:30:13Z</time>
      </trkpt>
      <trkpt lat="42.4379" lon="1.8309">
        <ele>1607.6</ele>
        <time>2022-09-06T15:30:14Z</time>
      </trkpt>
      <trkpt lat="42.43792" lon="1.83094">
        <ele>1609.2</ele>
        <time>2022-09-06T15:30:15Z</time>
      </trkpt>
      <trkpt lat="42.43794" lon="1.83098">
        <ele>1609.2</ele>
        <time>2022-09-06T15:30:16Z</time>
      </trkpt>
      <trkpt lat="42.43796" lon="1.83101">
        <ele>1609.2</ele>
        <time>2022-09-06T15:30:17Z</time>
      </trkpt>
      <trkpt lat="42.43798" lon="1.83104">
        <ele>1609.2</ele>
        <time>2022-09-06T15:30:18Z</time>
      </trkpt>
      <trkpt lat="42.438" lon="1.83106">
        <ele>1612.4</ele>
        <time>2022-09-06T15:30:19Z</time>
      </trkpt>
      <trkpt lat="42.43802" lon="1.83109">
        <ele>1612.4</ele>
        <time>2022-09-06T15:30:20Z</time>
      </trkpt>
      <trkpt lat="42.43804" lon="1.83112">
        <ele>1612.4</ele>
        <time>2022-09-06T15:30:21Z</time>
      </trkpt>
      <trkpt lat="42.43806" lon="1.83115">
        <ele>1612.4</ele>
        <time>2022-09-06T15:30:22Z</time>
      </trkpt>
      <trkpt lat="42.43808" lon="1.83117">
        <ele>1612.4</ele>
        <time>2022-09-06T15:30:23Z</time>
      </trkpt>
      <trkpt lat="42.43809" lon="1.8312">
        <ele>1613.8</ele>
        <time>2022-09-06T15:30:24Z</time>
      </trkpt>
      <trkpt lat="42.4381" lon="1.83123">
        <ele>1613.8</ele>
        <time>2022-09-06T15:30:25Z</time>
      </trkpt>
      <trkpt lat="42.43811" lon="1.83126">
        <ele>1613.8</ele>
        <time>2022-09-06T15:30:26Z</time>
      </trkpt>
      <trkpt lat="42.43812" lon="1.8313">
        <ele>1613.8</ele>
        <time>2022-09-06T15:30:27Z</time>
      </trkpt>
      <trkpt lat="42.43814" lon="1.83133">
        <ele>1615</ele>
        <time>2022-09-06T15:30:28Z</time>
      </trkpt>
      <trkpt lat="42.43815" lon="1.83136">
        <ele>1615</ele>
        <time>2022-09-06T15:30:29Z</time>
      </trkpt>
      <trkpt lat="42.43816" lon="1.8314">
        <ele>1615</ele>
        <time>2022-09-06T15:30:30Z</time>
      </trkpt>
      <trkpt lat="42.43817" lon="1.83144">
        <ele>1616</ele>
        <time>2022-09-06T15:30:31Z</time>
      </trkpt>
      <trkpt lat="42.43819" lon="1.83148">
        <ele>1618.2</ele>
        <time>2022-09-06T15:30:32Z</time>
      </trkpt>
      <trkpt lat="42.4382" lon="1.83153">
        <ele>1618.2</ele>
        <time>2022-09-06T15:30:33Z</time>
      </trkpt>
      <trkpt lat="42.43822" lon="1.83156">
        <ele>1618.2</ele>
        <time>2022-09-06T15:30:34Z</time>
      </trkpt>
      <trkpt lat="42.43823" lon="1.8316">
        <ele>1618.2</ele>
        <time>2022-09-06T15:30:35Z</time>
      </trkpt>
      <trkpt lat="42.43823" lon="1.83164">
        <ele>1618.2</ele>
        <time>2022-09-06T15:30:36Z</time>
      </trkpt>
      <trkpt lat="42.43824" lon="1.83168">
        <ele>1621</ele>
        <time>2022-09-06T15:30:37Z</time>
      </trkpt>
      <trkpt lat="42.43825" lon="1.83172">
        <ele>1621</ele>
        <time>2022-09-06T15:30:38Z</time>
      </trkpt>
      <trkpt lat="42.43826" lon="1.83176">
        <ele>1621</ele>
        <time>2022-09-06T15:30:39Z</time>
      </trkpt>
      <trkpt lat="42.43827" lon="1.83179">
        <ele>1621</ele>
        <time>2022-09-06T15:30:40Z</time>
      </trkpt>
      <trkpt lat="42.43829" lon="1.83183">
        <ele>1622</ele>
        <time>2022-09-06T15:30:41Z</time>
      </trkpt>
      <trkpt lat="42.4383" lon="1.83187">
        <ele>1622</ele>
        <time>2022-09-06T15:30:42Z</time>
      </trkpt>
      <trkpt lat="42.43832" lon="1.83191">
        <ele>1622</ele>
        <time>2022-09-06T15:30:43Z</time>
      </trkpt>
      <trkpt lat="42.43833" lon="1.83194">
        <ele>1621.8</ele>
        <time>2022-09-06T15:30:44Z</time>
      </trkpt>
      <trkpt lat="42.43835" lon="1.83197">
        <ele>1623</ele>
        <time>2022-09-06T15:30:45Z</time>
      </trkpt>
      <trkpt lat="42.43837" lon="1.832">
        <ele>1623</ele>
        <time>2022-09-06T15:30:46Z</time>
      </trkpt>
      <trkpt lat="42.43839" lon="1.83203">
        <ele>1623</ele>
        <time>2022-09-06T15:30:47Z</time>
      </trkpt>
      <trkpt lat="42.43841" lon="1.83206">
        <ele>1623</ele>
        <time>2022-09-06T15:30:48Z</time>
      </trkpt>
      <trkpt lat="42.43844" lon="1.83209">
        <ele>1623.8</ele>
        <time>2022-09-06T15:30:49Z</time>
      </trkpt>
      <trkpt lat="42.43846" lon="1.83212">
        <ele>1621.4</ele>
        <time>2022-09-06T15:30:50Z</time>
      </trkpt>
      <trkpt lat="42.43849" lon="1.83214">
        <ele>1621.4</ele>
        <time>2022-09-06T15:30:51Z</time>
      </trkpt>
      <trkpt lat="42.43852" lon="1.83216">
        <ele>1621.4</ele>
        <time>2022-09-06T15:30:52Z</time>
      </trkpt>
      <trkpt lat="42.43855" lon="1.83218">
        <ele>1622.4</ele>
        <time>2022-09-06T15:30:53Z</time>
      </trkpt>
      <trkpt lat="42.43857" lon="1.83221">
        <ele>1625</ele>
        <time>2022-09-06T15:30:54Z</time>
      </trkpt>
      <trkpt lat="42.4386" lon="1.83224">
        <ele>1625</ele>
        <time>2022-09-06T15:30:55Z</time>
      </trkpt>
      <trkpt lat="42.43863" lon="1.83226">
        <ele>1625</ele>
        <time>2022-09-06T15:30:56Z</time>
      </trkpt>
      <trkpt lat="42.43865" lon="1.83228">
        <ele>1626</ele>
        <time>2022-09-06T15:30:57Z</time>
      </trkpt>
      <trkpt lat="42.43866" lon="1.83229">
        <ele>1626.4</ele>
        <time>2022-09-06T15:30:58Z</time>
      </trkpt>
      <trkpt lat="42.43866" lon="1.83229">
        <ele>1626.4</ele>
        <time>2022-09-06T15:30:59Z</time>
      </trkpt>
      <trkpt lat="42.43864" lon="1.8323">
        <ele>1627.4</ele>
        <time>2022-09-06T15:31:00Z</time>
      </trkpt>
      <trkpt lat="42.43867" lon="1.83232">
        <ele>1627.4</ele>
        <time>2022-09-06T15:32:39Z</time>
      </trkpt>
      <trkpt lat="42.43869" lon="1.83234">
        <ele>1627.4</ele>
        <time>2022-09-06T15:32:40Z</time>
      </trkpt>
      <trkpt lat="42.43872" lon="1.83236">
        <ele>1627.4</ele>
        <time>2022-09-06T15:32:41Z</time>
      </trkpt>
      <trkpt lat="42.43875" lon="1.83238">
        <ele>1629.2</ele>
        <time>2022-09-06T15:32:42Z</time>
      </trkpt>
      <trkpt lat="42.43877" lon="1.8324">
        <ele>1629.2</ele>
        <time>2022-09-06T15:32:43Z</time>
      </trkpt>
      <trkpt lat="42.4388" lon="1.83243">
        <ele>1629.2</ele>
        <time>2022-09-06T15:32:44Z</time>
      </trkpt>
      <trkpt lat="42.43883" lon="1.83245">
        <ele>1629.2</ele>
        <time>2022-09-06T15:32:45Z</time>
      </trkpt>
      <trkpt lat="42.43885" lon="1.83246">
        <ele>1629.2</ele>
        <time>2022-09-06T15:32:46Z</time>
      </trkpt>
      <trkpt lat="42.43887" lon="1.83247">
        <ele>1630.8</ele>
        <time>2022-09-06T15:32:47Z</time>
      </trkpt>
      <trkpt lat="42.43889" lon="1.83246">
        <ele>1630.8</ele>
        <time>2022-09-06T15:32:48Z</time>
      </trkpt>
      <trkpt lat="42.43892" lon="1.83244">
        <ele>1630.8</ele>
        <time>2022-09-06T15:32:49Z</time>
      </trkpt>
      <trkpt lat="42.43892" lon="1.83241">
        <ele>1631.8</ele>
        <time>2022-09-06T15:32:50Z</time>
      </trkpt>
      <trkpt lat="42.43891" lon="1.83236">
        <ele>1632.8</ele>
        <time>2022-09-06T15:32:51Z</time>
      </trkpt>
      <trkpt lat="42.4389" lon="1.83232">
        <ele>1632.8</ele>
        <time>2022-09-06T15:32:52Z</time>
      </trkpt>
      <trkpt lat="42.43889" lon="1.83228">
        <ele>1632.8</ele>
        <time>2022-09-06T15:32:53Z</time>
      </trkpt>
      <trkpt lat="42.43887" lon="1.83225">
        <ele>1633.8</ele>
        <time>2022-09-06T15:32:54Z</time>
      </trkpt>
      <trkpt lat="42.43887" lon="1.83221">
        <ele>1635.2</ele>
        <time>2022-09-06T15:32:55Z</time>
      </trkpt>
      <trkpt lat="42.43886" lon="1.83218">
        <ele>1635.2</ele>
        <time>2022-09-06T15:32:56Z</time>
      </trkpt>
      <trkpt lat="42.43886" lon="1.83215">
        <ele>1635.2</ele>
        <time>2022-09-06T15:32:57Z</time>
      </trkpt>
      <trkpt lat="42.43885" lon="1.83211">
        <ele>1636</ele>
        <time>2022-09-06T15:32:58Z</time>
      </trkpt>
      <trkpt lat="42.43884" lon="1.83208">
        <ele>1637.6</ele>
        <time>2022-09-06T15:32:59Z</time>
      </trkpt>
      <trkpt lat="42.43882" lon="1.83206">
        <ele>1637.6</ele>
        <time>2022-09-06T15:33:00Z</time>
      </trkpt>
      <trkpt lat="42.43881" lon="1.83203">
        <ele>1637.6</ele>
        <time>2022-09-06T15:33:01Z</time>
      </trkpt>
      <trkpt lat="42.4388" lon="1.832">
        <ele>1637.6</ele>
        <time>2022-09-06T15:33:02Z</time>
      </trkpt>
      <trkpt lat="42.4388" lon="1.83196">
        <ele>1638.6</ele>
        <time>2022-09-06T15:33:03Z</time>
      </trkpt>
      <trkpt lat="42.43879" lon="1.83193">
        <ele>1639.6</ele>
        <time>2022-09-06T15:33:04Z</time>
      </trkpt>
      <trkpt lat="42.43879" lon="1.8319">
        <ele>1639.6</ele>
        <time>2022-09-06T15:33:05Z</time>
      </trkpt>
      <trkpt lat="42.43879" lon="1.83187">
        <ele>1639.6</ele>
        <time>2022-09-06T15:33:06Z</time>
      </trkpt>
      <trkpt lat="42.43879" lon="1.83183">
        <ele>1640.6</ele>
        <time>2022-09-06T15:33:07Z</time>
      </trkpt>
      <trkpt lat="42.43879" lon="1.8318">
        <ele>1641.4</ele>
        <time>2022-09-06T15:33:08Z</time>
      </trkpt>
      <trkpt lat="42.4388" lon="1.83177">
        <ele>1641.4</ele>
        <time>2022-09-06T15:33:09Z</time>
      </trkpt>
      <trkpt lat="42.4388" lon="1.83173">
        <ele>1641.4</ele>
        <time>2022-09-06T15:33:10Z</time>
      </trkpt>
      <trkpt lat="42.4388" lon="1.8317">
        <ele>1642.4</ele>
        <time>2022-09-06T15:33:11Z</time>
      </trkpt>
      <trkpt lat="42.4388" lon="1.83167">
        <ele>1643</ele>
        <time>2022-09-06T15:33:12Z</time>
      </trkpt>
      <trkpt lat="42.43881" lon="1.83164">
        <ele>1643</ele>
        <time>2022-09-06T15:33:13Z</time>
      </trkpt>
      <trkpt lat="42.43882" lon="1.8316">
        <ele>1643</ele>
        <time>2022-09-06T15:33:14Z</time>
      </trkpt>
      <trkpt lat="42.43883" lon="1.83158">
        <ele>1643</ele>
        <time>2022-09-06T15:33:15Z</time>
      </trkpt>
      <trkpt lat="42.43884" lon="1.83155">
        <ele>1644</ele>
        <time>2022-09-06T15:33:16Z</time>
      </trkpt>
      <trkpt lat="42.43885" lon="1.83152">
        <ele>1644.6</ele>
        <time>2022-09-06T15:33:17Z</time>
      </trkpt>
      <trkpt lat="42.43886" lon="1.83149">
        <ele>1644.6</ele>
        <time>2022-09-06T15:33:18Z</time>
      </trkpt>
      <trkpt lat="42.43887" lon="1.83146">
        <ele>1644.6</ele>
        <time>2022-09-06T15:33:19Z</time>
      </trkpt>
      <trkpt lat="42.43888" lon="1.83143">
        <ele>1645.6</ele>
        <time>2022-09-06T15:33:20Z</time>
      </trkpt>
      <trkpt lat="42.43889" lon="1.8314">
        <ele>1646.6</ele>
        <time>2022-09-06T15:33:21Z</time>
      </trkpt>
      <trkpt lat="42.4389" lon="1.83137">
        <ele>1646.6</ele>
        <time>2022-09-06T15:33:22Z</time>
      </trkpt>
      <trkpt lat="42.43891" lon="1.83133">
        <ele>1646.6</ele>
        <time>2022-09-06T15:33:23Z</time>
      </trkpt>
      <trkpt lat="42.43891" lon="1.83129">
        <ele>1647.2</ele>
        <time>2022-09-06T15:33:24Z</time>
      </trkpt>
      <trkpt lat="42.43892" lon="1.83125">
        <ele>1648.8</ele>
        <time>2022-09-06T15:33:25Z</time>
      </trkpt>
      <trkpt lat="42.43892" lon="1.83121">
        <ele>1648.8</ele>
        <time>2022-09-06T15:33:26Z</time>
      </trkpt>
      <trkpt lat="42.43892" lon="1.83117">
        <ele>1648.8</ele>
        <time>2022-09-06T15:33:27Z</time>
      </trkpt>
      <trkpt lat="42.43893" lon="1.83114">
        <ele>1649.8</ele>
        <time>2022-09-06T15:33:28Z</time>
      </trkpt>
      <trkpt lat="42.43892" lon="1.83112">
        <ele>1651.4</ele>
        <time>2022-09-06T15:33:29Z</time>
      </trkpt>
      <trkpt lat="42.43892" lon="1.83111">
        <ele>1651.4</ele>
        <time>2022-09-06T15:33:30Z</time>
      </trkpt>
      <trkpt lat="42.43891" lon="1.83111">
        <ele>1651.4</ele>
        <time>2022-09-06T15:33:31Z</time>
      </trkpt>
      <trkpt lat="42.43891" lon="1.83111">
        <ele>1651.4</ele>
        <time>2022-09-06T15:33:32Z</time>
      </trkpt>
      <trkpt lat="42.43892" lon="1.83111">
        <ele>1651.4</ele>
        <time>2022-09-06T15:33:33Z</time>
      </trkpt>
      <trkpt lat="42.43893" lon="1.8311">
        <ele>1651.6</ele>
        <time>2022-09-06T15:33:55Z</time>
      </trkpt>
      <trkpt lat="42.43894" lon="1.8311">
        <ele>1651.6</ele>
        <time>2022-09-06T15:33:56Z</time>
      </trkpt>
      <trkpt lat="42.43894" lon="1.8311">
        <ele>1651.6</ele>
        <time>2022-09-06T15:33:57Z</time>
      </trkpt>
      <trkpt lat="42.43894" lon="1.8311">
        <ele>1651.6</ele>
        <time>2022-09-06T15:33:58Z</time>
      </trkpt>
      <trkpt lat="42.43898" lon="1.83106">
        <ele>1651.6</ele>
        <time>2022-09-06T15:33:59Z</time>
      </trkpt>
      <trkpt lat="42.439" lon="1.83103">
        <ele>1651.6</ele>
        <time>2022-09-06T15:34:06Z</time>
      </trkpt>
      <trkpt lat="42.43902" lon="1.831">
        <ele>1651.6</ele>
        <time>2022-09-06T15:34:07Z</time>
      </trkpt>
      <trkpt lat="42.43905" lon="1.83098">
        <ele>1651.6</ele>
        <time>2022-09-06T15:34:08Z</time>
      </trkpt>
      <trkpt lat="42.43908" lon="1.83097">
        <ele>1653.8</ele>
        <time>2022-09-06T15:34:09Z</time>
      </trkpt>
      <trkpt lat="42.43911" lon="1.83098">
        <ele>1653.8</ele>
        <time>2022-09-06T15:34:10Z</time>
      </trkpt>
      <trkpt lat="42.43914" lon="1.83099">
        <ele>1653.8</ele>
        <time>2022-09-06T15:34:11Z</time>
      </trkpt>
      <trkpt lat="42.43916" lon="1.83101">
        <ele>1654.8</ele>
        <time>2022-09-06T15:34:12Z</time>
      </trkpt>
      <trkpt lat="42.43919" lon="1.83103">
        <ele>1655.8</ele>
        <time>2022-09-06T15:34:13Z</time>
      </trkpt>
      <trkpt lat="42.4392" lon="1.83106">
        <ele>1655.8</ele>
        <time>2022-09-06T15:34:14Z</time>
      </trkpt>
      <trkpt lat="42.43922" lon="1.8311">
        <ele>1655.8</ele>
        <time>2022-09-06T15:34:15Z</time>
      </trkpt>
      <trkpt lat="42.43924" lon="1.83113">
        <ele>1655.8</ele>
        <time>2022-09-06T15:34:16Z</time>
      </trkpt>
      <trkpt lat="42.43927" lon="1.83116">
        <ele>1657.4</ele>
        <time>2022-09-06T15:34:17Z</time>
      </trkpt>
      <trkpt lat="42.43929" lon="1.83118">
        <ele>1657.4</ele>
        <time>2022-09-06T15:34:18Z</time>
      </trkpt>
      <trkpt lat="42.43931" lon="1.8312">
        <ele>1657.4</ele>
        <time>2022-09-06T15:34:19Z</time>
      </trkpt>
      <trkpt lat="42.43934" lon="1.83123">
        <ele>1657.4</ele>
        <time>2022-09-06T15:34:20Z</time>
      </trkpt>
      <trkpt lat="42.43936" lon="1.83126">
        <ele>1657.4</ele>
        <time>2022-09-06T15:34:21Z</time>
      </trkpt>
      <trkpt lat="42.43939" lon="1.83127">
        <ele>1659</ele>
        <time>2022-09-06T15:34:22Z</time>
      </trkpt>
      <trkpt lat="42.43942" lon="1.83128">
        <ele>1659</ele>
        <time>2022-09-06T15:34:23Z</time>
      </trkpt>
      <trkpt lat="42.43945" lon="1.83128">
        <ele>1659</ele>
        <time>2022-09-06T15:34:24Z</time>
      </trkpt>
      <trkpt lat="42.43948" lon="1.83128">
        <ele>1660</ele>
        <time>2022-09-06T15:34:25Z</time>
      </trkpt>
      <trkpt lat="42.43951" lon="1.83128">
        <ele>1661</ele>
        <time>2022-09-06T15:34:26Z</time>
      </trkpt>
      <trkpt lat="42.43954" lon="1.83127">
        <ele>1661</ele>
        <time>2022-09-06T15:34:27Z</time>
      </trkpt>
      <trkpt lat="42.43957" lon="1.83126">
        <ele>1661</ele>
        <time>2022-09-06T15:34:28Z</time>
      </trkpt>
      <trkpt lat="42.4396" lon="1.83126">
        <ele>1661.2</ele>
        <time>2022-09-06T15:34:29Z</time>
      </trkpt>
      <trkpt lat="42.43962" lon="1.83126">
        <ele>1660.8</ele>
        <time>2022-09-06T15:34:30Z</time>
      </trkpt>
      <trkpt lat="42.43965" lon="1.83126">
        <ele>1660.8</ele>
        <time>2022-09-06T15:34:31Z</time>
      </trkpt>
      <trkpt lat="42.43968" lon="1.83125">
        <ele>1660.8</ele>
        <time>2022-09-06T15:34:32Z</time>
      </trkpt>
      <trkpt lat="42.43971" lon="1.83124">
        <ele>1660.8</ele>
        <time>2022-09-06T15:34:33Z</time>
      </trkpt>
      <trkpt lat="42.43974" lon="1.83124">
        <ele>1661.8</ele>
        <time>2022-09-06T15:34:34Z</time>
      </trkpt>
      <trkpt lat="42.43976" lon="1.83122">
        <ele>1663.2</ele>
        <time>2022-09-06T15:34:35Z</time>
      </trkpt>
      <trkpt lat="42.43979" lon="1.83119">
        <ele>1663.2</ele>
        <time>2022-09-06T15:34:36Z</time>
      </trkpt>
      <trkpt lat="42.43981" lon="1.83116">
        <ele>1663.2</ele>
        <time>2022-09-06T15:34:37Z</time>
      </trkpt>
      <trkpt lat="42.43984" lon="1.83114">
        <ele>1664.2</ele>
        <time>2022-09-06T15:34:38Z</time>
      </trkpt>
      <trkpt lat="42.43986" lon="1.83112">
        <ele>1664.8</ele>
        <time>2022-09-06T15:34:39Z</time>
      </trkpt>
      <trkpt lat="42.43989" lon="1.83109">
        <ele>1664.8</ele>
        <time>2022-09-06T15:34:40Z</time>
      </trkpt>
      <trkpt lat="42.43992" lon="1.83107">
        <ele>1664.8</ele>
        <time>2022-09-06T15:34:41Z</time>
      </trkpt>
      <trkpt lat="42.43995" lon="1.83104">
        <ele>1665.8</ele>
        <time>2022-09-06T15:34:42Z</time>
      </trkpt>
      <trkpt lat="42.43997" lon="1.83102">
        <ele>1665.8</ele>
        <time>2022-09-06T15:34:43Z</time>
      </trkpt>
      <trkpt lat="42.43999" lon="1.83099">
        <ele>1667</ele>
        <time>2022-09-06T15:34:44Z</time>
      </trkpt>
      <trkpt lat="42.44001" lon="1.83096">
        <ele>1667</ele>
        <time>2022-09-06T15:34:45Z</time>
      </trkpt>
      <trkpt lat="42.44003" lon="1.83093">
        <ele>1667</ele>
        <time>2022-09-06T15:34:46Z</time>
      </trkpt>
      <trkpt lat="42.44004" lon="1.83089">
        <ele>1667</ele>
        <time>2022-09-06T15:34:47Z</time>
      </trkpt>
      <trkpt lat="42.44006" lon="1.83085">
        <ele>1668.2</ele>
        <time>2022-09-06T15:34:48Z</time>
      </trkpt>
      <trkpt lat="42.44007" lon="1.83081">
        <ele>1668.2</ele>
        <time>2022-09-06T15:34:49Z</time>
      </trkpt>
      <trkpt lat="42.44008" lon="1.83077">
        <ele>1668.2</ele>
        <time>2022-09-06T15:34:50Z</time>
      </trkpt>
      <trkpt lat="42.4401" lon="1.83072">
        <ele>1668.2</ele>
        <time>2022-09-06T15:34:51Z</time>
      </trkpt>
      <trkpt lat="42.44012" lon="1.83069">
        <ele>1667.6</ele>
        <time>2022-09-06T15:34:52Z</time>
      </trkpt>
      <trkpt lat="42.44015" lon="1.83065">
        <ele>1667.6</ele>
        <time>2022-09-06T15:34:53Z</time>
      </trkpt>
      <trkpt lat="42.44019" lon="1.83063">
        <ele>1667.6</ele>
        <time>2022-09-06T15:34:54Z</time>
      </trkpt>
      <trkpt lat="42.44022" lon="1.83061">
        <ele>1668.6</ele>
        <time>2022-09-06T15:34:55Z</time>
      </trkpt>
      <trkpt lat="42.44026" lon="1.83061">
        <ele>1670</ele>
        <time>2022-09-06T15:34:56Z</time>
      </trkpt>
      <trkpt lat="42.4403" lon="1.83062">
        <ele>1670</ele>
        <time>2022-09-06T15:34:57Z</time>
      </trkpt>
      <trkpt lat="42.44033" lon="1.83063">
        <ele>1670</ele>
        <time>2022-09-06T15:34:58Z</time>
      </trkpt>
      <trkpt lat="42.44037" lon="1.83065">
        <ele>1671</ele>
        <time>2022-09-06T15:34:59Z</time>
      </trkpt>
      <trkpt lat="42.44039" lon="1.83068">
        <ele>1671</ele>
        <time>2022-09-06T15:35:00Z</time>
      </trkpt>
      <trkpt lat="42.44041" lon="1.83071">
        <ele>1672.4</ele>
        <time>2022-09-06T15:35:01Z</time>
      </trkpt>
      <trkpt lat="42.44043" lon="1.83074">
        <ele>1672.4</ele>
        <time>2022-09-06T15:35:02Z</time>
      </trkpt>
      <trkpt lat="42.44045" lon="1.83078">
        <ele>1672.4</ele>
        <time>2022-09-06T15:35:03Z</time>
      </trkpt>
      <trkpt lat="42.44046" lon="1.83083">
        <ele>1673</ele>
        <time>2022-09-06T15:35:04Z</time>
      </trkpt>
      <trkpt lat="42.44046" lon="1.83088">
        <ele>1673.2</ele>
        <time>2022-09-06T15:35:05Z</time>
      </trkpt>
      <trkpt lat="42.44046" lon="1.83094">
        <ele>1673.2</ele>
        <time>2022-09-06T15:35:06Z</time>
      </trkpt>
      <trkpt lat="42.44047" lon="1.831">
        <ele>1673.2</ele>
        <time>2022-09-06T15:35:07Z</time>
      </trkpt>
      <trkpt lat="42.44049" lon="1.83106">
        <ele>1674.2</ele>
        <time>2022-09-06T15:35:08Z</time>
      </trkpt>
      <trkpt lat="42.4405" lon="1.83111">
        <ele>1674.2</ele>
        <time>2022-09-06T15:35:09Z</time>
      </trkpt>
      <trkpt lat="42.4405" lon="1.83117">
        <ele>1675.4</ele>
        <time>2022-09-06T15:35:10Z</time>
      </trkpt>
      <trkpt lat="42.4405" lon="1.83122">
        <ele>1675.4</ele>
        <time>2022-09-06T15:35:11Z</time>
      </trkpt>
      <trkpt lat="42.44051" lon="1.83127">
        <ele>1675.4</ele>
        <time>2022-09-06T15:35:12Z</time>
      </trkpt>
      <trkpt lat="42.44051" lon="1.83132">
        <ele>1676.4</ele>
        <time>2022-09-06T15:35:13Z</time>
      </trkpt>
      <trkpt lat="42.44052" lon="1.83135">
        <ele>1677.8</ele>
        <time>2022-09-06T15:35:14Z</time>
      </trkpt>
      <trkpt lat="42.44052" lon="1.83138">
        <ele>1677.8</ele>
        <time>2022-09-06T15:35:15Z</time>
      </trkpt>
      <trkpt lat="42.44053" lon="1.83139">
        <ele>1677.8</ele>
        <time>2022-09-06T15:35:16Z</time>
      </trkpt>
      <trkpt lat="42.44054" lon="1.8314">
        <ele>1677.8</ele>
        <time>2022-09-06T15:35:17Z</time>
      </trkpt>
      <trkpt lat="42.44054" lon="1.8314">
        <ele>1678.4</ele>
        <time>2022-09-06T15:35:18Z</time>
      </trkpt>
      <trkpt lat="42.44054" lon="1.8314">
        <ele>1678.4</ele>
        <time>2022-09-06T15:35:19Z</time>
      </trkpt>
      <trkpt lat="42.44058" lon="1.8315">
        <ele>1677.4</ele>
        <time>2022-09-06T15:35:20Z</time>
      </trkpt>
      <trkpt lat="42.4406" lon="1.83154">
        <ele>1679</ele>
        <time>2022-09-06T15:35:26Z</time>
      </trkpt>
      <trkpt lat="42.44063" lon="1.83159">
        <ele>1679</ele>
        <time>2022-09-06T15:35:27Z</time>
      </trkpt>
      <trkpt lat="42.44066" lon="1.83163">
        <ele>1679</ele>
        <time>2022-09-06T15:35:28Z</time>
      </trkpt>
      <trkpt lat="42.4407" lon="1.83167">
        <ele>1679</ele>
        <time>2022-09-06T15:35:29Z</time>
      </trkpt>
      <trkpt lat="42.44073" lon="1.83171">
        <ele>1680</ele>
        <time>2022-09-06T15:35:30Z</time>
      </trkpt>
      <trkpt lat="42.44076" lon="1.83174">
        <ele>1680.6</ele>
        <time>2022-09-06T15:35:31Z</time>
      </trkpt>
      <trkpt lat="42.44079" lon="1.83178">
        <ele>1680.6</ele>
        <time>2022-09-06T15:35:32Z</time>
      </trkpt>
      <trkpt lat="42.44082" lon="1.83181">
        <ele>1680.6</ele>
        <time>2022-09-06T15:35:33Z</time>
      </trkpt>
      <trkpt lat="42.44085" lon="1.83185">
        <ele>1680.6</ele>
        <time>2022-09-06T15:35:34Z</time>
      </trkpt>
      <trkpt lat="42.44088" lon="1.83189">
        <ele>1681.4</ele>
        <time>2022-09-06T15:35:35Z</time>
      </trkpt>
      <trkpt lat="42.44091" lon="1.83193">
        <ele>1681.4</ele>
        <time>2022-09-06T15:35:36Z</time>
      </trkpt>
      <trkpt lat="42.44094" lon="1.83197">
        <ele>1681.4</ele>
        <time>2022-09-06T15:35:37Z</time>
      </trkpt>
      <trkpt lat="42.44096" lon="1.83201">
        <ele>1681.4</ele>
        <time>2022-09-06T15:35:38Z</time>
      </trkpt>
      <trkpt lat="42.44099" lon="1.83204">
        <ele>1681.8</ele>
        <time>2022-09-06T15:35:39Z</time>
      </trkpt>
      <trkpt lat="42.44102" lon="1.83207">
        <ele>1681.8</ele>
        <time>2022-09-06T15:35:40Z</time>
      </trkpt>
      <trkpt lat="42.44105" lon="1.8321">
        <ele>1681.8</ele>
        <time>2022-09-06T15:35:41Z</time>
      </trkpt>
      <trkpt lat="42.44107" lon="1.83214">
        <ele>1681.8</ele>
        <time>2022-09-06T15:35:42Z</time>
      </trkpt>
      <trkpt lat="42.4411" lon="1.83218">
        <ele>1684.6</ele>
        <time>2022-09-06T15:35:43Z</time>
      </trkpt>
      <trkpt lat="42.44113" lon="1.83222">
        <ele>1684.6</ele>
        <time>2022-09-06T15:35:44Z</time>
      </trkpt>
      <trkpt lat="42.44116" lon="1.83226">
        <ele>1684.6</ele>
        <time>2022-09-06T15:35:45Z</time>
      </trkpt>
      <trkpt lat="42.44119" lon="1.83229">
        <ele>1685.6</ele>
        <time>2022-09-06T15:35:46Z</time>
      </trkpt>
      <trkpt lat="42.44123" lon="1.83231">
        <ele>1685</ele>
        <time>2022-09-06T15:35:47Z</time>
      </trkpt>
      <trkpt lat="42.44127" lon="1.83233">
        <ele>1685</ele>
        <time>2022-09-06T15:35:48Z</time>
      </trkpt>
      <trkpt lat="42.44131" lon="1.83236">
        <ele>1685</ele>
        <time>2022-09-06T15:35:49Z</time>
      </trkpt>
      <trkpt lat="42.44134" lon="1.83239">
        <ele>1685.8</ele>
        <time>2022-09-06T15:35:50Z</time>
      </trkpt>
      <trkpt lat="42.44137" lon="1.83242">
        <ele>1686.2</ele>
        <time>2022-09-06T15:35:51Z</time>
      </trkpt>
      <trkpt lat="42.4414" lon="1.83246">
        <ele>1686.2</ele>
        <time>2022-09-06T15:35:52Z</time>
      </trkpt>
      <trkpt lat="42.44143" lon="1.8325">
        <ele>1686.2</ele>
        <time>2022-09-06T15:35:53Z</time>
      </trkpt>
      <trkpt lat="42.44146" lon="1.83253">
        <ele>1686.2</ele>
        <time>2022-09-06T15:35:54Z</time>
      </trkpt>
      <trkpt lat="42.44149" lon="1.83257">
        <ele>1686.6</ele>
        <time>2022-09-06T15:35:55Z</time>
      </trkpt>
      <trkpt lat="42.44153" lon="1.8326">
        <ele>1687.8</ele>
        <time>2022-09-06T15:35:56Z</time>
      </trkpt>
      <trkpt lat="42.44156" lon="1.83263">
        <ele>1687.8</ele>
        <time>2022-09-06T15:35:57Z</time>
      </trkpt>
      <trkpt lat="42.44159" lon="1.83266">
        <ele>1687.8</ele>
        <time>2022-09-06T15:35:58Z</time>
      </trkpt>
      <trkpt lat="42.44163" lon="1.83269">
        <ele>1688.8</ele>
        <time>2022-09-06T15:35:59Z</time>
      </trkpt>
      <trkpt lat="42.44166" lon="1.83272">
        <ele>1689.6</ele>
        <time>2022-09-06T15:36:00Z</time>
      </trkpt>
      <trkpt lat="42.44169" lon="1.83275">
        <ele>1689.6</ele>
        <time>2022-09-06T15:36:01Z</time>
      </trkpt>
      <trkpt lat="42.44173" lon="1.83278">
        <ele>1689.6</ele>
        <time>2022-09-06T15:36:02Z</time>
      </trkpt>
      <trkpt lat="42.44176" lon="1.83281">
        <ele>1690.6</ele>
        <time>2022-09-06T15:36:03Z</time>
      </trkpt>
      <trkpt lat="42.4418" lon="1.83285">
        <ele>1692</ele>
        <time>2022-09-06T15:36:04Z</time>
      </trkpt>
      <trkpt lat="42.44183" lon="1.83288">
        <ele>1692</ele>
        <time>2022-09-06T15:36:05Z</time>
      </trkpt>
      <trkpt lat="42.44186" lon="1.83291">
        <ele>1692</ele>
        <time>2022-09-06T15:36:06Z</time>
      </trkpt>
      <trkpt lat="42.4419" lon="1.83294">
        <ele>1692</ele>
        <time>2022-09-06T15:36:07Z</time>
      </trkpt>
      <trkpt lat="42.44194" lon="1.83296">
        <ele>1693.8</ele>
        <time>2022-09-06T15:36:08Z</time>
      </trkpt>
      <trkpt lat="42.44198" lon="1.83299">
        <ele>1693.8</ele>
        <time>2022-09-06T15:36:09Z</time>
      </trkpt>
      <trkpt lat="42.44201" lon="1.83301">
        <ele>1693.8</ele>
        <time>2022-09-06T15:36:10Z</time>
      </trkpt>
      <trkpt lat="42.44205" lon="1.83303">
        <ele>1693.8</ele>
        <time>2022-09-06T15:36:11Z</time>
      </trkpt>
      <trkpt lat="42.44208" lon="1.83306">
        <ele>1694.2</ele>
        <time>2022-09-06T15:36:12Z</time>
      </trkpt>
      <trkpt lat="42.44212" lon="1.83309">
        <ele>1694.2</ele>
        <time>2022-09-06T15:36:13Z</time>
      </trkpt>
      <trkpt lat="42.44216" lon="1.83312">
        <ele>1694.2</ele>
        <time>2022-09-06T15:36:14Z</time>
      </trkpt>
      <trkpt lat="42.4422" lon="1.83315">
        <ele>1695.2</ele>
        <time>2022-09-06T15:36:15Z</time>
      </trkpt>
      <trkpt lat="42.44223" lon="1.83317">
        <ele>1695.4</ele>
        <time>2022-09-06T15:36:16Z</time>
      </trkpt>
      <trkpt lat="42.44227" lon="1.8332">
        <ele>1695.4</ele>
        <time>2022-09-06T15:36:17Z</time>
      </trkpt>
      <trkpt lat="42.44231" lon="1.83323">
        <ele>1695.4</ele>
        <time>2022-09-06T15:36:18Z</time>
      </trkpt>
      <trkpt lat="42.44234" lon="1.83326">
        <ele>1696.4</ele>
        <time>2022-09-06T15:36:19Z</time>
      </trkpt>
      <trkpt lat="42.44238" lon="1.83329">
        <ele>1696</ele>
        <time>2022-09-06T15:36:20Z</time>
      </trkpt>
      <trkpt lat="42.44242" lon="1.83331">
        <ele>1696</ele>
        <time>2022-09-06T15:36:21Z</time>
      </trkpt>
      <trkpt lat="42.44245" lon="1.83334">
        <ele>1696</ele>
        <time>2022-09-06T15:36:22Z</time>
      </trkpt>
      <trkpt lat="42.44249" lon="1.83336">
        <ele>1697</ele>
        <time>2022-09-06T15:36:23Z</time>
      </trkpt>
      <trkpt lat="42.44253" lon="1.83339">
        <ele>1699.2</ele>
        <time>2022-09-06T15:36:24Z</time>
      </trkpt>
      <trkpt lat="42.44257" lon="1.83341">
        <ele>1699.2</ele>
        <time>2022-09-06T15:36:25Z</time>
      </trkpt>
      <trkpt lat="42.44261" lon="1.83343">
        <ele>1699.2</ele>
        <time>2022-09-06T15:36:26Z</time>
      </trkpt>
      <trkpt lat="42.44264" lon="1.83345">
        <ele>1699.2</ele>
        <time>2022-09-06T15:36:27Z</time>
      </trkpt>
      <trkpt lat="42.44268" lon="1.83347">
        <ele>1699</ele>
        <time>2022-09-06T15:36:28Z</time>
      </trkpt>
      <trkpt lat="42.44272" lon="1.8335">
        <ele>1699</ele>
        <time>2022-09-06T15:36:29Z</time>
      </trkpt>
      <trkpt lat="42.44276" lon="1.83352">
        <ele>1699</ele>
        <time>2022-09-06T15:36:30Z</time>
      </trkpt>
      <trkpt lat="42.4428" lon="1.83354">
        <ele>1700</ele>
        <time>2022-09-06T15:36:31Z</time>
      </trkpt>
      <trkpt lat="42.44283" lon="1.83357">
        <ele>1701.4</ele>
        <time>2022-09-06T15:36:32Z</time>
      </trkpt>
      <trkpt lat="42.44287" lon="1.83359">
        <ele>1701.4</ele>
        <time>2022-09-06T15:36:33Z</time>
      </trkpt>
      <trkpt lat="42.44291" lon="1.83362">
        <ele>1701.4</ele>
        <time>2022-09-06T15:36:34Z</time>
      </trkpt>
      <trkpt lat="42.44295" lon="1.83364">
        <ele>1701.4</ele>
        <time>2022-09-06T15:36:35Z</time>
      </trkpt>
      <trkpt lat="42.44298" lon="1.83366">
        <ele>1703.2</ele>
        <time>2022-09-06T15:36:36Z</time>
      </trkpt>
      <trkpt lat="42.44302" lon="1.83368">
        <ele>1703.2</ele>
        <time>2022-09-06T15:36:37Z</time>
      </trkpt>
      <trkpt lat="42.44306" lon="1.83369">
        <ele>1703.2</ele>
        <time>2022-09-06T15:36:38Z</time>
      </trkpt>
      <trkpt lat="42.4431" lon="1.8337">
        <ele>1703.2</ele>
        <time>2022-09-06T15:36:39Z</time>
      </trkpt>
      <trkpt lat="42.44315" lon="1.8337">
        <ele>1703.2</ele>
        <time>2022-09-06T15:36:40Z</time>
      </trkpt>
      <trkpt lat="42.44319" lon="1.83371">
        <ele>1703.8</ele>
        <time>2022-09-06T15:36:41Z</time>
      </trkpt>
      <trkpt lat="42.44323" lon="1.83371">
        <ele>1703.8</ele>
        <time>2022-09-06T15:36:42Z</time>
      </trkpt>
      <trkpt lat="42.44327" lon="1.83372">
        <ele>1703.8</ele>
        <time>2022-09-06T15:36:43Z</time>
      </trkpt>
      <trkpt lat="42.44331" lon="1.83373">
        <ele>1704.8</ele>
        <time>2022-09-06T15:36:44Z</time>
      </trkpt>
      <trkpt lat="42.44335" lon="1.83374">
        <ele>1707</ele>
        <time>2022-09-06T15:36:45Z</time>
      </trkpt>
      <trkpt lat="42.44339" lon="1.83374">
        <ele>1707</ele>
        <time>2022-09-06T15:36:46Z</time>
      </trkpt>
      <trkpt lat="42.44343" lon="1.83374">
        <ele>1707</ele>
        <time>2022-09-06T15:36:47Z</time>
      </trkpt>
      <trkpt lat="42.44347" lon="1.83374">
        <ele>1707</ele>
        <time>2022-09-06T15:36:48Z</time>
      </trkpt>
      <trkpt lat="42.44351" lon="1.83373">
        <ele>1707.6</ele>
        <time>2022-09-06T15:36:49Z</time>
      </trkpt>
      <trkpt lat="42.44355" lon="1.83373">
        <ele>1707.6</ele>
        <time>2022-09-06T15:36:50Z</time>
      </trkpt>
      <trkpt lat="42.44359" lon="1.83373">
        <ele>1707.6</ele>
        <time>2022-09-06T15:36:51Z</time>
      </trkpt>
      <trkpt lat="42.44363" lon="1.83373">
        <ele>1707.6</ele>
        <time>2022-09-06T15:36:52Z</time>
      </trkpt>
      <trkpt lat="42.44368" lon="1.83372">
        <ele>1709.4</ele>
        <time>2022-09-06T15:36:53Z</time>
      </trkpt>
      <trkpt lat="42.44372" lon="1.83372">
        <ele>1709.4</ele>
        <time>2022-09-06T15:36:54Z</time>
      </trkpt>
      <trkpt lat="42.44376" lon="1.83373">
        <ele>1709.4</ele>
        <time>2022-09-06T15:36:55Z</time>
      </trkpt>
      <trkpt lat="42.44381" lon="1.83373">
        <ele>1710.4</ele>
        <time>2022-09-06T15:36:56Z</time>
      </trkpt>
      <trkpt lat="42.44385" lon="1.83373">
        <ele>1710</ele>
        <time>2022-09-06T15:36:57Z</time>
      </trkpt>
      <trkpt lat="42.44389" lon="1.83374">
        <ele>1710</ele>
        <time>2022-09-06T15:36:58Z</time>
      </trkpt>
      <trkpt lat="42.44393" lon="1.83375">
        <ele>1710</ele>
        <time>2022-09-06T15:36:59Z</time>
      </trkpt>
      <trkpt lat="42.44397" lon="1.83375">
        <ele>1711</ele>
        <time>2022-09-06T15:37:00Z</time>
      </trkpt>
      <trkpt lat="42.44401" lon="1.83376">
        <ele>1711</ele>
        <time>2022-09-06T15:37:01Z</time>
      </trkpt>
      <trkpt lat="42.44405" lon="1.83376">
        <ele>1711.2</ele>
        <time>2022-09-06T15:37:02Z</time>
      </trkpt>
      <trkpt lat="42.4441" lon="1.83376">
        <ele>1711.2</ele>
        <time>2022-09-06T15:37:03Z</time>
      </trkpt>
      <trkpt lat="42.44415" lon="1.83377">
        <ele>1711.2</ele>
        <time>2022-09-06T15:37:04Z</time>
      </trkpt>
      <trkpt lat="42.44419" lon="1.83377">
        <ele>1712.2</ele>
        <time>2022-09-06T15:37:05Z</time>
      </trkpt>
      <trkpt lat="42.44424" lon="1.83377">
        <ele>1713</ele>
        <time>2022-09-06T15:37:06Z</time>
      </trkpt>
      <trkpt lat="42.44429" lon="1.83377">
        <ele>1713</ele>
        <time>2022-09-06T15:37:07Z</time>
      </trkpt>
      <trkpt lat="42.44433" lon="1.83377">
        <ele>1713</ele>
        <time>2022-09-06T15:37:08Z</time>
      </trkpt>
      <trkpt lat="42.44437" lon="1.83377">
        <ele>1713</ele>
        <time>2022-09-06T15:37:09Z</time>
      </trkpt>
      <trkpt lat="42.44442" lon="1.83377">
        <ele>1715</ele>
        <time>2022-09-06T15:37:10Z</time>
      </trkpt>
      <trkpt lat="42.44446" lon="1.83376">
        <ele>1715</ele>
        <time>2022-09-06T15:37:11Z</time>
      </trkpt>
      <trkpt lat="42.44451" lon="1.83376">
        <ele>1715</ele>
        <time>2022-09-06T15:37:12Z</time>
      </trkpt>
      <trkpt lat="42.44455" lon="1.83376">
        <ele>1715</ele>
        <time>2022-09-06T15:37:13Z</time>
      </trkpt>
      <trkpt lat="42.44459" lon="1.83377">
        <ele>1715.6</ele>
        <time>2022-09-06T15:37:14Z</time>
      </trkpt>
      <trkpt lat="42.44463" lon="1.83377">
        <ele>1715.6</ele>
        <time>2022-09-06T15:37:15Z</time>
      </trkpt>
      <trkpt lat="42.44467" lon="1.83376">
        <ele>1715.6</ele>
        <time>2022-09-06T15:37:16Z</time>
      </trkpt>
      <trkpt lat="42.44471" lon="1.83376">
        <ele>1716.6</ele>
        <time>2022-09-06T15:37:17Z</time>
      </trkpt>
      <trkpt lat="42.44476" lon="1.83376">
        <ele>1715.4</ele>
        <time>2022-09-06T15:37:18Z</time>
      </trkpt>
      <trkpt lat="42.4448" lon="1.83376">
        <ele>1715.4</ele>
        <time>2022-09-06T15:37:19Z</time>
      </trkpt>
      <trkpt lat="42.44484" lon="1.83375">
        <ele>1715.4</ele>
        <time>2022-09-06T15:37:20Z</time>
      </trkpt>
      <trkpt lat="42.44488" lon="1.83374">
        <ele>1716.4</ele>
        <time>2022-09-06T15:37:21Z</time>
      </trkpt>
      <trkpt lat="42.44492" lon="1.83374">
        <ele>1717.8</ele>
        <time>2022-09-06T15:37:22Z</time>
      </trkpt>
      <trkpt lat="42.44496" lon="1.83373">
        <ele>1717.8</ele>
        <time>2022-09-06T15:37:23Z</time>
      </trkpt>
      <trkpt lat="42.44501" lon="1.83372">
        <ele>1717.8</ele>
        <time>2022-09-06T15:37:24Z</time>
      </trkpt>
      <trkpt lat="42.44505" lon="1.83371">
        <ele>1717.8</ele>
        <time>2022-09-06T15:37:25Z</time>
      </trkpt>
      <trkpt lat="42.44509" lon="1.83369">
        <ele>1718.8</ele>
        <time>2022-09-06T15:37:26Z</time>
      </trkpt>
      <trkpt lat="42.44513" lon="1.83368">
        <ele>1719.8</ele>
        <time>2022-09-06T15:37:27Z</time>
      </trkpt>
      <trkpt lat="42.44517" lon="1.83366">
        <ele>1719.8</ele>
        <time>2022-09-06T15:37:28Z</time>
      </trkpt>
      <trkpt lat="42.44521" lon="1.83365">
        <ele>1719.8</ele>
        <time>2022-09-06T15:37:29Z</time>
      </trkpt>
      <trkpt lat="42.44526" lon="1.83365">
        <ele>1719.8</ele>
        <time>2022-09-06T15:37:30Z</time>
      </trkpt>
      <trkpt lat="42.4453" lon="1.83365">
        <ele>1720.8</ele>
        <time>2022-09-06T15:37:31Z</time>
      </trkpt>
      <trkpt lat="42.44535" lon="1.83367">
        <ele>1720.8</ele>
        <time>2022-09-06T15:37:32Z</time>
      </trkpt>
      <trkpt lat="42.4454" lon="1.83369">
        <ele>1720.8</ele>
        <time>2022-09-06T15:37:33Z</time>
      </trkpt>
      <trkpt lat="42.44544" lon="1.83371">
        <ele>1721</ele>
        <time>2022-09-06T15:37:34Z</time>
      </trkpt>
      <trkpt lat="42.44549" lon="1.83373">
        <ele>1721.2</ele>
        <time>2022-09-06T15:37:35Z</time>
      </trkpt>
      <trkpt lat="42.44553" lon="1.83375">
        <ele>1721.2</ele>
        <time>2022-09-06T15:37:36Z</time>
      </trkpt>
      <trkpt lat="42.44558" lon="1.83376">
        <ele>1721.2</ele>
        <time>2022-09-06T15:37:37Z</time>
      </trkpt>
      <trkpt lat="42.44562" lon="1.83378">
        <ele>1722.2</ele>
        <time>2022-09-06T15:37:38Z</time>
      </trkpt>
      <trkpt lat="42.44567" lon="1.83379">
        <ele>1723.6</ele>
        <time>2022-09-06T15:37:39Z</time>
      </trkpt>
      <trkpt lat="42.44572" lon="1.8338">
        <ele>1723.6</ele>
        <time>2022-09-06T15:37:40Z</time>
      </trkpt>
      <trkpt lat="42.44576" lon="1.83382">
        <ele>1723.6</ele>
        <time>2022-09-06T15:37:41Z</time>
      </trkpt>
      <trkpt lat="42.44581" lon="1.83383">
        <ele>1724.6</ele>
        <time>2022-09-06T15:37:42Z</time>
      </trkpt>
      <trkpt lat="42.44586" lon="1.83384">
        <ele>1725.2</ele>
        <time>2022-09-06T15:37:43Z</time>
      </trkpt>
      <trkpt lat="42.4459" lon="1.83386">
        <ele>1725.2</ele>
        <time>2022-09-06T15:37:44Z</time>
      </trkpt>
      <trkpt lat="42.44594" lon="1.83387">
        <ele>1725.2</ele>
        <time>2022-09-06T15:37:45Z</time>
      </trkpt>
      <trkpt lat="42.44598" lon="1.83389">
        <ele>1725.6</ele>
        <time>2022-09-06T15:37:46Z</time>
      </trkpt>
      <trkpt lat="42.44602" lon="1.83392">
        <ele>1725.8</ele>
        <time>2022-09-06T15:37:47Z</time>
      </trkpt>
      <trkpt lat="42.44606" lon="1.83394">
        <ele>1725.8</ele>
        <time>2022-09-06T15:37:48Z</time>
      </trkpt>
      <trkpt lat="42.4461" lon="1.83396">
        <ele>1725.8</ele>
        <time>2022-09-06T15:37:49Z</time>
      </trkpt>
      <trkpt lat="42.44613" lon="1.83399">
        <ele>1726.8</ele>
        <time>2022-09-06T15:37:50Z</time>
      </trkpt>
      <trkpt lat="42.44616" lon="1.83404">
        <ele>1727.4</ele>
        <time>2022-09-06T15:37:51Z</time>
      </trkpt>
      <trkpt lat="42.44619" lon="1.83409">
        <ele>1727.4</ele>
        <time>2022-09-06T15:37:52Z</time>
      </trkpt>
      <trkpt lat="42.4462" lon="1.83414">
        <ele>1727.4</ele>
        <time>2022-09-06T15:37:53Z</time>
      </trkpt>
      <trkpt lat="42.44622" lon="1.8342">
        <ele>1727.4</ele>
        <time>2022-09-06T15:37:54Z</time>
      </trkpt>
      <trkpt lat="42.44623" lon="1.83425">
        <ele>1728.4</ele>
        <time>2022-09-06T15:37:55Z</time>
      </trkpt>
      <trkpt lat="42.44625" lon="1.83431">
        <ele>1729</ele>
        <time>2022-09-06T15:37:56Z</time>
      </trkpt>
      <trkpt lat="42.44626" lon="1.83438">
        <ele>1729</ele>
        <time>2022-09-06T15:37:57Z</time>
      </trkpt>
      <trkpt lat="42.44627" lon="1.83445">
        <ele>1729</ele>
        <time>2022-09-06T15:37:58Z</time>
      </trkpt>
      <trkpt lat="42.44627" lon="1.83452">
        <ele>1730</ele>
        <time>2022-09-06T15:37:59Z</time>
      </trkpt>
      <trkpt lat="42.44628" lon="1.83458">
        <ele>1730.4</ele>
        <time>2022-09-06T15:38:00Z</time>
      </trkpt>
      <trkpt lat="42.44629" lon="1.83464">
        <ele>1730.4</ele>
        <time>2022-09-06T15:38:01Z</time>
      </trkpt>
      <trkpt lat="42.44631" lon="1.8347">
        <ele>1730.4</ele>
        <time>2022-09-06T15:38:02Z</time>
      </trkpt>
      <trkpt lat="42.44632" lon="1.83476">
        <ele>1731.4</ele>
        <time>2022-09-06T15:38:03Z</time>
      </trkpt>
      <trkpt lat="42.44634" lon="1.83481">
        <ele>1732.2</ele>
        <time>2022-09-06T15:38:04Z</time>
      </trkpt>
      <trkpt lat="42.44636" lon="1.83487">
        <ele>1732.2</ele>
        <time>2022-09-06T15:38:05Z</time>
      </trkpt>
      <trkpt lat="42.44637" lon="1.83493">
        <ele>1732.2</ele>
        <time>2022-09-06T15:38:06Z</time>
      </trkpt>
      <trkpt lat="42.44639" lon="1.83499">
        <ele>1732.2</ele>
        <time>2022-09-06T15:38:07Z</time>
      </trkpt>
      <trkpt lat="42.4464" lon="1.83505">
        <ele>1732.4</ele>
        <time>2022-09-06T15:38:08Z</time>
      </trkpt>
      <trkpt lat="42.44641" lon="1.8351">
        <ele>1732.4</ele>
        <time>2022-09-06T15:38:09Z</time>
      </trkpt>
      <trkpt lat="42.44642" lon="1.83516">
        <ele>1732.4</ele>
        <time>2022-09-06T15:38:10Z</time>
      </trkpt>
      <trkpt lat="42.44643" lon="1.83522">
        <ele>1732.4</ele>
        <time>2022-09-06T15:38:11Z</time>
      </trkpt>
      <trkpt lat="42.44644" lon="1.83528">
        <ele>1733.4</ele>
        <time>2022-09-06T15:38:12Z</time>
      </trkpt>
      <trkpt lat="42.44645" lon="1.83534">
        <ele>1735</ele>
        <time>2022-09-06T15:38:13Z</time>
      </trkpt>
      <trkpt lat="42.44645" lon="1.8354">
        <ele>1735</ele>
        <time>2022-09-06T15:38:14Z</time>
      </trkpt>
      <trkpt lat="42.44645" lon="1.83547">
        <ele>1735</ele>
        <time>2022-09-06T15:38:15Z</time>
      </trkpt>
      <trkpt lat="42.44645" lon="1.83553">
        <ele>1735</ele>
        <time>2022-09-06T15:38:16Z</time>
      </trkpt>
      <trkpt lat="42.44645" lon="1.83559">
        <ele>1735</ele>
        <time>2022-09-06T15:38:17Z</time>
      </trkpt>
      <trkpt lat="42.44645" lon="1.83565">
        <ele>1735</ele>
        <time>2022-09-06T15:38:18Z</time>
      </trkpt>
      <trkpt lat="42.44645" lon="1.83571">
        <ele>1735</ele>
        <time>2022-09-06T15:38:19Z</time>
      </trkpt>
      <trkpt lat="42.44645" lon="1.83578">
        <ele>1735</ele>
        <time>2022-09-06T15:38:20Z</time>
      </trkpt>
      <trkpt lat="42.44645" lon="1.83584">
        <ele>1736.4</ele>
        <time>2022-09-06T15:38:21Z</time>
      </trkpt>
      <trkpt lat="42.44645" lon="1.8359">
        <ele>1736.4</ele>
        <time>2022-09-06T15:38:22Z</time>
      </trkpt>
      <trkpt lat="42.44645" lon="1.83596">
        <ele>1736.4</ele>
        <time>2022-09-06T15:38:23Z</time>
      </trkpt>
      <trkpt lat="42.44645" lon="1.83602">
        <ele>1736.4</ele>
        <time>2022-09-06T15:38:24Z</time>
      </trkpt>
      <trkpt lat="42.44644" lon="1.83608">
        <ele>1739.4</ele>
        <time>2022-09-06T15:38:25Z</time>
      </trkpt>
      <trkpt lat="42.44644" lon="1.83614">
        <ele>1739.4</ele>
        <time>2022-09-06T15:38:26Z</time>
      </trkpt>
      <trkpt lat="42.44644" lon="1.8362">
        <ele>1739.4</ele>
        <time>2022-09-06T15:38:27Z</time>
      </trkpt>
      <trkpt lat="42.44643" lon="1.83626">
        <ele>1739.4</ele>
        <time>2022-09-06T15:38:28Z</time>
      </trkpt>
      <trkpt lat="42.44643" lon="1.83631">
        <ele>1740.4</ele>
        <time>2022-09-06T15:38:29Z</time>
      </trkpt>
      <trkpt lat="42.44644" lon="1.83637">
        <ele>1740.4</ele>
        <time>2022-09-06T15:38:30Z</time>
      </trkpt>
      <trkpt lat="42.44644" lon="1.83643">
        <ele>1740.4</ele>
        <time>2022-09-06T15:38:31Z</time>
      </trkpt>
      <trkpt lat="42.44645" lon="1.83648">
        <ele>1741.4</ele>
        <time>2022-09-06T15:38:32Z</time>
      </trkpt>
      <trkpt lat="42.44645" lon="1.83654">
        <ele>1742.8</ele>
        <time>2022-09-06T15:38:33Z</time>
      </trkpt>
      <trkpt lat="42.44646" lon="1.83659">
        <ele>1742.8</ele>
        <time>2022-09-06T15:38:34Z</time>
      </trkpt>
      <trkpt lat="42.44646" lon="1.83665">
        <ele>1742.8</ele>
        <time>2022-09-06T15:38:35Z</time>
      </trkpt>
      <trkpt lat="42.44647" lon="1.83671">
        <ele>1742.8</ele>
        <time>2022-09-06T15:38:36Z</time>
      </trkpt>
      <trkpt lat="42.44648" lon="1.83677">
        <ele>1743</ele>
        <time>2022-09-06T15:38:37Z</time>
      </trkpt>
      <trkpt lat="42.44648" lon="1.83683">
        <ele>1743</ele>
        <time>2022-09-06T15:38:38Z</time>
      </trkpt>
      <trkpt lat="42.44649" lon="1.83689">
        <ele>1743</ele>
        <time>2022-09-06T15:38:39Z</time>
      </trkpt>
      <trkpt lat="42.44649" lon="1.83695">
        <ele>1743</ele>
        <time>2022-09-06T15:38:40Z</time>
      </trkpt>
      <trkpt lat="42.4465" lon="1.83701">
        <ele>1743.8</ele>
        <time>2022-09-06T15:38:41Z</time>
      </trkpt>
      <trkpt lat="42.44651" lon="1.83707">
        <ele>1745.6</ele>
        <time>2022-09-06T15:38:42Z</time>
      </trkpt>
      <trkpt lat="42.44651" lon="1.83713">
        <ele>1745.6</ele>
        <time>2022-09-06T15:38:43Z</time>
      </trkpt>
      <trkpt lat="42.44652" lon="1.83719">
        <ele>1745.6</ele>
        <time>2022-09-06T15:38:44Z</time>
      </trkpt>
      <trkpt lat="42.44653" lon="1.83725">
        <ele>1745.6</ele>
        <time>2022-09-06T15:38:45Z</time>
      </trkpt>
      <trkpt lat="42.44654" lon="1.8373">
        <ele>1746</ele>
        <time>2022-09-06T15:38:46Z</time>
      </trkpt>
      <trkpt lat="42.44655" lon="1.83735">
        <ele>1746</ele>
        <time>2022-09-06T15:38:47Z</time>
      </trkpt>
      <trkpt lat="42.44656" lon="1.83741">
        <ele>1746</ele>
        <time>2022-09-06T15:38:48Z</time>
      </trkpt>
      <trkpt lat="42.44657" lon="1.83747">
        <ele>1747</ele>
        <time>2022-09-06T15:38:49Z</time>
      </trkpt>
      <trkpt lat="42.44658" lon="1.83753">
        <ele>1747</ele>
        <time>2022-09-06T15:38:50Z</time>
      </trkpt>
      <trkpt lat="42.44658" lon="1.83759">
        <ele>1747</ele>
        <time>2022-09-06T15:38:51Z</time>
      </trkpt>
      <trkpt lat="42.44659" lon="1.83765">
        <ele>1747</ele>
        <time>2022-09-06T15:38:52Z</time>
      </trkpt>
      <trkpt lat="42.4466" lon="1.83771">
        <ele>1748</ele>
        <time>2022-09-06T15:38:53Z</time>
      </trkpt>
      <trkpt lat="42.44662" lon="1.83777">
        <ele>1748.2</ele>
        <time>2022-09-06T15:38:54Z</time>
      </trkpt>
      <trkpt lat="42.44664" lon="1.83781">
        <ele>1748.2</ele>
        <time>2022-09-06T15:38:55Z</time>
      </trkpt>
      <trkpt lat="42.44668" lon="1.83785">
        <ele>1748.2</ele>
        <time>2022-09-06T15:38:56Z</time>
      </trkpt>
      <trkpt lat="42.44673" lon="1.83788">
        <ele>1748.2</ele>
        <time>2022-09-06T15:38:57Z</time>
      </trkpt>
      <trkpt lat="42.44677" lon="1.8379">
        <ele>1748.8</ele>
        <time>2022-09-06T15:38:58Z</time>
      </trkpt>
      <trkpt lat="42.44682" lon="1.83792">
        <ele>1748.8</ele>
        <time>2022-09-06T15:38:59Z</time>
      </trkpt>
      <trkpt lat="42.44686" lon="1.83794">
        <ele>1748.8</ele>
        <time>2022-09-06T15:39:00Z</time>
      </trkpt>
      <trkpt lat="42.44691" lon="1.83797">
        <ele>1748.8</ele>
        <time>2022-09-06T15:39:01Z</time>
      </trkpt>
      <trkpt lat="42.44695" lon="1.83799">
        <ele>1749.2</ele>
        <time>2022-09-06T15:39:02Z</time>
      </trkpt>
      <trkpt lat="42.447" lon="1.83801">
        <ele>1750.2</ele>
        <time>2022-09-06T15:39:03Z</time>
      </trkpt>
      <trkpt lat="42.44704" lon="1.83801">
        <ele>1750.2</ele>
        <time>2022-09-06T15:39:04Z</time>
      </trkpt>
      <trkpt lat="42.44709" lon="1.83801">
        <ele>1750.2</ele>
        <time>2022-09-06T15:39:05Z</time>
      </trkpt>
      <trkpt lat="42.44713" lon="1.838">
        <ele>1751.2</ele>
        <time>2022-09-06T15:39:06Z</time>
      </trkpt>
      <trkpt lat="42.44717" lon="1.83799">
        <ele>1751.8</ele>
        <time>2022-09-06T15:39:07Z</time>
      </trkpt>
      <trkpt lat="42.44722" lon="1.83797">
        <ele>1751.8</ele>
        <time>2022-09-06T15:39:08Z</time>
      </trkpt>
      <trkpt lat="42.44726" lon="1.83794">
        <ele>1751.8</ele>
        <time>2022-09-06T15:39:09Z</time>
      </trkpt>
      <trkpt lat="42.4473" lon="1.83792">
        <ele>1751.8</ele>
        <time>2022-09-06T15:39:10Z</time>
      </trkpt>
      <trkpt lat="42.44735" lon="1.8379">
        <ele>1752.6</ele>
        <time>2022-09-06T15:39:11Z</time>
      </trkpt>
      <trkpt lat="42.44739" lon="1.83788">
        <ele>1752.6</ele>
        <time>2022-09-06T15:39:12Z</time>
      </trkpt>
      <trkpt lat="42.44744" lon="1.83786">
        <ele>1752.6</ele>
        <time>2022-09-06T15:39:13Z</time>
      </trkpt>
      <trkpt lat="42.44748" lon="1.83785">
        <ele>1753.6</ele>
        <time>2022-09-06T15:39:14Z</time>
      </trkpt>
      <trkpt lat="42.44753" lon="1.83785">
        <ele>1753.2</ele>
        <time>2022-09-06T15:39:15Z</time>
      </trkpt>
      <trkpt lat="42.44758" lon="1.83784">
        <ele>1753.2</ele>
        <time>2022-09-06T15:39:16Z</time>
      </trkpt>
      <trkpt lat="42.44763" lon="1.83784">
        <ele>1753.2</ele>
        <time>2022-09-06T15:39:17Z</time>
      </trkpt>
      <trkpt lat="42.44768" lon="1.83783">
        <ele>1754.2</ele>
        <time>2022-09-06T15:39:18Z</time>
      </trkpt>
      <trkpt lat="42.44772" lon="1.83783">
        <ele>1755.6</ele>
        <time>2022-09-06T15:39:19Z</time>
      </trkpt>
      <trkpt lat="42.44777" lon="1.83783">
        <ele>1755.6</ele>
        <time>2022-09-06T15:39:20Z</time>
      </trkpt>
      <trkpt lat="42.44781" lon="1.83783">
        <ele>1755.6</ele>
        <time>2022-09-06T15:39:21Z</time>
      </trkpt>
      <trkpt lat="42.44786" lon="1.83784">
        <ele>1755.6</ele>
        <time>2022-09-06T15:39:22Z</time>
      </trkpt>
      <trkpt lat="42.4479" lon="1.83784">
        <ele>1755.6</ele>
        <time>2022-09-06T15:39:23Z</time>
      </trkpt>
      <trkpt lat="42.44794" lon="1.83785">
        <ele>1756.4</ele>
        <time>2022-09-06T15:39:24Z</time>
      </trkpt>
      <trkpt lat="42.44799" lon="1.83785">
        <ele>1756.4</ele>
        <time>2022-09-06T15:39:25Z</time>
      </trkpt>
      <trkpt lat="42.44803" lon="1.83786">
        <ele>1756.4</ele>
        <time>2022-09-06T15:39:26Z</time>
      </trkpt>
      <trkpt lat="42.44807" lon="1.83787">
        <ele>1757.4</ele>
        <time>2022-09-06T15:39:27Z</time>
      </trkpt>
      <trkpt lat="42.44812" lon="1.83787">
        <ele>1758.6</ele>
        <time>2022-09-06T15:39:28Z</time>
      </trkpt>
      <trkpt lat="42.44816" lon="1.83788">
        <ele>1758.6</ele>
        <time>2022-09-06T15:39:29Z</time>
      </trkpt>
      <trkpt lat="42.4482" lon="1.83788">
        <ele>1758.6</ele>
        <time>2022-09-06T15:39:30Z</time>
      </trkpt>
      <trkpt lat="42.44824" lon="1.83789">
        <ele>1759.6</ele>
        <time>2022-09-06T15:39:31Z</time>
      </trkpt>
      <trkpt lat="42.44828" lon="1.8379">
        <ele>1760.6</ele>
        <time>2022-09-06T15:39:32Z</time>
      </trkpt>
      <trkpt lat="42.44833" lon="1.8379">
        <ele>1760.6</ele>
        <time>2022-09-06T15:39:33Z</time>
      </trkpt>
      <trkpt lat="42.44837" lon="1.83791">
        <ele>1760.6</ele>
        <time>2022-09-06T15:39:34Z</time>
      </trkpt>
      <trkpt lat="42.4484" lon="1.83792">
        <ele>1761.6</ele>
        <time>2022-09-06T15:39:35Z</time>
      </trkpt>
      <trkpt lat="42.44844" lon="1.83793">
        <ele>1762.4</ele>
        <time>2022-09-06T15:39:36Z</time>
      </trkpt>
      <trkpt lat="42.44848" lon="1.83794">
        <ele>1762.4</ele>
        <time>2022-09-06T15:39:37Z</time>
      </trkpt>
      <trkpt lat="42.44853" lon="1.83795">
        <ele>1762.4</ele>
        <time>2022-09-06T15:39:38Z</time>
      </trkpt>
      <trkpt lat="42.44857" lon="1.83795">
        <ele>1762.4</ele>
        <time>2022-09-06T15:39:39Z</time>
      </trkpt>
      <trkpt lat="42.44861" lon="1.83796">
        <ele>1762.4</ele>
        <time>2022-09-06T15:39:40Z</time>
      </trkpt>
      <trkpt lat="42.44865" lon="1.83797">
        <ele>1763.8</ele>
        <time>2022-09-06T15:39:41Z</time>
      </trkpt>
      <trkpt lat="42.44869" lon="1.83798">
        <ele>1763.8</ele>
        <time>2022-09-06T15:39:42Z</time>
      </trkpt>
      <trkpt lat="42.44873" lon="1.83799">
        <ele>1763.8</ele>
        <time>2022-09-06T15:39:43Z</time>
      </trkpt>
      <trkpt lat="42.44878" lon="1.83799">
        <ele>1764.8</ele>
        <time>2022-09-06T15:39:44Z</time>
      </trkpt>
      <trkpt lat="42.44882" lon="1.838">
        <ele>1766.6</ele>
        <time>2022-09-06T15:39:45Z</time>
      </trkpt>
      <trkpt lat="42.44886" lon="1.83801">
        <ele>1766.6</ele>
        <time>2022-09-06T15:39:46Z</time>
      </trkpt>
      <trkpt lat="42.4489" lon="1.83802">
        <ele>1766.6</ele>
        <time>2022-09-06T15:39:47Z</time>
      </trkpt>
      <trkpt lat="42.44895" lon="1.83804">
        <ele>1766.6</ele>
        <time>2022-09-06T15:39:48Z</time>
      </trkpt>
      <trkpt lat="42.44899" lon="1.83805">
        <ele>1766.8</ele>
        <time>2022-09-06T15:39:49Z</time>
      </trkpt>
      <trkpt lat="42.44903" lon="1.83807">
        <ele>1766.8</ele>
        <time>2022-09-06T15:39:50Z</time>
      </trkpt>
      <trkpt lat="42.44907" lon="1.83808">
        <ele>1766.8</ele>
        <time>2022-09-06T15:39:51Z</time>
      </trkpt>
      <trkpt lat="42.44911" lon="1.8381">
        <ele>1767.8</ele>
        <time>2022-09-06T15:39:52Z</time>
      </trkpt>
      <trkpt lat="42.44915" lon="1.83811">
        <ele>1767.8</ele>
        <time>2022-09-06T15:39:53Z</time>
      </trkpt>
      <trkpt lat="42.44919" lon="1.83813">
        <ele>1767.8</ele>
        <time>2022-09-06T15:39:54Z</time>
      </trkpt>
      <trkpt lat="42.44923" lon="1.83815">
        <ele>1767.8</ele>
        <time>2022-09-06T15:39:55Z</time>
      </trkpt>
      <trkpt lat="42.44928" lon="1.83816">
        <ele>1768.6</ele>
        <time>2022-09-06T15:39:56Z</time>
      </trkpt>
      <trkpt lat="42.44932" lon="1.83818">
        <ele>1770.4</ele>
        <time>2022-09-06T15:39:57Z</time>
      </trkpt>
      <trkpt lat="42.44936" lon="1.83819">
        <ele>1770.4</ele>
        <time>2022-09-06T15:39:58Z</time>
      </trkpt>
      <trkpt lat="42.4494" lon="1.8382">
        <ele>1770.4</ele>
        <time>2022-09-06T15:39:59Z</time>
      </trkpt>
      <trkpt lat="42.44944" lon="1.8382">
        <ele>1770.4</ele>
        <time>2022-09-06T15:40:00Z</time>
      </trkpt>
      <trkpt lat="42.44948" lon="1.83818">
        <ele>1770.4</ele>
        <time>2022-09-06T15:40:01Z</time>
      </trkpt>
      <trkpt lat="42.44951" lon="1.83814">
        <ele>1770.8</ele>
        <time>2022-09-06T15:40:02Z</time>
      </trkpt>
      <trkpt lat="42.44952" lon="1.83808">
        <ele>1770.8</ele>
        <time>2022-09-06T15:40:03Z</time>
      </trkpt>
      <trkpt lat="42.44952" lon="1.83802">
        <ele>1770.8</ele>
        <time>2022-09-06T15:40:04Z</time>
      </trkpt>
      <trkpt lat="42.44952" lon="1.83796">
        <ele>1770.8</ele>
        <time>2022-09-06T15:40:05Z</time>
      </trkpt>
      <trkpt lat="42.4495" lon="1.8379">
        <ele>1771.6</ele>
        <time>2022-09-06T15:40:06Z</time>
      </trkpt>
      <trkpt lat="42.44948" lon="1.83784">
        <ele>1771.6</ele>
        <time>2022-09-06T15:40:07Z</time>
      </trkpt>
      <trkpt lat="42.44945" lon="1.8378">
        <ele>1771.6</ele>
        <time>2022-09-06T15:40:08Z</time>
      </trkpt>
      <trkpt lat="42.44942" lon="1.83776">
        <ele>1772.6</ele>
        <time>2022-09-06T15:40:09Z</time>
      </trkpt>
      <trkpt lat="42.44938" lon="1.83772">
        <ele>1773.4</ele>
        <time>2022-09-06T15:40:10Z</time>
      </trkpt>
      <trkpt lat="42.44935" lon="1.83768">
        <ele>1773.4</ele>
        <time>2022-09-06T15:40:11Z</time>
      </trkpt>
      <trkpt lat="42.44932" lon="1.83764">
        <ele>1773.4</ele>
        <time>2022-09-06T15:40:12Z</time>
      </trkpt>
      <trkpt lat="42.44928" lon="1.8376">
        <ele>1774.4</ele>
        <time>2022-09-06T15:40:13Z</time>
      </trkpt>
      <trkpt lat="42.44925" lon="1.83756">
        <ele>1774.4</ele>
        <time>2022-09-06T15:40:14Z</time>
      </trkpt>
      <trkpt lat="42.44922" lon="1.83752">
        <ele>1774.4</ele>
        <time>2022-09-06T15:40:15Z</time>
      </trkpt>
      <trkpt lat="42.44919" lon="1.83748">
        <ele>1774.4</ele>
        <time>2022-09-06T15:40:16Z</time>
      </trkpt>
      <trkpt lat="42.44916" lon="1.83744">
        <ele>1775.4</ele>
        <time>2022-09-06T15:40:17Z</time>
      </trkpt>
      <trkpt lat="42.44913" lon="1.8374">
        <ele>1777.6</ele>
        <time>2022-09-06T15:40:18Z</time>
      </trkpt>
      <trkpt lat="42.4491" lon="1.83735">
        <ele>1777.6</ele>
        <time>2022-09-06T15:40:19Z</time>
      </trkpt>
      <trkpt lat="42.44907" lon="1.83731">
        <ele>1777.6</ele>
        <time>2022-09-06T15:40:20Z</time>
      </trkpt>
      <trkpt lat="42.44904" lon="1.83727">
        <ele>1777.2</ele>
        <time>2022-09-06T15:40:21Z</time>
      </trkpt>
      <trkpt lat="42.44901" lon="1.83722">
        <ele>1776.4</ele>
        <time>2022-09-06T15:40:22Z</time>
      </trkpt>
      <trkpt lat="42.44898" lon="1.83718">
        <ele>1776.4</ele>
        <time>2022-09-06T15:40:23Z</time>
      </trkpt>
      <trkpt lat="42.44895" lon="1.83714">
        <ele>1776.4</ele>
        <time>2022-09-06T15:40:24Z</time>
      </trkpt>
      <trkpt lat="42.44892" lon="1.83709">
        <ele>1777.4</ele>
        <time>2022-09-06T15:40:25Z</time>
      </trkpt>
      <trkpt lat="42.4489" lon="1.83705">
        <ele>1778</ele>
        <time>2022-09-06T15:40:26Z</time>
      </trkpt>
      <trkpt lat="42.44887" lon="1.83701">
        <ele>1778</ele>
        <time>2022-09-06T15:40:27Z</time>
      </trkpt>
      <trkpt lat="42.44884" lon="1.83697">
        <ele>1778</ele>
        <time>2022-09-06T15:40:28Z</time>
      </trkpt>
      <trkpt lat="42.44881" lon="1.83693">
        <ele>1778</ele>
        <time>2022-09-06T15:40:29Z</time>
      </trkpt>
      <trkpt lat="42.44878" lon="1.83689">
        <ele>1779</ele>
        <time>2022-09-06T15:40:30Z</time>
      </trkpt>
      <trkpt lat="42.44875" lon="1.83685">
        <ele>1781.4</ele>
        <time>2022-09-06T15:40:31Z</time>
      </trkpt>
      <trkpt lat="42.44872" lon="1.83681">
        <ele>1781.4</ele>
        <time>2022-09-06T15:40:32Z</time>
      </trkpt>
      <trkpt lat="42.44868" lon="1.83678">
        <ele>1781.4</ele>
        <time>2022-09-06T15:40:33Z</time>
      </trkpt>
      <trkpt lat="42.44865" lon="1.83674">
        <ele>1781.4</ele>
        <time>2022-09-06T15:40:34Z</time>
      </trkpt>
      <trkpt lat="42.44862" lon="1.8367">
        <ele>1781.8</ele>
        <time>2022-09-06T15:40:35Z</time>
      </trkpt>
      <trkpt lat="42.44859" lon="1.83666">
        <ele>1781.8</ele>
        <time>2022-09-06T15:40:36Z</time>
      </trkpt>
      <trkpt lat="42.44855" lon="1.83662">
        <ele>1781.8</ele>
        <time>2022-09-06T15:40:37Z</time>
      </trkpt>
      <trkpt lat="42.44852" lon="1.83659">
        <ele>1781.8</ele>
        <time>2022-09-06T15:40:38Z</time>
      </trkpt>
      <trkpt lat="42.44848" lon="1.83655">
        <ele>1782.4</ele>
        <time>2022-09-06T15:40:39Z</time>
      </trkpt>
      <trkpt lat="42.44845" lon="1.83652">
        <ele>1782.4</ele>
        <time>2022-09-06T15:40:40Z</time>
      </trkpt>
      <trkpt lat="42.44842" lon="1.83649">
        <ele>1782.4</ele>
        <time>2022-09-06T15:40:41Z</time>
      </trkpt>
      <trkpt lat="42.44839" lon="1.83647">
        <ele>1783.4</ele>
        <time>2022-09-06T15:40:42Z</time>
      </trkpt>
      <trkpt lat="42.44838" lon="1.83647">
        <ele>1783.8</ele>
        <time>2022-09-06T15:40:43Z</time>
      </trkpt>
      <trkpt lat="42.44838" lon="1.83647">
        <ele>1783.8</ele>
        <time>2022-09-06T15:40:44Z</time>
      </trkpt>
      <trkpt lat="42.44841" lon="1.83653">
        <ele>1784.2</ele>
        <time>2022-09-06T15:40:45Z</time>
      </trkpt>
      <trkpt lat="42.44843" lon="1.83655">
        <ele>1784.2</ele>
        <time>2022-09-06T15:41:01Z</time>
      </trkpt>
      <trkpt lat="42.44845" lon="1.83657">
        <ele>1784.2</ele>
        <time>2022-09-06T15:41:02Z</time>
      </trkpt>
      <trkpt lat="42.44846" lon="1.83659">
        <ele>1783.2</ele>
        <time>2022-09-06T15:41:03Z</time>
      </trkpt>
      <trkpt lat="42.44847" lon="1.83659">
        <ele>1783.6</ele>
        <time>2022-09-06T15:41:04Z</time>
      </trkpt>
      <trkpt lat="42.44848" lon="1.83658">
        <ele>1783.6</ele>
        <time>2022-09-06T15:41:05Z</time>
      </trkpt>
      <trkpt lat="42.44848" lon="1.83656">
        <ele>1783.6</ele>
        <time>2022-09-06T15:41:06Z</time>
      </trkpt>
      <trkpt lat="42.44847" lon="1.83655">
        <ele>1783.2</ele>
        <time>2022-09-06T15:41:07Z</time>
      </trkpt>
      <trkpt lat="42.44847" lon="1.83655">
        <ele>1783.2</ele>
        <time>2022-09-06T15:41:08Z</time>
      </trkpt>
      <trkpt lat="42.44847" lon="1.83655">
        <ele>1783.2</ele>
        <time>2022-09-06T15:41:09Z</time>
      </trkpt>
      <trkpt lat="42.44842" lon="1.83652">
        <ele>1783.4</ele>
        <time>2022-09-06T15:41:10Z</time>
      </trkpt>
      <trkpt lat="42.44841" lon="1.83651">
        <ele>1783.4</ele>
        <time>2022-09-06T15:41:18Z</time>
      </trkpt>
      <trkpt lat="42.44839" lon="1.8365">
        <ele>1783.4</ele>
        <time>2022-09-06T15:41:19Z</time>
      </trkpt>
      <trkpt lat="42.44838" lon="1.83649">
        <ele>1784.4</ele>
        <time>2022-09-06T15:41:20Z</time>
      </trkpt>
      <trkpt lat="42.44836" lon="1.83648">
        <ele>1784</ele>
        <time>2022-09-06T15:41:21Z</time>
      </trkpt>
      <trkpt lat="42.44835" lon="1.83647">
        <ele>1784</ele>
        <time>2022-09-06T15:41:22Z</time>
      </trkpt>
      <trkpt lat="42.44833" lon="1.83646">
        <ele>1784</ele>
        <time>2022-09-06T15:41:23Z</time>
      </trkpt>
      <trkpt lat="42.44833" lon="1.83646">
        <ele>1784</ele>
        <time>2022-09-06T15:41:24Z</time>
      </trkpt>
      <trkpt lat="42.44833" lon="1.83646">
        <ele>1783.6</ele>
        <time>2022-09-06T15:41:25Z</time>
      </trkpt>
      <trkpt lat="42.44833" lon="1.83646">
        <ele>1783.6</ele>
        <time>2022-09-06T15:41:26Z</time>
      </trkpt>
      <trkpt lat="42.44832" lon="1.83644">
        <ele>1784.2</ele>
        <time>2022-09-06T15:41:27Z</time>
      </trkpt>
      <trkpt lat="42.4483" lon="1.83642">
        <ele>1784.8</ele>
        <time>2022-09-06T15:41:59Z</time>
      </trkpt>
      <trkpt lat="42.44828" lon="1.8364">
        <ele>1784.8</ele>
        <time>2022-09-06T15:42:00Z</time>
      </trkpt>
      <trkpt lat="42.44825" lon="1.83639">
        <ele>1784.8</ele>
        <time>2022-09-06T15:42:01Z</time>
      </trkpt>
      <trkpt lat="42.44823" lon="1.83636">
        <ele>1784.6</ele>
        <time>2022-09-06T15:42:02Z</time>
      </trkpt>
      <trkpt lat="42.44821" lon="1.83634">
        <ele>1786</ele>
        <time>2022-09-06T15:42:03Z</time>
      </trkpt>
      <trkpt lat="42.44818" lon="1.83632">
        <ele>1786</ele>
        <time>2022-09-06T15:42:04Z</time>
      </trkpt>
      <trkpt lat="42.44816" lon="1.83631">
        <ele>1786</ele>
        <time>2022-09-06T15:42:05Z</time>
      </trkpt>
      <trkpt lat="42.44813" lon="1.8363">
        <ele>1786</ele>
        <time>2022-09-06T15:42:06Z</time>
      </trkpt>
      <trkpt lat="42.4481" lon="1.83629">
        <ele>1786</ele>
        <time>2022-09-06T15:42:07Z</time>
      </trkpt>
      <trkpt lat="42.44807" lon="1.83628">
        <ele>1786.6</ele>
        <time>2022-09-06T15:42:08Z</time>
      </trkpt>
      <trkpt lat="42.44804" lon="1.83626">
        <ele>1786.6</ele>
        <time>2022-09-06T15:42:09Z</time>
      </trkpt>
      <trkpt lat="42.44801" lon="1.83624">
        <ele>1786.6</ele>
        <time>2022-09-06T15:42:10Z</time>
      </trkpt>
      <trkpt lat="42.44798" lon="1.83622">
        <ele>1786.6</ele>
        <time>2022-09-06T15:42:11Z</time>
      </trkpt>
      <trkpt lat="42.44795" lon="1.8362">
        <ele>1786.8</ele>
        <time>2022-09-06T15:42:12Z</time>
      </trkpt>
      <trkpt lat="42.44792" lon="1.83617">
        <ele>1786.8</ele>
        <time>2022-09-06T15:42:13Z</time>
      </trkpt>
      <trkpt lat="42.44789" lon="1.83614">
        <ele>1786.8</ele>
        <time>2022-09-06T15:42:14Z</time>
      </trkpt>
      <trkpt lat="42.44788" lon="1.8361">
        <ele>1787.8</ele>
        <time>2022-09-06T15:42:15Z</time>
      </trkpt>
      <trkpt lat="42.44787" lon="1.83605">
        <ele>1790.2</ele>
        <time>2022-09-06T15:42:16Z</time>
      </trkpt>
      <trkpt lat="42.44787" lon="1.836">
        <ele>1790.2</ele>
        <time>2022-09-06T15:42:17Z</time>
      </trkpt>
      <trkpt lat="42.44789" lon="1.83596">
        <ele>1790.2</ele>
        <time>2022-09-06T15:42:18Z</time>
      </trkpt>
      <trkpt lat="42.44791" lon="1.83592">
        <ele>1790.2</ele>
        <time>2022-09-06T15:42:19Z</time>
      </trkpt>
      <trkpt lat="42.44794" lon="1.83588">
        <ele>1791</ele>
        <time>2022-09-06T15:42:20Z</time>
      </trkpt>
      <trkpt lat="42.44797" lon="1.83586">
        <ele>1791</ele>
        <time>2022-09-06T15:42:21Z</time>
      </trkpt>
      <trkpt lat="42.44801" lon="1.83584">
        <ele>1791</ele>
        <time>2022-09-06T15:42:22Z</time>
      </trkpt>
      <trkpt lat="42.44804" lon="1.83583">
        <ele>1791</ele>
        <time>2022-09-06T15:42:23Z</time>
      </trkpt>
      <trkpt lat="42.44808" lon="1.83582">
        <ele>1792.2</ele>
        <time>2022-09-06T15:42:24Z</time>
      </trkpt>
      <trkpt lat="42.44812" lon="1.83582">
        <ele>1792.2</ele>
        <time>2022-09-06T15:42:25Z</time>
      </trkpt>
      <trkpt lat="42.44817" lon="1.83582">
        <ele>1792.2</ele>
        <time>2022-09-06T15:42:26Z</time>
      </trkpt>
      <trkpt lat="42.44821" lon="1.83582">
        <ele>1792.2</ele>
        <time>2022-09-06T15:42:27Z</time>
      </trkpt>
      <trkpt lat="42.44825" lon="1.83582">
        <ele>1792.2</ele>
        <time>2022-09-06T15:42:28Z</time>
      </trkpt>
      <trkpt lat="42.4483" lon="1.83583">
        <ele>1792.2</ele>
        <time>2022-09-06T15:42:29Z</time>
      </trkpt>
      <trkpt lat="42.44834" lon="1.83584">
        <ele>1792.2</ele>
        <time>2022-09-06T15:42:30Z</time>
      </trkpt>
      <trkpt lat="42.44839" lon="1.83585">
        <ele>1792.2</ele>
        <time>2022-09-06T15:42:31Z</time>
      </trkpt>
      <trkpt lat="42.44844" lon="1.83585">
        <ele>1793.2</ele>
        <time>2022-09-06T15:42:32Z</time>
      </trkpt>
      <trkpt lat="42.44849" lon="1.83585">
        <ele>1793.6</ele>
        <time>2022-09-06T15:42:33Z</time>
      </trkpt>
      <trkpt lat="42.44853" lon="1.83585">
        <ele>1793.6</ele>
        <time>2022-09-06T15:42:34Z</time>
      </trkpt>
      <trkpt lat="42.44858" lon="1.83586">
        <ele>1793.6</ele>
        <time>2022-09-06T15:42:35Z</time>
      </trkpt>
      <trkpt lat="42.44863" lon="1.83587">
        <ele>1794</ele>
        <time>2022-09-06T15:42:36Z</time>
      </trkpt>
      <trkpt lat="42.44869" lon="1.83587">
        <ele>1795</ele>
        <time>2022-09-06T15:42:37Z</time>
      </trkpt>
      <trkpt lat="42.44874" lon="1.83587">
        <ele>1795</ele>
        <time>2022-09-06T15:42:38Z</time>
      </trkpt>
      <trkpt lat="42.44879" lon="1.83587">
        <ele>1795</ele>
        <time>2022-09-06T15:42:39Z</time>
      </trkpt>
      <trkpt lat="42.44884" lon="1.83588">
        <ele>1794.4</ele>
        <time>2022-09-06T15:42:40Z</time>
      </trkpt>
      <trkpt lat="42.44889" lon="1.83588">
        <ele>1795</ele>
        <time>2022-09-06T15:42:41Z</time>
      </trkpt>
      <trkpt lat="42.44894" lon="1.83589">
        <ele>1795</ele>
        <time>2022-09-06T15:42:42Z</time>
      </trkpt>
      <trkpt lat="42.449" lon="1.83589">
        <ele>1795</ele>
        <time>2022-09-06T15:42:43Z</time>
      </trkpt>
      <trkpt lat="42.44905" lon="1.8359">
        <ele>1795</ele>
        <time>2022-09-06T15:42:44Z</time>
      </trkpt>
      <trkpt lat="42.4491" lon="1.8359">
        <ele>1795</ele>
        <time>2022-09-06T15:42:45Z</time>
      </trkpt>
      <trkpt lat="42.44915" lon="1.83591">
        <ele>1795.8</ele>
        <time>2022-09-06T15:42:46Z</time>
      </trkpt>
      <trkpt lat="42.4492" lon="1.83592">
        <ele>1795.8</ele>
        <time>2022-09-06T15:42:47Z</time>
      </trkpt>
      <trkpt lat="42.44924" lon="1.83593">
        <ele>1795.8</ele>
        <time>2022-09-06T15:42:48Z</time>
      </trkpt>
      <trkpt lat="42.44929" lon="1.83594">
        <ele>1796.8</ele>
        <time>2022-09-06T15:42:49Z</time>
      </trkpt>
      <trkpt lat="42.44934" lon="1.83595">
        <ele>1797.6</ele>
        <time>2022-09-06T15:42:50Z</time>
      </trkpt>
      <trkpt lat="42.44939" lon="1.83597">
        <ele>1797.6</ele>
        <time>2022-09-06T15:42:51Z</time>
      </trkpt>
      <trkpt lat="42.44943" lon="1.83599">
        <ele>1797.6</ele>
        <time>2022-09-06T15:42:52Z</time>
      </trkpt>
      <trkpt lat="42.44948" lon="1.83602">
        <ele>1798.6</ele>
        <time>2022-09-06T15:42:53Z</time>
      </trkpt>
      <trkpt lat="42.44952" lon="1.83605">
        <ele>1799.8</ele>
        <time>2022-09-06T15:42:54Z</time>
      </trkpt>
      <trkpt lat="42.44957" lon="1.83607">
        <ele>1799.8</ele>
        <time>2022-09-06T15:42:55Z</time>
      </trkpt>
      <trkpt lat="42.44961" lon="1.83609">
        <ele>1799.8</ele>
        <time>2022-09-06T15:42:56Z</time>
      </trkpt>
      <trkpt lat="42.44966" lon="1.83611">
        <ele>1799.8</ele>
        <time>2022-09-06T15:42:57Z</time>
      </trkpt>
      <trkpt lat="42.44971" lon="1.83613">
        <ele>1802.2</ele>
        <time>2022-09-06T15:42:58Z</time>
      </trkpt>
      <trkpt lat="42.44975" lon="1.83616">
        <ele>1802.2</ele>
        <time>2022-09-06T15:42:59Z</time>
      </trkpt>
      <trkpt lat="42.44979" lon="1.83619">
        <ele>1802.2</ele>
        <time>2022-09-06T15:43:00Z</time>
      </trkpt>
      <trkpt lat="42.44983" lon="1.83622">
        <ele>1802</ele>
        <time>2022-09-06T15:43:01Z</time>
      </trkpt>
      <trkpt lat="42.44988" lon="1.83624">
        <ele>1801.6</ele>
        <time>2022-09-06T15:43:02Z</time>
      </trkpt>
      <trkpt lat="42.44992" lon="1.83627">
        <ele>1801.6</ele>
        <time>2022-09-06T15:43:03Z</time>
      </trkpt>
      <trkpt lat="42.44996" lon="1.8363">
        <ele>1801.6</ele>
        <time>2022-09-06T15:43:04Z</time>
      </trkpt>
      <trkpt lat="42.45001" lon="1.83632">
        <ele>1802.6</ele>
        <time>2022-09-06T15:43:05Z</time>
      </trkpt>
      <trkpt lat="42.45005" lon="1.83635">
        <ele>1802.6</ele>
        <time>2022-09-06T15:43:06Z</time>
      </trkpt>
      <trkpt lat="42.4501" lon="1.83638">
        <ele>1803.8</ele>
        <time>2022-09-06T15:43:07Z</time>
      </trkpt>
      <trkpt lat="42.45015" lon="1.83641">
        <ele>1803.8</ele>
        <time>2022-09-06T15:43:08Z</time>
      </trkpt>
      <trkpt lat="42.45019" lon="1.83644">
        <ele>1803.8</ele>
        <time>2022-09-06T15:43:09Z</time>
      </trkpt>
      <trkpt lat="42.45023" lon="1.83647">
        <ele>1804.8</ele>
        <time>2022-09-06T15:43:10Z</time>
      </trkpt>
      <trkpt lat="42.45028" lon="1.83649">
        <ele>1805.4</ele>
        <time>2022-09-06T15:43:11Z</time>
      </trkpt>
      <trkpt lat="42.45032" lon="1.83652">
        <ele>1805.4</ele>
        <time>2022-09-06T15:43:12Z</time>
      </trkpt>
      <trkpt lat="42.45036" lon="1.83655">
        <ele>1805.4</ele>
        <time>2022-09-06T15:43:13Z</time>
      </trkpt>
      <trkpt lat="42.4504" lon="1.83658">
        <ele>1806.4</ele>
        <time>2022-09-06T15:43:14Z</time>
      </trkpt>
      <trkpt lat="42.45044" lon="1.83661">
        <ele>1807.8</ele>
        <time>2022-09-06T15:43:15Z</time>
      </trkpt>
      <trkpt lat="42.45048" lon="1.83663">
        <ele>1807.8</ele>
        <time>2022-09-06T15:43:16Z</time>
      </trkpt>
      <trkpt lat="42.45052" lon="1.83666">
        <ele>1807.8</ele>
        <time>2022-09-06T15:43:17Z</time>
      </trkpt>
      <trkpt lat="42.45056" lon="1.83669">
        <ele>1807.8</ele>
        <time>2022-09-06T15:43:18Z</time>
      </trkpt>
      <trkpt lat="42.4506" lon="1.83671">
        <ele>1808.8</ele>
        <time>2022-09-06T15:43:19Z</time>
      </trkpt>
      <trkpt lat="42.45064" lon="1.83674">
        <ele>1808.8</ele>
        <time>2022-09-06T15:43:20Z</time>
      </trkpt>
      <trkpt lat="42.45068" lon="1.83676">
        <ele>1808.8</ele>
        <time>2022-09-06T15:43:21Z</time>
      </trkpt>
      <trkpt lat="42.45072" lon="1.83679">
        <ele>1808.8</ele>
        <time>2022-09-06T15:43:22Z</time>
      </trkpt>
      <trkpt lat="42.45075" lon="1.83681">
        <ele>1809.8</ele>
        <time>2022-09-06T15:43:23Z</time>
      </trkpt>
      <trkpt lat="42.45079" lon="1.83684">
        <ele>1811</ele>
        <time>2022-09-06T15:43:24Z</time>
      </trkpt>
      <trkpt lat="42.45083" lon="1.83687">
        <ele>1811</ele>
        <time>2022-09-06T15:43:25Z</time>
      </trkpt>
      <trkpt lat="42.45086" lon="1.8369">
        <ele>1811</ele>
        <time>2022-09-06T15:43:26Z</time>
      </trkpt>
      <trkpt lat="42.4509" lon="1.83692">
        <ele>1811</ele>
        <time>2022-09-06T15:43:27Z</time>
      </trkpt>
      <trkpt lat="42.45094" lon="1.83695">
        <ele>1812</ele>
        <time>2022-09-06T15:43:28Z</time>
      </trkpt>
      <trkpt lat="42.45098" lon="1.83699">
        <ele>1812</ele>
        <time>2022-09-06T15:43:29Z</time>
      </trkpt>
      <trkpt lat="42.45101" lon="1.83702">
        <ele>1812</ele>
        <time>2022-09-06T15:43:30Z</time>
      </trkpt>
      <trkpt lat="42.45105" lon="1.83705">
        <ele>1813</ele>
        <time>2022-09-06T15:43:31Z</time>
      </trkpt>
      <trkpt lat="42.45108" lon="1.83709">
        <ele>1813.2</ele>
        <time>2022-09-06T15:43:32Z</time>
      </trkpt>
      <trkpt lat="42.45112" lon="1.83712">
        <ele>1813.2</ele>
        <time>2022-09-06T15:43:33Z</time>
      </trkpt>
      <trkpt lat="42.45115" lon="1.83715">
        <ele>1813.2</ele>
        <time>2022-09-06T15:43:34Z</time>
      </trkpt>
      <trkpt lat="42.45119" lon="1.83719">
        <ele>1814.2</ele>
        <time>2022-09-06T15:43:35Z</time>
      </trkpt>
      <trkpt lat="42.45122" lon="1.83723">
        <ele>1813.8</ele>
        <time>2022-09-06T15:43:36Z</time>
      </trkpt>
      <trkpt lat="42.45125" lon="1.83726">
        <ele>1813.8</ele>
        <time>2022-09-06T15:43:37Z</time>
      </trkpt>
      <trkpt lat="42.45129" lon="1.8373">
        <ele>1813.8</ele>
        <time>2022-09-06T15:43:38Z</time>
      </trkpt>
      <trkpt lat="42.45132" lon="1.83734">
        <ele>1814.8</ele>
        <time>2022-09-06T15:43:39Z</time>
      </trkpt>
      <trkpt lat="42.45135" lon="1.83737">
        <ele>1815.6</ele>
        <time>2022-09-06T15:43:40Z</time>
      </trkpt>
      <trkpt lat="42.45138" lon="1.83741">
        <ele>1815.6</ele>
        <time>2022-09-06T15:43:41Z</time>
      </trkpt>
      <trkpt lat="42.45142" lon="1.83745">
        <ele>1815.6</ele>
        <time>2022-09-06T15:43:42Z</time>
      </trkpt>
      <trkpt lat="42.45145" lon="1.83748">
        <ele>1816</ele>
        <time>2022-09-06T15:43:43Z</time>
      </trkpt>
      <trkpt lat="42.45149" lon="1.83752">
        <ele>1816.6</ele>
        <time>2022-09-06T15:43:44Z</time>
      </trkpt>
      <trkpt lat="42.45152" lon="1.83756">
        <ele>1816.6</ele>
        <time>2022-09-06T15:43:45Z</time>
      </trkpt>
      <trkpt lat="42.45155" lon="1.83759">
        <ele>1816.6</ele>
        <time>2022-09-06T15:43:46Z</time>
      </trkpt>
      <trkpt lat="42.45159" lon="1.83763">
        <ele>1817.6</ele>
        <time>2022-09-06T15:43:47Z</time>
      </trkpt>
      <trkpt lat="42.45162" lon="1.83767">
        <ele>1817.8</ele>
        <time>2022-09-06T15:43:48Z</time>
      </trkpt>
      <trkpt lat="42.45165" lon="1.83771">
        <ele>1817.8</ele>
        <time>2022-09-06T15:43:49Z</time>
      </trkpt>
      <trkpt lat="42.45169" lon="1.83774">
        <ele>1817.8</ele>
        <time>2022-09-06T15:43:50Z</time>
      </trkpt>
      <trkpt lat="42.45172" lon="1.83778">
        <ele>1817.8</ele>
        <time>2022-09-06T15:43:51Z</time>
      </trkpt>
      <trkpt lat="42.45176" lon="1.83781">
        <ele>1818.8</ele>
        <time>2022-09-06T15:43:52Z</time>
      </trkpt>
      <trkpt lat="42.45179" lon="1.83785">
        <ele>1819.4</ele>
        <time>2022-09-06T15:43:53Z</time>
      </trkpt>
      <trkpt lat="42.45183" lon="1.83789">
        <ele>1819.4</ele>
        <time>2022-09-06T15:43:54Z</time>
      </trkpt>
      <trkpt lat="42.45186" lon="1.83792">
        <ele>1819.4</ele>
        <time>2022-09-06T15:43:55Z</time>
      </trkpt>
      <trkpt lat="42.4519" lon="1.83795">
        <ele>1820.4</ele>
        <time>2022-09-06T15:43:56Z</time>
      </trkpt>
      <trkpt lat="42.45194" lon="1.83798">
        <ele>1820.6</ele>
        <time>2022-09-06T15:43:57Z</time>
      </trkpt>
      <trkpt lat="42.45198" lon="1.83801">
        <ele>1820.6</ele>
        <time>2022-09-06T15:43:58Z</time>
      </trkpt>
      <trkpt lat="42.45202" lon="1.83802">
        <ele>1820.6</ele>
        <time>2022-09-06T15:43:59Z</time>
      </trkpt>
      <trkpt lat="42.45206" lon="1.83803">
        <ele>1821.6</ele>
        <time>2022-09-06T15:44:00Z</time>
      </trkpt>
      <trkpt lat="42.45211" lon="1.83804">
        <ele>1822.2</ele>
        <time>2022-09-06T15:44:01Z</time>
      </trkpt>
      <trkpt lat="42.45215" lon="1.83805">
        <ele>1822.2</ele>
        <time>2022-09-06T15:44:02Z</time>
      </trkpt>
      <trkpt lat="42.45219" lon="1.83805">
        <ele>1822.2</ele>
        <time>2022-09-06T15:44:03Z</time>
      </trkpt>
      <trkpt lat="42.45224" lon="1.83805">
        <ele>1823.2</ele>
        <time>2022-09-06T15:44:04Z</time>
      </trkpt>
      <trkpt lat="42.45228" lon="1.83805">
        <ele>1824.2</ele>
        <time>2022-09-06T15:44:05Z</time>
      </trkpt>
      <trkpt lat="42.45232" lon="1.83804">
        <ele>1824.2</ele>
        <time>2022-09-06T15:44:06Z</time>
      </trkpt>
      <trkpt lat="42.45237" lon="1.83803">
        <ele>1824.2</ele>
        <time>2022-09-06T15:44:07Z</time>
      </trkpt>
      <trkpt lat="42.45241" lon="1.83802">
        <ele>1825.2</ele>
        <time>2022-09-06T15:44:08Z</time>
      </trkpt>
      <trkpt lat="42.45245" lon="1.83801">
        <ele>1825.8</ele>
        <time>2022-09-06T15:44:09Z</time>
      </trkpt>
      <trkpt lat="42.45249" lon="1.838">
        <ele>1825.8</ele>
        <time>2022-09-06T15:44:10Z</time>
      </trkpt>
      <trkpt lat="42.45253" lon="1.83797">
        <ele>1825.8</ele>
        <time>2022-09-06T15:44:11Z</time>
      </trkpt>
      <trkpt lat="42.45257" lon="1.83795">
        <ele>1825.8</ele>
        <time>2022-09-06T15:44:12Z</time>
      </trkpt>
      <trkpt lat="42.45262" lon="1.83794">
        <ele>1827.6</ele>
        <time>2022-09-06T15:44:13Z</time>
      </trkpt>
      <trkpt lat="42.45266" lon="1.83792">
        <ele>1827.6</ele>
        <time>2022-09-06T15:44:14Z</time>
      </trkpt>
      <trkpt lat="42.4527" lon="1.8379">
        <ele>1827.6</ele>
        <time>2022-09-06T15:44:15Z</time>
      </trkpt>
      <trkpt lat="42.45275" lon="1.83788">
        <ele>1827.6</ele>
        <time>2022-09-06T15:44:16Z</time>
      </trkpt>
      <trkpt lat="42.45278" lon="1.83786">
        <ele>1827.6</ele>
        <time>2022-09-06T15:44:17Z</time>
      </trkpt>
      <trkpt lat="42.45283" lon="1.83784">
        <ele>1829</ele>
        <time>2022-09-06T15:44:18Z</time>
      </trkpt>
      <trkpt lat="42.45286" lon="1.83783">
        <ele>1829</ele>
        <time>2022-09-06T15:44:19Z</time>
      </trkpt>
      <trkpt lat="42.4529" lon="1.83781">
        <ele>1829</ele>
        <time>2022-09-06T15:44:20Z</time>
      </trkpt>
      <trkpt lat="42.45294" lon="1.83778">
        <ele>1829</ele>
        <time>2022-09-06T15:44:21Z</time>
      </trkpt>
      <trkpt lat="42.45298" lon="1.83776">
        <ele>1829.6</ele>
        <time>2022-09-06T15:44:22Z</time>
      </trkpt>
      <trkpt lat="42.45302" lon="1.83774">
        <ele>1829.6</ele>
        <time>2022-09-06T15:44:23Z</time>
      </trkpt>
      <trkpt lat="42.45305" lon="1.83771">
        <ele>1829.6</ele>
        <time>2022-09-06T15:44:24Z</time>
      </trkpt>
      <trkpt lat="42.45308" lon="1.83769">
        <ele>1830.6</ele>
        <time>2022-09-06T15:44:25Z</time>
      </trkpt>
      <trkpt lat="42.45312" lon="1.83766">
        <ele>1831.2</ele>
        <time>2022-09-06T15:44:26Z</time>
      </trkpt>
      <trkpt lat="42.45315" lon="1.83762">
        <ele>1831.2</ele>
        <time>2022-09-06T15:44:27Z</time>
      </trkpt>
      <trkpt lat="42.45319" lon="1.83758">
        <ele>1831.2</ele>
        <time>2022-09-06T15:44:28Z</time>
      </trkpt>
      <trkpt lat="42.45322" lon="1.83754">
        <ele>1832.2</ele>
        <time>2022-09-06T15:44:29Z</time>
      </trkpt>
      <trkpt lat="42.45325" lon="1.8375">
        <ele>1832.6</ele>
        <time>2022-09-06T15:44:30Z</time>
      </trkpt>
      <trkpt lat="42.45327" lon="1.83746">
        <ele>1832.6</ele>
        <time>2022-09-06T15:44:31Z</time>
      </trkpt>
      <trkpt lat="42.4533" lon="1.83742">
        <ele>1832.6</ele>
        <time>2022-09-06T15:44:32Z</time>
      </trkpt>
      <trkpt lat="42.45334" lon="1.83738">
        <ele>1832.6</ele>
        <time>2022-09-06T15:44:33Z</time>
      </trkpt>
      <trkpt lat="42.45337" lon="1.83737">
        <ele>1833</ele>
        <time>2022-09-06T15:44:34Z</time>
      </trkpt>
      <trkpt lat="42.45342" lon="1.83738">
        <ele>1833</ele>
        <time>2022-09-06T15:44:35Z</time>
      </trkpt>
      <trkpt lat="42.45345" lon="1.83742">
        <ele>1833</ele>
        <time>2022-09-06T15:44:36Z</time>
      </trkpt>
      <trkpt lat="42.45348" lon="1.83747">
        <ele>1833.2</ele>
        <time>2022-09-06T15:44:37Z</time>
      </trkpt>
      <trkpt lat="42.45351" lon="1.83752">
        <ele>1833.2</ele>
        <time>2022-09-06T15:44:38Z</time>
      </trkpt>
      <trkpt lat="42.45353" lon="1.83757">
        <ele>1834.4</ele>
        <time>2022-09-06T15:44:39Z</time>
      </trkpt>
      <trkpt lat="42.45354" lon="1.83763">
        <ele>1834.4</ele>
        <time>2022-09-06T15:44:40Z</time>
      </trkpt>
      <trkpt lat="42.45356" lon="1.83769">
        <ele>1834.4</ele>
        <time>2022-09-06T15:44:41Z</time>
      </trkpt>
      <trkpt lat="42.45357" lon="1.83775">
        <ele>1834.6</ele>
        <time>2022-09-06T15:44:42Z</time>
      </trkpt>
      <trkpt lat="42.45359" lon="1.83782">
        <ele>1835.4</ele>
        <time>2022-09-06T15:44:43Z</time>
      </trkpt>
      <trkpt lat="42.4536" lon="1.83788">
        <ele>1835.4</ele>
        <time>2022-09-06T15:44:44Z</time>
      </trkpt>
      <trkpt lat="42.45362" lon="1.83794">
        <ele>1835.4</ele>
        <time>2022-09-06T15:44:45Z</time>
      </trkpt>
      <trkpt lat="42.45363" lon="1.83801">
        <ele>1835.4</ele>
        <time>2022-09-06T15:44:46Z</time>
      </trkpt>
      <trkpt lat="42.45365" lon="1.83807">
        <ele>1836.2</ele>
        <time>2022-09-06T15:44:47Z</time>
      </trkpt>
      <trkpt lat="42.45366" lon="1.83813">
        <ele>1836.2</ele>
        <time>2022-09-06T15:44:48Z</time>
      </trkpt>
      <trkpt lat="42.45368" lon="1.83819">
        <ele>1836.2</ele>
        <time>2022-09-06T15:44:49Z</time>
      </trkpt>
      <trkpt lat="42.45369" lon="1.83826">
        <ele>1836.2</ele>
        <time>2022-09-06T15:44:50Z</time>
      </trkpt>
      <trkpt lat="42.4537" lon="1.83832">
        <ele>1836</ele>
        <time>2022-09-06T15:44:51Z</time>
      </trkpt>
      <trkpt lat="42.45372" lon="1.83838">
        <ele>1836</ele>
        <time>2022-09-06T15:44:52Z</time>
      </trkpt>
      <trkpt lat="42.45373" lon="1.83844">
        <ele>1836</ele>
        <time>2022-09-06T15:44:53Z</time>
      </trkpt>
      <trkpt lat="42.45374" lon="1.8385">
        <ele>1837</ele>
        <time>2022-09-06T15:44:54Z</time>
      </trkpt>
      <trkpt lat="42.45375" lon="1.83857">
        <ele>1837.6</ele>
        <time>2022-09-06T15:44:55Z</time>
      </trkpt>
      <trkpt lat="42.45376" lon="1.83863">
        <ele>1837.6</ele>
        <time>2022-09-06T15:44:56Z</time>
      </trkpt>
      <trkpt lat="42.45377" lon="1.83869">
        <ele>1837.6</ele>
        <time>2022-09-06T15:44:57Z</time>
      </trkpt>
      <trkpt lat="42.45378" lon="1.83875">
        <ele>1837.6</ele>
        <time>2022-09-06T15:44:58Z</time>
      </trkpt>
      <trkpt lat="42.45379" lon="1.83881">
        <ele>1838.6</ele>
        <time>2022-09-06T15:44:59Z</time>
      </trkpt>
      <trkpt lat="42.45379" lon="1.83888">
        <ele>1839.2</ele>
        <time>2022-09-06T15:45:00Z</time>
      </trkpt>
      <trkpt lat="42.4538" lon="1.83894">
        <ele>1839.2</ele>
        <time>2022-09-06T15:45:01Z</time>
      </trkpt>
      <trkpt lat="42.45381" lon="1.839">
        <ele>1839.2</ele>
        <time>2022-09-06T15:45:02Z</time>
      </trkpt>
      <trkpt lat="42.45381" lon="1.83906">
        <ele>1839.6</ele>
        <time>2022-09-06T15:45:03Z</time>
      </trkpt>
      <trkpt lat="42.45382" lon="1.83913">
        <ele>1840.6</ele>
        <time>2022-09-06T15:45:04Z</time>
      </trkpt>
      <trkpt lat="42.45383" lon="1.83919">
        <ele>1840.6</ele>
        <time>2022-09-06T15:45:05Z</time>
      </trkpt>
      <trkpt lat="42.45384" lon="1.83926">
        <ele>1840.6</ele>
        <time>2022-09-06T15:45:06Z</time>
      </trkpt>
      <trkpt lat="42.45385" lon="1.83932">
        <ele>1841.4</ele>
        <time>2022-09-06T15:45:07Z</time>
      </trkpt>
      <trkpt lat="42.45386" lon="1.83938">
        <ele>1842.2</ele>
        <time>2022-09-06T15:45:08Z</time>
      </trkpt>
      <trkpt lat="42.45386" lon="1.83945">
        <ele>1842.2</ele>
        <time>2022-09-06T15:45:09Z</time>
      </trkpt>
      <trkpt lat="42.45387" lon="1.83951">
        <ele>1842.2</ele>
        <time>2022-09-06T15:45:10Z</time>
      </trkpt>
      <trkpt lat="42.45388" lon="1.83958">
        <ele>1843.2</ele>
        <time>2022-09-06T15:45:11Z</time>
      </trkpt>
      <trkpt lat="42.45388" lon="1.83964">
        <ele>1843.2</ele>
        <time>2022-09-06T15:45:12Z</time>
      </trkpt>
      <trkpt lat="42.45389" lon="1.83971">
        <ele>1843.2</ele>
        <time>2022-09-06T15:45:13Z</time>
      </trkpt>
      <trkpt lat="42.4539" lon="1.83977">
        <ele>1843.2</ele>
        <time>2022-09-06T15:45:14Z</time>
      </trkpt>
      <trkpt lat="42.45391" lon="1.83983">
        <ele>1844.2</ele>
        <time>2022-09-06T15:45:15Z</time>
      </trkpt>
      <trkpt lat="42.45392" lon="1.8399">
        <ele>1845.6</ele>
        <time>2022-09-06T15:45:16Z</time>
      </trkpt>
      <trkpt lat="42.45392" lon="1.83996">
        <ele>1845.6</ele>
        <time>2022-09-06T15:45:17Z</time>
      </trkpt>
      <trkpt lat="42.45392" lon="1.84003">
        <ele>1845.6</ele>
        <time>2022-09-06T15:45:18Z</time>
      </trkpt>
      <trkpt lat="42.45392" lon="1.84009">
        <ele>1845.6</ele>
        <time>2022-09-06T15:45:19Z</time>
      </trkpt>
      <trkpt lat="42.45392" lon="1.84016">
        <ele>1846.6</ele>
        <time>2022-09-06T15:45:20Z</time>
      </trkpt>
      <trkpt lat="42.45392" lon="1.84022">
        <ele>1847.4</ele>
        <time>2022-09-06T15:45:21Z</time>
      </trkpt>
      <trkpt lat="42.45392" lon="1.84028">
        <ele>1847.4</ele>
        <time>2022-09-06T15:45:22Z</time>
      </trkpt>
      <trkpt lat="42.45392" lon="1.84035">
        <ele>1847.4</ele>
        <time>2022-09-06T15:45:23Z</time>
      </trkpt>
      <trkpt lat="42.45392" lon="1.84041">
        <ele>1847.4</ele>
        <time>2022-09-06T15:45:24Z</time>
      </trkpt>
      <trkpt lat="42.45392" lon="1.84048">
        <ele>1848.4</ele>
        <time>2022-09-06T15:45:25Z</time>
      </trkpt>
      <trkpt lat="42.45392" lon="1.84054">
        <ele>1848.4</ele>
        <time>2022-09-06T15:45:26Z</time>
      </trkpt>
      <trkpt lat="42.45393" lon="1.8406">
        <ele>1848.4</ele>
        <time>2022-09-06T15:45:27Z</time>
      </trkpt>
      <trkpt lat="42.45393" lon="1.84067">
        <ele>1849.4</ele>
        <time>2022-09-06T15:45:28Z</time>
      </trkpt>
      <trkpt lat="42.45394" lon="1.84074">
        <ele>1850.4</ele>
        <time>2022-09-06T15:45:29Z</time>
      </trkpt>
      <trkpt lat="42.45394" lon="1.8408">
        <ele>1850.4</ele>
        <time>2022-09-06T15:45:30Z</time>
      </trkpt>
      <trkpt lat="42.45394" lon="1.84086">
        <ele>1850.4</ele>
        <time>2022-09-06T15:45:31Z</time>
      </trkpt>
      <trkpt lat="42.45394" lon="1.84092">
        <ele>1850.4</ele>
        <time>2022-09-06T15:45:32Z</time>
      </trkpt>
      <trkpt lat="42.45394" lon="1.84099">
        <ele>1850.4</ele>
        <time>2022-09-06T15:45:33Z</time>
      </trkpt>
      <trkpt lat="42.45394" lon="1.84105">
        <ele>1852.4</ele>
        <time>2022-09-06T15:45:34Z</time>
      </trkpt>
      <trkpt lat="42.45394" lon="1.84111">
        <ele>1852.4</ele>
        <time>2022-09-06T15:45:35Z</time>
      </trkpt>
      <trkpt lat="42.45394" lon="1.84118">
        <ele>1852.4</ele>
        <time>2022-09-06T15:45:36Z</time>
      </trkpt>
      <trkpt lat="42.45393" lon="1.84124">
        <ele>1852.4</ele>
        <time>2022-09-06T15:45:37Z</time>
      </trkpt>
      <trkpt lat="42.45393" lon="1.8413">
        <ele>1853.2</ele>
        <time>2022-09-06T15:45:38Z</time>
      </trkpt>
      <trkpt lat="42.45392" lon="1.84136">
        <ele>1853.2</ele>
        <time>2022-09-06T15:45:39Z</time>
      </trkpt>
      <trkpt lat="42.45391" lon="1.84142">
        <ele>1853.2</ele>
        <time>2022-09-06T15:45:40Z</time>
      </trkpt>
      <trkpt lat="42.4539" lon="1.84149">
        <ele>1854.2</ele>
        <time>2022-09-06T15:45:41Z</time>
      </trkpt>
      <trkpt lat="42.4539" lon="1.84155">
        <ele>1855.4</ele>
        <time>2022-09-06T15:45:42Z</time>
      </trkpt>
      <trkpt lat="42.45388" lon="1.84161">
        <ele>1855.4</ele>
        <time>2022-09-06T15:45:43Z</time>
      </trkpt>
      <trkpt lat="42.45387" lon="1.84167">
        <ele>1855.4</ele>
        <time>2022-09-06T15:45:44Z</time>
      </trkpt>
      <trkpt lat="42.45386" lon="1.84173">
        <ele>1855.4</ele>
        <time>2022-09-06T15:45:45Z</time>
      </trkpt>
      <trkpt lat="42.45385" lon="1.8418">
        <ele>1857.2</ele>
        <time>2022-09-06T15:45:46Z</time>
      </trkpt>
      <trkpt lat="42.45385" lon="1.84186">
        <ele>1857.2</ele>
        <time>2022-09-06T15:45:47Z</time>
      </trkpt>
      <trkpt lat="42.45385" lon="1.84192">
        <ele>1857.2</ele>
        <time>2022-09-06T15:45:48Z</time>
      </trkpt>
      <trkpt lat="42.45387" lon="1.84198">
        <ele>1858.2</ele>
        <time>2022-09-06T15:45:49Z</time>
      </trkpt>
      <trkpt lat="42.45388" lon="1.84204">
        <ele>1858.8</ele>
        <time>2022-09-06T15:45:50Z</time>
      </trkpt>
      <trkpt lat="42.4539" lon="1.84209">
        <ele>1858.8</ele>
        <time>2022-09-06T15:45:51Z</time>
      </trkpt>
      <trkpt lat="42.45393" lon="1.84215">
        <ele>1858.8</ele>
        <time>2022-09-06T15:45:52Z</time>
      </trkpt>
      <trkpt lat="42.45395" lon="1.8422">
        <ele>1858.8</ele>
        <time>2022-09-06T15:45:53Z</time>
      </trkpt>
      <trkpt lat="42.45398" lon="1.84226">
        <ele>1860.4</ele>
        <time>2022-09-06T15:45:54Z</time>
      </trkpt>
      <trkpt lat="42.454" lon="1.84231">
        <ele>1860.4</ele>
        <time>2022-09-06T15:45:55Z</time>
      </trkpt>
      <trkpt lat="42.45402" lon="1.84237">
        <ele>1860.4</ele>
        <time>2022-09-06T15:45:56Z</time>
      </trkpt>
      <trkpt lat="42.45404" lon="1.84243">
        <ele>1860.4</ele>
        <time>2022-09-06T15:45:57Z</time>
      </trkpt>
      <trkpt lat="42.45406" lon="1.84249">
        <ele>1861</ele>
        <time>2022-09-06T15:45:58Z</time>
      </trkpt>
      <trkpt lat="42.45407" lon="1.84255">
        <ele>1861.8</ele>
        <time>2022-09-06T15:45:59Z</time>
      </trkpt>
      <trkpt lat="42.45407" lon="1.84261">
        <ele>1861.8</ele>
        <time>2022-09-06T15:46:00Z</time>
      </trkpt>
      <trkpt lat="42.45407" lon="1.84267">
        <ele>1861.8</ele>
        <time>2022-09-06T15:46:01Z</time>
      </trkpt>
      <trkpt lat="42.45406" lon="1.84274">
        <ele>1861.8</ele>
        <time>2022-09-06T15:46:02Z</time>
      </trkpt>
      <trkpt lat="42.45404" lon="1.8428">
        <ele>1863.8</ele>
        <time>2022-09-06T15:46:03Z</time>
      </trkpt>
      <trkpt lat="42.45403" lon="1.84285">
        <ele>1863.8</ele>
        <time>2022-09-06T15:46:04Z</time>
      </trkpt>
      <trkpt lat="42.45401" lon="1.84291">
        <ele>1863.8</ele>
        <time>2022-09-06T15:46:05Z</time>
      </trkpt>
      <trkpt lat="42.454" lon="1.84297">
        <ele>1864.8</ele>
        <time>2022-09-06T15:46:06Z</time>
      </trkpt>
      <trkpt lat="42.45399" lon="1.84303">
        <ele>1865.6</ele>
        <time>2022-09-06T15:46:07Z</time>
      </trkpt>
      <trkpt lat="42.45398" lon="1.84309">
        <ele>1865.6</ele>
        <time>2022-09-06T15:46:08Z</time>
      </trkpt>
      <trkpt lat="42.45397" lon="1.84315">
        <ele>1865.6</ele>
        <time>2022-09-06T15:46:09Z</time>
      </trkpt>
      <trkpt lat="42.45397" lon="1.84321">
        <ele>1866.6</ele>
        <time>2022-09-06T15:46:10Z</time>
      </trkpt>
      <trkpt lat="42.45398" lon="1.84326">
        <ele>1866.2</ele>
        <time>2022-09-06T15:46:11Z</time>
      </trkpt>
      <trkpt lat="42.45399" lon="1.84331">
        <ele>1866.2</ele>
        <time>2022-09-06T15:46:12Z</time>
      </trkpt>
      <trkpt lat="42.45401" lon="1.84336">
        <ele>1866.2</ele>
        <time>2022-09-06T15:46:13Z</time>
      </trkpt>
      <trkpt lat="42.45403" lon="1.8434">
        <ele>1866.8</ele>
        <time>2022-09-06T15:46:14Z</time>
      </trkpt>
      <trkpt lat="42.45405" lon="1.84343">
        <ele>1867.4</ele>
        <time>2022-09-06T15:46:15Z</time>
      </trkpt>
      <trkpt lat="42.45409" lon="1.84346">
        <ele>1867.4</ele>
        <time>2022-09-06T15:46:16Z</time>
      </trkpt>
      <trkpt lat="42.45414" lon="1.84346">
        <ele>1867.4</ele>
        <time>2022-09-06T15:46:17Z</time>
      </trkpt>
      <trkpt lat="42.45418" lon="1.84344">
        <ele>1867.4</ele>
        <time>2022-09-06T15:46:18Z</time>
      </trkpt>
      <trkpt lat="42.45422" lon="1.84342">
        <ele>1868.4</ele>
        <time>2022-09-06T15:46:19Z</time>
      </trkpt>
      <trkpt lat="42.45426" lon="1.84338">
        <ele>1869.2</ele>
        <time>2022-09-06T15:46:20Z</time>
      </trkpt>
      <trkpt lat="42.45429" lon="1.84334">
        <ele>1869.2</ele>
        <time>2022-09-06T15:46:21Z</time>
      </trkpt>
      <trkpt lat="42.45432" lon="1.84329">
        <ele>1869.2</ele>
        <time>2022-09-06T15:46:22Z</time>
      </trkpt>
      <trkpt lat="42.45434" lon="1.84324">
        <ele>1869.2</ele>
        <time>2022-09-06T15:46:23Z</time>
      </trkpt>
      <trkpt lat="42.45435" lon="1.84319">
        <ele>1871.2</ele>
        <time>2022-09-06T15:46:24Z</time>
      </trkpt>
      <trkpt lat="42.45438" lon="1.84314">
        <ele>1871.2</ele>
        <time>2022-09-06T15:46:25Z</time>
      </trkpt>
      <trkpt lat="42.4544" lon="1.84309">
        <ele>1871.2</ele>
        <time>2022-09-06T15:46:26Z</time>
      </trkpt>
      <trkpt lat="42.45443" lon="1.84305">
        <ele>1871.2</ele>
        <time>2022-09-06T15:46:27Z</time>
      </trkpt>
      <trkpt lat="42.45445" lon="1.843">
        <ele>1874.4</ele>
        <time>2022-09-06T15:46:28Z</time>
      </trkpt>
      <trkpt lat="42.45448" lon="1.84296">
        <ele>1874.4</ele>
        <time>2022-09-06T15:46:29Z</time>
      </trkpt>
      <trkpt lat="42.45451" lon="1.84292">
        <ele>1874.4</ele>
        <time>2022-09-06T15:46:30Z</time>
      </trkpt>
      <trkpt lat="42.45454" lon="1.84288">
        <ele>1875.4</ele>
        <time>2022-09-06T15:46:31Z</time>
      </trkpt>
      <trkpt lat="42.45457" lon="1.84284">
        <ele>1875</ele>
        <time>2022-09-06T15:46:32Z</time>
      </trkpt>
      <trkpt lat="42.45459" lon="1.8428">
        <ele>1875</ele>
        <time>2022-09-06T15:46:33Z</time>
      </trkpt>
      <trkpt lat="42.45462" lon="1.84276">
        <ele>1875</ele>
        <time>2022-09-06T15:46:34Z</time>
      </trkpt>
      <trkpt lat="42.45465" lon="1.84272">
        <ele>1875</ele>
        <time>2022-09-06T15:46:35Z</time>
      </trkpt>
      <trkpt lat="42.45467" lon="1.84268">
        <ele>1876</ele>
        <time>2022-09-06T15:46:36Z</time>
      </trkpt>
      <trkpt lat="42.4547" lon="1.84264">
        <ele>1878.2</ele>
        <time>2022-09-06T15:46:37Z</time>
      </trkpt>
      <trkpt lat="42.45474" lon="1.84261">
        <ele>1878.2</ele>
        <time>2022-09-06T15:46:38Z</time>
      </trkpt>
      <trkpt lat="42.45477" lon="1.84259">
        <ele>1878.2</ele>
        <time>2022-09-06T15:46:39Z</time>
      </trkpt>
      <trkpt lat="42.45481" lon="1.84257">
        <ele>1879.2</ele>
        <time>2022-09-06T15:46:40Z</time>
      </trkpt>
      <trkpt lat="42.45486" lon="1.84256">
        <ele>1880.2</ele>
        <time>2022-09-06T15:46:41Z</time>
      </trkpt>
      <trkpt lat="42.4549" lon="1.84257">
        <ele>1880.2</ele>
        <time>2022-09-06T15:46:42Z</time>
      </trkpt>
      <trkpt lat="42.45495" lon="1.84259">
        <ele>1880.2</ele>
        <time>2022-09-06T15:46:43Z</time>
      </trkpt>
      <trkpt lat="42.455" lon="1.84261">
        <ele>1880.2</ele>
        <time>2022-09-06T15:46:44Z</time>
      </trkpt>
      <trkpt lat="42.45504" lon="1.84264">
        <ele>1882</ele>
        <time>2022-09-06T15:46:45Z</time>
      </trkpt>
      <trkpt lat="42.45508" lon="1.84267">
        <ele>1882</ele>
        <time>2022-09-06T15:46:46Z</time>
      </trkpt>
      <trkpt lat="42.45511" lon="1.84272">
        <ele>1882</ele>
        <time>2022-09-06T15:46:47Z</time>
      </trkpt>
      <trkpt lat="42.45514" lon="1.84276">
        <ele>1883</ele>
        <time>2022-09-06T15:46:48Z</time>
      </trkpt>
      <trkpt lat="42.45518" lon="1.8428">
        <ele>1882.8</ele>
        <time>2022-09-06T15:46:49Z</time>
      </trkpt>
      <trkpt lat="42.45521" lon="1.84283">
        <ele>1882.8</ele>
        <time>2022-09-06T15:46:50Z</time>
      </trkpt>
      <trkpt lat="42.45524" lon="1.84286">
        <ele>1882.8</ele>
        <time>2022-09-06T15:46:51Z</time>
      </trkpt>
      <trkpt lat="42.45527" lon="1.8429">
        <ele>1883.8</ele>
        <time>2022-09-06T15:46:52Z</time>
      </trkpt>
      <trkpt lat="42.4553" lon="1.84294">
        <ele>1886</ele>
        <time>2022-09-06T15:46:53Z</time>
      </trkpt>
      <trkpt lat="42.45533" lon="1.84298">
        <ele>1886</ele>
        <time>2022-09-06T15:46:54Z</time>
      </trkpt>
      <trkpt lat="42.45535" lon="1.84302">
        <ele>1886</ele>
        <time>2022-09-06T15:46:55Z</time>
      </trkpt>
      <trkpt lat="42.45538" lon="1.84306">
        <ele>1886</ele>
        <time>2022-09-06T15:46:56Z</time>
      </trkpt>
      <trkpt lat="42.45541" lon="1.8431">
        <ele>1887</ele>
        <time>2022-09-06T15:46:57Z</time>
      </trkpt>
      <trkpt lat="42.45544" lon="1.84314">
        <ele>1887</ele>
        <time>2022-09-06T15:46:58Z</time>
      </trkpt>
      <trkpt lat="42.45547" lon="1.84318">
        <ele>1887</ele>
        <time>2022-09-06T15:46:59Z</time>
      </trkpt>
      <trkpt lat="42.4555" lon="1.84321">
        <ele>1887</ele>
        <time>2022-09-06T15:47:00Z</time>
      </trkpt>
      <trkpt lat="42.45553" lon="1.84325">
        <ele>1886.4</ele>
        <time>2022-09-06T15:47:01Z</time>
      </trkpt>
      <trkpt lat="42.45555" lon="1.84328">
        <ele>1885.2</ele>
        <time>2022-09-06T15:47:02Z</time>
      </trkpt>
      <trkpt lat="42.45559" lon="1.84332">
        <ele>1885.2</ele>
        <time>2022-09-06T15:47:03Z</time>
      </trkpt>
      <trkpt lat="42.45563" lon="1.84335">
        <ele>1885.2</ele>
        <time>2022-09-06T15:47:04Z</time>
      </trkpt>
      <trkpt lat="42.45566" lon="1.84339">
        <ele>1886.2</ele>
        <time>2022-09-06T15:47:05Z</time>
      </trkpt>
      <trkpt lat="42.4557" lon="1.84343">
        <ele>1886.6</ele>
        <time>2022-09-06T15:47:06Z</time>
      </trkpt>
      <trkpt lat="42.45573" lon="1.84347">
        <ele>1886.6</ele>
        <time>2022-09-06T15:47:07Z</time>
      </trkpt>
      <trkpt lat="42.45576" lon="1.84352">
        <ele>1886.6</ele>
        <time>2022-09-06T15:47:08Z</time>
      </trkpt>
      <trkpt lat="42.4558" lon="1.84356">
        <ele>1886.6</ele>
        <time>2022-09-06T15:47:09Z</time>
      </trkpt>
      <trkpt lat="42.45583" lon="1.84361">
        <ele>1886.4</ele>
        <time>2022-09-06T15:47:10Z</time>
      </trkpt>
      <trkpt lat="42.45586" lon="1.84365">
        <ele>1886.4</ele>
        <time>2022-09-06T15:47:11Z</time>
      </trkpt>
      <trkpt lat="42.4559" lon="1.8437">
        <ele>1886.4</ele>
        <time>2022-09-06T15:47:12Z</time>
      </trkpt>
      <trkpt lat="42.45594" lon="1.84374">
        <ele>1886.4</ele>
        <time>2022-09-06T15:47:13Z</time>
      </trkpt>
      <trkpt lat="42.45598" lon="1.8438">
        <ele>1885.4</ele>
        <time>2022-09-06T15:47:14Z</time>
      </trkpt>
      <trkpt lat="42.45602" lon="1.84385">
        <ele>1885.4</ele>
        <time>2022-09-06T15:47:15Z</time>
      </trkpt>
      <trkpt lat="42.45606" lon="1.84389">
        <ele>1885.4</ele>
        <time>2022-09-06T15:47:16Z</time>
      </trkpt>
      <trkpt lat="42.45612" lon="1.84393">
        <ele>1885.4</ele>
        <time>2022-09-06T15:47:17Z</time>
      </trkpt>
      <trkpt lat="42.45617" lon="1.84397">
        <ele>1884.6</ele>
        <time>2022-09-06T15:47:18Z</time>
      </trkpt>
      <trkpt lat="42.45622" lon="1.84399">
        <ele>1885.2</ele>
        <time>2022-09-06T15:47:19Z</time>
      </trkpt>
      <trkpt lat="42.45628" lon="1.84401">
        <ele>1885.2</ele>
        <time>2022-09-06T15:47:20Z</time>
      </trkpt>
      <trkpt lat="42.45634" lon="1.84401">
        <ele>1885.2</ele>
        <time>2022-09-06T15:47:21Z</time>
      </trkpt>
      <trkpt lat="42.4564" lon="1.84401">
        <ele>1885.2</ele>
        <time>2022-09-06T15:47:22Z</time>
      </trkpt>
      <trkpt lat="42.45646" lon="1.844">
        <ele>1884.4</ele>
        <time>2022-09-06T15:47:23Z</time>
      </trkpt>
      <trkpt lat="42.45652" lon="1.84399">
        <ele>1884.4</ele>
        <time>2022-09-06T15:47:24Z</time>
      </trkpt>
      <trkpt lat="42.45659" lon="1.84398">
        <ele>1884.4</ele>
        <time>2022-09-06T15:47:25Z</time>
      </trkpt>
      <trkpt lat="42.45665" lon="1.84396">
        <ele>1884.4</ele>
        <time>2022-09-06T15:47:26Z</time>
      </trkpt>
      <trkpt lat="42.45671" lon="1.84394">
        <ele>1883.4</ele>
        <time>2022-09-06T15:47:27Z</time>
      </trkpt>
      <trkpt lat="42.45678" lon="1.84392">
        <ele>1883.4</ele>
        <time>2022-09-06T15:47:28Z</time>
      </trkpt>
      <trkpt lat="42.45684" lon="1.8439">
        <ele>1883.4</ele>
        <time>2022-09-06T15:47:29Z</time>
      </trkpt>
      <trkpt lat="42.4569" lon="1.84388">
        <ele>1882.4</ele>
        <time>2022-09-06T15:47:30Z</time>
      </trkpt>
      <trkpt lat="42.45697" lon="1.84386">
        <ele>1884.2</ele>
        <time>2022-09-06T15:47:31Z</time>
      </trkpt>
      <trkpt lat="42.45703" lon="1.84384">
        <ele>1884.2</ele>
        <time>2022-09-06T15:47:32Z</time>
      </trkpt>
      <trkpt lat="42.45709" lon="1.84382">
        <ele>1884.2</ele>
        <time>2022-09-06T15:47:33Z</time>
      </trkpt>
      <trkpt lat="42.45716" lon="1.84381">
        <ele>1884.2</ele>
        <time>2022-09-06T15:47:34Z</time>
      </trkpt>
      <trkpt lat="42.45722" lon="1.84378">
        <ele>1883.2</ele>
        <time>2022-09-06T15:47:35Z</time>
      </trkpt>
      <trkpt lat="42.45728" lon="1.84375">
        <ele>1882.2</ele>
        <time>2022-09-06T15:47:36Z</time>
      </trkpt>
      <trkpt lat="42.45734" lon="1.84373">
        <ele>1882.2</ele>
        <time>2022-09-06T15:47:37Z</time>
      </trkpt>
      <trkpt lat="42.4574" lon="1.8437">
        <ele>1882.2</ele>
        <time>2022-09-06T15:47:38Z</time>
      </trkpt>
      <trkpt lat="42.45746" lon="1.84368">
        <ele>1882.2</ele>
        <time>2022-09-06T15:47:39Z</time>
      </trkpt>
      <trkpt lat="42.45752" lon="1.84367">
        <ele>1880.8</ele>
        <time>2022-09-06T15:47:40Z</time>
      </trkpt>
      <trkpt lat="42.45758" lon="1.84365">
        <ele>1880.8</ele>
        <time>2022-09-06T15:47:41Z</time>
      </trkpt>
      <trkpt lat="42.45764" lon="1.84363">
        <ele>1880.8</ele>
        <time>2022-09-06T15:47:42Z</time>
      </trkpt>
      <trkpt lat="42.4577" lon="1.84361">
        <ele>1880.8</ele>
        <time>2022-09-06T15:47:43Z</time>
      </trkpt>
      <trkpt lat="42.45776" lon="1.84359">
        <ele>1880.8</ele>
        <time>2022-09-06T15:47:44Z</time>
      </trkpt>
      <trkpt lat="42.45781" lon="1.84358">
        <ele>1880.8</ele>
        <time>2022-09-06T15:47:45Z</time>
      </trkpt>
      <trkpt lat="42.45787" lon="1.84356">
        <ele>1880.8</ele>
        <time>2022-09-06T15:47:46Z</time>
      </trkpt>
      <trkpt lat="42.45792" lon="1.84355">
        <ele>1880.8</ele>
        <time>2022-09-06T15:47:47Z</time>
      </trkpt>
      <trkpt lat="42.45797" lon="1.84354">
        <ele>1881.4</ele>
        <time>2022-09-06T15:47:48Z</time>
      </trkpt>
      <trkpt lat="42.45802" lon="1.843542">
        <ele>1912</ele>
        <time>2022-09-06T15:47:49Z</time>
      </trkpt>
      <trkpt lat="42.458055" lon="1.843462">
        <ele>1912.3</ele>
        <time>2022-09-06T15:47:50Z</time>
      </trkpt>
      <trkpt lat="42.458209" lon="1.843722">
        <ele>1911.3</ele>
        <time>2022-09-06T15:47:54Z</time>
      </trkpt>
      <trkpt lat="42.458363" lon="1.843937">
        <ele>1910.5</ele>
        <time>2022-09-06T15:47:58Z</time>
      </trkpt>
      <trkpt lat="42.458338" lon="1.84421">
        <ele>1910.3</ele>
        <time>2022-09-06T15:48:01Z</time>
      </trkpt>
      <trkpt lat="42.458288" lon="1.844782">
        <ele>1909.8</ele>
        <time>2022-09-06T15:48:08Z</time>
      </trkpt>
      <trkpt lat="42.458313" lon="1.845157">
        <ele>1908.8</ele>
        <time>2022-09-06T15:48:13Z</time>
      </trkpt>
      <trkpt lat="42.458321" lon="1.845273">
        <ele>1908.8</ele>
        <time>2022-09-06T15:48:15Z</time>
      </trkpt>
      <trkpt lat="42.458305" lon="1.845583">
        <ele>1907.8</ele>
        <time>2022-09-06T15:48:19Z</time>
      </trkpt>
      <trkpt lat="42.458243" lon="1.846021">
        <ele>1905.5</ele>
        <time>2022-09-06T15:48:24Z</time>
      </trkpt>
      <trkpt lat="42.458227" lon="1.846191">
        <ele>1904.8</ele>
        <time>2022-09-06T15:48:26Z</time>
      </trkpt>
      <trkpt lat="42.458195" lon="1.846346">
        <ele>1903.8</ele>
        <time>2022-09-06T15:48:28Z</time>
      </trkpt>
      <trkpt lat="42.458136" lon="1.84613">
        <ele>1904.5</ele>
        <time>2022-09-06T15:48:31Z</time>
      </trkpt>
      <trkpt lat="42.458195" lon="1.846346">
        <ele>1903.8</ele>
        <time>2022-09-06T15:48:34Z</time>
      </trkpt>
      <trkpt lat="42.458016" lon="1.84711">
        <ele>1901</ele>
        <time>2022-09-06T15:48:45Z</time>
      </trkpt>
      <trkpt lat="42.45801" lon="1.847137">
        <ele>1901</ele>
        <time>2022-09-06T15:48:46Z</time>
      </trkpt>
      <trkpt lat="42.457519" lon="1.848744">
        <ele>1893.3</ele>
        <time>2022-09-06T15:49:10Z</time>
      </trkpt>
      <trkpt lat="42.457511" lon="1.848774">
        <ele>1893.3</ele>
        <time>2022-09-06T15:49:10Z</time>
      </trkpt>
      <trkpt lat="42.457307" lon="1.849713">
        <ele>1886.3</ele>
        <time>2022-09-06T15:49:24Z</time>
      </trkpt>
      <trkpt lat="42.457318" lon="1.850264">
        <ele>1885</ele>
        <time>2022-09-06T15:49:31Z</time>
      </trkpt>
      <trkpt lat="42.457403" lon="1.850533">
        <ele>1885.5</ele>
        <time>2022-09-06T15:49:35Z</time>
      </trkpt>
      <trkpt lat="42.45742" lon="1.850602">
        <ele>1885.5</ele>
        <time>2022-09-06T15:49:36Z</time>
      </trkpt>
      <trkpt lat="42.457474" lon="1.850811">
        <ele>1885.5</ele>
        <time>2022-09-06T15:49:40Z</time>
      </trkpt>
      <trkpt lat="42.457598" lon="1.851009">
        <ele>1883.8</ele>
        <time>2022-09-06T15:49:44Z</time>
      </trkpt>
      <trkpt lat="42.457645" lon="1.851085">
        <ele>1883.3</ele>
        <time>2022-09-06T15:49:45Z</time>
      </trkpt>
      <trkpt lat="42.457811" lon="1.851316">
        <ele>1880.8</ele>
        <time>2022-09-06T15:49:51Z</time>
      </trkpt>
      <trkpt lat="42.45788" lon="1.851373">
        <ele>1880.3</ele>
        <time>2022-09-06T15:49:52Z</time>
      </trkpt>
      <trkpt lat="42.45788" lon="1.851375">
        <ele>1880</ele>
        <time>2022-09-06T15:49:52Z</time>
      </trkpt>
      <trkpt lat="42.457898" lon="1.851792">
        <ele>1873.5</ele>
        <time>2022-09-06T15:49:58Z</time>
      </trkpt>
      <trkpt lat="42.457865" lon="1.852118">
        <ele>1867.3</ele>
        <time>2022-09-06T15:50:03Z</time>
      </trkpt>
      <trkpt lat="42.457859" lon="1.852184">
        <ele>1866.3</ele>
        <time>2022-09-06T15:50:04Z</time>
      </trkpt>
      <trkpt lat="42.457879" lon="1.852547">
        <ele>1860.3</ele>
        <time>2022-09-06T15:50:09Z</time>
      </trkpt>
      <trkpt lat="42.457848" lon="1.852688">
        <ele>1858.5</ele>
        <time>2022-09-06T15:50:11Z</time>
      </trkpt>
      <trkpt lat="42.457879" lon="1.852828">
        <ele>1857</ele>
        <time>2022-09-06T15:50:13Z</time>
      </trkpt>
      <trkpt lat="42.457862" lon="1.852878">
        <ele>1856.3</ele>
        <time>2022-09-06T15:50:13Z</time>
      </trkpt>
      <trkpt lat="42.457797" lon="1.853087">
        <ele>1853.8</ele>
        <time>2022-09-06T15:50:16Z</time>
      </trkpt>
      <trkpt lat="42.457731" lon="1.853479">
        <ele>1849.8</ele>
        <time>2022-09-06T15:50:22Z</time>
      </trkpt>
      <trkpt lat="42.457737" lon="1.85356">
        <ele>1849</ele>
        <time>2022-09-06T15:50:23Z</time>
      </trkpt>
      <trkpt lat="42.457764" lon="1.853904">
        <ele>1846</ele>
        <time>2022-09-06T15:50:28Z</time>
      </trkpt>
      <trkpt lat="42.457758" lon="1.85414">
        <ele>1844.3</ele>
        <time>2022-09-06T15:50:31Z</time>
      </trkpt>
      <trkpt lat="42.457698" lon="1.854382">
        <ele>1843.3</ele>
        <time>2022-09-06T15:50:34Z</time>
      </trkpt>
      <trkpt lat="42.457682" lon="1.854454">
        <ele>1842.8</ele>
        <time>2022-09-06T15:50:35Z</time>
      </trkpt>
      <trkpt lat="42.457612" lon="1.854788">
        <ele>1841.8</ele>
        <time>2022-09-06T15:50:40Z</time>
      </trkpt>
      <trkpt lat="42.457587" lon="1.854992">
        <ele>1841.3</ele>
        <time>2022-09-06T15:50:42Z</time>
      </trkpt>
      <trkpt lat="42.45755389711397" lon="1.855230325828013">
        <ele>1840</ele>
        <time>2022-09-06T15:50:46Z</time>
      </trkpt>
      <trkpt lat="42.45749452662552" lon="1.85546635742488">
        <ele>1839.8</ele>
        <time>2022-09-06T15:50:49Z</time>
      </trkpt>
      <trkpt lat="42.45745676332417" lon="1.85549217871244">
        <ele>1839.8</ele>
        <time>2022-09-06T15:50:50Z</time>
      </trkpt>
      <trkpt lat="42.457419" lon="1.855518">
        <ele>1839.7</ele>
        <time>2022-09-06T15:50:50Z</time>
      </trkpt>
      <trkpt lat="42.457384" lon="1.855547">
        <ele>1838.3</ele>
        <time>2022-09-06T15:50:51Z</time>
      </trkpt>
      <trkpt lat="42.457332" lon="1.855692">
        <ele>1837.5</ele>
        <time>2022-09-06T15:50:54Z</time>
      </trkpt>
      <trkpt lat="42.457241" lon="1.855804">
        <ele>1836.5</ele>
        <time>2022-09-06T15:50:56Z</time>
      </trkpt>
      <trkpt lat="42.457206" lon="1.855874">
        <ele>1836</ele>
        <time>2022-09-06T15:50:57Z</time>
      </trkpt>
      <trkpt lat="42.457172" lon="1.85595">
        <ele>1835.5</ele>
        <time>2022-09-06T15:50:59Z</time>
      </trkpt>
      <trkpt lat="42.457083" lon="1.856158">
        <ele>1835</ele>
        <time>2022-09-06T15:51:02Z</time>
      </trkpt>
      <trkpt lat="42.456988" lon="1.856518">
        <ele>1834.8</ele>
        <time>2022-09-06T15:51:09Z</time>
      </trkpt>
      <trkpt lat="42.456865" lon="1.856808">
        <ele>1835</ele>
        <time>2022-09-06T15:51:14Z</time>
      </trkpt>
      <trkpt lat="42.456813" lon="1.856962">
        <ele>1835.3</ele>
        <time>2022-09-06T15:51:17Z</time>
      </trkpt>
      <trkpt lat="42.45679" lon="1.857033">
        <ele>1835.5</ele>
        <time>2022-09-06T15:51:18Z</time>
      </trkpt>
      <trkpt lat="42.456739" lon="1.857226">
        <ele>1836</ele>
        <time>2022-09-06T15:51:21Z</time>
      </trkpt>
      <trkpt lat="42.456636" lon="1.857441">
        <ele>1836.3</ele>
        <time>2022-09-06T15:51:25Z</time>
      </trkpt>
      <trkpt lat="42.456588" lon="1.857494">
        <ele>1835.3</ele>
        <time>2022-09-06T15:51:27Z</time>
      </trkpt>
      <trkpt lat="42.456537" lon="1.85758">
        <ele>1833.5</ele>
        <time>2022-09-06T15:51:29Z</time>
      </trkpt>
      <trkpt lat="42.456502" lon="1.857628">
        <ele>1832.3</ele>
        <time>2022-09-06T15:51:30Z</time>
      </trkpt>
      <trkpt lat="42.456469" lon="1.857677">
        <ele>1831.5</ele>
        <time>2022-09-06T15:51:31Z</time>
      </trkpt>
      <trkpt lat="42.45643" lon="1.857741">
        <ele>1830.3</ele>
        <time>2022-09-06T15:51:32Z</time>
      </trkpt>
      <trkpt lat="42.456402" lon="1.857821">
        <ele>1829</ele>
        <time>2022-09-06T15:51:33Z</time>
      </trkpt>
      <trkpt lat="42.456367" lon="1.857982">
        <ele>1827.3</ele>
        <time>2022-09-06T15:51:36Z</time>
      </trkpt>
      <trkpt lat="42.456335" lon="1.858074">
        <ele>1826</ele>
        <time>2022-09-06T15:51:38Z</time>
      </trkpt>
      <trkpt lat="42.456295" lon="1.858251">
        <ele>1824.3</ele>
        <time>2022-09-06T15:51:40Z</time>
      </trkpt>
      <trkpt lat="42.456268" lon="1.858481">
        <ele>1821.5</ele>
        <time>2022-09-06T15:51:44Z</time>
      </trkpt>
      <trkpt lat="42.456264" lon="1.858578">
        <ele>1820.3</ele>
        <time>2022-09-06T15:51:46Z</time>
      </trkpt>
      <trkpt lat="42.456252" lon="1.85868">
        <ele>1818.8</ele>
        <time>2022-09-06T15:51:47Z</time>
      </trkpt>
      <trkpt lat="42.456151" lon="1.859365">
        <ele>1807.3</ele>
        <time>2022-09-06T15:51:58Z</time>
      </trkpt>
      <trkpt lat="42.456121" lon="1.859576">
        <ele>1804</ele>
        <time>2022-09-06T15:52:01Z</time>
      </trkpt>
      <trkpt lat="42.456062" lon="1.85971">
        <ele>1801</ele>
        <time>2022-09-06T15:52:03Z</time>
      </trkpt>
      <trkpt lat="42.456058" lon="1.859951">
        <ele>1797</ele>
        <time>2022-09-06T15:52:07Z</time>
      </trkpt>
      <trkpt lat="42.456074" lon="1.860037">
        <ele>1795.8</ele>
        <time>2022-09-06T15:52:08Z</time>
      </trkpt>
      <trkpt lat="42.456082" lon="1.860144">
        <ele>1794.3</ele>
        <time>2022-09-06T15:52:10Z</time>
      </trkpt>
      <trkpt lat="42.456101" lon="1.860235">
        <ele>1793.3</ele>
        <time>2022-09-06T15:52:11Z</time>
      </trkpt>
      <trkpt lat="42.456117" lon="1.860285">
        <ele>1792.8</ele>
        <time>2022-09-06T15:52:12Z</time>
      </trkpt>
      <trkpt lat="42.456125" lon="1.86031">
        <ele>1792.5</ele>
        <time>2022-09-06T15:52:12Z</time>
      </trkpt>
      <trkpt lat="42.456141" lon="1.860477">
        <ele>1790.3</ele>
        <time>2022-09-06T15:52:15Z</time>
      </trkpt>
      <trkpt lat="42.456125" lon="1.860638">
        <ele>1787.5</ele>
        <time>2022-09-06T15:52:17Z</time>
      </trkpt>
      <trkpt lat="42.456121" lon="1.860718">
        <ele>1786.5</ele>
        <time>2022-09-06T15:52:18Z</time>
      </trkpt>
      <trkpt lat="42.456129" lon="1.86089">
        <ele>1784</ele>
        <time>2022-09-06T15:52:20Z</time>
      </trkpt>
      <trkpt lat="42.456173" lon="1.861142">
        <ele>1780.5</ele>
        <time>2022-09-06T15:52:24Z</time>
      </trkpt>
      <trkpt lat="42.456149" lon="1.861324">
        <ele>1777.3</ele>
        <time>2022-09-06T15:52:27Z</time>
      </trkpt>
      <trkpt lat="42.456121" lon="1.861389">
        <ele>1776</ele>
        <time>2022-09-06T15:52:28Z</time>
      </trkpt>
      <trkpt lat="42.45607" lon="1.861448">
        <ele>1774.5</ele>
        <time>2022-09-06T15:52:29Z</time>
      </trkpt>
      <trkpt lat="42.45605" lon="1.861465">
        <ele>1774</ele>
        <time>2022-09-06T15:52:30Z</time>
      </trkpt>
      <trkpt lat="42.455963" lon="1.861544">
        <ele>1772</ele>
        <time>2022-09-06T15:52:32Z</time>
      </trkpt>
      <trkpt lat="42.455923" lon="1.861732">
        <ele>1769</ele>
        <time>2022-09-06T15:52:34Z</time>
      </trkpt>
      <trkpt lat="42.455856" lon="1.861941">
        <ele>1765.8</ele>
        <time>2022-09-06T15:52:38Z</time>
      </trkpt>
      <trkpt lat="42.45584" lon="1.861977">
        <ele>1764.8</ele>
        <time>2022-09-06T15:52:38Z</time>
      </trkpt>
      <trkpt lat="42.455741" lon="1.86222">
        <ele>1759.3</ele>
        <time>2022-09-06T15:52:42Z</time>
      </trkpt>
      <trkpt lat="42.455702" lon="1.862387">
        <ele>1756.5</ele>
        <time>2022-09-06T15:52:45Z</time>
      </trkpt>
      <trkpt lat="42.45569" lon="1.862467">
        <ele>1755.3</ele>
        <time>2022-09-06T15:52:46Z</time>
      </trkpt>
      <trkpt lat="42.45563" lon="1.862596">
        <ele>1752</ele>
        <time>2022-09-06T15:52:48Z</time>
      </trkpt>
      <trkpt lat="42.45552" lon="1.86266">
        <ele>1748.5</ele>
        <time>2022-09-06T15:52:50Z</time>
      </trkpt>
      <trkpt lat="42.455476" lon="1.862719">
        <ele>1746.8</ele>
        <time>2022-09-06T15:52:51Z</time>
      </trkpt>
      <trkpt lat="42.455444" lon="1.862783">
        <ele>1745.3</ele>
        <time>2022-09-06T15:52:53Z</time>
      </trkpt>
      <trkpt lat="42.455417" lon="1.862859">
        <ele>1744</ele>
        <time>2022-09-06T15:52:54Z</time>
      </trkpt>
      <trkpt lat="42.455314" lon="1.863068">
        <ele>1740</ele>
        <time>2022-09-06T15:52:57Z</time>
      </trkpt>
      <trkpt lat="42.455258" lon="1.86332">
        <ele>1737</ele>
        <time>2022-09-06T15:53:01Z</time>
      </trkpt>
      <trkpt lat="42.455243" lon="1.863492">
        <ele>1734.5</ele>
        <time>2022-09-06T15:53:04Z</time>
      </trkpt>
      <trkpt lat="42.455232" lon="1.863645">
        <ele>1732.3</ele>
        <time>2022-09-06T15:53:06Z</time>
      </trkpt>
      <trkpt lat="42.455231" lon="1.863669">
        <ele>1732</ele>
        <time>2022-09-06T15:53:06Z</time>
      </trkpt>
      <trkpt lat="42.455258" lon="1.863724">
        <ele>1731.5</ele>
        <time>2022-09-06T15:53:07Z</time>
      </trkpt>
      <trkpt lat="42.454919" lon="1.863667">
        <ele>1726.3</ele>
        <time>2022-09-06T15:53:14Z</time>
      </trkpt>
      <trkpt lat="42.45485" lon="1.863735">
        <ele>1723.3</ele>
        <time>2022-09-06T15:53:15Z</time>
      </trkpt>
      <trkpt lat="42.454822" lon="1.863843">
        <ele>1721.5</ele>
        <time>2022-09-06T15:53:17Z</time>
      </trkpt>
      <trkpt lat="42.455038" lon="1.864232">
        <ele>1720.5</ele>
        <time>2022-09-06T15:53:24Z</time>
      </trkpt>
      <trkpt lat="42.455202" lon="1.864527">
        <ele>1719.8</ele>
        <time>2022-09-06T15:53:29Z</time>
      </trkpt>
      <trkpt lat="42.45529" lon="1.8648">
        <ele>1716.5</ele>
        <time>2022-09-06T15:53:33Z</time>
      </trkpt>
      <trkpt lat="42.455409" lon="1.865173">
        <ele>1713</ele>
        <time>2022-09-06T15:53:40Z</time>
      </trkpt>
      <trkpt lat="42.455431" lon="1.865239">
        <ele>1712.5</ele>
        <time>2022-09-06T15:53:41Z</time>
      </trkpt>
      <trkpt lat="42.455504" lon="1.865673">
        <ele>1709</ele>
        <time>2022-09-06T15:53:47Z</time>
      </trkpt>
      <trkpt lat="42.455675" lon="1.866044">
        <ele>1706.5</ele>
        <time>2022-09-06T15:53:54Z</time>
      </trkpt>
      <trkpt lat="42.455865" lon="1.86617">
        <ele>1706.3</ele>
        <time>2022-09-06T15:53:58Z</time>
      </trkpt>
      <trkpt lat="42.456127" lon="1.866195">
        <ele>1704.8</ele>
        <time>2022-09-06T15:54:04Z</time>
      </trkpt>
      <trkpt lat="42.456202" lon="1.866312">
        <ele>1703</ele>
        <time>2022-09-06T15:54:06Z</time>
      </trkpt>
      <trkpt lat="42.456191" lon="1.866638">
        <ele>1699.3</ele>
        <time>2022-09-06T15:54:11Z</time>
      </trkpt>
      <trkpt lat="42.456174" lon="1.866846">
        <ele>1696.8</ele>
        <time>2022-09-06T15:54:14Z</time>
      </trkpt>
      <trkpt lat="42.456235" lon="1.867054">
        <ele>1693.3</ele>
        <time>2022-09-06T15:54:18Z</time>
      </trkpt>
      <trkpt lat="42.456254" lon="1.867186">
        <ele>1691</ele>
        <time>2022-09-06T15:54:20Z</time>
      </trkpt>
      <trkpt lat="42.456273" lon="1.867317">
        <ele>1689.3</ele>
        <time>2022-09-06T15:54:22Z</time>
      </trkpt>
      <trkpt lat="42.456283" lon="1.867701">
        <ele>1683</ele>
        <time>2022-09-06T15:54:28Z</time>
      </trkpt>
      <trkpt lat="42.45641" lon="1.868283">
        <ele>1672.5</ele>
        <time>2022-09-06T15:54:37Z</time>
      </trkpt>
      <trkpt lat="42.456436" lon="1.868481">
        <ele>1669.3</ele>
        <time>2022-09-06T15:54:40Z</time>
      </trkpt>
      <trkpt lat="42.456505" lon="1.868701">
        <ele>1665.8</ele>
        <time>2022-09-06T15:54:44Z</time>
      </trkpt>
      <trkpt lat="42.456616" lon="1.868709">
        <ele>1665.8</ele>
        <time>2022-09-06T15:54:46Z</time>
      </trkpt>
      <trkpt lat="42.456689" lon="1.868576">
        <ele>1667</ele>
        <time>2022-09-06T15:54:49Z</time>
      </trkpt>
      <trkpt lat="42.456694" lon="1.868567">
        <ele>1667.3</ele>
        <time>2022-09-06T15:54:49Z</time>
      </trkpt>
      <trkpt lat="42.4568" lon="1.868429">
        <ele>1667.5</ele>
        <time>2022-09-06T15:54:52Z</time>
      </trkpt>
      <trkpt lat="42.456861" lon="1.86863">
        <ele>1663.8</ele>
        <time>2022-09-06T15:54:55Z</time>
      </trkpt>
      <trkpt lat="42.457" lon="1.868903">
        <ele>1658</ele>
        <time>2022-09-06T15:55:00Z</time>
      </trkpt>
      <trkpt lat="42.457035" lon="1.869304">
        <ele>1651.5</ele>
        <time>2022-09-06T15:55:07Z</time>
      </trkpt>
      <trkpt lat="42.456935" lon="1.86991">
        <ele>1643</ele>
        <time>2022-09-06T15:55:16Z</time>
      </trkpt>
      <trkpt lat="42.456874" lon="1.870451">
        <ele>1637</ele>
        <time>2022-09-06T15:55:24Z</time>
      </trkpt>
      <trkpt lat="42.45688" lon="1.870493">
        <ele>1636.3</ele>
        <time>2022-09-06T15:55:25Z</time>
      </trkpt>
      <trkpt lat="42.456965" lon="1.871032">
        <ele>1627.8</ele>
        <time>2022-09-06T15:55:32Z</time>
      </trkpt>
      <trkpt lat="42.456909" lon="1.87139">
        <ele>1623</ele>
        <time>2022-09-06T15:55:36Z</time>
      </trkpt>
      <trkpt lat="42.456827" lon="1.872056">
        <ele>1616.8</ele>
        <time>2022-09-06T15:55:45Z</time>
      </trkpt>
      <trkpt lat="42.456829" lon="1.872307">
        <ele>1614.8</ele>
        <time>2022-09-06T15:55:48Z</time>
      </trkpt>
      <trkpt lat="42.456872" lon="1.872762">
        <ele>1611</ele>
        <time>2022-09-06T15:55:54Z</time>
      </trkpt>
      <trkpt lat="42.456937" lon="1.873209">
        <ele>1607.8</ele>
        <time>2022-09-06T15:56:00Z</time>
      </trkpt>
      <trkpt lat="42.456911" lon="1.873532">
        <ele>1605</ele>
        <time>2022-09-06T15:56:04Z</time>
      </trkpt>
      <trkpt lat="42.456939" lon="1.874093">
        <ele>1597.3</ele>
        <time>2022-09-06T15:56:11Z</time>
      </trkpt>
      <trkpt lat="42.45716" lon="1.875044">
        <ele>1579.5</ele>
        <time>2022-09-06T15:56:24Z</time>
      </trkpt>
      <trkpt lat="42.457229" lon="1.875229">
        <ele>1576.3</ele>
        <time>2022-09-06T15:56:26Z</time>
      </trkpt>
      <trkpt lat="42.457386" lon="1.875494">
        <ele>1572.3</ele>
        <time>2022-09-06T15:56:31Z</time>
      </trkpt>
      <trkpt lat="42.457509" lon="1.875643">
        <ele>1570.5</ele>
        <time>2022-09-06T15:56:33Z</time>
      </trkpt>
      <trkpt lat="42.457617" lon="1.875754">
        <ele>1566</ele>
        <time>2022-09-06T15:56:36Z</time>
      </trkpt>
      <trkpt lat="42.45765" lon="1.875944">
        <ele>1562.8</ele>
        <time>2022-09-06T15:56:38Z</time>
      </trkpt>
      <trkpt lat="42.457595" lon="1.875878">
        <ele>1563.8</ele>
        <time>2022-09-06T15:56:39Z</time>
      </trkpt>
      <trkpt lat="42.45765" lon="1.875944">
        <ele>1562.8</ele>
        <time>2022-09-06T15:56:40Z</time>
      </trkpt>
      <trkpt lat="42.457664" lon="1.876025">
        <ele>1561.3</ele>
        <time>2022-09-06T15:56:41Z</time>
      </trkpt>
      <trkpt lat="42.457638" lon="1.876243">
        <ele>1559.3</ele>
        <time>2022-09-06T15:56:44Z</time>
      </trkpt>
      <trkpt lat="42.457629" lon="1.876315">
        <ele>1558.5</ele>
        <time>2022-09-06T15:56:45Z</time>
      </trkpt>
      <trkpt lat="42.457401" lon="1.876576">
        <ele>1556</ele>
        <time>2022-09-06T15:56:49Z</time>
      </trkpt>
      <trkpt lat="42.457391" lon="1.876601">
        <ele>1555.5</ele>
        <time>2022-09-06T15:56:50Z</time>
      </trkpt>
      <trkpt lat="42.457313" lon="1.876822">
        <ele>1551.8</ele>
        <time>2022-09-06T15:56:52Z</time>
      </trkpt>
      <trkpt lat="42.457188" lon="1.877201">
        <ele>1546</ele>
        <time>2022-09-06T15:56:57Z</time>
      </trkpt>
      <trkpt lat="42.457139" lon="1.877409">
        <ele>1543</ele>
        <time>2022-09-06T15:57:00Z</time>
      </trkpt>
      <trkpt lat="42.457069" lon="1.877551">
        <ele>1540.3</ele>
        <time>2022-09-06T15:57:02Z</time>
      </trkpt>
      <trkpt lat="42.456833" lon="1.877646">
        <ele>1536.3</ele>
        <time>2022-09-06T15:57:07Z</time>
      </trkpt>
      <trkpt lat="42.456513" lon="1.877858">
        <ele>1530</ele>
        <time>2022-09-06T15:57:13Z</time>
      </trkpt>
      <trkpt lat="42.456314" lon="1.877991">
        <ele>1526.3</ele>
        <time>2022-09-06T15:57:17Z</time>
      </trkpt>
      <trkpt lat="42.45603" lon="1.878231">
        <ele>1520.5</ele>
        <time>2022-09-06T15:57:24Z</time>
      </trkpt>
      <trkpt lat="42.455812" lon="1.87847">
        <ele>1516.3</ele>
        <time>2022-09-06T15:57:29Z</time>
      </trkpt>
      <trkpt lat="42.455611" lon="1.878507">
        <ele>1513.5</ele>
        <time>2022-09-06T15:57:33Z</time>
      </trkpt>
      <trkpt lat="42.455585" lon="1.878521">
        <ele>1513.3</ele>
        <time>2022-09-06T15:57:33Z</time>
      </trkpt>
      <trkpt lat="42.455497" lon="1.878545">
        <ele>1512</ele>
        <time>2022-09-06T15:57:35Z</time>
      </trkpt>
      <trkpt lat="42.455433" lon="1.878599">
        <ele>1510.8</ele>
        <time>2022-09-06T15:57:36Z</time>
      </trkpt>
      <trkpt lat="42.455413" lon="1.878631">
        <ele>1510</ele>
        <time>2022-09-06T15:57:37Z</time>
      </trkpt>
      <trkpt lat="42.455401" lon="1.878669">
        <ele>1509.5</ele>
        <time>2022-09-06T15:57:37Z</time>
      </trkpt>
      <trkpt lat="42.45538" lon="1.87875">
        <ele>1503.8</ele>
        <time>2022-09-06T15:57:39Z</time>
      </trkpt>
      <trkpt lat="42.45538" lon="1.87881">
        <ele>1503.8</ele>
        <time>2022-09-06T15:57:40Z</time>
      </trkpt>
      <trkpt lat="42.45539" lon="1.87885">
        <ele>1503.8</ele>
        <time>2022-09-06T15:57:41Z</time>
      </trkpt>
      <trkpt lat="42.4554" lon="1.87886">
        <ele>1503.8</ele>
        <time>2022-09-06T15:57:42Z</time>
      </trkpt>
      <trkpt lat="42.45542" lon="1.87887">
        <ele>1503.2</ele>
        <time>2022-09-06T15:57:43Z</time>
      </trkpt>
      <trkpt lat="42.45543" lon="1.87889">
        <ele>1503.2</ele>
        <time>2022-09-06T15:57:44Z</time>
      </trkpt>
      <trkpt lat="42.45545" lon="1.87892">
        <ele>1503.2</ele>
        <time>2022-09-06T15:57:45Z</time>
      </trkpt>
      <trkpt lat="42.45547" lon="1.87896">
        <ele>1503.2</ele>
        <time>2022-09-06T15:57:46Z</time>
      </trkpt>
      <trkpt lat="42.4555" lon="1.87901">
        <ele>1503</ele>
        <time>2022-09-06T15:57:47Z</time>
      </trkpt>
      <trkpt lat="42.45553" lon="1.87907">
        <ele>1503</ele>
        <time>2022-09-06T15:57:48Z</time>
      </trkpt>
      <trkpt lat="42.45556" lon="1.87911">
        <ele>1503</ele>
        <time>2022-09-06T15:57:49Z</time>
      </trkpt>
      <trkpt lat="42.45558" lon="1.87915">
        <ele>1503</ele>
        <time>2022-09-06T15:57:50Z</time>
      </trkpt>
      <trkpt lat="42.4556" lon="1.87918">
        <ele>1503</ele>
        <time>2022-09-06T15:57:51Z</time>
      </trkpt>
      <trkpt lat="42.45562" lon="1.87921">
        <ele>1502.6</ele>
        <time>2022-09-06T15:57:52Z</time>
      </trkpt>
      <trkpt lat="42.45563" lon="1.87925">
        <ele>1502.6</ele>
        <time>2022-09-06T15:57:53Z</time>
      </trkpt>
      <trkpt lat="42.45566" lon="1.87929">
        <ele>1502.6</ele>
        <time>2022-09-06T15:57:54Z</time>
      </trkpt>
      <trkpt lat="42.45568" lon="1.87934">
        <ele>1502.6</ele>
        <time>2022-09-06T15:57:55Z</time>
      </trkpt>
      <trkpt lat="42.45571" lon="1.87939">
        <ele>1502.6</ele>
        <time>2022-09-06T15:57:56Z</time>
      </trkpt>
      <trkpt lat="42.45574" lon="1.87945">
        <ele>1502.6</ele>
        <time>2022-09-06T15:57:57Z</time>
      </trkpt>
      <trkpt lat="42.45577" lon="1.87949">
        <ele>1502.6</ele>
        <time>2022-09-06T15:57:58Z</time>
      </trkpt>
      <trkpt lat="42.45581" lon="1.87954">
        <ele>1501.6</ele>
        <time>2022-09-06T15:57:59Z</time>
      </trkpt>
      <trkpt lat="42.45584" lon="1.87957">
        <ele>1501</ele>
        <time>2022-09-06T15:58:00Z</time>
      </trkpt>
      <trkpt lat="42.45588" lon="1.87961">
        <ele>1501</ele>
        <time>2022-09-06T15:58:01Z</time>
      </trkpt>
      <trkpt lat="42.45591" lon="1.87965">
        <ele>1501</ele>
        <time>2022-09-06T15:58:02Z</time>
      </trkpt>
      <trkpt lat="42.45595" lon="1.8797">
        <ele>1500</ele>
        <time>2022-09-06T15:58:03Z</time>
      </trkpt>
      <trkpt lat="42.45598" lon="1.87976">
        <ele>1498.6</ele>
        <time>2022-09-06T15:58:04Z</time>
      </trkpt>
      <trkpt lat="42.456" lon="1.87981">
        <ele>1498.6</ele>
        <time>2022-09-06T15:58:05Z</time>
      </trkpt>
      <trkpt lat="42.45601" lon="1.87988">
        <ele>1498.6</ele>
        <time>2022-09-06T15:58:06Z</time>
      </trkpt>
      <trkpt lat="42.45603" lon="1.87994">
        <ele>1498.6</ele>
        <time>2022-09-06T15:58:07Z</time>
      </trkpt>
      <trkpt lat="42.45606" lon="1.88001">
        <ele>1497.6</ele>
        <time>2022-09-06T15:58:08Z</time>
      </trkpt>
      <trkpt lat="42.45608" lon="1.88007">
        <ele>1494.2</ele>
        <time>2022-09-06T15:58:09Z</time>
      </trkpt>
      <trkpt lat="42.45609" lon="1.88013">
        <ele>1494.2</ele>
        <time>2022-09-06T15:58:10Z</time>
      </trkpt>
      <trkpt lat="42.45608" lon="1.8802">
        <ele>1494.2</ele>
        <time>2022-09-06T15:58:11Z</time>
      </trkpt>
      <trkpt lat="42.45605" lon="1.88027">
        <ele>1493.2</ele>
        <time>2022-09-06T15:58:12Z</time>
      </trkpt>
      <trkpt lat="42.456008" lon="1.880329">
        <ele>1491.3</ele>
        <time>2022-09-06T15:58:12Z</time>
      </trkpt>
      <trkpt lat="42.455675" lon="1.880554">
        <ele>1486.8</ele>
        <time>2022-09-06T15:58:17Z</time>
      </trkpt>
      <trkpt lat="42.455165" lon="1.880883">
        <ele>1477.5</ele>
        <time>2022-09-06T15:58:24Z</time>
      </trkpt>
      <trkpt lat="42.454859" lon="1.881148">
        <ele>1470.5</ele>
        <time>2022-09-06T15:58:29Z</time>
      </trkpt>
      <trkpt lat="42.45484" lon="1.881165">
        <ele>1470.3</ele>
        <time>2022-09-06T15:58:29Z</time>
      </trkpt>
      <trkpt lat="42.454614" lon="1.881364">
        <ele>1465.8</ele>
        <time>2022-09-06T15:58:33Z</time>
      </trkpt>
      <trkpt lat="42.454417" lon="1.881433">
        <ele>1464.3</ele>
        <time>2022-09-06T15:58:35Z</time>
      </trkpt>
      <trkpt lat="42.454209" lon="1.881639">
        <ele>1461.3</ele>
        <time>2022-09-06T15:58:39Z</time>
      </trkpt>
      <trkpt lat="42.453988" lon="1.881649">
        <ele>1459</ele>
        <time>2022-09-06T15:58:41Z</time>
      </trkpt>
      <trkpt lat="42.45387" lon="1.881622">
        <ele>1457.8</ele>
        <time>2022-09-06T15:58:43Z</time>
      </trkpt>
      <trkpt lat="42.453752" lon="1.881702">
        <ele>1455.3</ele>
        <time>2022-09-06T15:58:45Z</time>
      </trkpt>
      <trkpt lat="42.45367" lon="1.88173">
        <ele>1460.8</ele>
        <time>2022-09-06T15:58:46Z</time>
      </trkpt>
      <trkpt lat="42.4536" lon="1.8818">
        <ele>1460.8</ele>
        <time>2022-09-06T15:58:47Z</time>
      </trkpt>
      <trkpt lat="42.45353" lon="1.88187">
        <ele>1460.8</ele>
        <time>2022-09-06T15:58:48Z</time>
      </trkpt>
      <trkpt lat="42.45346" lon="1.88195">
        <ele>1459.8</ele>
        <time>2022-09-06T15:58:49Z</time>
      </trkpt>
      <trkpt lat="42.45339" lon="1.88203">
        <ele>1454</ele>
        <time>2022-09-06T15:58:50Z</time>
      </trkpt>
      <trkpt lat="42.45331" lon="1.8821">
        <ele>1454</ele>
        <time>2022-09-06T15:58:51Z</time>
      </trkpt>
      <trkpt lat="42.45323" lon="1.88216">
        <ele>1454</ele>
        <time>2022-09-06T15:58:52Z</time>
      </trkpt>
      <trkpt lat="42.45315" lon="1.88222">
        <ele>1453</ele>
        <time>2022-09-06T15:58:53Z</time>
      </trkpt>
      <trkpt lat="42.45306" lon="1.88227">
        <ele>1447.6</ele>
        <time>2022-09-06T15:58:54Z</time>
      </trkpt>
      <trkpt lat="42.45298" lon="1.88232">
        <ele>1447.6</ele>
        <time>2022-09-06T15:58:55Z</time>
      </trkpt>
      <trkpt lat="42.45292" lon="1.88238">
        <ele>1447.6</ele>
        <time>2022-09-06T15:58:56Z</time>
      </trkpt>
      <trkpt lat="42.45288" lon="1.88244">
        <ele>1447.6</ele>
        <time>2022-09-06T15:58:57Z</time>
      </trkpt>
      <trkpt lat="42.45285" lon="1.88251">
        <ele>1446.6</ele>
        <time>2022-09-06T15:58:58Z</time>
      </trkpt>
      <trkpt lat="42.45284" lon="1.88256">
        <ele>1445</ele>
        <time>2022-09-06T15:58:59Z</time>
      </trkpt>
      <trkpt lat="42.45284" lon="1.88261">
        <ele>1445</ele>
        <time>2022-09-06T15:59:00Z</time>
      </trkpt>
      <trkpt lat="42.45286" lon="1.88266">
        <ele>1445</ele>
        <time>2022-09-06T15:59:01Z</time>
      </trkpt>
      <trkpt lat="42.45289" lon="1.88268">
        <ele>1444</ele>
        <time>2022-09-06T15:59:02Z</time>
      </trkpt>
      <trkpt lat="42.45294" lon="1.88266">
        <ele>1444</ele>
        <time>2022-09-06T15:59:03Z</time>
      </trkpt>
      <trkpt lat="42.45299" lon="1.88263">
        <ele>1444</ele>
        <time>2022-09-06T15:59:04Z</time>
      </trkpt>
      <trkpt lat="42.45304" lon="1.88262">
        <ele>1444</ele>
        <time>2022-09-06T15:59:05Z</time>
      </trkpt>
      <trkpt lat="42.4531" lon="1.88262">
        <ele>1444</ele>
        <time>2022-09-06T15:59:06Z</time>
      </trkpt>
      <trkpt lat="42.45316" lon="1.88263">
        <ele>1444.4</ele>
        <time>2022-09-06T15:59:07Z</time>
      </trkpt>
      <trkpt lat="42.45324" lon="1.88263">
        <ele>1444.4</ele>
        <time>2022-09-06T15:59:08Z</time>
      </trkpt>
      <trkpt lat="42.45331" lon="1.88263">
        <ele>1444.4</ele>
        <time>2022-09-06T15:59:09Z</time>
      </trkpt>
      <trkpt lat="42.45338" lon="1.88264">
        <ele>1444.4</ele>
        <time>2022-09-06T15:59:10Z</time>
      </trkpt>
      <trkpt lat="42.45344" lon="1.88264">
        <ele>1441.8</ele>
        <time>2022-09-06T15:59:11Z</time>
      </trkpt>
      <trkpt lat="42.45351" lon="1.88265">
        <ele>1441.8</ele>
        <time>2022-09-06T15:59:12Z</time>
      </trkpt>
      <trkpt lat="42.45357" lon="1.88266">
        <ele>1441.8</ele>
        <time>2022-09-06T15:59:13Z</time>
      </trkpt>
      <trkpt lat="42.45363" lon="1.88267">
        <ele>1441.8</ele>
        <time>2022-09-06T15:59:14Z</time>
      </trkpt>
      <trkpt lat="42.4537" lon="1.88267">
        <ele>1441.8</ele>
        <time>2022-09-06T15:59:15Z</time>
      </trkpt>
      <trkpt lat="42.45377" lon="1.88267">
        <ele>1442.6</ele>
        <time>2022-09-06T15:59:16Z</time>
      </trkpt>
      <trkpt lat="42.45383" lon="1.88266">
        <ele>1442.6</ele>
        <time>2022-09-06T15:59:17Z</time>
      </trkpt>
      <trkpt lat="42.4539" lon="1.88264">
        <ele>1442.6</ele>
        <time>2022-09-06T15:59:18Z</time>
      </trkpt>
      <trkpt lat="42.45396" lon="1.88261">
        <ele>1441.6</ele>
        <time>2022-09-06T15:59:19Z</time>
      </trkpt>
      <trkpt lat="42.45402" lon="1.8826">
        <ele>1442</ele>
        <time>2022-09-06T15:59:20Z</time>
      </trkpt>
      <trkpt lat="42.45408" lon="1.88259">
        <ele>1442</ele>
        <time>2022-09-06T15:59:21Z</time>
      </trkpt>
      <trkpt lat="42.45414" lon="1.88259">
        <ele>1442</ele>
        <time>2022-09-06T15:59:22Z</time>
      </trkpt>
      <trkpt lat="42.4542" lon="1.88259">
        <ele>1441</ele>
        <time>2022-09-06T15:59:23Z</time>
      </trkpt>
      <trkpt lat="42.45426" lon="1.88258">
        <ele>1438.6</ele>
        <time>2022-09-06T15:59:24Z</time>
      </trkpt>
      <trkpt lat="42.45433" lon="1.88257">
        <ele>1438.6</ele>
        <time>2022-09-06T15:59:25Z</time>
      </trkpt>
      <trkpt lat="42.45439" lon="1.88256">
        <ele>1438.6</ele>
        <time>2022-09-06T15:59:26Z</time>
      </trkpt>
      <trkpt lat="42.45445" lon="1.88255">
        <ele>1439.6</ele>
        <time>2022-09-06T15:59:27Z</time>
      </trkpt>
      <trkpt lat="42.45451" lon="1.88255">
        <ele>1440.2</ele>
        <time>2022-09-06T15:59:28Z</time>
      </trkpt>
      <trkpt lat="42.45457" lon="1.88253">
        <ele>1440.2</ele>
        <time>2022-09-06T15:59:29Z</time>
      </trkpt>
      <trkpt lat="42.45463" lon="1.88252">
        <ele>1440.2</ele>
        <time>2022-09-06T15:59:30Z</time>
      </trkpt>
      <trkpt lat="42.45469" lon="1.8825">
        <ele>1440.2</ele>
        <time>2022-09-06T15:59:31Z</time>
      </trkpt>
      <trkpt lat="42.45474" lon="1.88248">
        <ele>1440.2</ele>
        <time>2022-09-06T15:59:32Z</time>
      </trkpt>
      <trkpt lat="42.4548" lon="1.88247">
        <ele>1441.2</ele>
        <time>2022-09-06T15:59:33Z</time>
      </trkpt>
      <trkpt lat="42.45486" lon="1.88245">
        <ele>1441.2</ele>
        <time>2022-09-06T15:59:34Z</time>
      </trkpt>
      <trkpt lat="42.45492" lon="1.88243">
        <ele>1441.2</ele>
        <time>2022-09-06T15:59:35Z</time>
      </trkpt>
      <trkpt lat="42.45497" lon="1.8824">
        <ele>1441.2</ele>
        <time>2022-09-06T15:59:36Z</time>
      </trkpt>
      <trkpt lat="42.45502" lon="1.88237">
        <ele>1444</ele>
        <time>2022-09-06T15:59:37Z</time>
      </trkpt>
      <trkpt lat="42.45507" lon="1.88234">
        <ele>1444</ele>
        <time>2022-09-06T15:59:38Z</time>
      </trkpt>
      <trkpt lat="42.4551" lon="1.88231">
        <ele>1444</ele>
        <time>2022-09-06T15:59:39Z</time>
      </trkpt>
      <trkpt lat="42.45514" lon="1.88228">
        <ele>1444</ele>
        <time>2022-09-06T15:59:40Z</time>
      </trkpt>
      <trkpt lat="42.45518" lon="1.88226">
        <ele>1447</ele>
        <time>2022-09-06T15:59:41Z</time>
      </trkpt>
      <trkpt lat="42.45522" lon="1.88223">
        <ele>1447</ele>
        <time>2022-09-06T15:59:42Z</time>
      </trkpt>
      <trkpt lat="42.45526" lon="1.8822">
        <ele>1447</ele>
        <time>2022-09-06T15:59:43Z</time>
      </trkpt>
      <trkpt lat="42.4553" lon="1.88217">
        <ele>1447</ele>
        <time>2022-09-06T15:59:44Z</time>
      </trkpt>
      <trkpt lat="42.45535" lon="1.88214">
        <ele>1446.6</ele>
        <time>2022-09-06T15:59:45Z</time>
      </trkpt>
      <trkpt lat="42.45539" lon="1.88212">
        <ele>1446.6</ele>
        <time>2022-09-06T15:59:46Z</time>
      </trkpt>
      <trkpt lat="42.45544" lon="1.8821">
        <ele>1446.6</ele>
        <time>2022-09-06T15:59:47Z</time>
      </trkpt>
      <trkpt lat="42.45548" lon="1.88208">
        <ele>1447.6</ele>
        <time>2022-09-06T15:59:48Z</time>
      </trkpt>
      <trkpt lat="42.45552" lon="1.88206">
        <ele>1447.4</ele>
        <time>2022-09-06T15:59:49Z</time>
      </trkpt>
      <trkpt lat="42.45556" lon="1.88205">
        <ele>1447.4</ele>
        <time>2022-09-06T15:59:50Z</time>
      </trkpt>
      <trkpt lat="42.45561" lon="1.88204">
        <ele>1447.4</ele>
        <time>2022-09-06T15:59:51Z</time>
      </trkpt>
      <trkpt lat="42.45567" lon="1.88204">
        <ele>1447.4</ele>
        <time>2022-09-06T15:59:52Z</time>
      </trkpt>
      <trkpt lat="42.45572" lon="1.88203">
        <ele>1448.4</ele>
        <time>2022-09-06T15:59:53Z</time>
      </trkpt>
      <trkpt lat="42.45578" lon="1.88201">
        <ele>1448.8</ele>
        <time>2022-09-06T15:59:54Z</time>
      </trkpt>
      <trkpt lat="42.45584" lon="1.88199">
        <ele>1448.8</ele>
        <time>2022-09-06T15:59:55Z</time>
      </trkpt>
      <trkpt lat="42.4559" lon="1.88197">
        <ele>1448.8</ele>
        <time>2022-09-06T15:59:56Z</time>
      </trkpt>
      <trkpt lat="42.45596" lon="1.88194">
        <ele>1449.8</ele>
        <time>2022-09-06T15:59:57Z</time>
      </trkpt>
      <trkpt lat="42.45601" lon="1.88191">
        <ele>1447.8</ele>
        <time>2022-09-06T15:59:58Z</time>
      </trkpt>
      <trkpt lat="42.45607" lon="1.88188">
        <ele>1447.8</ele>
        <time>2022-09-06T15:59:59Z</time>
      </trkpt>
      <trkpt lat="42.45612" lon="1.88185">
        <ele>1447.8</ele>
        <time>2022-09-06T16:00:00Z</time>
      </trkpt>
      <trkpt lat="42.45617" lon="1.88182">
        <ele>1447.8</ele>
        <time>2022-09-06T16:00:01Z</time>
      </trkpt>
      <trkpt lat="42.45622" lon="1.88179">
        <ele>1450.2</ele>
        <time>2022-09-06T16:00:02Z</time>
      </trkpt>
      <trkpt lat="42.45627" lon="1.88177">
        <ele>1450.2</ele>
        <time>2022-09-06T16:00:03Z</time>
      </trkpt>
      <trkpt lat="42.45632" lon="1.88175">
        <ele>1450.2</ele>
        <time>2022-09-06T16:00:04Z</time>
      </trkpt>
      <trkpt lat="42.45637" lon="1.88174">
        <ele>1450.2</ele>
        <time>2022-09-06T16:00:05Z</time>
      </trkpt>
      <trkpt lat="42.45642" lon="1.88173">
        <ele>1451.2</ele>
        <time>2022-09-06T16:00:06Z</time>
      </trkpt>
      <trkpt lat="42.45647" lon="1.88172">
        <ele>1451.2</ele>
        <time>2022-09-06T16:00:07Z</time>
      </trkpt>
      <trkpt lat="42.45652" lon="1.88171">
        <ele>1451.2</ele>
        <time>2022-09-06T16:00:08Z</time>
      </trkpt>
      <trkpt lat="42.45658" lon="1.88169">
        <ele>1452</ele>
        <time>2022-09-06T16:00:09Z</time>
      </trkpt>
      <trkpt lat="42.45664" lon="1.88167">
        <ele>1452.8</ele>
        <time>2022-09-06T16:00:10Z</time>
      </trkpt>
      <trkpt lat="42.4567" lon="1.88167">
        <ele>1452.8</ele>
        <time>2022-09-06T16:00:11Z</time>
      </trkpt>
      <trkpt lat="42.45676" lon="1.88167">
        <ele>1452.8</ele>
        <time>2022-09-06T16:00:12Z</time>
      </trkpt>
      <trkpt lat="42.45683" lon="1.88167">
        <ele>1452.8</ele>
        <time>2022-09-06T16:00:13Z</time>
      </trkpt>
      <trkpt lat="42.4569" lon="1.88167">
        <ele>1451.8</ele>
        <time>2022-09-06T16:00:14Z</time>
      </trkpt>
      <trkpt lat="42.45697" lon="1.88168">
        <ele>1451.6</ele>
        <time>2022-09-06T16:00:15Z</time>
      </trkpt>
      <trkpt lat="42.45704" lon="1.88168">
        <ele>1451.6</ele>
        <time>2022-09-06T16:00:16Z</time>
      </trkpt>
      <trkpt lat="42.4571" lon="1.88169">
        <ele>1451.6</ele>
        <time>2022-09-06T16:00:17Z</time>
      </trkpt>
      <trkpt lat="42.45716" lon="1.8817">
        <ele>1451.6</ele>
        <time>2022-09-06T16:00:18Z</time>
      </trkpt>
      <trkpt lat="42.45723" lon="1.88171">
        <ele>1452.8</ele>
        <time>2022-09-06T16:00:19Z</time>
      </trkpt>
      <trkpt lat="42.45729" lon="1.88171">
        <ele>1452.8</ele>
        <time>2022-09-06T16:00:20Z</time>
      </trkpt>
      <trkpt lat="42.45735" lon="1.8817">
        <ele>1452.8</ele>
        <time>2022-09-06T16:00:21Z</time>
      </trkpt>
      <trkpt lat="42.45741" lon="1.88168">
        <ele>1452.8</ele>
        <time>2022-09-06T16:00:22Z</time>
      </trkpt>
      <trkpt lat="42.45747" lon="1.88166">
        <ele>1454.8</ele>
        <time>2022-09-06T16:00:23Z</time>
      </trkpt>
      <trkpt lat="42.45752" lon="1.88166">
        <ele>1454.8</ele>
        <time>2022-09-06T16:00:24Z</time>
      </trkpt>
      <trkpt lat="42.45757" lon="1.88167">
        <ele>1454.8</ele>
        <time>2022-09-06T16:00:25Z</time>
      </trkpt>
      <trkpt lat="42.45762" lon="1.88167">
        <ele>1453.8</ele>
        <time>2022-09-06T16:00:26Z</time>
      </trkpt>
      <trkpt lat="42.45767" lon="1.88166">
        <ele>1456.4</ele>
        <time>2022-09-06T16:00:27Z</time>
      </trkpt>
      <trkpt lat="42.45772" lon="1.88165">
        <ele>1456.4</ele>
        <time>2022-09-06T16:00:28Z</time>
      </trkpt>
      <trkpt lat="42.45776" lon="1.88164">
        <ele>1456.4</ele>
        <time>2022-09-06T16:00:29Z</time>
      </trkpt>
      <trkpt lat="42.45781" lon="1.88162">
        <ele>1456.4</ele>
        <time>2022-09-06T16:00:30Z</time>
      </trkpt>
      <trkpt lat="42.45786" lon="1.88159">
        <ele>1455.4</ele>
        <time>2022-09-06T16:00:31Z</time>
      </trkpt>
      <trkpt lat="42.45792" lon="1.88157">
        <ele>1455.4</ele>
        <time>2022-09-06T16:00:32Z</time>
      </trkpt>
      <trkpt lat="42.45797" lon="1.88154">
        <ele>1455.4</ele>
        <time>2022-09-06T16:00:33Z</time>
      </trkpt>
      <trkpt lat="42.45802" lon="1.8815">
        <ele>1455.4</ele>
        <time>2022-09-06T16:00:34Z</time>
      </trkpt>
      <trkpt lat="42.45806" lon="1.88144">
        <ele>1454.2</ele>
        <time>2022-09-06T16:00:35Z</time>
      </trkpt>
      <trkpt lat="42.45811" lon="1.88138">
        <ele>1454.2</ele>
        <time>2022-09-06T16:00:36Z</time>
      </trkpt>
      <trkpt lat="42.45816" lon="1.88132">
        <ele>1454.2</ele>
        <time>2022-09-06T16:00:37Z</time>
      </trkpt>
      <trkpt lat="42.4582" lon="1.88126">
        <ele>1455.2</ele>
        <time>2022-09-06T16:00:38Z</time>
      </trkpt>
      <trkpt lat="42.45824" lon="1.8812">
        <ele>1455.2</ele>
        <time>2022-09-06T16:00:39Z</time>
      </trkpt>
      <trkpt lat="42.45829" lon="1.88115">
        <ele>1455.6</ele>
        <time>2022-09-06T16:00:40Z</time>
      </trkpt>
      <trkpt lat="42.45834" lon="1.88109">
        <ele>1455.6</ele>
        <time>2022-09-06T16:00:41Z</time>
      </trkpt>
      <trkpt lat="42.45838" lon="1.88104">
        <ele>1455.6</ele>
        <time>2022-09-06T16:00:42Z</time>
      </trkpt>
      <trkpt lat="42.45843" lon="1.88098">
        <ele>1455.6</ele>
        <time>2022-09-06T16:00:43Z</time>
      </trkpt>
      <trkpt lat="42.45848" lon="1.88093">
        <ele>1454.8</ele>
        <time>2022-09-06T16:00:44Z</time>
      </trkpt>
      <trkpt lat="42.45853" lon="1.88087">
        <ele>1454.8</ele>
        <time>2022-09-06T16:00:45Z</time>
      </trkpt>
      <trkpt lat="42.45858" lon="1.88082">
        <ele>1454.8</ele>
        <time>2022-09-06T16:00:46Z</time>
      </trkpt>
      <trkpt lat="42.45863" lon="1.88077">
        <ele>1455.8</ele>
        <time>2022-09-06T16:00:47Z</time>
      </trkpt>
      <trkpt lat="42.45868" lon="1.88072">
        <ele>1457</ele>
        <time>2022-09-06T16:00:48Z</time>
      </trkpt>
      <trkpt lat="42.45873" lon="1.88068">
        <ele>1457</ele>
        <time>2022-09-06T16:00:49Z</time>
      </trkpt>
      <trkpt lat="42.45879" lon="1.88064">
        <ele>1457</ele>
        <time>2022-09-06T16:00:50Z</time>
      </trkpt>
      <trkpt lat="42.45885" lon="1.88058">
        <ele>1456</ele>
        <time>2022-09-06T16:00:51Z</time>
      </trkpt>
      <trkpt lat="42.45889" lon="1.88051">
        <ele>1455</ele>
        <time>2022-09-06T16:00:52Z</time>
      </trkpt>
      <trkpt lat="42.45893" lon="1.88044">
        <ele>1455</ele>
        <time>2022-09-06T16:00:53Z</time>
      </trkpt>
      <trkpt lat="42.45897" lon="1.88037">
        <ele>1455</ele>
        <time>2022-09-06T16:00:54Z</time>
      </trkpt>
      <trkpt lat="42.45902" lon="1.88031">
        <ele>1455</ele>
        <time>2022-09-06T16:00:55Z</time>
      </trkpt>
      <trkpt lat="42.45906" lon="1.88024">
        <ele>1454.8</ele>
        <time>2022-09-06T16:00:56Z</time>
      </trkpt>
      <trkpt lat="42.45911" lon="1.88018">
        <ele>1454.6</ele>
        <time>2022-09-06T16:00:57Z</time>
      </trkpt>
      <trkpt lat="42.45916" lon="1.88013">
        <ele>1454.6</ele>
        <time>2022-09-06T16:00:58Z</time>
      </trkpt>
      <trkpt lat="42.45921" lon="1.88008">
        <ele>1454.6</ele>
        <time>2022-09-06T16:00:59Z</time>
      </trkpt>
      <trkpt lat="42.45926" lon="1.88003">
        <ele>1454.2</ele>
        <time>2022-09-06T16:01:00Z</time>
      </trkpt>
      <trkpt lat="42.45931" lon="1.87998">
        <ele>1454.6</ele>
        <time>2022-09-06T16:01:01Z</time>
      </trkpt>
      <trkpt lat="42.45937" lon="1.87993">
        <ele>1454.6</ele>
        <time>2022-09-06T16:01:02Z</time>
      </trkpt>
      <trkpt lat="42.45942" lon="1.87989">
        <ele>1454.6</ele>
        <time>2022-09-06T16:01:03Z</time>
      </trkpt>
      <trkpt lat="42.45948" lon="1.87984">
        <ele>1453.6</ele>
        <time>2022-09-06T16:01:04Z</time>
      </trkpt>
      <trkpt lat="42.45954" lon="1.87979">
        <ele>1453.2</ele>
        <time>2022-09-06T16:01:05Z</time>
      </trkpt>
      <trkpt lat="42.45959" lon="1.87975">
        <ele>1453.2</ele>
        <time>2022-09-06T16:01:06Z</time>
      </trkpt>
      <trkpt lat="42.45965" lon="1.87971">
        <ele>1453.2</ele>
        <time>2022-09-06T16:01:07Z</time>
      </trkpt>
      <trkpt lat="42.4597" lon="1.87966">
        <ele>1453.2</ele>
        <time>2022-09-06T16:01:08Z</time>
      </trkpt>
      <trkpt lat="42.45974" lon="1.8796">
        <ele>1454.2</ele>
        <time>2022-09-06T16:01:09Z</time>
      </trkpt>
      <trkpt lat="42.45978" lon="1.87955">
        <ele>1454.4</ele>
        <time>2022-09-06T16:01:10Z</time>
      </trkpt>
      <trkpt lat="42.45982" lon="1.8795">
        <ele>1454.4</ele>
        <time>2022-09-06T16:01:11Z</time>
      </trkpt>
      <trkpt lat="42.45987" lon="1.87945">
        <ele>1454.4</ele>
        <time>2022-09-06T16:01:12Z</time>
      </trkpt>
      <trkpt lat="42.45991" lon="1.87941">
        <ele>1455.4</ele>
        <time>2022-09-06T16:01:13Z</time>
      </trkpt>
      <trkpt lat="42.45995" lon="1.87936">
        <ele>1456.8</ele>
        <time>2022-09-06T16:01:14Z</time>
      </trkpt>
      <trkpt lat="42.45999" lon="1.87932">
        <ele>1456.8</ele>
        <time>2022-09-06T16:01:15Z</time>
      </trkpt>
      <trkpt lat="42.46004" lon="1.87928">
        <ele>1456.8</ele>
        <time>2022-09-06T16:01:16Z</time>
      </trkpt>
      <trkpt lat="42.4601" lon="1.87925">
        <ele>1455.8</ele>
        <time>2022-09-06T16:01:17Z</time>
      </trkpt>
      <trkpt lat="42.46017" lon="1.8792">
        <ele>1452.2</ele>
        <time>2022-09-06T16:01:18Z</time>
      </trkpt>
      <trkpt lat="42.46024" lon="1.87915">
        <ele>1452.2</ele>
        <time>2022-09-06T16:01:19Z</time>
      </trkpt>
      <trkpt lat="42.46031" lon="1.87909">
        <ele>1452.2</ele>
        <time>2022-09-06T16:01:20Z</time>
      </trkpt>
      <trkpt lat="42.46039" lon="1.87904">
        <ele>1451.2</ele>
        <time>2022-09-06T16:01:21Z</time>
      </trkpt>
      <trkpt lat="42.46047" lon="1.87897">
        <ele>1449.4</ele>
        <time>2022-09-06T16:01:22Z</time>
      </trkpt>
      <trkpt lat="42.46054" lon="1.8789">
        <ele>1449.4</ele>
        <time>2022-09-06T16:01:23Z</time>
      </trkpt>
      <trkpt lat="42.4606" lon="1.87885">
        <ele>1449.4</ele>
        <time>2022-09-06T16:01:24Z</time>
      </trkpt>
      <trkpt lat="42.46067" lon="1.87886">
        <ele>1449.4</ele>
        <time>2022-09-06T16:01:25Z</time>
      </trkpt>
      <trkpt lat="42.46071" lon="1.87891">
        <ele>1449.4</ele>
        <time>2022-09-06T16:01:26Z</time>
      </trkpt>
      <trkpt lat="42.46076" lon="1.87895">
        <ele>1447.4</ele>
        <time>2022-09-06T16:01:27Z</time>
      </trkpt>
      <trkpt lat="42.4608" lon="1.87899">
        <ele>1447.4</ele>
        <time>2022-09-06T16:01:28Z</time>
      </trkpt>
      <trkpt lat="42.46082" lon="1.87903">
        <ele>1447.4</ele>
        <time>2022-09-06T16:01:29Z</time>
      </trkpt>
      <trkpt lat="42.46083" lon="1.87909">
        <ele>1447.4</ele>
        <time>2022-09-06T16:01:30Z</time>
      </trkpt>
      <trkpt lat="42.46082" lon="1.87914">
        <ele>1447.8</ele>
        <time>2022-09-06T16:01:31Z</time>
      </trkpt>
      <trkpt lat="42.4608" lon="1.8792">
        <ele>1447.8</ele>
        <time>2022-09-06T16:01:32Z</time>
      </trkpt>
      <trkpt lat="42.46079" lon="1.87926">
        <ele>1447.8</ele>
        <time>2022-09-06T16:01:33Z</time>
      </trkpt>
      <trkpt lat="42.46078" lon="1.87932">
        <ele>1447.8</ele>
        <time>2022-09-06T16:01:34Z</time>
      </trkpt>
      <trkpt lat="42.46075" lon="1.87938">
        <ele>1448.6</ele>
        <time>2022-09-06T16:01:35Z</time>
      </trkpt>
      <trkpt lat="42.46073" lon="1.87944">
        <ele>1448.6</ele>
        <time>2022-09-06T16:01:36Z</time>
      </trkpt>
      <trkpt lat="42.46069" lon="1.87951">
        <ele>1448.6</ele>
        <time>2022-09-06T16:01:37Z</time>
      </trkpt>
      <trkpt lat="42.46065" lon="1.87958">
        <ele>1447.6</ele>
        <time>2022-09-06T16:01:38Z</time>
      </trkpt>
      <trkpt lat="42.46061" lon="1.87966">
        <ele>1445</ele>
        <time>2022-09-06T16:01:39Z</time>
      </trkpt>
      <trkpt lat="42.46057" lon="1.87975">
        <ele>1445</ele>
        <time>2022-09-06T16:01:40Z</time>
      </trkpt>
      <trkpt lat="42.46054" lon="1.87984">
        <ele>1445</ele>
        <time>2022-09-06T16:01:41Z</time>
      </trkpt>
      <trkpt lat="42.4605" lon="1.87993">
        <ele>1445</ele>
        <time>2022-09-06T16:01:42Z</time>
      </trkpt>
      <trkpt lat="42.46046" lon="1.88001">
        <ele>1444.8</ele>
        <time>2022-09-06T16:01:43Z</time>
      </trkpt>
      <trkpt lat="42.46042" lon="1.8801">
        <ele>1444.8</ele>
        <time>2022-09-06T16:01:44Z</time>
      </trkpt>
      <trkpt lat="42.46039" lon="1.88018">
        <ele>1444.8</ele>
        <time>2022-09-06T16:01:45Z</time>
      </trkpt>
      <trkpt lat="42.46035" lon="1.88027">
        <ele>1444.8</ele>
        <time>2022-09-06T16:01:46Z</time>
      </trkpt>
      <trkpt lat="42.46032" lon="1.88035">
        <ele>1444.8</ele>
        <time>2022-09-06T16:01:47Z</time>
      </trkpt>
      <trkpt lat="42.46028" lon="1.88043">
        <ele>1444.8</ele>
        <time>2022-09-06T16:01:48Z</time>
      </trkpt>
      <trkpt lat="42.46025" lon="1.88051">
        <ele>1444.8</ele>
        <time>2022-09-06T16:01:49Z</time>
      </trkpt>
      <trkpt lat="42.46021" lon="1.88059">
        <ele>1444.8</ele>
        <time>2022-09-06T16:01:50Z</time>
      </trkpt>
      <trkpt lat="42.46018" lon="1.88067">
        <ele>1444.8</ele>
        <time>2022-09-06T16:01:51Z</time>
      </trkpt>
      <trkpt lat="42.46013" lon="1.88076">
        <ele>1442.6</ele>
        <time>2022-09-06T16:01:52Z</time>
      </trkpt>
      <trkpt lat="42.46009" lon="1.88084">
        <ele>1442.6</ele>
        <time>2022-09-06T16:01:53Z</time>
      </trkpt>
      <trkpt lat="42.46004" lon="1.88092">
        <ele>1442.6</ele>
        <time>2022-09-06T16:01:54Z</time>
      </trkpt>
      <trkpt lat="42.46" lon="1.88101">
        <ele>1443.2</ele>
        <time>2022-09-06T16:01:55Z</time>
      </trkpt>
      <trkpt lat="42.45995" lon="1.88109">
        <ele>1442.6</ele>
        <time>2022-09-06T16:01:56Z</time>
      </trkpt>
      <trkpt lat="42.45991" lon="1.88117">
        <ele>1442.6</ele>
        <time>2022-09-06T16:01:57Z</time>
      </trkpt>
      <trkpt lat="42.45985" lon="1.88124">
        <ele>1442.6</ele>
        <time>2022-09-06T16:01:58Z</time>
      </trkpt>
      <trkpt lat="42.4598" lon="1.88132">
        <ele>1442.6</ele>
        <time>2022-09-06T16:01:59Z</time>
      </trkpt>
      <trkpt lat="42.45976" lon="1.88139">
        <ele>1444.2</ele>
        <time>2022-09-06T16:02:00Z</time>
      </trkpt>
      <trkpt lat="42.45971" lon="1.88146">
        <ele>1444.2</ele>
        <time>2022-09-06T16:02:01Z</time>
      </trkpt>
      <trkpt lat="42.45965" lon="1.88152">
        <ele>1444.2</ele>
        <time>2022-09-06T16:02:02Z</time>
      </trkpt>
      <trkpt lat="42.4596" lon="1.88158">
        <ele>1443.2</ele>
        <time>2022-09-06T16:02:03Z</time>
      </trkpt>
      <trkpt lat="42.45955" lon="1.88166">
        <ele>1443.2</ele>
        <time>2022-09-06T16:02:04Z</time>
      </trkpt>
      <trkpt lat="42.45952" lon="1.88175">
        <ele>1441.2</ele>
        <time>2022-09-06T16:02:05Z</time>
      </trkpt>
      <trkpt lat="42.4595" lon="1.88184">
        <ele>1441.2</ele>
        <time>2022-09-06T16:02:06Z</time>
      </trkpt>
      <trkpt lat="42.45949" lon="1.88195">
        <ele>1441.2</ele>
        <time>2022-09-06T16:02:07Z</time>
      </trkpt>
      <trkpt lat="42.45948" lon="1.88205">
        <ele>1441.2</ele>
        <time>2022-09-06T16:02:08Z</time>
      </trkpt>
      <trkpt lat="42.45946" lon="1.88216">
        <ele>1440.8</ele>
        <time>2022-09-06T16:02:09Z</time>
      </trkpt>
      <trkpt lat="42.45944" lon="1.88226">
        <ele>1440.8</ele>
        <time>2022-09-06T16:02:10Z</time>
      </trkpt>
      <trkpt lat="42.45941" lon="1.88235">
        <ele>1440.8</ele>
        <time>2022-09-06T16:02:11Z</time>
      </trkpt>
      <trkpt lat="42.45938" lon="1.88245">
        <ele>1440.8</ele>
        <time>2022-09-06T16:02:12Z</time>
      </trkpt>
      <trkpt lat="42.45934" lon="1.88255">
        <ele>1434.8</ele>
        <time>2022-09-06T16:02:13Z</time>
      </trkpt>
      <trkpt lat="42.45931" lon="1.88265">
        <ele>1434.8</ele>
        <time>2022-09-06T16:02:14Z</time>
      </trkpt>
      <trkpt lat="42.4593" lon="1.88275">
        <ele>1434.8</ele>
        <time>2022-09-06T16:02:15Z</time>
      </trkpt>
      <trkpt lat="42.45932" lon="1.88283">
        <ele>1434.8</ele>
        <time>2022-09-06T16:02:16Z</time>
      </trkpt>
      <trkpt lat="42.45937" lon="1.8829">
        <ele>1435.8</ele>
        <time>2022-09-06T16:02:17Z</time>
      </trkpt>
      <trkpt lat="42.45941" lon="1.88298">
        <ele>1433.6</ele>
        <time>2022-09-06T16:02:18Z</time>
      </trkpt>
      <trkpt lat="42.45943" lon="1.88305">
        <ele>1433.6</ele>
        <time>2022-09-06T16:02:19Z</time>
      </trkpt>
      <trkpt lat="42.45943" lon="1.88313">
        <ele>1433.6</ele>
        <time>2022-09-06T16:02:20Z</time>
      </trkpt>
      <trkpt lat="42.45941" lon="1.88321">
        <ele>1433.6</ele>
        <time>2022-09-06T16:02:21Z</time>
      </trkpt>
      <trkpt lat="42.45937" lon="1.8833">
        <ele>1426.6</ele>
        <time>2022-09-06T16:02:22Z</time>
      </trkpt>
      <trkpt lat="42.45931" lon="1.88339">
        <ele>1426.6</ele>
        <time>2022-09-06T16:02:23Z</time>
      </trkpt>
      <trkpt lat="42.45927" lon="1.8835">
        <ele>1426.6</ele>
        <time>2022-09-06T16:02:24Z</time>
      </trkpt>
      <trkpt lat="42.45923" lon="1.88362">
        <ele>1425.6</ele>
        <time>2022-09-06T16:02:25Z</time>
      </trkpt>
      <trkpt lat="42.45919" lon="1.88374">
        <ele>1420.2</ele>
        <time>2022-09-06T16:02:26Z</time>
      </trkpt>
      <trkpt lat="42.45915" lon="1.88385">
        <ele>1420.2</ele>
        <time>2022-09-06T16:02:27Z</time>
      </trkpt>
      <trkpt lat="42.4591" lon="1.88397">
        <ele>1420.2</ele>
        <time>2022-09-06T16:02:28Z</time>
      </trkpt>
      <trkpt lat="42.45905" lon="1.8841">
        <ele>1420.2</ele>
        <time>2022-09-06T16:02:29Z</time>
      </trkpt>
      <trkpt lat="42.459" lon="1.88424">
        <ele>1419.2</ele>
        <time>2022-09-06T16:02:30Z</time>
      </trkpt>
      <trkpt lat="42.45894" lon="1.88438">
        <ele>1411.4</ele>
        <time>2022-09-06T16:02:31Z</time>
      </trkpt>
      <trkpt lat="42.45888" lon="1.88452">
        <ele>1411.4</ele>
        <time>2022-09-06T16:02:32Z</time>
      </trkpt>
      <trkpt lat="42.45882" lon="1.88466">
        <ele>1411.4</ele>
        <time>2022-09-06T16:02:33Z</time>
      </trkpt>
      <trkpt lat="42.45876" lon="1.8848">
        <ele>1411.4</ele>
        <time>2022-09-06T16:02:34Z</time>
      </trkpt>
      <trkpt lat="42.45871" lon="1.88494">
        <ele>1404.8</ele>
        <time>2022-09-06T16:02:35Z</time>
      </trkpt>
      <trkpt lat="42.45866" lon="1.88509">
        <ele>1404.8</ele>
        <time>2022-09-06T16:02:36Z</time>
      </trkpt>
      <trkpt lat="42.45862" lon="1.88524">
        <ele>1404.8</ele>
        <time>2022-09-06T16:02:37Z</time>
      </trkpt>
      <trkpt lat="42.45858" lon="1.88538">
        <ele>1404.8</ele>
        <time>2022-09-06T16:02:38Z</time>
      </trkpt>
      <trkpt lat="42.45852" lon="1.88551">
        <ele>1397</ele>
        <time>2022-09-06T16:02:39Z</time>
      </trkpt>
      <trkpt lat="42.45846" lon="1.88563">
        <ele>1397</ele>
        <time>2022-09-06T16:02:40Z</time>
      </trkpt>
      <trkpt lat="42.4584" lon="1.88576">
        <ele>1397</ele>
        <time>2022-09-06T16:02:41Z</time>
      </trkpt>
      <trkpt lat="42.45833" lon="1.88589">
        <ele>1397</ele>
        <time>2022-09-06T16:02:42Z</time>
      </trkpt>
      <trkpt lat="42.45826" lon="1.88601">
        <ele>1396</ele>
        <time>2022-09-06T16:02:43Z</time>
      </trkpt>
      <trkpt lat="42.4582" lon="1.88614">
        <ele>1391.2</ele>
        <time>2022-09-06T16:02:44Z</time>
      </trkpt>
      <trkpt lat="42.45813" lon="1.88624">
        <ele>1391.2</ele>
        <time>2022-09-06T16:02:45Z</time>
      </trkpt>
      <trkpt lat="42.45805" lon="1.88633">
        <ele>1391.2</ele>
        <time>2022-09-06T16:02:46Z</time>
      </trkpt>
      <trkpt lat="42.45798" lon="1.88643">
        <ele>1390.2</ele>
        <time>2022-09-06T16:02:47Z</time>
      </trkpt>
      <trkpt lat="42.45792" lon="1.88653">
        <ele>1385.4</ele>
        <time>2022-09-06T16:02:48Z</time>
      </trkpt>
      <trkpt lat="42.45785" lon="1.88664">
        <ele>1385.4</ele>
        <time>2022-09-06T16:02:49Z</time>
      </trkpt>
      <trkpt lat="42.45778" lon="1.88674">
        <ele>1385.4</ele>
        <time>2022-09-06T16:02:50Z</time>
      </trkpt>
      <trkpt lat="42.45769" lon="1.88684">
        <ele>1384.4</ele>
        <time>2022-09-06T16:02:51Z</time>
      </trkpt>
      <trkpt lat="42.45761" lon="1.88696">
        <ele>1373.8</ele>
        <time>2022-09-06T16:02:52Z</time>
      </trkpt>
      <trkpt lat="42.45754" lon="1.88709">
        <ele>1373.8</ele>
        <time>2022-09-06T16:02:53Z</time>
      </trkpt>
      <trkpt lat="42.45747" lon="1.88722">
        <ele>1373.8</ele>
        <time>2022-09-06T16:02:54Z</time>
      </trkpt>
      <trkpt lat="42.4574" lon="1.88736">
        <ele>1372.8</ele>
        <time>2022-09-06T16:02:55Z</time>
      </trkpt>
      <trkpt lat="42.45735" lon="1.88749">
        <ele>1366.4</ele>
        <time>2022-09-06T16:02:56Z</time>
      </trkpt>
      <trkpt lat="42.45729" lon="1.88762">
        <ele>1366.4</ele>
        <time>2022-09-06T16:02:57Z</time>
      </trkpt>
      <trkpt lat="42.45724" lon="1.88773">
        <ele>1366.4</ele>
        <time>2022-09-06T16:02:58Z</time>
      </trkpt>
      <trkpt lat="42.45719" lon="1.88782">
        <ele>1366.4</ele>
        <time>2022-09-06T16:02:59Z</time>
      </trkpt>
      <trkpt lat="42.45714" lon="1.88789">
        <ele>1362.2</ele>
        <time>2022-09-06T16:03:00Z</time>
      </trkpt>
      <trkpt lat="42.457104" lon="1.887942">
        <ele>1345</ele>
        <time>2022-09-06T16:03:01Z</time>
      </trkpt>
      <trkpt lat="42.457083" lon="1.88801">
        <ele>1344</ele>
        <time>2022-09-06T16:03:02Z</time>
      </trkpt>
      <trkpt lat="42.45715" lon="1.887999">
        <ele>1344.3</ele>
        <time>2022-09-06T16:03:03Z</time>
      </trkpt>
      <trkpt lat="42.457277" lon="1.887941">
        <ele>1345.3</ele>
        <time>2022-09-06T16:03:06Z</time>
      </trkpt>
      <trkpt lat="42.457448" lon="1.887828">
        <ele>1348</ele>
        <time>2022-09-06T16:03:10Z</time>
      </trkpt>
      <trkpt lat="42.457503" lon="1.887792">
        <ele>1349</ele>
        <time>2022-09-06T16:03:12Z</time>
      </trkpt>
      <trkpt lat="42.458011" lon="1.887434">
        <ele>1345.8</ele>
        <time>2022-09-06T16:03:24Z</time>
      </trkpt>
      <trkpt lat="42.458282" lon="1.887303">
        <ele>1343.3</ele>
        <time>2022-09-06T16:03:31Z</time>
      </trkpt>
      <trkpt lat="42.458529" lon="1.887206">
        <ele>1339.8</ele>
        <time>2022-09-06T16:03:36Z</time>
      </trkpt>
      <trkpt lat="42.458764" lon="1.887155">
        <ele>1334.5</ele>
        <time>2022-09-06T16:03:41Z</time>
      </trkpt>
      <trkpt lat="42.459053" lon="1.887176">
        <ele>1325.8</ele>
        <time>2022-09-06T16:03:48Z</time>
      </trkpt>
      <trkpt lat="42.459329" lon="1.887118">
        <ele>1320.3</ele>
        <time>2022-09-06T16:03:55Z</time>
      </trkpt>
      <trkpt lat="42.459368" lon="1.88711">
        <ele>1319.5</ele>
        <time>2022-09-06T16:03:56Z</time>
      </trkpt>
      <trkpt lat="42.459391" lon="1.887129">
        <ele>1318.5</ele>
        <time>2022-09-06T16:03:56Z</time>
      </trkpt>
      <trkpt lat="42.459419" lon="1.887264">
        <ele>1314.8</ele>
        <time>2022-09-06T16:03:59Z</time>
      </trkpt>
      <trkpt lat="42.459424" lon="1.887283">
        <ele>1314.3</ele>
        <time>2022-09-06T16:03:59Z</time>
      </trkpt>
      <trkpt lat="42.459452" lon="1.887321">
        <ele>1312.8</ele>
        <time>2022-09-06T16:04:00Z</time>
      </trkpt>
      <trkpt lat="42.459469" lon="1.887412">
        <ele>1310.5</ele>
        <time>2022-09-06T16:04:02Z</time>
      </trkpt>
      <trkpt lat="42.4595" lon="1.887424">
        <ele>1309.5</ele>
        <time>2022-09-06T16:04:03Z</time>
      </trkpt>
      <trkpt lat="42.459544" lon="1.887442">
        <ele>1308.3</ele>
        <time>2022-09-06T16:04:04Z</time>
      </trkpt>
      <trkpt lat="42.459603" lon="1.887446">
        <ele>1307</ele>
        <time>2022-09-06T16:04:06Z</time>
      </trkpt>
      <trkpt lat="42.459749" lon="1.887458">
        <ele>1304.3</ele>
        <time>2022-09-06T16:04:10Z</time>
      </trkpt>
      <trkpt lat="42.459804" lon="1.887415">
        <ele>1303.8</ele>
        <time>2022-09-06T16:04:12Z</time>
      </trkpt>
      <trkpt lat="42.45986" lon="1.887452">
        <ele>1302.3</ele>
        <time>2022-09-06T16:04:13Z</time>
      </trkpt>
      <trkpt lat="42.459886" lon="1.887457">
        <ele>1301.5</ele>
        <time>2022-09-06T16:04:14Z</time>
      </trkpt>
      <trkpt lat="42.459902" lon="1.88748">
        <ele>1301</ele>
        <time>2022-09-06T16:04:15Z</time>
      </trkpt>
      <trkpt lat="42.459903" lon="1.887525">
        <ele>1300.3</ele>
        <time>2022-09-06T16:04:15Z</time>
      </trkpt>
      <trkpt lat="42.459968" lon="1.887747">
        <ele>1295.8</ele>
        <time>2022-09-06T16:04:20Z</time>
      </trkpt>
      <trkpt lat="42.460021" lon="1.887869">
        <ele>1293</ele>
        <time>2022-09-06T16:04:22Z</time>
      </trkpt>
      <trkpt lat="42.460098" lon="1.888042">
        <ele>1289.3</ele>
        <time>2022-09-06T16:04:26Z</time>
      </trkpt>
      <trkpt lat="42.460144" lon="1.888449">
        <ele>1284.3</ele>
        <time>2022-09-06T16:04:33Z</time>
      </trkpt>
      <trkpt lat="42.460162" lon="1.888444">
        <ele>1284</ele>
        <time>2022-09-06T16:04:33Z</time>
      </trkpt>
      <trkpt lat="42.460188" lon="1.888437">
        <ele>1283.8</ele>
        <time>2022-09-06T16:04:34Z</time>
      </trkpt>
      <trkpt lat="42.460245" lon="1.888375">
        <ele>1283.3</ele>
        <time>2022-09-06T16:04:35Z</time>
      </trkpt>
      <trkpt lat="42.460359" lon="1.888188">
        <ele>1283.3</ele>
        <time>2022-09-06T16:04:38Z</time>
      </trkpt>
      <trkpt lat="42.460392" lon="1.888176">
        <ele>1282.8</ele>
        <time>2022-09-06T16:04:38Z</time>
      </trkpt>
      <trkpt lat="42.460458" lon="1.888153">
        <ele>1282</ele>
        <time>2022-09-06T16:04:40Z</time>
      </trkpt>
      <trkpt lat="42.460597" lon="1.888196">
        <ele>1279.3</ele>
        <time>2022-09-06T16:04:42Z</time>
      </trkpt>
      <trkpt lat="42.460609" lon="1.888202">
        <ele>1279</ele>
        <time>2022-09-06T16:04:42Z</time>
      </trkpt>
      <trkpt lat="42.46074" lon="1.888267">
        <ele>1276.5</ele>
        <time>2022-09-06T16:04:44Z</time>
      </trkpt>
      <trkpt lat="42.460805" lon="1.888308">
        <ele>1275.5</ele>
        <time>2022-09-06T16:04:45Z</time>
      </trkpt>
      <trkpt lat="42.460975" lon="1.888609">
        <ele>1272.5</ele>
        <time>2022-09-06T16:04:50Z</time>
      </trkpt>
      <trkpt lat="42.460991" lon="1.888624">
        <ele>1272.3</ele>
        <time>2022-09-06T16:04:50Z</time>
      </trkpt>
      <trkpt lat="42.461069" lon="1.888694">
        <ele>1271.3</ele>
        <time>2022-09-06T16:04:51Z</time>
      </trkpt>
      <trkpt lat="42.461152" lon="1.88874">
        <ele>1270</ele>
        <time>2022-09-06T16:04:52Z</time>
      </trkpt>
      <trkpt lat="42.461182" lon="1.888757">
        <ele>1269.8</ele>
        <time>2022-09-06T16:04:53Z</time>
      </trkpt>
      <trkpt lat="42.461531" lon="1.888745">
        <ele>1265.3</ele>
        <time>2022-09-06T16:04:58Z</time>
      </trkpt>
      <trkpt lat="42.461589" lon="1.888744">
        <ele>1264.8</ele>
        <time>2022-09-06T16:04:58Z</time>
      </trkpt>
      <trkpt lat="42.461712" lon="1.888765">
        <ele>1263.3</ele>
        <time>2022-09-06T16:05:00Z</time>
      </trkpt>
      <trkpt lat="42.461921" lon="1.888851">
        <ele>1260.3</ele>
        <time>2022-09-06T16:05:03Z</time>
      </trkpt>
      <trkpt lat="42.46198" lon="1.88889">
        <ele>1267.8</ele>
        <time>2022-09-06T16:05:04Z</time>
      </trkpt>
      <trkpt lat="42.46205" lon="1.88892">
        <ele>1267.8</ele>
        <time>2022-09-06T16:05:05Z</time>
      </trkpt>
      <trkpt lat="42.46212" lon="1.88896">
        <ele>1266.8</ele>
        <time>2022-09-06T16:05:06Z</time>
      </trkpt>
      <trkpt lat="42.46219" lon="1.88899">
        <ele>1266.8</ele>
        <time>2022-09-06T16:05:07Z</time>
      </trkpt>
      <trkpt lat="42.46226" lon="1.88902">
        <ele>1264</ele>
        <time>2022-09-06T16:05:08Z</time>
      </trkpt>
      <trkpt lat="42.46234" lon="1.88907">
        <ele>1264</ele>
        <time>2022-09-06T16:05:09Z</time>
      </trkpt>
      <trkpt lat="42.46241" lon="1.88911">
        <ele>1264</ele>
        <time>2022-09-06T16:05:10Z</time>
      </trkpt>
      <trkpt lat="42.46246" lon="1.88915">
        <ele>1263</ele>
        <time>2022-09-06T16:05:11Z</time>
      </trkpt>
      <trkpt lat="42.4625" lon="1.88919">
        <ele>1260.2</ele>
        <time>2022-09-06T16:05:12Z</time>
      </trkpt>
      <trkpt lat="42.46251" lon="1.88925">
        <ele>1260.2</ele>
        <time>2022-09-06T16:05:13Z</time>
      </trkpt>
      <trkpt lat="42.4625" lon="1.88933">
        <ele>1260.2</ele>
        <time>2022-09-06T16:05:14Z</time>
      </trkpt>
      <trkpt lat="42.46248" lon="1.88941">
        <ele>1260.2</ele>
        <time>2022-09-06T16:05:15Z</time>
      </trkpt>
      <trkpt lat="42.46246" lon="1.88949">
        <ele>1259</ele>
        <time>2022-09-06T16:05:16Z</time>
      </trkpt>
      <trkpt lat="42.46244" lon="1.88958">
        <ele>1259</ele>
        <time>2022-09-06T16:05:17Z</time>
      </trkpt>
      <trkpt lat="42.46241" lon="1.88966">
        <ele>1259</ele>
        <time>2022-09-06T16:05:18Z</time>
      </trkpt>
      <trkpt lat="42.46238" lon="1.88973">
        <ele>1260</ele>
        <time>2022-09-06T16:05:19Z</time>
      </trkpt>
      <trkpt lat="42.46235" lon="1.88981">
        <ele>1259.4</ele>
        <time>2022-09-06T16:05:20Z</time>
      </trkpt>
      <trkpt lat="42.46232" lon="1.88988">
        <ele>1259.4</ele>
        <time>2022-09-06T16:05:21Z</time>
      </trkpt>
      <trkpt lat="42.46229" lon="1.88996">
        <ele>1259.4</ele>
        <time>2022-09-06T16:05:22Z</time>
      </trkpt>
      <trkpt lat="42.46226" lon="1.89004">
        <ele>1259.4</ele>
        <time>2022-09-06T16:05:23Z</time>
      </trkpt>
      <trkpt lat="42.46224" lon="1.89013">
        <ele>1258.8</ele>
        <time>2022-09-06T16:05:24Z</time>
      </trkpt>
      <trkpt lat="42.46223" lon="1.89022">
        <ele>1258.8</ele>
        <time>2022-09-06T16:05:25Z</time>
      </trkpt>
      <trkpt lat="42.46222" lon="1.89032">
        <ele>1258.8</ele>
        <time>2022-09-06T16:05:26Z</time>
      </trkpt>
      <trkpt lat="42.46222" lon="1.89041">
        <ele>1258.6</ele>
        <time>2022-09-06T16:05:27Z</time>
      </trkpt>
      <trkpt lat="42.46221" lon="1.89051">
        <ele>1257.8</ele>
        <time>2022-09-06T16:05:28Z</time>
      </trkpt>
      <trkpt lat="42.4622" lon="1.8906">
        <ele>1257.8</ele>
        <time>2022-09-06T16:05:29Z</time>
      </trkpt>
      <trkpt lat="42.46218" lon="1.89069">
        <ele>1257.8</ele>
        <time>2022-09-06T16:05:30Z</time>
      </trkpt>
      <trkpt lat="42.46216" lon="1.89078">
        <ele>1258.2</ele>
        <time>2022-09-06T16:05:31Z</time>
      </trkpt>
      <trkpt lat="42.46214" lon="1.89087">
        <ele>1257.8</ele>
        <time>2022-09-06T16:05:32Z</time>
      </trkpt>
      <trkpt lat="42.46213" lon="1.89096">
        <ele>1257.8</ele>
        <time>2022-09-06T16:05:33Z</time>
      </trkpt>
      <trkpt lat="42.46211" lon="1.89105">
        <ele>1257.8</ele>
        <time>2022-09-06T16:05:34Z</time>
      </trkpt>
      <trkpt lat="42.46209" lon="1.89115">
        <ele>1257.8</ele>
        <time>2022-09-06T16:05:35Z</time>
      </trkpt>
      <trkpt lat="42.46207" lon="1.89125">
        <ele>1257.2</ele>
        <time>2022-09-06T16:05:36Z</time>
      </trkpt>
      <trkpt lat="42.46204" lon="1.89134">
        <ele>1257.2</ele>
        <time>2022-09-06T16:05:37Z</time>
      </trkpt>
      <trkpt lat="42.46202" lon="1.89144">
        <ele>1257.2</ele>
        <time>2022-09-06T16:05:38Z</time>
      </trkpt>
      <trkpt lat="42.46199" lon="1.89153">
        <ele>1257.2</ele>
        <time>2022-09-06T16:05:39Z</time>
      </trkpt>
      <trkpt lat="42.46196" lon="1.89163">
        <ele>1257.2</ele>
        <time>2022-09-06T16:05:40Z</time>
      </trkpt>
      <trkpt lat="42.46193" lon="1.89173">
        <ele>1255.6</ele>
        <time>2022-09-06T16:05:41Z</time>
      </trkpt>
      <trkpt lat="42.46189" lon="1.89181">
        <ele>1255.6</ele>
        <time>2022-09-06T16:05:42Z</time>
      </trkpt>
      <trkpt lat="42.46184" lon="1.8919">
        <ele>1255.6</ele>
        <time>2022-09-06T16:05:43Z</time>
      </trkpt>
      <trkpt lat="42.46178" lon="1.89198">
        <ele>1255.6</ele>
        <time>2022-09-06T16:05:44Z</time>
      </trkpt>
      <trkpt lat="42.46173" lon="1.89205">
        <ele>1256.2</ele>
        <time>2022-09-06T16:05:45Z</time>
      </trkpt>
      <trkpt lat="42.46167" lon="1.89213">
        <ele>1256.2</ele>
        <time>2022-09-06T16:05:46Z</time>
      </trkpt>
      <trkpt lat="42.46162" lon="1.8922">
        <ele>1256.2</ele>
        <time>2022-09-06T16:05:47Z</time>
      </trkpt>
      <trkpt lat="42.46157" lon="1.89228">
        <ele>1256.6</ele>
        <time>2022-09-06T16:05:48Z</time>
      </trkpt>
      <trkpt lat="42.46152" lon="1.89236">
        <ele>1256.6</ele>
        <time>2022-09-06T16:05:49Z</time>
      </trkpt>
      <trkpt lat="42.46147" lon="1.89244">
        <ele>1256.6</ele>
        <time>2022-09-06T16:05:50Z</time>
      </trkpt>
      <trkpt lat="42.46142" lon="1.89252">
        <ele>1256.6</ele>
        <time>2022-09-06T16:05:51Z</time>
      </trkpt>
      <trkpt lat="42.46137" lon="1.89259">
        <ele>1255.6</ele>
        <time>2022-09-06T16:05:52Z</time>
      </trkpt>
      <trkpt lat="42.46132" lon="1.89267">
        <ele>1256.2</ele>
        <time>2022-09-06T16:05:53Z</time>
      </trkpt>
      <trkpt lat="42.46127" lon="1.89274">
        <ele>1256.2</ele>
        <time>2022-09-06T16:05:54Z</time>
      </trkpt>
      <trkpt lat="42.46122" lon="1.89282">
        <ele>1256.2</ele>
        <time>2022-09-06T16:05:55Z</time>
      </trkpt>
      <trkpt lat="42.46117" lon="1.89289">
        <ele>1256</ele>
        <time>2022-09-06T16:05:56Z</time>
      </trkpt>
      <trkpt lat="42.46111" lon="1.89296">
        <ele>1256</ele>
        <time>2022-09-06T16:05:57Z</time>
      </trkpt>
      <trkpt lat="42.46106" lon="1.89304">
        <ele>1255.6</ele>
        <time>2022-09-06T16:05:58Z</time>
      </trkpt>
      <trkpt lat="42.46102" lon="1.89311">
        <ele>1255.6</ele>
        <time>2022-09-06T16:05:59Z</time>
      </trkpt>
      <trkpt lat="42.46097" lon="1.89319">
        <ele>1255.6</ele>
        <time>2022-09-06T16:06:00Z</time>
      </trkpt>
      <trkpt lat="42.46092" lon="1.89326">
        <ele>1254.8</ele>
        <time>2022-09-06T16:06:01Z</time>
      </trkpt>
      <trkpt lat="42.46087" lon="1.89333">
        <ele>1254.8</ele>
        <time>2022-09-06T16:06:02Z</time>
      </trkpt>
      <trkpt lat="42.46082" lon="1.8934">
        <ele>1254.8</ele>
        <time>2022-09-06T16:06:03Z</time>
      </trkpt>
      <trkpt lat="42.46077" lon="1.89347">
        <ele>1254.8</ele>
        <time>2022-09-06T16:06:04Z</time>
      </trkpt>
      <trkpt lat="42.46073" lon="1.89355">
        <ele>1255.2</ele>
        <time>2022-09-06T16:06:05Z</time>
      </trkpt>
      <trkpt lat="42.46068" lon="1.89362">
        <ele>1256.2</ele>
        <time>2022-09-06T16:06:06Z</time>
      </trkpt>
      <trkpt lat="42.46064" lon="1.8937">
        <ele>1256.2</ele>
        <time>2022-09-06T16:06:07Z</time>
      </trkpt>
      <trkpt lat="42.46059" lon="1.89377">
        <ele>1256.2</ele>
        <time>2022-09-06T16:06:08Z</time>
      </trkpt>
      <trkpt lat="42.46054" lon="1.89384">
        <ele>1255.2</ele>
        <time>2022-09-06T16:06:09Z</time>
      </trkpt>
      <trkpt lat="42.4605" lon="1.8939">
        <ele>1253.8</ele>
        <time>2022-09-06T16:06:10Z</time>
      </trkpt>
      <trkpt lat="42.46046" lon="1.89397">
        <ele>1253.8</ele>
        <time>2022-09-06T16:06:11Z</time>
      </trkpt>
      <trkpt lat="42.46043" lon="1.89403">
        <ele>1253.8</ele>
        <time>2022-09-06T16:06:12Z</time>
      </trkpt>
      <trkpt lat="42.46039" lon="1.8941">
        <ele>1254.8</ele>
        <time>2022-09-06T16:06:13Z</time>
      </trkpt>
      <trkpt lat="42.46034" lon="1.89416">
        <ele>1254.2</ele>
        <time>2022-09-06T16:06:14Z</time>
      </trkpt>
      <trkpt lat="42.46029" lon="1.89421">
        <ele>1254.2</ele>
        <time>2022-09-06T16:06:15Z</time>
      </trkpt>
      <trkpt lat="42.46023" lon="1.89425">
        <ele>1254.2</ele>
        <time>2022-09-06T16:06:16Z</time>
      </trkpt>
      <trkpt lat="42.46016" lon="1.89429">
        <ele>1253.2</ele>
        <time>2022-09-06T16:06:17Z</time>
      </trkpt>
      <trkpt lat="42.4601" lon="1.89433">
        <ele>1252.2</ele>
        <time>2022-09-06T16:06:18Z</time>
      </trkpt>
      <trkpt lat="42.46003" lon="1.89437">
        <ele>1252.2</ele>
        <time>2022-09-06T16:06:19Z</time>
      </trkpt>
      <trkpt lat="42.45996" lon="1.89442">
        <ele>1252.2</ele>
        <time>2022-09-06T16:06:20Z</time>
      </trkpt>
      <trkpt lat="42.4599" lon="1.89447">
        <ele>1252.2</ele>
        <time>2022-09-06T16:06:21Z</time>
      </trkpt>
      <trkpt lat="42.45985" lon="1.89454">
        <ele>1252.2</ele>
        <time>2022-09-06T16:06:22Z</time>
      </trkpt>
      <trkpt lat="42.45979" lon="1.8946">
        <ele>1252.4</ele>
        <time>2022-09-06T16:06:23Z</time>
      </trkpt>
      <trkpt lat="42.45975" lon="1.89467">
        <ele>1252.4</ele>
        <time>2022-09-06T16:06:24Z</time>
      </trkpt>
      <trkpt lat="42.45972" lon="1.89474">
        <ele>1252.4</ele>
        <time>2022-09-06T16:06:25Z</time>
      </trkpt>
      <trkpt lat="42.45971" lon="1.89482">
        <ele>1251.4</ele>
        <time>2022-09-06T16:06:26Z</time>
      </trkpt>
      <trkpt lat="42.4597" lon="1.8949">
        <ele>1249.6</ele>
        <time>2022-09-06T16:06:27Z</time>
      </trkpt>
      <trkpt lat="42.45969" lon="1.89499">
        <ele>1249.6</ele>
        <time>2022-09-06T16:06:28Z</time>
      </trkpt>
      <trkpt lat="42.45966" lon="1.89505">
        <ele>1249.6</ele>
        <time>2022-09-06T16:06:29Z</time>
      </trkpt>
      <trkpt lat="42.45962" lon="1.89511">
        <ele>1248.6</ele>
        <time>2022-09-06T16:06:30Z</time>
      </trkpt>
      <trkpt lat="42.45959" lon="1.89518">
        <ele>1248.2</ele>
        <time>2022-09-06T16:06:31Z</time>
      </trkpt>
      <trkpt lat="42.45959" lon="1.89526">
        <ele>1248.2</ele>
        <time>2022-09-06T16:06:32Z</time>
      </trkpt>
      <trkpt lat="42.45961" lon="1.89533">
        <ele>1248.2</ele>
        <time>2022-09-06T16:06:33Z</time>
      </trkpt>
      <trkpt lat="42.45964" lon="1.89541">
        <ele>1248.2</ele>
        <time>2022-09-06T16:06:34Z</time>
      </trkpt>
      <trkpt lat="42.45967" lon="1.89548">
        <ele>1247.8</ele>
        <time>2022-09-06T16:06:35Z</time>
      </trkpt>
      <trkpt lat="42.4597" lon="1.89555">
        <ele>1248.4</ele>
        <time>2022-09-06T16:06:36Z</time>
      </trkpt>
      <trkpt lat="42.45973" lon="1.89561">
        <ele>1248.4</ele>
        <time>2022-09-06T16:06:37Z</time>
      </trkpt>
      <trkpt lat="42.45977" lon="1.89563">
        <ele>1248.4</ele>
        <time>2022-09-06T16:06:38Z</time>
      </trkpt>
      <trkpt lat="42.4598" lon="1.89562">
        <ele>1247.4</ele>
        <time>2022-09-06T16:06:39Z</time>
      </trkpt>
      <trkpt lat="42.45983" lon="1.8956">
        <ele>1246.4</ele>
        <time>2022-09-06T16:06:40Z</time>
      </trkpt>
      <trkpt lat="42.45985" lon="1.89558">
        <ele>1246.4</ele>
        <time>2022-09-06T16:06:41Z</time>
      </trkpt>
      <trkpt lat="42.45988" lon="1.89556">
        <ele>1246.4</ele>
        <time>2022-09-06T16:06:42Z</time>
      </trkpt>
      <trkpt lat="42.45992" lon="1.89553">
        <ele>1246.4</ele>
        <time>2022-09-06T16:06:43Z</time>
      </trkpt>
      <trkpt lat="42.45997" lon="1.89552">
        <ele>1245</ele>
        <time>2022-09-06T16:06:44Z</time>
      </trkpt>
      <trkpt lat="42.46003" lon="1.89553">
        <ele>1245</ele>
        <time>2022-09-06T16:06:45Z</time>
      </trkpt>
      <trkpt lat="42.46009" lon="1.89555">
        <ele>1245</ele>
        <time>2022-09-06T16:06:46Z</time>
      </trkpt>
      <trkpt lat="42.46014" lon="1.89558">
        <ele>1244</ele>
        <time>2022-09-06T16:06:47Z</time>
      </trkpt>
      <trkpt lat="42.46019" lon="1.89561">
        <ele>1242.2</ele>
        <time>2022-09-06T16:06:48Z</time>
      </trkpt>
      <trkpt lat="42.46024" lon="1.89566">
        <ele>1242.2</ele>
        <time>2022-09-06T16:06:49Z</time>
      </trkpt>
      <trkpt lat="42.46028" lon="1.89573">
        <ele>1242.2</ele>
        <time>2022-09-06T16:06:50Z</time>
      </trkpt>
      <trkpt lat="42.46032" lon="1.8958">
        <ele>1242.2</ele>
        <time>2022-09-06T16:06:51Z</time>
      </trkpt>
      <trkpt lat="42.46037" lon="1.89587">
        <ele>1241.2</ele>
        <time>2022-09-06T16:06:52Z</time>
      </trkpt>
      <trkpt lat="42.46042" lon="1.89595">
        <ele>1239.2</ele>
        <time>2022-09-06T16:06:53Z</time>
      </trkpt>
      <trkpt lat="42.46047" lon="1.89602">
        <ele>1239.2</ele>
        <time>2022-09-06T16:06:54Z</time>
      </trkpt>
      <trkpt lat="42.46053" lon="1.89609">
        <ele>1239.2</ele>
        <time>2022-09-06T16:06:55Z</time>
      </trkpt>
      <trkpt lat="42.46058" lon="1.89616">
        <ele>1239.2</ele>
        <time>2022-09-06T16:06:56Z</time>
      </trkpt>
      <trkpt lat="42.46063" lon="1.89623">
        <ele>1238.6</ele>
        <time>2022-09-06T16:06:57Z</time>
      </trkpt>
      <trkpt lat="42.46068" lon="1.8963">
        <ele>1238.6</ele>
        <time>2022-09-06T16:06:58Z</time>
      </trkpt>
      <trkpt lat="42.46073" lon="1.89636">
        <ele>1238.6</ele>
        <time>2022-09-06T16:06:59Z</time>
      </trkpt>
      <trkpt lat="42.46078" lon="1.89643">
        <ele>1238.8</ele>
        <time>2022-09-06T16:07:00Z</time>
      </trkpt>
      <trkpt lat="42.46083" lon="1.8965">
        <ele>1239</ele>
        <time>2022-09-06T16:07:01Z</time>
      </trkpt>
      <trkpt lat="42.46087" lon="1.89656">
        <ele>1239</ele>
        <time>2022-09-06T16:07:02Z</time>
      </trkpt>
      <trkpt lat="42.46092" lon="1.89662">
        <ele>1239</ele>
        <time>2022-09-06T16:07:03Z</time>
      </trkpt>
      <trkpt lat="42.46096" lon="1.89667">
        <ele>1239</ele>
        <time>2022-09-06T16:07:04Z</time>
      </trkpt>
      <trkpt lat="42.461" lon="1.89673">
        <ele>1239</ele>
        <time>2022-09-06T16:07:05Z</time>
      </trkpt>
      <trkpt lat="42.46104" lon="1.89678">
        <ele>1239</ele>
        <time>2022-09-06T16:07:06Z</time>
      </trkpt>
      <trkpt lat="42.46108" lon="1.89683">
        <ele>1239</ele>
        <time>2022-09-06T16:07:07Z</time>
      </trkpt>
      <trkpt lat="42.46111" lon="1.89687">
        <ele>1238.6</ele>
        <time>2022-09-06T16:07:08Z</time>
      </trkpt>
      <trkpt lat="42.46115" lon="1.8969">
        <ele>1238.8</ele>
        <time>2022-09-06T16:07:09Z</time>
      </trkpt>
      <trkpt lat="42.46118" lon="1.89694">
        <ele>1238.8</ele>
        <time>2022-09-06T16:07:10Z</time>
      </trkpt>
      <trkpt lat="42.46119" lon="1.89697">
        <ele>1238.8</ele>
        <time>2022-09-06T16:07:11Z</time>
      </trkpt>
      <trkpt lat="42.46117" lon="1.897">
        <ele>1237.8</ele>
        <time>2022-09-06T16:07:12Z</time>
      </trkpt>
      <trkpt lat="42.46115" lon="1.89703">
        <ele>1238.6</ele>
        <time>2022-09-06T16:07:13Z</time>
      </trkpt>
      <trkpt lat="42.46112" lon="1.89708">
        <ele>1238.6</ele>
        <time>2022-09-06T16:07:14Z</time>
      </trkpt>
      <trkpt lat="42.46109" lon="1.89714">
        <ele>1238.6</ele>
        <time>2022-09-06T16:07:15Z</time>
      </trkpt>
      <trkpt lat="42.46105" lon="1.89721">
        <ele>1238.6</ele>
        <time>2022-09-06T16:07:16Z</time>
      </trkpt>
      <trkpt lat="42.46102" lon="1.89728">
        <ele>1237.6</ele>
        <time>2022-09-06T16:07:17Z</time>
      </trkpt>
      <trkpt lat="42.46098" lon="1.89734">
        <ele>1236.2</ele>
        <time>2022-09-06T16:07:18Z</time>
      </trkpt>
      <trkpt lat="42.46094" lon="1.89741">
        <ele>1236.2</ele>
        <time>2022-09-06T16:07:19Z</time>
      </trkpt>
      <trkpt lat="42.46091" lon="1.89747">
        <ele>1236.2</ele>
        <time>2022-09-06T16:07:20Z</time>
      </trkpt>
      <trkpt lat="42.46088" lon="1.89752">
        <ele>1236.2</ele>
        <time>2022-09-06T16:07:21Z</time>
      </trkpt>
      <trkpt lat="42.46085" lon="1.89758">
        <ele>1236.8</ele>
        <time>2022-09-06T16:07:22Z</time>
      </trkpt>
      <trkpt lat="42.46082" lon="1.89764">
        <ele>1236.8</ele>
        <time>2022-09-06T16:07:23Z</time>
      </trkpt>
      <trkpt lat="42.4608" lon="1.89771">
        <ele>1236.8</ele>
        <time>2022-09-06T16:07:24Z</time>
      </trkpt>
      <trkpt lat="42.46078" lon="1.89777">
        <ele>1236.8</ele>
        <time>2022-09-06T16:07:25Z</time>
      </trkpt>
      <trkpt lat="42.46076" lon="1.89784">
        <ele>1236</ele>
        <time>2022-09-06T16:07:26Z</time>
      </trkpt>
      <trkpt lat="42.46075" lon="1.8979">
        <ele>1236</ele>
        <time>2022-09-06T16:07:27Z</time>
      </trkpt>
      <trkpt lat="42.46073" lon="1.89796">
        <ele>1236</ele>
        <time>2022-09-06T16:07:28Z</time>
      </trkpt>
      <trkpt lat="42.46072" lon="1.89801">
        <ele>1237</ele>
        <time>2022-09-06T16:07:29Z</time>
      </trkpt>
      <trkpt lat="42.4607" lon="1.89804">
        <ele>1237.2</ele>
        <time>2022-09-06T16:07:30Z</time>
      </trkpt>
      <trkpt lat="42.46068" lon="1.89808">
        <ele>1237.2</ele>
        <time>2022-09-06T16:07:31Z</time>
      </trkpt>
      <trkpt lat="42.46066" lon="1.89813">
        <ele>1237.2</ele>
        <time>2022-09-06T16:07:32Z</time>
      </trkpt>
      <trkpt lat="42.46064" lon="1.89819">
        <ele>1237.2</ele>
        <time>2022-09-06T16:07:33Z</time>
      </trkpt>
      <trkpt lat="42.46062" lon="1.89827">
        <ele>1237.2</ele>
        <time>2022-09-06T16:07:34Z</time>
      </trkpt>
      <trkpt lat="42.46061" lon="1.89834">
        <ele>1236.8</ele>
        <time>2022-09-06T16:07:35Z</time>
      </trkpt>
      <trkpt lat="42.4606" lon="1.89842">
        <ele>1236.8</ele>
        <time>2022-09-06T16:07:36Z</time>
      </trkpt>
      <trkpt lat="42.46059" lon="1.89848">
        <ele>1236.8</ele>
        <time>2022-09-06T16:07:37Z</time>
      </trkpt>
      <trkpt lat="42.46059" lon="1.89856">
        <ele>1236.8</ele>
        <time>2022-09-06T16:07:38Z</time>
      </trkpt>
      <trkpt lat="42.46059" lon="1.89864">
        <ele>1236</ele>
        <time>2022-09-06T16:07:39Z</time>
      </trkpt>
      <trkpt lat="42.46059" lon="1.89871">
        <ele>1236</ele>
        <time>2022-09-06T16:07:40Z</time>
      </trkpt>
      <trkpt lat="42.46058" lon="1.89879">
        <ele>1236</ele>
        <time>2022-09-06T16:07:41Z</time>
      </trkpt>
      <trkpt lat="42.46056" lon="1.89886">
        <ele>1236</ele>
        <time>2022-09-06T16:07:42Z</time>
      </trkpt>
      <trkpt lat="42.46054" lon="1.89894">
        <ele>1235.4</ele>
        <time>2022-09-06T16:07:43Z</time>
      </trkpt>
      <trkpt lat="42.46053" lon="1.89902">
        <ele>1235.4</ele>
        <time>2022-09-06T16:07:44Z</time>
      </trkpt>
      <trkpt lat="42.46051" lon="1.8991">
        <ele>1235.4</ele>
        <time>2022-09-06T16:07:45Z</time>
      </trkpt>
      <trkpt lat="42.46049" lon="1.89918">
        <ele>1236.4</ele>
        <time>2022-09-06T16:07:46Z</time>
      </trkpt>
      <trkpt lat="42.46047" lon="1.89927">
        <ele>1235.6</ele>
        <time>2022-09-06T16:07:47Z</time>
      </trkpt>
      <trkpt lat="42.46045" lon="1.89935">
        <ele>1235.6</ele>
        <time>2022-09-06T16:07:48Z</time>
      </trkpt>
      <trkpt lat="42.46045" lon="1.89943">
        <ele>1235.6</ele>
        <time>2022-09-06T16:07:49Z</time>
      </trkpt>
      <trkpt lat="42.46047" lon="1.89951">
        <ele>1236.6</ele>
        <time>2022-09-06T16:07:50Z</time>
      </trkpt>
      <trkpt lat="42.46049" lon="1.89957">
        <ele>1236</ele>
        <time>2022-09-06T16:07:51Z</time>
      </trkpt>
      <trkpt lat="42.46051" lon="1.89963">
        <ele>1236</ele>
        <time>2022-09-06T16:07:52Z</time>
      </trkpt>
      <trkpt lat="42.46051" lon="1.89969">
        <ele>1236</ele>
        <time>2022-09-06T16:07:53Z</time>
      </trkpt>
      <trkpt lat="42.46049" lon="1.89974">
        <ele>1236</ele>
        <time>2022-09-06T16:07:54Z</time>
      </trkpt>
      <trkpt lat="42.46045" lon="1.89978">
        <ele>1237</ele>
        <time>2022-09-06T16:07:55Z</time>
      </trkpt>
      <trkpt lat="42.46038" lon="1.89981">
        <ele>1239</ele>
        <time>2022-09-06T16:07:56Z</time>
      </trkpt>
      <trkpt lat="42.46031" lon="1.89985">
        <ele>1239</ele>
        <time>2022-09-06T16:07:57Z</time>
      </trkpt>
      <trkpt lat="42.46025" lon="1.89988">
        <ele>1239</ele>
        <time>2022-09-06T16:07:58Z</time>
      </trkpt>
      <trkpt lat="42.46018" lon="1.89991">
        <ele>1239</ele>
        <time>2022-09-06T16:07:59Z</time>
      </trkpt>
      <trkpt lat="42.46012" lon="1.89994">
        <ele>1239.4</ele>
        <time>2022-09-06T16:08:00Z</time>
      </trkpt>
      <trkpt lat="42.46006" lon="1.89997">
        <ele>1239.4</ele>
        <time>2022-09-06T16:08:01Z</time>
      </trkpt>
      <trkpt lat="42.46" lon="1.90001">
        <ele>1239.4</ele>
        <time>2022-09-06T16:08:02Z</time>
      </trkpt>
      <trkpt lat="42.45994" lon="1.90004">
        <ele>1239.4</ele>
        <time>2022-09-06T16:08:03Z</time>
      </trkpt>
      <trkpt lat="42.45988" lon="1.90007">
        <ele>1240.4</ele>
        <time>2022-09-06T16:08:04Z</time>
      </trkpt>
      <trkpt lat="42.45983" lon="1.9001">
        <ele>1240.4</ele>
        <time>2022-09-06T16:08:05Z</time>
      </trkpt>
      <trkpt lat="42.45978" lon="1.90014">
        <ele>1240.4</ele>
        <time>2022-09-06T16:08:06Z</time>
      </trkpt>
      <trkpt lat="42.45972" lon="1.90017">
        <ele>1240.4</ele>
        <time>2022-09-06T16:08:07Z</time>
      </trkpt>
      <trkpt lat="42.45966" lon="1.90021">
        <ele>1240.4</ele>
        <time>2022-09-06T16:08:08Z</time>
      </trkpt>
      <trkpt lat="42.45961" lon="1.90025">
        <ele>1241.2</ele>
        <time>2022-09-06T16:08:09Z</time>
      </trkpt>
      <trkpt lat="42.45956" lon="1.90029">
        <ele>1241.2</ele>
        <time>2022-09-06T16:08:10Z</time>
      </trkpt>
      <trkpt lat="42.4595" lon="1.90034">
        <ele>1241.2</ele>
        <time>2022-09-06T16:08:11Z</time>
      </trkpt>
      <trkpt lat="42.45945" lon="1.90038">
        <ele>1241.2</ele>
        <time>2022-09-06T16:08:12Z</time>
      </trkpt>
      <trkpt lat="42.4594" lon="1.90043">
        <ele>1241.8</ele>
        <time>2022-09-06T16:08:13Z</time>
      </trkpt>
      <trkpt lat="42.45934" lon="1.90047">
        <ele>1241.8</ele>
        <time>2022-09-06T16:08:14Z</time>
      </trkpt>
      <trkpt lat="42.45929" lon="1.90051">
        <ele>1241.8</ele>
        <time>2022-09-06T16:08:15Z</time>
      </trkpt>
      <trkpt lat="42.45923" lon="1.90055">
        <ele>1241.4</ele>
        <time>2022-09-06T16:08:16Z</time>
      </trkpt>
      <trkpt lat="42.45918" lon="1.90059">
        <ele>1240.6</ele>
        <time>2022-09-06T16:08:17Z</time>
      </trkpt>
      <trkpt lat="42.45913" lon="1.90063">
        <ele>1240.6</ele>
        <time>2022-09-06T16:08:18Z</time>
      </trkpt>
      <trkpt lat="42.45908" lon="1.90068">
        <ele>1240.6</ele>
        <time>2022-09-06T16:08:19Z</time>
      </trkpt>
      <trkpt lat="42.45903" lon="1.90072">
        <ele>1240.6</ele>
        <time>2022-09-06T16:08:20Z</time>
      </trkpt>
      <trkpt lat="42.45898" lon="1.90076">
        <ele>1240.8</ele>
        <time>2022-09-06T16:08:21Z</time>
      </trkpt>
      <trkpt lat="42.45892" lon="1.90081">
        <ele>1240.8</ele>
        <time>2022-09-06T16:08:22Z</time>
      </trkpt>
      <trkpt lat="42.45887" lon="1.90085">
        <ele>1240.8</ele>
        <time>2022-09-06T16:08:23Z</time>
      </trkpt>
      <trkpt lat="42.45882" lon="1.90089">
        <ele>1240.8</ele>
        <time>2022-09-06T16:08:24Z</time>
      </trkpt>
      <trkpt lat="42.45876" lon="1.90093">
        <ele>1240.2</ele>
        <time>2022-09-06T16:08:25Z</time>
      </trkpt>
      <trkpt lat="42.45871" lon="1.90098">
        <ele>1240.2</ele>
        <time>2022-09-06T16:08:26Z</time>
      </trkpt>
      <trkpt lat="42.45866" lon="1.90102">
        <ele>1240.2</ele>
        <time>2022-09-06T16:08:27Z</time>
      </trkpt>
      <trkpt lat="42.4586" lon="1.90107">
        <ele>1240.2</ele>
        <time>2022-09-06T16:08:28Z</time>
      </trkpt>
      <trkpt lat="42.45855" lon="1.90111">
        <ele>1240.2</ele>
        <time>2022-09-06T16:08:29Z</time>
      </trkpt>
      <trkpt lat="42.45849" lon="1.90115">
        <ele>1240.4</ele>
        <time>2022-09-06T16:08:30Z</time>
      </trkpt>
      <trkpt lat="42.45844" lon="1.90119">
        <ele>1240.4</ele>
        <time>2022-09-06T16:08:31Z</time>
      </trkpt>
      <trkpt lat="42.45839" lon="1.90124">
        <ele>1240.4</ele>
        <time>2022-09-06T16:08:32Z</time>
      </trkpt>
      <trkpt lat="42.45833" lon="1.90128">
        <ele>1240.4</ele>
        <time>2022-09-06T16:08:33Z</time>
      </trkpt>
      <trkpt lat="42.45827" lon="1.90132">
        <ele>1239.4</ele>
        <time>2022-09-06T16:08:34Z</time>
      </trkpt>
      <trkpt lat="42.45822" lon="1.90137">
        <ele>1239.4</ele>
        <time>2022-09-06T16:08:35Z</time>
      </trkpt>
      <trkpt lat="42.45816" lon="1.90141">
        <ele>1239.4</ele>
        <time>2022-09-06T16:08:36Z</time>
      </trkpt>
      <trkpt lat="42.4581" lon="1.90146">
        <ele>1239.6</ele>
        <time>2022-09-06T16:08:37Z</time>
      </trkpt>
      <trkpt lat="42.45805" lon="1.9015">
        <ele>1239.2</ele>
        <time>2022-09-06T16:08:38Z</time>
      </trkpt>
      <trkpt lat="42.45799" lon="1.90155">
        <ele>1239.2</ele>
        <time>2022-09-06T16:08:39Z</time>
      </trkpt>
      <trkpt lat="42.45794" lon="1.9016">
        <ele>1239.2</ele>
        <time>2022-09-06T16:08:40Z</time>
      </trkpt>
      <trkpt lat="42.45788" lon="1.90164">
        <ele>1239.2</ele>
        <time>2022-09-06T16:08:41Z</time>
      </trkpt>
      <trkpt lat="42.45783" lon="1.90169">
        <ele>1239.4</ele>
        <time>2022-09-06T16:08:42Z</time>
      </trkpt>
      <trkpt lat="42.45778" lon="1.90173">
        <ele>1239.4</ele>
        <time>2022-09-06T16:08:43Z</time>
      </trkpt>
      <trkpt lat="42.45772" lon="1.90177">
        <ele>1239.4</ele>
        <time>2022-09-06T16:08:44Z</time>
      </trkpt>
      <trkpt lat="42.45767" lon="1.90182">
        <ele>1239.2</ele>
        <time>2022-09-06T16:08:45Z</time>
      </trkpt>
      <trkpt lat="42.45762" lon="1.90187">
        <ele>1238.2</ele>
        <time>2022-09-06T16:08:46Z</time>
      </trkpt>
      <trkpt lat="42.45757" lon="1.90191">
        <ele>1238.2</ele>
        <time>2022-09-06T16:08:47Z</time>
      </trkpt>
      <trkpt lat="42.45752" lon="1.90196">
        <ele>1238.2</ele>
        <time>2022-09-06T16:08:48Z</time>
      </trkpt>
      <trkpt lat="42.45746" lon="1.90201">
        <ele>1238.8</ele>
        <time>2022-09-06T16:08:49Z</time>
      </trkpt>
      <trkpt lat="42.4574" lon="1.90206">
        <ele>1238.8</ele>
        <time>2022-09-06T16:08:50Z</time>
      </trkpt>
      <trkpt lat="42.45735" lon="1.90211">
        <ele>1238.8</ele>
        <time>2022-09-06T16:08:51Z</time>
      </trkpt>
      <trkpt lat="42.45729" lon="1.90216">
        <ele>1238.8</ele>
        <time>2022-09-06T16:08:52Z</time>
      </trkpt>
      <trkpt lat="42.45723" lon="1.90221">
        <ele>1238.8</ele>
        <time>2022-09-06T16:08:53Z</time>
      </trkpt>
      <trkpt lat="42.45717" lon="1.90226">
        <ele>1237.8</ele>
        <time>2022-09-06T16:08:54Z</time>
      </trkpt>
      <trkpt lat="42.45711" lon="1.90231">
        <ele>1237.4</ele>
        <time>2022-09-06T16:08:55Z</time>
      </trkpt>
      <trkpt lat="42.45705" lon="1.90237">
        <ele>1237.4</ele>
        <time>2022-09-06T16:08:56Z</time>
      </trkpt>
      <trkpt lat="42.457" lon="1.90242">
        <ele>1237.4</ele>
        <time>2022-09-06T16:08:57Z</time>
      </trkpt>
      <trkpt lat="42.45695" lon="1.90247">
        <ele>1237.4</ele>
        <time>2022-09-06T16:08:58Z</time>
      </trkpt>
      <trkpt lat="42.45689" lon="1.90252">
        <ele>1237.2</ele>
        <time>2022-09-06T16:08:59Z</time>
      </trkpt>
      <trkpt lat="42.45683" lon="1.90257">
        <ele>1237.2</ele>
        <time>2022-09-06T16:09:00Z</time>
      </trkpt>
      <trkpt lat="42.45677" lon="1.90263">
        <ele>1237.2</ele>
        <time>2022-09-06T16:09:01Z</time>
      </trkpt>
      <trkpt lat="42.45671" lon="1.90268">
        <ele>1237.2</ele>
        <time>2022-09-06T16:09:02Z</time>
      </trkpt>
      <trkpt lat="42.45666" lon="1.90273">
        <ele>1236.6</ele>
        <time>2022-09-06T16:09:03Z</time>
      </trkpt>
      <trkpt lat="42.4566" lon="1.90279">
        <ele>1236.6</ele>
        <time>2022-09-06T16:09:04Z</time>
      </trkpt>
      <trkpt lat="42.45654" lon="1.90284">
        <ele>1236.6</ele>
        <time>2022-09-06T16:09:05Z</time>
      </trkpt>
      <trkpt lat="42.45649" lon="1.90289">
        <ele>1235.6</ele>
        <time>2022-09-06T16:09:06Z</time>
      </trkpt>
      <trkpt lat="42.45643" lon="1.90295">
        <ele>1236</ele>
        <time>2022-09-06T16:09:07Z</time>
      </trkpt>
      <trkpt lat="42.45637" lon="1.903">
        <ele>1236</ele>
        <time>2022-09-06T16:09:08Z</time>
      </trkpt>
      <trkpt lat="42.45631" lon="1.90305">
        <ele>1236</ele>
        <time>2022-09-06T16:09:09Z</time>
      </trkpt>
      <trkpt lat="42.45625" lon="1.90311">
        <ele>1236</ele>
        <time>2022-09-06T16:09:10Z</time>
      </trkpt>
      <trkpt lat="42.45619" lon="1.90316">
        <ele>1235.4</ele>
        <time>2022-09-06T16:09:11Z</time>
      </trkpt>
      <trkpt lat="42.45613" lon="1.90321">
        <ele>1235.4</ele>
        <time>2022-09-06T16:09:12Z</time>
      </trkpt>
      <trkpt lat="42.45607" lon="1.90327">
        <ele>1235.4</ele>
        <time>2022-09-06T16:09:13Z</time>
      </trkpt>
      <trkpt lat="42.45601" lon="1.90332">
        <ele>1235.8</ele>
        <time>2022-09-06T16:09:14Z</time>
      </trkpt>
      <trkpt lat="42.45596" lon="1.90337">
        <ele>1235.8</ele>
        <time>2022-09-06T16:09:15Z</time>
      </trkpt>
      <trkpt lat="42.4559" lon="1.90343">
        <ele>1235.8</ele>
        <time>2022-09-06T16:09:16Z</time>
      </trkpt>
      <trkpt lat="42.45585" lon="1.90348">
        <ele>1235.8</ele>
        <time>2022-09-06T16:09:17Z</time>
      </trkpt>
      <trkpt lat="42.45579" lon="1.90353">
        <ele>1235.4</ele>
        <time>2022-09-06T16:09:18Z</time>
      </trkpt>
      <trkpt lat="42.45574" lon="1.90359">
        <ele>1235.4</ele>
        <time>2022-09-06T16:09:19Z</time>
      </trkpt>
      <trkpt lat="42.45568" lon="1.90364">
        <ele>1235.4</ele>
        <time>2022-09-06T16:09:20Z</time>
      </trkpt>
      <trkpt lat="42.45563" lon="1.90369">
        <ele>1235.4</ele>
        <time>2022-09-06T16:09:21Z</time>
      </trkpt>
      <trkpt lat="42.45558" lon="1.90374">
        <ele>1235.6</ele>
        <time>2022-09-06T16:09:22Z</time>
      </trkpt>
      <trkpt lat="42.45552" lon="1.9038">
        <ele>1235.8</ele>
        <time>2022-09-06T16:09:23Z</time>
      </trkpt>
      <trkpt lat="42.45547" lon="1.90385">
        <ele>1235.8</ele>
        <time>2022-09-06T16:09:24Z</time>
      </trkpt>
      <trkpt lat="42.45542" lon="1.9039">
        <ele>1235.8</ele>
        <time>2022-09-06T16:09:25Z</time>
      </trkpt>
      <trkpt lat="42.45536" lon="1.90394">
        <ele>1235.8</ele>
        <time>2022-09-06T16:09:26Z</time>
      </trkpt>
      <trkpt lat="42.4553" lon="1.90398">
        <ele>1235.6</ele>
        <time>2022-09-06T16:09:27Z</time>
      </trkpt>
      <trkpt lat="42.45524" lon="1.90402">
        <ele>1235</ele>
        <time>2022-09-06T16:09:28Z</time>
      </trkpt>
      <trkpt lat="42.45517" lon="1.90405">
        <ele>1235</ele>
        <time>2022-09-06T16:09:29Z</time>
      </trkpt>
      <trkpt lat="42.4551" lon="1.90408">
        <ele>1235</ele>
        <time>2022-09-06T16:09:30Z</time>
      </trkpt>
      <trkpt lat="42.45504" lon="1.90411">
        <ele>1235.2</ele>
        <time>2022-09-06T16:09:31Z</time>
      </trkpt>
      <trkpt lat="42.45498" lon="1.90415">
        <ele>1234.8</ele>
        <time>2022-09-06T16:09:32Z</time>
      </trkpt>
      <trkpt lat="42.45492" lon="1.90419">
        <ele>1234.8</ele>
        <time>2022-09-06T16:09:33Z</time>
      </trkpt>
      <trkpt lat="42.45486" lon="1.90423">
        <ele>1234.8</ele>
        <time>2022-09-06T16:09:34Z</time>
      </trkpt>
      <trkpt lat="42.4548" lon="1.90428">
        <ele>1234.6</ele>
        <time>2022-09-06T16:09:35Z</time>
      </trkpt>
      <trkpt lat="42.45474" lon="1.90433">
        <ele>1233.6</ele>
        <time>2022-09-06T16:09:36Z</time>
      </trkpt>
      <trkpt lat="42.45468" lon="1.90438">
        <ele>1233.6</ele>
        <time>2022-09-06T16:09:37Z</time>
      </trkpt>
      <trkpt lat="42.45462" lon="1.90442">
        <ele>1233.6</ele>
        <time>2022-09-06T16:09:38Z</time>
      </trkpt>
      <trkpt lat="42.45456" lon="1.90446">
        <ele>1233.6</ele>
        <time>2022-09-06T16:09:39Z</time>
      </trkpt>
      <trkpt lat="42.4545" lon="1.90449">
        <ele>1233.6</ele>
        <time>2022-09-06T16:09:40Z</time>
      </trkpt>
      <trkpt lat="42.45444" lon="1.90454">
        <ele>1233.6</ele>
        <time>2022-09-06T16:09:41Z</time>
      </trkpt>
      <trkpt lat="42.45438" lon="1.90458">
        <ele>1233.6</ele>
        <time>2022-09-06T16:09:42Z</time>
      </trkpt>
      <trkpt lat="42.45433" lon="1.90462">
        <ele>1233.6</ele>
        <time>2022-09-06T16:09:43Z</time>
      </trkpt>
      <trkpt lat="42.45427" lon="1.90466">
        <ele>1233.4</ele>
        <time>2022-09-06T16:09:44Z</time>
      </trkpt>
      <trkpt lat="42.45422" lon="1.9047">
        <ele>1233.4</ele>
        <time>2022-09-06T16:09:45Z</time>
      </trkpt>
      <trkpt lat="42.45417" lon="1.90474">
        <ele>1233.4</ele>
        <time>2022-09-06T16:09:46Z</time>
      </trkpt>
      <trkpt lat="42.45412" lon="1.90478">
        <ele>1233</ele>
        <time>2022-09-06T16:09:47Z</time>
      </trkpt>
      <trkpt lat="42.45406" lon="1.90482">
        <ele>1233</ele>
        <time>2022-09-06T16:09:48Z</time>
      </trkpt>
      <trkpt lat="42.45401" lon="1.90487">
        <ele>1233</ele>
        <time>2022-09-06T16:09:49Z</time>
      </trkpt>
      <trkpt lat="42.45395" lon="1.90491">
        <ele>1233</ele>
        <time>2022-09-06T16:09:50Z</time>
      </trkpt>
      <trkpt lat="42.45389" lon="1.90496">
        <ele>1232.4</ele>
        <time>2022-09-06T16:09:51Z</time>
      </trkpt>
      <trkpt lat="42.45384" lon="1.905">
        <ele>1232</ele>
        <time>2022-09-06T16:09:52Z</time>
      </trkpt>
      <trkpt lat="42.45378" lon="1.90505">
        <ele>1232</ele>
        <time>2022-09-06T16:09:53Z</time>
      </trkpt>
      <trkpt lat="42.45372" lon="1.90511">
        <ele>1232</ele>
        <time>2022-09-06T16:09:54Z</time>
      </trkpt>
      <trkpt lat="42.45367" lon="1.90518">
        <ele>1231.4</ele>
        <time>2022-09-06T16:09:55Z</time>
      </trkpt>
      <trkpt lat="42.45362" lon="1.90525">
        <ele>1230.8</ele>
        <time>2022-09-06T16:09:56Z</time>
      </trkpt>
      <trkpt lat="42.45358" lon="1.90532">
        <ele>1230.8</ele>
        <time>2022-09-06T16:09:57Z</time>
      </trkpt>
      <trkpt lat="42.45353" lon="1.9054">
        <ele>1230.8</ele>
        <time>2022-09-06T16:09:58Z</time>
      </trkpt>
      <trkpt lat="42.45348" lon="1.90547">
        <ele>1230.8</ele>
        <time>2022-09-06T16:09:59Z</time>
      </trkpt>
      <trkpt lat="42.45343" lon="1.90553">
        <ele>1230.8</ele>
        <time>2022-09-06T16:10:00Z</time>
      </trkpt>
      <trkpt lat="42.45339" lon="1.9056">
        <ele>1230.2</ele>
        <time>2022-09-06T16:10:01Z</time>
      </trkpt>
      <trkpt lat="42.45334" lon="1.90566">
        <ele>1230.2</ele>
        <time>2022-09-06T16:10:02Z</time>
      </trkpt>
      <trkpt lat="42.45329" lon="1.90571">
        <ele>1230.2</ele>
        <time>2022-09-06T16:10:03Z</time>
      </trkpt>
      <trkpt lat="42.45325" lon="1.90577">
        <ele>1230.2</ele>
        <time>2022-09-06T16:10:04Z</time>
      </trkpt>
      <trkpt lat="42.4532" lon="1.90583">
        <ele>1230.6</ele>
        <time>2022-09-06T16:10:05Z</time>
      </trkpt>
      <trkpt lat="42.45316" lon="1.90588">
        <ele>1230.6</ele>
        <time>2022-09-06T16:10:06Z</time>
      </trkpt>
      <trkpt lat="42.45312" lon="1.90594">
        <ele>1230.6</ele>
        <time>2022-09-06T16:10:07Z</time>
      </trkpt>
      <trkpt lat="42.45307" lon="1.90599">
        <ele>1229.6</ele>
        <time>2022-09-06T16:10:08Z</time>
      </trkpt>
      <trkpt lat="42.45301" lon="1.90604">
        <ele>1229.6</ele>
        <time>2022-09-06T16:10:09Z</time>
      </trkpt>
      <trkpt lat="42.45296" lon="1.90609">
        <ele>1229.6</ele>
        <time>2022-09-06T16:10:10Z</time>
      </trkpt>
      <trkpt lat="42.4529" lon="1.90614">
        <ele>1229.6</ele>
        <time>2022-09-06T16:10:11Z</time>
      </trkpt>
      <trkpt lat="42.45285" lon="1.90619">
        <ele>1229</ele>
        <time>2022-09-06T16:10:12Z</time>
      </trkpt>
      <trkpt lat="42.45279" lon="1.90624">
        <ele>1228.6</ele>
        <time>2022-09-06T16:10:13Z</time>
      </trkpt>
      <trkpt lat="42.45273" lon="1.9063">
        <ele>1228.6</ele>
        <time>2022-09-06T16:10:14Z</time>
      </trkpt>
      <trkpt lat="42.45267" lon="1.90636">
        <ele>1228.6</ele>
        <time>2022-09-06T16:10:15Z</time>
      </trkpt>
      <trkpt lat="42.45261" lon="1.90642">
        <ele>1227.6</ele>
        <time>2022-09-06T16:10:16Z</time>
      </trkpt>
      <trkpt lat="42.45255" lon="1.90648">
        <ele>1226</ele>
        <time>2022-09-06T16:10:17Z</time>
      </trkpt>
      <trkpt lat="42.45248" lon="1.90653">
        <ele>1226</ele>
        <time>2022-09-06T16:10:18Z</time>
      </trkpt>
      <trkpt lat="42.45242" lon="1.90659">
        <ele>1226</ele>
        <time>2022-09-06T16:10:19Z</time>
      </trkpt>
      <trkpt lat="42.45236" lon="1.90666">
        <ele>1226</ele>
        <time>2022-09-06T16:10:20Z</time>
      </trkpt>
      <trkpt lat="42.4523" lon="1.90673">
        <ele>1225.2</ele>
        <time>2022-09-06T16:10:21Z</time>
      </trkpt>
      <trkpt lat="42.45225" lon="1.90679">
        <ele>1225</ele>
        <time>2022-09-06T16:10:22Z</time>
      </trkpt>
      <trkpt lat="42.45221" lon="1.90685">
        <ele>1225</ele>
        <time>2022-09-06T16:10:23Z</time>
      </trkpt>
      <trkpt lat="42.45217" lon="1.90689">
        <ele>1225</ele>
        <time>2022-09-06T16:10:24Z</time>
      </trkpt>
      <trkpt lat="42.45213" lon="1.90694">
        <ele>1224.2</ele>
        <time>2022-09-06T16:10:25Z</time>
      </trkpt>
      <trkpt lat="42.4521" lon="1.90698">
        <ele>1224.2</ele>
        <time>2022-09-06T16:10:26Z</time>
      </trkpt>
      <trkpt lat="42.45208" lon="1.90702">
        <ele>1224.2</ele>
        <time>2022-09-06T16:10:27Z</time>
      </trkpt>
      <trkpt lat="42.45208" lon="1.90707">
        <ele>1224.2</ele>
        <time>2022-09-06T16:10:28Z</time>
      </trkpt>
      <trkpt lat="42.4521" lon="1.90713">
        <ele>1224.2</ele>
        <time>2022-09-06T16:10:29Z</time>
      </trkpt>
      <trkpt lat="42.45214" lon="1.90717">
        <ele>1224.4</ele>
        <time>2022-09-06T16:10:30Z</time>
      </trkpt>
      <trkpt lat="42.4522" lon="1.90719">
        <ele>1224.4</ele>
        <time>2022-09-06T16:10:31Z</time>
      </trkpt>
      <trkpt lat="42.45227" lon="1.90719">
        <ele>1224.4</ele>
        <time>2022-09-06T16:10:32Z</time>
      </trkpt>
      <trkpt lat="42.45233" lon="1.90719">
        <ele>1224.4</ele>
        <time>2022-09-06T16:10:33Z</time>
      </trkpt>
      <trkpt lat="42.45239" lon="1.90718">
        <ele>1224.8</ele>
        <time>2022-09-06T16:10:34Z</time>
      </trkpt>
      <trkpt lat="42.45245" lon="1.90718">
        <ele>1224.8</ele>
        <time>2022-09-06T16:10:35Z</time>
      </trkpt>
      <trkpt lat="42.45251" lon="1.90718">
        <ele>1224.8</ele>
        <time>2022-09-06T16:10:36Z</time>
      </trkpt>
      <trkpt lat="42.45257" lon="1.90719">
        <ele>1224.8</ele>
        <time>2022-09-06T16:10:37Z</time>
      </trkpt>
      <trkpt lat="42.45263" lon="1.9072">
        <ele>1225.8</ele>
        <time>2022-09-06T16:10:38Z</time>
      </trkpt>
      <trkpt lat="42.45269" lon="1.90721">
        <ele>1225.6</ele>
        <time>2022-09-06T16:10:39Z</time>
      </trkpt>
      <trkpt lat="42.45275" lon="1.90721">
        <ele>1225.6</ele>
        <time>2022-09-06T16:10:40Z</time>
      </trkpt>
      <trkpt lat="42.45281" lon="1.90722">
        <ele>1225.6</ele>
        <time>2022-09-06T16:10:41Z</time>
      </trkpt>
      <trkpt lat="42.45287" lon="1.90723">
        <ele>1226.4</ele>
        <time>2022-09-06T16:10:42Z</time>
      </trkpt>
      <trkpt lat="42.45293" lon="1.90725">
        <ele>1227</ele>
        <time>2022-09-06T16:10:43Z</time>
      </trkpt>
      <trkpt lat="42.45298" lon="1.90728">
        <ele>1227</ele>
        <time>2022-09-06T16:10:44Z</time>
      </trkpt>
      <trkpt lat="42.45303" lon="1.90733">
        <ele>1227</ele>
        <time>2022-09-06T16:10:45Z</time>
      </trkpt>
      <trkpt lat="42.45307" lon="1.90738">
        <ele>1227</ele>
        <time>2022-09-06T16:10:46Z</time>
      </trkpt>
      <trkpt lat="42.45311" lon="1.90743">
        <ele>1228.2</ele>
        <time>2022-09-06T16:10:47Z</time>
      </trkpt>
      <trkpt lat="42.45315" lon="1.90749">
        <ele>1228.2</ele>
        <time>2022-09-06T16:10:48Z</time>
      </trkpt>
      <trkpt lat="42.45319" lon="1.90754">
        <ele>1228.2</ele>
        <time>2022-09-06T16:10:49Z</time>
      </trkpt>
      <trkpt lat="42.45323" lon="1.90759">
        <ele>1229.2</ele>
        <time>2022-09-06T16:10:50Z</time>
      </trkpt>
      <trkpt lat="42.45326" lon="1.90764">
        <ele>1229.6</ele>
        <time>2022-09-06T16:10:51Z</time>
      </trkpt>
      <trkpt lat="42.4533" lon="1.90769">
        <ele>1229.6</ele>
        <time>2022-09-06T16:10:52Z</time>
      </trkpt>
      <trkpt lat="42.45333" lon="1.90774">
        <ele>1229.6</ele>
        <time>2022-09-06T16:10:53Z</time>
      </trkpt>
      <trkpt lat="42.45337" lon="1.90779">
        <ele>1229.6</ele>
        <time>2022-09-06T16:10:54Z</time>
      </trkpt>
      <trkpt lat="42.4534" lon="1.90784">
        <ele>1230.6</ele>
        <time>2022-09-06T16:10:55Z</time>
      </trkpt>
      <trkpt lat="42.45344" lon="1.9079">
        <ele>1230.6</ele>
        <time>2022-09-06T16:10:56Z</time>
      </trkpt>
      <trkpt lat="42.45347" lon="1.90795">
        <ele>1230.6</ele>
        <time>2022-09-06T16:10:57Z</time>
      </trkpt>
      <trkpt lat="42.45351" lon="1.908">
        <ele>1230.6</ele>
        <time>2022-09-06T16:10:58Z</time>
      </trkpt>
      <trkpt lat="42.45354" lon="1.90805">
        <ele>1230.6</ele>
        <time>2022-09-06T16:10:59Z</time>
      </trkpt>
      <trkpt lat="42.45358" lon="1.9081">
        <ele>1231.2</ele>
        <time>2022-09-06T16:11:00Z</time>
      </trkpt>
      <trkpt lat="42.45361" lon="1.90815">
        <ele>1231.2</ele>
        <time>2022-09-06T16:11:01Z</time>
      </trkpt>
      <trkpt lat="42.45365" lon="1.90819">
        <ele>1231.2</ele>
        <time>2022-09-06T16:11:02Z</time>
      </trkpt>
      <trkpt lat="42.45368" lon="1.90823">
        <ele>1231.2</ele>
        <time>2022-09-06T16:11:03Z</time>
      </trkpt>
      <trkpt lat="42.45372" lon="1.90826">
        <ele>1232</ele>
        <time>2022-09-06T16:11:04Z</time>
      </trkpt>
      <trkpt lat="42.45376" lon="1.9083">
        <ele>1232</ele>
        <time>2022-09-06T16:11:05Z</time>
      </trkpt>
      <trkpt lat="42.4538" lon="1.90833">
        <ele>1232</ele>
        <time>2022-09-06T16:11:06Z</time>
      </trkpt>
      <trkpt lat="42.45383" lon="1.90837">
        <ele>1232</ele>
        <time>2022-09-06T16:11:07Z</time>
      </trkpt>
      <trkpt lat="42.45387" lon="1.9084">
        <ele>1232</ele>
        <time>2022-09-06T16:11:08Z</time>
      </trkpt>
      <trkpt lat="42.4539" lon="1.90843">
        <ele>1232</ele>
        <time>2022-09-06T16:11:09Z</time>
      </trkpt>
      <trkpt lat="42.45394" lon="1.90846">
        <ele>1232</ele>
        <time>2022-09-06T16:11:10Z</time>
      </trkpt>
      <trkpt lat="42.45397" lon="1.90848">
        <ele>1233</ele>
        <time>2022-09-06T16:11:11Z</time>
      </trkpt>
      <trkpt lat="42.45401" lon="1.90851">
        <ele>1233</ele>
        <time>2022-09-06T16:11:12Z</time>
      </trkpt>
      <trkpt lat="42.45404" lon="1.90854">
        <ele>1232.8</ele>
        <time>2022-09-06T16:11:13Z</time>
      </trkpt>
      <trkpt lat="42.45408" lon="1.90857">
        <ele>1232.8</ele>
        <time>2022-09-06T16:11:14Z</time>
      </trkpt>
      <trkpt lat="42.45412" lon="1.9086">
        <ele>1232.8</ele>
        <time>2022-09-06T16:11:15Z</time>
      </trkpt>
      <trkpt lat="42.45416" lon="1.90863">
        <ele>1233.4</ele>
        <time>2022-09-06T16:11:16Z</time>
      </trkpt>
      <trkpt lat="42.45421" lon="1.90867">
        <ele>1233.6</ele>
        <time>2022-09-06T16:11:17Z</time>
      </trkpt>
      <trkpt lat="42.45424" lon="1.90869">
        <ele>1233.6</ele>
        <time>2022-09-06T16:11:18Z</time>
      </trkpt>
      <trkpt lat="42.45428" lon="1.90872">
        <ele>1233.6</ele>
        <time>2022-09-06T16:11:19Z</time>
      </trkpt>
      <trkpt lat="42.45432" lon="1.90875">
        <ele>1233.6</ele>
        <time>2022-09-06T16:11:20Z</time>
      </trkpt>
      <trkpt lat="42.45436" lon="1.90879">
        <ele>1233.8</ele>
        <time>2022-09-06T16:11:21Z</time>
      </trkpt>
      <trkpt lat="42.4544" lon="1.90882">
        <ele>1233.8</ele>
        <time>2022-09-06T16:11:22Z</time>
      </trkpt>
      <trkpt lat="42.45444" lon="1.90886">
        <ele>1233.8</ele>
        <time>2022-09-06T16:11:23Z</time>
      </trkpt>
      <trkpt lat="42.45448" lon="1.90891">
        <ele>1234.6</ele>
        <time>2022-09-06T16:11:24Z</time>
      </trkpt>
      <trkpt lat="42.45453" lon="1.90895">
        <ele>1235</ele>
        <time>2022-09-06T16:11:25Z</time>
      </trkpt>
      <trkpt lat="42.45457" lon="1.90899">
        <ele>1235</ele>
        <time>2022-09-06T16:11:26Z</time>
      </trkpt>
      <trkpt lat="42.45461" lon="1.90903">
        <ele>1235</ele>
        <time>2022-09-06T16:11:27Z</time>
      </trkpt>
      <trkpt lat="42.45466" lon="1.90907">
        <ele>1234.6</ele>
        <time>2022-09-06T16:11:28Z</time>
      </trkpt>
      <trkpt lat="42.4547" lon="1.9091">
        <ele>1235.6</ele>
        <time>2022-09-06T16:11:29Z</time>
      </trkpt>
      <trkpt lat="42.45474" lon="1.90914">
        <ele>1235.6</ele>
        <time>2022-09-06T16:11:30Z</time>
      </trkpt>
      <trkpt lat="42.45479" lon="1.90918">
        <ele>1235.6</ele>
        <time>2022-09-06T16:11:31Z</time>
      </trkpt>
      <trkpt lat="42.45483" lon="1.90922">
        <ele>1235.6</ele>
        <time>2022-09-06T16:11:32Z</time>
      </trkpt>
      <trkpt lat="42.45487" lon="1.90927">
        <ele>1237.2</ele>
        <time>2022-09-06T16:11:33Z</time>
      </trkpt>
      <trkpt lat="42.45491" lon="1.90931">
        <ele>1237.2</ele>
        <time>2022-09-06T16:11:34Z</time>
      </trkpt>
      <trkpt lat="42.45495" lon="1.90936">
        <ele>1237.2</ele>
        <time>2022-09-06T16:11:35Z</time>
      </trkpt>
      <trkpt lat="42.45499" lon="1.9094">
        <ele>1237.2</ele>
        <time>2022-09-06T16:11:36Z</time>
      </trkpt>
      <trkpt lat="42.45504" lon="1.90944">
        <ele>1237.2</ele>
        <time>2022-09-06T16:11:37Z</time>
      </trkpt>
      <trkpt lat="42.45508" lon="1.90948">
        <ele>1237.6</ele>
        <time>2022-09-06T16:11:38Z</time>
      </trkpt>
      <trkpt lat="42.45512" lon="1.90952">
        <ele>1237.6</ele>
        <time>2022-09-06T16:11:39Z</time>
      </trkpt>
      <trkpt lat="42.45517" lon="1.90956">
        <ele>1237.6</ele>
        <time>2022-09-06T16:11:40Z</time>
      </trkpt>
      <trkpt lat="42.45523" lon="1.90961">
        <ele>1236.8</ele>
        <time>2022-09-06T16:11:41Z</time>
      </trkpt>
      <trkpt lat="42.45528" lon="1.90965">
        <ele>1237.8</ele>
        <time>2022-09-06T16:11:42Z</time>
      </trkpt>
      <trkpt lat="42.45533" lon="1.90968">
        <ele>1237.8</ele>
        <time>2022-09-06T16:11:43Z</time>
      </trkpt>
      <trkpt lat="42.45538" lon="1.90971">
        <ele>1237.8</ele>
        <time>2022-09-06T16:11:44Z</time>
      </trkpt>
      <trkpt lat="42.45542" lon="1.90974">
        <ele>1237.8</ele>
        <time>2022-09-06T16:11:45Z</time>
      </trkpt>
      <trkpt lat="42.45544" lon="1.90979">
        <ele>1238</ele>
        <time>2022-09-06T16:11:46Z</time>
      </trkpt>
      <trkpt lat="42.45544" lon="1.90987">
        <ele>1238</ele>
        <time>2022-09-06T16:11:47Z</time>
      </trkpt>
      <trkpt lat="42.45542" lon="1.90995">
        <ele>1238</ele>
        <time>2022-09-06T16:11:48Z</time>
      </trkpt>
      <trkpt lat="42.45538" lon="1.91003">
        <ele>1237</ele>
        <time>2022-09-06T16:11:49Z</time>
      </trkpt>
      <trkpt lat="42.45533" lon="1.9101">
        <ele>1235.2</ele>
        <time>2022-09-06T16:11:50Z</time>
      </trkpt>
      <trkpt lat="42.45528" lon="1.91016">
        <ele>1235.2</ele>
        <time>2022-09-06T16:11:51Z</time>
      </trkpt>
      <trkpt lat="42.45522" lon="1.91023">
        <ele>1235.2</ele>
        <time>2022-09-06T16:11:52Z</time>
      </trkpt>
      <trkpt lat="42.45516" lon="1.9103">
        <ele>1235.2</ele>
        <time>2022-09-06T16:11:53Z</time>
      </trkpt>
      <trkpt lat="42.45511" lon="1.91037">
        <ele>1236.2</ele>
        <time>2022-09-06T16:11:54Z</time>
      </trkpt>
      <trkpt lat="42.45506" lon="1.91045">
        <ele>1236.2</ele>
        <time>2022-09-06T16:11:55Z</time>
      </trkpt>
      <trkpt lat="42.45502" lon="1.91052">
        <ele>1236.2</ele>
        <time>2022-09-06T16:11:56Z</time>
      </trkpt>
      <trkpt lat="42.45497" lon="1.9106">
        <ele>1236.2</ele>
        <time>2022-09-06T16:11:57Z</time>
      </trkpt>
      <trkpt lat="42.45493" lon="1.91067">
        <ele>1233.6</ele>
        <time>2022-09-06T16:11:58Z</time>
      </trkpt>
      <trkpt lat="42.45489" lon="1.91075">
        <ele>1233.6</ele>
        <time>2022-09-06T16:11:59Z</time>
      </trkpt>
      <trkpt lat="42.45486" lon="1.91083">
        <ele>1233.6</ele>
        <time>2022-09-06T16:12:00Z</time>
      </trkpt>
      <trkpt lat="42.45485" lon="1.91092">
        <ele>1233.6</ele>
        <time>2022-09-06T16:12:01Z</time>
      </trkpt>
      <trkpt lat="42.45486" lon="1.91101">
        <ele>1233.6</ele>
        <time>2022-09-06T16:12:02Z</time>
      </trkpt>
      <trkpt lat="42.45487" lon="1.91109">
        <ele>1235</ele>
        <time>2022-09-06T16:12:03Z</time>
      </trkpt>
      <trkpt lat="42.45485" lon="1.91117">
        <ele>1235</ele>
        <time>2022-09-06T16:12:04Z</time>
      </trkpt>
      <trkpt lat="42.45481" lon="1.91123">
        <ele>1235</ele>
        <time>2022-09-06T16:12:05Z</time>
      </trkpt>
      <trkpt lat="42.45476" lon="1.91129">
        <ele>1235</ele>
        <time>2022-09-06T16:12:06Z</time>
      </trkpt>
      <trkpt lat="42.4547" lon="1.91134">
        <ele>1235.2</ele>
        <time>2022-09-06T16:12:07Z</time>
      </trkpt>
      <trkpt lat="42.45465" lon="1.91139">
        <ele>1235.2</ele>
        <time>2022-09-06T16:12:08Z</time>
      </trkpt>
      <trkpt lat="42.4546" lon="1.91144">
        <ele>1235.2</ele>
        <time>2022-09-06T16:12:09Z</time>
      </trkpt>
      <trkpt lat="42.45454" lon="1.9115">
        <ele>1235.2</ele>
        <time>2022-09-06T16:12:10Z</time>
      </trkpt>
      <trkpt lat="42.45448" lon="1.91155">
        <ele>1235.2</ele>
        <time>2022-09-06T16:12:11Z</time>
      </trkpt>
      <trkpt lat="42.45442" lon="1.91161">
        <ele>1235.2</ele>
        <time>2022-09-06T16:12:12Z</time>
      </trkpt>
      <trkpt lat="42.45436" lon="1.91165">
        <ele>1235.2</ele>
        <time>2022-09-06T16:12:13Z</time>
      </trkpt>
      <trkpt lat="42.45429" lon="1.9117">
        <ele>1235.2</ele>
        <time>2022-09-06T16:12:14Z</time>
      </trkpt>
      <trkpt lat="42.45423" lon="1.91174">
        <ele>1235.2</ele>
        <time>2022-09-06T16:12:15Z</time>
      </trkpt>
      <trkpt lat="42.45416" lon="1.91178">
        <ele>1233.8</ele>
        <time>2022-09-06T16:12:16Z</time>
      </trkpt>
      <trkpt lat="42.45409" lon="1.91181">
        <ele>1233.8</ele>
        <time>2022-09-06T16:12:17Z</time>
      </trkpt>
      <trkpt lat="42.45403" lon="1.91184">
        <ele>1233.8</ele>
        <time>2022-09-06T16:12:18Z</time>
      </trkpt>
      <trkpt lat="42.45395" lon="1.91188">
        <ele>1233.8</ele>
        <time>2022-09-06T16:12:19Z</time>
      </trkpt>
      <trkpt lat="42.45388" lon="1.91191">
        <ele>1232.4</ele>
        <time>2022-09-06T16:12:20Z</time>
      </trkpt>
      <trkpt lat="42.4538" lon="1.91194">
        <ele>1232.4</ele>
        <time>2022-09-06T16:12:21Z</time>
      </trkpt>
      <trkpt lat="42.45373" lon="1.91196">
        <ele>1232.4</ele>
        <time>2022-09-06T16:12:22Z</time>
      </trkpt>
      <trkpt lat="42.45365" lon="1.91199">
        <ele>1232.4</ele>
        <time>2022-09-06T16:12:23Z</time>
      </trkpt>
      <trkpt lat="42.45357" lon="1.91202">
        <ele>1231.4</ele>
        <time>2022-09-06T16:12:24Z</time>
      </trkpt>
      <trkpt lat="42.45349" lon="1.91204">
        <ele>1231.4</ele>
        <time>2022-09-06T16:12:25Z</time>
      </trkpt>
      <trkpt lat="42.45341" lon="1.91206">
        <ele>1231.4</ele>
        <time>2022-09-06T16:12:26Z</time>
      </trkpt>
      <trkpt lat="42.45334" lon="1.91209">
        <ele>1231.4</ele>
        <time>2022-09-06T16:12:27Z</time>
      </trkpt>
      <trkpt lat="42.45326" lon="1.91211">
        <ele>1231</ele>
        <time>2022-09-06T16:12:28Z</time>
      </trkpt>
      <trkpt lat="42.45319" lon="1.91214">
        <ele>1231</ele>
        <time>2022-09-06T16:12:29Z</time>
      </trkpt>
      <trkpt lat="42.45311" lon="1.91216">
        <ele>1231</ele>
        <time>2022-09-06T16:12:30Z</time>
      </trkpt>
      <trkpt lat="42.45303" lon="1.91218">
        <ele>1230</ele>
        <time>2022-09-06T16:12:31Z</time>
      </trkpt>
      <trkpt lat="42.45296" lon="1.9122">
        <ele>1230</ele>
        <time>2022-09-06T16:12:32Z</time>
      </trkpt>
      <trkpt lat="42.45291" lon="1.91224">
        <ele>1228.6</ele>
        <time>2022-09-06T16:12:33Z</time>
      </trkpt>
      <trkpt lat="42.45288" lon="1.91229">
        <ele>1228.6</ele>
        <time>2022-09-06T16:12:34Z</time>
      </trkpt>
      <trkpt lat="42.45287" lon="1.91234">
        <ele>1228.6</ele>
        <time>2022-09-06T16:12:35Z</time>
      </trkpt>
      <trkpt lat="42.45288" lon="1.91238">
        <ele>1227.6</ele>
        <time>2022-09-06T16:12:36Z</time>
      </trkpt>
      <trkpt lat="42.45289" lon="1.91242">
        <ele>1227</ele>
        <time>2022-09-06T16:12:37Z</time>
      </trkpt>
      <trkpt lat="42.4529" lon="1.91246">
        <ele>1227</ele>
        <time>2022-09-06T16:12:38Z</time>
      </trkpt>
      <trkpt lat="42.4529" lon="1.91251">
        <ele>1227</ele>
        <time>2022-09-06T16:12:39Z</time>
      </trkpt>
      <trkpt lat="42.45288" lon="1.91256">
        <ele>1228</ele>
        <time>2022-09-06T16:12:40Z</time>
      </trkpt>
      <trkpt lat="42.452837" lon="1.912576">
        <ele>1216.3</ele>
        <time>2022-09-06T16:12:41Z</time>
      </trkpt>
      <trkpt lat="42.449146" lon="1.913924">
        <ele>1204.8</ele>
        <time>2022-09-06T16:13:31Z</time>
      </trkpt>
      <trkpt lat="42.449066" lon="1.913961">
        <ele>1204.5</ele>
        <time>2022-09-06T16:13:32Z</time>
      </trkpt>
      <trkpt lat="42.448932" lon="1.914081">
        <ele>1203.8</ele>
        <time>2022-09-06T16:13:34Z</time>
      </trkpt>
      <trkpt lat="42.448843" lon="1.914106">
        <ele>1203.5</ele>
        <time>2022-09-06T16:13:36Z</time>
      </trkpt>
      <trkpt lat="42.448658" lon="1.914084">
        <ele>1202.5</ele>
        <time>2022-09-06T16:13:38Z</time>
      </trkpt>
      <trkpt lat="42.448495" lon="1.914143">
        <ele>1201.8</ele>
        <time>2022-09-06T16:13:40Z</time>
      </trkpt>
      <trkpt lat="42.448174" lon="1.914317">
        <ele>1199.8</ele>
        <time>2022-09-06T16:13:45Z</time>
      </trkpt>
      <trkpt lat="42.447705" lon="1.914482">
        <ele>1197.8</ele>
        <time>2022-09-06T16:13:51Z</time>
      </trkpt>
      <trkpt lat="42.447399" lon="1.91461">
        <ele>1196.8</ele>
        <time>2022-09-06T16:13:55Z</time>
      </trkpt>
      <trkpt lat="42.446627" lon="1.914907">
        <ele>1196.3</ele>
        <time>2022-09-06T16:14:06Z</time>
      </trkpt>
      <trkpt lat="42.446454" lon="1.914981">
        <ele>1196</ele>
        <time>2022-09-06T16:14:08Z</time>
      </trkpt>
      <trkpt lat="42.446324" lon="1.914987">
        <ele>1196</ele>
        <time>2022-09-06T16:14:10Z</time>
      </trkpt>
      <trkpt lat="42.445936" lon="1.915186">
        <ele>1195</ele>
        <time>2022-09-06T16:14:16Z</time>
      </trkpt>
      <trkpt lat="42.445687" lon="1.915207">
        <ele>1194.5</ele>
        <time>2022-09-06T16:14:19Z</time>
      </trkpt>
      <trkpt lat="42.445184" lon="1.915389">
        <ele>1193.3</ele>
        <time>2022-09-06T16:14:26Z</time>
      </trkpt>
      <trkpt lat="42.444043" lon="1.915776">
        <ele>1188.8</ele>
        <time>2022-09-06T16:14:41Z</time>
      </trkpt>
      <trkpt lat="42.44376" lon="1.915938">
        <ele>1187.5</ele>
        <time>2022-09-06T16:14:45Z</time>
      </trkpt>
      <trkpt lat="42.44354" lon="1.915999">
        <ele>1187</ele>
        <time>2022-09-06T16:14:48Z</time>
      </trkpt>
      <trkpt lat="42.442953" lon="1.91622">
        <ele>1185.5</ele>
        <time>2022-09-06T16:14:56Z</time>
      </trkpt>
      <trkpt lat="42.443113" lon="1.916556">
        <ele>1184.8</ele>
        <time>2022-09-06T16:15:00Z</time>
      </trkpt>
      <trkpt lat="42.44327365356485" lon="1.916887867447686">
        <ele>1184.5</ele>
        <time>2022-09-06T16:15:02Z</time>
      </trkpt>
      <trkpt lat="42.443285" lon="1.916915">
        <ele>1184.3</ele>
        <time>2022-09-06T16:15:04Z</time>
      </trkpt>
      <trkpt lat="42.443438" lon="1.917205">
        <ele>1183.5</ele>
        <time>2022-09-06T16:15:10Z</time>
      </trkpt>
      <trkpt lat="42.443492" lon="1.917308">
        <ele>1183.5</ele>
        <time>2022-09-06T16:15:12Z</time>
      </trkpt>
      <trkpt lat="42.443603" lon="1.917478">
        <ele>1183.3</ele>
        <time>2022-09-06T16:15:15Z</time>
      </trkpt>
      <trkpt lat="42.443734" lon="1.917517">
        <ele>1183.3</ele>
        <time>2022-09-06T16:15:18Z</time>
      </trkpt>
      <trkpt lat="42.443763" lon="1.917516">
        <ele>1183.3</ele>
        <time>2022-09-06T16:15:18Z</time>
      </trkpt>
      <trkpt lat="42.444049" lon="1.917512">
        <ele>1183.8</ele>
        <time>2022-09-06T16:15:24Z</time>
      </trkpt>
      <trkpt lat="42.444141" lon="1.917585">
        <ele>1183.8</ele>
        <time>2022-09-06T16:15:26Z</time>
      </trkpt>
      <trkpt lat="42.444262" lon="1.917826">
        <ele>1184</ele>
        <time>2022-09-06T16:15:31Z</time>
      </trkpt>
      <trkpt lat="42.444398" lon="1.918228">
        <ele>1184</ele>
        <time>2022-09-06T16:15:37Z</time>
      </trkpt>
      <trkpt lat="42.444403" lon="1.918296">
        <ele>1184</ele>
        <time>2022-09-06T16:15:38Z</time>
      </trkpt>
      <trkpt lat="42.444407" lon="1.918355">
        <ele>1184</ele>
        <time>2022-09-06T16:15:39Z</time>
      </trkpt>
      <trkpt lat="42.444312" lon="1.918469">
        <ele>1183.3</ele>
        <time>2022-09-06T16:15:42Z</time>
      </trkpt>
      <trkpt lat="42.444181" lon="1.918588">
        <ele>1182.3</ele>
        <time>2022-09-06T16:15:45Z</time>
      </trkpt>
      <trkpt lat="42.444133" lon="1.918729">
        <ele>1181.8</ele>
        <time>2022-09-06T16:15:47Z</time>
      </trkpt>
      <trkpt lat="42.444151" lon="1.91883">
        <ele>1181.5</ele>
        <time>2022-09-06T16:15:49Z</time>
      </trkpt>
      <trkpt lat="42.444161" lon="1.91888">
        <ele>1181.5</ele>
        <time>2022-09-06T16:15:50Z</time>
      </trkpt>
      <trkpt lat="42.444217" lon="1.918981">
        <ele>1181.5</ele>
        <time>2022-09-06T16:15:51Z</time>
      </trkpt>
      <trkpt lat="42.444597" lon="1.919526">
        <ele>1182.3</ele>
        <time>2022-09-06T16:16:03Z</time>
      </trkpt>
      <trkpt lat="42.444985" lon="1.920125">
        <ele>1184.3</ele>
        <time>2022-09-06T16:16:15Z</time>
      </trkpt>
      <trkpt lat="42.445004" lon="1.920194">
        <ele>1184.3</ele>
        <time>2022-09-06T16:16:16Z</time>
      </trkpt>
      <trkpt lat="42.444982" lon="1.920249">
        <ele>1184.5</ele>
        <time>2022-09-06T16:16:17Z</time>
      </trkpt>
      <trkpt lat="42.444742" lon="1.920541">
        <ele>1184.5</ele>
        <time>2022-09-06T16:16:23Z</time>
      </trkpt>
      <trkpt lat="42.444489" lon="1.920888">
        <ele>1184.5</ele>
        <time>2022-09-06T16:16:30Z</time>
      </trkpt>
      <trkpt lat="42.444448" lon="1.921002">
        <ele>1184</ele>
        <time>2022-09-06T16:16:32Z</time>
      </trkpt>
      <trkpt lat="42.444354" lon="1.921056">
        <ele>1183.5</ele>
        <time>2022-09-06T16:16:34Z</time>
      </trkpt>
      <trkpt lat="42.444302" lon="1.921087">
        <ele>1183.5</ele>
        <time>2022-09-06T16:16:36Z</time>
      </trkpt>
      <trkpt lat="42.444051" lon="1.921307">
        <ele>1181.5</ele>
        <time>2022-09-06T16:16:42Z</time>
      </trkpt>
      <trkpt lat="42.443544" lon="1.921778">
        <ele>1177.5</ele>
        <time>2022-09-06T16:16:54Z</time>
      </trkpt>
      <trkpt lat="42.443448" lon="1.921878">
        <ele>1177.5</ele>
        <time>2022-09-06T16:16:56Z</time>
      </trkpt>
      <trkpt lat="42.443364" lon="1.921967">
        <ele>1177.5</ele>
        <time>2022-09-06T16:16:59Z</time>
      </trkpt>
      <trkpt lat="42.44329962092205" lon="1.922064304835778">
        <ele>1178</ele>
        <time>2022-09-06T16:17:01Z</time>
      </trkpt>
      <trkpt lat="42.443213" lon="1.922198">
        <ele>1178.5</ele>
        <time>2022-09-06T16:17:03Z</time>
      </trkpt>
      <trkpt lat="42.443083" lon="1.922491">
        <ele>1180.3</ele>
        <time>2022-09-06T16:17:08Z</time>
      </trkpt>
      <trkpt lat="42.443064" lon="1.922615">
        <ele>1181.3</ele>
        <time>2022-09-06T16:17:10Z</time>
      </trkpt>
      <trkpt lat="42.443079" lon="1.92273">
        <ele>1182</ele>
        <time>2022-09-06T16:17:12Z</time>
      </trkpt>
      <trkpt lat="42.443114" lon="1.922851">
        <ele>1183</ele>
        <time>2022-09-06T16:17:14Z</time>
      </trkpt>
      <trkpt lat="42.443132" lon="1.922981">
        <ele>1184</ele>
        <time>2022-09-06T16:17:16Z</time>
      </trkpt>
      <trkpt lat="42.443122" lon="1.923113">
        <ele>1185</ele>
        <time>2022-09-06T16:17:18Z</time>
      </trkpt>
      <trkpt lat="42.443118" lon="1.923186">
        <ele>1185.8</ele>
        <time>2022-09-06T16:17:19Z</time>
      </trkpt>
      <trkpt lat="42.443082" lon="1.923297">
        <ele>1186.8</ele>
        <time>2022-09-06T16:17:21Z</time>
      </trkpt>
      <trkpt lat="42.443349" lon="1.923782">
        <ele>1194.3</ele>
        <time>2022-09-06T16:17:30Z</time>
      </trkpt>
      <trkpt lat="42.443603" lon="1.92434">
        <ele>1197.3</ele>
        <time>2022-09-06T16:17:40Z</time>
      </trkpt>
      <trkpt lat="42.443884" lon="1.924955">
        <ele>1201</ele>
        <time>2022-09-06T16:17:50Z</time>
      </trkpt>
      <trkpt lat="42.444094" lon="1.925596">
        <ele>1200</ele>
        <time>2022-09-06T16:18:01Z</time>
      </trkpt>
      <trkpt lat="42.444106" lon="1.925632">
        <ele>1200</ele>
        <time>2022-09-06T16:18:01Z</time>
      </trkpt>
      <trkpt lat="42.444229" lon="1.926228">
        <ele>1200.3</ele>
        <time>2022-09-06T16:18:11Z</time>
      </trkpt>
      <trkpt lat="42.444343" lon="1.927188">
        <ele>1202.3</ele>
        <time>2022-09-06T16:18:25Z</time>
      </trkpt>
      <trkpt lat="42.444355" lon="1.927286">
        <ele>1202.5</ele>
        <time>2022-09-06T16:18:27Z</time>
      </trkpt>
      <trkpt lat="42.444422" lon="1.92812">
        <ele>1208.5</ele>
        <time>2022-09-06T16:18:39Z</time>
      </trkpt>
      <trkpt lat="42.444439" lon="1.928418">
        <ele>1211.5</ele>
        <time>2022-09-06T16:18:44Z</time>
      </trkpt>
      <trkpt lat="42.44445156498516" lon="1.928514102825165">
        <ele>1212.1</ele>
        <time>2022-09-06T16:18:45Z</time>
      </trkpt>
      <trkpt lat="42.44446412996779" lon="1.92861020565033">
        <ele>1212.7</ele>
        <time>2022-09-06T16:18:47Z</time>
      </trkpt>
      <trkpt lat="42.44446759557874" lon="1.928671225905419">
        <ele>1213.1</ele>
        <time>2022-09-06T16:18:48Z</time>
      </trkpt>
      <trkpt lat="42.44447106118947" lon="1.928732246160507">
        <ele>1213.3</ele>
        <time>2022-09-06T16:18:48Z</time>
      </trkpt>
      <trkpt lat="42.4444715562767" lon="1.928773820400238">
        <ele>1213.3</ele>
        <time>2022-09-06T16:18:49Z</time>
      </trkpt>
      <trkpt lat="42.44447205136392" lon="1.928815394639969">
        <ele>1213.4</ele>
        <time>2022-09-06T16:18:50Z</time>
      </trkpt>
      <trkpt lat="42.44447353662559" lon="1.928866356611252">
        <ele>1213.5</ele>
        <time>2022-09-06T16:18:50Z</time>
      </trkpt>
      <trkpt lat="42.44447502188722" lon="1.928917318582535">
        <ele>1213.6</ele>
        <time>2022-09-06T16:18:51Z</time>
      </trkpt>
      <trkpt lat="42.44448145802053" lon="1.928947493433952">
        <ele>1213.6</ele>
        <time>2022-09-06T16:18:52Z</time>
      </trkpt>
      <trkpt lat="42.44448789415317" lon="1.92897766828537">
        <ele>1213.5</ele>
        <time>2022-09-06T16:18:52Z</time>
      </trkpt>
      <trkpt lat="42.44449779589442" lon="1.929030641913414">
        <ele>1213.5</ele>
        <time>2022-09-06T16:18:53Z</time>
      </trkpt>
      <trkpt lat="42.4445076976341" lon="1.929083615541458">
        <ele>1213.4</ele>
        <time>2022-09-06T16:18:54Z</time>
      </trkpt>
      <trkpt lat="42.44451264850336" lon="1.929135248064995">
        <ele>1213.4</ele>
        <time>2022-09-06T16:18:55Z</time>
      </trkpt>
      <trkpt lat="42.4445175993722" lon="1.929186880588532">
        <ele>1213.3</ele>
        <time>2022-09-06T16:18:55Z</time>
      </trkpt>
      <trkpt lat="42.44453047162942" lon="1.929237842559815">
        <ele>1213.2</ele>
        <time>2022-09-06T16:18:56Z</time>
      </trkpt>
      <trkpt lat="42.44454334388397" lon="1.929288804531098">
        <ele>1213.1</ele>
        <time>2022-09-06T16:18:57Z</time>
      </trkpt>
      <trkpt lat="42.44454383897064" lon="1.929351165890694">
        <ele>1213.2</ele>
        <time>2022-09-06T16:18:58Z</time>
      </trkpt>
      <trkpt lat="42.44454433405728" lon="1.92941352725029">
        <ele>1213.3</ele>
        <time>2022-09-06T16:18:59Z</time>
      </trkpt>
      <trkpt lat="42.4445428487973" lon="1.92944772541523">
        <ele>1213.4</ele>
        <time>2022-09-06T16:18:59Z</time>
      </trkpt>
      <trkpt lat="42.44454136353727" lon="1.92948192358017">
        <ele>1213.5</ele>
        <time>2022-09-06T16:19:00Z</time>
      </trkpt>
      <trkpt lat="42.44454037336394" lon="1.929534897208214">
        <ele>1213.7</ele>
        <time>2022-09-06T16:19:01Z</time>
      </trkpt>
      <trkpt lat="42.44453938319054" lon="1.929587870836258">
        <ele>1213.8</ele>
        <time>2022-09-06T16:19:01Z</time>
      </trkpt>
      <trkpt lat="42.44453591758359" lon="1.929634809494019">
        <ele>1214</ele>
        <time>2022-09-06T16:19:02Z</time>
      </trkpt>
      <trkpt lat="42.44453245197645" lon="1.929681748151779">
        <ele>1214.1</ele>
        <time>2022-09-06T16:19:03Z</time>
      </trkpt>
      <trkpt lat="42.44453542249687" lon="1.929746791720391">
        <ele>1214.5</ele>
        <time>2022-09-06T16:19:04Z</time>
      </trkpt>
      <trkpt lat="42.44453839301716" lon="1.929811835289002">
        <ele>1214.9</ele>
        <time>2022-09-06T16:19:05Z</time>
      </trkpt>
      <trkpt lat="42.44453789793047" lon="1.9298654794693">
        <ele>1215.2</ele>
        <time>2022-09-06T16:19:06Z</time>
      </trkpt>
      <trkpt lat="42.44453740284374" lon="1.929919123649597">
        <ele>1215.5</ele>
        <time>2022-09-06T16:19:06Z</time>
      </trkpt>
      <trkpt lat="42.44453888810385" lon="1.929959356784821">
        <ele>1215.8</ele>
        <time>2022-09-06T16:19:07Z</time>
      </trkpt>
      <trkpt lat="42.44454037336394" lon="1.929999589920044">
        <ele>1216</ele>
        <time>2022-09-06T16:19:08Z</time>
      </trkpt>
      <trkpt lat="42.4445463144039" lon="1.930050551891327">
        <ele>1216.1</ele>
        <time>2022-09-06T16:19:08Z</time>
      </trkpt>
      <trkpt lat="42.44455225544331" lon="1.93010151386261">
        <ele>1216.2</ele>
        <time>2022-09-06T16:19:09Z</time>
      </trkpt>
      <trkpt lat="42.44454928492368" lon="1.930186003446579">
        <ele>1216.3</ele>
        <time>2022-09-06T16:19:10Z</time>
      </trkpt>
      <trkpt lat="42.4445463144039" lon="1.930270493030548">
        <ele>1216.5</ele>
        <time>2022-09-06T16:19:12Z</time>
      </trkpt>
      <trkpt lat="42.44454829475043" lon="1.930313408374787">
        <ele>1216.6</ele>
        <time>2022-09-06T16:19:12Z</time>
      </trkpt>
      <trkpt lat="42.44455027509687" lon="1.930356323719025">
        <ele>1216.6</ele>
        <time>2022-09-06T16:19:13Z</time>
      </trkpt>
      <trkpt lat="42.44455324561645" lon="1.930413320660591">
        <ele>1216.7</ele>
        <time>2022-09-06T16:19:14Z</time>
      </trkpt>
      <trkpt lat="42.4445562161359" lon="1.930470317602158">
        <ele>1216.8</ele>
        <time>2022-09-06T16:19:15Z</time>
      </trkpt>
      <trkpt lat="42.44455720630903" lon="1.930516585707665">
        <ele>1216.8</ele>
        <time>2022-09-06T16:19:15Z</time>
      </trkpt>
      <trkpt lat="42.44455819648211" lon="1.930562853813172">
        <ele>1216.9</ele>
        <time>2022-09-06T16:19:16Z</time>
      </trkpt>
      <trkpt lat="42.44455770139557" lon="1.930597722530365">
        <ele>1216.9</ele>
        <time>2022-09-06T16:19:17Z</time>
      </trkpt>
      <trkpt lat="42.44455720630901" lon="1.930632591247559">
        <ele>1217</ele>
        <time>2022-09-06T16:19:17Z</time>
      </trkpt>
      <trkpt lat="42.44455572104933" lon="1.930664777755738">
        <ele>1217</ele>
        <time>2022-09-06T16:19:18Z</time>
      </trkpt>
      <trkpt lat="42.4445542357896" lon="1.930696964263916">
        <ele>1217.1</ele>
        <time>2022-09-06T16:19:18Z</time>
      </trkpt>
      <trkpt lat="42.44455225544326" lon="1.930735856294632">
        <ele>1217.2</ele>
        <time>2022-09-06T16:19:19Z</time>
      </trkpt>
      <trkpt lat="42.44455027509687" lon="1.930774748325348">
        <ele>1217.3</ele>
        <time>2022-09-06T16:19:19Z</time>
      </trkpt>
      <trkpt lat="42.44454383897064" lon="1.930802911520004">
        <ele>1217.3</ele>
        <time>2022-09-06T16:19:20Z</time>
      </trkpt>
      <trkpt lat="42.44453740284374" lon="1.930831074714661">
        <ele>1217.5</ele>
        <time>2022-09-06T16:19:20Z</time>
      </trkpt>
      <trkpt lat="42.44452453058798" lon="1.930854544043541">
        <ele>1217.6</ele>
        <time>2022-09-06T16:19:21Z</time>
      </trkpt>
      <trkpt lat="42.44451165832953" lon="1.930878013372421">
        <ele>1217.7</ele>
        <time>2022-09-06T16:19:21Z</time>
      </trkpt>
      <trkpt lat="42.44449878606847" lon="1.930904164910317">
        <ele>1217.8</ele>
        <time>2022-09-06T16:19:21Z</time>
      </trkpt>
      <trkpt lat="42.44448591380474" lon="1.930930316448212">
        <ele>1217.9</ele>
        <time>2022-09-06T16:19:22Z</time>
      </trkpt>
      <trkpt lat="42.44447007101499" lon="1.930951774120331">
        <ele>1218</ele>
        <time>2022-09-06T16:19:22Z</time>
      </trkpt>
      <trkpt lat="42.44445422822125" lon="1.93097323179245">
        <ele>1218.1</ele>
        <time>2022-09-06T16:19:23Z</time>
      </trkpt>
      <trkpt lat="42.44444135594838" lon="1.930993348360062">
        <ele>1218.1</ele>
        <time>2022-09-06T16:19:23Z</time>
      </trkpt>
      <trkpt lat="42.44442848367287" lon="1.931013464927674">
        <ele>1218.2</ele>
        <time>2022-09-06T16:19:24Z</time>
      </trkpt>
      <trkpt lat="42.44441957209594" lon="1.931027546525002">
        <ele>1218.2</ele>
        <time>2022-09-06T16:19:24Z</time>
      </trkpt>
      <trkpt lat="42.44441066051776" lon="1.93104162812233">
        <ele>1218.3</ele>
        <time>2022-09-06T16:19:24Z</time>
      </trkpt>
      <trkpt lat="42.44439828332375" lon="1.93106509745121">
        <ele>1218.4</ele>
        <time>2022-09-06T16:19:25Z</time>
      </trkpt>
      <trkpt lat="42.44438590612729" lon="1.931088566780091">
        <ele>1218.4</ele>
        <time>2022-09-06T16:19:25Z</time>
      </trkpt>
      <trkpt lat="42.44436907313617" lon="1.931118741631508">
        <ele>1218.5</ele>
        <time>2022-09-06T16:19:26Z</time>
      </trkpt>
      <trkpt lat="42.44435224014055" lon="1.931148916482926">
        <ele>1218.5</ele>
        <time>2022-09-06T16:19:26Z</time>
      </trkpt>
      <trkpt lat="42.44433342678715" lon="1.931187137961388">
        <ele>1218.5</ele>
        <time>2022-09-06T16:19:27Z</time>
      </trkpt>
      <trkpt lat="42.44431461342808" lon="1.93122535943985">
        <ele>1218.5</ele>
        <time>2022-09-06T16:19:27Z</time>
      </trkpt>
      <trkpt lat="42.44430075094938" lon="1.931263580918312">
        <ele>1218.4</ele>
        <time>2022-09-06T16:19:28Z</time>
      </trkpt>
      <trkpt lat="42.4442868884676" lon="1.931301802396775">
        <ele>1218.4</ele>
        <time>2022-09-06T16:19:29Z</time>
      </trkpt>
      <trkpt lat="42.4442774817818" lon="1.931338682770729">
        <ele>1218.4</ele>
        <time>2022-09-06T16:19:29Z</time>
      </trkpt>
      <trkpt lat="42.44426807509456" lon="1.931375563144684">
        <ele>1218.4</ele>
        <time>2022-09-06T16:19:30Z</time>
      </trkpt>
      <trkpt lat="42.44425916349484" lon="1.931400373578072">
        <ele>1218.5</ele>
        <time>2022-09-06T16:19:30Z</time>
      </trkpt>
      <trkpt lat="42.44425025189384" lon="1.93142518401146">
        <ele>1218.5</ele>
        <time>2022-09-06T16:19:31Z</time>
      </trkpt>
      <trkpt lat="42.44424728135989" lon="1.931456029415131">
        <ele>1218.5</ele>
        <time>2022-09-06T16:19:31Z</time>
      </trkpt>
      <trkpt lat="42.44424431082581" lon="1.931486874818802">
        <ele>1218.5</ele>
        <time>2022-09-06T16:19:32Z</time>
      </trkpt>
      <trkpt lat="42.44423787466815" lon="1.931509673595429">
        <ele>1218.5</ele>
        <time>2022-09-06T16:19:32Z</time>
      </trkpt>
      <trkpt lat="42.44423143850981" lon="1.931532472372055">
        <ele>1218.5</ele>
        <time>2022-09-06T16:19:32Z</time>
      </trkpt>
      <trkpt lat="42.44423143850981" lon="1.931552588939667">
        <ele>1218.5</ele>
        <time>2022-09-06T16:19:33Z</time>
      </trkpt>
      <trkpt lat="42.44423143850981" lon="1.931572705507279">
        <ele>1218.5</ele>
        <time>2022-09-06T16:19:33Z</time>
      </trkpt>
      <trkpt lat="42.44423490413362" lon="1.93159818649292">
        <ele>1218.5</ele>
        <time>2022-09-06T16:19:33Z</time>
      </trkpt>
      <trkpt lat="42.44423836975722" lon="1.931623667478562">
        <ele>1218.5</ele>
        <time>2022-09-06T16:19:34Z</time>
      </trkpt>
      <trkpt lat="42.4442462911819" lon="1.931639760732651">
        <ele>1218.6</ele>
        <time>2022-09-06T16:19:34Z</time>
      </trkpt>
      <trkpt lat="42.44425421260556" lon="1.93165585398674">
        <ele>1218.7</ele>
        <time>2022-09-06T16:19:34Z</time>
      </trkpt>
      <trkpt lat="42.44426411438373" lon="1.931687369942665">
        <ele>1218.8</ele>
        <time>2022-09-06T16:19:35Z</time>
      </trkpt>
      <trkpt lat="42.44427401616036" lon="1.93171888589859">
        <ele>1218.9</ele>
        <time>2022-09-06T16:19:35Z</time>
      </trkpt>
      <trkpt lat="42.44428342284667" lon="1.931739002466202">
        <ele>1219</ele>
        <time>2022-09-06T16:19:36Z</time>
      </trkpt>
      <trkpt lat="42.44429282953159" lon="1.931759119033814">
        <ele>1219.1</ele>
        <time>2022-09-06T16:19:36Z</time>
      </trkpt>
      <trkpt lat="42.44430273130366" lon="1.931781247258187">
        <ele>1219.2</ele>
        <time>2022-09-06T16:19:36Z</time>
      </trkpt>
      <trkpt lat="42.44431263307418" lon="1.931803375482559">
        <ele>1219.3</ele>
        <time>2022-09-06T16:19:37Z</time>
      </trkpt>
      <trkpt lat="42.44433293169882" lon="1.931828856468201">
        <ele>1219.4</ele>
        <time>2022-09-06T16:19:37Z</time>
      </trkpt>
      <trkpt lat="42.44435323031689" lon="1.931854337453842">
        <ele>1219.5</ele>
        <time>2022-09-06T16:19:38Z</time>
      </trkpt>
      <trkpt lat="42.44437055840027" lon="1.931875124573708">
        <ele>1219.6</ele>
        <time>2022-09-06T16:19:38Z</time>
      </trkpt>
      <trkpt lat="42.44438788647889" lon="1.931895911693573">
        <ele>1219.7</ele>
        <time>2022-09-06T16:19:39Z</time>
      </trkpt>
      <trkpt lat="42.44440967034234" lon="1.931918039917946">
        <ele>1219.8</ele>
        <time>2022-09-06T16:19:39Z</time>
      </trkpt>
      <trkpt lat="42.44443145419822" lon="1.931940168142319">
        <ele>1219.9</ele>
        <time>2022-09-06T16:19:40Z</time>
      </trkpt>
      <trkpt lat="42.44445323804651" lon="1.931971684098244">
        <ele>1220</ele>
        <time>2022-09-06T16:19:41Z</time>
      </trkpt>
      <trkpt lat="42.44447502188722" lon="1.932003200054169">
        <ele>1220.1</ele>
        <time>2022-09-06T16:19:41Z</time>
      </trkpt>
      <trkpt lat="42.444492845024" lon="1.932018622756005">
        <ele>1220.1</ele>
        <time>2022-09-06T16:19:42Z</time>
      </trkpt>
      <trkpt lat="42.44451066815569" lon="1.93203404545784">
        <ele>1220.2</ele>
        <time>2022-09-06T16:19:42Z</time>
      </trkpt>
      <trkpt lat="42.44452255024066" lon="1.932048127055168">
        <ele>1220.2</ele>
        <time>2022-09-06T16:19:42Z</time>
      </trkpt>
      <trkpt lat="42.4445344323234" lon="1.932062208652497">
        <ele>1220.2</ele>
        <time>2022-09-06T16:19:43Z</time>
      </trkpt>
      <trkpt lat="42.44455176035667" lon="1.932084336876869">
        <ele>1220.3</ele>
        <time>2022-09-06T16:19:43Z</time>
      </trkpt>
      <trkpt lat="42.44456908838515" lon="1.932106465101242">
        <ele>1220.3</ele>
        <time>2022-09-06T16:19:44Z</time>
      </trkpt>
      <trkpt lat="42.44458394097722" lon="1.932124570012093">
        <ele>1220.4</ele>
        <time>2022-09-06T16:19:44Z</time>
      </trkpt>
      <trkpt lat="42.44459879356572" lon="1.932142674922943">
        <ele>1220.4</ele>
        <time>2022-09-06T16:19:45Z</time>
      </trkpt>
      <trkpt lat="42.444610675634" lon="1.93215474486351">
        <ele>1220.4</ele>
        <time>2022-09-06T16:19:45Z</time>
      </trkpt>
      <trkpt lat="42.44462255769999" lon="1.932166814804078">
        <ele>1220.5</ele>
        <time>2022-09-06T16:19:45Z</time>
      </trkpt>
      <trkpt lat="42.44463394467783" lon="1.932178884744644">
        <ele>1220.5</ele>
        <time>2022-09-06T16:19:45Z</time>
      </trkpt>
      <trkpt lat="42.44464533165356" lon="1.932190954685211">
        <ele>1220.5</ele>
        <time>2022-09-06T16:19:46Z</time>
      </trkpt>
      <trkpt lat="42.44465820388452" lon="1.932202354073525">
        <ele>1220.6</ele>
        <time>2022-09-06T16:19:46Z</time>
      </trkpt>
      <trkpt lat="42.44467107611284" lon="1.932213753461838">
        <ele>1220.6</ele>
        <time>2022-09-06T16:19:46Z</time>
      </trkpt>
      <trkpt lat="42.44467256136979" lon="1.932234540581703">
        <ele>1220.6</ele>
        <time>2022-09-06T16:19:47Z</time>
      </trkpt>
      <trkpt lat="42.44467404662669" lon="1.932255327701569">
        <ele>1220.7</ele>
        <time>2022-09-06T16:19:47Z</time>
      </trkpt>
      <trkpt lat="42.44465622354149" lon="1.932270750403405">
        <ele>1220.7</ele>
        <time>2022-09-06T16:19:47Z</time>
      </trkpt>
      <trkpt lat="42.44463840045117" lon="1.93228617310524">
        <ele>1220.7</ele>
        <time>2022-09-06T16:19:48Z</time>
      </trkpt>
      <trkpt lat="42.444615131409" lon="1.93230964243412">
        <ele>1220.7</ele>
        <time>2022-09-06T16:19:48Z</time>
      </trkpt>
      <trkpt lat="42.44459186235816" lon="1.932333111763001">
        <ele>1220.8</ele>
        <time>2022-09-06T16:19:49Z</time>
      </trkpt>
      <trkpt lat="42.44457057364455" lon="1.932367980480194">
        <ele>1220.9</ele>
        <time>2022-09-06T16:19:50Z</time>
      </trkpt>
      <trkpt lat="42.44454928492366" lon="1.932402849197388">
        <ele>1221</ele>
        <time>2022-09-06T16:19:50Z</time>
      </trkpt>
      <trkpt lat="42.44452997654265" lon="1.932428330183029">
        <ele>1221.2</ele>
        <time>2022-09-06T16:19:51Z</time>
      </trkpt>
      <trkpt lat="42.44451066815569" lon="1.932453811168671">
        <ele>1221.2</ele>
        <time>2022-09-06T16:19:51Z</time>
      </trkpt>
      <trkpt lat="42.44448838924029" lon="1.932481974363327">
        <ele>1221.3</ele>
        <time>2022-09-06T16:19:52Z</time>
      </trkpt>
      <trkpt lat="42.44446611031694" lon="1.932510137557984">
        <ele>1221.5</ele>
        <time>2022-09-06T16:19:53Z</time>
      </trkpt>
      <trkpt lat="42.44445125769696" lon="1.932540312409401">
        <ele>1221.5</ele>
        <time>2022-09-06T16:19:53Z</time>
      </trkpt>
      <trkpt lat="42.44443640507347" lon="1.932570487260819">
        <ele>1221.6</ele>
        <time>2022-09-06T16:19:54Z</time>
      </trkpt>
      <trkpt lat="42.44441858192064" lon="1.932589262723923">
        <ele>1221.7</ele>
        <time>2022-09-06T16:19:54Z</time>
      </trkpt>
      <trkpt lat="42.44440075876274" lon="1.932608038187027">
        <ele>1221.8</ele>
        <time>2022-09-06T16:19:55Z</time>
      </trkpt>
      <trkpt lat="42.4443868963031" lon="1.932630836963654">
        <ele>1221.8</ele>
        <time>2022-09-06T16:19:55Z</time>
      </trkpt>
      <trkpt lat="42.44437303384039" lon="1.93265363574028">
        <ele>1221.9</ele>
        <time>2022-09-06T16:19:56Z</time>
      </trkpt>
      <trkpt lat="42.44435719102209" lon="1.932675763964653">
        <ele>1221.9</ele>
        <time>2022-09-06T16:19:56Z</time>
      </trkpt>
      <trkpt lat="42.44434134819979" lon="1.932697892189026">
        <ele>1222</ele>
        <time>2022-09-06T16:19:56Z</time>
      </trkpt>
      <trkpt lat="42.44432402010834" lon="1.932724043726921">
        <ele>1222</ele>
        <time>2022-09-06T16:19:57Z</time>
      </trkpt>
      <trkpt lat="42.44430669201207" lon="1.932750195264817">
        <ele>1222.1</ele>
        <time>2022-09-06T16:19:58Z</time>
      </trkpt>
      <trkpt lat="42.44428886882234" lon="1.93277232348919">
        <ele>1222.2</ele>
        <time>2022-09-06T16:19:58Z</time>
      </trkpt>
      <trkpt lat="42.44427104562752" lon="1.932794451713562">
        <ele>1222.2</ele>
        <time>2022-09-06T16:19:58Z</time>
      </trkpt>
      <trkpt lat="42.44425767822809" lon="1.932811215519905">
        <ele>1222.3</ele>
        <time>2022-09-06T16:19:59Z</time>
      </trkpt>
      <trkpt lat="42.44424431082581" lon="1.932827979326248">
        <ele>1222.4</ele>
        <time>2022-09-06T16:19:59Z</time>
      </trkpt>
      <trkpt lat="42.44423143850981" lon="1.932852789759636">
        <ele>1222.5</ele>
        <time>2022-09-06T16:20:00Z</time>
      </trkpt>
      <trkpt lat="42.44421856619117" lon="1.932877600193024">
        <ele>1222.5</ele>
        <time>2022-09-06T16:20:00Z</time>
      </trkpt>
      <trkpt lat="42.4441938117248" lon="1.932908445596695">
        <ele>1222.6</ele>
        <time>2022-09-06T16:20:01Z</time>
      </trkpt>
      <trkpt lat="42.44416905724864" lon="1.932939291000366">
        <ele>1222.6</ele>
        <time>2022-09-06T16:20:01Z</time>
      </trkpt>
      <trkpt lat="42.44414281749324" lon="1.932964101433754">
        <ele>1222.7</ele>
        <time>2022-09-06T16:20:02Z</time>
      </trkpt>
      <trkpt lat="42.44411657772684" lon="1.932988911867142">
        <ele>1222.6</ele>
        <time>2022-09-06T16:20:03Z</time>
      </trkpt>
      <trkpt lat="42.44410618083523" lon="1.933000311255455">
        <ele>1222.6</ele>
        <time>2022-09-06T16:20:03Z</time>
      </trkpt>
      <trkpt lat="42.44409578394189" lon="1.933011710643769">
        <ele>1222.6</ele>
        <time>2022-09-06T16:20:03Z</time>
      </trkpt>
      <trkpt lat="42.44408142632444" lon="1.933035179972649">
        <ele>1222.5</ele>
        <time>2022-09-06T16:20:04Z</time>
      </trkpt>
      <trkpt lat="42.44406706870373" lon="1.933058649301529">
        <ele>1222.5</ele>
        <time>2022-09-06T16:20:04Z</time>
      </trkpt>
      <trkpt lat="42.44405271107969" lon="1.933085471391678">
        <ele>1222.4</ele>
        <time>2022-09-06T16:20:05Z</time>
      </trkpt>
      <trkpt lat="42.44403835345236" lon="1.933112293481827">
        <ele>1222.4</ele>
        <time>2022-09-06T16:20:05Z</time>
      </trkpt>
      <trkpt lat="42.44403439272703" lon="1.933145821094513">
        <ele>1222.3</ele>
        <time>2022-09-06T16:20:06Z</time>
      </trkpt>
      <trkpt lat="42.44403043200142" lon="1.933179348707199">
        <ele>1222.2</ele>
        <time>2022-09-06T16:20:06Z</time>
      </trkpt>
      <trkpt lat="42.44402746145706" lon="1.933194100856781">
        <ele>1222.1</ele>
        <time>2022-09-06T16:20:06Z</time>
      </trkpt>
      <trkpt lat="42.44402449091255" lon="1.933208853006363">
        <ele>1222.1</ele>
        <time>2022-09-06T16:20:07Z</time>
      </trkpt>
      <trkpt lat="42.44399775600564" lon="1.933212205767632">
        <ele>1222.1</ele>
        <time>2022-09-06T16:20:07Z</time>
      </trkpt>
      <trkpt lat="42.44397102108729" lon="1.9332155585289">
        <ele>1222.2</ele>
        <time>2022-09-06T16:20:08Z</time>
      </trkpt>
      <trkpt lat="42.44395270271075" lon="1.933228969573975">
        <ele>1222.1</ele>
        <time>2022-09-06T16:20:08Z</time>
      </trkpt>
      <trkpt lat="42.44393438432881" lon="1.933242380619049">
        <ele>1222.1</ele>
        <time>2022-09-06T16:20:09Z</time>
      </trkpt>
      <trkpt lat="42.44391260030011" lon="1.933257803320885">
        <ele>1222.1</ele>
        <time>2022-09-06T16:20:09Z</time>
      </trkpt>
      <trkpt lat="42.443905" lon="1.933317">
        <ele>1221.8</ele>
        <time>2022-09-06T16:20:10Z</time>
      </trkpt>
      <trkpt lat="42.443831" lon="1.933362">
        <ele>1221.5</ele>
        <time>2022-09-06T16:20:12Z</time>
      </trkpt>
      <trkpt lat="42.443677" lon="1.933456">
        <ele>1221.3</ele>
        <time>2022-09-06T16:20:15Z</time>
      </trkpt>
      <trkpt lat="42.443428" lon="1.933608">
        <ele>1221</ele>
        <time>2022-09-06T16:20:21Z</time>
      </trkpt>
      <trkpt lat="42.443264" lon="1.933709">
        <ele>1220.8</ele>
        <time>2022-09-06T16:20:24Z</time>
      </trkpt>
      <trkpt lat="42.443166" lon="1.933769">
        <ele>1220.5</ele>
        <time>2022-09-06T16:20:26Z</time>
      </trkpt>
      <trkpt lat="42.443033" lon="1.93385">
        <ele>1220.3</ele>
        <time>2022-09-06T16:20:29Z</time>
      </trkpt>
      <trkpt lat="42.442923" lon="1.933917">
        <ele>1220</ele>
        <time>2022-09-06T16:20:32Z</time>
      </trkpt>
      <trkpt lat="42.442842" lon="1.933967">
        <ele>1220</ele>
        <time>2022-09-06T16:20:34Z</time>
      </trkpt>
      <trkpt lat="42.442815" lon="1.933984">
        <ele>1220</ele>
        <time>2022-09-06T16:20:34Z</time>
      </trkpt>
      <trkpt lat="42.442775" lon="1.934006">
        <ele>1220</ele>
        <time>2022-09-06T16:20:35Z</time>
      </trkpt>
      <trkpt lat="42.442727" lon="1.934037">
        <ele>1220</ele>
        <time>2022-09-06T16:20:36Z</time>
      </trkpt>
      <trkpt lat="42.44263" lon="1.934101">
        <ele>1220</ele>
        <time>2022-09-06T16:20:38Z</time>
      </trkpt>
      <trkpt lat="42.442563" lon="1.934133">
        <ele>1220</ele>
        <time>2022-09-06T16:20:40Z</time>
      </trkpt>
      <trkpt lat="42.442465" lon="1.934179">
        <ele>1220</ele>
        <time>2022-09-06T16:20:42Z</time>
      </trkpt>
      <trkpt lat="42.442442" lon="1.934191">
        <ele>1220</ele>
        <time>2022-09-06T16:20:42Z</time>
      </trkpt>
      <trkpt lat="42.442347" lon="1.934172">
        <ele>1220.3</ele>
        <time>2022-09-06T16:20:44Z</time>
      </trkpt>
      <trkpt lat="42.442261" lon="1.934156">
        <ele>1220.8</ele>
        <time>2022-09-06T16:20:46Z</time>
      </trkpt>
      <trkpt lat="42.44225" lon="1.934177">
        <ele>1220.5</ele>
        <time>2022-09-06T16:20:46Z</time>
      </trkpt>
      <trkpt lat="42.442213" lon="1.934256">
        <ele>1220.5</ele>
        <time>2022-09-06T16:20:48Z</time>
      </trkpt>
      <trkpt lat="42.442199" lon="1.934275">
        <ele>1220.3</ele>
        <time>2022-09-06T16:20:48Z</time>
      </trkpt>
      <trkpt lat="42.44212" lon="1.934387">
        <ele>1220.3</ele>
        <time>2022-09-06T16:20:51Z</time>
      </trkpt>
      <trkpt lat="42.442037" lon="1.934506">
        <ele>1220</ele>
        <time>2022-09-06T16:20:53Z</time>
      </trkpt>
      <trkpt lat="42.44184" lon="1.934787">
        <ele>1219.8</ele>
        <time>2022-09-06T16:20:59Z</time>
      </trkpt>
      <trkpt lat="42.44174" lon="1.934929">
        <ele>1219.8</ele>
        <time>2022-09-06T16:21:02Z</time>
      </trkpt>
      <trkpt lat="42.441698" lon="1.93499">
        <ele>1219.8</ele>
        <time>2022-09-06T16:21:03Z</time>
      </trkpt>
      <trkpt lat="42.441531" lon="1.935145">
        <ele>1219.3</ele>
        <time>2022-09-06T16:21:07Z</time>
      </trkpt>
      <trkpt lat="42.441349" lon="1.935315">
        <ele>1219</ele>
        <time>2022-09-06T16:21:12Z</time>
      </trkpt>
      <trkpt lat="42.441308" lon="1.935352">
        <ele>1218.8</ele>
        <time>2022-09-06T16:21:13Z</time>
      </trkpt>
      <trkpt lat="42.441122" lon="1.935526">
        <ele>1218.3</ele>
        <time>2022-09-06T16:21:17Z</time>
      </trkpt>
      <trkpt lat="42.441036" lon="1.935607">
        <ele>1218</ele>
        <time>2022-09-06T16:21:19Z</time>
      </trkpt>
      <trkpt lat="42.440918" lon="1.935646">
        <ele>1217.8</ele>
        <time>2022-09-06T16:21:22Z</time>
      </trkpt>
      <trkpt lat="42.440894" lon="1.935655">
        <ele>1217.8</ele>
        <time>2022-09-06T16:21:22Z</time>
      </trkpt>
      <trkpt lat="42.440817" lon="1.935631">
        <ele>1218</ele>
        <time>2022-09-06T16:21:24Z</time>
      </trkpt>
      <trkpt lat="42.440805" lon="1.935612">
        <ele>1218</ele>
        <time>2022-09-06T16:21:24Z</time>
      </trkpt>
      <trkpt lat="42.440611" lon="1.935308">
        <ele>1218</ele>
        <time>2022-09-06T16:21:30Z</time>
      </trkpt>
      <trkpt lat="42.440469" lon="1.935086">
        <ele>1218</ele>
        <time>2022-09-06T16:21:35Z</time>
      </trkpt>
      <trkpt lat="42.440293" lon="1.93481">
        <ele>1218.3</ele>
        <time>2022-09-06T16:21:40Z</time>
      </trkpt>
      <trkpt lat="42.440305" lon="1.934795">
        <ele>1218.3</ele>
        <time>2022-09-06T16:21:40Z</time>
      </trkpt>
    </trkseg>
  </trk>

</gpx>
